<?xml version="1.0" encoding="UTF-8" standalone="no" ?>
<gpx xmlns="http://www.topografix.com/GPX/1/1" xmlns:xsi="http://www.w3.org/2001/XMLSchema-instance" xsi:schemaLocation="http://www.topografix.com/GPX/1/1 http://www.topografix.com/GPX/1/1/gpx.xsd" version="1.1" creator="VisuGPX - https://www.visugpx.com">
  <metadata>
    <name>FD23 secteur 02 sur les traces de Paris Roubaix</name>
  </metadata>
  <trk>
    <name><![CDATA[FD23 secteur 02 sur les traces de Paris Roubaix_1]]></name>
    <trkseg>
      <trkpt lat="50.54833" lon="3.02829">
        <ele>29.4</ele>
        <time>2023-08-06T04:00:19Z</time>
      </trkpt>
      <trkpt lat="50.54812" lon="3.0281">
        <ele>27.2</ele>
        <time>2023-08-06T04:00:28Z</time>
      </trkpt>
      <trkpt lat="50.54788" lon="3.02789">
        <ele>27.4</ele>
        <time>2023-08-06T04:00:37Z</time>
      </trkpt>
      <trkpt lat="50.54761" lon="3.02766">
        <ele>27.2</ele>
        <time>2023-08-06T04:00:46Z</time>
      </trkpt>
      <trkpt lat="50.54743" lon="3.0275">
        <ele>27.2</ele>
        <time>2023-08-06T04:00:53Z</time>
      </trkpt>
      <trkpt lat="50.54741" lon="3.02748">
        <ele>27.2</ele>
        <time>2023-08-06T04:00:54Z</time>
      </trkpt>
      <trkpt lat="50.54738" lon="3.02745">
        <ele>27.2</ele>
        <time>2023-08-06T04:00:55Z</time>
      </trkpt>
      <trkpt lat="50.54735" lon="3.02742">
        <ele>27.2</ele>
        <time>2023-08-06T04:00:56Z</time>
      </trkpt>
      <trkpt lat="50.54732" lon="3.0274">
        <ele>27.2</ele>
        <time>2023-08-06T04:00:57Z</time>
      </trkpt>
      <trkpt lat="50.5473" lon="3.02738">
        <ele>27.2</ele>
        <time>2023-08-06T04:00:58Z</time>
      </trkpt>
      <trkpt lat="50.54728" lon="3.02736">
        <ele>27.2</ele>
        <time>2023-08-06T04:00:59Z</time>
      </trkpt>
      <trkpt lat="50.54725" lon="3.02734">
        <ele>27.2</ele>
        <time>2023-08-06T04:01:00Z</time>
      </trkpt>
      <trkpt lat="50.54722" lon="3.02731">
        <ele>27</ele>
        <time>2023-08-06T04:01:01Z</time>
      </trkpt>
      <trkpt lat="50.54719" lon="3.02728">
        <ele>27</ele>
        <time>2023-08-06T04:01:02Z</time>
      </trkpt>
      <trkpt lat="50.54707" lon="3.02712">
        <ele>27</ele>
        <time>2023-08-06T04:01:07Z</time>
      </trkpt>
      <trkpt lat="50.54681" lon="3.02684">
        <ele>27</ele>
        <time>2023-08-06T04:01:17Z</time>
      </trkpt>
      <trkpt lat="50.54661" lon="3.02663">
        <ele>27</ele>
        <time>2023-08-06T04:01:24Z</time>
      </trkpt>
      <trkpt lat="50.54657" lon="3.02657">
        <ele>27</ele>
        <time>2023-08-06T04:01:26Z</time>
      </trkpt>
      <trkpt lat="50.54654" lon="3.02655">
        <ele>27</ele>
        <time>2023-08-06T04:01:27Z</time>
      </trkpt>
      <trkpt lat="50.54652" lon="3.02652">
        <ele>27</ele>
        <time>2023-08-06T04:01:28Z</time>
      </trkpt>
      <trkpt lat="50.5465" lon="3.02649">
        <ele>27</ele>
        <time>2023-08-06T04:01:29Z</time>
      </trkpt>
      <trkpt lat="50.54625" lon="3.02621">
        <ele>27.2</ele>
        <time>2023-08-06T04:01:38Z</time>
      </trkpt>
      <trkpt lat="50.5461" lon="3.02602">
        <ele>27.2</ele>
        <time>2023-08-06T04:01:44Z</time>
      </trkpt>
      <trkpt lat="50.54608" lon="3.02598">
        <ele>27.2</ele>
        <time>2023-08-06T04:01:45Z</time>
      </trkpt>
      <trkpt lat="50.54606" lon="3.02595">
        <ele>27.2</ele>
        <time>2023-08-06T04:01:46Z</time>
      </trkpt>
      <trkpt lat="50.54603" lon="3.02592">
        <ele>27</ele>
        <time>2023-08-06T04:01:47Z</time>
      </trkpt>
      <trkpt lat="50.54601" lon="3.02588">
        <ele>27</ele>
        <time>2023-08-06T04:01:48Z</time>
      </trkpt>
      <trkpt lat="50.54586" lon="3.02568">
        <ele>27</ele>
        <time>2023-08-06T04:01:54Z</time>
      </trkpt>
      <trkpt lat="50.54565" lon="3.02543">
        <ele>27</ele>
        <time>2023-08-06T04:02:02Z</time>
      </trkpt>
      <trkpt lat="50.54548" lon="3.02527">
        <ele>27</ele>
        <time>2023-08-06T04:02:08Z</time>
      </trkpt>
      <trkpt lat="50.54544" lon="3.02521">
        <ele>27</ele>
        <time>2023-08-06T04:02:10Z</time>
      </trkpt>
      <trkpt lat="50.54542" lon="3.02518">
        <ele>27</ele>
        <time>2023-08-06T04:02:11Z</time>
      </trkpt>
      <trkpt lat="50.5454" lon="3.02516">
        <ele>27</ele>
        <time>2023-08-06T04:02:12Z</time>
      </trkpt>
      <trkpt lat="50.54538" lon="3.02513">
        <ele>27</ele>
        <time>2023-08-06T04:02:13Z</time>
      </trkpt>
      <trkpt lat="50.54536" lon="3.0251">
        <ele>27</ele>
        <time>2023-08-06T04:02:14Z</time>
      </trkpt>
      <trkpt lat="50.54533" lon="3.02507">
        <ele>27</ele>
        <time>2023-08-06T04:02:15Z</time>
      </trkpt>
      <trkpt lat="50.54531" lon="3.02504">
        <ele>27</ele>
        <time>2023-08-06T04:02:16Z</time>
      </trkpt>
      <trkpt lat="50.54529" lon="3.02501">
        <ele>27</ele>
        <time>2023-08-06T04:02:17Z</time>
      </trkpt>
      <trkpt lat="50.54505" lon="3.02472">
        <ele>26.6</ele>
        <time>2023-08-06T04:02:27Z</time>
      </trkpt>
      <trkpt lat="50.54482" lon="3.02451">
        <ele>26.6</ele>
        <time>2023-08-06T04:02:35Z</time>
      </trkpt>
      <trkpt lat="50.54472" lon="3.02451">
        <ele>26.6</ele>
        <time>2023-08-06T04:02:38Z</time>
      </trkpt>
      <trkpt lat="50.54469" lon="3.02454">
        <ele>26.6</ele>
        <time>2023-08-06T04:02:39Z</time>
      </trkpt>
      <trkpt lat="50.54467" lon="3.02456">
        <ele>26.6</ele>
        <time>2023-08-06T04:02:40Z</time>
      </trkpt>
      <trkpt lat="50.54464" lon="3.02459">
        <ele>26.6</ele>
        <time>2023-08-06T04:02:41Z</time>
      </trkpt>
      <trkpt lat="50.54462" lon="3.02462">
        <ele>26.6</ele>
        <time>2023-08-06T04:02:42Z</time>
      </trkpt>
      <trkpt lat="50.5446" lon="3.02465">
        <ele>26.6</ele>
        <time>2023-08-06T04:02:43Z</time>
      </trkpt>
      <trkpt lat="50.54456" lon="3.0247">
        <ele>26.6</ele>
        <time>2023-08-06T04:02:45Z</time>
      </trkpt>
      <trkpt lat="50.54455" lon="3.02474">
        <ele>26.8</ele>
        <time>2023-08-06T04:02:46Z</time>
      </trkpt>
      <trkpt lat="50.54453" lon="3.02476">
        <ele>26.8</ele>
        <time>2023-08-06T04:02:47Z</time>
      </trkpt>
      <trkpt lat="50.54451" lon="3.02479">
        <ele>26.8</ele>
        <time>2023-08-06T04:02:48Z</time>
      </trkpt>
      <trkpt lat="50.5445" lon="3.02483">
        <ele>26.8</ele>
        <time>2023-08-06T04:02:49Z</time>
      </trkpt>
      <trkpt lat="50.54448" lon="3.02486">
        <ele>26.8</ele>
        <time>2023-08-06T04:02:50Z</time>
      </trkpt>
      <trkpt lat="50.54446" lon="3.0249">
        <ele>26.8</ele>
        <time>2023-08-06T04:02:51Z</time>
      </trkpt>
      <trkpt lat="50.54446" lon="3.0249">
        <ele>26.8</ele>
        <time>2023-08-06T04:02:52Z</time>
      </trkpt>
      <trkpt lat="50.54442" lon="3.02496">
        <ele>26.8</ele>
        <time>2023-08-06T04:02:53Z</time>
      </trkpt>
      <trkpt lat="50.54439" lon="3.025">
        <ele>26.8</ele>
        <time>2023-08-06T04:02:54Z</time>
      </trkpt>
      <trkpt lat="50.54433" lon="3.0251">
        <ele>26.8</ele>
        <time>2023-08-06T04:02:56Z</time>
      </trkpt>
      <trkpt lat="50.54426" lon="3.02523">
        <ele>26.8</ele>
        <time>2023-08-06T04:02:59Z</time>
      </trkpt>
      <trkpt lat="50.54418" lon="3.02532">
        <ele>26.8</ele>
        <time>2023-08-06T04:03:02Z</time>
      </trkpt>
      <trkpt lat="50.54415" lon="3.02532">
        <ele>26.6</ele>
        <time>2023-08-06T04:03:03Z</time>
      </trkpt>
      <trkpt lat="50.54413" lon="3.02532">
        <ele>26.6</ele>
        <time>2023-08-06T04:03:04Z</time>
      </trkpt>
      <trkpt lat="50.5441" lon="3.02532">
        <ele>26.6</ele>
        <time>2023-08-06T04:03:05Z</time>
      </trkpt>
      <trkpt lat="50.54408" lon="3.02531">
        <ele>26.6</ele>
        <time>2023-08-06T04:03:06Z</time>
      </trkpt>
      <trkpt lat="50.54408" lon="3.02531">
        <ele>26.6</ele>
        <time>2023-08-06T04:03:07Z</time>
      </trkpt>
      <trkpt lat="50.54407" lon="3.0253">
        <ele>26.6</ele>
        <time>2023-08-06T04:03:08Z</time>
      </trkpt>
      <trkpt lat="50.54407" lon="3.0253">
        <ele>26.6</ele>
        <time>2023-08-06T04:03:09Z</time>
      </trkpt>
      <trkpt lat="50.54408" lon="3.02529">
        <ele>26.6</ele>
        <time>2023-08-06T04:03:11Z</time>
      </trkpt>
      <trkpt lat="50.54405" lon="3.02522">
        <ele>26.8</ele>
        <time>2023-08-06T04:07:05Z</time>
      </trkpt>
      <trkpt lat="50.54402" lon="3.02522">
        <ele>26.8</ele>
        <time>2023-08-06T04:07:07Z</time>
      </trkpt>
      <trkpt lat="50.544" lon="3.02522">
        <ele>26.8</ele>
        <time>2023-08-06T04:07:08Z</time>
      </trkpt>
      <trkpt lat="50.54399" lon="3.02522">
        <ele>26.6</ele>
        <time>2023-08-06T04:07:09Z</time>
      </trkpt>
      <trkpt lat="50.54397" lon="3.02521">
        <ele>26.6</ele>
        <time>2023-08-06T04:07:10Z</time>
      </trkpt>
      <trkpt lat="50.54389" lon="3.02518">
        <ele>26.8</ele>
        <time>2023-08-06T04:07:14Z</time>
      </trkpt>
      <trkpt lat="50.54371" lon="3.02513">
        <ele>26.8</ele>
        <time>2023-08-06T04:07:21Z</time>
      </trkpt>
      <trkpt lat="50.54366" lon="3.02513">
        <ele>26.6</ele>
        <time>2023-08-06T04:07:23Z</time>
      </trkpt>
      <trkpt lat="50.54364" lon="3.02518">
        <ele>26.6</ele>
        <time>2023-08-06T04:07:25Z</time>
      </trkpt>
      <trkpt lat="50.54362" lon="3.02528">
        <ele>26.6</ele>
        <time>2023-08-06T04:07:28Z</time>
      </trkpt>
      <trkpt lat="50.54361" lon="3.02532">
        <ele>26.6</ele>
        <time>2023-08-06T04:07:29Z</time>
      </trkpt>
      <trkpt lat="50.54361" lon="3.02535">
        <ele>26.6</ele>
        <time>2023-08-06T04:07:30Z</time>
      </trkpt>
      <trkpt lat="50.54359" lon="3.02538">
        <ele>26.4</ele>
        <time>2023-08-06T04:07:31Z</time>
      </trkpt>
      <trkpt lat="50.54358" lon="3.02542">
        <ele>26.4</ele>
        <time>2023-08-06T04:07:32Z</time>
      </trkpt>
      <trkpt lat="50.54357" lon="3.02545">
        <ele>26.4</ele>
        <time>2023-08-06T04:07:33Z</time>
      </trkpt>
      <trkpt lat="50.54357" lon="3.0255">
        <ele>26.4</ele>
        <time>2023-08-06T04:07:34Z</time>
      </trkpt>
      <trkpt lat="50.54353" lon="3.02563">
        <ele>26.4</ele>
        <time>2023-08-06T04:07:38Z</time>
      </trkpt>
      <trkpt lat="50.54351" lon="3.02567">
        <ele>26.4</ele>
        <time>2023-08-06T04:07:39Z</time>
      </trkpt>
      <trkpt lat="50.54348" lon="3.02571">
        <ele>26.4</ele>
        <time>2023-08-06T04:07:40Z</time>
      </trkpt>
      <trkpt lat="50.54345" lon="3.02574">
        <ele>26.4</ele>
        <time>2023-08-06T04:07:41Z</time>
      </trkpt>
      <trkpt lat="50.54342" lon="3.02576">
        <ele>26.4</ele>
        <time>2023-08-06T04:07:42Z</time>
      </trkpt>
      <trkpt lat="50.54325" lon="3.02593">
        <ele>26.4</ele>
        <time>2023-08-06T04:07:48Z</time>
      </trkpt>
      <trkpt lat="50.54303" lon="3.02629">
        <ele>26.6</ele>
        <time>2023-08-06T04:07:57Z</time>
      </trkpt>
      <trkpt lat="50.54289" lon="3.02652">
        <ele>26.6</ele>
        <time>2023-08-06T04:08:03Z</time>
      </trkpt>
      <trkpt lat="50.54277" lon="3.02665">
        <ele>26.6</ele>
        <time>2023-08-06T04:08:07Z</time>
      </trkpt>
      <trkpt lat="50.5427" lon="3.02666">
        <ele>26.6</ele>
        <time>2023-08-06T04:08:09Z</time>
      </trkpt>
      <trkpt lat="50.54267" lon="3.02666">
        <ele>26.6</ele>
        <time>2023-08-06T04:08:10Z</time>
      </trkpt>
      <trkpt lat="50.5426" lon="3.02664">
        <ele>26.8</ele>
        <time>2023-08-06T04:08:12Z</time>
      </trkpt>
      <trkpt lat="50.54257" lon="3.02664">
        <ele>26.8</ele>
        <time>2023-08-06T04:08:13Z</time>
      </trkpt>
      <trkpt lat="50.54245" lon="3.02666">
        <ele>27</ele>
        <time>2023-08-06T04:08:17Z</time>
      </trkpt>
      <trkpt lat="50.54214" lon="3.02679">
        <ele>26.8</ele>
        <time>2023-08-06T04:08:26Z</time>
      </trkpt>
      <trkpt lat="50.542" lon="3.02692">
        <ele>26.6</ele>
        <time>2023-08-06T04:08:31Z</time>
      </trkpt>
      <trkpt lat="50.54195" lon="3.02698">
        <ele>26.6</ele>
        <time>2023-08-06T04:08:33Z</time>
      </trkpt>
      <trkpt lat="50.54193" lon="3.02701">
        <ele>26.6</ele>
        <time>2023-08-06T04:08:34Z</time>
      </trkpt>
      <trkpt lat="50.54191" lon="3.02704">
        <ele>26.6</ele>
        <time>2023-08-06T04:08:35Z</time>
      </trkpt>
      <trkpt lat="50.5419" lon="3.02707">
        <ele>26.6</ele>
        <time>2023-08-06T04:08:36Z</time>
      </trkpt>
      <trkpt lat="50.54188" lon="3.02711">
        <ele>26.6</ele>
        <time>2023-08-06T04:08:37Z</time>
      </trkpt>
      <trkpt lat="50.54187" lon="3.02714">
        <ele>26.6</ele>
        <time>2023-08-06T04:08:38Z</time>
      </trkpt>
      <trkpt lat="50.54185" lon="3.02717">
        <ele>26.6</ele>
        <time>2023-08-06T04:08:39Z</time>
      </trkpt>
      <trkpt lat="50.54184" lon="3.0272">
        <ele>26.6</ele>
        <time>2023-08-06T04:08:40Z</time>
      </trkpt>
      <trkpt lat="50.54182" lon="3.02722">
        <ele>26.6</ele>
        <time>2023-08-06T04:08:41Z</time>
      </trkpt>
      <trkpt lat="50.54179" lon="3.02722">
        <ele>26.6</ele>
        <time>2023-08-06T04:08:42Z</time>
      </trkpt>
      <trkpt lat="50.54177" lon="3.02722">
        <ele>26.6</ele>
        <time>2023-08-06T04:08:43Z</time>
      </trkpt>
      <trkpt lat="50.54171" lon="3.02721">
        <ele>26.6</ele>
        <time>2023-08-06T04:08:45Z</time>
      </trkpt>
      <trkpt lat="50.54168" lon="3.0272">
        <ele>26.6</ele>
        <time>2023-08-06T04:08:46Z</time>
      </trkpt>
      <trkpt lat="50.54152" lon="3.02719">
        <ele>26.6</ele>
        <time>2023-08-06T04:08:51Z</time>
      </trkpt>
      <trkpt lat="50.54129" lon="3.0272">
        <ele>26.6</ele>
        <time>2023-08-06T04:08:58Z</time>
      </trkpt>
      <trkpt lat="50.54126" lon="3.02718">
        <ele>26.6</ele>
        <time>2023-08-06T04:08:59Z</time>
      </trkpt>
      <trkpt lat="50.54124" lon="3.02715">
        <ele>26.6</ele>
        <time>2023-08-06T04:09:00Z</time>
      </trkpt>
      <trkpt lat="50.54122" lon="3.02712">
        <ele>26.6</ele>
        <time>2023-08-06T04:09:01Z</time>
      </trkpt>
      <trkpt lat="50.5412" lon="3.02708">
        <ele>26.6</ele>
        <time>2023-08-06T04:09:02Z</time>
      </trkpt>
      <trkpt lat="50.54118" lon="3.02705">
        <ele>26.6</ele>
        <time>2023-08-06T04:09:03Z</time>
      </trkpt>
      <trkpt lat="50.54109" lon="3.02701">
        <ele>26.8</ele>
        <time>2023-08-06T04:09:06Z</time>
      </trkpt>
      <trkpt lat="50.54105" lon="3.02701">
        <ele>26.8</ele>
        <time>2023-08-06T04:09:07Z</time>
      </trkpt>
      <trkpt lat="50.54102" lon="3.02702">
        <ele>26.8</ele>
        <time>2023-08-06T04:09:08Z</time>
      </trkpt>
      <trkpt lat="50.54099" lon="3.02703">
        <ele>26.8</ele>
        <time>2023-08-06T04:09:09Z</time>
      </trkpt>
      <trkpt lat="50.54096" lon="3.02704">
        <ele>27</ele>
        <time>2023-08-06T04:09:10Z</time>
      </trkpt>
      <trkpt lat="50.54077" lon="3.02711">
        <ele>26.8</ele>
        <time>2023-08-06T04:09:16Z</time>
      </trkpt>
      <trkpt lat="50.54059" lon="3.02721">
        <ele>26.6</ele>
        <time>2023-08-06T04:09:22Z</time>
      </trkpt>
      <trkpt lat="50.54056" lon="3.02725">
        <ele>26.6</ele>
        <time>2023-08-06T04:09:23Z</time>
      </trkpt>
      <trkpt lat="50.54053" lon="3.0273">
        <ele>26.4</ele>
        <time>2023-08-06T04:09:24Z</time>
      </trkpt>
      <trkpt lat="50.54045" lon="3.02751">
        <ele>26.2</ele>
        <time>2023-08-06T04:09:28Z</time>
      </trkpt>
      <trkpt lat="50.5404" lon="3.02767">
        <ele>26</ele>
        <time>2023-08-06T04:09:31Z</time>
      </trkpt>
      <trkpt lat="50.54027" lon="3.02801">
        <ele>25.6</ele>
        <time>2023-08-06T04:09:38Z</time>
      </trkpt>
      <trkpt lat="50.54025" lon="3.02805">
        <ele>25.6</ele>
        <time>2023-08-06T04:09:39Z</time>
      </trkpt>
      <trkpt lat="50.54021" lon="3.02815">
        <ele>25.8</ele>
        <time>2023-08-06T04:09:41Z</time>
      </trkpt>
      <trkpt lat="50.54019" lon="3.0282">
        <ele>25.8</ele>
        <time>2023-08-06T04:09:42Z</time>
      </trkpt>
      <trkpt lat="50.54017" lon="3.02824">
        <ele>25.8</ele>
        <time>2023-08-06T04:09:43Z</time>
      </trkpt>
      <trkpt lat="50.54015" lon="3.02828">
        <ele>26</ele>
        <time>2023-08-06T04:09:44Z</time>
      </trkpt>
      <trkpt lat="50.54013" lon="3.02833">
        <ele>26</ele>
        <time>2023-08-06T04:09:45Z</time>
      </trkpt>
      <trkpt lat="50.54009" lon="3.02842">
        <ele>26</ele>
        <time>2023-08-06T04:09:47Z</time>
      </trkpt>
      <trkpt lat="50.5399" lon="3.0287">
        <ele>26.2</ele>
        <time>2023-08-06T04:09:54Z</time>
      </trkpt>
      <trkpt lat="50.53962" lon="3.02885">
        <ele>26.4</ele>
        <time>2023-08-06T04:10:02Z</time>
      </trkpt>
      <trkpt lat="50.53955" lon="3.02884">
        <ele>26.4</ele>
        <time>2023-08-06T04:10:04Z</time>
      </trkpt>
      <trkpt lat="50.53951" lon="3.02883">
        <ele>26.4</ele>
        <time>2023-08-06T04:10:05Z</time>
      </trkpt>
      <trkpt lat="50.53941" lon="3.02875">
        <ele>26.4</ele>
        <time>2023-08-06T04:10:08Z</time>
      </trkpt>
      <trkpt lat="50.5392" lon="3.02847">
        <ele>26.6</ele>
        <time>2023-08-06T04:10:15Z</time>
      </trkpt>
      <trkpt lat="50.53918" lon="3.02844">
        <ele>26.6</ele>
        <time>2023-08-06T04:10:16Z</time>
      </trkpt>
      <trkpt lat="50.53916" lon="3.0284">
        <ele>26.6</ele>
        <time>2023-08-06T04:10:17Z</time>
      </trkpt>
      <trkpt lat="50.53905" lon="3.02826">
        <ele>26.8</ele>
        <time>2023-08-06T04:10:21Z</time>
      </trkpt>
      <trkpt lat="50.53902" lon="3.02822">
        <ele>26.8</ele>
        <time>2023-08-06T04:10:22Z</time>
      </trkpt>
      <trkpt lat="50.53896" lon="3.02814">
        <ele>27</ele>
        <time>2023-08-06T04:10:24Z</time>
      </trkpt>
      <trkpt lat="50.53893" lon="3.0281">
        <ele>27</ele>
        <time>2023-08-06T04:10:25Z</time>
      </trkpt>
      <trkpt lat="50.53887" lon="3.02804">
        <ele>27</ele>
        <time>2023-08-06T04:10:27Z</time>
      </trkpt>
      <trkpt lat="50.53873" lon="3.02791">
        <ele>27.2</ele>
        <time>2023-08-06T04:10:31Z</time>
      </trkpt>
      <trkpt lat="50.53845" lon="3.02774">
        <ele>27.6</ele>
        <time>2023-08-06T04:10:39Z</time>
      </trkpt>
      <trkpt lat="50.53838" lon="3.02772">
        <ele>27.6</ele>
        <time>2023-08-06T04:10:41Z</time>
      </trkpt>
      <trkpt lat="50.53827" lon="3.0277">
        <ele>27.8</ele>
        <time>2023-08-06T04:10:44Z</time>
      </trkpt>
      <trkpt lat="50.53824" lon="3.02769">
        <ele>27.8</ele>
        <time>2023-08-06T04:10:45Z</time>
      </trkpt>
      <trkpt lat="50.5382" lon="3.02769">
        <ele>27.8</ele>
        <time>2023-08-06T04:10:46Z</time>
      </trkpt>
      <trkpt lat="50.53817" lon="3.02769">
        <ele>27.8</ele>
        <time>2023-08-06T04:10:47Z</time>
      </trkpt>
      <trkpt lat="50.53814" lon="3.02768">
        <ele>27.8</ele>
        <time>2023-08-06T04:10:48Z</time>
      </trkpt>
      <trkpt lat="50.5381" lon="3.02767">
        <ele>27.8</ele>
        <time>2023-08-06T04:10:49Z</time>
      </trkpt>
      <trkpt lat="50.53807" lon="3.02767">
        <ele>27.8</ele>
        <time>2023-08-06T04:10:50Z</time>
      </trkpt>
      <trkpt lat="50.53804" lon="3.02766">
        <ele>27.8</ele>
        <time>2023-08-06T04:10:51Z</time>
      </trkpt>
      <trkpt lat="50.53801" lon="3.02766">
        <ele>28</ele>
        <time>2023-08-06T04:10:52Z</time>
      </trkpt>
      <trkpt lat="50.53797" lon="3.02766">
        <ele>28</ele>
        <time>2023-08-06T04:10:53Z</time>
      </trkpt>
      <trkpt lat="50.53794" lon="3.02765">
        <ele>28.2</ele>
        <time>2023-08-06T04:10:54Z</time>
      </trkpt>
      <trkpt lat="50.53791" lon="3.02765">
        <ele>28.4</ele>
        <time>2023-08-06T04:10:55Z</time>
      </trkpt>
      <trkpt lat="50.53789" lon="3.02765">
        <ele>28.4</ele>
        <time>2023-08-06T04:10:56Z</time>
      </trkpt>
      <trkpt lat="50.53786" lon="3.02765">
        <ele>28.6</ele>
        <time>2023-08-06T04:10:57Z</time>
      </trkpt>
      <trkpt lat="50.53783" lon="3.02765">
        <ele>28.6</ele>
        <time>2023-08-06T04:10:58Z</time>
      </trkpt>
      <trkpt lat="50.5378" lon="3.02765">
        <ele>28.8</ele>
        <time>2023-08-06T04:10:59Z</time>
      </trkpt>
      <trkpt lat="50.53778" lon="3.02765">
        <ele>28.8</ele>
        <time>2023-08-06T04:11:00Z</time>
      </trkpt>
      <trkpt lat="50.53775" lon="3.02766">
        <ele>29</ele>
        <time>2023-08-06T04:11:01Z</time>
      </trkpt>
      <trkpt lat="50.53772" lon="3.02766">
        <ele>29</ele>
        <time>2023-08-06T04:11:02Z</time>
      </trkpt>
      <trkpt lat="50.5377" lon="3.02766">
        <ele>29.2</ele>
        <time>2023-08-06T04:11:03Z</time>
      </trkpt>
      <trkpt lat="50.53768" lon="3.02767">
        <ele>29.4</ele>
        <time>2023-08-06T04:11:04Z</time>
      </trkpt>
      <trkpt lat="50.53765" lon="3.02767">
        <ele>29.8</ele>
        <time>2023-08-06T04:11:05Z</time>
      </trkpt>
      <trkpt lat="50.53763" lon="3.02767">
        <ele>29.8</ele>
        <time>2023-08-06T04:11:06Z</time>
      </trkpt>
      <trkpt lat="50.53758" lon="3.02768">
        <ele>30</ele>
        <time>2023-08-06T04:11:08Z</time>
      </trkpt>
      <trkpt lat="50.53756" lon="3.02769">
        <ele>30</ele>
        <time>2023-08-06T04:11:09Z</time>
      </trkpt>
      <trkpt lat="50.53753" lon="3.0277">
        <ele>30.2</ele>
        <time>2023-08-06T04:11:10Z</time>
      </trkpt>
      <trkpt lat="50.53751" lon="3.0277">
        <ele>30.4</ele>
        <time>2023-08-06T04:11:11Z</time>
      </trkpt>
      <trkpt lat="50.53743" lon="3.02774">
        <ele>30.8</ele>
        <time>2023-08-06T04:11:14Z</time>
      </trkpt>
      <trkpt lat="50.53741" lon="3.02775">
        <ele>31.2</ele>
        <time>2023-08-06T04:11:15Z</time>
      </trkpt>
      <trkpt lat="50.53738" lon="3.02776">
        <ele>31.4</ele>
        <time>2023-08-06T04:11:16Z</time>
      </trkpt>
      <trkpt lat="50.53737" lon="3.02777">
        <ele>31.6</ele>
        <time>2023-08-06T04:11:17Z</time>
      </trkpt>
      <trkpt lat="50.53734" lon="3.02778">
        <ele>31.6</ele>
        <time>2023-08-06T04:11:18Z</time>
      </trkpt>
      <trkpt lat="50.53731" lon="3.02779">
        <ele>32</ele>
        <time>2023-08-06T04:11:19Z</time>
      </trkpt>
      <trkpt lat="50.53728" lon="3.02781">
        <ele>32</ele>
        <time>2023-08-06T04:11:20Z</time>
      </trkpt>
      <trkpt lat="50.53726" lon="3.02782">
        <ele>32.2</ele>
        <time>2023-08-06T04:11:21Z</time>
      </trkpt>
      <trkpt lat="50.53724" lon="3.02784">
        <ele>32.4</ele>
        <time>2023-08-06T04:11:22Z</time>
      </trkpt>
      <trkpt lat="50.53722" lon="3.02785">
        <ele>32.4</ele>
        <time>2023-08-06T04:11:23Z</time>
      </trkpt>
      <trkpt lat="50.53719" lon="3.02787">
        <ele>32.8</ele>
        <time>2023-08-06T04:11:24Z</time>
      </trkpt>
      <trkpt lat="50.53717" lon="3.02788">
        <ele>32.8</ele>
        <time>2023-08-06T04:11:25Z</time>
      </trkpt>
      <trkpt lat="50.53714" lon="3.0279">
        <ele>32.8</ele>
        <time>2023-08-06T04:11:26Z</time>
      </trkpt>
      <trkpt lat="50.53712" lon="3.02791">
        <ele>33</ele>
        <time>2023-08-06T04:11:27Z</time>
      </trkpt>
      <trkpt lat="50.5371" lon="3.02792">
        <ele>33.2</ele>
        <time>2023-08-06T04:11:28Z</time>
      </trkpt>
      <trkpt lat="50.53707" lon="3.02793">
        <ele>33.4</ele>
        <time>2023-08-06T04:11:29Z</time>
      </trkpt>
      <trkpt lat="50.53705" lon="3.02795">
        <ele>33.4</ele>
        <time>2023-08-06T04:11:30Z</time>
      </trkpt>
      <trkpt lat="50.53702" lon="3.02796">
        <ele>33.4</ele>
        <time>2023-08-06T04:11:31Z</time>
      </trkpt>
      <trkpt lat="50.537" lon="3.02798">
        <ele>33.6</ele>
        <time>2023-08-06T04:11:32Z</time>
      </trkpt>
      <trkpt lat="50.53698" lon="3.02801">
        <ele>33.6</ele>
        <time>2023-08-06T04:11:33Z</time>
      </trkpt>
      <trkpt lat="50.53696" lon="3.02805">
        <ele>33.6</ele>
        <time>2023-08-06T04:11:34Z</time>
      </trkpt>
      <trkpt lat="50.53695" lon="3.02807">
        <ele>33.8</ele>
        <time>2023-08-06T04:11:35Z</time>
      </trkpt>
      <trkpt lat="50.53694" lon="3.02812">
        <ele>33.8</ele>
        <time>2023-08-06T04:11:36Z</time>
      </trkpt>
      <trkpt lat="50.53693" lon="3.02816">
        <ele>33.8</ele>
        <time>2023-08-06T04:11:37Z</time>
      </trkpt>
      <trkpt lat="50.53693" lon="3.0282">
        <ele>34</ele>
        <time>2023-08-06T04:11:38Z</time>
      </trkpt>
      <trkpt lat="50.53693" lon="3.02825">
        <ele>34</ele>
        <time>2023-08-06T04:11:39Z</time>
      </trkpt>
      <trkpt lat="50.53694" lon="3.02829">
        <ele>34</ele>
        <time>2023-08-06T04:11:40Z</time>
      </trkpt>
      <trkpt lat="50.53695" lon="3.02833">
        <ele>34.2</ele>
        <time>2023-08-06T04:11:41Z</time>
      </trkpt>
      <trkpt lat="50.53697" lon="3.02837">
        <ele>34.2</ele>
        <time>2023-08-06T04:11:42Z</time>
      </trkpt>
      <trkpt lat="50.53698" lon="3.02841">
        <ele>34.2</ele>
        <time>2023-08-06T04:11:43Z</time>
      </trkpt>
      <trkpt lat="50.53699" lon="3.02845">
        <ele>34.2</ele>
        <time>2023-08-06T04:11:44Z</time>
      </trkpt>
      <trkpt lat="50.537" lon="3.02849">
        <ele>34.2</ele>
        <time>2023-08-06T04:11:45Z</time>
      </trkpt>
      <trkpt lat="50.53701" lon="3.02853">
        <ele>34.2</ele>
        <time>2023-08-06T04:11:46Z</time>
      </trkpt>
      <trkpt lat="50.53706" lon="3.0287">
        <ele>34.2</ele>
        <time>2023-08-06T04:11:50Z</time>
      </trkpt>
      <trkpt lat="50.53718" lon="3.02906">
        <ele>34.4</ele>
        <time>2023-08-06T04:11:59Z</time>
      </trkpt>
      <trkpt lat="50.53723" lon="3.02922">
        <ele>34.6</ele>
        <time>2023-08-06T04:12:03Z</time>
      </trkpt>
      <trkpt lat="50.53731" lon="3.02947">
        <ele>35</ele>
        <time>2023-08-06T04:12:09Z</time>
      </trkpt>
      <trkpt lat="50.53743" lon="3.02989">
        <ele>35.4</ele>
        <time>2023-08-06T04:12:18Z</time>
      </trkpt>
      <trkpt lat="50.53755" lon="3.03032">
        <ele>35</ele>
        <time>2023-08-06T04:12:27Z</time>
      </trkpt>
      <trkpt lat="50.5377" lon="3.03086">
        <ele>35.4</ele>
        <time>2023-08-06T04:12:37Z</time>
      </trkpt>
      <trkpt lat="50.53778" lon="3.03111">
        <ele>35.4</ele>
        <time>2023-08-06T04:12:42Z</time>
      </trkpt>
      <trkpt lat="50.53782" lon="3.03126">
        <ele>35.4</ele>
        <time>2023-08-06T04:12:45Z</time>
      </trkpt>
      <trkpt lat="50.53784" lon="3.03131">
        <ele>35.4</ele>
        <time>2023-08-06T04:12:46Z</time>
      </trkpt>
      <trkpt lat="50.53785" lon="3.03136">
        <ele>35.4</ele>
        <time>2023-08-06T04:12:47Z</time>
      </trkpt>
      <trkpt lat="50.53787" lon="3.0314">
        <ele>35.4</ele>
        <time>2023-08-06T04:12:48Z</time>
      </trkpt>
      <trkpt lat="50.5379" lon="3.03144">
        <ele>35.4</ele>
        <time>2023-08-06T04:12:49Z</time>
      </trkpt>
      <trkpt lat="50.53793" lon="3.03146">
        <ele>35.4</ele>
        <time>2023-08-06T04:12:50Z</time>
      </trkpt>
      <trkpt lat="50.53797" lon="3.03146">
        <ele>35.4</ele>
        <time>2023-08-06T04:12:51Z</time>
      </trkpt>
      <trkpt lat="50.538" lon="3.03146">
        <ele>35.2</ele>
        <time>2023-08-06T04:12:52Z</time>
      </trkpt>
      <trkpt lat="50.53811" lon="3.03138">
        <ele>35.2</ele>
        <time>2023-08-06T04:12:55Z</time>
      </trkpt>
      <trkpt lat="50.53815" lon="3.03135">
        <ele>35</ele>
        <time>2023-08-06T04:12:56Z</time>
      </trkpt>
      <trkpt lat="50.53823" lon="3.03128">
        <ele>35</ele>
        <time>2023-08-06T04:12:58Z</time>
      </trkpt>
      <trkpt lat="50.5385" lon="3.0311">
        <ele>34.4</ele>
        <time>2023-08-06T04:13:03Z</time>
      </trkpt>
      <trkpt lat="50.53873" lon="3.031">
        <ele>33.6</ele>
        <time>2023-08-06T04:13:06Z</time>
      </trkpt>
      <trkpt lat="50.53879" lon="3.03098">
        <ele>33</ele>
        <time>2023-08-06T04:13:07Z</time>
      </trkpt>
      <trkpt lat="50.53887" lon="3.03096">
        <ele>32.4</ele>
        <time>2023-08-06T04:13:08Z</time>
      </trkpt>
      <trkpt lat="50.53908" lon="3.0309">
        <ele>31.2</ele>
        <time>2023-08-06T04:13:11Z</time>
      </trkpt>
      <trkpt lat="50.53913" lon="3.03086">
        <ele>30.4</ele>
        <time>2023-08-06T04:13:12Z</time>
      </trkpt>
      <trkpt lat="50.53917" lon="3.03081">
        <ele>30</ele>
        <time>2023-08-06T04:13:13Z</time>
      </trkpt>
      <trkpt lat="50.5392" lon="3.03074">
        <ele>29.6</ele>
        <time>2023-08-06T04:13:14Z</time>
      </trkpt>
      <trkpt lat="50.53921" lon="3.03068">
        <ele>28.8</ele>
        <time>2023-08-06T04:13:15Z</time>
      </trkpt>
      <trkpt lat="50.53922" lon="3.03064">
        <ele>28.6</ele>
        <time>2023-08-06T04:13:16Z</time>
      </trkpt>
      <trkpt lat="50.5392" lon="3.03058">
        <ele>28.2</ele>
        <time>2023-08-06T04:13:17Z</time>
      </trkpt>
      <trkpt lat="50.53918" lon="3.03054">
        <ele>28</ele>
        <time>2023-08-06T04:13:18Z</time>
      </trkpt>
      <trkpt lat="50.53915" lon="3.03051">
        <ele>28</ele>
        <time>2023-08-06T04:13:19Z</time>
      </trkpt>
      <trkpt lat="50.53911" lon="3.03048">
        <ele>27.8</ele>
        <time>2023-08-06T04:13:20Z</time>
      </trkpt>
      <trkpt lat="50.53908" lon="3.03047">
        <ele>27.8</ele>
        <time>2023-08-06T04:13:21Z</time>
      </trkpt>
      <trkpt lat="50.53904" lon="3.03045">
        <ele>27.8</ele>
        <time>2023-08-06T04:13:22Z</time>
      </trkpt>
      <trkpt lat="50.539" lon="3.03044">
        <ele>27.6</ele>
        <time>2023-08-06T04:13:23Z</time>
      </trkpt>
      <trkpt lat="50.53871" lon="3.0303">
        <ele>27.6</ele>
        <time>2023-08-06T04:13:31Z</time>
      </trkpt>
      <trkpt lat="50.5384" lon="3.03017">
        <ele>27.8</ele>
        <time>2023-08-06T04:13:39Z</time>
      </trkpt>
      <trkpt lat="50.53802" lon="3.03">
        <ele>28</ele>
        <time>2023-08-06T04:13:49Z</time>
      </trkpt>
      <trkpt lat="50.53794" lon="3.02995">
        <ele>28</ele>
        <time>2023-08-06T04:13:51Z</time>
      </trkpt>
      <trkpt lat="50.5377" lon="3.02985">
        <ele>28</ele>
        <time>2023-08-06T04:13:57Z</time>
      </trkpt>
      <trkpt lat="50.53756" lon="3.0298">
        <ele>27.8</ele>
        <time>2023-08-06T04:14:00Z</time>
      </trkpt>
      <trkpt lat="50.53738" lon="3.02979">
        <ele>27.6</ele>
        <time>2023-08-06T04:14:04Z</time>
      </trkpt>
      <trkpt lat="50.53733" lon="3.0298">
        <ele>27.6</ele>
        <time>2023-08-06T04:14:05Z</time>
      </trkpt>
      <trkpt lat="50.53715" lon="3.02985">
        <ele>27.6</ele>
        <time>2023-08-06T04:14:09Z</time>
      </trkpt>
      <trkpt lat="50.53711" lon="3.02986">
        <ele>27.4</ele>
        <time>2023-08-06T04:14:10Z</time>
      </trkpt>
      <trkpt lat="50.53707" lon="3.02988">
        <ele>27.4</ele>
        <time>2023-08-06T04:14:11Z</time>
      </trkpt>
      <trkpt lat="50.53703" lon="3.0299">
        <ele>27.4</ele>
        <time>2023-08-06T04:14:12Z</time>
      </trkpt>
      <trkpt lat="50.53696" lon="3.02995">
        <ele>27.4</ele>
        <time>2023-08-06T04:14:14Z</time>
      </trkpt>
      <trkpt lat="50.53692" lon="3.02998">
        <ele>27.4</ele>
        <time>2023-08-06T04:14:15Z</time>
      </trkpt>
      <trkpt lat="50.53688" lon="3.03001">
        <ele>27.4</ele>
        <time>2023-08-06T04:14:16Z</time>
      </trkpt>
      <trkpt lat="50.53685" lon="3.03005">
        <ele>27.4</ele>
        <time>2023-08-06T04:14:17Z</time>
      </trkpt>
      <trkpt lat="50.53681" lon="3.03009">
        <ele>27.4</ele>
        <time>2023-08-06T04:14:18Z</time>
      </trkpt>
      <trkpt lat="50.5367" lon="3.0302">
        <ele>27.4</ele>
        <time>2023-08-06T04:14:21Z</time>
      </trkpt>
      <trkpt lat="50.53664" lon="3.03029">
        <ele>27.4</ele>
        <time>2023-08-06T04:14:23Z</time>
      </trkpt>
      <trkpt lat="50.53635" lon="3.03061">
        <ele>27.2</ele>
        <time>2023-08-06T04:14:31Z</time>
      </trkpt>
      <trkpt lat="50.53588" lon="3.03098">
        <ele>28.4</ele>
        <time>2023-08-06T04:14:43Z</time>
      </trkpt>
      <trkpt lat="50.53553" lon="3.03125">
        <ele>27.8</ele>
        <time>2023-08-06T04:14:52Z</time>
      </trkpt>
      <trkpt lat="50.53509" lon="3.03155">
        <ele>27.8</ele>
        <time>2023-08-06T04:15:03Z</time>
      </trkpt>
      <trkpt lat="50.53472" lon="3.03174">
        <ele>28.2</ele>
        <time>2023-08-06T04:15:12Z</time>
      </trkpt>
      <trkpt lat="50.53467" lon="3.03176">
        <ele>28.2</ele>
        <time>2023-08-06T04:15:13Z</time>
      </trkpt>
      <trkpt lat="50.5345" lon="3.03185">
        <ele>28.6</ele>
        <time>2023-08-06T04:15:17Z</time>
      </trkpt>
      <trkpt lat="50.53441" lon="3.03191">
        <ele>28.6</ele>
        <time>2023-08-06T04:15:19Z</time>
      </trkpt>
      <trkpt lat="50.53437" lon="3.03195">
        <ele>28.6</ele>
        <time>2023-08-06T04:15:20Z</time>
      </trkpt>
      <trkpt lat="50.53426" lon="3.03203">
        <ele>28.6</ele>
        <time>2023-08-06T04:15:23Z</time>
      </trkpt>
      <trkpt lat="50.53418" lon="3.03208">
        <ele>28.6</ele>
        <time>2023-08-06T04:15:25Z</time>
      </trkpt>
      <trkpt lat="50.53415" lon="3.0321">
        <ele>28.6</ele>
        <time>2023-08-06T04:15:26Z</time>
      </trkpt>
      <trkpt lat="50.53407" lon="3.03213">
        <ele>28.4</ele>
        <time>2023-08-06T04:15:28Z</time>
      </trkpt>
      <trkpt lat="50.534" lon="3.0321">
        <ele>28.4</ele>
        <time>2023-08-06T04:15:30Z</time>
      </trkpt>
      <trkpt lat="50.53398" lon="3.03206">
        <ele>28.4</ele>
        <time>2023-08-06T04:15:31Z</time>
      </trkpt>
      <trkpt lat="50.53396" lon="3.03201">
        <ele>28.4</ele>
        <time>2023-08-06T04:15:32Z</time>
      </trkpt>
      <trkpt lat="50.53394" lon="3.03196">
        <ele>28.4</ele>
        <time>2023-08-06T04:15:33Z</time>
      </trkpt>
      <trkpt lat="50.53393" lon="3.03191">
        <ele>28.4</ele>
        <time>2023-08-06T04:15:34Z</time>
      </trkpt>
      <trkpt lat="50.53391" lon="3.03185">
        <ele>28.6</ele>
        <time>2023-08-06T04:15:35Z</time>
      </trkpt>
      <trkpt lat="50.53386" lon="3.03174">
        <ele>28.6</ele>
        <time>2023-08-06T04:15:37Z</time>
      </trkpt>
      <trkpt lat="50.53368" lon="3.0313">
        <ele>29.2</ele>
        <time>2023-08-06T04:15:45Z</time>
      </trkpt>
      <trkpt lat="50.53362" lon="3.03121">
        <ele>29.4</ele>
        <time>2023-08-06T04:15:47Z</time>
      </trkpt>
      <trkpt lat="50.53355" lon="3.03114">
        <ele>29.4</ele>
        <time>2023-08-06T04:15:49Z</time>
      </trkpt>
      <trkpt lat="50.53351" lon="3.03113">
        <ele>29.4</ele>
        <time>2023-08-06T04:15:50Z</time>
      </trkpt>
      <trkpt lat="50.53347" lon="3.03114">
        <ele>29.6</ele>
        <time>2023-08-06T04:15:51Z</time>
      </trkpt>
      <trkpt lat="50.53343" lon="3.03115">
        <ele>29.6</ele>
        <time>2023-08-06T04:15:52Z</time>
      </trkpt>
      <trkpt lat="50.53338" lon="3.03116">
        <ele>29.6</ele>
        <time>2023-08-06T04:15:53Z</time>
      </trkpt>
      <trkpt lat="50.53334" lon="3.03119">
        <ele>29.6</ele>
        <time>2023-08-06T04:15:54Z</time>
      </trkpt>
      <trkpt lat="50.5333" lon="3.03121">
        <ele>29.6</ele>
        <time>2023-08-06T04:15:55Z</time>
      </trkpt>
      <trkpt lat="50.53326" lon="3.03124">
        <ele>29.6</ele>
        <time>2023-08-06T04:15:56Z</time>
      </trkpt>
      <trkpt lat="50.53295" lon="3.03142">
        <ele>30</ele>
        <time>2023-08-06T04:16:04Z</time>
      </trkpt>
      <trkpt lat="50.53291" lon="3.03145">
        <ele>30</ele>
        <time>2023-08-06T04:16:05Z</time>
      </trkpt>
      <trkpt lat="50.53287" lon="3.03147">
        <ele>30</ele>
        <time>2023-08-06T04:16:06Z</time>
      </trkpt>
      <trkpt lat="50.53283" lon="3.0315">
        <ele>30</ele>
        <time>2023-08-06T04:16:07Z</time>
      </trkpt>
      <trkpt lat="50.53265" lon="3.03163">
        <ele>30.2</ele>
        <time>2023-08-06T04:16:12Z</time>
      </trkpt>
      <trkpt lat="50.5326" lon="3.03165">
        <ele>30.2</ele>
        <time>2023-08-06T04:16:13Z</time>
      </trkpt>
      <trkpt lat="50.5323" lon="3.03175">
        <ele>30.2</ele>
        <time>2023-08-06T04:16:20Z</time>
      </trkpt>
      <trkpt lat="50.53194" lon="3.03184">
        <ele>30.4</ele>
        <time>2023-08-06T04:16:28Z</time>
      </trkpt>
      <trkpt lat="50.53189" lon="3.03185">
        <ele>30.4</ele>
        <time>2023-08-06T04:16:29Z</time>
      </trkpt>
      <trkpt lat="50.53185" lon="3.03186">
        <ele>30.4</ele>
        <time>2023-08-06T04:16:30Z</time>
      </trkpt>
      <trkpt lat="50.53178" lon="3.03188">
        <ele>30.6</ele>
        <time>2023-08-06T04:16:32Z</time>
      </trkpt>
      <trkpt lat="50.53175" lon="3.03188">
        <ele>30.6</ele>
        <time>2023-08-06T04:16:33Z</time>
      </trkpt>
      <trkpt lat="50.53172" lon="3.03188">
        <ele>30.6</ele>
        <time>2023-08-06T04:16:34Z</time>
      </trkpt>
      <trkpt lat="50.5317" lon="3.03189">
        <ele>30.8</ele>
        <time>2023-08-06T04:16:35Z</time>
      </trkpt>
      <trkpt lat="50.53167" lon="3.03189">
        <ele>30.8</ele>
        <time>2023-08-06T04:16:36Z</time>
      </trkpt>
      <trkpt lat="50.53166" lon="3.03188">
        <ele>30.8</ele>
        <time>2023-08-06T04:16:37Z</time>
      </trkpt>
      <trkpt lat="50.53164" lon="3.03188">
        <ele>30.8</ele>
        <time>2023-08-06T04:16:38Z</time>
      </trkpt>
      <trkpt lat="50.53164" lon="3.03188">
        <ele>30.8</ele>
        <time>2023-08-06T04:16:39Z</time>
      </trkpt>
      <trkpt lat="50.53164" lon="3.03188">
        <ele>30.8</ele>
        <time>2023-08-06T04:16:40Z</time>
      </trkpt>
      <trkpt lat="50.53164" lon="3.03188">
        <ele>30.8</ele>
        <time>2023-08-06T04:16:41Z</time>
      </trkpt>
      <trkpt lat="50.53162" lon="3.0319">
        <ele>30.8</ele>
        <time>2023-08-06T04:17:00Z</time>
      </trkpt>
      <trkpt lat="50.53159" lon="3.03194">
        <ele>30</ele>
        <time>2023-08-06T04:17:02Z</time>
      </trkpt>
      <trkpt lat="50.53157" lon="3.03196">
        <ele>29.8</ele>
        <time>2023-08-06T04:17:03Z</time>
      </trkpt>
      <trkpt lat="50.5315" lon="3.03199">
        <ele>29.4</ele>
        <time>2023-08-06T04:17:06Z</time>
      </trkpt>
      <trkpt lat="50.53147" lon="3.032">
        <ele>29.2</ele>
        <time>2023-08-06T04:17:07Z</time>
      </trkpt>
      <trkpt lat="50.53131" lon="3.03211">
        <ele>29.2</ele>
        <time>2023-08-06T04:17:12Z</time>
      </trkpt>
      <trkpt lat="50.53116" lon="3.03219">
        <ele>29.2</ele>
        <time>2023-08-06T04:17:16Z</time>
      </trkpt>
      <trkpt lat="50.53102" lon="3.0323">
        <ele>29.4</ele>
        <time>2023-08-06T04:17:20Z</time>
      </trkpt>
      <trkpt lat="50.53059" lon="3.03259">
        <ele>30.4</ele>
        <time>2023-08-06T04:17:31Z</time>
      </trkpt>
      <trkpt lat="50.53055" lon="3.03261">
        <ele>30.4</ele>
        <time>2023-08-06T04:17:32Z</time>
      </trkpt>
      <trkpt lat="50.53019" lon="3.03284">
        <ele>30.8</ele>
        <time>2023-08-06T04:17:41Z</time>
      </trkpt>
      <trkpt lat="50.52977" lon="3.03313">
        <ele>31.2</ele>
        <time>2023-08-06T04:17:51Z</time>
      </trkpt>
      <trkpt lat="50.52938" lon="3.03337">
        <ele>31.4</ele>
        <time>2023-08-06T04:18:00Z</time>
      </trkpt>
      <trkpt lat="50.52934" lon="3.0334">
        <ele>31.4</ele>
        <time>2023-08-06T04:18:01Z</time>
      </trkpt>
      <trkpt lat="50.5291" lon="3.03362">
        <ele>31.6</ele>
        <time>2023-08-06T04:18:07Z</time>
      </trkpt>
      <trkpt lat="50.52902" lon="3.03368">
        <ele>31.6</ele>
        <time>2023-08-06T04:18:09Z</time>
      </trkpt>
      <trkpt lat="50.52898" lon="3.03372">
        <ele>31.6</ele>
        <time>2023-08-06T04:18:10Z</time>
      </trkpt>
      <trkpt lat="50.52895" lon="3.03375">
        <ele>31.6</ele>
        <time>2023-08-06T04:18:11Z</time>
      </trkpt>
      <trkpt lat="50.52891" lon="3.03378">
        <ele>31.6</ele>
        <time>2023-08-06T04:18:12Z</time>
      </trkpt>
      <trkpt lat="50.52887" lon="3.03381">
        <ele>31.6</ele>
        <time>2023-08-06T04:18:13Z</time>
      </trkpt>
      <trkpt lat="50.52883" lon="3.03385">
        <ele>31.6</ele>
        <time>2023-08-06T04:18:14Z</time>
      </trkpt>
      <trkpt lat="50.52879" lon="3.03388">
        <ele>31.6</ele>
        <time>2023-08-06T04:18:15Z</time>
      </trkpt>
      <trkpt lat="50.52876" lon="3.03391">
        <ele>31.6</ele>
        <time>2023-08-06T04:18:16Z</time>
      </trkpt>
      <trkpt lat="50.52872" lon="3.03395">
        <ele>31.8</ele>
        <time>2023-08-06T04:18:17Z</time>
      </trkpt>
      <trkpt lat="50.52868" lon="3.03398">
        <ele>31.8</ele>
        <time>2023-08-06T04:18:18Z</time>
      </trkpt>
      <trkpt lat="50.52864" lon="3.03401">
        <ele>31.8</ele>
        <time>2023-08-06T04:18:19Z</time>
      </trkpt>
      <trkpt lat="50.52861" lon="3.03404">
        <ele>31.8</ele>
        <time>2023-08-06T04:18:20Z</time>
      </trkpt>
      <trkpt lat="50.52857" lon="3.03407">
        <ele>32</ele>
        <time>2023-08-06T04:18:21Z</time>
      </trkpt>
      <trkpt lat="50.52854" lon="3.03411">
        <ele>32</ele>
        <time>2023-08-06T04:18:22Z</time>
      </trkpt>
      <trkpt lat="50.52846" lon="3.03417">
        <ele>32</ele>
        <time>2023-08-06T04:18:24Z</time>
      </trkpt>
      <trkpt lat="50.52842" lon="3.03419">
        <ele>32</ele>
        <time>2023-08-06T04:18:25Z</time>
      </trkpt>
      <trkpt lat="50.52839" lon="3.03422">
        <ele>32.2</ele>
        <time>2023-08-06T04:18:26Z</time>
      </trkpt>
      <trkpt lat="50.52835" lon="3.03425">
        <ele>32.4</ele>
        <time>2023-08-06T04:18:27Z</time>
      </trkpt>
      <trkpt lat="50.52832" lon="3.03428">
        <ele>32.8</ele>
        <time>2023-08-06T04:18:28Z</time>
      </trkpt>
      <trkpt lat="50.52828" lon="3.03431">
        <ele>33</ele>
        <time>2023-08-06T04:18:29Z</time>
      </trkpt>
      <trkpt lat="50.52825" lon="3.03435">
        <ele>33.4</ele>
        <time>2023-08-06T04:18:30Z</time>
      </trkpt>
      <trkpt lat="50.52821" lon="3.03438">
        <ele>33.4</ele>
        <time>2023-08-06T04:18:31Z</time>
      </trkpt>
      <trkpt lat="50.528" lon="3.03455">
        <ele>33.6</ele>
        <time>2023-08-06T04:18:37Z</time>
      </trkpt>
      <trkpt lat="50.52783" lon="3.0347">
        <ele>33.8</ele>
        <time>2023-08-06T04:18:42Z</time>
      </trkpt>
      <trkpt lat="50.5278" lon="3.03473">
        <ele>33.8</ele>
        <time>2023-08-06T04:18:43Z</time>
      </trkpt>
      <trkpt lat="50.52748" lon="3.03499">
        <ele>34</ele>
        <time>2023-08-06T04:18:52Z</time>
      </trkpt>
      <trkpt lat="50.52701" lon="3.03538">
        <ele>34.6</ele>
        <time>2023-08-06T04:19:05Z</time>
      </trkpt>
      <trkpt lat="50.52672" lon="3.03561">
        <ele>34.6</ele>
        <time>2023-08-06T04:19:13Z</time>
      </trkpt>
      <trkpt lat="50.52668" lon="3.03564">
        <ele>34.8</ele>
        <time>2023-08-06T04:19:14Z</time>
      </trkpt>
      <trkpt lat="50.52661" lon="3.03569">
        <ele>35</ele>
        <time>2023-08-06T04:19:16Z</time>
      </trkpt>
      <trkpt lat="50.52657" lon="3.03571">
        <ele>34.8</ele>
        <time>2023-08-06T04:19:17Z</time>
      </trkpt>
      <trkpt lat="50.52653" lon="3.03573">
        <ele>34.8</ele>
        <time>2023-08-06T04:19:18Z</time>
      </trkpt>
      <trkpt lat="50.5265" lon="3.03575">
        <ele>35</ele>
        <time>2023-08-06T04:19:19Z</time>
      </trkpt>
      <trkpt lat="50.52635" lon="3.03583">
        <ele>35.6</ele>
        <time>2023-08-06T04:19:23Z</time>
      </trkpt>
      <trkpt lat="50.52631" lon="3.03585">
        <ele>35.8</ele>
        <time>2023-08-06T04:19:24Z</time>
      </trkpt>
      <trkpt lat="50.52627" lon="3.03587">
        <ele>35.8</ele>
        <time>2023-08-06T04:19:25Z</time>
      </trkpt>
      <trkpt lat="50.52624" lon="3.03588">
        <ele>35.8</ele>
        <time>2023-08-06T04:19:26Z</time>
      </trkpt>
      <trkpt lat="50.52616" lon="3.03592">
        <ele>35.8</ele>
        <time>2023-08-06T04:19:28Z</time>
      </trkpt>
      <trkpt lat="50.5258" lon="3.03607">
        <ele>36.2</ele>
        <time>2023-08-06T04:19:37Z</time>
      </trkpt>
      <trkpt lat="50.52551" lon="3.03611">
        <ele>36.4</ele>
        <time>2023-08-06T04:19:44Z</time>
      </trkpt>
      <trkpt lat="50.52529" lon="3.03611">
        <ele>36.2</ele>
        <time>2023-08-06T04:19:50Z</time>
      </trkpt>
      <trkpt lat="50.52526" lon="3.03613">
        <ele>36.2</ele>
        <time>2023-08-06T04:19:51Z</time>
      </trkpt>
      <trkpt lat="50.52525" lon="3.03616">
        <ele>36</ele>
        <time>2023-08-06T04:19:52Z</time>
      </trkpt>
      <trkpt lat="50.52524" lon="3.0362">
        <ele>36.2</ele>
        <time>2023-08-06T04:19:53Z</time>
      </trkpt>
      <trkpt lat="50.52524" lon="3.03624">
        <ele>36.2</ele>
        <time>2023-08-06T04:19:54Z</time>
      </trkpt>
      <trkpt lat="50.52525" lon="3.03629">
        <ele>36.4</ele>
        <time>2023-08-06T04:19:55Z</time>
      </trkpt>
      <trkpt lat="50.52527" lon="3.03637">
        <ele>36.4</ele>
        <time>2023-08-06T04:19:57Z</time>
      </trkpt>
      <trkpt lat="50.52529" lon="3.03642">
        <ele>36.4</ele>
        <time>2023-08-06T04:19:58Z</time>
      </trkpt>
      <trkpt lat="50.52537" lon="3.03669">
        <ele>36.6</ele>
        <time>2023-08-06T04:20:04Z</time>
      </trkpt>
      <trkpt lat="50.52553" lon="3.03719">
        <ele>36.6</ele>
        <time>2023-08-06T04:20:14Z</time>
      </trkpt>
      <trkpt lat="50.52566" lon="3.03765">
        <ele>36.8</ele>
        <time>2023-08-06T04:20:23Z</time>
      </trkpt>
      <trkpt lat="50.52569" lon="3.03775">
        <ele>37</ele>
        <time>2023-08-06T04:20:25Z</time>
      </trkpt>
      <trkpt lat="50.5257" lon="3.0378">
        <ele>37</ele>
        <time>2023-08-06T04:20:26Z</time>
      </trkpt>
      <trkpt lat="50.5258" lon="3.03816">
        <ele>37.6</ele>
        <time>2023-08-06T04:20:33Z</time>
      </trkpt>
      <trkpt lat="50.52581" lon="3.03821">
        <ele>37.6</ele>
        <time>2023-08-06T04:20:34Z</time>
      </trkpt>
      <trkpt lat="50.52585" lon="3.03841">
        <ele>37.8</ele>
        <time>2023-08-06T04:20:38Z</time>
      </trkpt>
      <trkpt lat="50.52586" lon="3.03845">
        <ele>38</ele>
        <time>2023-08-06T04:20:39Z</time>
      </trkpt>
      <trkpt lat="50.52587" lon="3.0385">
        <ele>38</ele>
        <time>2023-08-06T04:20:40Z</time>
      </trkpt>
      <trkpt lat="50.52588" lon="3.03855">
        <ele>38</ele>
        <time>2023-08-06T04:20:41Z</time>
      </trkpt>
      <trkpt lat="50.52589" lon="3.03859">
        <ele>38</ele>
        <time>2023-08-06T04:20:42Z</time>
      </trkpt>
      <trkpt lat="50.5259" lon="3.03863">
        <ele>38</ele>
        <time>2023-08-06T04:20:43Z</time>
      </trkpt>
      <trkpt lat="50.52591" lon="3.03868">
        <ele>38</ele>
        <time>2023-08-06T04:20:44Z</time>
      </trkpt>
      <trkpt lat="50.52592" lon="3.03872">
        <ele>38</ele>
        <time>2023-08-06T04:20:45Z</time>
      </trkpt>
      <trkpt lat="50.52592" lon="3.03881">
        <ele>38.2</ele>
        <time>2023-08-06T04:20:47Z</time>
      </trkpt>
      <trkpt lat="50.52592" lon="3.03885">
        <ele>38.2</ele>
        <time>2023-08-06T04:20:48Z</time>
      </trkpt>
      <trkpt lat="50.52592" lon="3.03889">
        <ele>38.4</ele>
        <time>2023-08-06T04:20:49Z</time>
      </trkpt>
      <trkpt lat="50.52593" lon="3.03894">
        <ele>38.4</ele>
        <time>2023-08-06T04:20:50Z</time>
      </trkpt>
      <trkpt lat="50.52592" lon="3.03898">
        <ele>38.4</ele>
        <time>2023-08-06T04:20:51Z</time>
      </trkpt>
      <trkpt lat="50.52592" lon="3.03903">
        <ele>38.4</ele>
        <time>2023-08-06T04:20:52Z</time>
      </trkpt>
      <trkpt lat="50.52592" lon="3.03913">
        <ele>38.6</ele>
        <time>2023-08-06T04:20:54Z</time>
      </trkpt>
      <trkpt lat="50.52592" lon="3.03934">
        <ele>38.8</ele>
        <time>2023-08-06T04:20:58Z</time>
      </trkpt>
      <trkpt lat="50.5259" lon="3.03965">
        <ele>39.4</ele>
        <time>2023-08-06T04:21:04Z</time>
      </trkpt>
      <trkpt lat="50.52584" lon="3.04006">
        <ele>39.6</ele>
        <time>2023-08-06T04:21:12Z</time>
      </trkpt>
      <trkpt lat="50.52582" lon="3.04017">
        <ele>39.8</ele>
        <time>2023-08-06T04:21:14Z</time>
      </trkpt>
      <trkpt lat="50.52577" lon="3.04037">
        <ele>40</ele>
        <time>2023-08-06T04:21:18Z</time>
      </trkpt>
      <trkpt lat="50.52572" lon="3.04053">
        <ele>40.4</ele>
        <time>2023-08-06T04:21:21Z</time>
      </trkpt>
      <trkpt lat="50.52564" lon="3.04082">
        <ele>40.4</ele>
        <time>2023-08-06T04:21:27Z</time>
      </trkpt>
      <trkpt lat="50.52559" lon="3.041">
        <ele>40.6</ele>
        <time>2023-08-06T04:21:31Z</time>
      </trkpt>
      <trkpt lat="50.52558" lon="3.04105">
        <ele>40.6</ele>
        <time>2023-08-06T04:21:32Z</time>
      </trkpt>
      <trkpt lat="50.52557" lon="3.0411">
        <ele>40.6</ele>
        <time>2023-08-06T04:21:33Z</time>
      </trkpt>
      <trkpt lat="50.52555" lon="3.04114">
        <ele>41</ele>
        <time>2023-08-06T04:21:34Z</time>
      </trkpt>
      <trkpt lat="50.52554" lon="3.04118">
        <ele>41.2</ele>
        <time>2023-08-06T04:21:35Z</time>
      </trkpt>
      <trkpt lat="50.52552" lon="3.04123">
        <ele>41.4</ele>
        <time>2023-08-06T04:21:36Z</time>
      </trkpt>
      <trkpt lat="50.52551" lon="3.04127">
        <ele>41.4</ele>
        <time>2023-08-06T04:21:37Z</time>
      </trkpt>
      <trkpt lat="50.5255" lon="3.04132">
        <ele>41.4</ele>
        <time>2023-08-06T04:21:38Z</time>
      </trkpt>
      <trkpt lat="50.52549" lon="3.04136">
        <ele>41.4</ele>
        <time>2023-08-06T04:21:39Z</time>
      </trkpt>
      <trkpt lat="50.52537" lon="3.04177">
        <ele>42</ele>
        <time>2023-08-06T04:21:48Z</time>
      </trkpt>
      <trkpt lat="50.52534" lon="3.0419">
        <ele>42</ele>
        <time>2023-08-06T04:21:51Z</time>
      </trkpt>
      <trkpt lat="50.52531" lon="3.04199">
        <ele>42.4</ele>
        <time>2023-08-06T04:21:53Z</time>
      </trkpt>
      <trkpt lat="50.52528" lon="3.04207">
        <ele>42.8</ele>
        <time>2023-08-06T04:21:55Z</time>
      </trkpt>
      <trkpt lat="50.52527" lon="3.04212">
        <ele>42.8</ele>
        <time>2023-08-06T04:21:56Z</time>
      </trkpt>
      <trkpt lat="50.52526" lon="3.04216">
        <ele>43</ele>
        <time>2023-08-06T04:21:57Z</time>
      </trkpt>
      <trkpt lat="50.52525" lon="3.0422">
        <ele>43.2</ele>
        <time>2023-08-06T04:21:58Z</time>
      </trkpt>
      <trkpt lat="50.52522" lon="3.0423">
        <ele>43.4</ele>
        <time>2023-08-06T04:22:00Z</time>
      </trkpt>
      <trkpt lat="50.52513" lon="3.04262">
        <ele>43.6</ele>
        <time>2023-08-06T04:22:06Z</time>
      </trkpt>
      <trkpt lat="50.52499" lon="3.04286">
        <ele>43.8</ele>
        <time>2023-08-06T04:22:11Z</time>
      </trkpt>
      <trkpt lat="50.52495" lon="3.04288">
        <ele>43.8</ele>
        <time>2023-08-06T04:22:12Z</time>
      </trkpt>
      <trkpt lat="50.5249" lon="3.04287">
        <ele>43.8</ele>
        <time>2023-08-06T04:22:13Z</time>
      </trkpt>
      <trkpt lat="50.52486" lon="3.04284">
        <ele>43.8</ele>
        <time>2023-08-06T04:22:14Z</time>
      </trkpt>
      <trkpt lat="50.52482" lon="3.0428">
        <ele>43.8</ele>
        <time>2023-08-06T04:22:15Z</time>
      </trkpt>
      <trkpt lat="50.52478" lon="3.04276">
        <ele>43.6</ele>
        <time>2023-08-06T04:22:16Z</time>
      </trkpt>
      <trkpt lat="50.52473" lon="3.04272">
        <ele>43.6</ele>
        <time>2023-08-06T04:22:17Z</time>
      </trkpt>
      <trkpt lat="50.52455" lon="3.04257">
        <ele>42.8</ele>
        <time>2023-08-06T04:22:21Z</time>
      </trkpt>
      <trkpt lat="50.52438" lon="3.04242">
        <ele>42.4</ele>
        <time>2023-08-06T04:22:25Z</time>
      </trkpt>
      <trkpt lat="50.52425" lon="3.0423">
        <ele>42</ele>
        <time>2023-08-06T04:22:28Z</time>
      </trkpt>
      <trkpt lat="50.52407" lon="3.04216">
        <ele>41.2</ele>
        <time>2023-08-06T04:22:32Z</time>
      </trkpt>
      <trkpt lat="50.52378" lon="3.04193">
        <ele>41</ele>
        <time>2023-08-06T04:22:38Z</time>
      </trkpt>
      <trkpt lat="50.52327" lon="3.04149">
        <ele>40.4</ele>
        <time>2023-08-06T04:22:49Z</time>
      </trkpt>
      <trkpt lat="50.52313" lon="3.04138">
        <ele>40.2</ele>
        <time>2023-08-06T04:22:52Z</time>
      </trkpt>
      <trkpt lat="50.52308" lon="3.04133">
        <ele>40</ele>
        <time>2023-08-06T04:22:53Z</time>
      </trkpt>
      <trkpt lat="50.52279" lon="3.0411">
        <ele>38.8</ele>
        <time>2023-08-06T04:22:59Z</time>
      </trkpt>
      <trkpt lat="50.52274" lon="3.04107">
        <ele>38.8</ele>
        <time>2023-08-06T04:23:00Z</time>
      </trkpt>
      <trkpt lat="50.52265" lon="3.04107">
        <ele>38.2</ele>
        <time>2023-08-06T04:23:02Z</time>
      </trkpt>
      <trkpt lat="50.52261" lon="3.04109">
        <ele>38</ele>
        <time>2023-08-06T04:23:03Z</time>
      </trkpt>
      <trkpt lat="50.52257" lon="3.04113">
        <ele>38</ele>
        <time>2023-08-06T04:23:04Z</time>
      </trkpt>
      <trkpt lat="50.52254" lon="3.04118">
        <ele>37.8</ele>
        <time>2023-08-06T04:23:05Z</time>
      </trkpt>
      <trkpt lat="50.52251" lon="3.04124">
        <ele>37.8</ele>
        <time>2023-08-06T04:23:06Z</time>
      </trkpt>
      <trkpt lat="50.52248" lon="3.0413">
        <ele>37.8</ele>
        <time>2023-08-06T04:23:07Z</time>
      </trkpt>
      <trkpt lat="50.52246" lon="3.04137">
        <ele>37.6</ele>
        <time>2023-08-06T04:23:08Z</time>
      </trkpt>
      <trkpt lat="50.52238" lon="3.04158">
        <ele>37.2</ele>
        <time>2023-08-06T04:23:11Z</time>
      </trkpt>
      <trkpt lat="50.5223" lon="3.04179">
        <ele>36.8</ele>
        <time>2023-08-06T04:23:14Z</time>
      </trkpt>
      <trkpt lat="50.52212" lon="3.0423">
        <ele>36</ele>
        <time>2023-08-06T04:23:21Z</time>
      </trkpt>
      <trkpt lat="50.52202" lon="3.04258">
        <ele>35.6</ele>
        <time>2023-08-06T04:23:25Z</time>
      </trkpt>
      <trkpt lat="50.52181" lon="3.04315">
        <ele>34.8</ele>
        <time>2023-08-06T04:23:33Z</time>
      </trkpt>
      <trkpt lat="50.52174" lon="3.04335">
        <ele>34.6</ele>
        <time>2023-08-06T04:23:36Z</time>
      </trkpt>
      <trkpt lat="50.52173" lon="3.0434">
        <ele>34.6</ele>
        <time>2023-08-06T04:23:37Z</time>
      </trkpt>
      <trkpt lat="50.52171" lon="3.04344">
        <ele>34.6</ele>
        <time>2023-08-06T04:23:38Z</time>
      </trkpt>
      <trkpt lat="50.5217" lon="3.04347">
        <ele>34.6</ele>
        <time>2023-08-06T04:23:39Z</time>
      </trkpt>
      <trkpt lat="50.52169" lon="3.04349">
        <ele>34.6</ele>
        <time>2023-08-06T04:23:40Z</time>
      </trkpt>
      <trkpt lat="50.52168" lon="3.04351">
        <ele>34.6</ele>
        <time>2023-08-06T04:23:41Z</time>
      </trkpt>
      <trkpt lat="50.52168" lon="3.04352">
        <ele>34.6</ele>
        <time>2023-08-06T04:23:42Z</time>
      </trkpt>
      <trkpt lat="50.52167" lon="3.04354">
        <ele>34.6</ele>
        <time>2023-08-06T04:23:43Z</time>
      </trkpt>
      <trkpt lat="50.52166" lon="3.04356">
        <ele>34.6</ele>
        <time>2023-08-06T04:23:44Z</time>
      </trkpt>
      <trkpt lat="50.52164" lon="3.04363">
        <ele>34.8</ele>
        <time>2023-08-06T04:23:46Z</time>
      </trkpt>
      <trkpt lat="50.52156" lon="3.04384">
        <ele>34.8</ele>
        <time>2023-08-06T04:23:51Z</time>
      </trkpt>
      <trkpt lat="50.52152" lon="3.04398">
        <ele>34.8</ele>
        <time>2023-08-06T04:23:54Z</time>
      </trkpt>
      <trkpt lat="50.52146" lon="3.04415">
        <ele>34.8</ele>
        <time>2023-08-06T04:23:58Z</time>
      </trkpt>
      <trkpt lat="50.52139" lon="3.0442">
        <ele>34.8</ele>
        <time>2023-08-06T04:24:01Z</time>
      </trkpt>
      <trkpt lat="50.52136" lon="3.04421">
        <ele>35</ele>
        <time>2023-08-06T04:24:02Z</time>
      </trkpt>
      <trkpt lat="50.52132" lon="3.04421">
        <ele>34.8</ele>
        <time>2023-08-06T04:24:03Z</time>
      </trkpt>
      <trkpt lat="50.52129" lon="3.04419">
        <ele>34.6</ele>
        <time>2023-08-06T04:24:04Z</time>
      </trkpt>
      <trkpt lat="50.52126" lon="3.04417">
        <ele>34.8</ele>
        <time>2023-08-06T04:24:05Z</time>
      </trkpt>
      <trkpt lat="50.52123" lon="3.04416">
        <ele>35</ele>
        <time>2023-08-06T04:24:06Z</time>
      </trkpt>
      <trkpt lat="50.5212" lon="3.04413">
        <ele>35</ele>
        <time>2023-08-06T04:24:07Z</time>
      </trkpt>
      <trkpt lat="50.52118" lon="3.0441">
        <ele>35.2</ele>
        <time>2023-08-06T04:24:08Z</time>
      </trkpt>
      <trkpt lat="50.5211" lon="3.04398">
        <ele>35.2</ele>
        <time>2023-08-06T04:24:11Z</time>
      </trkpt>
      <trkpt lat="50.52082" lon="3.04362">
        <ele>34.8</ele>
        <time>2023-08-06T04:24:20Z</time>
      </trkpt>
      <trkpt lat="50.52051" lon="3.04326">
        <ele>34.6</ele>
        <time>2023-08-06T04:24:29Z</time>
      </trkpt>
      <trkpt lat="50.52039" lon="3.04315">
        <ele>34.4</ele>
        <time>2023-08-06T04:24:32Z</time>
      </trkpt>
      <trkpt lat="50.52026" lon="3.04308">
        <ele>33.8</ele>
        <time>2023-08-06T04:24:35Z</time>
      </trkpt>
      <trkpt lat="50.52017" lon="3.04307">
        <ele>33.6</ele>
        <time>2023-08-06T04:24:37Z</time>
      </trkpt>
      <trkpt lat="50.52007" lon="3.04307">
        <ele>33.6</ele>
        <time>2023-08-06T04:24:39Z</time>
      </trkpt>
      <trkpt lat="50.52003" lon="3.04308">
        <ele>33.6</ele>
        <time>2023-08-06T04:24:40Z</time>
      </trkpt>
      <trkpt lat="50.51982" lon="3.0431">
        <ele>33.6</ele>
        <time>2023-08-06T04:24:45Z</time>
      </trkpt>
      <trkpt lat="50.51972" lon="3.0431">
        <ele>33.6</ele>
        <time>2023-08-06T04:24:47Z</time>
      </trkpt>
      <trkpt lat="50.51968" lon="3.0431">
        <ele>33.6</ele>
        <time>2023-08-06T04:24:48Z</time>
      </trkpt>
      <trkpt lat="50.51964" lon="3.04311">
        <ele>33.6</ele>
        <time>2023-08-06T04:24:49Z</time>
      </trkpt>
      <trkpt lat="50.51931" lon="3.04316">
        <ele>33.6</ele>
        <time>2023-08-06T04:24:56Z</time>
      </trkpt>
      <trkpt lat="50.51918" lon="3.04319">
        <ele>33.6</ele>
        <time>2023-08-06T04:24:59Z</time>
      </trkpt>
      <trkpt lat="50.51914" lon="3.0432">
        <ele>33.6</ele>
        <time>2023-08-06T04:25:00Z</time>
      </trkpt>
      <trkpt lat="50.51909" lon="3.04321">
        <ele>33.6</ele>
        <time>2023-08-06T04:25:01Z</time>
      </trkpt>
      <trkpt lat="50.51904" lon="3.04324">
        <ele>33.6</ele>
        <time>2023-08-06T04:25:02Z</time>
      </trkpt>
      <trkpt lat="50.519" lon="3.04325">
        <ele>33.6</ele>
        <time>2023-08-06T04:25:03Z</time>
      </trkpt>
      <trkpt lat="50.51896" lon="3.04327">
        <ele>33.6</ele>
        <time>2023-08-06T04:25:04Z</time>
      </trkpt>
      <trkpt lat="50.51892" lon="3.04329">
        <ele>33.6</ele>
        <time>2023-08-06T04:25:05Z</time>
      </trkpt>
      <trkpt lat="50.51883" lon="3.04335">
        <ele>33.6</ele>
        <time>2023-08-06T04:25:07Z</time>
      </trkpt>
      <trkpt lat="50.51878" lon="3.04337">
        <ele>33.6</ele>
        <time>2023-08-06T04:25:08Z</time>
      </trkpt>
      <trkpt lat="50.51856" lon="3.0435">
        <ele>33.6</ele>
        <time>2023-08-06T04:25:13Z</time>
      </trkpt>
      <trkpt lat="50.51848" lon="3.04355">
        <ele>33.6</ele>
        <time>2023-08-06T04:25:15Z</time>
      </trkpt>
      <trkpt lat="50.51811" lon="3.04372">
        <ele>33.6</ele>
        <time>2023-08-06T04:25:23Z</time>
      </trkpt>
      <trkpt lat="50.51793" lon="3.0438">
        <ele>33.8</ele>
        <time>2023-08-06T04:25:27Z</time>
      </trkpt>
      <trkpt lat="50.51784" lon="3.04386">
        <ele>33.8</ele>
        <time>2023-08-06T04:25:29Z</time>
      </trkpt>
      <trkpt lat="50.51781" lon="3.04387">
        <ele>33.8</ele>
        <time>2023-08-06T04:25:30Z</time>
      </trkpt>
      <trkpt lat="50.51775" lon="3.0439">
        <ele>33.8</ele>
        <time>2023-08-06T04:25:31Z</time>
      </trkpt>
      <trkpt lat="50.51771" lon="3.04393">
        <ele>33.8</ele>
        <time>2023-08-06T04:25:32Z</time>
      </trkpt>
      <trkpt lat="50.51768" lon="3.04395">
        <ele>33.6</ele>
        <time>2023-08-06T04:25:33Z</time>
      </trkpt>
      <trkpt lat="50.51763" lon="3.04397">
        <ele>33.6</ele>
        <time>2023-08-06T04:25:34Z</time>
      </trkpt>
      <trkpt lat="50.51759" lon="3.04399">
        <ele>33.6</ele>
        <time>2023-08-06T04:25:35Z</time>
      </trkpt>
      <trkpt lat="50.51722" lon="3.04419">
        <ele>33.8</ele>
        <time>2023-08-06T04:25:43Z</time>
      </trkpt>
      <trkpt lat="50.51706" lon="3.04428">
        <ele>33.8</ele>
        <time>2023-08-06T04:25:47Z</time>
      </trkpt>
      <trkpt lat="50.51702" lon="3.0443">
        <ele>33.8</ele>
        <time>2023-08-06T04:25:48Z</time>
      </trkpt>
      <trkpt lat="50.51697" lon="3.04433">
        <ele>34</ele>
        <time>2023-08-06T04:25:49Z</time>
      </trkpt>
      <trkpt lat="50.51693" lon="3.04435">
        <ele>34</ele>
        <time>2023-08-06T04:25:50Z</time>
      </trkpt>
      <trkpt lat="50.51689" lon="3.04437">
        <ele>34</ele>
        <time>2023-08-06T04:25:51Z</time>
      </trkpt>
      <trkpt lat="50.51684" lon="3.0444">
        <ele>34.2</ele>
        <time>2023-08-06T04:25:52Z</time>
      </trkpt>
      <trkpt lat="50.51681" lon="3.04442">
        <ele>34.2</ele>
        <time>2023-08-06T04:25:53Z</time>
      </trkpt>
      <trkpt lat="50.51676" lon="3.04445">
        <ele>34.2</ele>
        <time>2023-08-06T04:25:54Z</time>
      </trkpt>
      <trkpt lat="50.51651" lon="3.04459">
        <ele>34.6</ele>
        <time>2023-08-06T04:26:00Z</time>
      </trkpt>
      <trkpt lat="50.51602" lon="3.04485">
        <ele>35.2</ele>
        <time>2023-08-06T04:26:11Z</time>
      </trkpt>
      <trkpt lat="50.51547" lon="3.04514">
        <ele>34.8</ele>
        <time>2023-08-06T04:26:23Z</time>
      </trkpt>
      <trkpt lat="50.51537" lon="3.04519">
        <ele>34.8</ele>
        <time>2023-08-06T04:26:25Z</time>
      </trkpt>
      <trkpt lat="50.51529" lon="3.04523">
        <ele>34.8</ele>
        <time>2023-08-06T04:26:27Z</time>
      </trkpt>
      <trkpt lat="50.5152" lon="3.04528">
        <ele>34.8</ele>
        <time>2023-08-06T04:26:29Z</time>
      </trkpt>
      <trkpt lat="50.51515" lon="3.04531">
        <ele>34.8</ele>
        <time>2023-08-06T04:26:30Z</time>
      </trkpt>
      <trkpt lat="50.51511" lon="3.04533">
        <ele>34.8</ele>
        <time>2023-08-06T04:26:31Z</time>
      </trkpt>
      <trkpt lat="50.51498" lon="3.04541">
        <ele>34.8</ele>
        <time>2023-08-06T04:26:34Z</time>
      </trkpt>
      <trkpt lat="50.51458" lon="3.04563">
        <ele>35</ele>
        <time>2023-08-06T04:26:43Z</time>
      </trkpt>
      <trkpt lat="50.51454" lon="3.04565">
        <ele>35</ele>
        <time>2023-08-06T04:26:44Z</time>
      </trkpt>
      <trkpt lat="50.5145" lon="3.04567">
        <ele>35.2</ele>
        <time>2023-08-06T04:26:45Z</time>
      </trkpt>
      <trkpt lat="50.51441" lon="3.04572">
        <ele>35.4</ele>
        <time>2023-08-06T04:26:47Z</time>
      </trkpt>
      <trkpt lat="50.51437" lon="3.04575">
        <ele>35.4</ele>
        <time>2023-08-06T04:26:48Z</time>
      </trkpt>
      <trkpt lat="50.51433" lon="3.04576">
        <ele>35.4</ele>
        <time>2023-08-06T04:26:49Z</time>
      </trkpt>
      <trkpt lat="50.51428" lon="3.04579">
        <ele>35.6</ele>
        <time>2023-08-06T04:26:50Z</time>
      </trkpt>
      <trkpt lat="50.51424" lon="3.04581">
        <ele>35.6</ele>
        <time>2023-08-06T04:26:51Z</time>
      </trkpt>
      <trkpt lat="50.51419" lon="3.04584">
        <ele>35.6</ele>
        <time>2023-08-06T04:26:52Z</time>
      </trkpt>
      <trkpt lat="50.51415" lon="3.04586">
        <ele>35.6</ele>
        <time>2023-08-06T04:26:53Z</time>
      </trkpt>
      <trkpt lat="50.51411" lon="3.04589">
        <ele>35.8</ele>
        <time>2023-08-06T04:26:54Z</time>
      </trkpt>
      <trkpt lat="50.51386" lon="3.04604">
        <ele>36.2</ele>
        <time>2023-08-06T04:27:00Z</time>
      </trkpt>
      <trkpt lat="50.51382" lon="3.04609">
        <ele>36.2</ele>
        <time>2023-08-06T04:27:01Z</time>
      </trkpt>
      <trkpt lat="50.51378" lon="3.04612">
        <ele>36.4</ele>
        <time>2023-08-06T04:27:02Z</time>
      </trkpt>
      <trkpt lat="50.51374" lon="3.04614">
        <ele>36.4</ele>
        <time>2023-08-06T04:27:03Z</time>
      </trkpt>
      <trkpt lat="50.51371" lon="3.04615">
        <ele>36.4</ele>
        <time>2023-08-06T04:27:04Z</time>
      </trkpt>
      <trkpt lat="50.51366" lon="3.04617">
        <ele>36.4</ele>
        <time>2023-08-06T04:27:05Z</time>
      </trkpt>
      <trkpt lat="50.51363" lon="3.04619">
        <ele>36.4</ele>
        <time>2023-08-06T04:27:06Z</time>
      </trkpt>
      <trkpt lat="50.51358" lon="3.04621">
        <ele>36.6</ele>
        <time>2023-08-06T04:27:07Z</time>
      </trkpt>
      <trkpt lat="50.51354" lon="3.04623">
        <ele>36.8</ele>
        <time>2023-08-06T04:27:08Z</time>
      </trkpt>
      <trkpt lat="50.51351" lon="3.04624">
        <ele>37</ele>
        <time>2023-08-06T04:27:09Z</time>
      </trkpt>
      <trkpt lat="50.51347" lon="3.04626">
        <ele>37</ele>
        <time>2023-08-06T04:27:10Z</time>
      </trkpt>
      <trkpt lat="50.51342" lon="3.04627">
        <ele>37.2</ele>
        <time>2023-08-06T04:27:11Z</time>
      </trkpt>
      <trkpt lat="50.51334" lon="3.04631">
        <ele>37.4</ele>
        <time>2023-08-06T04:27:13Z</time>
      </trkpt>
      <trkpt lat="50.5133" lon="3.04633">
        <ele>37.4</ele>
        <time>2023-08-06T04:27:14Z</time>
      </trkpt>
      <trkpt lat="50.51328" lon="3.04634">
        <ele>37.6</ele>
        <time>2023-08-06T04:27:15Z</time>
      </trkpt>
      <trkpt lat="50.51324" lon="3.04637">
        <ele>37.8</ele>
        <time>2023-08-06T04:27:16Z</time>
      </trkpt>
      <trkpt lat="50.51321" lon="3.04639">
        <ele>37.8</ele>
        <time>2023-08-06T04:27:17Z</time>
      </trkpt>
      <trkpt lat="50.51317" lon="3.04641">
        <ele>38</ele>
        <time>2023-08-06T04:27:18Z</time>
      </trkpt>
      <trkpt lat="50.51314" lon="3.04644">
        <ele>38</ele>
        <time>2023-08-06T04:27:19Z</time>
      </trkpt>
      <trkpt lat="50.51312" lon="3.04646">
        <ele>38</ele>
        <time>2023-08-06T04:27:20Z</time>
      </trkpt>
      <trkpt lat="50.51308" lon="3.04646">
        <ele>38.2</ele>
        <time>2023-08-06T04:27:21Z</time>
      </trkpt>
      <trkpt lat="50.51304" lon="3.04648">
        <ele>38.4</ele>
        <time>2023-08-06T04:27:22Z</time>
      </trkpt>
      <trkpt lat="50.513" lon="3.0465">
        <ele>38.6</ele>
        <time>2023-08-06T04:27:23Z</time>
      </trkpt>
      <trkpt lat="50.51297" lon="3.04652">
        <ele>38.6</ele>
        <time>2023-08-06T04:27:24Z</time>
      </trkpt>
      <trkpt lat="50.51294" lon="3.04653">
        <ele>38.6</ele>
        <time>2023-08-06T04:27:25Z</time>
      </trkpt>
      <trkpt lat="50.51291" lon="3.04655">
        <ele>38.8</ele>
        <time>2023-08-06T04:27:26Z</time>
      </trkpt>
      <trkpt lat="50.51287" lon="3.04656">
        <ele>38.8</ele>
        <time>2023-08-06T04:27:27Z</time>
      </trkpt>
      <trkpt lat="50.51284" lon="3.04658">
        <ele>39</ele>
        <time>2023-08-06T04:27:28Z</time>
      </trkpt>
      <trkpt lat="50.51282" lon="3.04659">
        <ele>39</ele>
        <time>2023-08-06T04:27:29Z</time>
      </trkpt>
      <trkpt lat="50.51279" lon="3.0466">
        <ele>39.2</ele>
        <time>2023-08-06T04:27:30Z</time>
      </trkpt>
      <trkpt lat="50.51278" lon="3.04661">
        <ele>39.2</ele>
        <time>2023-08-06T04:27:31Z</time>
      </trkpt>
      <trkpt lat="50.51277" lon="3.04663">
        <ele>39.2</ele>
        <time>2023-08-06T04:27:32Z</time>
      </trkpt>
      <trkpt lat="50.51277" lon="3.04666">
        <ele>39.4</ele>
        <time>2023-08-06T04:27:33Z</time>
      </trkpt>
      <trkpt lat="50.51278" lon="3.0467">
        <ele>39.6</ele>
        <time>2023-08-06T04:27:34Z</time>
      </trkpt>
      <trkpt lat="50.5128" lon="3.04678">
        <ele>40</ele>
        <time>2023-08-06T04:27:36Z</time>
      </trkpt>
      <trkpt lat="50.51281" lon="3.04681">
        <ele>40</ele>
        <time>2023-08-06T04:27:37Z</time>
      </trkpt>
      <trkpt lat="50.51282" lon="3.04685">
        <ele>40</ele>
        <time>2023-08-06T04:27:38Z</time>
      </trkpt>
      <trkpt lat="50.51284" lon="3.0469">
        <ele>40</ele>
        <time>2023-08-06T04:27:39Z</time>
      </trkpt>
      <trkpt lat="50.51285" lon="3.04695">
        <ele>40.2</ele>
        <time>2023-08-06T04:27:40Z</time>
      </trkpt>
      <trkpt lat="50.51286" lon="3.04698">
        <ele>40.2</ele>
        <time>2023-08-06T04:27:41Z</time>
      </trkpt>
      <trkpt lat="50.51287" lon="3.047">
        <ele>40.2</ele>
        <time>2023-08-06T04:27:42Z</time>
      </trkpt>
      <trkpt lat="50.51288" lon="3.04704">
        <ele>40.2</ele>
        <time>2023-08-06T04:27:43Z</time>
      </trkpt>
      <trkpt lat="50.5129" lon="3.04708">
        <ele>40.2</ele>
        <time>2023-08-06T04:27:44Z</time>
      </trkpt>
      <trkpt lat="50.51291" lon="3.04711">
        <ele>40.2</ele>
        <time>2023-08-06T04:27:45Z</time>
      </trkpt>
      <trkpt lat="50.51293" lon="3.04719">
        <ele>40.2</ele>
        <time>2023-08-06T04:27:47Z</time>
      </trkpt>
      <trkpt lat="50.51294" lon="3.04722">
        <ele>40.2</ele>
        <time>2023-08-06T04:27:48Z</time>
      </trkpt>
      <trkpt lat="50.51296" lon="3.04727">
        <ele>40.4</ele>
        <time>2023-08-06T04:27:49Z</time>
      </trkpt>
      <trkpt lat="50.51298" lon="3.04731">
        <ele>40.4</ele>
        <time>2023-08-06T04:27:50Z</time>
      </trkpt>
      <trkpt lat="50.51299" lon="3.04738">
        <ele>40.4</ele>
        <time>2023-08-06T04:27:52Z</time>
      </trkpt>
      <trkpt lat="50.51302" lon="3.04752">
        <ele>40.4</ele>
        <time>2023-08-06T04:27:55Z</time>
      </trkpt>
      <trkpt lat="50.51303" lon="3.0476">
        <ele>40.4</ele>
        <time>2023-08-06T04:27:57Z</time>
      </trkpt>
      <trkpt lat="50.51306" lon="3.04774">
        <ele>40.4</ele>
        <time>2023-08-06T04:28:00Z</time>
      </trkpt>
      <trkpt lat="50.51308" lon="3.04792">
        <ele>40.6</ele>
        <time>2023-08-06T04:28:03Z</time>
      </trkpt>
      <trkpt lat="50.51313" lon="3.04819">
        <ele>40.8</ele>
        <time>2023-08-06T04:28:08Z</time>
      </trkpt>
      <trkpt lat="50.51314" lon="3.04824">
        <ele>40.8</ele>
        <time>2023-08-06T04:28:09Z</time>
      </trkpt>
      <trkpt lat="50.51314" lon="3.04827">
        <ele>41</ele>
        <time>2023-08-06T04:28:10Z</time>
      </trkpt>
      <trkpt lat="50.51315" lon="3.04831">
        <ele>41</ele>
        <time>2023-08-06T04:28:11Z</time>
      </trkpt>
      <trkpt lat="50.51316" lon="3.04835">
        <ele>41.2</ele>
        <time>2023-08-06T04:28:12Z</time>
      </trkpt>
      <trkpt lat="50.51317" lon="3.04839">
        <ele>41.2</ele>
        <time>2023-08-06T04:28:13Z</time>
      </trkpt>
      <trkpt lat="50.51319" lon="3.04845">
        <ele>41.4</ele>
        <time>2023-08-06T04:28:14Z</time>
      </trkpt>
      <trkpt lat="50.5132" lon="3.04851">
        <ele>41.6</ele>
        <time>2023-08-06T04:28:15Z</time>
      </trkpt>
      <trkpt lat="50.51322" lon="3.04858">
        <ele>41.6</ele>
        <time>2023-08-06T04:28:16Z</time>
      </trkpt>
      <trkpt lat="50.51329" lon="3.04897">
        <ele>42</ele>
        <time>2023-08-06T04:28:23Z</time>
      </trkpt>
      <trkpt lat="50.51338" lon="3.04933">
        <ele>42.6</ele>
        <time>2023-08-06T04:28:30Z</time>
      </trkpt>
      <trkpt lat="50.5134" lon="3.04937">
        <ele>42.8</ele>
        <time>2023-08-06T04:28:31Z</time>
      </trkpt>
      <trkpt lat="50.51345" lon="3.04969">
        <ele>43.4</ele>
        <time>2023-08-06T04:28:37Z</time>
      </trkpt>
      <trkpt lat="50.51348" lon="3.04989">
        <ele>43.6</ele>
        <time>2023-08-06T04:28:41Z</time>
      </trkpt>
      <trkpt lat="50.51351" lon="3.04998">
        <ele>43.8</ele>
        <time>2023-08-06T04:28:43Z</time>
      </trkpt>
      <trkpt lat="50.51354" lon="3.05017">
        <ele>44.4</ele>
        <time>2023-08-06T04:28:47Z</time>
      </trkpt>
      <trkpt lat="50.51356" lon="3.05026">
        <ele>44.8</ele>
        <time>2023-08-06T04:28:49Z</time>
      </trkpt>
      <trkpt lat="50.51359" lon="3.05031">
        <ele>44.8</ele>
        <time>2023-08-06T04:28:50Z</time>
      </trkpt>
      <trkpt lat="50.51359" lon="3.05036">
        <ele>44.8</ele>
        <time>2023-08-06T04:28:51Z</time>
      </trkpt>
      <trkpt lat="50.51361" lon="3.0504">
        <ele>45</ele>
        <time>2023-08-06T04:28:52Z</time>
      </trkpt>
      <trkpt lat="50.51363" lon="3.05044">
        <ele>45</ele>
        <time>2023-08-06T04:28:53Z</time>
      </trkpt>
      <trkpt lat="50.51363" lon="3.05049">
        <ele>45</ele>
        <time>2023-08-06T04:28:54Z</time>
      </trkpt>
      <trkpt lat="50.51364" lon="3.05053">
        <ele>45.2</ele>
        <time>2023-08-06T04:28:55Z</time>
      </trkpt>
      <trkpt lat="50.51365" lon="3.05057">
        <ele>45.2</ele>
        <time>2023-08-06T04:28:56Z</time>
      </trkpt>
      <trkpt lat="50.51366" lon="3.05062">
        <ele>45.2</ele>
        <time>2023-08-06T04:28:57Z</time>
      </trkpt>
      <trkpt lat="50.51367" lon="3.05066">
        <ele>45.4</ele>
        <time>2023-08-06T04:28:58Z</time>
      </trkpt>
      <trkpt lat="50.51368" lon="3.0507">
        <ele>45.4</ele>
        <time>2023-08-06T04:28:59Z</time>
      </trkpt>
      <trkpt lat="50.5137" lon="3.05074">
        <ele>45.6</ele>
        <time>2023-08-06T04:29:00Z</time>
      </trkpt>
      <trkpt lat="50.5137" lon="3.05078">
        <ele>45.4</ele>
        <time>2023-08-06T04:29:01Z</time>
      </trkpt>
      <trkpt lat="50.51371" lon="3.05083">
        <ele>45.6</ele>
        <time>2023-08-06T04:29:02Z</time>
      </trkpt>
      <trkpt lat="50.5137" lon="3.05088">
        <ele>45.6</ele>
        <time>2023-08-06T04:29:03Z</time>
      </trkpt>
      <trkpt lat="50.5137" lon="3.05092">
        <ele>45.6</ele>
        <time>2023-08-06T04:29:04Z</time>
      </trkpt>
      <trkpt lat="50.51371" lon="3.05096">
        <ele>45.8</ele>
        <time>2023-08-06T04:29:05Z</time>
      </trkpt>
      <trkpt lat="50.51372" lon="3.051">
        <ele>45.8</ele>
        <time>2023-08-06T04:29:06Z</time>
      </trkpt>
      <trkpt lat="50.51373" lon="3.05104">
        <ele>46</ele>
        <time>2023-08-06T04:29:07Z</time>
      </trkpt>
      <trkpt lat="50.51375" lon="3.05108">
        <ele>46</ele>
        <time>2023-08-06T04:29:08Z</time>
      </trkpt>
      <trkpt lat="50.51379" lon="3.05131">
        <ele>46.4</ele>
        <time>2023-08-06T04:29:13Z</time>
      </trkpt>
      <trkpt lat="50.51378" lon="3.05134">
        <ele>46.4</ele>
        <time>2023-08-06T04:29:14Z</time>
      </trkpt>
      <trkpt lat="50.51373" lon="3.05137">
        <ele>46.6</ele>
        <time>2023-08-06T04:29:16Z</time>
      </trkpt>
      <trkpt lat="50.51367" lon="3.05139">
        <ele>46.8</ele>
        <time>2023-08-06T04:29:18Z</time>
      </trkpt>
      <trkpt lat="50.51365" lon="3.0514">
        <ele>46.8</ele>
        <time>2023-08-06T04:29:19Z</time>
      </trkpt>
      <trkpt lat="50.51363" lon="3.0514">
        <ele>47</ele>
        <time>2023-08-06T04:29:20Z</time>
      </trkpt>
      <trkpt lat="50.51361" lon="3.05141">
        <ele>47</ele>
        <time>2023-08-06T04:29:21Z</time>
      </trkpt>
      <trkpt lat="50.51358" lon="3.05143">
        <ele>47</ele>
        <time>2023-08-06T04:29:22Z</time>
      </trkpt>
      <trkpt lat="50.51346" lon="3.05158">
        <ele>47.4</ele>
        <time>2023-08-06T04:29:28Z</time>
      </trkpt>
      <trkpt lat="50.51344" lon="3.05161">
        <ele>47.4</ele>
        <time>2023-08-06T04:29:29Z</time>
      </trkpt>
      <trkpt lat="50.51343" lon="3.05163">
        <ele>47.4</ele>
        <time>2023-08-06T04:29:30Z</time>
      </trkpt>
      <trkpt lat="50.51335" lon="3.05172">
        <ele>47.4</ele>
        <time>2023-08-06T04:29:33Z</time>
      </trkpt>
      <trkpt lat="50.51326" lon="3.05181">
        <ele>47.6</ele>
        <time>2023-08-06T04:29:36Z</time>
      </trkpt>
      <trkpt lat="50.5131" lon="3.05196">
        <ele>48</ele>
        <time>2023-08-06T04:29:42Z</time>
      </trkpt>
      <trkpt lat="50.51307" lon="3.05198">
        <ele>48.2</ele>
        <time>2023-08-06T04:29:43Z</time>
      </trkpt>
      <trkpt lat="50.51305" lon="3.052">
        <ele>48.2</ele>
        <time>2023-08-06T04:29:44Z</time>
      </trkpt>
      <trkpt lat="50.51302" lon="3.05202">
        <ele>48.2</ele>
        <time>2023-08-06T04:29:45Z</time>
      </trkpt>
      <trkpt lat="50.513" lon="3.05203">
        <ele>48.4</ele>
        <time>2023-08-06T04:29:46Z</time>
      </trkpt>
      <trkpt lat="50.51297" lon="3.05206">
        <ele>48.4</ele>
        <time>2023-08-06T04:29:47Z</time>
      </trkpt>
      <trkpt lat="50.51296" lon="3.05208">
        <ele>48.4</ele>
        <time>2023-08-06T04:29:48Z</time>
      </trkpt>
      <trkpt lat="50.51296" lon="3.05213">
        <ele>48.6</ele>
        <time>2023-08-06T04:29:49Z</time>
      </trkpt>
      <trkpt lat="50.51294" lon="3.05216">
        <ele>48.6</ele>
        <time>2023-08-06T04:29:50Z</time>
      </trkpt>
      <trkpt lat="50.51293" lon="3.05219">
        <ele>48.6</ele>
        <time>2023-08-06T04:29:51Z</time>
      </trkpt>
      <trkpt lat="50.51292" lon="3.0522">
        <ele>48.6</ele>
        <time>2023-08-06T04:29:52Z</time>
      </trkpt>
      <trkpt lat="50.51289" lon="3.05225">
        <ele>48.8</ele>
        <time>2023-08-06T04:29:54Z</time>
      </trkpt>
      <trkpt lat="50.51288" lon="3.05227">
        <ele>48.8</ele>
        <time>2023-08-06T04:29:55Z</time>
      </trkpt>
      <trkpt lat="50.51284" lon="3.05232">
        <ele>48.8</ele>
        <time>2023-08-06T04:29:57Z</time>
      </trkpt>
      <trkpt lat="50.51278" lon="3.05238">
        <ele>49</ele>
        <time>2023-08-06T04:29:59Z</time>
      </trkpt>
      <trkpt lat="50.51276" lon="3.0524">
        <ele>49</ele>
        <time>2023-08-06T04:30:00Z</time>
      </trkpt>
      <trkpt lat="50.51274" lon="3.05242">
        <ele>49</ele>
        <time>2023-08-06T04:30:01Z</time>
      </trkpt>
      <trkpt lat="50.51273" lon="3.05244">
        <ele>49.2</ele>
        <time>2023-08-06T04:30:02Z</time>
      </trkpt>
      <trkpt lat="50.51254" lon="3.05261">
        <ele>49.6</ele>
        <time>2023-08-06T04:30:09Z</time>
      </trkpt>
      <trkpt lat="50.51251" lon="3.05264">
        <ele>49.6</ele>
        <time>2023-08-06T04:30:10Z</time>
      </trkpt>
      <trkpt lat="50.51244" lon="3.05274">
        <ele>49.8</ele>
        <time>2023-08-06T04:30:13Z</time>
      </trkpt>
      <trkpt lat="50.51242" lon="3.05279">
        <ele>50</ele>
        <time>2023-08-06T04:30:14Z</time>
      </trkpt>
      <trkpt lat="50.51237" lon="3.05285">
        <ele>50.2</ele>
        <time>2023-08-06T04:30:16Z</time>
      </trkpt>
      <trkpt lat="50.51232" lon="3.05302">
        <ele>51.6</ele>
        <time>2023-08-06T04:30:20Z</time>
      </trkpt>
      <trkpt lat="50.51231" lon="3.05307">
        <ele>50.4</ele>
        <time>2023-08-06T04:30:21Z</time>
      </trkpt>
      <trkpt lat="50.51229" lon="3.05313">
        <ele>50.4</ele>
        <time>2023-08-06T04:30:22Z</time>
      </trkpt>
      <trkpt lat="50.51228" lon="3.05318">
        <ele>50.6</ele>
        <time>2023-08-06T04:30:23Z</time>
      </trkpt>
      <trkpt lat="50.51226" lon="3.05324">
        <ele>50.6</ele>
        <time>2023-08-06T04:30:24Z</time>
      </trkpt>
      <trkpt lat="50.51224" lon="3.05332">
        <ele>50.6</ele>
        <time>2023-08-06T04:30:26Z</time>
      </trkpt>
      <trkpt lat="50.51223" lon="3.05336">
        <ele>50.6</ele>
        <time>2023-08-06T04:30:27Z</time>
      </trkpt>
      <trkpt lat="50.5122" lon="3.05341">
        <ele>50.8</ele>
        <time>2023-08-06T04:30:28Z</time>
      </trkpt>
      <trkpt lat="50.51218" lon="3.05342">
        <ele>50.8</ele>
        <time>2023-08-06T04:30:29Z</time>
      </trkpt>
      <trkpt lat="50.51216" lon="3.05344">
        <ele>50.8</ele>
        <time>2023-08-06T04:30:30Z</time>
      </trkpt>
      <trkpt lat="50.51213" lon="3.05347">
        <ele>50.8</ele>
        <time>2023-08-06T04:30:31Z</time>
      </trkpt>
      <trkpt lat="50.51211" lon="3.05347">
        <ele>50.8</ele>
        <time>2023-08-06T04:30:32Z</time>
      </trkpt>
      <trkpt lat="50.5121" lon="3.05346">
        <ele>51</ele>
        <time>2023-08-06T04:30:33Z</time>
      </trkpt>
      <trkpt lat="50.51207" lon="3.05344">
        <ele>51</ele>
        <time>2023-08-06T04:30:34Z</time>
      </trkpt>
      <trkpt lat="50.51204" lon="3.0534">
        <ele>51.2</ele>
        <time>2023-08-06T04:30:36Z</time>
      </trkpt>
      <trkpt lat="50.51201" lon="3.05338">
        <ele>51.2</ele>
        <time>2023-08-06T04:30:37Z</time>
      </trkpt>
      <trkpt lat="50.51187" lon="3.05333">
        <ele>51.2</ele>
        <time>2023-08-06T04:30:42Z</time>
      </trkpt>
      <trkpt lat="50.5118" lon="3.05337">
        <ele>51.4</ele>
        <time>2023-08-06T04:30:44Z</time>
      </trkpt>
      <trkpt lat="50.51178" lon="3.05339">
        <ele>51.2</ele>
        <time>2023-08-06T04:30:45Z</time>
      </trkpt>
      <trkpt lat="50.51175" lon="3.05344">
        <ele>51.2</ele>
        <time>2023-08-06T04:30:46Z</time>
      </trkpt>
      <trkpt lat="50.51172" lon="3.05349">
        <ele>51.2</ele>
        <time>2023-08-06T04:30:47Z</time>
      </trkpt>
      <trkpt lat="50.5117" lon="3.05354">
        <ele>51.2</ele>
        <time>2023-08-06T04:30:48Z</time>
      </trkpt>
      <trkpt lat="50.51159" lon="3.05382">
        <ele>51.2</ele>
        <time>2023-08-06T04:30:54Z</time>
      </trkpt>
      <trkpt lat="50.51143" lon="3.05422">
        <ele>51.4</ele>
        <time>2023-08-06T04:31:02Z</time>
      </trkpt>
      <trkpt lat="50.51132" lon="3.05449">
        <ele>51.6</ele>
        <time>2023-08-06T04:31:08Z</time>
      </trkpt>
      <trkpt lat="50.5113" lon="3.05453">
        <ele>51.6</ele>
        <time>2023-08-06T04:31:09Z</time>
      </trkpt>
      <trkpt lat="50.51128" lon="3.05458">
        <ele>51.6</ele>
        <time>2023-08-06T04:31:10Z</time>
      </trkpt>
      <trkpt lat="50.51127" lon="3.05463">
        <ele>51.8</ele>
        <time>2023-08-06T04:31:11Z</time>
      </trkpt>
      <trkpt lat="50.51114" lon="3.05492">
        <ele>52</ele>
        <time>2023-08-06T04:31:18Z</time>
      </trkpt>
      <trkpt lat="50.51112" lon="3.05497">
        <ele>52</ele>
        <time>2023-08-06T04:31:19Z</time>
      </trkpt>
      <trkpt lat="50.5111" lon="3.05501">
        <ele>52</ele>
        <time>2023-08-06T04:31:20Z</time>
      </trkpt>
      <trkpt lat="50.51109" lon="3.05505">
        <ele>52</ele>
        <time>2023-08-06T04:31:21Z</time>
      </trkpt>
      <trkpt lat="50.51093" lon="3.05541">
        <ele>52.4</ele>
        <time>2023-08-06T04:31:29Z</time>
      </trkpt>
      <trkpt lat="50.51076" lon="3.0559">
        <ele>52.4</ele>
        <time>2023-08-06T04:31:39Z</time>
      </trkpt>
      <trkpt lat="50.51063" lon="3.05641">
        <ele>52.2</ele>
        <time>2023-08-06T04:31:48Z</time>
      </trkpt>
      <trkpt lat="50.51047" lon="3.05692">
        <ele>52.6</ele>
        <time>2023-08-06T04:31:57Z</time>
      </trkpt>
      <trkpt lat="50.51025" lon="3.05741">
        <ele>53</ele>
        <time>2023-08-06T04:32:07Z</time>
      </trkpt>
      <trkpt lat="50.51009" lon="3.05773">
        <ele>52.6</ele>
        <time>2023-08-06T04:32:14Z</time>
      </trkpt>
      <trkpt lat="50.51007" lon="3.05776">
        <ele>52.6</ele>
        <time>2023-08-06T04:32:15Z</time>
      </trkpt>
      <trkpt lat="50.51003" lon="3.05778">
        <ele>52.6</ele>
        <time>2023-08-06T04:32:16Z</time>
      </trkpt>
      <trkpt lat="50.51001" lon="3.05777">
        <ele>52.6</ele>
        <time>2023-08-06T04:32:17Z</time>
      </trkpt>
      <trkpt lat="50.50998" lon="3.05775">
        <ele>52.6</ele>
        <time>2023-08-06T04:32:18Z</time>
      </trkpt>
      <trkpt lat="50.50995" lon="3.05772">
        <ele>52.6</ele>
        <time>2023-08-06T04:32:19Z</time>
      </trkpt>
      <trkpt lat="50.50993" lon="3.05768">
        <ele>52.6</ele>
        <time>2023-08-06T04:32:20Z</time>
      </trkpt>
      <trkpt lat="50.50991" lon="3.05764">
        <ele>52.6</ele>
        <time>2023-08-06T04:32:21Z</time>
      </trkpt>
      <trkpt lat="50.50988" lon="3.05761">
        <ele>52.6</ele>
        <time>2023-08-06T04:32:22Z</time>
      </trkpt>
      <trkpt lat="50.50985" lon="3.05758">
        <ele>52.6</ele>
        <time>2023-08-06T04:32:23Z</time>
      </trkpt>
      <trkpt lat="50.50972" lon="3.0575">
        <ele>52.6</ele>
        <time>2023-08-06T04:32:27Z</time>
      </trkpt>
      <trkpt lat="50.50969" lon="3.0575">
        <ele>52.6</ele>
        <time>2023-08-06T04:32:28Z</time>
      </trkpt>
      <trkpt lat="50.50966" lon="3.05751">
        <ele>52.6</ele>
        <time>2023-08-06T04:32:29Z</time>
      </trkpt>
      <trkpt lat="50.50963" lon="3.05751">
        <ele>52.6</ele>
        <time>2023-08-06T04:32:30Z</time>
      </trkpt>
      <trkpt lat="50.5096" lon="3.05753">
        <ele>52.6</ele>
        <time>2023-08-06T04:32:31Z</time>
      </trkpt>
      <trkpt lat="50.50958" lon="3.05756">
        <ele>52.6</ele>
        <time>2023-08-06T04:32:32Z</time>
      </trkpt>
      <trkpt lat="50.50956" lon="3.05761">
        <ele>52.6</ele>
        <time>2023-08-06T04:32:33Z</time>
      </trkpt>
      <trkpt lat="50.50954" lon="3.05764">
        <ele>52.4</ele>
        <time>2023-08-06T04:32:34Z</time>
      </trkpt>
      <trkpt lat="50.50953" lon="3.05767">
        <ele>52.4</ele>
        <time>2023-08-06T04:32:35Z</time>
      </trkpt>
      <trkpt lat="50.50952" lon="3.05769">
        <ele>52.4</ele>
        <time>2023-08-06T04:32:36Z</time>
      </trkpt>
      <trkpt lat="50.5095" lon="3.05772">
        <ele>52.4</ele>
        <time>2023-08-06T04:32:37Z</time>
      </trkpt>
      <trkpt lat="50.50948" lon="3.05775">
        <ele>52.4</ele>
        <time>2023-08-06T04:32:38Z</time>
      </trkpt>
      <trkpt lat="50.50945" lon="3.05778">
        <ele>52.4</ele>
        <time>2023-08-06T04:32:39Z</time>
      </trkpt>
      <trkpt lat="50.50935" lon="3.05791">
        <ele>52</ele>
        <time>2023-08-06T04:32:43Z</time>
      </trkpt>
      <trkpt lat="50.50932" lon="3.05794">
        <ele>51.8</ele>
        <time>2023-08-06T04:32:44Z</time>
      </trkpt>
      <trkpt lat="50.50929" lon="3.05796">
        <ele>51.6</ele>
        <time>2023-08-06T04:32:45Z</time>
      </trkpt>
      <trkpt lat="50.50927" lon="3.05797">
        <ele>51.6</ele>
        <time>2023-08-06T04:32:46Z</time>
      </trkpt>
      <trkpt lat="50.50919" lon="3.05803">
        <ele>51.4</ele>
        <time>2023-08-06T04:32:48Z</time>
      </trkpt>
      <trkpt lat="50.50908" lon="3.05813">
        <ele>51.4</ele>
        <time>2023-08-06T04:32:51Z</time>
      </trkpt>
      <trkpt lat="50.50899" lon="3.05827">
        <ele>51.2</ele>
        <time>2023-08-06T04:32:54Z</time>
      </trkpt>
      <trkpt lat="50.50898" lon="3.05831">
        <ele>51.2</ele>
        <time>2023-08-06T04:32:55Z</time>
      </trkpt>
      <trkpt lat="50.50897" lon="3.05835">
        <ele>51.2</ele>
        <time>2023-08-06T04:32:56Z</time>
      </trkpt>
      <trkpt lat="50.50895" lon="3.05838">
        <ele>51.2</ele>
        <time>2023-08-06T04:32:57Z</time>
      </trkpt>
      <trkpt lat="50.50891" lon="3.05843">
        <ele>51.2</ele>
        <time>2023-08-06T04:32:58Z</time>
      </trkpt>
      <trkpt lat="50.50882" lon="3.05852">
        <ele>51</ele>
        <time>2023-08-06T04:33:00Z</time>
      </trkpt>
      <trkpt lat="50.50877" lon="3.05856">
        <ele>51</ele>
        <time>2023-08-06T04:33:01Z</time>
      </trkpt>
      <trkpt lat="50.50869" lon="3.05862">
        <ele>51</ele>
        <time>2023-08-06T04:33:03Z</time>
      </trkpt>
      <trkpt lat="50.50848" lon="3.05873">
        <ele>51</ele>
        <time>2023-08-06T04:33:10Z</time>
      </trkpt>
      <trkpt lat="50.50847" lon="3.05877">
        <ele>51</ele>
        <time>2023-08-06T04:33:11Z</time>
      </trkpt>
      <trkpt lat="50.50846" lon="3.05881">
        <ele>51</ele>
        <time>2023-08-06T04:33:12Z</time>
      </trkpt>
      <trkpt lat="50.50846" lon="3.05886">
        <ele>51</ele>
        <time>2023-08-06T04:33:13Z</time>
      </trkpt>
      <trkpt lat="50.50846" lon="3.0589">
        <ele>51</ele>
        <time>2023-08-06T04:33:14Z</time>
      </trkpt>
      <trkpt lat="50.50845" lon="3.05894">
        <ele>50.8</ele>
        <time>2023-08-06T04:33:15Z</time>
      </trkpt>
      <trkpt lat="50.50844" lon="3.05898">
        <ele>50.8</ele>
        <time>2023-08-06T04:33:16Z</time>
      </trkpt>
      <trkpt lat="50.50843" lon="3.05902">
        <ele>50.8</ele>
        <time>2023-08-06T04:33:17Z</time>
      </trkpt>
      <trkpt lat="50.50842" lon="3.05907">
        <ele>50.6</ele>
        <time>2023-08-06T04:33:18Z</time>
      </trkpt>
      <trkpt lat="50.5084" lon="3.05916">
        <ele>50.6</ele>
        <time>2023-08-06T04:33:20Z</time>
      </trkpt>
      <trkpt lat="50.50838" lon="3.05927">
        <ele>50.6</ele>
        <time>2023-08-06T04:33:23Z</time>
      </trkpt>
      <trkpt lat="50.50836" lon="3.05944">
        <ele>50.8</ele>
        <time>2023-08-06T04:33:26Z</time>
      </trkpt>
      <trkpt lat="50.50835" lon="3.05949">
        <ele>50.8</ele>
        <time>2023-08-06T04:33:27Z</time>
      </trkpt>
      <trkpt lat="50.50834" lon="3.05961">
        <ele>50.8</ele>
        <time>2023-08-06T04:33:29Z</time>
      </trkpt>
      <trkpt lat="50.50835" lon="3.05967">
        <ele>50.8</ele>
        <time>2023-08-06T04:33:30Z</time>
      </trkpt>
      <trkpt lat="50.50839" lon="3.05987">
        <ele>50.8</ele>
        <time>2023-08-06T04:33:34Z</time>
      </trkpt>
      <trkpt lat="50.50841" lon="3.05993">
        <ele>50.8</ele>
        <time>2023-08-06T04:33:35Z</time>
      </trkpt>
      <trkpt lat="50.50849" lon="3.06017">
        <ele>50.8</ele>
        <time>2023-08-06T04:33:40Z</time>
      </trkpt>
      <trkpt lat="50.50849" lon="3.06022">
        <ele>51</ele>
        <time>2023-08-06T04:33:41Z</time>
      </trkpt>
      <trkpt lat="50.50849" lon="3.06027">
        <ele>51</ele>
        <time>2023-08-06T04:33:42Z</time>
      </trkpt>
      <trkpt lat="50.50849" lon="3.06031">
        <ele>51</ele>
        <time>2023-08-06T04:33:43Z</time>
      </trkpt>
      <trkpt lat="50.50849" lon="3.06037">
        <ele>51.2</ele>
        <time>2023-08-06T04:33:44Z</time>
      </trkpt>
      <trkpt lat="50.50849" lon="3.06042">
        <ele>51.2</ele>
        <time>2023-08-06T04:33:45Z</time>
      </trkpt>
      <trkpt lat="50.5085" lon="3.06049">
        <ele>51.2</ele>
        <time>2023-08-06T04:33:46Z</time>
      </trkpt>
      <trkpt lat="50.5085" lon="3.06055">
        <ele>51.2</ele>
        <time>2023-08-06T04:33:47Z</time>
      </trkpt>
      <trkpt lat="50.50848" lon="3.06062">
        <ele>51.4</ele>
        <time>2023-08-06T04:33:48Z</time>
      </trkpt>
      <trkpt lat="50.50846" lon="3.06068">
        <ele>51.4</ele>
        <time>2023-08-06T04:33:49Z</time>
      </trkpt>
      <trkpt lat="50.50846" lon="3.06075">
        <ele>51.4</ele>
        <time>2023-08-06T04:33:50Z</time>
      </trkpt>
      <trkpt lat="50.50845" lon="3.06082">
        <ele>51.4</ele>
        <time>2023-08-06T04:33:51Z</time>
      </trkpt>
      <trkpt lat="50.50836" lon="3.06099">
        <ele>51</ele>
        <time>2023-08-06T04:33:55Z</time>
      </trkpt>
      <trkpt lat="50.50833" lon="3.06103">
        <ele>51</ele>
        <time>2023-08-06T04:33:56Z</time>
      </trkpt>
      <trkpt lat="50.50829" lon="3.06108">
        <ele>51</ele>
        <time>2023-08-06T04:33:57Z</time>
      </trkpt>
      <trkpt lat="50.50827" lon="3.06113">
        <ele>51</ele>
        <time>2023-08-06T04:33:58Z</time>
      </trkpt>
      <trkpt lat="50.50825" lon="3.06117">
        <ele>51</ele>
        <time>2023-08-06T04:33:59Z</time>
      </trkpt>
      <trkpt lat="50.50822" lon="3.06121">
        <ele>51</ele>
        <time>2023-08-06T04:34:00Z</time>
      </trkpt>
      <trkpt lat="50.50819" lon="3.06124">
        <ele>50.8</ele>
        <time>2023-08-06T04:34:01Z</time>
      </trkpt>
      <trkpt lat="50.50812" lon="3.06128">
        <ele>50.8</ele>
        <time>2023-08-06T04:34:03Z</time>
      </trkpt>
      <trkpt lat="50.50808" lon="3.0613">
        <ele>50.8</ele>
        <time>2023-08-06T04:34:04Z</time>
      </trkpt>
      <trkpt lat="50.50804" lon="3.06132">
        <ele>50.8</ele>
        <time>2023-08-06T04:34:05Z</time>
      </trkpt>
      <trkpt lat="50.508" lon="3.06136">
        <ele>50.8</ele>
        <time>2023-08-06T04:34:06Z</time>
      </trkpt>
      <trkpt lat="50.50779" lon="3.06146">
        <ele>50.6</ele>
        <time>2023-08-06T04:34:13Z</time>
      </trkpt>
      <trkpt lat="50.50776" lon="3.06148">
        <ele>50.6</ele>
        <time>2023-08-06T04:34:14Z</time>
      </trkpt>
      <trkpt lat="50.50773" lon="3.06151">
        <ele>50.4</ele>
        <time>2023-08-06T04:34:15Z</time>
      </trkpt>
      <trkpt lat="50.50769" lon="3.06154">
        <ele>50.4</ele>
        <time>2023-08-06T04:34:16Z</time>
      </trkpt>
      <trkpt lat="50.50766" lon="3.06157">
        <ele>50.4</ele>
        <time>2023-08-06T04:34:17Z</time>
      </trkpt>
      <trkpt lat="50.50763" lon="3.0616">
        <ele>50.2</ele>
        <time>2023-08-06T04:34:18Z</time>
      </trkpt>
      <trkpt lat="50.50761" lon="3.06163">
        <ele>50</ele>
        <time>2023-08-06T04:34:19Z</time>
      </trkpt>
      <trkpt lat="50.50759" lon="3.06167">
        <ele>50</ele>
        <time>2023-08-06T04:34:20Z</time>
      </trkpt>
      <trkpt lat="50.50754" lon="3.06173">
        <ele>50</ele>
        <time>2023-08-06T04:34:22Z</time>
      </trkpt>
      <trkpt lat="50.50752" lon="3.06173">
        <ele>50</ele>
        <time>2023-08-06T04:34:23Z</time>
      </trkpt>
      <trkpt lat="50.5075" lon="3.06173">
        <ele>50</ele>
        <time>2023-08-06T04:34:24Z</time>
      </trkpt>
      <trkpt lat="50.50747" lon="3.06172">
        <ele>49.8</ele>
        <time>2023-08-06T04:34:25Z</time>
      </trkpt>
      <trkpt lat="50.50742" lon="3.06173">
        <ele>49.8</ele>
        <time>2023-08-06T04:34:27Z</time>
      </trkpt>
      <trkpt lat="50.50739" lon="3.06174">
        <ele>49.8</ele>
        <time>2023-08-06T04:34:28Z</time>
      </trkpt>
      <trkpt lat="50.50737" lon="3.06174">
        <ele>49.8</ele>
        <time>2023-08-06T04:34:29Z</time>
      </trkpt>
      <trkpt lat="50.50734" lon="3.06177">
        <ele>49.8</ele>
        <time>2023-08-06T04:34:30Z</time>
      </trkpt>
      <trkpt lat="50.50732" lon="3.06181">
        <ele>49.6</ele>
        <time>2023-08-06T04:34:31Z</time>
      </trkpt>
      <trkpt lat="50.50729" lon="3.06185">
        <ele>49.6</ele>
        <time>2023-08-06T04:34:32Z</time>
      </trkpt>
      <trkpt lat="50.50727" lon="3.06188">
        <ele>49.6</ele>
        <time>2023-08-06T04:34:33Z</time>
      </trkpt>
      <trkpt lat="50.50724" lon="3.06191">
        <ele>49.6</ele>
        <time>2023-08-06T04:34:34Z</time>
      </trkpt>
      <trkpt lat="50.50712" lon="3.06205">
        <ele>49.4</ele>
        <time>2023-08-06T04:34:39Z</time>
      </trkpt>
      <trkpt lat="50.50711" lon="3.06207">
        <ele>49.4</ele>
        <time>2023-08-06T04:34:40Z</time>
      </trkpt>
      <trkpt lat="50.50709" lon="3.06211">
        <ele>49.4</ele>
        <time>2023-08-06T04:34:41Z</time>
      </trkpt>
      <trkpt lat="50.50708" lon="3.06213">
        <ele>49.4</ele>
        <time>2023-08-06T04:34:42Z</time>
      </trkpt>
      <trkpt lat="50.50706" lon="3.06214">
        <ele>49.4</ele>
        <time>2023-08-06T04:34:43Z</time>
      </trkpt>
      <trkpt lat="50.50697" lon="3.06224">
        <ele>49.2</ele>
        <time>2023-08-06T04:34:46Z</time>
      </trkpt>
      <trkpt lat="50.50694" lon="3.06228">
        <ele>49</ele>
        <time>2023-08-06T04:34:47Z</time>
      </trkpt>
      <trkpt lat="50.50692" lon="3.06233">
        <ele>48.8</ele>
        <time>2023-08-06T04:34:49Z</time>
      </trkpt>
      <trkpt lat="50.50693" lon="3.06238">
        <ele>48.8</ele>
        <time>2023-08-06T04:34:50Z</time>
      </trkpt>
      <trkpt lat="50.50693" lon="3.06244">
        <ele>48.6</ele>
        <time>2023-08-06T04:34:51Z</time>
      </trkpt>
      <trkpt lat="50.50692" lon="3.06251">
        <ele>48.6</ele>
        <time>2023-08-06T04:34:52Z</time>
      </trkpt>
      <trkpt lat="50.50691" lon="3.06257">
        <ele>48.6</ele>
        <time>2023-08-06T04:34:53Z</time>
      </trkpt>
      <trkpt lat="50.5069" lon="3.06262">
        <ele>48.6</ele>
        <time>2023-08-06T04:34:54Z</time>
      </trkpt>
      <trkpt lat="50.50689" lon="3.06265">
        <ele>48.6</ele>
        <time>2023-08-06T04:34:55Z</time>
      </trkpt>
      <trkpt lat="50.50689" lon="3.0627">
        <ele>48.6</ele>
        <time>2023-08-06T04:34:56Z</time>
      </trkpt>
      <trkpt lat="50.50689" lon="3.06274">
        <ele>48.6</ele>
        <time>2023-08-06T04:34:57Z</time>
      </trkpt>
      <trkpt lat="50.50689" lon="3.0628">
        <ele>48.6</ele>
        <time>2023-08-06T04:34:58Z</time>
      </trkpt>
      <trkpt lat="50.50692" lon="3.06287">
        <ele>48.6</ele>
        <time>2023-08-06T04:34:59Z</time>
      </trkpt>
      <trkpt lat="50.50694" lon="3.06292">
        <ele>48.4</ele>
        <time>2023-08-06T04:35:00Z</time>
      </trkpt>
      <trkpt lat="50.50695" lon="3.06296">
        <ele>48.4</ele>
        <time>2023-08-06T04:35:01Z</time>
      </trkpt>
      <trkpt lat="50.50696" lon="3.063">
        <ele>48.2</ele>
        <time>2023-08-06T04:35:02Z</time>
      </trkpt>
      <trkpt lat="50.50696" lon="3.06304">
        <ele>48.2</ele>
        <time>2023-08-06T04:35:03Z</time>
      </trkpt>
      <trkpt lat="50.50695" lon="3.06308">
        <ele>48.2</ele>
        <time>2023-08-06T04:35:04Z</time>
      </trkpt>
      <trkpt lat="50.50694" lon="3.06311">
        <ele>48.2</ele>
        <time>2023-08-06T04:35:05Z</time>
      </trkpt>
      <trkpt lat="50.50693" lon="3.06314">
        <ele>48.2</ele>
        <time>2023-08-06T04:35:06Z</time>
      </trkpt>
      <trkpt lat="50.50693" lon="3.06317">
        <ele>48.2</ele>
        <time>2023-08-06T04:35:07Z</time>
      </trkpt>
      <trkpt lat="50.50693" lon="3.06319">
        <ele>48</ele>
        <time>2023-08-06T04:35:08Z</time>
      </trkpt>
      <trkpt lat="50.50692" lon="3.06322">
        <ele>48</ele>
        <time>2023-08-06T04:35:09Z</time>
      </trkpt>
      <trkpt lat="50.50691" lon="3.06325">
        <ele>48</ele>
        <time>2023-08-06T04:35:10Z</time>
      </trkpt>
      <trkpt lat="50.50688" lon="3.06335">
        <ele>48</ele>
        <time>2023-08-06T04:35:13Z</time>
      </trkpt>
      <trkpt lat="50.50686" lon="3.06338">
        <ele>48</ele>
        <time>2023-08-06T04:35:14Z</time>
      </trkpt>
      <trkpt lat="50.50683" lon="3.0634">
        <ele>47.8</ele>
        <time>2023-08-06T04:35:15Z</time>
      </trkpt>
      <trkpt lat="50.50681" lon="3.06343">
        <ele>47.6</ele>
        <time>2023-08-06T04:35:16Z</time>
      </trkpt>
      <trkpt lat="50.50678" lon="3.06345">
        <ele>47.6</ele>
        <time>2023-08-06T04:35:17Z</time>
      </trkpt>
      <trkpt lat="50.50675" lon="3.06349">
        <ele>47.6</ele>
        <time>2023-08-06T04:35:18Z</time>
      </trkpt>
      <trkpt lat="50.50673" lon="3.06353">
        <ele>47.6</ele>
        <time>2023-08-06T04:35:19Z</time>
      </trkpt>
      <trkpt lat="50.50671" lon="3.06357">
        <ele>47.8</ele>
        <time>2023-08-06T04:35:20Z</time>
      </trkpt>
      <trkpt lat="50.50669" lon="3.06362">
        <ele>47.8</ele>
        <time>2023-08-06T04:35:21Z</time>
      </trkpt>
      <trkpt lat="50.50668" lon="3.06365">
        <ele>47.8</ele>
        <time>2023-08-06T04:35:22Z</time>
      </trkpt>
      <trkpt lat="50.50666" lon="3.06368">
        <ele>47.6</ele>
        <time>2023-08-06T04:35:23Z</time>
      </trkpt>
      <trkpt lat="50.50665" lon="3.06371">
        <ele>47.6</ele>
        <time>2023-08-06T04:35:24Z</time>
      </trkpt>
      <trkpt lat="50.50664" lon="3.06375">
        <ele>47.6</ele>
        <time>2023-08-06T04:35:25Z</time>
      </trkpt>
      <trkpt lat="50.50662" lon="3.06378">
        <ele>47.4</ele>
        <time>2023-08-06T04:35:26Z</time>
      </trkpt>
      <trkpt lat="50.50655" lon="3.0639">
        <ele>47.4</ele>
        <time>2023-08-06T04:35:30Z</time>
      </trkpt>
      <trkpt lat="50.50653" lon="3.06391">
        <ele>47.4</ele>
        <time>2023-08-06T04:35:31Z</time>
      </trkpt>
      <trkpt lat="50.50652" lon="3.06393">
        <ele>47.4</ele>
        <time>2023-08-06T04:35:32Z</time>
      </trkpt>
      <trkpt lat="50.5065" lon="3.06397">
        <ele>47.4</ele>
        <time>2023-08-06T04:35:33Z</time>
      </trkpt>
      <trkpt lat="50.50648" lon="3.06401">
        <ele>47.2</ele>
        <time>2023-08-06T04:35:34Z</time>
      </trkpt>
      <trkpt lat="50.50646" lon="3.06403">
        <ele>47.2</ele>
        <time>2023-08-06T04:35:35Z</time>
      </trkpt>
      <trkpt lat="50.50643" lon="3.06406">
        <ele>47</ele>
        <time>2023-08-06T04:35:36Z</time>
      </trkpt>
      <trkpt lat="50.50641" lon="3.06408">
        <ele>47.2</ele>
        <time>2023-08-06T04:35:37Z</time>
      </trkpt>
      <trkpt lat="50.50634" lon="3.0641">
        <ele>47.2</ele>
        <time>2023-08-06T04:35:39Z</time>
      </trkpt>
      <trkpt lat="50.5063" lon="3.06411">
        <ele>47</ele>
        <time>2023-08-06T04:35:40Z</time>
      </trkpt>
      <trkpt lat="50.50626" lon="3.06411">
        <ele>47.2</ele>
        <time>2023-08-06T04:35:41Z</time>
      </trkpt>
      <trkpt lat="50.50622" lon="3.0641">
        <ele>47.2</ele>
        <time>2023-08-06T04:35:42Z</time>
      </trkpt>
      <trkpt lat="50.50612" lon="3.06405">
        <ele>47.2</ele>
        <time>2023-08-06T04:35:46Z</time>
      </trkpt>
      <trkpt lat="50.5061" lon="3.06404">
        <ele>47.4</ele>
        <time>2023-08-06T04:35:47Z</time>
      </trkpt>
      <trkpt lat="50.50607" lon="3.06403">
        <ele>47.4</ele>
        <time>2023-08-06T04:35:48Z</time>
      </trkpt>
      <trkpt lat="50.50604" lon="3.06403">
        <ele>47</ele>
        <time>2023-08-06T04:35:50Z</time>
      </trkpt>
      <trkpt lat="50.506" lon="3.06407">
        <ele>47.2</ele>
        <time>2023-08-06T04:35:52Z</time>
      </trkpt>
      <trkpt lat="50.50597" lon="3.0641">
        <ele>47</ele>
        <time>2023-08-06T04:35:53Z</time>
      </trkpt>
      <trkpt lat="50.50594" lon="3.06413">
        <ele>47</ele>
        <time>2023-08-06T04:35:54Z</time>
      </trkpt>
      <trkpt lat="50.50592" lon="3.06415">
        <ele>47</ele>
        <time>2023-08-06T04:35:55Z</time>
      </trkpt>
      <trkpt lat="50.5059" lon="3.06417">
        <ele>47</ele>
        <time>2023-08-06T04:35:56Z</time>
      </trkpt>
      <trkpt lat="50.50587" lon="3.06419">
        <ele>47</ele>
        <time>2023-08-06T04:35:57Z</time>
      </trkpt>
      <trkpt lat="50.50584" lon="3.06422">
        <ele>47</ele>
        <time>2023-08-06T04:35:58Z</time>
      </trkpt>
      <trkpt lat="50.50572" lon="3.06433">
        <ele>47</ele>
        <time>2023-08-06T04:36:02Z</time>
      </trkpt>
      <trkpt lat="50.50568" lon="3.06435">
        <ele>47</ele>
        <time>2023-08-06T04:36:03Z</time>
      </trkpt>
      <trkpt lat="50.50566" lon="3.06437">
        <ele>46.6</ele>
        <time>2023-08-06T04:36:04Z</time>
      </trkpt>
      <trkpt lat="50.50563" lon="3.06438">
        <ele>46.6</ele>
        <time>2023-08-06T04:36:05Z</time>
      </trkpt>
      <trkpt lat="50.50561" lon="3.06438">
        <ele>46.6</ele>
        <time>2023-08-06T04:36:06Z</time>
      </trkpt>
      <trkpt lat="50.50558" lon="3.06438">
        <ele>46.6</ele>
        <time>2023-08-06T04:36:07Z</time>
      </trkpt>
      <trkpt lat="50.50556" lon="3.06437">
        <ele>46.6</ele>
        <time>2023-08-06T04:36:08Z</time>
      </trkpt>
      <trkpt lat="50.50554" lon="3.06437">
        <ele>46.4</ele>
        <time>2023-08-06T04:36:09Z</time>
      </trkpt>
      <trkpt lat="50.50552" lon="3.06438">
        <ele>46.4</ele>
        <time>2023-08-06T04:36:10Z</time>
      </trkpt>
      <trkpt lat="50.50549" lon="3.06436">
        <ele>46.4</ele>
        <time>2023-08-06T04:36:11Z</time>
      </trkpt>
      <trkpt lat="50.50534" lon="3.06432">
        <ele>46.2</ele>
        <time>2023-08-06T04:36:16Z</time>
      </trkpt>
      <trkpt lat="50.5053" lon="3.06431">
        <ele>46.2</ele>
        <time>2023-08-06T04:36:17Z</time>
      </trkpt>
      <trkpt lat="50.50527" lon="3.06431">
        <ele>46.2</ele>
        <time>2023-08-06T04:36:18Z</time>
      </trkpt>
      <trkpt lat="50.50521" lon="3.06428">
        <ele>46</ele>
        <time>2023-08-06T04:36:20Z</time>
      </trkpt>
      <trkpt lat="50.50515" lon="3.06424">
        <ele>46</ele>
        <time>2023-08-06T04:36:22Z</time>
      </trkpt>
      <trkpt lat="50.50512" lon="3.06422">
        <ele>46</ele>
        <time>2023-08-06T04:36:23Z</time>
      </trkpt>
      <trkpt lat="50.50509" lon="3.06421">
        <ele>45.8</ele>
        <time>2023-08-06T04:36:24Z</time>
      </trkpt>
      <trkpt lat="50.50507" lon="3.0642">
        <ele>45.8</ele>
        <time>2023-08-06T04:36:25Z</time>
      </trkpt>
      <trkpt lat="50.50497" lon="3.06415">
        <ele>45.8</ele>
        <time>2023-08-06T04:36:29Z</time>
      </trkpt>
      <trkpt lat="50.50496" lon="3.06413">
        <ele>45.6</ele>
        <time>2023-08-06T04:36:30Z</time>
      </trkpt>
      <trkpt lat="50.50495" lon="3.06411">
        <ele>45.6</ele>
        <time>2023-08-06T04:36:31Z</time>
      </trkpt>
      <trkpt lat="50.50494" lon="3.06409">
        <ele>45.6</ele>
        <time>2023-08-06T04:36:32Z</time>
      </trkpt>
      <trkpt lat="50.50492" lon="3.06407">
        <ele>45.6</ele>
        <time>2023-08-06T04:36:33Z</time>
      </trkpt>
      <trkpt lat="50.5049" lon="3.06403">
        <ele>45.6</ele>
        <time>2023-08-06T04:36:35Z</time>
      </trkpt>
      <trkpt lat="50.50489" lon="3.06402">
        <ele>45.6</ele>
        <time>2023-08-06T04:36:36Z</time>
      </trkpt>
      <trkpt lat="50.50488" lon="3.06398">
        <ele>45.6</ele>
        <time>2023-08-06T04:36:37Z</time>
      </trkpt>
      <trkpt lat="50.50486" lon="3.06395">
        <ele>45.6</ele>
        <time>2023-08-06T04:36:38Z</time>
      </trkpt>
      <trkpt lat="50.50485" lon="3.06391">
        <ele>45.6</ele>
        <time>2023-08-06T04:36:39Z</time>
      </trkpt>
      <trkpt lat="50.50481" lon="3.06384">
        <ele>45.6</ele>
        <time>2023-08-06T04:36:41Z</time>
      </trkpt>
      <trkpt lat="50.50479" lon="3.0638">
        <ele>45.6</ele>
        <time>2023-08-06T04:36:42Z</time>
      </trkpt>
      <trkpt lat="50.50477" lon="3.06377">
        <ele>45.6</ele>
        <time>2023-08-06T04:36:43Z</time>
      </trkpt>
      <trkpt lat="50.50475" lon="3.06375">
        <ele>45.6</ele>
        <time>2023-08-06T04:36:44Z</time>
      </trkpt>
      <trkpt lat="50.50472" lon="3.0637">
        <ele>45.4</ele>
        <time>2023-08-06T04:36:47Z</time>
      </trkpt>
      <trkpt lat="50.5047" lon="3.06368">
        <ele>45.4</ele>
        <time>2023-08-06T04:36:48Z</time>
      </trkpt>
      <trkpt lat="50.50469" lon="3.06365">
        <ele>45.4</ele>
        <time>2023-08-06T04:36:49Z</time>
      </trkpt>
      <trkpt lat="50.50468" lon="3.06362">
        <ele>45.4</ele>
        <time>2023-08-06T04:36:50Z</time>
      </trkpt>
      <trkpt lat="50.50466" lon="3.06358">
        <ele>45.4</ele>
        <time>2023-08-06T04:36:51Z</time>
      </trkpt>
      <trkpt lat="50.50465" lon="3.06355">
        <ele>45.2</ele>
        <time>2023-08-06T04:36:52Z</time>
      </trkpt>
      <trkpt lat="50.50464" lon="3.06352">
        <ele>45.2</ele>
        <time>2023-08-06T04:36:53Z</time>
      </trkpt>
      <trkpt lat="50.50464" lon="3.06348">
        <ele>45.2</ele>
        <time>2023-08-06T04:36:54Z</time>
      </trkpt>
      <trkpt lat="50.50463" lon="3.06345">
        <ele>45.2</ele>
        <time>2023-08-06T04:36:55Z</time>
      </trkpt>
      <trkpt lat="50.50458" lon="3.06336">
        <ele>45.2</ele>
        <time>2023-08-06T04:36:57Z</time>
      </trkpt>
      <trkpt lat="50.50455" lon="3.06332">
        <ele>45.2</ele>
        <time>2023-08-06T04:36:58Z</time>
      </trkpt>
      <trkpt lat="50.50452" lon="3.06325">
        <ele>45.2</ele>
        <time>2023-08-06T04:36:59Z</time>
      </trkpt>
      <trkpt lat="50.5045" lon="3.06321">
        <ele>45.2</ele>
        <time>2023-08-06T04:37:00Z</time>
      </trkpt>
      <trkpt lat="50.50444" lon="3.06307">
        <ele>45.2</ele>
        <time>2023-08-06T04:37:02Z</time>
      </trkpt>
      <trkpt lat="50.50435" lon="3.06291">
        <ele>45</ele>
        <time>2023-08-06T04:37:05Z</time>
      </trkpt>
      <trkpt lat="50.50433" lon="3.06287">
        <ele>45</ele>
        <time>2023-08-06T04:37:06Z</time>
      </trkpt>
      <trkpt lat="50.5043" lon="3.06286">
        <ele>44.8</ele>
        <time>2023-08-06T04:37:07Z</time>
      </trkpt>
      <trkpt lat="50.50428" lon="3.06287">
        <ele>44.8</ele>
        <time>2023-08-06T04:37:08Z</time>
      </trkpt>
      <trkpt lat="50.50425" lon="3.06285">
        <ele>44.8</ele>
        <time>2023-08-06T04:37:09Z</time>
      </trkpt>
      <trkpt lat="50.50422" lon="3.06284">
        <ele>44.6</ele>
        <time>2023-08-06T04:37:10Z</time>
      </trkpt>
      <trkpt lat="50.50419" lon="3.06281">
        <ele>44.6</ele>
        <time>2023-08-06T04:37:11Z</time>
      </trkpt>
      <trkpt lat="50.50416" lon="3.06281">
        <ele>44.6</ele>
        <time>2023-08-06T04:37:12Z</time>
      </trkpt>
      <trkpt lat="50.5041" lon="3.06284">
        <ele>44.4</ele>
        <time>2023-08-06T04:37:14Z</time>
      </trkpt>
      <trkpt lat="50.50408" lon="3.06286">
        <ele>44.2</ele>
        <time>2023-08-06T04:37:15Z</time>
      </trkpt>
      <trkpt lat="50.50405" lon="3.06289">
        <ele>44.2</ele>
        <time>2023-08-06T04:37:16Z</time>
      </trkpt>
      <trkpt lat="50.50404" lon="3.0629">
        <ele>44.2</ele>
        <time>2023-08-06T04:37:17Z</time>
      </trkpt>
      <trkpt lat="50.50401" lon="3.06293">
        <ele>44</ele>
        <time>2023-08-06T04:37:19Z</time>
      </trkpt>
      <trkpt lat="50.50397" lon="3.06294">
        <ele>44</ele>
        <time>2023-08-06T04:37:20Z</time>
      </trkpt>
      <trkpt lat="50.50396" lon="3.06295">
        <ele>44</ele>
        <time>2023-08-06T04:37:21Z</time>
      </trkpt>
      <trkpt lat="50.50395" lon="3.06296">
        <ele>43.8</ele>
        <time>2023-08-06T04:37:22Z</time>
      </trkpt>
      <trkpt lat="50.50393" lon="3.06298">
        <ele>43.8</ele>
        <time>2023-08-06T04:37:23Z</time>
      </trkpt>
      <trkpt lat="50.50387" lon="3.06304">
        <ele>43.6</ele>
        <time>2023-08-06T04:37:26Z</time>
      </trkpt>
      <trkpt lat="50.50379" lon="3.06315">
        <ele>43.6</ele>
        <time>2023-08-06T04:37:31Z</time>
      </trkpt>
      <trkpt lat="50.50379" lon="3.06318">
        <ele>43.6</ele>
        <time>2023-08-06T04:37:32Z</time>
      </trkpt>
      <trkpt lat="50.50378" lon="3.06321">
        <ele>43.6</ele>
        <time>2023-08-06T04:37:33Z</time>
      </trkpt>
      <trkpt lat="50.50375" lon="3.06327">
        <ele>43.6</ele>
        <time>2023-08-06T04:37:35Z</time>
      </trkpt>
      <trkpt lat="50.50374" lon="3.06328">
        <ele>43.6</ele>
        <time>2023-08-06T04:37:36Z</time>
      </trkpt>
      <trkpt lat="50.50371" lon="3.06333">
        <ele>43.4</ele>
        <time>2023-08-06T04:37:38Z</time>
      </trkpt>
      <trkpt lat="50.50367" lon="3.06338">
        <ele>43.2</ele>
        <time>2023-08-06T04:37:40Z</time>
      </trkpt>
      <trkpt lat="50.50364" lon="3.06341">
        <ele>43.2</ele>
        <time>2023-08-06T04:37:41Z</time>
      </trkpt>
      <trkpt lat="50.50356" lon="3.06345">
        <ele>43.2</ele>
        <time>2023-08-06T04:37:44Z</time>
      </trkpt>
      <trkpt lat="50.50354" lon="3.06345">
        <ele>43.2</ele>
        <time>2023-08-06T04:37:45Z</time>
      </trkpt>
      <trkpt lat="50.50353" lon="3.06345">
        <ele>43.2</ele>
        <time>2023-08-06T04:37:46Z</time>
      </trkpt>
      <trkpt lat="50.5035" lon="3.06345">
        <ele>43.2</ele>
        <time>2023-08-06T04:37:47Z</time>
      </trkpt>
      <trkpt lat="50.50338" lon="3.06344">
        <ele>43.2</ele>
        <time>2023-08-06T04:37:52Z</time>
      </trkpt>
      <trkpt lat="50.50334" lon="3.06348">
        <ele>43</ele>
        <time>2023-08-06T04:37:54Z</time>
      </trkpt>
      <trkpt lat="50.50331" lon="3.06351">
        <ele>42.8</ele>
        <time>2023-08-06T04:37:55Z</time>
      </trkpt>
      <trkpt lat="50.50329" lon="3.06352">
        <ele>42.8</ele>
        <time>2023-08-06T04:37:56Z</time>
      </trkpt>
      <trkpt lat="50.50326" lon="3.06353">
        <ele>42.6</ele>
        <time>2023-08-06T04:37:58Z</time>
      </trkpt>
      <trkpt lat="50.50324" lon="3.06353">
        <ele>42.4</ele>
        <time>2023-08-06T04:37:59Z</time>
      </trkpt>
      <trkpt lat="50.50322" lon="3.06352">
        <ele>42.6</ele>
        <time>2023-08-06T04:38:00Z</time>
      </trkpt>
      <trkpt lat="50.5032" lon="3.06351">
        <ele>42.4</ele>
        <time>2023-08-06T04:38:01Z</time>
      </trkpt>
      <trkpt lat="50.50318" lon="3.0635">
        <ele>42.4</ele>
        <time>2023-08-06T04:38:02Z</time>
      </trkpt>
      <trkpt lat="50.50309" lon="3.06352">
        <ele>42.4</ele>
        <time>2023-08-06T04:38:05Z</time>
      </trkpt>
      <trkpt lat="50.50306" lon="3.06351">
        <ele>42.4</ele>
        <time>2023-08-06T04:38:06Z</time>
      </trkpt>
      <trkpt lat="50.50301" lon="3.06352">
        <ele>42.4</ele>
        <time>2023-08-06T04:38:08Z</time>
      </trkpt>
      <trkpt lat="50.50301" lon="3.06352">
        <ele>42.6</ele>
        <time>2023-08-06T04:38:09Z</time>
      </trkpt>
      <trkpt lat="50.503" lon="3.06352">
        <ele>42.6</ele>
        <time>2023-08-06T04:38:10Z</time>
      </trkpt>
      <trkpt lat="50.50298" lon="3.06353">
        <ele>42.4</ele>
        <time>2023-08-06T04:38:11Z</time>
      </trkpt>
      <trkpt lat="50.50285" lon="3.06352">
        <ele>42.6</ele>
        <time>2023-08-06T04:38:16Z</time>
      </trkpt>
      <trkpt lat="50.5028" lon="3.06351">
        <ele>42.6</ele>
        <time>2023-08-06T04:38:18Z</time>
      </trkpt>
      <trkpt lat="50.5027" lon="3.06343">
        <ele>42.4</ele>
        <time>2023-08-06T04:38:23Z</time>
      </trkpt>
      <trkpt lat="50.50268" lon="3.06342">
        <ele>42.4</ele>
        <time>2023-08-06T04:38:24Z</time>
      </trkpt>
      <trkpt lat="50.50265" lon="3.06341">
        <ele>42.4</ele>
        <time>2023-08-06T04:38:25Z</time>
      </trkpt>
      <trkpt lat="50.50258" lon="3.06339">
        <ele>42.4</ele>
        <time>2023-08-06T04:38:27Z</time>
      </trkpt>
      <trkpt lat="50.50255" lon="3.06338">
        <ele>42.4</ele>
        <time>2023-08-06T04:38:28Z</time>
      </trkpt>
      <trkpt lat="50.50249" lon="3.06339">
        <ele>42.4</ele>
        <time>2023-08-06T04:38:30Z</time>
      </trkpt>
      <trkpt lat="50.50247" lon="3.0634">
        <ele>42.4</ele>
        <time>2023-08-06T04:38:31Z</time>
      </trkpt>
      <trkpt lat="50.50245" lon="3.0634">
        <ele>42.4</ele>
        <time>2023-08-06T04:38:32Z</time>
      </trkpt>
      <trkpt lat="50.50244" lon="3.06339">
        <ele>42.4</ele>
        <time>2023-08-06T04:38:33Z</time>
      </trkpt>
      <trkpt lat="50.50243" lon="3.06338">
        <ele>42.4</ele>
        <time>2023-08-06T04:38:34Z</time>
      </trkpt>
      <trkpt lat="50.50242" lon="3.06339">
        <ele>42.4</ele>
        <time>2023-08-06T04:38:35Z</time>
      </trkpt>
      <trkpt lat="50.50241" lon="3.06342">
        <ele>42.2</ele>
        <time>2023-08-06T04:38:37Z</time>
      </trkpt>
      <trkpt lat="50.50226" lon="3.06349">
        <ele>42.2</ele>
        <time>2023-08-06T04:38:56Z</time>
      </trkpt>
      <trkpt lat="50.50223" lon="3.06358">
        <ele>42</ele>
        <time>2023-08-06T04:38:59Z</time>
      </trkpt>
      <trkpt lat="50.50223" lon="3.06361">
        <ele>42</ele>
        <time>2023-08-06T04:39:00Z</time>
      </trkpt>
      <trkpt lat="50.50223" lon="3.06364">
        <ele>42</ele>
        <time>2023-08-06T04:39:01Z</time>
      </trkpt>
      <trkpt lat="50.50223" lon="3.06366">
        <ele>42</ele>
        <time>2023-08-06T04:39:02Z</time>
      </trkpt>
      <trkpt lat="50.50223" lon="3.06369">
        <ele>42</ele>
        <time>2023-08-06T04:39:03Z</time>
      </trkpt>
      <trkpt lat="50.50223" lon="3.0637">
        <ele>41.8</ele>
        <time>2023-08-06T04:39:04Z</time>
      </trkpt>
      <trkpt lat="50.50223" lon="3.06372">
        <ele>41.8</ele>
        <time>2023-08-06T04:39:05Z</time>
      </trkpt>
      <trkpt lat="50.50222" lon="3.06374">
        <ele>41.8</ele>
        <time>2023-08-06T04:39:06Z</time>
      </trkpt>
      <trkpt lat="50.50222" lon="3.06375">
        <ele>41.8</ele>
        <time>2023-08-06T04:39:07Z</time>
      </trkpt>
      <trkpt lat="50.50221" lon="3.06379">
        <ele>41.8</ele>
        <time>2023-08-06T04:39:09Z</time>
      </trkpt>
      <trkpt lat="50.50222" lon="3.0638">
        <ele>41.6</ele>
        <time>2023-08-06T04:39:10Z</time>
      </trkpt>
      <trkpt lat="50.50222" lon="3.0638">
        <ele>41.6</ele>
        <time>2023-08-06T04:39:11Z</time>
      </trkpt>
      <trkpt lat="50.50222" lon="3.0638">
        <ele>41.6</ele>
        <time>2023-08-06T04:39:13Z</time>
      </trkpt>
      <trkpt lat="50.50215" lon="3.06427">
        <ele>40.8</ele>
        <time>2023-08-06T04:39:46Z</time>
      </trkpt>
      <trkpt lat="50.50211" lon="3.06432">
        <ele>40.8</ele>
        <time>2023-08-06T04:39:48Z</time>
      </trkpt>
      <trkpt lat="50.50209" lon="3.06435">
        <ele>40.8</ele>
        <time>2023-08-06T04:39:49Z</time>
      </trkpt>
      <trkpt lat="50.50208" lon="3.06438">
        <ele>41</ele>
        <time>2023-08-06T04:39:50Z</time>
      </trkpt>
      <trkpt lat="50.50206" lon="3.06441">
        <ele>41</ele>
        <time>2023-08-06T04:39:51Z</time>
      </trkpt>
      <trkpt lat="50.50202" lon="3.06449">
        <ele>41</ele>
        <time>2023-08-06T04:39:54Z</time>
      </trkpt>
      <trkpt lat="50.50201" lon="3.06455">
        <ele>40.8</ele>
        <time>2023-08-06T04:39:56Z</time>
      </trkpt>
      <trkpt lat="50.50201" lon="3.06458">
        <ele>40.8</ele>
        <time>2023-08-06T04:39:57Z</time>
      </trkpt>
      <trkpt lat="50.50201" lon="3.06461">
        <ele>40.8</ele>
        <time>2023-08-06T04:39:58Z</time>
      </trkpt>
      <trkpt lat="50.50201" lon="3.06464">
        <ele>40.8</ele>
        <time>2023-08-06T04:39:59Z</time>
      </trkpt>
      <trkpt lat="50.50201" lon="3.06467">
        <ele>40.8</ele>
        <time>2023-08-06T04:40:00Z</time>
      </trkpt>
      <trkpt lat="50.502" lon="3.06471">
        <ele>40.8</ele>
        <time>2023-08-06T04:40:01Z</time>
      </trkpt>
      <trkpt lat="50.50199" lon="3.06474">
        <ele>40.8</ele>
        <time>2023-08-06T04:40:02Z</time>
      </trkpt>
      <trkpt lat="50.50199" lon="3.06483">
        <ele>40.8</ele>
        <time>2023-08-06T04:40:04Z</time>
      </trkpt>
      <trkpt lat="50.502" lon="3.06487">
        <ele>40.8</ele>
        <time>2023-08-06T04:40:05Z</time>
      </trkpt>
      <trkpt lat="50.50201" lon="3.06492">
        <ele>40.6</ele>
        <time>2023-08-06T04:40:06Z</time>
      </trkpt>
      <trkpt lat="50.50202" lon="3.06498">
        <ele>40.6</ele>
        <time>2023-08-06T04:40:07Z</time>
      </trkpt>
      <trkpt lat="50.50204" lon="3.06503">
        <ele>40.6</ele>
        <time>2023-08-06T04:40:08Z</time>
      </trkpt>
      <trkpt lat="50.50205" lon="3.06518">
        <ele>40.4</ele>
        <time>2023-08-06T04:40:11Z</time>
      </trkpt>
      <trkpt lat="50.50203" lon="3.0654">
        <ele>40.2</ele>
        <time>2023-08-06T04:40:16Z</time>
      </trkpt>
      <trkpt lat="50.50207" lon="3.06552">
        <ele>40.2</ele>
        <time>2023-08-06T04:40:18Z</time>
      </trkpt>
      <trkpt lat="50.50204" lon="3.06563">
        <ele>40</ele>
        <time>2023-08-06T04:40:21Z</time>
      </trkpt>
      <trkpt lat="50.50204" lon="3.06567">
        <ele>39.8</ele>
        <time>2023-08-06T04:40:22Z</time>
      </trkpt>
      <trkpt lat="50.50204" lon="3.0657">
        <ele>39.8</ele>
        <time>2023-08-06T04:40:23Z</time>
      </trkpt>
      <trkpt lat="50.50203" lon="3.06579">
        <ele>39.6</ele>
        <time>2023-08-06T04:40:25Z</time>
      </trkpt>
      <trkpt lat="50.50202" lon="3.06584">
        <ele>39.6</ele>
        <time>2023-08-06T04:40:26Z</time>
      </trkpt>
      <trkpt lat="50.50203" lon="3.06589">
        <ele>39.6</ele>
        <time>2023-08-06T04:40:27Z</time>
      </trkpt>
      <trkpt lat="50.50204" lon="3.06593">
        <ele>39.4</ele>
        <time>2023-08-06T04:40:28Z</time>
      </trkpt>
      <trkpt lat="50.50205" lon="3.06596">
        <ele>39.4</ele>
        <time>2023-08-06T04:40:29Z</time>
      </trkpt>
      <trkpt lat="50.50206" lon="3.06598">
        <ele>39.4</ele>
        <time>2023-08-06T04:40:30Z</time>
      </trkpt>
      <trkpt lat="50.50209" lon="3.066">
        <ele>39.2</ele>
        <time>2023-08-06T04:40:31Z</time>
      </trkpt>
      <trkpt lat="50.50211" lon="3.06604">
        <ele>39.2</ele>
        <time>2023-08-06T04:40:32Z</time>
      </trkpt>
      <trkpt lat="50.50213" lon="3.06608">
        <ele>39.2</ele>
        <time>2023-08-06T04:40:33Z</time>
      </trkpt>
      <trkpt lat="50.50217" lon="3.06625">
        <ele>39</ele>
        <time>2023-08-06T04:40:37Z</time>
      </trkpt>
      <trkpt lat="50.50218" lon="3.06627">
        <ele>39</ele>
        <time>2023-08-06T04:40:38Z</time>
      </trkpt>
      <trkpt lat="50.50219" lon="3.0663">
        <ele>39</ele>
        <time>2023-08-06T04:40:39Z</time>
      </trkpt>
      <trkpt lat="50.50224" lon="3.06638">
        <ele>39</ele>
        <time>2023-08-06T04:40:41Z</time>
      </trkpt>
      <trkpt lat="50.50226" lon="3.06643">
        <ele>39</ele>
        <time>2023-08-06T04:40:42Z</time>
      </trkpt>
      <trkpt lat="50.50229" lon="3.06651">
        <ele>39</ele>
        <time>2023-08-06T04:40:44Z</time>
      </trkpt>
      <trkpt lat="50.50229" lon="3.0666">
        <ele>39</ele>
        <time>2023-08-06T04:40:46Z</time>
      </trkpt>
      <trkpt lat="50.50229" lon="3.06664">
        <ele>39</ele>
        <time>2023-08-06T04:40:47Z</time>
      </trkpt>
      <trkpt lat="50.50228" lon="3.06672">
        <ele>39</ele>
        <time>2023-08-06T04:40:49Z</time>
      </trkpt>
      <trkpt lat="50.50229" lon="3.06676">
        <ele>39</ele>
        <time>2023-08-06T04:40:50Z</time>
      </trkpt>
      <trkpt lat="50.50229" lon="3.06679">
        <ele>39</ele>
        <time>2023-08-06T04:40:51Z</time>
      </trkpt>
      <trkpt lat="50.5023" lon="3.06684">
        <ele>39</ele>
        <time>2023-08-06T04:40:52Z</time>
      </trkpt>
      <trkpt lat="50.50231" lon="3.06687">
        <ele>39</ele>
        <time>2023-08-06T04:40:53Z</time>
      </trkpt>
      <trkpt lat="50.50231" lon="3.06691">
        <ele>39</ele>
        <time>2023-08-06T04:40:54Z</time>
      </trkpt>
      <trkpt lat="50.50231" lon="3.06696">
        <ele>39</ele>
        <time>2023-08-06T04:40:55Z</time>
      </trkpt>
      <trkpt lat="50.50231" lon="3.06701">
        <ele>39</ele>
        <time>2023-08-06T04:40:56Z</time>
      </trkpt>
      <trkpt lat="50.50231" lon="3.06709">
        <ele>39</ele>
        <time>2023-08-06T04:40:58Z</time>
      </trkpt>
      <trkpt lat="50.50231" lon="3.06713">
        <ele>39</ele>
        <time>2023-08-06T04:40:59Z</time>
      </trkpt>
      <trkpt lat="50.50231" lon="3.06723">
        <ele>38.8</ele>
        <time>2023-08-06T04:41:02Z</time>
      </trkpt>
      <trkpt lat="50.5023" lon="3.06728">
        <ele>38.6</ele>
        <time>2023-08-06T04:41:04Z</time>
      </trkpt>
      <trkpt lat="50.50229" lon="3.06732">
        <ele>38.6</ele>
        <time>2023-08-06T04:41:05Z</time>
      </trkpt>
      <trkpt lat="50.50228" lon="3.06738">
        <ele>38.4</ele>
        <time>2023-08-06T04:41:06Z</time>
      </trkpt>
      <trkpt lat="50.50226" lon="3.06742">
        <ele>38.4</ele>
        <time>2023-08-06T04:41:07Z</time>
      </trkpt>
      <trkpt lat="50.5022" lon="3.06763">
        <ele>38.2</ele>
        <time>2023-08-06T04:41:12Z</time>
      </trkpt>
      <trkpt lat="50.50219" lon="3.06765">
        <ele>38.2</ele>
        <time>2023-08-06T04:41:13Z</time>
      </trkpt>
      <trkpt lat="50.50219" lon="3.06767">
        <ele>38.2</ele>
        <time>2023-08-06T04:41:14Z</time>
      </trkpt>
      <trkpt lat="50.50219" lon="3.06768">
        <ele>38.4</ele>
        <time>2023-08-06T04:41:15Z</time>
      </trkpt>
      <trkpt lat="50.50214" lon="3.06778">
        <ele>38.4</ele>
        <time>2023-08-06T04:41:17Z</time>
      </trkpt>
      <trkpt lat="50.50213" lon="3.06783">
        <ele>38.4</ele>
        <time>2023-08-06T04:41:18Z</time>
      </trkpt>
      <trkpt lat="50.50212" lon="3.06786">
        <ele>38.6</ele>
        <time>2023-08-06T04:41:19Z</time>
      </trkpt>
      <trkpt lat="50.50211" lon="3.06789">
        <ele>38.6</ele>
        <time>2023-08-06T04:41:20Z</time>
      </trkpt>
      <trkpt lat="50.5021" lon="3.06791">
        <ele>38.6</ele>
        <time>2023-08-06T04:41:21Z</time>
      </trkpt>
      <trkpt lat="50.50207" lon="3.06795">
        <ele>38.6</ele>
        <time>2023-08-06T04:41:22Z</time>
      </trkpt>
      <trkpt lat="50.50204" lon="3.068">
        <ele>38.6</ele>
        <time>2023-08-06T04:41:23Z</time>
      </trkpt>
      <trkpt lat="50.50202" lon="3.06803">
        <ele>38.6</ele>
        <time>2023-08-06T04:41:24Z</time>
      </trkpt>
      <trkpt lat="50.502" lon="3.06806">
        <ele>38.6</ele>
        <time>2023-08-06T04:41:25Z</time>
      </trkpt>
      <trkpt lat="50.50198" lon="3.0681">
        <ele>38.6</ele>
        <time>2023-08-06T04:41:26Z</time>
      </trkpt>
      <trkpt lat="50.50197" lon="3.06814">
        <ele>38.4</ele>
        <time>2023-08-06T04:41:27Z</time>
      </trkpt>
      <trkpt lat="50.50194" lon="3.06822">
        <ele>38.2</ele>
        <time>2023-08-06T04:41:29Z</time>
      </trkpt>
      <trkpt lat="50.50192" lon="3.06825">
        <ele>38.2</ele>
        <time>2023-08-06T04:41:30Z</time>
      </trkpt>
      <trkpt lat="50.50192" lon="3.06827">
        <ele>38.2</ele>
        <time>2023-08-06T04:41:31Z</time>
      </trkpt>
      <trkpt lat="50.50192" lon="3.06829">
        <ele>38</ele>
        <time>2023-08-06T04:41:32Z</time>
      </trkpt>
      <trkpt lat="50.50192" lon="3.06832">
        <ele>38</ele>
        <time>2023-08-06T04:41:33Z</time>
      </trkpt>
      <trkpt lat="50.50191" lon="3.06835">
        <ele>38</ele>
        <time>2023-08-06T04:41:34Z</time>
      </trkpt>
      <trkpt lat="50.50191" lon="3.06839">
        <ele>37.8</ele>
        <time>2023-08-06T04:41:35Z</time>
      </trkpt>
      <trkpt lat="50.50191" lon="3.06841">
        <ele>37.8</ele>
        <time>2023-08-06T04:41:36Z</time>
      </trkpt>
      <trkpt lat="50.50192" lon="3.06848">
        <ele>37.8</ele>
        <time>2023-08-06T04:41:38Z</time>
      </trkpt>
      <trkpt lat="50.50191" lon="3.06852">
        <ele>37.6</ele>
        <time>2023-08-06T04:41:39Z</time>
      </trkpt>
      <trkpt lat="50.50189" lon="3.06871">
        <ele>37.6</ele>
        <time>2023-08-06T04:41:44Z</time>
      </trkpt>
      <trkpt lat="50.5019" lon="3.06882">
        <ele>37.4</ele>
        <time>2023-08-06T04:41:47Z</time>
      </trkpt>
      <trkpt lat="50.50189" lon="3.06886">
        <ele>37.4</ele>
        <time>2023-08-06T04:41:48Z</time>
      </trkpt>
      <trkpt lat="50.50187" lon="3.0689">
        <ele>37.4</ele>
        <time>2023-08-06T04:41:49Z</time>
      </trkpt>
      <trkpt lat="50.50186" lon="3.06893">
        <ele>37.4</ele>
        <time>2023-08-06T04:41:50Z</time>
      </trkpt>
      <trkpt lat="50.50185" lon="3.06897">
        <ele>37.4</ele>
        <time>2023-08-06T04:41:52Z</time>
      </trkpt>
      <trkpt lat="50.50184" lon="3.069">
        <ele>37.4</ele>
        <time>2023-08-06T04:41:53Z</time>
      </trkpt>
      <trkpt lat="50.50184" lon="3.06902">
        <ele>37.4</ele>
        <time>2023-08-06T04:41:54Z</time>
      </trkpt>
      <trkpt lat="50.50184" lon="3.06906">
        <ele>37.2</ele>
        <time>2023-08-06T04:41:55Z</time>
      </trkpt>
      <trkpt lat="50.50184" lon="3.06908">
        <ele>37.2</ele>
        <time>2023-08-06T04:41:56Z</time>
      </trkpt>
      <trkpt lat="50.50184" lon="3.06911">
        <ele>37.2</ele>
        <time>2023-08-06T04:41:57Z</time>
      </trkpt>
      <trkpt lat="50.50185" lon="3.06913">
        <ele>37</ele>
        <time>2023-08-06T04:41:58Z</time>
      </trkpt>
      <trkpt lat="50.50184" lon="3.06915">
        <ele>37</ele>
        <time>2023-08-06T04:41:59Z</time>
      </trkpt>
      <trkpt lat="50.50183" lon="3.06917">
        <ele>37</ele>
        <time>2023-08-06T04:42:00Z</time>
      </trkpt>
      <trkpt lat="50.50183" lon="3.0692">
        <ele>37</ele>
        <time>2023-08-06T04:42:01Z</time>
      </trkpt>
      <trkpt lat="50.50183" lon="3.06924">
        <ele>37</ele>
        <time>2023-08-06T04:42:03Z</time>
      </trkpt>
      <trkpt lat="50.50185" lon="3.0693">
        <ele>37</ele>
        <time>2023-08-06T04:42:04Z</time>
      </trkpt>
      <trkpt lat="50.50185" lon="3.0693">
        <ele>37</ele>
        <time>2023-08-06T04:42:05Z</time>
      </trkpt>
      <trkpt lat="50.50185" lon="3.0693">
        <ele>37</ele>
        <time>2023-08-06T04:42:06Z</time>
      </trkpt>
      <trkpt lat="50.50185" lon="3.0693">
        <ele>37</ele>
        <time>2023-08-06T04:42:07Z</time>
      </trkpt>
      <trkpt lat="50.50158" lon="3.06991">
        <ele>36.2</ele>
        <time>2023-08-06T04:43:14Z</time>
      </trkpt>
      <trkpt lat="50.50157" lon="3.06992">
        <ele>36.2</ele>
        <time>2023-08-06T04:43:15Z</time>
      </trkpt>
      <trkpt lat="50.50155" lon="3.06993">
        <ele>36.2</ele>
        <time>2023-08-06T04:43:16Z</time>
      </trkpt>
      <trkpt lat="50.50153" lon="3.06994">
        <ele>36.2</ele>
        <time>2023-08-06T04:43:17Z</time>
      </trkpt>
      <trkpt lat="50.50152" lon="3.06996">
        <ele>36.2</ele>
        <time>2023-08-06T04:43:18Z</time>
      </trkpt>
      <trkpt lat="50.50149" lon="3.06998">
        <ele>36.2</ele>
        <time>2023-08-06T04:43:20Z</time>
      </trkpt>
      <trkpt lat="50.50147" lon="3.07">
        <ele>36.2</ele>
        <time>2023-08-06T04:43:22Z</time>
      </trkpt>
      <trkpt lat="50.50146" lon="3.07001">
        <ele>36.2</ele>
        <time>2023-08-06T04:43:23Z</time>
      </trkpt>
      <trkpt lat="50.50145" lon="3.07003">
        <ele>36.2</ele>
        <time>2023-08-06T04:43:24Z</time>
      </trkpt>
      <trkpt lat="50.50144" lon="3.07005">
        <ele>36.2</ele>
        <time>2023-08-06T04:43:25Z</time>
      </trkpt>
      <trkpt lat="50.50143" lon="3.07007">
        <ele>36</ele>
        <time>2023-08-06T04:43:27Z</time>
      </trkpt>
      <trkpt lat="50.50143" lon="3.07007">
        <ele>36</ele>
        <time>2023-08-06T04:43:28Z</time>
      </trkpt>
      <trkpt lat="50.50141" lon="3.07008">
        <ele>36.2</ele>
        <time>2023-08-06T04:43:30Z</time>
      </trkpt>
      <trkpt lat="50.50138" lon="3.07008">
        <ele>36.2</ele>
        <time>2023-08-06T04:43:31Z</time>
      </trkpt>
      <trkpt lat="50.50138" lon="3.07008">
        <ele>36.2</ele>
        <time>2023-08-06T04:43:32Z</time>
      </trkpt>
      <trkpt lat="50.50137" lon="3.07009">
        <ele>36.2</ele>
        <time>2023-08-06T04:43:33Z</time>
      </trkpt>
      <trkpt lat="50.50126" lon="3.0701">
        <ele>36.2</ele>
        <time>2023-08-06T04:43:38Z</time>
      </trkpt>
      <trkpt lat="50.50116" lon="3.0701">
        <ele>36.2</ele>
        <time>2023-08-06T04:43:43Z</time>
      </trkpt>
      <trkpt lat="50.50113" lon="3.07012">
        <ele>36.2</ele>
        <time>2023-08-06T04:43:44Z</time>
      </trkpt>
      <trkpt lat="50.50107" lon="3.07016">
        <ele>36.2</ele>
        <time>2023-08-06T04:43:47Z</time>
      </trkpt>
      <trkpt lat="50.50107" lon="3.07016">
        <ele>36.2</ele>
        <time>2023-08-06T04:43:48Z</time>
      </trkpt>
      <trkpt lat="50.50103" lon="3.07019">
        <ele>36</ele>
        <time>2023-08-06T04:43:50Z</time>
      </trkpt>
      <trkpt lat="50.50103" lon="3.07019">
        <ele>36</ele>
        <time>2023-08-06T04:43:51Z</time>
      </trkpt>
      <trkpt lat="50.50102" lon="3.07018">
        <ele>36</ele>
        <time>2023-08-06T04:43:52Z</time>
      </trkpt>
      <trkpt lat="50.50102" lon="3.07017">
        <ele>36</ele>
        <time>2023-08-06T04:43:53Z</time>
      </trkpt>
      <trkpt lat="50.50102" lon="3.07016">
        <ele>36</ele>
        <time>2023-08-06T04:43:54Z</time>
      </trkpt>
      <trkpt lat="50.50101" lon="3.07015">
        <ele>35.6</ele>
        <time>2023-08-06T04:43:56Z</time>
      </trkpt>
      <trkpt lat="50.501" lon="3.07014">
        <ele>35.6</ele>
        <time>2023-08-06T04:43:57Z</time>
      </trkpt>
      <trkpt lat="50.50099" lon="3.07013">
        <ele>35.6</ele>
        <time>2023-08-06T04:43:58Z</time>
      </trkpt>
      <trkpt lat="50.50097" lon="3.07013">
        <ele>35.6</ele>
        <time>2023-08-06T04:43:59Z</time>
      </trkpt>
      <trkpt lat="50.50097" lon="3.07014">
        <ele>35.6</ele>
        <time>2023-08-06T04:44:01Z</time>
      </trkpt>
      <trkpt lat="50.50097" lon="3.07014">
        <ele>35.6</ele>
        <time>2023-08-06T04:44:02Z</time>
      </trkpt>
      <trkpt lat="50.50097" lon="3.07014">
        <ele>35.6</ele>
        <time>2023-08-06T04:44:03Z</time>
      </trkpt>
      <trkpt lat="50.5006" lon="3.07039">
        <ele>35</ele>
        <time>2023-08-06T04:44:54Z</time>
      </trkpt>
      <trkpt lat="50.50056" lon="3.07037">
        <ele>35</ele>
        <time>2023-08-06T04:44:56Z</time>
      </trkpt>
      <trkpt lat="50.50056" lon="3.07037">
        <ele>35</ele>
        <time>2023-08-06T04:44:57Z</time>
      </trkpt>
      <trkpt lat="50.50053" lon="3.07033">
        <ele>35.2</ele>
        <time>2023-08-06T04:45:00Z</time>
      </trkpt>
      <trkpt lat="50.50052" lon="3.07032">
        <ele>35.2</ele>
        <time>2023-08-06T04:45:01Z</time>
      </trkpt>
      <trkpt lat="50.5005" lon="3.07031">
        <ele>35.2</ele>
        <time>2023-08-06T04:45:02Z</time>
      </trkpt>
      <trkpt lat="50.50048" lon="3.07028">
        <ele>35.2</ele>
        <time>2023-08-06T04:45:03Z</time>
      </trkpt>
      <trkpt lat="50.50048" lon="3.07028">
        <ele>35.2</ele>
        <time>2023-08-06T04:45:04Z</time>
      </trkpt>
      <trkpt lat="50.50046" lon="3.07027">
        <ele>35.2</ele>
        <time>2023-08-06T04:45:05Z</time>
      </trkpt>
      <trkpt lat="50.50037" lon="3.07021">
        <ele>35.2</ele>
        <time>2023-08-06T04:45:09Z</time>
      </trkpt>
      <trkpt lat="50.50032" lon="3.07019">
        <ele>35.4</ele>
        <time>2023-08-06T04:45:10Z</time>
      </trkpt>
      <trkpt lat="50.50028" lon="3.07017">
        <ele>35.4</ele>
        <time>2023-08-06T04:45:12Z</time>
      </trkpt>
      <trkpt lat="50.50012" lon="3.07011">
        <ele>36</ele>
        <time>2023-08-06T04:45:20Z</time>
      </trkpt>
      <trkpt lat="50.50011" lon="3.07011">
        <ele>36</ele>
        <time>2023-08-06T04:45:21Z</time>
      </trkpt>
      <trkpt lat="50.5001" lon="3.07011">
        <ele>36</ele>
        <time>2023-08-06T04:45:22Z</time>
      </trkpt>
      <trkpt lat="50.5001" lon="3.07009">
        <ele>36</ele>
        <time>2023-08-06T04:45:23Z</time>
      </trkpt>
      <trkpt lat="50.5001" lon="3.07008">
        <ele>36.2</ele>
        <time>2023-08-06T04:45:24Z</time>
      </trkpt>
      <trkpt lat="50.50009" lon="3.07007">
        <ele>36.2</ele>
        <time>2023-08-06T04:45:25Z</time>
      </trkpt>
      <trkpt lat="50.50009" lon="3.07004">
        <ele>36.4</ele>
        <time>2023-08-06T04:45:28Z</time>
      </trkpt>
      <trkpt lat="50.50008" lon="3.07001">
        <ele>36.4</ele>
        <time>2023-08-06T04:45:29Z</time>
      </trkpt>
      <trkpt lat="50.50007" lon="3.07">
        <ele>36.4</ele>
        <time>2023-08-06T04:45:30Z</time>
      </trkpt>
      <trkpt lat="50.50006" lon="3.06999">
        <ele>36.2</ele>
        <time>2023-08-06T04:45:31Z</time>
      </trkpt>
      <trkpt lat="50.50006" lon="3.06999">
        <ele>36.2</ele>
        <time>2023-08-06T04:45:32Z</time>
      </trkpt>
      <trkpt lat="50.50003" lon="3.06996">
        <ele>36</ele>
        <time>2023-08-06T04:45:33Z</time>
      </trkpt>
      <trkpt lat="50.5" lon="3.06995">
        <ele>36</ele>
        <time>2023-08-06T04:45:35Z</time>
      </trkpt>
      <trkpt lat="50.49999" lon="3.06994">
        <ele>36</ele>
        <time>2023-08-06T04:45:36Z</time>
      </trkpt>
      <trkpt lat="50.49999" lon="3.06994">
        <ele>35.8</ele>
        <time>2023-08-06T04:45:37Z</time>
      </trkpt>
      <trkpt lat="50.5" lon="3.06995">
        <ele>35.8</ele>
        <time>2023-08-06T04:45:38Z</time>
      </trkpt>
      <trkpt lat="50.5" lon="3.06998">
        <ele>36</ele>
        <time>2023-08-06T04:45:40Z</time>
      </trkpt>
      <trkpt lat="50.5" lon="3.06999">
        <ele>36</ele>
        <time>2023-08-06T04:45:41Z</time>
      </trkpt>
      <trkpt lat="50.50001" lon="3.07002">
        <ele>36</ele>
        <time>2023-08-06T04:45:43Z</time>
      </trkpt>
      <trkpt lat="50.50001" lon="3.07003">
        <ele>36</ele>
        <time>2023-08-06T04:45:44Z</time>
      </trkpt>
      <trkpt lat="50.50002" lon="3.07004">
        <ele>36</ele>
        <time>2023-08-06T04:45:45Z</time>
      </trkpt>
      <trkpt lat="50.50002" lon="3.07005">
        <ele>36.2</ele>
        <time>2023-08-06T04:45:47Z</time>
      </trkpt>
      <trkpt lat="50.50002" lon="3.07007">
        <ele>36.2</ele>
        <time>2023-08-06T04:45:48Z</time>
      </trkpt>
      <trkpt lat="50.50003" lon="3.0701">
        <ele>36.2</ele>
        <time>2023-08-06T04:45:51Z</time>
      </trkpt>
      <trkpt lat="50.50003" lon="3.0701">
        <ele>36.2</ele>
        <time>2023-08-06T04:45:52Z</time>
      </trkpt>
      <trkpt lat="50.49985" lon="3.07066">
        <ele>36</ele>
        <time>2023-08-06T04:46:38Z</time>
      </trkpt>
      <trkpt lat="50.49984" lon="3.07069">
        <ele>36</ele>
        <time>2023-08-06T04:46:39Z</time>
      </trkpt>
      <trkpt lat="50.49979" lon="3.07074">
        <ele>36</ele>
        <time>2023-08-06T04:46:42Z</time>
      </trkpt>
      <trkpt lat="50.49978" lon="3.07076">
        <ele>36</ele>
        <time>2023-08-06T04:46:44Z</time>
      </trkpt>
      <trkpt lat="50.49976" lon="3.07078">
        <ele>36</ele>
        <time>2023-08-06T04:46:45Z</time>
      </trkpt>
      <trkpt lat="50.49976" lon="3.07082">
        <ele>36.2</ele>
        <time>2023-08-06T04:46:46Z</time>
      </trkpt>
      <trkpt lat="50.49975" lon="3.07083">
        <ele>36.2</ele>
        <time>2023-08-06T04:46:47Z</time>
      </trkpt>
      <trkpt lat="50.49975" lon="3.07085">
        <ele>36.2</ele>
        <time>2023-08-06T04:46:48Z</time>
      </trkpt>
      <trkpt lat="50.49975" lon="3.07085">
        <ele>36.2</ele>
        <time>2023-08-06T04:46:49Z</time>
      </trkpt>
      <trkpt lat="50.49972" lon="3.07092">
        <ele>36.2</ele>
        <time>2023-08-06T04:46:51Z</time>
      </trkpt>
      <trkpt lat="50.49971" lon="3.07094">
        <ele>36.2</ele>
        <time>2023-08-06T04:46:52Z</time>
      </trkpt>
      <trkpt lat="50.49968" lon="3.071">
        <ele>36</ele>
        <time>2023-08-06T04:46:55Z</time>
      </trkpt>
      <trkpt lat="50.49966" lon="3.07103">
        <ele>36</ele>
        <time>2023-08-06T04:46:57Z</time>
      </trkpt>
      <trkpt lat="50.49964" lon="3.07104">
        <ele>36</ele>
        <time>2023-08-06T04:46:59Z</time>
      </trkpt>
      <trkpt lat="50.49961" lon="3.07106">
        <ele>36</ele>
        <time>2023-08-06T04:47:01Z</time>
      </trkpt>
      <trkpt lat="50.4996" lon="3.07107">
        <ele>36</ele>
        <time>2023-08-06T04:47:02Z</time>
      </trkpt>
      <trkpt lat="50.49958" lon="3.07107">
        <ele>35.8</ele>
        <time>2023-08-06T04:47:03Z</time>
      </trkpt>
      <trkpt lat="50.49957" lon="3.07107">
        <ele>36</ele>
        <time>2023-08-06T04:47:04Z</time>
      </trkpt>
      <trkpt lat="50.49956" lon="3.07107">
        <ele>36</ele>
        <time>2023-08-06T04:47:05Z</time>
      </trkpt>
      <trkpt lat="50.49955" lon="3.07108">
        <ele>36</ele>
        <time>2023-08-06T04:47:06Z</time>
      </trkpt>
      <trkpt lat="50.49954" lon="3.07108">
        <ele>35.8</ele>
        <time>2023-08-06T04:47:07Z</time>
      </trkpt>
      <trkpt lat="50.49954" lon="3.07108">
        <ele>35.8</ele>
        <time>2023-08-06T04:47:08Z</time>
      </trkpt>
      <trkpt lat="50.4995" lon="3.07109">
        <ele>36</ele>
        <time>2023-08-06T04:47:09Z</time>
      </trkpt>
      <trkpt lat="50.49947" lon="3.0711">
        <ele>36.2</ele>
        <time>2023-08-06T04:47:13Z</time>
      </trkpt>
      <trkpt lat="50.49947" lon="3.0711">
        <ele>36</ele>
        <time>2023-08-06T04:47:14Z</time>
      </trkpt>
      <trkpt lat="50.49944" lon="3.0711">
        <ele>36</ele>
        <time>2023-08-06T04:47:15Z</time>
      </trkpt>
      <trkpt lat="50.49942" lon="3.0711">
        <ele>36</ele>
        <time>2023-08-06T04:47:16Z</time>
      </trkpt>
      <trkpt lat="50.49939" lon="3.07109">
        <ele>36.2</ele>
        <time>2023-08-06T04:47:18Z</time>
      </trkpt>
      <trkpt lat="50.49933" lon="3.07108">
        <ele>36.2</ele>
        <time>2023-08-06T04:47:21Z</time>
      </trkpt>
      <trkpt lat="50.49932" lon="3.07108">
        <ele>36</ele>
        <time>2023-08-06T04:47:22Z</time>
      </trkpt>
      <trkpt lat="50.4993" lon="3.07108">
        <ele>36</ele>
        <time>2023-08-06T04:47:23Z</time>
      </trkpt>
      <trkpt lat="50.4993" lon="3.07109">
        <ele>36</ele>
        <time>2023-08-06T04:47:25Z</time>
      </trkpt>
      <trkpt lat="50.49929" lon="3.07109">
        <ele>36</ele>
        <time>2023-08-06T04:47:26Z</time>
      </trkpt>
      <trkpt lat="50.49929" lon="3.07109">
        <ele>36</ele>
        <time>2023-08-06T04:47:27Z</time>
      </trkpt>
      <trkpt lat="50.49928" lon="3.07109">
        <ele>36</ele>
        <time>2023-08-06T04:47:28Z</time>
      </trkpt>
      <trkpt lat="50.49928" lon="3.07109">
        <ele>36</ele>
        <time>2023-08-06T04:47:29Z</time>
      </trkpt>
      <trkpt lat="50.4992" lon="3.07108">
        <ele>36.4</ele>
        <time>2023-08-06T04:47:48Z</time>
      </trkpt>
      <trkpt lat="50.49915" lon="3.07111">
        <ele>36.6</ele>
        <time>2023-08-06T04:47:51Z</time>
      </trkpt>
      <trkpt lat="50.49913" lon="3.07111">
        <ele>36.6</ele>
        <time>2023-08-06T04:47:52Z</time>
      </trkpt>
      <trkpt lat="50.49908" lon="3.07112">
        <ele>36.8</ele>
        <time>2023-08-06T04:47:57Z</time>
      </trkpt>
      <trkpt lat="50.49905" lon="3.07113">
        <ele>36.8</ele>
        <time>2023-08-06T04:47:58Z</time>
      </trkpt>
      <trkpt lat="50.49902" lon="3.07113">
        <ele>36.8</ele>
        <time>2023-08-06T04:47:59Z</time>
      </trkpt>
      <trkpt lat="50.49902" lon="3.07113">
        <ele>36.8</ele>
        <time>2023-08-06T04:48:00Z</time>
      </trkpt>
      <trkpt lat="50.49895" lon="3.07116">
        <ele>36.8</ele>
        <time>2023-08-06T04:48:02Z</time>
      </trkpt>
      <trkpt lat="50.49893" lon="3.07118">
        <ele>36.8</ele>
        <time>2023-08-06T04:48:03Z</time>
      </trkpt>
      <trkpt lat="50.4989" lon="3.0712">
        <ele>36.6</ele>
        <time>2023-08-06T04:48:04Z</time>
      </trkpt>
      <trkpt lat="50.49879" lon="3.07125">
        <ele>36.6</ele>
        <time>2023-08-06T04:48:08Z</time>
      </trkpt>
      <trkpt lat="50.49867" lon="3.07133">
        <ele>36.6</ele>
        <time>2023-08-06T04:48:13Z</time>
      </trkpt>
      <trkpt lat="50.49864" lon="3.07133">
        <ele>36.4</ele>
        <time>2023-08-06T04:48:14Z</time>
      </trkpt>
      <trkpt lat="50.49862" lon="3.07132">
        <ele>36.4</ele>
        <time>2023-08-06T04:48:15Z</time>
      </trkpt>
      <trkpt lat="50.4986" lon="3.07132">
        <ele>36.4</ele>
        <time>2023-08-06T04:48:16Z</time>
      </trkpt>
      <trkpt lat="50.49858" lon="3.07131">
        <ele>36.4</ele>
        <time>2023-08-06T04:48:17Z</time>
      </trkpt>
      <trkpt lat="50.49858" lon="3.07129">
        <ele>36.4</ele>
        <time>2023-08-06T04:48:18Z</time>
      </trkpt>
      <trkpt lat="50.49857" lon="3.07129">
        <ele>36.4</ele>
        <time>2023-08-06T04:48:20Z</time>
      </trkpt>
      <trkpt lat="50.49857" lon="3.07129">
        <ele>36.4</ele>
        <time>2023-08-06T04:48:21Z</time>
      </trkpt>
      <trkpt lat="50.49857" lon="3.07127">
        <ele>36.4</ele>
        <time>2023-08-06T04:48:22Z</time>
      </trkpt>
      <trkpt lat="50.49856" lon="3.07125">
        <ele>36.4</ele>
        <time>2023-08-06T04:48:23Z</time>
      </trkpt>
      <trkpt lat="50.49856" lon="3.07124">
        <ele>36.4</ele>
        <time>2023-08-06T04:48:24Z</time>
      </trkpt>
      <trkpt lat="50.49856" lon="3.07124">
        <ele>36.4</ele>
        <time>2023-08-06T04:48:25Z</time>
      </trkpt>
      <trkpt lat="50.49856" lon="3.07124">
        <ele>36.4</ele>
        <time>2023-08-06T04:48:26Z</time>
      </trkpt>
      <trkpt lat="50.49856" lon="3.07124">
        <ele>36.4</ele>
        <time>2023-08-06T04:48:27Z</time>
      </trkpt>
      <trkpt lat="50.49849" lon="3.07118">
        <ele>36.6</ele>
        <time>2023-08-06T04:48:28Z</time>
      </trkpt>
      <trkpt lat="50.49847" lon="3.07115">
        <ele>36.6</ele>
        <time>2023-08-06T04:48:29Z</time>
      </trkpt>
      <trkpt lat="50.49847" lon="3.07115">
        <ele>36.6</ele>
        <time>2023-08-06T04:48:30Z</time>
      </trkpt>
      <trkpt lat="50.49843" lon="3.07106">
        <ele>36.6</ele>
        <time>2023-08-06T04:48:31Z</time>
      </trkpt>
      <trkpt lat="50.49842" lon="3.07104">
        <ele>36.6</ele>
        <time>2023-08-06T04:48:32Z</time>
      </trkpt>
      <trkpt lat="50.49841" lon="3.07102">
        <ele>36.6</ele>
        <time>2023-08-06T04:48:33Z</time>
      </trkpt>
      <trkpt lat="50.49839" lon="3.071">
        <ele>36.6</ele>
        <time>2023-08-06T04:48:34Z</time>
      </trkpt>
      <trkpt lat="50.49839" lon="3.07099">
        <ele>36.6</ele>
        <time>2023-08-06T04:48:35Z</time>
      </trkpt>
      <trkpt lat="50.49837" lon="3.07093">
        <ele>36.6</ele>
        <time>2023-08-06T04:48:37Z</time>
      </trkpt>
      <trkpt lat="50.49835" lon="3.0709">
        <ele>36.6</ele>
        <time>2023-08-06T04:48:38Z</time>
      </trkpt>
      <trkpt lat="50.49827" lon="3.07084">
        <ele>36.6</ele>
        <time>2023-08-06T04:48:41Z</time>
      </trkpt>
      <trkpt lat="50.49824" lon="3.0708">
        <ele>36.6</ele>
        <time>2023-08-06T04:48:43Z</time>
      </trkpt>
      <trkpt lat="50.49821" lon="3.07078">
        <ele>36.6</ele>
        <time>2023-08-06T04:48:44Z</time>
      </trkpt>
      <trkpt lat="50.49817" lon="3.07074">
        <ele>36.6</ele>
        <time>2023-08-06T04:48:46Z</time>
      </trkpt>
      <trkpt lat="50.49815" lon="3.07073">
        <ele>36.6</ele>
        <time>2023-08-06T04:48:47Z</time>
      </trkpt>
      <trkpt lat="50.49814" lon="3.07072">
        <ele>36.6</ele>
        <time>2023-08-06T04:48:48Z</time>
      </trkpt>
      <trkpt lat="50.49813" lon="3.0707">
        <ele>36.6</ele>
        <time>2023-08-06T04:48:49Z</time>
      </trkpt>
      <trkpt lat="50.49812" lon="3.07066">
        <ele>36.6</ele>
        <time>2023-08-06T04:48:51Z</time>
      </trkpt>
      <trkpt lat="50.4981" lon="3.07064">
        <ele>36.6</ele>
        <time>2023-08-06T04:48:52Z</time>
      </trkpt>
      <trkpt lat="50.49808" lon="3.07061">
        <ele>36.6</ele>
        <time>2023-08-06T04:48:53Z</time>
      </trkpt>
      <trkpt lat="50.49806" lon="3.07059">
        <ele>36.6</ele>
        <time>2023-08-06T04:48:54Z</time>
      </trkpt>
      <trkpt lat="50.49804" lon="3.07056">
        <ele>36.6</ele>
        <time>2023-08-06T04:48:55Z</time>
      </trkpt>
      <trkpt lat="50.49801" lon="3.07054">
        <ele>36.6</ele>
        <time>2023-08-06T04:48:56Z</time>
      </trkpt>
      <trkpt lat="50.498" lon="3.07052">
        <ele>36.6</ele>
        <time>2023-08-06T04:48:57Z</time>
      </trkpt>
      <trkpt lat="50.49799" lon="3.07048">
        <ele>36.6</ele>
        <time>2023-08-06T04:48:58Z</time>
      </trkpt>
      <trkpt lat="50.49798" lon="3.07045">
        <ele>36.8</ele>
        <time>2023-08-06T04:48:59Z</time>
      </trkpt>
      <trkpt lat="50.49796" lon="3.07043">
        <ele>36.8</ele>
        <time>2023-08-06T04:49:00Z</time>
      </trkpt>
      <trkpt lat="50.49795" lon="3.07041">
        <ele>36.8</ele>
        <time>2023-08-06T04:49:01Z</time>
      </trkpt>
      <trkpt lat="50.49785" lon="3.0703">
        <ele>37</ele>
        <time>2023-08-06T04:49:06Z</time>
      </trkpt>
      <trkpt lat="50.49785" lon="3.07028">
        <ele>37</ele>
        <time>2023-08-06T04:49:07Z</time>
      </trkpt>
      <trkpt lat="50.49784" lon="3.07027">
        <ele>37.2</ele>
        <time>2023-08-06T04:49:08Z</time>
      </trkpt>
      <trkpt lat="50.49782" lon="3.07025">
        <ele>37.2</ele>
        <time>2023-08-06T04:49:09Z</time>
      </trkpt>
      <trkpt lat="50.49781" lon="3.07024">
        <ele>37.2</ele>
        <time>2023-08-06T04:49:10Z</time>
      </trkpt>
      <trkpt lat="50.4978" lon="3.07022">
        <ele>37.2</ele>
        <time>2023-08-06T04:49:11Z</time>
      </trkpt>
      <trkpt lat="50.49778" lon="3.07021">
        <ele>37.2</ele>
        <time>2023-08-06T04:49:12Z</time>
      </trkpt>
      <trkpt lat="50.49777" lon="3.0702">
        <ele>37.4</ele>
        <time>2023-08-06T04:49:13Z</time>
      </trkpt>
      <trkpt lat="50.49774" lon="3.07018">
        <ele>37.4</ele>
        <time>2023-08-06T04:49:15Z</time>
      </trkpt>
      <trkpt lat="50.49772" lon="3.07017">
        <ele>37.4</ele>
        <time>2023-08-06T04:49:16Z</time>
      </trkpt>
      <trkpt lat="50.49771" lon="3.07016">
        <ele>37.4</ele>
        <time>2023-08-06T04:49:17Z</time>
      </trkpt>
      <trkpt lat="50.4977" lon="3.07016">
        <ele>37.4</ele>
        <time>2023-08-06T04:49:18Z</time>
      </trkpt>
      <trkpt lat="50.4977" lon="3.07014">
        <ele>37.4</ele>
        <time>2023-08-06T04:49:19Z</time>
      </trkpt>
      <trkpt lat="50.49766" lon="3.0701">
        <ele>37.4</ele>
        <time>2023-08-06T04:49:22Z</time>
      </trkpt>
      <trkpt lat="50.49764" lon="3.07009">
        <ele>37.4</ele>
        <time>2023-08-06T04:49:23Z</time>
      </trkpt>
      <trkpt lat="50.49763" lon="3.07008">
        <ele>37.4</ele>
        <time>2023-08-06T04:49:24Z</time>
      </trkpt>
      <trkpt lat="50.49762" lon="3.07006">
        <ele>37.4</ele>
        <time>2023-08-06T04:49:25Z</time>
      </trkpt>
      <trkpt lat="50.4976" lon="3.07005">
        <ele>37.4</ele>
        <time>2023-08-06T04:49:26Z</time>
      </trkpt>
      <trkpt lat="50.49758" lon="3.07004">
        <ele>37.4</ele>
        <time>2023-08-06T04:49:27Z</time>
      </trkpt>
      <trkpt lat="50.49755" lon="3.07003">
        <ele>37.6</ele>
        <time>2023-08-06T04:49:29Z</time>
      </trkpt>
      <trkpt lat="50.49752" lon="3.07">
        <ele>37.6</ele>
        <time>2023-08-06T04:49:31Z</time>
      </trkpt>
      <trkpt lat="50.49748" lon="3.06995">
        <ele>37.4</ele>
        <time>2023-08-06T04:49:34Z</time>
      </trkpt>
      <trkpt lat="50.49746" lon="3.06994">
        <ele>37.4</ele>
        <time>2023-08-06T04:49:35Z</time>
      </trkpt>
      <trkpt lat="50.49745" lon="3.06994">
        <ele>37.4</ele>
        <time>2023-08-06T04:49:36Z</time>
      </trkpt>
      <trkpt lat="50.4974" lon="3.06993">
        <ele>37.4</ele>
        <time>2023-08-06T04:49:38Z</time>
      </trkpt>
      <trkpt lat="50.49739" lon="3.06993">
        <ele>37.4</ele>
        <time>2023-08-06T04:49:39Z</time>
      </trkpt>
      <trkpt lat="50.49736" lon="3.06993">
        <ele>37.4</ele>
        <time>2023-08-06T04:49:40Z</time>
      </trkpt>
      <trkpt lat="50.49732" lon="3.06992">
        <ele>37.4</ele>
        <time>2023-08-06T04:49:41Z</time>
      </trkpt>
      <trkpt lat="50.4973" lon="3.06993">
        <ele>37.4</ele>
        <time>2023-08-06T04:49:42Z</time>
      </trkpt>
      <trkpt lat="50.49724" lon="3.0699">
        <ele>37.6</ele>
        <time>2023-08-06T04:49:44Z</time>
      </trkpt>
      <trkpt lat="50.4972" lon="3.06989">
        <ele>37.8</ele>
        <time>2023-08-06T04:49:46Z</time>
      </trkpt>
      <trkpt lat="50.49717" lon="3.06991">
        <ele>37.8</ele>
        <time>2023-08-06T04:49:47Z</time>
      </trkpt>
      <trkpt lat="50.49714" lon="3.06994">
        <ele>37.8</ele>
        <time>2023-08-06T04:49:48Z</time>
      </trkpt>
      <trkpt lat="50.49706" lon="3.06995">
        <ele>38.2</ele>
        <time>2023-08-06T04:49:52Z</time>
      </trkpt>
      <trkpt lat="50.49701" lon="3.06997">
        <ele>38.2</ele>
        <time>2023-08-06T04:49:53Z</time>
      </trkpt>
      <trkpt lat="50.49697" lon="3.06997">
        <ele>38.2</ele>
        <time>2023-08-06T04:49:54Z</time>
      </trkpt>
      <trkpt lat="50.49694" lon="3.06997">
        <ele>38.2</ele>
        <time>2023-08-06T04:49:55Z</time>
      </trkpt>
      <trkpt lat="50.49691" lon="3.06998">
        <ele>38.2</ele>
        <time>2023-08-06T04:49:56Z</time>
      </trkpt>
      <trkpt lat="50.49687" lon="3.06999">
        <ele>38.4</ele>
        <time>2023-08-06T04:49:58Z</time>
      </trkpt>
      <trkpt lat="50.49684" lon="3.07">
        <ele>38.4</ele>
        <time>2023-08-06T04:50:00Z</time>
      </trkpt>
      <trkpt lat="50.49684" lon="3.07">
        <ele>38.4</ele>
        <time>2023-08-06T04:50:01Z</time>
      </trkpt>
      <trkpt lat="50.49681" lon="3.06998">
        <ele>38.4</ele>
        <time>2023-08-06T04:50:02Z</time>
      </trkpt>
      <trkpt lat="50.49679" lon="3.06997">
        <ele>38.4</ele>
        <time>2023-08-06T04:50:03Z</time>
      </trkpt>
      <trkpt lat="50.49677" lon="3.06998">
        <ele>38.4</ele>
        <time>2023-08-06T04:50:04Z</time>
      </trkpt>
      <trkpt lat="50.49674" lon="3.07">
        <ele>38.4</ele>
        <time>2023-08-06T04:50:05Z</time>
      </trkpt>
      <trkpt lat="50.49672" lon="3.07003">
        <ele>38.4</ele>
        <time>2023-08-06T04:50:06Z</time>
      </trkpt>
      <trkpt lat="50.49672" lon="3.07006">
        <ele>38.6</ele>
        <time>2023-08-06T04:50:07Z</time>
      </trkpt>
      <trkpt lat="50.4967" lon="3.07009">
        <ele>38.6</ele>
        <time>2023-08-06T04:50:08Z</time>
      </trkpt>
      <trkpt lat="50.49669" lon="3.07011">
        <ele>38.6</ele>
        <time>2023-08-06T04:50:09Z</time>
      </trkpt>
      <trkpt lat="50.49667" lon="3.07013">
        <ele>38.6</ele>
        <time>2023-08-06T04:50:10Z</time>
      </trkpt>
      <trkpt lat="50.49666" lon="3.07015">
        <ele>38.6</ele>
        <time>2023-08-06T04:50:11Z</time>
      </trkpt>
      <trkpt lat="50.49664" lon="3.07016">
        <ele>38.6</ele>
        <time>2023-08-06T04:50:12Z</time>
      </trkpt>
      <trkpt lat="50.49661" lon="3.07018">
        <ele>38.6</ele>
        <time>2023-08-06T04:50:13Z</time>
      </trkpt>
      <trkpt lat="50.49659" lon="3.07019">
        <ele>38.6</ele>
        <time>2023-08-06T04:50:14Z</time>
      </trkpt>
      <trkpt lat="50.49657" lon="3.07022">
        <ele>38.6</ele>
        <time>2023-08-06T04:50:15Z</time>
      </trkpt>
      <trkpt lat="50.49656" lon="3.07027">
        <ele>38.6</ele>
        <time>2023-08-06T04:50:17Z</time>
      </trkpt>
      <trkpt lat="50.49654" lon="3.07031">
        <ele>38.6</ele>
        <time>2023-08-06T04:50:18Z</time>
      </trkpt>
      <trkpt lat="50.49653" lon="3.07035">
        <ele>38.6</ele>
        <time>2023-08-06T04:50:19Z</time>
      </trkpt>
      <trkpt lat="50.49651" lon="3.07039">
        <ele>38.4</ele>
        <time>2023-08-06T04:50:20Z</time>
      </trkpt>
      <trkpt lat="50.49644" lon="3.0705">
        <ele>38.4</ele>
        <time>2023-08-06T04:50:23Z</time>
      </trkpt>
      <trkpt lat="50.49631" lon="3.07064">
        <ele>38</ele>
        <time>2023-08-06T04:50:27Z</time>
      </trkpt>
      <trkpt lat="50.49627" lon="3.07067">
        <ele>38</ele>
        <time>2023-08-06T04:50:28Z</time>
      </trkpt>
      <trkpt lat="50.49623" lon="3.07071">
        <ele>37.8</ele>
        <time>2023-08-06T04:50:29Z</time>
      </trkpt>
      <trkpt lat="50.49602" lon="3.07087">
        <ele>37.6</ele>
        <time>2023-08-06T04:50:35Z</time>
      </trkpt>
      <trkpt lat="50.49591" lon="3.07094">
        <ele>37.2</ele>
        <time>2023-08-06T04:50:38Z</time>
      </trkpt>
      <trkpt lat="50.49572" lon="3.07112">
        <ele>37.2</ele>
        <time>2023-08-06T04:50:44Z</time>
      </trkpt>
      <trkpt lat="50.49545" lon="3.07145">
        <ele>37.4</ele>
        <time>2023-08-06T04:50:53Z</time>
      </trkpt>
      <trkpt lat="50.49516" lon="3.07177">
        <ele>37.6</ele>
        <time>2023-08-06T04:51:01Z</time>
      </trkpt>
      <trkpt lat="50.49506" lon="3.07183">
        <ele>37.6</ele>
        <time>2023-08-06T04:51:04Z</time>
      </trkpt>
      <trkpt lat="50.49493" lon="3.07187">
        <ele>37.6</ele>
        <time>2023-08-06T04:51:07Z</time>
      </trkpt>
      <trkpt lat="50.49439" lon="3.07207">
        <ele>37.4</ele>
        <time>2023-08-06T04:51:19Z</time>
      </trkpt>
      <trkpt lat="50.49402" lon="3.07238">
        <ele>37.2</ele>
        <time>2023-08-06T04:51:27Z</time>
      </trkpt>
      <trkpt lat="50.49371" lon="3.0728">
        <ele>37</ele>
        <time>2023-08-06T04:51:34Z</time>
      </trkpt>
      <trkpt lat="50.4936" lon="3.0729">
        <ele>36.8</ele>
        <time>2023-08-06T04:51:36Z</time>
      </trkpt>
      <trkpt lat="50.49348" lon="3.07298">
        <ele>36.6</ele>
        <time>2023-08-06T04:51:38Z</time>
      </trkpt>
      <trkpt lat="50.49342" lon="3.07299">
        <ele>36.6</ele>
        <time>2023-08-06T04:51:39Z</time>
      </trkpt>
      <trkpt lat="50.49336" lon="3.073">
        <ele>36.4</ele>
        <time>2023-08-06T04:51:40Z</time>
      </trkpt>
      <trkpt lat="50.49318" lon="3.07298">
        <ele>36.2</ele>
        <time>2023-08-06T04:51:43Z</time>
      </trkpt>
      <trkpt lat="50.49311" lon="3.07297">
        <ele>36.2</ele>
        <time>2023-08-06T04:51:44Z</time>
      </trkpt>
      <trkpt lat="50.49294" lon="3.07298">
        <ele>36.2</ele>
        <time>2023-08-06T04:51:47Z</time>
      </trkpt>
      <trkpt lat="50.49288" lon="3.073">
        <ele>36.2</ele>
        <time>2023-08-06T04:51:48Z</time>
      </trkpt>
      <trkpt lat="50.49283" lon="3.07303">
        <ele>36.2</ele>
        <time>2023-08-06T04:51:49Z</time>
      </trkpt>
      <trkpt lat="50.49278" lon="3.07308">
        <ele>36.2</ele>
        <time>2023-08-06T04:51:50Z</time>
      </trkpt>
      <trkpt lat="50.49274" lon="3.07315">
        <ele>36.4</ele>
        <time>2023-08-06T04:51:51Z</time>
      </trkpt>
      <trkpt lat="50.49271" lon="3.07324">
        <ele>36.4</ele>
        <time>2023-08-06T04:51:52Z</time>
      </trkpt>
      <trkpt lat="50.4927" lon="3.07333">
        <ele>36.4</ele>
        <time>2023-08-06T04:51:53Z</time>
      </trkpt>
      <trkpt lat="50.4927" lon="3.07361">
        <ele>36.2</ele>
        <time>2023-08-06T04:51:56Z</time>
      </trkpt>
      <trkpt lat="50.4927" lon="3.0737">
        <ele>36.2</ele>
        <time>2023-08-06T04:51:57Z</time>
      </trkpt>
      <trkpt lat="50.49266" lon="3.07426">
        <ele>36.2</ele>
        <time>2023-08-06T04:52:03Z</time>
      </trkpt>
      <trkpt lat="50.49264" lon="3.07436">
        <ele>36.2</ele>
        <time>2023-08-06T04:52:04Z</time>
      </trkpt>
      <trkpt lat="50.49262" lon="3.07446">
        <ele>36.2</ele>
        <time>2023-08-06T04:52:05Z</time>
      </trkpt>
      <trkpt lat="50.49257" lon="3.07463">
        <ele>36.2</ele>
        <time>2023-08-06T04:52:07Z</time>
      </trkpt>
      <trkpt lat="50.49253" lon="3.07471">
        <ele>36.2</ele>
        <time>2023-08-06T04:52:08Z</time>
      </trkpt>
      <trkpt lat="50.49249" lon="3.07477">
        <ele>36.2</ele>
        <time>2023-08-06T04:52:09Z</time>
      </trkpt>
      <trkpt lat="50.49244" lon="3.07483">
        <ele>36</ele>
        <time>2023-08-06T04:52:11Z</time>
      </trkpt>
      <trkpt lat="50.49234" lon="3.07492">
        <ele>36.2</ele>
        <time>2023-08-06T04:52:12Z</time>
      </trkpt>
      <trkpt lat="50.4923" lon="3.07497">
        <ele>36.2</ele>
        <time>2023-08-06T04:52:13Z</time>
      </trkpt>
      <trkpt lat="50.4923" lon="3.07497">
        <ele>36.2</ele>
        <time>2023-08-06T04:52:14Z</time>
      </trkpt>
      <trkpt lat="50.49221" lon="3.07509">
        <ele>36.2</ele>
        <time>2023-08-06T04:52:15Z</time>
      </trkpt>
      <trkpt lat="50.49217" lon="3.07514">
        <ele>36.2</ele>
        <time>2023-08-06T04:52:16Z</time>
      </trkpt>
      <trkpt lat="50.49212" lon="3.0752">
        <ele>36.2</ele>
        <time>2023-08-06T04:52:17Z</time>
      </trkpt>
      <trkpt lat="50.49208" lon="3.07526">
        <ele>36.4</ele>
        <time>2023-08-06T04:52:18Z</time>
      </trkpt>
      <trkpt lat="50.49204" lon="3.07532">
        <ele>36.4</ele>
        <time>2023-08-06T04:52:19Z</time>
      </trkpt>
      <trkpt lat="50.49199" lon="3.07538">
        <ele>36.4</ele>
        <time>2023-08-06T04:52:20Z</time>
      </trkpt>
      <trkpt lat="50.49191" lon="3.0755">
        <ele>36.8</ele>
        <time>2023-08-06T04:52:22Z</time>
      </trkpt>
      <trkpt lat="50.49162" lon="3.07592">
        <ele>36.8</ele>
        <time>2023-08-06T04:52:29Z</time>
      </trkpt>
      <trkpt lat="50.49131" lon="3.07642">
        <ele>36.8</ele>
        <time>2023-08-06T04:52:37Z</time>
      </trkpt>
      <trkpt lat="50.49102" lon="3.07699">
        <ele>36.6</ele>
        <time>2023-08-06T04:52:45Z</time>
      </trkpt>
      <trkpt lat="50.49078" lon="3.07766">
        <ele>36.6</ele>
        <time>2023-08-06T04:52:53Z</time>
      </trkpt>
      <trkpt lat="50.49064" lon="3.07808">
        <ele>37</ele>
        <time>2023-08-06T04:52:58Z</time>
      </trkpt>
      <trkpt lat="50.49062" lon="3.07817">
        <ele>37.2</ele>
        <time>2023-08-06T04:52:59Z</time>
      </trkpt>
      <trkpt lat="50.49057" lon="3.07872">
        <ele>37.8</ele>
        <time>2023-08-06T04:53:05Z</time>
      </trkpt>
      <trkpt lat="50.49056" lon="3.0788">
        <ele>38</ele>
        <time>2023-08-06T04:53:06Z</time>
      </trkpt>
      <trkpt lat="50.49055" lon="3.0789">
        <ele>38.2</ele>
        <time>2023-08-06T04:53:07Z</time>
      </trkpt>
      <trkpt lat="50.49052" lon="3.07907">
        <ele>38.4</ele>
        <time>2023-08-06T04:53:09Z</time>
      </trkpt>
      <trkpt lat="50.49051" lon="3.07916">
        <ele>38.6</ele>
        <time>2023-08-06T04:53:10Z</time>
      </trkpt>
      <trkpt lat="50.4905" lon="3.07924">
        <ele>38.6</ele>
        <time>2023-08-06T04:53:11Z</time>
      </trkpt>
      <trkpt lat="50.49046" lon="3.0795">
        <ele>39</ele>
        <time>2023-08-06T04:53:14Z</time>
      </trkpt>
      <trkpt lat="50.49047" lon="3.07968">
        <ele>39</ele>
        <time>2023-08-06T04:53:16Z</time>
      </trkpt>
      <trkpt lat="50.49049" lon="3.07976">
        <ele>39</ele>
        <time>2023-08-06T04:53:17Z</time>
      </trkpt>
      <trkpt lat="50.4905" lon="3.07984">
        <ele>39</ele>
        <time>2023-08-06T04:53:18Z</time>
      </trkpt>
      <trkpt lat="50.49059" lon="3.08017">
        <ele>39</ele>
        <time>2023-08-06T04:53:22Z</time>
      </trkpt>
      <trkpt lat="50.49061" lon="3.08026">
        <ele>39.2</ele>
        <time>2023-08-06T04:53:23Z</time>
      </trkpt>
      <trkpt lat="50.49067" lon="3.0805">
        <ele>39.4</ele>
        <time>2023-08-06T04:53:26Z</time>
      </trkpt>
      <trkpt lat="50.49068" lon="3.08059">
        <ele>39.4</ele>
        <time>2023-08-06T04:53:27Z</time>
      </trkpt>
      <trkpt lat="50.49073" lon="3.08093">
        <ele>39.4</ele>
        <time>2023-08-06T04:53:31Z</time>
      </trkpt>
      <trkpt lat="50.49075" lon="3.08109">
        <ele>39.6</ele>
        <time>2023-08-06T04:53:33Z</time>
      </trkpt>
      <trkpt lat="50.49075" lon="3.08118">
        <ele>39.6</ele>
        <time>2023-08-06T04:53:34Z</time>
      </trkpt>
      <trkpt lat="50.49074" lon="3.08126">
        <ele>39.6</ele>
        <time>2023-08-06T04:53:35Z</time>
      </trkpt>
      <trkpt lat="50.49071" lon="3.08142">
        <ele>39.6</ele>
        <time>2023-08-06T04:53:37Z</time>
      </trkpt>
      <trkpt lat="50.49068" lon="3.0815">
        <ele>39.6</ele>
        <time>2023-08-06T04:53:38Z</time>
      </trkpt>
      <trkpt lat="50.49064" lon="3.08157">
        <ele>39.6</ele>
        <time>2023-08-06T04:53:39Z</time>
      </trkpt>
      <trkpt lat="50.49061" lon="3.08162">
        <ele>39.8</ele>
        <time>2023-08-06T04:53:40Z</time>
      </trkpt>
      <trkpt lat="50.49057" lon="3.08167">
        <ele>39.8</ele>
        <time>2023-08-06T04:53:41Z</time>
      </trkpt>
      <trkpt lat="50.49052" lon="3.08171">
        <ele>39.8</ele>
        <time>2023-08-06T04:53:42Z</time>
      </trkpt>
      <trkpt lat="50.49039" lon="3.08179">
        <ele>40</ele>
        <time>2023-08-06T04:53:45Z</time>
      </trkpt>
      <trkpt lat="50.49034" lon="3.08179">
        <ele>40</ele>
        <time>2023-08-06T04:53:46Z</time>
      </trkpt>
      <trkpt lat="50.4903" lon="3.08179">
        <ele>40.2</ele>
        <time>2023-08-06T04:53:47Z</time>
      </trkpt>
      <trkpt lat="50.49026" lon="3.08178">
        <ele>40.2</ele>
        <time>2023-08-06T04:53:48Z</time>
      </trkpt>
      <trkpt lat="50.49021" lon="3.08177">
        <ele>40.2</ele>
        <time>2023-08-06T04:53:49Z</time>
      </trkpt>
      <trkpt lat="50.49017" lon="3.08176">
        <ele>40.2</ele>
        <time>2023-08-06T04:53:50Z</time>
      </trkpt>
      <trkpt lat="50.49012" lon="3.08176">
        <ele>40.2</ele>
        <time>2023-08-06T04:53:51Z</time>
      </trkpt>
      <trkpt lat="50.49007" lon="3.08176">
        <ele>40.2</ele>
        <time>2023-08-06T04:53:52Z</time>
      </trkpt>
      <trkpt lat="50.49003" lon="3.08179">
        <ele>40.4</ele>
        <time>2023-08-06T04:53:53Z</time>
      </trkpt>
      <trkpt lat="50.48995" lon="3.08187">
        <ele>40.4</ele>
        <time>2023-08-06T04:53:55Z</time>
      </trkpt>
      <trkpt lat="50.48991" lon="3.08192">
        <ele>40.6</ele>
        <time>2023-08-06T04:53:56Z</time>
      </trkpt>
      <trkpt lat="50.48988" lon="3.08198">
        <ele>40.8</ele>
        <time>2023-08-06T04:53:57Z</time>
      </trkpt>
      <trkpt lat="50.48986" lon="3.08205">
        <ele>40.8</ele>
        <time>2023-08-06T04:53:58Z</time>
      </trkpt>
      <trkpt lat="50.48983" lon="3.08212">
        <ele>40.8</ele>
        <time>2023-08-06T04:53:59Z</time>
      </trkpt>
      <trkpt lat="50.48978" lon="3.08226">
        <ele>41</ele>
        <time>2023-08-06T04:54:01Z</time>
      </trkpt>
      <trkpt lat="50.48976" lon="3.08233">
        <ele>41.2</ele>
        <time>2023-08-06T04:54:02Z</time>
      </trkpt>
      <trkpt lat="50.48955" lon="3.08296">
        <ele>41.6</ele>
        <time>2023-08-06T04:54:11Z</time>
      </trkpt>
      <trkpt lat="50.48951" lon="3.08302">
        <ele>41.8</ele>
        <time>2023-08-06T04:54:12Z</time>
      </trkpt>
      <trkpt lat="50.48944" lon="3.08312">
        <ele>42</ele>
        <time>2023-08-06T04:54:14Z</time>
      </trkpt>
      <trkpt lat="50.48941" lon="3.08316">
        <ele>42</ele>
        <time>2023-08-06T04:54:15Z</time>
      </trkpt>
      <trkpt lat="50.48937" lon="3.0832">
        <ele>42.2</ele>
        <time>2023-08-06T04:54:16Z</time>
      </trkpt>
      <trkpt lat="50.48925" lon="3.08332">
        <ele>42.6</ele>
        <time>2023-08-06T04:54:19Z</time>
      </trkpt>
      <trkpt lat="50.48922" lon="3.08336">
        <ele>42.6</ele>
        <time>2023-08-06T04:54:20Z</time>
      </trkpt>
      <trkpt lat="50.48918" lon="3.0834">
        <ele>42.8</ele>
        <time>2023-08-06T04:54:21Z</time>
      </trkpt>
      <trkpt lat="50.48914" lon="3.08344">
        <ele>42.8</ele>
        <time>2023-08-06T04:54:22Z</time>
      </trkpt>
      <trkpt lat="50.4891" lon="3.08348">
        <ele>43</ele>
        <time>2023-08-06T04:54:23Z</time>
      </trkpt>
      <trkpt lat="50.48907" lon="3.08352">
        <ele>43</ele>
        <time>2023-08-06T04:54:24Z</time>
      </trkpt>
      <trkpt lat="50.48896" lon="3.08364">
        <ele>43.4</ele>
        <time>2023-08-06T04:54:27Z</time>
      </trkpt>
      <trkpt lat="50.4887" lon="3.08397">
        <ele>44.2</ele>
        <time>2023-08-06T04:54:34Z</time>
      </trkpt>
      <trkpt lat="50.48867" lon="3.08401">
        <ele>44.2</ele>
        <time>2023-08-06T04:54:35Z</time>
      </trkpt>
      <trkpt lat="50.48863" lon="3.08406">
        <ele>44.2</ele>
        <time>2023-08-06T04:54:36Z</time>
      </trkpt>
      <trkpt lat="50.48859" lon="3.0841">
        <ele>44.4</ele>
        <time>2023-08-06T04:54:37Z</time>
      </trkpt>
      <trkpt lat="50.48856" lon="3.08415">
        <ele>44.4</ele>
        <time>2023-08-06T04:54:38Z</time>
      </trkpt>
      <trkpt lat="50.48852" lon="3.0842">
        <ele>44.4</ele>
        <time>2023-08-06T04:54:39Z</time>
      </trkpt>
      <trkpt lat="50.48848" lon="3.08424">
        <ele>44.6</ele>
        <time>2023-08-06T04:54:40Z</time>
      </trkpt>
      <trkpt lat="50.48845" lon="3.08428">
        <ele>44.6</ele>
        <time>2023-08-06T04:54:41Z</time>
      </trkpt>
      <trkpt lat="50.48841" lon="3.08433">
        <ele>44.8</ele>
        <time>2023-08-06T04:54:42Z</time>
      </trkpt>
      <trkpt lat="50.48823" lon="3.08455">
        <ele>44.8</ele>
        <time>2023-08-06T04:54:47Z</time>
      </trkpt>
      <trkpt lat="50.48802" lon="3.08483">
        <ele>45.2</ele>
        <time>2023-08-06T04:54:53Z</time>
      </trkpt>
      <trkpt lat="50.48795" lon="3.08492">
        <ele>45.4</ele>
        <time>2023-08-06T04:54:55Z</time>
      </trkpt>
      <trkpt lat="50.48788" lon="3.08501">
        <ele>45.6</ele>
        <time>2023-08-06T04:54:57Z</time>
      </trkpt>
      <trkpt lat="50.48775" lon="3.08519">
        <ele>46</ele>
        <time>2023-08-06T04:55:01Z</time>
      </trkpt>
      <trkpt lat="50.48768" lon="3.08528">
        <ele>46.2</ele>
        <time>2023-08-06T04:55:03Z</time>
      </trkpt>
      <trkpt lat="50.48765" lon="3.08532">
        <ele>46.4</ele>
        <time>2023-08-06T04:55:04Z</time>
      </trkpt>
      <trkpt lat="50.48762" lon="3.08537">
        <ele>46.4</ele>
        <time>2023-08-06T04:55:05Z</time>
      </trkpt>
      <trkpt lat="50.48758" lon="3.08541">
        <ele>46.4</ele>
        <time>2023-08-06T04:55:06Z</time>
      </trkpt>
      <trkpt lat="50.48746" lon="3.08558">
        <ele>46.8</ele>
        <time>2023-08-06T04:55:10Z</time>
      </trkpt>
      <trkpt lat="50.48743" lon="3.08561">
        <ele>47.2</ele>
        <time>2023-08-06T04:55:11Z</time>
      </trkpt>
      <trkpt lat="50.4874" lon="3.08565">
        <ele>47.4</ele>
        <time>2023-08-06T04:55:12Z</time>
      </trkpt>
      <trkpt lat="50.48737" lon="3.08569">
        <ele>47.6</ele>
        <time>2023-08-06T04:55:13Z</time>
      </trkpt>
      <trkpt lat="50.48734" lon="3.08572">
        <ele>47.6</ele>
        <time>2023-08-06T04:55:14Z</time>
      </trkpt>
      <trkpt lat="50.48731" lon="3.08576">
        <ele>47.6</ele>
        <time>2023-08-06T04:55:15Z</time>
      </trkpt>
      <trkpt lat="50.48728" lon="3.0858">
        <ele>47.8</ele>
        <time>2023-08-06T04:55:16Z</time>
      </trkpt>
      <trkpt lat="50.48725" lon="3.08584">
        <ele>47.8</ele>
        <time>2023-08-06T04:55:17Z</time>
      </trkpt>
      <trkpt lat="50.48722" lon="3.08588">
        <ele>48</ele>
        <time>2023-08-06T04:55:18Z</time>
      </trkpt>
      <trkpt lat="50.48719" lon="3.08592">
        <ele>48</ele>
        <time>2023-08-06T04:55:19Z</time>
      </trkpt>
      <trkpt lat="50.48716" lon="3.08596">
        <ele>48.2</ele>
        <time>2023-08-06T04:55:20Z</time>
      </trkpt>
      <trkpt lat="50.48713" lon="3.08599">
        <ele>48.4</ele>
        <time>2023-08-06T04:55:21Z</time>
      </trkpt>
      <trkpt lat="50.4871" lon="3.08603">
        <ele>48.4</ele>
        <time>2023-08-06T04:55:22Z</time>
      </trkpt>
      <trkpt lat="50.48708" lon="3.08606">
        <ele>48.8</ele>
        <time>2023-08-06T04:55:23Z</time>
      </trkpt>
      <trkpt lat="50.48705" lon="3.0861">
        <ele>49</ele>
        <time>2023-08-06T04:55:24Z</time>
      </trkpt>
      <trkpt lat="50.48702" lon="3.08613">
        <ele>49.2</ele>
        <time>2023-08-06T04:55:25Z</time>
      </trkpt>
      <trkpt lat="50.48699" lon="3.08617">
        <ele>49.2</ele>
        <time>2023-08-06T04:55:26Z</time>
      </trkpt>
      <trkpt lat="50.48697" lon="3.0862">
        <ele>49.4</ele>
        <time>2023-08-06T04:55:27Z</time>
      </trkpt>
      <trkpt lat="50.48694" lon="3.08624">
        <ele>49.6</ele>
        <time>2023-08-06T04:55:28Z</time>
      </trkpt>
      <trkpt lat="50.48691" lon="3.08627">
        <ele>49.6</ele>
        <time>2023-08-06T04:55:29Z</time>
      </trkpt>
      <trkpt lat="50.48689" lon="3.0863">
        <ele>49.8</ele>
        <time>2023-08-06T04:55:30Z</time>
      </trkpt>
      <trkpt lat="50.48687" lon="3.08634">
        <ele>49.8</ele>
        <time>2023-08-06T04:55:31Z</time>
      </trkpt>
      <trkpt lat="50.48684" lon="3.08637">
        <ele>50</ele>
        <time>2023-08-06T04:55:32Z</time>
      </trkpt>
      <trkpt lat="50.48681" lon="3.0864">
        <ele>50</ele>
        <time>2023-08-06T04:55:33Z</time>
      </trkpt>
      <trkpt lat="50.48679" lon="3.08643">
        <ele>50.2</ele>
        <time>2023-08-06T04:55:34Z</time>
      </trkpt>
      <trkpt lat="50.48676" lon="3.08646">
        <ele>50.2</ele>
        <time>2023-08-06T04:55:35Z</time>
      </trkpt>
      <trkpt lat="50.48674" lon="3.08649">
        <ele>50.4</ele>
        <time>2023-08-06T04:55:36Z</time>
      </trkpt>
      <trkpt lat="50.48671" lon="3.08652">
        <ele>50.6</ele>
        <time>2023-08-06T04:55:37Z</time>
      </trkpt>
      <trkpt lat="50.48669" lon="3.08656">
        <ele>50.6</ele>
        <time>2023-08-06T04:55:38Z</time>
      </trkpt>
      <trkpt lat="50.48666" lon="3.08658">
        <ele>51</ele>
        <time>2023-08-06T04:55:39Z</time>
      </trkpt>
      <trkpt lat="50.48664" lon="3.08662">
        <ele>51</ele>
        <time>2023-08-06T04:55:40Z</time>
      </trkpt>
      <trkpt lat="50.48661" lon="3.08665">
        <ele>51.2</ele>
        <time>2023-08-06T04:55:41Z</time>
      </trkpt>
      <trkpt lat="50.48659" lon="3.08668">
        <ele>51.2</ele>
        <time>2023-08-06T04:55:42Z</time>
      </trkpt>
      <trkpt lat="50.48657" lon="3.08671">
        <ele>51.4</ele>
        <time>2023-08-06T04:55:43Z</time>
      </trkpt>
      <trkpt lat="50.48654" lon="3.08674">
        <ele>51.8</ele>
        <time>2023-08-06T04:55:44Z</time>
      </trkpt>
      <trkpt lat="50.48652" lon="3.08677">
        <ele>52</ele>
        <time>2023-08-06T04:55:45Z</time>
      </trkpt>
      <trkpt lat="50.48649" lon="3.0868">
        <ele>52.2</ele>
        <time>2023-08-06T04:55:46Z</time>
      </trkpt>
      <trkpt lat="50.48647" lon="3.08683">
        <ele>52.2</ele>
        <time>2023-08-06T04:55:47Z</time>
      </trkpt>
      <trkpt lat="50.48645" lon="3.08686">
        <ele>52.4</ele>
        <time>2023-08-06T04:55:48Z</time>
      </trkpt>
      <trkpt lat="50.48643" lon="3.08689">
        <ele>52.6</ele>
        <time>2023-08-06T04:55:49Z</time>
      </trkpt>
      <trkpt lat="50.48641" lon="3.08691">
        <ele>52.8</ele>
        <time>2023-08-06T04:55:50Z</time>
      </trkpt>
      <trkpt lat="50.48639" lon="3.08694">
        <ele>53</ele>
        <time>2023-08-06T04:55:51Z</time>
      </trkpt>
      <trkpt lat="50.48637" lon="3.08697">
        <ele>53</ele>
        <time>2023-08-06T04:55:52Z</time>
      </trkpt>
      <trkpt lat="50.48635" lon="3.08701">
        <ele>53.4</ele>
        <time>2023-08-06T04:55:53Z</time>
      </trkpt>
      <trkpt lat="50.48634" lon="3.08703">
        <ele>53.6</ele>
        <time>2023-08-06T04:55:54Z</time>
      </trkpt>
      <trkpt lat="50.48632" lon="3.08706">
        <ele>53.8</ele>
        <time>2023-08-06T04:55:55Z</time>
      </trkpt>
      <trkpt lat="50.4863" lon="3.08709">
        <ele>54</ele>
        <time>2023-08-06T04:55:56Z</time>
      </trkpt>
      <trkpt lat="50.48629" lon="3.08713">
        <ele>54.2</ele>
        <time>2023-08-06T04:55:57Z</time>
      </trkpt>
      <trkpt lat="50.48627" lon="3.08716">
        <ele>54.4</ele>
        <time>2023-08-06T04:55:58Z</time>
      </trkpt>
      <trkpt lat="50.48625" lon="3.08719">
        <ele>54.4</ele>
        <time>2023-08-06T04:55:59Z</time>
      </trkpt>
      <trkpt lat="50.48623" lon="3.08722">
        <ele>54.6</ele>
        <time>2023-08-06T04:56:00Z</time>
      </trkpt>
      <trkpt lat="50.48621" lon="3.08725">
        <ele>54.4</ele>
        <time>2023-08-06T04:56:01Z</time>
      </trkpt>
      <trkpt lat="50.4862" lon="3.08728">
        <ele>54.8</ele>
        <time>2023-08-06T04:56:02Z</time>
      </trkpt>
      <trkpt lat="50.48618" lon="3.08731">
        <ele>54.8</ele>
        <time>2023-08-06T04:56:03Z</time>
      </trkpt>
      <trkpt lat="50.48616" lon="3.08735">
        <ele>54.8</ele>
        <time>2023-08-06T04:56:04Z</time>
      </trkpt>
      <trkpt lat="50.48614" lon="3.08738">
        <ele>55</ele>
        <time>2023-08-06T04:56:05Z</time>
      </trkpt>
      <trkpt lat="50.48613" lon="3.08741">
        <ele>55.2</ele>
        <time>2023-08-06T04:56:06Z</time>
      </trkpt>
      <trkpt lat="50.48611" lon="3.08744">
        <ele>55.4</ele>
        <time>2023-08-06T04:56:07Z</time>
      </trkpt>
      <trkpt lat="50.48609" lon="3.08747">
        <ele>55.4</ele>
        <time>2023-08-06T04:56:08Z</time>
      </trkpt>
      <trkpt lat="50.48607" lon="3.0875">
        <ele>55.6</ele>
        <time>2023-08-06T04:56:09Z</time>
      </trkpt>
      <trkpt lat="50.48605" lon="3.08753">
        <ele>55.6</ele>
        <time>2023-08-06T04:56:10Z</time>
      </trkpt>
      <trkpt lat="50.48603" lon="3.08755">
        <ele>55.8</ele>
        <time>2023-08-06T04:56:11Z</time>
      </trkpt>
      <trkpt lat="50.48601" lon="3.08758">
        <ele>56</ele>
        <time>2023-08-06T04:56:12Z</time>
      </trkpt>
      <trkpt lat="50.48599" lon="3.08761">
        <ele>56</ele>
        <time>2023-08-06T04:56:13Z</time>
      </trkpt>
      <trkpt lat="50.48598" lon="3.08764">
        <ele>56.2</ele>
        <time>2023-08-06T04:56:14Z</time>
      </trkpt>
      <trkpt lat="50.48597" lon="3.08767">
        <ele>56.4</ele>
        <time>2023-08-06T04:56:15Z</time>
      </trkpt>
      <trkpt lat="50.48595" lon="3.0877">
        <ele>57</ele>
        <time>2023-08-06T04:56:16Z</time>
      </trkpt>
      <trkpt lat="50.48593" lon="3.08772">
        <ele>57.2</ele>
        <time>2023-08-06T04:56:17Z</time>
      </trkpt>
      <trkpt lat="50.48591" lon="3.08775">
        <ele>57.4</ele>
        <time>2023-08-06T04:56:18Z</time>
      </trkpt>
      <trkpt lat="50.48589" lon="3.08778">
        <ele>57.6</ele>
        <time>2023-08-06T04:56:19Z</time>
      </trkpt>
      <trkpt lat="50.48587" lon="3.08781">
        <ele>57.8</ele>
        <time>2023-08-06T04:56:20Z</time>
      </trkpt>
      <trkpt lat="50.48585" lon="3.08784">
        <ele>57.8</ele>
        <time>2023-08-06T04:56:21Z</time>
      </trkpt>
      <trkpt lat="50.48583" lon="3.08787">
        <ele>57.8</ele>
        <time>2023-08-06T04:56:22Z</time>
      </trkpt>
      <trkpt lat="50.48581" lon="3.0879">
        <ele>58</ele>
        <time>2023-08-06T04:56:23Z</time>
      </trkpt>
      <trkpt lat="50.48579" lon="3.08792">
        <ele>58</ele>
        <time>2023-08-06T04:56:24Z</time>
      </trkpt>
      <trkpt lat="50.48577" lon="3.08795">
        <ele>58.2</ele>
        <time>2023-08-06T04:56:25Z</time>
      </trkpt>
      <trkpt lat="50.48576" lon="3.08797">
        <ele>58.2</ele>
        <time>2023-08-06T04:56:26Z</time>
      </trkpt>
      <trkpt lat="50.48574" lon="3.088">
        <ele>58.2</ele>
        <time>2023-08-06T04:56:27Z</time>
      </trkpt>
      <trkpt lat="50.48572" lon="3.08804">
        <ele>58.4</ele>
        <time>2023-08-06T04:56:28Z</time>
      </trkpt>
      <trkpt lat="50.48572" lon="3.08804">
        <ele>58.6</ele>
        <time>2023-08-06T04:56:29Z</time>
      </trkpt>
      <trkpt lat="50.48569" lon="3.08808">
        <ele>58.6</ele>
        <time>2023-08-06T04:56:30Z</time>
      </trkpt>
      <trkpt lat="50.48567" lon="3.08811">
        <ele>58.8</ele>
        <time>2023-08-06T04:56:31Z</time>
      </trkpt>
      <trkpt lat="50.48564" lon="3.08814">
        <ele>58.8</ele>
        <time>2023-08-06T04:56:32Z</time>
      </trkpt>
      <trkpt lat="50.48562" lon="3.08817">
        <ele>59</ele>
        <time>2023-08-06T04:56:33Z</time>
      </trkpt>
      <trkpt lat="50.4856" lon="3.0882">
        <ele>59</ele>
        <time>2023-08-06T04:56:34Z</time>
      </trkpt>
      <trkpt lat="50.48558" lon="3.08822">
        <ele>59</ele>
        <time>2023-08-06T04:56:35Z</time>
      </trkpt>
      <trkpt lat="50.48555" lon="3.08824">
        <ele>59.2</ele>
        <time>2023-08-06T04:56:36Z</time>
      </trkpt>
      <trkpt lat="50.48553" lon="3.08827">
        <ele>59.2</ele>
        <time>2023-08-06T04:56:37Z</time>
      </trkpt>
      <trkpt lat="50.48551" lon="3.08829">
        <ele>59.4</ele>
        <time>2023-08-06T04:56:38Z</time>
      </trkpt>
      <trkpt lat="50.48549" lon="3.0883">
        <ele>59.6</ele>
        <time>2023-08-06T04:56:39Z</time>
      </trkpt>
      <trkpt lat="50.48546" lon="3.08832">
        <ele>59.8</ele>
        <time>2023-08-06T04:56:40Z</time>
      </trkpt>
      <trkpt lat="50.48544" lon="3.08834">
        <ele>59.8</ele>
        <time>2023-08-06T04:56:41Z</time>
      </trkpt>
      <trkpt lat="50.48542" lon="3.08835">
        <ele>60</ele>
        <time>2023-08-06T04:56:42Z</time>
      </trkpt>
      <trkpt lat="50.48539" lon="3.08837">
        <ele>60.2</ele>
        <time>2023-08-06T04:56:43Z</time>
      </trkpt>
      <trkpt lat="50.48537" lon="3.08838">
        <ele>60.2</ele>
        <time>2023-08-06T04:56:44Z</time>
      </trkpt>
      <trkpt lat="50.48535" lon="3.08838">
        <ele>60.4</ele>
        <time>2023-08-06T04:56:45Z</time>
      </trkpt>
      <trkpt lat="50.48532" lon="3.08838">
        <ele>60.6</ele>
        <time>2023-08-06T04:56:46Z</time>
      </trkpt>
      <trkpt lat="50.4853" lon="3.08837">
        <ele>60.8</ele>
        <time>2023-08-06T04:56:47Z</time>
      </trkpt>
      <trkpt lat="50.48527" lon="3.08836">
        <ele>61</ele>
        <time>2023-08-06T04:56:48Z</time>
      </trkpt>
      <trkpt lat="50.48525" lon="3.08834">
        <ele>61.2</ele>
        <time>2023-08-06T04:56:49Z</time>
      </trkpt>
      <trkpt lat="50.48522" lon="3.08832">
        <ele>61.2</ele>
        <time>2023-08-06T04:56:50Z</time>
      </trkpt>
      <trkpt lat="50.48522" lon="3.08832">
        <ele>61.4</ele>
        <time>2023-08-06T04:56:51Z</time>
      </trkpt>
      <trkpt lat="50.48517" lon="3.08829">
        <ele>61.4</ele>
        <time>2023-08-06T04:56:52Z</time>
      </trkpt>
      <trkpt lat="50.48514" lon="3.08827">
        <ele>61.6</ele>
        <time>2023-08-06T04:56:53Z</time>
      </trkpt>
      <trkpt lat="50.48512" lon="3.08825">
        <ele>61.6</ele>
        <time>2023-08-06T04:56:54Z</time>
      </trkpt>
      <trkpt lat="50.4851" lon="3.08823">
        <ele>61.8</ele>
        <time>2023-08-06T04:56:55Z</time>
      </trkpt>
      <trkpt lat="50.48507" lon="3.08821">
        <ele>61.8</ele>
        <time>2023-08-06T04:56:56Z</time>
      </trkpt>
      <trkpt lat="50.48505" lon="3.0882">
        <ele>61.8</ele>
        <time>2023-08-06T04:56:57Z</time>
      </trkpt>
      <trkpt lat="50.48502" lon="3.08818">
        <ele>62</ele>
        <time>2023-08-06T04:56:58Z</time>
      </trkpt>
      <trkpt lat="50.485" lon="3.08817">
        <ele>62.2</ele>
        <time>2023-08-06T04:56:59Z</time>
      </trkpt>
      <trkpt lat="50.48497" lon="3.08815">
        <ele>62.4</ele>
        <time>2023-08-06T04:57:00Z</time>
      </trkpt>
      <trkpt lat="50.48495" lon="3.08813">
        <ele>62.6</ele>
        <time>2023-08-06T04:57:01Z</time>
      </trkpt>
      <trkpt lat="50.48492" lon="3.08811">
        <ele>62.8</ele>
        <time>2023-08-06T04:57:02Z</time>
      </trkpt>
      <trkpt lat="50.4849" lon="3.0881">
        <ele>62.8</ele>
        <time>2023-08-06T04:57:03Z</time>
      </trkpt>
      <trkpt lat="50.48487" lon="3.08808">
        <ele>63</ele>
        <time>2023-08-06T04:57:04Z</time>
      </trkpt>
      <trkpt lat="50.48485" lon="3.08806">
        <ele>63</ele>
        <time>2023-08-06T04:57:05Z</time>
      </trkpt>
      <trkpt lat="50.48482" lon="3.08805">
        <ele>63</ele>
        <time>2023-08-06T04:57:06Z</time>
      </trkpt>
      <trkpt lat="50.48479" lon="3.08803">
        <ele>63</ele>
        <time>2023-08-06T04:57:07Z</time>
      </trkpt>
      <trkpt lat="50.48476" lon="3.08801">
        <ele>63.2</ele>
        <time>2023-08-06T04:57:08Z</time>
      </trkpt>
      <trkpt lat="50.48474" lon="3.088">
        <ele>63.2</ele>
        <time>2023-08-06T04:57:09Z</time>
      </trkpt>
      <trkpt lat="50.48472" lon="3.08798">
        <ele>63.2</ele>
        <time>2023-08-06T04:57:10Z</time>
      </trkpt>
      <trkpt lat="50.48469" lon="3.08796">
        <ele>63.2</ele>
        <time>2023-08-06T04:57:11Z</time>
      </trkpt>
      <trkpt lat="50.48467" lon="3.08794">
        <ele>63.2</ele>
        <time>2023-08-06T04:57:12Z</time>
      </trkpt>
      <trkpt lat="50.48464" lon="3.08793">
        <ele>63.4</ele>
        <time>2023-08-06T04:57:13Z</time>
      </trkpt>
      <trkpt lat="50.48461" lon="3.08791">
        <ele>63.4</ele>
        <time>2023-08-06T04:57:14Z</time>
      </trkpt>
      <trkpt lat="50.48459" lon="3.08789">
        <ele>63.4</ele>
        <time>2023-08-06T04:57:15Z</time>
      </trkpt>
      <trkpt lat="50.48456" lon="3.08788">
        <ele>63.6</ele>
        <time>2023-08-06T04:57:16Z</time>
      </trkpt>
      <trkpt lat="50.48453" lon="3.08787">
        <ele>63.6</ele>
        <time>2023-08-06T04:57:17Z</time>
      </trkpt>
      <trkpt lat="50.48451" lon="3.08785">
        <ele>63.8</ele>
        <time>2023-08-06T04:57:18Z</time>
      </trkpt>
      <trkpt lat="50.4844" lon="3.08778">
        <ele>64</ele>
        <time>2023-08-06T04:57:22Z</time>
      </trkpt>
      <trkpt lat="50.48436" lon="3.08775">
        <ele>64.2</ele>
        <time>2023-08-06T04:57:24Z</time>
      </trkpt>
      <trkpt lat="50.48432" lon="3.08774">
        <ele>64.2</ele>
        <time>2023-08-06T04:57:25Z</time>
      </trkpt>
      <trkpt lat="50.4843" lon="3.08773">
        <ele>64.2</ele>
        <time>2023-08-06T04:57:26Z</time>
      </trkpt>
      <trkpt lat="50.4843" lon="3.08773">
        <ele>64.4</ele>
        <time>2023-08-06T04:57:27Z</time>
      </trkpt>
      <trkpt lat="50.48425" lon="3.0877">
        <ele>64.6</ele>
        <time>2023-08-06T04:57:28Z</time>
      </trkpt>
      <trkpt lat="50.48419" lon="3.08767">
        <ele>65</ele>
        <time>2023-08-06T04:57:31Z</time>
      </trkpt>
      <trkpt lat="50.48416" lon="3.08767">
        <ele>65.2</ele>
        <time>2023-08-06T04:57:32Z</time>
      </trkpt>
      <trkpt lat="50.48414" lon="3.08766">
        <ele>65.2</ele>
        <time>2023-08-06T04:57:33Z</time>
      </trkpt>
      <trkpt lat="50.48412" lon="3.08765">
        <ele>65.2</ele>
        <time>2023-08-06T04:57:34Z</time>
      </trkpt>
      <trkpt lat="50.48409" lon="3.08764">
        <ele>65.4</ele>
        <time>2023-08-06T04:57:35Z</time>
      </trkpt>
      <trkpt lat="50.48407" lon="3.08764">
        <ele>65.4</ele>
        <time>2023-08-06T04:57:36Z</time>
      </trkpt>
      <trkpt lat="50.48405" lon="3.08762">
        <ele>65.4</ele>
        <time>2023-08-06T04:57:37Z</time>
      </trkpt>
      <trkpt lat="50.48402" lon="3.08761">
        <ele>65.6</ele>
        <time>2023-08-06T04:57:38Z</time>
      </trkpt>
      <trkpt lat="50.48399" lon="3.0876">
        <ele>65.8</ele>
        <time>2023-08-06T04:57:39Z</time>
      </trkpt>
      <trkpt lat="50.48397" lon="3.08759">
        <ele>65.8</ele>
        <time>2023-08-06T04:57:40Z</time>
      </trkpt>
      <trkpt lat="50.48386" lon="3.08759">
        <ele>66.2</ele>
        <time>2023-08-06T04:57:44Z</time>
      </trkpt>
      <trkpt lat="50.48383" lon="3.0876">
        <ele>66.4</ele>
        <time>2023-08-06T04:57:45Z</time>
      </trkpt>
      <trkpt lat="50.48381" lon="3.08761">
        <ele>66.6</ele>
        <time>2023-08-06T04:57:46Z</time>
      </trkpt>
      <trkpt lat="50.48379" lon="3.08762">
        <ele>66.8</ele>
        <time>2023-08-06T04:57:47Z</time>
      </trkpt>
      <trkpt lat="50.48376" lon="3.08763">
        <ele>67.2</ele>
        <time>2023-08-06T04:57:48Z</time>
      </trkpt>
      <trkpt lat="50.48374" lon="3.08765">
        <ele>67.2</ele>
        <time>2023-08-06T04:57:49Z</time>
      </trkpt>
      <trkpt lat="50.48371" lon="3.08767">
        <ele>67.4</ele>
        <time>2023-08-06T04:57:50Z</time>
      </trkpt>
      <trkpt lat="50.4837" lon="3.0877">
        <ele>67.6</ele>
        <time>2023-08-06T04:57:51Z</time>
      </trkpt>
      <trkpt lat="50.48368" lon="3.08773">
        <ele>67.8</ele>
        <time>2023-08-06T04:57:52Z</time>
      </trkpt>
      <trkpt lat="50.48368" lon="3.08777">
        <ele>67.8</ele>
        <time>2023-08-06T04:57:53Z</time>
      </trkpt>
      <trkpt lat="50.48368" lon="3.0878">
        <ele>67.8</ele>
        <time>2023-08-06T04:57:54Z</time>
      </trkpt>
      <trkpt lat="50.48368" lon="3.08783">
        <ele>68</ele>
        <time>2023-08-06T04:57:55Z</time>
      </trkpt>
      <trkpt lat="50.48368" lon="3.08786">
        <ele>68</ele>
        <time>2023-08-06T04:57:56Z</time>
      </trkpt>
      <trkpt lat="50.48368" lon="3.08789">
        <ele>68.2</ele>
        <time>2023-08-06T04:57:57Z</time>
      </trkpt>
      <trkpt lat="50.48369" lon="3.08792">
        <ele>68.2</ele>
        <time>2023-08-06T04:57:58Z</time>
      </trkpt>
      <trkpt lat="50.4837" lon="3.08795">
        <ele>68.4</ele>
        <time>2023-08-06T04:57:59Z</time>
      </trkpt>
      <trkpt lat="50.4837" lon="3.08797">
        <ele>68.4</ele>
        <time>2023-08-06T04:58:00Z</time>
      </trkpt>
      <trkpt lat="50.4837" lon="3.088">
        <ele>68.4</ele>
        <time>2023-08-06T04:58:01Z</time>
      </trkpt>
      <trkpt lat="50.48371" lon="3.08803">
        <ele>68.6</ele>
        <time>2023-08-06T04:58:02Z</time>
      </trkpt>
      <trkpt lat="50.48371" lon="3.08806">
        <ele>68.6</ele>
        <time>2023-08-06T04:58:03Z</time>
      </trkpt>
      <trkpt lat="50.48372" lon="3.0881">
        <ele>68.6</ele>
        <time>2023-08-06T04:58:04Z</time>
      </trkpt>
      <trkpt lat="50.48372" lon="3.08812">
        <ele>68.8</ele>
        <time>2023-08-06T04:58:05Z</time>
      </trkpt>
      <trkpt lat="50.48372" lon="3.08815">
        <ele>68.8</ele>
        <time>2023-08-06T04:58:06Z</time>
      </trkpt>
      <trkpt lat="50.48372" lon="3.08818">
        <ele>69</ele>
        <time>2023-08-06T04:58:07Z</time>
      </trkpt>
      <trkpt lat="50.48373" lon="3.08821">
        <ele>69.4</ele>
        <time>2023-08-06T04:58:08Z</time>
      </trkpt>
      <trkpt lat="50.48373" lon="3.08824">
        <ele>69.4</ele>
        <time>2023-08-06T04:58:09Z</time>
      </trkpt>
      <trkpt lat="50.48373" lon="3.08826">
        <ele>69.6</ele>
        <time>2023-08-06T04:58:10Z</time>
      </trkpt>
      <trkpt lat="50.48374" lon="3.08829">
        <ele>69.6</ele>
        <time>2023-08-06T04:58:11Z</time>
      </trkpt>
      <trkpt lat="50.48374" lon="3.08832">
        <ele>69.8</ele>
        <time>2023-08-06T04:58:12Z</time>
      </trkpt>
      <trkpt lat="50.48374" lon="3.08836">
        <ele>70</ele>
        <time>2023-08-06T04:58:13Z</time>
      </trkpt>
      <trkpt lat="50.48373" lon="3.08839">
        <ele>70</ele>
        <time>2023-08-06T04:58:14Z</time>
      </trkpt>
      <trkpt lat="50.48373" lon="3.08841">
        <ele>70.2</ele>
        <time>2023-08-06T04:58:15Z</time>
      </trkpt>
      <trkpt lat="50.48373" lon="3.08841">
        <ele>70.2</ele>
        <time>2023-08-06T04:58:16Z</time>
      </trkpt>
      <trkpt lat="50.48372" lon="3.08848">
        <ele>70.4</ele>
        <time>2023-08-06T04:58:17Z</time>
      </trkpt>
      <trkpt lat="50.48371" lon="3.08852">
        <ele>70.4</ele>
        <time>2023-08-06T04:58:18Z</time>
      </trkpt>
      <trkpt lat="50.48371" lon="3.08854">
        <ele>70.4</ele>
        <time>2023-08-06T04:58:19Z</time>
      </trkpt>
      <trkpt lat="50.48371" lon="3.08857">
        <ele>70.8</ele>
        <time>2023-08-06T04:58:20Z</time>
      </trkpt>
      <trkpt lat="50.4837" lon="3.08861">
        <ele>71</ele>
        <time>2023-08-06T04:58:21Z</time>
      </trkpt>
      <trkpt lat="50.4837" lon="3.08863">
        <ele>71.2</ele>
        <time>2023-08-06T04:58:22Z</time>
      </trkpt>
      <trkpt lat="50.48369" lon="3.08866">
        <ele>71.4</ele>
        <time>2023-08-06T04:58:23Z</time>
      </trkpt>
      <trkpt lat="50.48368" lon="3.08869">
        <ele>71.8</ele>
        <time>2023-08-06T04:58:24Z</time>
      </trkpt>
      <trkpt lat="50.48368" lon="3.08872">
        <ele>72</ele>
        <time>2023-08-06T04:58:25Z</time>
      </trkpt>
      <trkpt lat="50.48367" lon="3.08875">
        <ele>72.2</ele>
        <time>2023-08-06T04:58:26Z</time>
      </trkpt>
      <trkpt lat="50.48366" lon="3.08878">
        <ele>72.6</ele>
        <time>2023-08-06T04:58:27Z</time>
      </trkpt>
      <trkpt lat="50.48366" lon="3.08881">
        <ele>72.6</ele>
        <time>2023-08-06T04:58:28Z</time>
      </trkpt>
      <trkpt lat="50.48365" lon="3.08884">
        <ele>72.8</ele>
        <time>2023-08-06T04:58:29Z</time>
      </trkpt>
      <trkpt lat="50.48364" lon="3.08887">
        <ele>73</ele>
        <time>2023-08-06T04:58:30Z</time>
      </trkpt>
      <trkpt lat="50.48364" lon="3.0889">
        <ele>73.2</ele>
        <time>2023-08-06T04:58:31Z</time>
      </trkpt>
      <trkpt lat="50.48363" lon="3.08893">
        <ele>73.4</ele>
        <time>2023-08-06T04:58:32Z</time>
      </trkpt>
      <trkpt lat="50.48362" lon="3.08896">
        <ele>73.4</ele>
        <time>2023-08-06T04:58:33Z</time>
      </trkpt>
      <trkpt lat="50.48361" lon="3.08899">
        <ele>73.4</ele>
        <time>2023-08-06T04:58:34Z</time>
      </trkpt>
      <trkpt lat="50.4836" lon="3.08901">
        <ele>73.6</ele>
        <time>2023-08-06T04:58:35Z</time>
      </trkpt>
      <trkpt lat="50.48359" lon="3.08904">
        <ele>73.6</ele>
        <time>2023-08-06T04:58:36Z</time>
      </trkpt>
      <trkpt lat="50.48358" lon="3.08907">
        <ele>73.8</ele>
        <time>2023-08-06T04:58:37Z</time>
      </trkpt>
      <trkpt lat="50.48357" lon="3.08909">
        <ele>73.8</ele>
        <time>2023-08-06T04:58:38Z</time>
      </trkpt>
      <trkpt lat="50.48357" lon="3.08912">
        <ele>74</ele>
        <time>2023-08-06T04:58:39Z</time>
      </trkpt>
      <trkpt lat="50.48356" lon="3.08915">
        <ele>74.2</ele>
        <time>2023-08-06T04:58:40Z</time>
      </trkpt>
      <trkpt lat="50.48355" lon="3.08917">
        <ele>74.2</ele>
        <time>2023-08-06T04:58:41Z</time>
      </trkpt>
      <trkpt lat="50.48354" lon="3.0892">
        <ele>74.4</ele>
        <time>2023-08-06T04:58:42Z</time>
      </trkpt>
      <trkpt lat="50.48353" lon="3.08923">
        <ele>74.6</ele>
        <time>2023-08-06T04:58:43Z</time>
      </trkpt>
      <trkpt lat="50.48353" lon="3.08923">
        <ele>74.6</ele>
        <time>2023-08-06T04:58:44Z</time>
      </trkpt>
      <trkpt lat="50.48351" lon="3.08929">
        <ele>74.8</ele>
        <time>2023-08-06T04:58:45Z</time>
      </trkpt>
      <trkpt lat="50.48351" lon="3.08932">
        <ele>75</ele>
        <time>2023-08-06T04:58:46Z</time>
      </trkpt>
      <trkpt lat="50.4835" lon="3.08935">
        <ele>75</ele>
        <time>2023-08-06T04:58:47Z</time>
      </trkpt>
      <trkpt lat="50.48349" lon="3.08937">
        <ele>75</ele>
        <time>2023-08-06T04:58:48Z</time>
      </trkpt>
      <trkpt lat="50.48348" lon="3.0894">
        <ele>75.2</ele>
        <time>2023-08-06T04:58:49Z</time>
      </trkpt>
      <trkpt lat="50.48347" lon="3.08943">
        <ele>75.4</ele>
        <time>2023-08-06T04:58:50Z</time>
      </trkpt>
      <trkpt lat="50.48346" lon="3.08946">
        <ele>75.4</ele>
        <time>2023-08-06T04:58:51Z</time>
      </trkpt>
      <trkpt lat="50.48345" lon="3.08949">
        <ele>75.6</ele>
        <time>2023-08-06T04:58:52Z</time>
      </trkpt>
      <trkpt lat="50.48344" lon="3.08952">
        <ele>75.6</ele>
        <time>2023-08-06T04:58:53Z</time>
      </trkpt>
      <trkpt lat="50.48343" lon="3.08955">
        <ele>75.8</ele>
        <time>2023-08-06T04:58:54Z</time>
      </trkpt>
      <trkpt lat="50.48342" lon="3.08958">
        <ele>75.8</ele>
        <time>2023-08-06T04:58:55Z</time>
      </trkpt>
      <trkpt lat="50.48341" lon="3.0896">
        <ele>76</ele>
        <time>2023-08-06T04:58:56Z</time>
      </trkpt>
      <trkpt lat="50.48341" lon="3.08963">
        <ele>76.2</ele>
        <time>2023-08-06T04:58:57Z</time>
      </trkpt>
      <trkpt lat="50.4834" lon="3.08966">
        <ele>76.4</ele>
        <time>2023-08-06T04:58:58Z</time>
      </trkpt>
      <trkpt lat="50.48339" lon="3.08969">
        <ele>76.6</ele>
        <time>2023-08-06T04:58:59Z</time>
      </trkpt>
      <trkpt lat="50.48338" lon="3.08972">
        <ele>76.8</ele>
        <time>2023-08-06T04:59:00Z</time>
      </trkpt>
      <trkpt lat="50.48337" lon="3.08975">
        <ele>77.2</ele>
        <time>2023-08-06T04:59:01Z</time>
      </trkpt>
      <trkpt lat="50.48336" lon="3.08977">
        <ele>77.2</ele>
        <time>2023-08-06T04:59:02Z</time>
      </trkpt>
      <trkpt lat="50.48335" lon="3.0898">
        <ele>77.4</ele>
        <time>2023-08-06T04:59:03Z</time>
      </trkpt>
      <trkpt lat="50.48334" lon="3.08983">
        <ele>77.4</ele>
        <time>2023-08-06T04:59:04Z</time>
      </trkpt>
      <trkpt lat="50.48333" lon="3.08986">
        <ele>77.6</ele>
        <time>2023-08-06T04:59:05Z</time>
      </trkpt>
      <trkpt lat="50.48332" lon="3.08989">
        <ele>77.8</ele>
        <time>2023-08-06T04:59:06Z</time>
      </trkpt>
      <trkpt lat="50.48331" lon="3.08992">
        <ele>78</ele>
        <time>2023-08-06T04:59:07Z</time>
      </trkpt>
      <trkpt lat="50.4833" lon="3.08995">
        <ele>78</ele>
        <time>2023-08-06T04:59:08Z</time>
      </trkpt>
      <trkpt lat="50.48329" lon="3.08998">
        <ele>78.2</ele>
        <time>2023-08-06T04:59:09Z</time>
      </trkpt>
      <trkpt lat="50.48328" lon="3.09001">
        <ele>78.4</ele>
        <time>2023-08-06T04:59:10Z</time>
      </trkpt>
      <trkpt lat="50.48327" lon="3.09004">
        <ele>78.6</ele>
        <time>2023-08-06T04:59:11Z</time>
      </trkpt>
      <trkpt lat="50.48326" lon="3.09007">
        <ele>78.6</ele>
        <time>2023-08-06T04:59:12Z</time>
      </trkpt>
      <trkpt lat="50.48325" lon="3.0901">
        <ele>78.8</ele>
        <time>2023-08-06T04:59:13Z</time>
      </trkpt>
      <trkpt lat="50.48324" lon="3.09013">
        <ele>79</ele>
        <time>2023-08-06T04:59:14Z</time>
      </trkpt>
      <trkpt lat="50.48323" lon="3.09016">
        <ele>79.2</ele>
        <time>2023-08-06T04:59:15Z</time>
      </trkpt>
      <trkpt lat="50.48322" lon="3.09019">
        <ele>79.2</ele>
        <time>2023-08-06T04:59:16Z</time>
      </trkpt>
      <trkpt lat="50.48321" lon="3.09021">
        <ele>79.2</ele>
        <time>2023-08-06T04:59:17Z</time>
      </trkpt>
      <trkpt lat="50.4832" lon="3.09024">
        <ele>79.4</ele>
        <time>2023-08-06T04:59:18Z</time>
      </trkpt>
      <trkpt lat="50.4832" lon="3.09027">
        <ele>79.6</ele>
        <time>2023-08-06T04:59:19Z</time>
      </trkpt>
      <trkpt lat="50.48319" lon="3.09029">
        <ele>79.8</ele>
        <time>2023-08-06T04:59:20Z</time>
      </trkpt>
      <trkpt lat="50.48318" lon="3.09032">
        <ele>79.8</ele>
        <time>2023-08-06T04:59:21Z</time>
      </trkpt>
      <trkpt lat="50.48317" lon="3.09035">
        <ele>80</ele>
        <time>2023-08-06T04:59:22Z</time>
      </trkpt>
      <trkpt lat="50.48316" lon="3.09039">
        <ele>80</ele>
        <time>2023-08-06T04:59:23Z</time>
      </trkpt>
      <trkpt lat="50.48315" lon="3.09042">
        <ele>80.2</ele>
        <time>2023-08-06T04:59:24Z</time>
      </trkpt>
      <trkpt lat="50.48314" lon="3.09045">
        <ele>80.4</ele>
        <time>2023-08-06T04:59:25Z</time>
      </trkpt>
      <trkpt lat="50.48314" lon="3.09048">
        <ele>80.6</ele>
        <time>2023-08-06T04:59:26Z</time>
      </trkpt>
      <trkpt lat="50.48313" lon="3.09051">
        <ele>80.6</ele>
        <time>2023-08-06T04:59:27Z</time>
      </trkpt>
      <trkpt lat="50.48312" lon="3.09054">
        <ele>80.8</ele>
        <time>2023-08-06T04:59:28Z</time>
      </trkpt>
      <trkpt lat="50.48311" lon="3.09057">
        <ele>81</ele>
        <time>2023-08-06T04:59:29Z</time>
      </trkpt>
      <trkpt lat="50.4831" lon="3.0906">
        <ele>81.2</ele>
        <time>2023-08-06T04:59:30Z</time>
      </trkpt>
      <trkpt lat="50.4831" lon="3.09063">
        <ele>81.2</ele>
        <time>2023-08-06T04:59:31Z</time>
      </trkpt>
      <trkpt lat="50.48309" lon="3.09066">
        <ele>81.4</ele>
        <time>2023-08-06T04:59:32Z</time>
      </trkpt>
      <trkpt lat="50.48308" lon="3.09069">
        <ele>81.6</ele>
        <time>2023-08-06T04:59:33Z</time>
      </trkpt>
      <trkpt lat="50.48307" lon="3.09072">
        <ele>81.6</ele>
        <time>2023-08-06T04:59:34Z</time>
      </trkpt>
      <trkpt lat="50.48306" lon="3.09075">
        <ele>81.8</ele>
        <time>2023-08-06T04:59:35Z</time>
      </trkpt>
      <trkpt lat="50.48305" lon="3.09078">
        <ele>81.8</ele>
        <time>2023-08-06T04:59:36Z</time>
      </trkpt>
      <trkpt lat="50.48304" lon="3.09081">
        <ele>82</ele>
        <time>2023-08-06T04:59:37Z</time>
      </trkpt>
      <trkpt lat="50.48303" lon="3.09084">
        <ele>82</ele>
        <time>2023-08-06T04:59:38Z</time>
      </trkpt>
      <trkpt lat="50.48302" lon="3.09086">
        <ele>82.2</ele>
        <time>2023-08-06T04:59:39Z</time>
      </trkpt>
      <trkpt lat="50.48301" lon="3.09089">
        <ele>82.4</ele>
        <time>2023-08-06T04:59:40Z</time>
      </trkpt>
      <trkpt lat="50.483" lon="3.09092">
        <ele>82.4</ele>
        <time>2023-08-06T04:59:41Z</time>
      </trkpt>
      <trkpt lat="50.48299" lon="3.09095">
        <ele>82.6</ele>
        <time>2023-08-06T04:59:42Z</time>
      </trkpt>
      <trkpt lat="50.48298" lon="3.09098">
        <ele>82.6</ele>
        <time>2023-08-06T04:59:43Z</time>
      </trkpt>
      <trkpt lat="50.48297" lon="3.09102">
        <ele>82.6</ele>
        <time>2023-08-06T04:59:44Z</time>
      </trkpt>
      <trkpt lat="50.48296" lon="3.09104">
        <ele>82.8</ele>
        <time>2023-08-06T04:59:45Z</time>
      </trkpt>
      <trkpt lat="50.48295" lon="3.09107">
        <ele>82.8</ele>
        <time>2023-08-06T04:59:46Z</time>
      </trkpt>
      <trkpt lat="50.48294" lon="3.0911">
        <ele>83</ele>
        <time>2023-08-06T04:59:47Z</time>
      </trkpt>
      <trkpt lat="50.48293" lon="3.09113">
        <ele>83.2</ele>
        <time>2023-08-06T04:59:48Z</time>
      </trkpt>
      <trkpt lat="50.48292" lon="3.09116">
        <ele>83.4</ele>
        <time>2023-08-06T04:59:49Z</time>
      </trkpt>
      <trkpt lat="50.48291" lon="3.09119">
        <ele>83.6</ele>
        <time>2023-08-06T04:59:50Z</time>
      </trkpt>
      <trkpt lat="50.48289" lon="3.09121">
        <ele>83.6</ele>
        <time>2023-08-06T04:59:51Z</time>
      </trkpt>
      <trkpt lat="50.48288" lon="3.09124">
        <ele>83.8</ele>
        <time>2023-08-06T04:59:52Z</time>
      </trkpt>
      <trkpt lat="50.48286" lon="3.09126">
        <ele>83.8</ele>
        <time>2023-08-06T04:59:53Z</time>
      </trkpt>
      <trkpt lat="50.48285" lon="3.09129">
        <ele>84</ele>
        <time>2023-08-06T04:59:54Z</time>
      </trkpt>
      <trkpt lat="50.48283" lon="3.09131">
        <ele>84</ele>
        <time>2023-08-06T04:59:55Z</time>
      </trkpt>
      <trkpt lat="50.48282" lon="3.09133">
        <ele>84.2</ele>
        <time>2023-08-06T04:59:56Z</time>
      </trkpt>
      <trkpt lat="50.4828" lon="3.09135">
        <ele>84.4</ele>
        <time>2023-08-06T04:59:57Z</time>
      </trkpt>
      <trkpt lat="50.48278" lon="3.09137">
        <ele>84.4</ele>
        <time>2023-08-06T04:59:58Z</time>
      </trkpt>
      <trkpt lat="50.48277" lon="3.0914">
        <ele>84.6</ele>
        <time>2023-08-06T04:59:59Z</time>
      </trkpt>
      <trkpt lat="50.48275" lon="3.09142">
        <ele>84.6</ele>
        <time>2023-08-06T05:00:00Z</time>
      </trkpt>
      <trkpt lat="50.48273" lon="3.09144">
        <ele>84.8</ele>
        <time>2023-08-06T05:00:01Z</time>
      </trkpt>
      <trkpt lat="50.48273" lon="3.09144">
        <ele>85</ele>
        <time>2023-08-06T05:00:02Z</time>
      </trkpt>
      <trkpt lat="50.4827" lon="3.09149">
        <ele>85</ele>
        <time>2023-08-06T05:00:03Z</time>
      </trkpt>
      <trkpt lat="50.48268" lon="3.09151">
        <ele>85.2</ele>
        <time>2023-08-06T05:00:04Z</time>
      </trkpt>
      <trkpt lat="50.48266" lon="3.09153">
        <ele>85.4</ele>
        <time>2023-08-06T05:00:05Z</time>
      </trkpt>
      <trkpt lat="50.48264" lon="3.09155">
        <ele>85.4</ele>
        <time>2023-08-06T05:00:06Z</time>
      </trkpt>
      <trkpt lat="50.48262" lon="3.09158">
        <ele>85.6</ele>
        <time>2023-08-06T05:00:07Z</time>
      </trkpt>
      <trkpt lat="50.4826" lon="3.0916">
        <ele>85.8</ele>
        <time>2023-08-06T05:00:08Z</time>
      </trkpt>
      <trkpt lat="50.48258" lon="3.09163">
        <ele>85.8</ele>
        <time>2023-08-06T05:00:09Z</time>
      </trkpt>
      <trkpt lat="50.48256" lon="3.09165">
        <ele>86</ele>
        <time>2023-08-06T05:00:10Z</time>
      </trkpt>
      <trkpt lat="50.48254" lon="3.09167">
        <ele>86</ele>
        <time>2023-08-06T05:00:11Z</time>
      </trkpt>
      <trkpt lat="50.48252" lon="3.0917">
        <ele>86.2</ele>
        <time>2023-08-06T05:00:12Z</time>
      </trkpt>
      <trkpt lat="50.4825" lon="3.09172">
        <ele>86.4</ele>
        <time>2023-08-06T05:00:13Z</time>
      </trkpt>
      <trkpt lat="50.48248" lon="3.09175">
        <ele>86.6</ele>
        <time>2023-08-06T05:00:14Z</time>
      </trkpt>
      <trkpt lat="50.48246" lon="3.09178">
        <ele>86.6</ele>
        <time>2023-08-06T05:00:15Z</time>
      </trkpt>
      <trkpt lat="50.48244" lon="3.0918">
        <ele>86.6</ele>
        <time>2023-08-06T05:00:16Z</time>
      </trkpt>
      <trkpt lat="50.48242" lon="3.09183">
        <ele>86.8</ele>
        <time>2023-08-06T05:00:17Z</time>
      </trkpt>
      <trkpt lat="50.4824" lon="3.09186">
        <ele>86.8</ele>
        <time>2023-08-06T05:00:18Z</time>
      </trkpt>
      <trkpt lat="50.48238" lon="3.09188">
        <ele>87</ele>
        <time>2023-08-06T05:00:19Z</time>
      </trkpt>
      <trkpt lat="50.48237" lon="3.09191">
        <ele>87.2</ele>
        <time>2023-08-06T05:00:20Z</time>
      </trkpt>
      <trkpt lat="50.48235" lon="3.09194">
        <ele>87.2</ele>
        <time>2023-08-06T05:00:21Z</time>
      </trkpt>
      <trkpt lat="50.48233" lon="3.09197">
        <ele>87.4</ele>
        <time>2023-08-06T05:00:22Z</time>
      </trkpt>
      <trkpt lat="50.48231" lon="3.09199">
        <ele>87.4</ele>
        <time>2023-08-06T05:00:23Z</time>
      </trkpt>
      <trkpt lat="50.48228" lon="3.09202">
        <ele>87.4</ele>
        <time>2023-08-06T05:00:24Z</time>
      </trkpt>
      <trkpt lat="50.48226" lon="3.09204">
        <ele>87.4</ele>
        <time>2023-08-06T05:00:25Z</time>
      </trkpt>
      <trkpt lat="50.48224" lon="3.09208">
        <ele>87.4</ele>
        <time>2023-08-06T05:00:26Z</time>
      </trkpt>
      <trkpt lat="50.48222" lon="3.0921">
        <ele>87.6</ele>
        <time>2023-08-06T05:00:27Z</time>
      </trkpt>
      <trkpt lat="50.48219" lon="3.09214">
        <ele>87.6</ele>
        <time>2023-08-06T05:00:28Z</time>
      </trkpt>
      <trkpt lat="50.48217" lon="3.09217">
        <ele>87.6</ele>
        <time>2023-08-06T05:00:29Z</time>
      </trkpt>
      <trkpt lat="50.48215" lon="3.0922">
        <ele>87.6</ele>
        <time>2023-08-06T05:00:30Z</time>
      </trkpt>
      <trkpt lat="50.48212" lon="3.09223">
        <ele>87.6</ele>
        <time>2023-08-06T05:00:31Z</time>
      </trkpt>
      <trkpt lat="50.4821" lon="3.09226">
        <ele>87.6</ele>
        <time>2023-08-06T05:00:32Z</time>
      </trkpt>
      <trkpt lat="50.48207" lon="3.0923">
        <ele>87.6</ele>
        <time>2023-08-06T05:00:33Z</time>
      </trkpt>
      <trkpt lat="50.48205" lon="3.09234">
        <ele>87.6</ele>
        <time>2023-08-06T05:00:34Z</time>
      </trkpt>
      <trkpt lat="50.48181" lon="3.09265">
        <ele>87.4</ele>
        <time>2023-08-06T05:00:42Z</time>
      </trkpt>
      <trkpt lat="50.4815" lon="3.09308">
        <ele>87.2</ele>
        <time>2023-08-06T05:00:51Z</time>
      </trkpt>
      <trkpt lat="50.48121" lon="3.09358">
        <ele>86.8</ele>
        <time>2023-08-06T05:00:59Z</time>
      </trkpt>
      <trkpt lat="50.48107" lon="3.09396">
        <ele>86.4</ele>
        <time>2023-08-06T05:01:04Z</time>
      </trkpt>
      <trkpt lat="50.48102" lon="3.09414">
        <ele>86</ele>
        <time>2023-08-06T05:01:06Z</time>
      </trkpt>
      <trkpt lat="50.48091" lon="3.09483">
        <ele>85.6</ele>
        <time>2023-08-06T05:01:13Z</time>
      </trkpt>
      <trkpt lat="50.4809" lon="3.09494">
        <ele>85.4</ele>
        <time>2023-08-06T05:01:14Z</time>
      </trkpt>
      <trkpt lat="50.48082" lon="3.0957">
        <ele>84.8</ele>
        <time>2023-08-06T05:01:21Z</time>
      </trkpt>
      <trkpt lat="50.48073" lon="3.09649">
        <ele>84.6</ele>
        <time>2023-08-06T05:01:28Z</time>
      </trkpt>
      <trkpt lat="50.4807" lon="3.09672">
        <ele>84.4</ele>
        <time>2023-08-06T05:01:30Z</time>
      </trkpt>
      <trkpt lat="50.4806" lon="3.09749">
        <ele>84</ele>
        <time>2023-08-06T05:01:37Z</time>
      </trkpt>
      <trkpt lat="50.48046" lon="3.09825">
        <ele>83.8</ele>
        <time>2023-08-06T05:01:44Z</time>
      </trkpt>
      <trkpt lat="50.48027" lon="3.09913">
        <ele>83.8</ele>
        <time>2023-08-06T05:01:52Z</time>
      </trkpt>
      <trkpt lat="50.48005" lon="3.09994">
        <ele>83.4</ele>
        <time>2023-08-06T05:01:59Z</time>
      </trkpt>
      <trkpt lat="50.48002" lon="3.10006">
        <ele>83.4</ele>
        <time>2023-08-06T05:02:00Z</time>
      </trkpt>
      <trkpt lat="50.47995" lon="3.10066">
        <ele>83</ele>
        <time>2023-08-06T05:02:05Z</time>
      </trkpt>
      <trkpt lat="50.47993" lon="3.10078">
        <ele>82.8</ele>
        <time>2023-08-06T05:02:06Z</time>
      </trkpt>
      <trkpt lat="50.47986" lon="3.10101">
        <ele>82.4</ele>
        <time>2023-08-06T05:02:08Z</time>
      </trkpt>
      <trkpt lat="50.47976" lon="3.10118">
        <ele>82.2</ele>
        <time>2023-08-06T05:02:10Z</time>
      </trkpt>
      <trkpt lat="50.47971" lon="3.10124">
        <ele>82.2</ele>
        <time>2023-08-06T05:02:11Z</time>
      </trkpt>
      <trkpt lat="50.47965" lon="3.10129">
        <ele>82</ele>
        <time>2023-08-06T05:02:12Z</time>
      </trkpt>
      <trkpt lat="50.4796" lon="3.10132">
        <ele>82</ele>
        <time>2023-08-06T05:02:13Z</time>
      </trkpt>
      <trkpt lat="50.47954" lon="3.10136">
        <ele>81.8</ele>
        <time>2023-08-06T05:02:14Z</time>
      </trkpt>
      <trkpt lat="50.47949" lon="3.1014">
        <ele>81.8</ele>
        <time>2023-08-06T05:02:15Z</time>
      </trkpt>
      <trkpt lat="50.47945" lon="3.10144">
        <ele>81.8</ele>
        <time>2023-08-06T05:02:16Z</time>
      </trkpt>
      <trkpt lat="50.47942" lon="3.10149">
        <ele>81.8</ele>
        <time>2023-08-06T05:02:17Z</time>
      </trkpt>
      <trkpt lat="50.47939" lon="3.10155">
        <ele>81.8</ele>
        <time>2023-08-06T05:02:18Z</time>
      </trkpt>
      <trkpt lat="50.47938" lon="3.10161">
        <ele>81.8</ele>
        <time>2023-08-06T05:02:19Z</time>
      </trkpt>
      <trkpt lat="50.47937" lon="3.1017">
        <ele>81.8</ele>
        <time>2023-08-06T05:02:20Z</time>
      </trkpt>
      <trkpt lat="50.47938" lon="3.10178">
        <ele>81.8</ele>
        <time>2023-08-06T05:02:21Z</time>
      </trkpt>
      <trkpt lat="50.47941" lon="3.10197">
        <ele>81.8</ele>
        <time>2023-08-06T05:02:23Z</time>
      </trkpt>
      <trkpt lat="50.47943" lon="3.10207">
        <ele>81.8</ele>
        <time>2023-08-06T05:02:24Z</time>
      </trkpt>
      <trkpt lat="50.47951" lon="3.10254">
        <ele>81.6</ele>
        <time>2023-08-06T05:02:28Z</time>
      </trkpt>
      <trkpt lat="50.47955" lon="3.10291">
        <ele>81</ele>
        <time>2023-08-06T05:02:31Z</time>
      </trkpt>
      <trkpt lat="50.47955" lon="3.10304">
        <ele>80.6</ele>
        <time>2023-08-06T05:02:32Z</time>
      </trkpt>
      <trkpt lat="50.47954" lon="3.10317">
        <ele>80.2</ele>
        <time>2023-08-06T05:02:33Z</time>
      </trkpt>
      <trkpt lat="50.47953" lon="3.1033">
        <ele>79.8</ele>
        <time>2023-08-06T05:02:34Z</time>
      </trkpt>
      <trkpt lat="50.47949" lon="3.10369">
        <ele>78.4</ele>
        <time>2023-08-06T05:02:37Z</time>
      </trkpt>
      <trkpt lat="50.47946" lon="3.10393">
        <ele>77.4</ele>
        <time>2023-08-06T05:02:39Z</time>
      </trkpt>
      <trkpt lat="50.47942" lon="3.10415">
        <ele>76.4</ele>
        <time>2023-08-06T05:02:41Z</time>
      </trkpt>
      <trkpt lat="50.47941" lon="3.10425">
        <ele>75.6</ele>
        <time>2023-08-06T05:02:42Z</time>
      </trkpt>
      <trkpt lat="50.47939" lon="3.10434">
        <ele>75.2</ele>
        <time>2023-08-06T05:02:43Z</time>
      </trkpt>
      <trkpt lat="50.47937" lon="3.10443">
        <ele>74.6</ele>
        <time>2023-08-06T05:02:44Z</time>
      </trkpt>
      <trkpt lat="50.47934" lon="3.10449">
        <ele>74.4</ele>
        <time>2023-08-06T05:02:45Z</time>
      </trkpt>
      <trkpt lat="50.47932" lon="3.10455">
        <ele>73.8</ele>
        <time>2023-08-06T05:02:46Z</time>
      </trkpt>
      <trkpt lat="50.4793" lon="3.10461">
        <ele>73.8</ele>
        <time>2023-08-06T05:02:47Z</time>
      </trkpt>
      <trkpt lat="50.4793" lon="3.10467">
        <ele>72.8</ele>
        <time>2023-08-06T05:02:48Z</time>
      </trkpt>
      <trkpt lat="50.47932" lon="3.10473">
        <ele>72.4</ele>
        <time>2023-08-06T05:02:49Z</time>
      </trkpt>
      <trkpt lat="50.47936" lon="3.10476">
        <ele>72.2</ele>
        <time>2023-08-06T05:02:50Z</time>
      </trkpt>
      <trkpt lat="50.4794" lon="3.10476">
        <ele>71.8</ele>
        <time>2023-08-06T05:02:51Z</time>
      </trkpt>
      <trkpt lat="50.47944" lon="3.10473">
        <ele>71.6</ele>
        <time>2023-08-06T05:02:52Z</time>
      </trkpt>
      <trkpt lat="50.47951" lon="3.10466">
        <ele>71.2</ele>
        <time>2023-08-06T05:02:54Z</time>
      </trkpt>
      <trkpt lat="50.47955" lon="3.10465">
        <ele>70.8</ele>
        <time>2023-08-06T05:02:55Z</time>
      </trkpt>
      <trkpt lat="50.47959" lon="3.10465">
        <ele>70.6</ele>
        <time>2023-08-06T05:02:56Z</time>
      </trkpt>
      <trkpt lat="50.47963" lon="3.10465">
        <ele>70.4</ele>
        <time>2023-08-06T05:02:57Z</time>
      </trkpt>
      <trkpt lat="50.47967" lon="3.10465">
        <ele>70.2</ele>
        <time>2023-08-06T05:02:58Z</time>
      </trkpt>
      <trkpt lat="50.47972" lon="3.10464">
        <ele>70.2</ele>
        <time>2023-08-06T05:02:59Z</time>
      </trkpt>
      <trkpt lat="50.47987" lon="3.10461">
        <ele>69.8</ele>
        <time>2023-08-06T05:03:02Z</time>
      </trkpt>
      <trkpt lat="50.48004" lon="3.10458">
        <ele>69.4</ele>
        <time>2023-08-06T05:03:05Z</time>
      </trkpt>
      <trkpt lat="50.48022" lon="3.10455">
        <ele>68.8</ele>
        <time>2023-08-06T05:03:08Z</time>
      </trkpt>
      <trkpt lat="50.48049" lon="3.10451">
        <ele>67.8</ele>
        <time>2023-08-06T05:03:12Z</time>
      </trkpt>
      <trkpt lat="50.48072" lon="3.10448">
        <ele>67</ele>
        <time>2023-08-06T05:03:15Z</time>
      </trkpt>
      <trkpt lat="50.48079" lon="3.10446">
        <ele>66.8</ele>
        <time>2023-08-06T05:03:16Z</time>
      </trkpt>
      <trkpt lat="50.48095" lon="3.10444">
        <ele>66.4</ele>
        <time>2023-08-06T05:03:18Z</time>
      </trkpt>
      <trkpt lat="50.48111" lon="3.10441">
        <ele>65.8</ele>
        <time>2023-08-06T05:03:20Z</time>
      </trkpt>
      <trkpt lat="50.48127" lon="3.10439">
        <ele>65</ele>
        <time>2023-08-06T05:03:22Z</time>
      </trkpt>
      <trkpt lat="50.48136" lon="3.10437">
        <ele>64.4</ele>
        <time>2023-08-06T05:03:23Z</time>
      </trkpt>
      <trkpt lat="50.48168" lon="3.10432">
        <ele>63</ele>
        <time>2023-08-06T05:03:27Z</time>
      </trkpt>
      <trkpt lat="50.48183" lon="3.1043">
        <ele>62.2</ele>
        <time>2023-08-06T05:03:29Z</time>
      </trkpt>
      <trkpt lat="50.4819" lon="3.10428">
        <ele>61.8</ele>
        <time>2023-08-06T05:03:30Z</time>
      </trkpt>
      <trkpt lat="50.48197" lon="3.10428">
        <ele>61.8</ele>
        <time>2023-08-06T05:03:31Z</time>
      </trkpt>
      <trkpt lat="50.48203" lon="3.10427">
        <ele>61.6</ele>
        <time>2023-08-06T05:03:32Z</time>
      </trkpt>
      <trkpt lat="50.48209" lon="3.10426">
        <ele>61.6</ele>
        <time>2023-08-06T05:03:33Z</time>
      </trkpt>
      <trkpt lat="50.48215" lon="3.10425">
        <ele>61.4</ele>
        <time>2023-08-06T05:03:34Z</time>
      </trkpt>
      <trkpt lat="50.48221" lon="3.10424">
        <ele>61.2</ele>
        <time>2023-08-06T05:03:35Z</time>
      </trkpt>
      <trkpt lat="50.48226" lon="3.10423">
        <ele>61.2</ele>
        <time>2023-08-06T05:03:36Z</time>
      </trkpt>
      <trkpt lat="50.48231" lon="3.10422">
        <ele>61.2</ele>
        <time>2023-08-06T05:03:37Z</time>
      </trkpt>
      <trkpt lat="50.48236" lon="3.10421">
        <ele>61.2</ele>
        <time>2023-08-06T05:03:38Z</time>
      </trkpt>
      <trkpt lat="50.4824" lon="3.1042">
        <ele>61.4</ele>
        <time>2023-08-06T05:03:39Z</time>
      </trkpt>
      <trkpt lat="50.48245" lon="3.1042">
        <ele>61.4</ele>
        <time>2023-08-06T05:03:40Z</time>
      </trkpt>
      <trkpt lat="50.48249" lon="3.1042">
        <ele>61.6</ele>
        <time>2023-08-06T05:03:41Z</time>
      </trkpt>
      <trkpt lat="50.48253" lon="3.10419">
        <ele>61.6</ele>
        <time>2023-08-06T05:03:42Z</time>
      </trkpt>
      <trkpt lat="50.48257" lon="3.10419">
        <ele>61.6</ele>
        <time>2023-08-06T05:03:43Z</time>
      </trkpt>
      <trkpt lat="50.4826" lon="3.10418">
        <ele>61.8</ele>
        <time>2023-08-06T05:03:44Z</time>
      </trkpt>
      <trkpt lat="50.48264" lon="3.10417">
        <ele>62</ele>
        <time>2023-08-06T05:03:45Z</time>
      </trkpt>
      <trkpt lat="50.48268" lon="3.10416">
        <ele>62.2</ele>
        <time>2023-08-06T05:03:46Z</time>
      </trkpt>
      <trkpt lat="50.48271" lon="3.10415">
        <ele>62.4</ele>
        <time>2023-08-06T05:03:47Z</time>
      </trkpt>
      <trkpt lat="50.48274" lon="3.10415">
        <ele>62.8</ele>
        <time>2023-08-06T05:03:48Z</time>
      </trkpt>
      <trkpt lat="50.48277" lon="3.10415">
        <ele>62.8</ele>
        <time>2023-08-06T05:03:49Z</time>
      </trkpt>
      <trkpt lat="50.4828" lon="3.10415">
        <ele>62.8</ele>
        <time>2023-08-06T05:03:50Z</time>
      </trkpt>
      <trkpt lat="50.48283" lon="3.10414">
        <ele>63.2</ele>
        <time>2023-08-06T05:03:51Z</time>
      </trkpt>
      <trkpt lat="50.4829" lon="3.10413">
        <ele>63.4</ele>
        <time>2023-08-06T05:03:53Z</time>
      </trkpt>
      <trkpt lat="50.48292" lon="3.10413">
        <ele>63.4</ele>
        <time>2023-08-06T05:03:54Z</time>
      </trkpt>
      <trkpt lat="50.48295" lon="3.10412">
        <ele>63.6</ele>
        <time>2023-08-06T05:03:55Z</time>
      </trkpt>
      <trkpt lat="50.48298" lon="3.10412">
        <ele>63.6</ele>
        <time>2023-08-06T05:03:56Z</time>
      </trkpt>
      <trkpt lat="50.48301" lon="3.10412">
        <ele>63.8</ele>
        <time>2023-08-06T05:03:57Z</time>
      </trkpt>
      <trkpt lat="50.48304" lon="3.10411">
        <ele>64</ele>
        <time>2023-08-06T05:03:58Z</time>
      </trkpt>
      <trkpt lat="50.48307" lon="3.10411">
        <ele>64</ele>
        <time>2023-08-06T05:03:59Z</time>
      </trkpt>
      <trkpt lat="50.4831" lon="3.1041">
        <ele>64.2</ele>
        <time>2023-08-06T05:04:00Z</time>
      </trkpt>
      <trkpt lat="50.48321" lon="3.10409">
        <ele>64.6</ele>
        <time>2023-08-06T05:04:04Z</time>
      </trkpt>
      <trkpt lat="50.48332" lon="3.10407">
        <ele>65</ele>
        <time>2023-08-06T05:04:08Z</time>
      </trkpt>
      <trkpt lat="50.48344" lon="3.10405">
        <ele>65.8</ele>
        <time>2023-08-06T05:04:12Z</time>
      </trkpt>
      <trkpt lat="50.48348" lon="3.10405">
        <ele>65.8</ele>
        <time>2023-08-06T05:04:13Z</time>
      </trkpt>
      <trkpt lat="50.48351" lon="3.10404">
        <ele>65.8</ele>
        <time>2023-08-06T05:04:14Z</time>
      </trkpt>
      <trkpt lat="50.48354" lon="3.10404">
        <ele>65.8</ele>
        <time>2023-08-06T05:04:15Z</time>
      </trkpt>
      <trkpt lat="50.48357" lon="3.10404">
        <ele>65.8</ele>
        <time>2023-08-06T05:04:16Z</time>
      </trkpt>
      <trkpt lat="50.4836" lon="3.10403">
        <ele>65.8</ele>
        <time>2023-08-06T05:04:17Z</time>
      </trkpt>
      <trkpt lat="50.48364" lon="3.10403">
        <ele>66</ele>
        <time>2023-08-06T05:04:18Z</time>
      </trkpt>
      <trkpt lat="50.48367" lon="3.10402">
        <ele>66</ele>
        <time>2023-08-06T05:04:19Z</time>
      </trkpt>
      <trkpt lat="50.4837" lon="3.10402">
        <ele>66</ele>
        <time>2023-08-06T05:04:20Z</time>
      </trkpt>
      <trkpt lat="50.48374" lon="3.10402">
        <ele>66</ele>
        <time>2023-08-06T05:04:21Z</time>
      </trkpt>
      <trkpt lat="50.48377" lon="3.10402">
        <ele>66</ele>
        <time>2023-08-06T05:04:22Z</time>
      </trkpt>
      <trkpt lat="50.4838" lon="3.10401">
        <ele>66</ele>
        <time>2023-08-06T05:04:23Z</time>
      </trkpt>
      <trkpt lat="50.48391" lon="3.104">
        <ele>66</ele>
        <time>2023-08-06T05:04:26Z</time>
      </trkpt>
      <trkpt lat="50.48436" lon="3.10395">
        <ele>66</ele>
        <time>2023-08-06T05:04:38Z</time>
      </trkpt>
      <trkpt lat="50.48477" lon="3.10392">
        <ele>65.8</ele>
        <time>2023-08-06T05:04:47Z</time>
      </trkpt>
      <trkpt lat="50.4852" lon="3.10387">
        <ele>65</ele>
        <time>2023-08-06T05:04:56Z</time>
      </trkpt>
      <trkpt lat="50.48535" lon="3.10386">
        <ele>64.6</ele>
        <time>2023-08-06T05:04:59Z</time>
      </trkpt>
      <trkpt lat="50.48566" lon="3.10383">
        <ele>64</ele>
        <time>2023-08-06T05:05:05Z</time>
      </trkpt>
      <trkpt lat="50.48576" lon="3.10382">
        <ele>63.6</ele>
        <time>2023-08-06T05:05:07Z</time>
      </trkpt>
      <trkpt lat="50.48608" lon="3.10378">
        <ele>62.6</ele>
        <time>2023-08-06T05:05:13Z</time>
      </trkpt>
      <trkpt lat="50.48636" lon="3.10375">
        <ele>61.2</ele>
        <time>2023-08-06T05:05:18Z</time>
      </trkpt>
      <trkpt lat="50.48653" lon="3.10371">
        <ele>60.6</ele>
        <time>2023-08-06T05:05:21Z</time>
      </trkpt>
      <trkpt lat="50.48666" lon="3.10368">
        <ele>59.8</ele>
        <time>2023-08-06T05:05:23Z</time>
      </trkpt>
      <trkpt lat="50.48696" lon="3.10361">
        <ele>59</ele>
        <time>2023-08-06T05:05:28Z</time>
      </trkpt>
      <trkpt lat="50.487" lon="3.10361">
        <ele>58.8</ele>
        <time>2023-08-06T05:05:29Z</time>
      </trkpt>
      <trkpt lat="50.48703" lon="3.10363">
        <ele>58.6</ele>
        <time>2023-08-06T05:05:30Z</time>
      </trkpt>
      <trkpt lat="50.48706" lon="3.10367">
        <ele>58.4</ele>
        <time>2023-08-06T05:05:31Z</time>
      </trkpt>
      <trkpt lat="50.48707" lon="3.10371">
        <ele>58</ele>
        <time>2023-08-06T05:05:32Z</time>
      </trkpt>
      <trkpt lat="50.48708" lon="3.10377">
        <ele>57.8</ele>
        <time>2023-08-06T05:05:33Z</time>
      </trkpt>
      <trkpt lat="50.48709" lon="3.10383">
        <ele>57.6</ele>
        <time>2023-08-06T05:05:34Z</time>
      </trkpt>
      <trkpt lat="50.48711" lon="3.10395">
        <ele>57.2</ele>
        <time>2023-08-06T05:05:36Z</time>
      </trkpt>
      <trkpt lat="50.4872" lon="3.10419">
        <ele>56.6</ele>
        <time>2023-08-06T05:05:40Z</time>
      </trkpt>
      <trkpt lat="50.48722" lon="3.10426">
        <ele>56.6</ele>
        <time>2023-08-06T05:05:41Z</time>
      </trkpt>
      <trkpt lat="50.4873" lon="3.10446">
        <ele>56.2</ele>
        <time>2023-08-06T05:05:44Z</time>
      </trkpt>
      <trkpt lat="50.48737" lon="3.10468">
        <ele>55.4</ele>
        <time>2023-08-06T05:05:47Z</time>
      </trkpt>
      <trkpt lat="50.48746" lon="3.10497">
        <ele>54.4</ele>
        <time>2023-08-06T05:05:51Z</time>
      </trkpt>
      <trkpt lat="50.48749" lon="3.10505">
        <ele>54.2</ele>
        <time>2023-08-06T05:05:52Z</time>
      </trkpt>
      <trkpt lat="50.48774" lon="3.10581">
        <ele>53</ele>
        <time>2023-08-06T05:06:02Z</time>
      </trkpt>
      <trkpt lat="50.48782" lon="3.10605">
        <ele>52.4</ele>
        <time>2023-08-06T05:06:05Z</time>
      </trkpt>
      <trkpt lat="50.48793" lon="3.10637">
        <ele>52</ele>
        <time>2023-08-06T05:06:09Z</time>
      </trkpt>
      <trkpt lat="50.48808" lon="3.10683">
        <ele>51.6</ele>
        <time>2023-08-06T05:06:15Z</time>
      </trkpt>
      <trkpt lat="50.48815" lon="3.10705">
        <ele>51.2</ele>
        <time>2023-08-06T05:06:18Z</time>
      </trkpt>
      <trkpt lat="50.48817" lon="3.10711">
        <ele>51.2</ele>
        <time>2023-08-06T05:06:19Z</time>
      </trkpt>
      <trkpt lat="50.48819" lon="3.10718">
        <ele>51.2</ele>
        <time>2023-08-06T05:06:20Z</time>
      </trkpt>
      <trkpt lat="50.48822" lon="3.10727">
        <ele>51</ele>
        <time>2023-08-06T05:06:21Z</time>
      </trkpt>
      <trkpt lat="50.48825" lon="3.10734">
        <ele>50.8</ele>
        <time>2023-08-06T05:06:22Z</time>
      </trkpt>
      <trkpt lat="50.48837" lon="3.10771">
        <ele>50.4</ele>
        <time>2023-08-06T05:06:27Z</time>
      </trkpt>
      <trkpt lat="50.48841" lon="3.10785">
        <ele>50</ele>
        <time>2023-08-06T05:06:29Z</time>
      </trkpt>
      <trkpt lat="50.48864" lon="3.1085">
        <ele>49.4</ele>
        <time>2023-08-06T05:06:38Z</time>
      </trkpt>
      <trkpt lat="50.48879" lon="3.10884">
        <ele>49.4</ele>
        <time>2023-08-06T05:06:43Z</time>
      </trkpt>
      <trkpt lat="50.48887" lon="3.10903">
        <ele>49</ele>
        <time>2023-08-06T05:06:46Z</time>
      </trkpt>
      <trkpt lat="50.48889" lon="3.10908">
        <ele>49</ele>
        <time>2023-08-06T05:06:47Z</time>
      </trkpt>
      <trkpt lat="50.48893" lon="3.10916">
        <ele>48.8</ele>
        <time>2023-08-06T05:06:48Z</time>
      </trkpt>
      <trkpt lat="50.48923" lon="3.10983">
        <ele>48.6</ele>
        <time>2023-08-06T05:06:58Z</time>
      </trkpt>
      <trkpt lat="50.48945" lon="3.11028">
        <ele>48.4</ele>
        <time>2023-08-06T05:07:05Z</time>
      </trkpt>
      <trkpt lat="50.48948" lon="3.11035">
        <ele>48.4</ele>
        <time>2023-08-06T05:07:06Z</time>
      </trkpt>
      <trkpt lat="50.48951" lon="3.11042">
        <ele>48.4</ele>
        <time>2023-08-06T05:07:07Z</time>
      </trkpt>
      <trkpt lat="50.48983" lon="3.1111">
        <ele>48.6</ele>
        <time>2023-08-06T05:07:17Z</time>
      </trkpt>
      <trkpt lat="50.48986" lon="3.11118">
        <ele>48.6</ele>
        <time>2023-08-06T05:07:18Z</time>
      </trkpt>
      <trkpt lat="50.48999" lon="3.11146">
        <ele>47.8</ele>
        <time>2023-08-06T05:07:22Z</time>
      </trkpt>
      <trkpt lat="50.49016" lon="3.11182">
        <ele>47</ele>
        <time>2023-08-06T05:07:27Z</time>
      </trkpt>
      <trkpt lat="50.49022" lon="3.11196">
        <ele>46.8</ele>
        <time>2023-08-06T05:07:29Z</time>
      </trkpt>
      <trkpt lat="50.49026" lon="3.11202">
        <ele>46.6</ele>
        <time>2023-08-06T05:07:30Z</time>
      </trkpt>
      <trkpt lat="50.49038" lon="3.1123">
        <ele>46.2</ele>
        <time>2023-08-06T05:07:34Z</time>
      </trkpt>
      <trkpt lat="50.49041" lon="3.11237">
        <ele>46.2</ele>
        <time>2023-08-06T05:07:35Z</time>
      </trkpt>
      <trkpt lat="50.49044" lon="3.11244">
        <ele>46</ele>
        <time>2023-08-06T05:07:36Z</time>
      </trkpt>
      <trkpt lat="50.49076" lon="3.11315">
        <ele>45.6</ele>
        <time>2023-08-06T05:07:46Z</time>
      </trkpt>
      <trkpt lat="50.49079" lon="3.11322">
        <ele>45.6</ele>
        <time>2023-08-06T05:07:47Z</time>
      </trkpt>
      <trkpt lat="50.49112" lon="3.11395">
        <ele>44.6</ele>
        <time>2023-08-06T05:07:57Z</time>
      </trkpt>
      <trkpt lat="50.49116" lon="3.11402">
        <ele>44.4</ele>
        <time>2023-08-06T05:07:58Z</time>
      </trkpt>
      <trkpt lat="50.49143" lon="3.11462">
        <ele>43.6</ele>
        <time>2023-08-06T05:08:06Z</time>
      </trkpt>
      <trkpt lat="50.4915" lon="3.11477">
        <ele>43.4</ele>
        <time>2023-08-06T05:08:08Z</time>
      </trkpt>
      <trkpt lat="50.49184" lon="3.11551">
        <ele>42.6</ele>
        <time>2023-08-06T05:08:18Z</time>
      </trkpt>
      <trkpt lat="50.49191" lon="3.11566">
        <ele>42.4</ele>
        <time>2023-08-06T05:08:20Z</time>
      </trkpt>
      <trkpt lat="50.49194" lon="3.11573">
        <ele>42.4</ele>
        <time>2023-08-06T05:08:21Z</time>
      </trkpt>
      <trkpt lat="50.49222" lon="3.11643">
        <ele>42</ele>
        <time>2023-08-06T05:08:30Z</time>
      </trkpt>
      <trkpt lat="50.49227" lon="3.11657">
        <ele>41.6</ele>
        <time>2023-08-06T05:08:32Z</time>
      </trkpt>
      <trkpt lat="50.49229" lon="3.11663">
        <ele>41.4</ele>
        <time>2023-08-06T05:08:33Z</time>
      </trkpt>
      <trkpt lat="50.49232" lon="3.11671">
        <ele>41.4</ele>
        <time>2023-08-06T05:08:34Z</time>
      </trkpt>
      <trkpt lat="50.49234" lon="3.11677">
        <ele>41.2</ele>
        <time>2023-08-06T05:08:35Z</time>
      </trkpt>
      <trkpt lat="50.49236" lon="3.11683">
        <ele>41.2</ele>
        <time>2023-08-06T05:08:36Z</time>
      </trkpt>
      <trkpt lat="50.49237" lon="3.11689">
        <ele>41.2</ele>
        <time>2023-08-06T05:08:37Z</time>
      </trkpt>
      <trkpt lat="50.49237" lon="3.11702">
        <ele>41</ele>
        <time>2023-08-06T05:08:39Z</time>
      </trkpt>
      <trkpt lat="50.49235" lon="3.11706">
        <ele>40.8</ele>
        <time>2023-08-06T05:08:40Z</time>
      </trkpt>
      <trkpt lat="50.49232" lon="3.11709">
        <ele>40.6</ele>
        <time>2023-08-06T05:08:41Z</time>
      </trkpt>
      <trkpt lat="50.49229" lon="3.11711">
        <ele>40.6</ele>
        <time>2023-08-06T05:08:42Z</time>
      </trkpt>
      <trkpt lat="50.49226" lon="3.11712">
        <ele>40.6</ele>
        <time>2023-08-06T05:08:43Z</time>
      </trkpt>
      <trkpt lat="50.49222" lon="3.11714">
        <ele>40.6</ele>
        <time>2023-08-06T05:08:44Z</time>
      </trkpt>
      <trkpt lat="50.49197" lon="3.11729">
        <ele>40.8</ele>
        <time>2023-08-06T05:08:51Z</time>
      </trkpt>
      <trkpt lat="50.49151" lon="3.11756">
        <ele>41.6</ele>
        <time>2023-08-06T05:09:03Z</time>
      </trkpt>
      <trkpt lat="50.49123" lon="3.11771">
        <ele>42.2</ele>
        <time>2023-08-06T05:09:10Z</time>
      </trkpt>
      <trkpt lat="50.49106" lon="3.11778">
        <ele>42.6</ele>
        <time>2023-08-06T05:09:14Z</time>
      </trkpt>
      <trkpt lat="50.49076" lon="3.1179">
        <ele>43.2</ele>
        <time>2023-08-06T05:09:21Z</time>
      </trkpt>
      <trkpt lat="50.49069" lon="3.11794">
        <ele>43.6</ele>
        <time>2023-08-06T05:09:23Z</time>
      </trkpt>
      <trkpt lat="50.49046" lon="3.11821">
        <ele>44</ele>
        <time>2023-08-06T05:09:29Z</time>
      </trkpt>
      <trkpt lat="50.49014" lon="3.11874">
        <ele>42.6</ele>
        <time>2023-08-06T05:09:38Z</time>
      </trkpt>
      <trkpt lat="50.4898" lon="3.11929">
        <ele>42.2</ele>
        <time>2023-08-06T05:09:47Z</time>
      </trkpt>
      <trkpt lat="50.48976" lon="3.11934">
        <ele>42.2</ele>
        <time>2023-08-06T05:09:48Z</time>
      </trkpt>
      <trkpt lat="50.4895" lon="3.1197">
        <ele>41.2</ele>
        <time>2023-08-06T05:09:54Z</time>
      </trkpt>
      <trkpt lat="50.48937" lon="3.11988">
        <ele>41</ele>
        <time>2023-08-06T05:09:57Z</time>
      </trkpt>
      <trkpt lat="50.48908" lon="3.12026">
        <ele>40.6</ele>
        <time>2023-08-06T05:10:04Z</time>
      </trkpt>
      <trkpt lat="50.48891" lon="3.12048">
        <ele>40.2</ele>
        <time>2023-08-06T05:10:08Z</time>
      </trkpt>
      <trkpt lat="50.48883" lon="3.1206">
        <ele>40</ele>
        <time>2023-08-06T05:10:10Z</time>
      </trkpt>
      <trkpt lat="50.48848" lon="3.121">
        <ele>40.2</ele>
        <time>2023-08-06T05:10:18Z</time>
      </trkpt>
      <trkpt lat="50.48829" lon="3.12111">
        <ele>40</ele>
        <time>2023-08-06T05:10:22Z</time>
      </trkpt>
      <trkpt lat="50.48823" lon="3.12112">
        <ele>40</ele>
        <time>2023-08-06T05:10:23Z</time>
      </trkpt>
      <trkpt lat="50.48818" lon="3.12113">
        <ele>40</ele>
        <time>2023-08-06T05:10:24Z</time>
      </trkpt>
      <trkpt lat="50.48813" lon="3.12114">
        <ele>40</ele>
        <time>2023-08-06T05:10:25Z</time>
      </trkpt>
      <trkpt lat="50.48808" lon="3.12115">
        <ele>40</ele>
        <time>2023-08-06T05:10:26Z</time>
      </trkpt>
      <trkpt lat="50.48804" lon="3.12116">
        <ele>40</ele>
        <time>2023-08-06T05:10:27Z</time>
      </trkpt>
      <trkpt lat="50.48798" lon="3.12116">
        <ele>40</ele>
        <time>2023-08-06T05:10:28Z</time>
      </trkpt>
      <trkpt lat="50.48793" lon="3.12116">
        <ele>39.8</ele>
        <time>2023-08-06T05:10:29Z</time>
      </trkpt>
      <trkpt lat="50.48787" lon="3.12115">
        <ele>39.8</ele>
        <time>2023-08-06T05:10:30Z</time>
      </trkpt>
      <trkpt lat="50.48778" lon="3.12114">
        <ele>39.6</ele>
        <time>2023-08-06T05:10:32Z</time>
      </trkpt>
      <trkpt lat="50.48767" lon="3.12113">
        <ele>39.8</ele>
        <time>2023-08-06T05:10:34Z</time>
      </trkpt>
      <trkpt lat="50.48763" lon="3.12112">
        <ele>39.8</ele>
        <time>2023-08-06T05:10:35Z</time>
      </trkpt>
      <trkpt lat="50.48759" lon="3.12111">
        <ele>39.8</ele>
        <time>2023-08-06T05:10:36Z</time>
      </trkpt>
      <trkpt lat="50.48748" lon="3.1211">
        <ele>39.8</ele>
        <time>2023-08-06T05:10:38Z</time>
      </trkpt>
      <trkpt lat="50.48744" lon="3.1211">
        <ele>39.8</ele>
        <time>2023-08-06T05:10:39Z</time>
      </trkpt>
      <trkpt lat="50.48739" lon="3.1211">
        <ele>39.8</ele>
        <time>2023-08-06T05:10:40Z</time>
      </trkpt>
      <trkpt lat="50.48735" lon="3.12109">
        <ele>39.8</ele>
        <time>2023-08-06T05:10:41Z</time>
      </trkpt>
      <trkpt lat="50.4873" lon="3.12109">
        <ele>39.8</ele>
        <time>2023-08-06T05:10:42Z</time>
      </trkpt>
      <trkpt lat="50.48725" lon="3.12108">
        <ele>39.8</ele>
        <time>2023-08-06T05:10:43Z</time>
      </trkpt>
      <trkpt lat="50.48721" lon="3.12108">
        <ele>40</ele>
        <time>2023-08-06T05:10:44Z</time>
      </trkpt>
      <trkpt lat="50.48716" lon="3.12107">
        <ele>40</ele>
        <time>2023-08-06T05:10:45Z</time>
      </trkpt>
      <trkpt lat="50.48712" lon="3.12106">
        <ele>40</ele>
        <time>2023-08-06T05:10:46Z</time>
      </trkpt>
      <trkpt lat="50.48703" lon="3.12106">
        <ele>39.8</ele>
        <time>2023-08-06T05:10:48Z</time>
      </trkpt>
      <trkpt lat="50.48698" lon="3.12106">
        <ele>40</ele>
        <time>2023-08-06T05:10:49Z</time>
      </trkpt>
      <trkpt lat="50.48689" lon="3.12107">
        <ele>40</ele>
        <time>2023-08-06T05:10:51Z</time>
      </trkpt>
      <trkpt lat="50.48685" lon="3.12108">
        <ele>40</ele>
        <time>2023-08-06T05:10:52Z</time>
      </trkpt>
      <trkpt lat="50.48681" lon="3.12109">
        <ele>40</ele>
        <time>2023-08-06T05:10:53Z</time>
      </trkpt>
      <trkpt lat="50.48676" lon="3.12109">
        <ele>40</ele>
        <time>2023-08-06T05:10:54Z</time>
      </trkpt>
      <trkpt lat="50.48672" lon="3.1211">
        <ele>40</ele>
        <time>2023-08-06T05:10:55Z</time>
      </trkpt>
      <trkpt lat="50.48667" lon="3.12111">
        <ele>40</ele>
        <time>2023-08-06T05:10:56Z</time>
      </trkpt>
      <trkpt lat="50.48663" lon="3.12112">
        <ele>40</ele>
        <time>2023-08-06T05:10:57Z</time>
      </trkpt>
      <trkpt lat="50.48659" lon="3.12113">
        <ele>40.2</ele>
        <time>2023-08-06T05:10:58Z</time>
      </trkpt>
      <trkpt lat="50.4865" lon="3.12115">
        <ele>40.6</ele>
        <time>2023-08-06T05:11:00Z</time>
      </trkpt>
      <trkpt lat="50.48641" lon="3.12117">
        <ele>40.8</ele>
        <time>2023-08-06T05:11:02Z</time>
      </trkpt>
      <trkpt lat="50.48629" lon="3.1212">
        <ele>41.4</ele>
        <time>2023-08-06T05:11:05Z</time>
      </trkpt>
      <trkpt lat="50.48625" lon="3.1212">
        <ele>41.6</ele>
        <time>2023-08-06T05:11:06Z</time>
      </trkpt>
      <trkpt lat="50.48621" lon="3.12121">
        <ele>41.6</ele>
        <time>2023-08-06T05:11:07Z</time>
      </trkpt>
      <trkpt lat="50.48617" lon="3.12122">
        <ele>41.6</ele>
        <time>2023-08-06T05:11:08Z</time>
      </trkpt>
      <trkpt lat="50.48613" lon="3.12125">
        <ele>41.6</ele>
        <time>2023-08-06T05:11:09Z</time>
      </trkpt>
      <trkpt lat="50.4861" lon="3.12128">
        <ele>41.6</ele>
        <time>2023-08-06T05:11:10Z</time>
      </trkpt>
      <trkpt lat="50.48609" lon="3.12134">
        <ele>41.8</ele>
        <time>2023-08-06T05:11:11Z</time>
      </trkpt>
      <trkpt lat="50.4861" lon="3.12139">
        <ele>41.8</ele>
        <time>2023-08-06T05:11:12Z</time>
      </trkpt>
      <trkpt lat="50.48612" lon="3.12142">
        <ele>41.8</ele>
        <time>2023-08-06T05:11:13Z</time>
      </trkpt>
      <trkpt lat="50.48615" lon="3.12147">
        <ele>41.8</ele>
        <time>2023-08-06T05:11:14Z</time>
      </trkpt>
      <trkpt lat="50.48618" lon="3.12151">
        <ele>41.8</ele>
        <time>2023-08-06T05:11:15Z</time>
      </trkpt>
      <trkpt lat="50.48621" lon="3.12156">
        <ele>41.8</ele>
        <time>2023-08-06T05:11:16Z</time>
      </trkpt>
      <trkpt lat="50.48624" lon="3.1216">
        <ele>41.6</ele>
        <time>2023-08-06T05:11:17Z</time>
      </trkpt>
      <trkpt lat="50.48633" lon="3.12176">
        <ele>41.4</ele>
        <time>2023-08-06T05:11:20Z</time>
      </trkpt>
      <trkpt lat="50.4865" lon="3.12199">
        <ele>41</ele>
        <time>2023-08-06T05:11:25Z</time>
      </trkpt>
      <trkpt lat="50.48657" lon="3.12209">
        <ele>41</ele>
        <time>2023-08-06T05:11:27Z</time>
      </trkpt>
      <trkpt lat="50.48683" lon="3.12248">
        <ele>41.2</ele>
        <time>2023-08-06T05:11:35Z</time>
      </trkpt>
      <trkpt lat="50.48706" lon="3.12282">
        <ele>41.6</ele>
        <time>2023-08-06T05:11:42Z</time>
      </trkpt>
      <trkpt lat="50.48712" lon="3.12292">
        <ele>41.8</ele>
        <time>2023-08-06T05:11:44Z</time>
      </trkpt>
      <trkpt lat="50.48715" lon="3.12295">
        <ele>42</ele>
        <time>2023-08-06T05:11:45Z</time>
      </trkpt>
      <trkpt lat="50.48722" lon="3.12306">
        <ele>42.4</ele>
        <time>2023-08-06T05:11:47Z</time>
      </trkpt>
      <trkpt lat="50.48725" lon="3.12311">
        <ele>42.4</ele>
        <time>2023-08-06T05:11:48Z</time>
      </trkpt>
      <trkpt lat="50.48745" lon="3.12339">
        <ele>43.2</ele>
        <time>2023-08-06T05:11:54Z</time>
      </trkpt>
      <trkpt lat="50.48758" lon="3.12356">
        <ele>43.4</ele>
        <time>2023-08-06T05:11:58Z</time>
      </trkpt>
      <trkpt lat="50.48792" lon="3.12405">
        <ele>44.2</ele>
        <time>2023-08-06T05:12:08Z</time>
      </trkpt>
      <trkpt lat="50.48796" lon="3.1241">
        <ele>44</ele>
        <time>2023-08-06T05:12:09Z</time>
      </trkpt>
      <trkpt lat="50.48827" lon="3.12457">
        <ele>44.2</ele>
        <time>2023-08-06T05:12:18Z</time>
      </trkpt>
      <trkpt lat="50.48863" lon="3.12507">
        <ele>43.8</ele>
        <time>2023-08-06T05:12:28Z</time>
      </trkpt>
      <trkpt lat="50.48895" lon="3.12538">
        <ele>44</ele>
        <time>2023-08-06T05:12:36Z</time>
      </trkpt>
      <trkpt lat="50.48899" lon="3.12542">
        <ele>43.8</ele>
        <time>2023-08-06T05:12:37Z</time>
      </trkpt>
      <trkpt lat="50.48904" lon="3.12545">
        <ele>44</ele>
        <time>2023-08-06T05:12:38Z</time>
      </trkpt>
      <trkpt lat="50.48943" lon="3.12582">
        <ele>43.6</ele>
        <time>2023-08-06T05:12:48Z</time>
      </trkpt>
      <trkpt lat="50.48951" lon="3.12591">
        <ele>43.6</ele>
        <time>2023-08-06T05:12:50Z</time>
      </trkpt>
      <trkpt lat="50.48954" lon="3.12595">
        <ele>43.6</ele>
        <time>2023-08-06T05:12:51Z</time>
      </trkpt>
      <trkpt lat="50.48957" lon="3.12599">
        <ele>43.6</ele>
        <time>2023-08-06T05:12:52Z</time>
      </trkpt>
      <trkpt lat="50.48961" lon="3.12603">
        <ele>43.4</ele>
        <time>2023-08-06T05:12:53Z</time>
      </trkpt>
      <trkpt lat="50.48964" lon="3.12607">
        <ele>43.4</ele>
        <time>2023-08-06T05:12:54Z</time>
      </trkpt>
      <trkpt lat="50.48968" lon="3.12612">
        <ele>43.4</ele>
        <time>2023-08-06T05:12:55Z</time>
      </trkpt>
      <trkpt lat="50.48971" lon="3.12615">
        <ele>43.2</ele>
        <time>2023-08-06T05:12:56Z</time>
      </trkpt>
      <trkpt lat="50.48975" lon="3.12619">
        <ele>43.2</ele>
        <time>2023-08-06T05:12:57Z</time>
      </trkpt>
      <trkpt lat="50.48979" lon="3.12623">
        <ele>43</ele>
        <time>2023-08-06T05:12:58Z</time>
      </trkpt>
      <trkpt lat="50.48982" lon="3.12627">
        <ele>43</ele>
        <time>2023-08-06T05:12:59Z</time>
      </trkpt>
      <trkpt lat="50.48986" lon="3.12631">
        <ele>43</ele>
        <time>2023-08-06T05:13:00Z</time>
      </trkpt>
      <trkpt lat="50.49017" lon="3.12667">
        <ele>42.6</ele>
        <time>2023-08-06T05:13:09Z</time>
      </trkpt>
      <trkpt lat="50.49021" lon="3.12671">
        <ele>42.4</ele>
        <time>2023-08-06T05:13:10Z</time>
      </trkpt>
      <trkpt lat="50.49024" lon="3.12675">
        <ele>42.4</ele>
        <time>2023-08-06T05:13:11Z</time>
      </trkpt>
      <trkpt lat="50.49027" lon="3.12678">
        <ele>42.4</ele>
        <time>2023-08-06T05:13:12Z</time>
      </trkpt>
      <trkpt lat="50.49031" lon="3.12684">
        <ele>42.2</ele>
        <time>2023-08-06T05:13:13Z</time>
      </trkpt>
      <trkpt lat="50.49052" lon="3.12709">
        <ele>42.2</ele>
        <time>2023-08-06T05:13:19Z</time>
      </trkpt>
      <trkpt lat="50.49059" lon="3.12716">
        <ele>42</ele>
        <time>2023-08-06T05:13:21Z</time>
      </trkpt>
      <trkpt lat="50.49089" lon="3.12736">
        <ele>41.8</ele>
        <time>2023-08-06T05:13:28Z</time>
      </trkpt>
      <trkpt lat="50.4911" lon="3.12747">
        <ele>41</ele>
        <time>2023-08-06T05:13:33Z</time>
      </trkpt>
      <trkpt lat="50.49114" lon="3.12749">
        <ele>41.2</ele>
        <time>2023-08-06T05:13:34Z</time>
      </trkpt>
      <trkpt lat="50.49131" lon="3.12757">
        <ele>41</ele>
        <time>2023-08-06T05:13:38Z</time>
      </trkpt>
      <trkpt lat="50.49135" lon="3.12759">
        <ele>40.8</ele>
        <time>2023-08-06T05:13:39Z</time>
      </trkpt>
      <trkpt lat="50.49138" lon="3.12761">
        <ele>40.8</ele>
        <time>2023-08-06T05:13:40Z</time>
      </trkpt>
      <trkpt lat="50.49143" lon="3.12764">
        <ele>40.8</ele>
        <time>2023-08-06T05:13:41Z</time>
      </trkpt>
      <trkpt lat="50.49147" lon="3.12766">
        <ele>40.6</ele>
        <time>2023-08-06T05:13:42Z</time>
      </trkpt>
      <trkpt lat="50.4915" lon="3.12768">
        <ele>40.6</ele>
        <time>2023-08-06T05:13:43Z</time>
      </trkpt>
      <trkpt lat="50.49153" lon="3.1277">
        <ele>40.4</ele>
        <time>2023-08-06T05:13:44Z</time>
      </trkpt>
      <trkpt lat="50.49158" lon="3.12773">
        <ele>40.4</ele>
        <time>2023-08-06T05:13:45Z</time>
      </trkpt>
      <trkpt lat="50.49169" lon="3.1278">
        <ele>40</ele>
        <time>2023-08-06T05:13:48Z</time>
      </trkpt>
      <trkpt lat="50.49172" lon="3.12783">
        <ele>39.8</ele>
        <time>2023-08-06T05:13:49Z</time>
      </trkpt>
      <trkpt lat="50.49177" lon="3.12788">
        <ele>39.8</ele>
        <time>2023-08-06T05:13:50Z</time>
      </trkpt>
      <trkpt lat="50.4918" lon="3.12791">
        <ele>39.8</ele>
        <time>2023-08-06T05:13:51Z</time>
      </trkpt>
      <trkpt lat="50.49184" lon="3.12795">
        <ele>39.8</ele>
        <time>2023-08-06T05:13:52Z</time>
      </trkpt>
      <trkpt lat="50.49197" lon="3.12812">
        <ele>39.6</ele>
        <time>2023-08-06T05:13:56Z</time>
      </trkpt>
      <trkpt lat="50.49219" lon="3.12851">
        <ele>39.2</ele>
        <time>2023-08-06T05:14:04Z</time>
      </trkpt>
      <trkpt lat="50.49221" lon="3.12856">
        <ele>39.4</ele>
        <time>2023-08-06T05:14:05Z</time>
      </trkpt>
      <trkpt lat="50.49229" lon="3.12878">
        <ele>39.6</ele>
        <time>2023-08-06T05:14:09Z</time>
      </trkpt>
      <trkpt lat="50.49232" lon="3.1289">
        <ele>39.6</ele>
        <time>2023-08-06T05:14:11Z</time>
      </trkpt>
      <trkpt lat="50.49233" lon="3.12894">
        <ele>39.8</ele>
        <time>2023-08-06T05:14:12Z</time>
      </trkpt>
      <trkpt lat="50.49234" lon="3.12901">
        <ele>39.8</ele>
        <time>2023-08-06T05:14:13Z</time>
      </trkpt>
      <trkpt lat="50.49235" lon="3.12907">
        <ele>39.8</ele>
        <time>2023-08-06T05:14:14Z</time>
      </trkpt>
      <trkpt lat="50.49236" lon="3.12913">
        <ele>40</ele>
        <time>2023-08-06T05:14:15Z</time>
      </trkpt>
      <trkpt lat="50.49237" lon="3.12918">
        <ele>40</ele>
        <time>2023-08-06T05:14:16Z</time>
      </trkpt>
      <trkpt lat="50.49238" lon="3.12925">
        <ele>40.2</ele>
        <time>2023-08-06T05:14:17Z</time>
      </trkpt>
      <trkpt lat="50.49239" lon="3.1293">
        <ele>40.2</ele>
        <time>2023-08-06T05:14:18Z</time>
      </trkpt>
      <trkpt lat="50.49239" lon="3.12936">
        <ele>40.2</ele>
        <time>2023-08-06T05:14:19Z</time>
      </trkpt>
      <trkpt lat="50.4924" lon="3.12941">
        <ele>40.2</ele>
        <time>2023-08-06T05:14:20Z</time>
      </trkpt>
      <trkpt lat="50.4924" lon="3.12946">
        <ele>40.2</ele>
        <time>2023-08-06T05:14:21Z</time>
      </trkpt>
      <trkpt lat="50.49241" lon="3.12953">
        <ele>40.4</ele>
        <time>2023-08-06T05:14:22Z</time>
      </trkpt>
      <trkpt lat="50.49242" lon="3.12958">
        <ele>40.4</ele>
        <time>2023-08-06T05:14:23Z</time>
      </trkpt>
      <trkpt lat="50.49242" lon="3.12963">
        <ele>40.6</ele>
        <time>2023-08-06T05:14:24Z</time>
      </trkpt>
      <trkpt lat="50.49243" lon="3.12968">
        <ele>41</ele>
        <time>2023-08-06T05:14:25Z</time>
      </trkpt>
      <trkpt lat="50.49244" lon="3.12974">
        <ele>41</ele>
        <time>2023-08-06T05:14:26Z</time>
      </trkpt>
      <trkpt lat="50.49245" lon="3.1298">
        <ele>40.8</ele>
        <time>2023-08-06T05:14:27Z</time>
      </trkpt>
      <trkpt lat="50.49245" lon="3.12986">
        <ele>41</ele>
        <time>2023-08-06T05:14:28Z</time>
      </trkpt>
      <trkpt lat="50.49247" lon="3.12996">
        <ele>41.2</ele>
        <time>2023-08-06T05:14:30Z</time>
      </trkpt>
      <trkpt lat="50.4925" lon="3.13023">
        <ele>41.4</ele>
        <time>2023-08-06T05:14:35Z</time>
      </trkpt>
      <trkpt lat="50.4925" lon="3.13028">
        <ele>41.4</ele>
        <time>2023-08-06T05:14:36Z</time>
      </trkpt>
      <trkpt lat="50.49251" lon="3.13033">
        <ele>41.4</ele>
        <time>2023-08-06T05:14:37Z</time>
      </trkpt>
      <trkpt lat="50.49251" lon="3.13037">
        <ele>41.6</ele>
        <time>2023-08-06T05:14:38Z</time>
      </trkpt>
      <trkpt lat="50.49252" lon="3.13042">
        <ele>41.8</ele>
        <time>2023-08-06T05:14:39Z</time>
      </trkpt>
      <trkpt lat="50.49252" lon="3.13047">
        <ele>41.8</ele>
        <time>2023-08-06T05:14:40Z</time>
      </trkpt>
      <trkpt lat="50.49253" lon="3.13052">
        <ele>41.8</ele>
        <time>2023-08-06T05:14:41Z</time>
      </trkpt>
      <trkpt lat="50.49253" lon="3.13056">
        <ele>41.8</ele>
        <time>2023-08-06T05:14:42Z</time>
      </trkpt>
      <trkpt lat="50.49254" lon="3.1306">
        <ele>42</ele>
        <time>2023-08-06T05:14:43Z</time>
      </trkpt>
      <trkpt lat="50.49255" lon="3.13063">
        <ele>42.2</ele>
        <time>2023-08-06T05:14:44Z</time>
      </trkpt>
      <trkpt lat="50.49256" lon="3.13067">
        <ele>42.4</ele>
        <time>2023-08-06T05:14:45Z</time>
      </trkpt>
      <trkpt lat="50.49257" lon="3.1307">
        <ele>42.4</ele>
        <time>2023-08-06T05:14:46Z</time>
      </trkpt>
      <trkpt lat="50.49258" lon="3.13072">
        <ele>42.4</ele>
        <time>2023-08-06T05:14:47Z</time>
      </trkpt>
      <trkpt lat="50.49258" lon="3.13074">
        <ele>42.4</ele>
        <time>2023-08-06T05:14:48Z</time>
      </trkpt>
      <trkpt lat="50.49259" lon="3.13076">
        <ele>42.4</ele>
        <time>2023-08-06T05:14:49Z</time>
      </trkpt>
      <trkpt lat="50.49259" lon="3.13076">
        <ele>42.4</ele>
        <time>2023-08-06T05:14:50Z</time>
      </trkpt>
      <trkpt lat="50.49259" lon="3.13076">
        <ele>42.4</ele>
        <time>2023-08-06T05:14:51Z</time>
      </trkpt>
      <trkpt lat="50.49259" lon="3.13076">
        <ele>42.4</ele>
        <time>2023-08-06T05:14:52Z</time>
      </trkpt>
      <trkpt lat="50.49258" lon="3.13112">
        <ele>41.8</ele>
        <time>2023-08-06T05:19:46Z</time>
      </trkpt>
      <trkpt lat="50.49258" lon="3.13116">
        <ele>42</ele>
        <time>2023-08-06T05:19:48Z</time>
      </trkpt>
      <trkpt lat="50.49258" lon="3.13117">
        <ele>42</ele>
        <time>2023-08-06T05:19:49Z</time>
      </trkpt>
      <trkpt lat="50.49257" lon="3.1312">
        <ele>42.2</ele>
        <time>2023-08-06T05:19:51Z</time>
      </trkpt>
      <trkpt lat="50.49256" lon="3.13121">
        <ele>42.2</ele>
        <time>2023-08-06T05:19:52Z</time>
      </trkpt>
      <trkpt lat="50.49255" lon="3.13121">
        <ele>42.2</ele>
        <time>2023-08-06T05:19:53Z</time>
      </trkpt>
      <trkpt lat="50.49255" lon="3.13121">
        <ele>42.4</ele>
        <time>2023-08-06T05:19:54Z</time>
      </trkpt>
      <trkpt lat="50.49255" lon="3.13121">
        <ele>42.4</ele>
        <time>2023-08-06T05:19:55Z</time>
      </trkpt>
      <trkpt lat="50.49255" lon="3.13121">
        <ele>42.4</ele>
        <time>2023-08-06T05:19:56Z</time>
      </trkpt>
      <trkpt lat="50.49246" lon="3.13125">
        <ele>42.8</ele>
        <time>2023-08-06T05:20:04Z</time>
      </trkpt>
      <trkpt lat="50.49241" lon="3.13126">
        <ele>42.8</ele>
        <time>2023-08-06T05:20:06Z</time>
      </trkpt>
      <trkpt lat="50.49232" lon="3.13129">
        <ele>43</ele>
        <time>2023-08-06T05:20:10Z</time>
      </trkpt>
      <trkpt lat="50.49229" lon="3.1313">
        <ele>43</ele>
        <time>2023-08-06T05:20:11Z</time>
      </trkpt>
      <trkpt lat="50.49225" lon="3.13133">
        <ele>43</ele>
        <time>2023-08-06T05:20:13Z</time>
      </trkpt>
      <trkpt lat="50.49214" lon="3.13138">
        <ele>43.2</ele>
        <time>2023-08-06T05:20:18Z</time>
      </trkpt>
      <trkpt lat="50.49202" lon="3.13143">
        <ele>43.4</ele>
        <time>2023-08-06T05:20:22Z</time>
      </trkpt>
      <trkpt lat="50.49172" lon="3.13161">
        <ele>43.4</ele>
        <time>2023-08-06T05:20:32Z</time>
      </trkpt>
      <trkpt lat="50.49143" lon="3.13183">
        <ele>43</ele>
        <time>2023-08-06T05:20:41Z</time>
      </trkpt>
      <trkpt lat="50.49103" lon="3.13214">
        <ele>42.8</ele>
        <time>2023-08-06T05:20:52Z</time>
      </trkpt>
      <trkpt lat="50.49069" lon="3.1324">
        <ele>42.6</ele>
        <time>2023-08-06T05:21:01Z</time>
      </trkpt>
      <trkpt lat="50.4906" lon="3.13247">
        <ele>42.6</ele>
        <time>2023-08-06T05:21:03Z</time>
      </trkpt>
      <trkpt lat="50.49017" lon="3.1328">
        <ele>42.4</ele>
        <time>2023-08-06T05:21:13Z</time>
      </trkpt>
      <trkpt lat="50.48972" lon="3.13313">
        <ele>42.2</ele>
        <time>2023-08-06T05:21:23Z</time>
      </trkpt>
      <trkpt lat="50.48938" lon="3.13334">
        <ele>42</ele>
        <time>2023-08-06T05:21:30Z</time>
      </trkpt>
      <trkpt lat="50.48919" lon="3.13346">
        <ele>42</ele>
        <time>2023-08-06T05:21:34Z</time>
      </trkpt>
      <trkpt lat="50.48877" lon="3.13368">
        <ele>41.8</ele>
        <time>2023-08-06T05:21:43Z</time>
      </trkpt>
      <trkpt lat="50.48873" lon="3.1337">
        <ele>41.8</ele>
        <time>2023-08-06T05:21:44Z</time>
      </trkpt>
      <trkpt lat="50.48869" lon="3.13372">
        <ele>41.8</ele>
        <time>2023-08-06T05:21:45Z</time>
      </trkpt>
      <trkpt lat="50.48864" lon="3.13374">
        <ele>41.8</ele>
        <time>2023-08-06T05:21:46Z</time>
      </trkpt>
      <trkpt lat="50.4886" lon="3.13376">
        <ele>41.8</ele>
        <time>2023-08-06T05:21:47Z</time>
      </trkpt>
      <trkpt lat="50.48856" lon="3.13379">
        <ele>41.8</ele>
        <time>2023-08-06T05:21:48Z</time>
      </trkpt>
      <trkpt lat="50.48851" lon="3.13382">
        <ele>41.8</ele>
        <time>2023-08-06T05:21:49Z</time>
      </trkpt>
      <trkpt lat="50.48847" lon="3.13385">
        <ele>41.8</ele>
        <time>2023-08-06T05:21:50Z</time>
      </trkpt>
      <trkpt lat="50.48843" lon="3.13388">
        <ele>42</ele>
        <time>2023-08-06T05:21:51Z</time>
      </trkpt>
      <trkpt lat="50.48835" lon="3.13392">
        <ele>42</ele>
        <time>2023-08-06T05:21:53Z</time>
      </trkpt>
      <trkpt lat="50.48791" lon="3.13416">
        <ele>42.4</ele>
        <time>2023-08-06T05:22:03Z</time>
      </trkpt>
      <trkpt lat="50.4877" lon="3.13427">
        <ele>42.4</ele>
        <time>2023-08-06T05:22:08Z</time>
      </trkpt>
      <trkpt lat="50.48767" lon="3.1343">
        <ele>42.4</ele>
        <time>2023-08-06T05:22:09Z</time>
      </trkpt>
      <trkpt lat="50.48763" lon="3.13432">
        <ele>42.4</ele>
        <time>2023-08-06T05:22:10Z</time>
      </trkpt>
      <trkpt lat="50.48759" lon="3.13434">
        <ele>42.4</ele>
        <time>2023-08-06T05:22:11Z</time>
      </trkpt>
      <trkpt lat="50.48755" lon="3.13436">
        <ele>42.4</ele>
        <time>2023-08-06T05:22:12Z</time>
      </trkpt>
      <trkpt lat="50.48751" lon="3.13438">
        <ele>42.4</ele>
        <time>2023-08-06T05:22:13Z</time>
      </trkpt>
      <trkpt lat="50.48746" lon="3.13441">
        <ele>42.4</ele>
        <time>2023-08-06T05:22:14Z</time>
      </trkpt>
      <trkpt lat="50.48714" lon="3.13456">
        <ele>42.8</ele>
        <time>2023-08-06T05:22:22Z</time>
      </trkpt>
      <trkpt lat="50.48709" lon="3.13458">
        <ele>42.8</ele>
        <time>2023-08-06T05:22:23Z</time>
      </trkpt>
      <trkpt lat="50.48704" lon="3.13459">
        <ele>43</ele>
        <time>2023-08-06T05:22:24Z</time>
      </trkpt>
      <trkpt lat="50.487" lon="3.13461">
        <ele>43</ele>
        <time>2023-08-06T05:22:25Z</time>
      </trkpt>
      <trkpt lat="50.48676" lon="3.13469">
        <ele>43.4</ele>
        <time>2023-08-06T05:22:31Z</time>
      </trkpt>
      <trkpt lat="50.48672" lon="3.13471">
        <ele>43.4</ele>
        <time>2023-08-06T05:22:32Z</time>
      </trkpt>
      <trkpt lat="50.4866" lon="3.13475">
        <ele>43.6</ele>
        <time>2023-08-06T05:22:35Z</time>
      </trkpt>
      <trkpt lat="50.48647" lon="3.13478">
        <ele>43.8</ele>
        <time>2023-08-06T05:22:38Z</time>
      </trkpt>
      <trkpt lat="50.4863" lon="3.13481">
        <ele>44</ele>
        <time>2023-08-06T05:22:42Z</time>
      </trkpt>
      <trkpt lat="50.48626" lon="3.13482">
        <ele>44</ele>
        <time>2023-08-06T05:22:43Z</time>
      </trkpt>
      <trkpt lat="50.48606" lon="3.13486">
        <ele>44.2</ele>
        <time>2023-08-06T05:22:48Z</time>
      </trkpt>
      <trkpt lat="50.48602" lon="3.13487">
        <ele>44.4</ele>
        <time>2023-08-06T05:22:49Z</time>
      </trkpt>
      <trkpt lat="50.48596" lon="3.13492">
        <ele>44.6</ele>
        <time>2023-08-06T05:22:51Z</time>
      </trkpt>
      <trkpt lat="50.48593" lon="3.13497">
        <ele>44.6</ele>
        <time>2023-08-06T05:22:52Z</time>
      </trkpt>
      <trkpt lat="50.48591" lon="3.13501">
        <ele>44.6</ele>
        <time>2023-08-06T05:22:53Z</time>
      </trkpt>
      <trkpt lat="50.48588" lon="3.13505">
        <ele>44.6</ele>
        <time>2023-08-06T05:22:54Z</time>
      </trkpt>
      <trkpt lat="50.48585" lon="3.13508">
        <ele>44.6</ele>
        <time>2023-08-06T05:22:55Z</time>
      </trkpt>
      <trkpt lat="50.48582" lon="3.1351">
        <ele>44.8</ele>
        <time>2023-08-06T05:22:56Z</time>
      </trkpt>
      <trkpt lat="50.48579" lon="3.1351">
        <ele>44.8</ele>
        <time>2023-08-06T05:22:57Z</time>
      </trkpt>
      <trkpt lat="50.48576" lon="3.1351">
        <ele>44.8</ele>
        <time>2023-08-06T05:22:58Z</time>
      </trkpt>
      <trkpt lat="50.48573" lon="3.13511">
        <ele>44.8</ele>
        <time>2023-08-06T05:22:59Z</time>
      </trkpt>
      <trkpt lat="50.48569" lon="3.13512">
        <ele>44.8</ele>
        <time>2023-08-06T05:23:00Z</time>
      </trkpt>
      <trkpt lat="50.48567" lon="3.13513">
        <ele>44.8</ele>
        <time>2023-08-06T05:23:01Z</time>
      </trkpt>
      <trkpt lat="50.48548" lon="3.13527">
        <ele>44.8</ele>
        <time>2023-08-06T05:23:07Z</time>
      </trkpt>
      <trkpt lat="50.48541" lon="3.13532">
        <ele>45</ele>
        <time>2023-08-06T05:23:09Z</time>
      </trkpt>
      <trkpt lat="50.48515" lon="3.13548">
        <ele>45.2</ele>
        <time>2023-08-06T05:23:16Z</time>
      </trkpt>
      <trkpt lat="50.48494" lon="3.13561">
        <ele>46.2</ele>
        <time>2023-08-06T05:23:22Z</time>
      </trkpt>
      <trkpt lat="50.48491" lon="3.13564">
        <ele>46.2</ele>
        <time>2023-08-06T05:23:23Z</time>
      </trkpt>
      <trkpt lat="50.48488" lon="3.13566">
        <ele>46.4</ele>
        <time>2023-08-06T05:23:24Z</time>
      </trkpt>
      <trkpt lat="50.48477" lon="3.13573">
        <ele>47</ele>
        <time>2023-08-06T05:23:27Z</time>
      </trkpt>
      <trkpt lat="50.48457" lon="3.13585">
        <ele>47.2</ele>
        <time>2023-08-06T05:23:32Z</time>
      </trkpt>
      <trkpt lat="50.48437" lon="3.13599">
        <ele>47.2</ele>
        <time>2023-08-06T05:23:37Z</time>
      </trkpt>
      <trkpt lat="50.48401" lon="3.13624">
        <ele>47</ele>
        <time>2023-08-06T05:23:45Z</time>
      </trkpt>
      <trkpt lat="50.48366" lon="3.13658">
        <ele>46.6</ele>
        <time>2023-08-06T05:23:53Z</time>
      </trkpt>
      <trkpt lat="50.48335" lon="3.13693">
        <ele>46.2</ele>
        <time>2023-08-06T05:24:00Z</time>
      </trkpt>
      <trkpt lat="50.48325" lon="3.13705">
        <ele>45.8</ele>
        <time>2023-08-06T05:24:02Z</time>
      </trkpt>
      <trkpt lat="50.48309" lon="3.13724">
        <ele>45</ele>
        <time>2023-08-06T05:24:06Z</time>
      </trkpt>
      <trkpt lat="50.4829" lon="3.13745">
        <ele>44.4</ele>
        <time>2023-08-06T05:24:10Z</time>
      </trkpt>
      <trkpt lat="50.4826" lon="3.1378">
        <ele>44</ele>
        <time>2023-08-06T05:24:16Z</time>
      </trkpt>
      <trkpt lat="50.48242" lon="3.13803">
        <ele>43.4</ele>
        <time>2023-08-06T05:24:20Z</time>
      </trkpt>
      <trkpt lat="50.48238" lon="3.13808">
        <ele>43.4</ele>
        <time>2023-08-06T05:24:21Z</time>
      </trkpt>
      <trkpt lat="50.48213" lon="3.13835">
        <ele>43</ele>
        <time>2023-08-06T05:24:26Z</time>
      </trkpt>
      <trkpt lat="50.48204" lon="3.13845">
        <ele>42.8</ele>
        <time>2023-08-06T05:24:28Z</time>
      </trkpt>
      <trkpt lat="50.48199" lon="3.1385">
        <ele>42.8</ele>
        <time>2023-08-06T05:24:29Z</time>
      </trkpt>
      <trkpt lat="50.48194" lon="3.13853">
        <ele>42.6</ele>
        <time>2023-08-06T05:24:30Z</time>
      </trkpt>
      <trkpt lat="50.48183" lon="3.1386">
        <ele>42.4</ele>
        <time>2023-08-06T05:24:32Z</time>
      </trkpt>
      <trkpt lat="50.48156" lon="3.13877">
        <ele>41.8</ele>
        <time>2023-08-06T05:24:37Z</time>
      </trkpt>
      <trkpt lat="50.48145" lon="3.13885">
        <ele>41.6</ele>
        <time>2023-08-06T05:24:39Z</time>
      </trkpt>
      <trkpt lat="50.48093" lon="3.13925">
        <ele>40.8</ele>
        <time>2023-08-06T05:24:49Z</time>
      </trkpt>
      <trkpt lat="50.4808" lon="3.13935">
        <ele>40.8</ele>
        <time>2023-08-06T05:24:52Z</time>
      </trkpt>
      <trkpt lat="50.48076" lon="3.13938">
        <ele>40.8</ele>
        <time>2023-08-06T05:24:53Z</time>
      </trkpt>
      <trkpt lat="50.48071" lon="3.13941">
        <ele>40.6</ele>
        <time>2023-08-06T05:24:54Z</time>
      </trkpt>
      <trkpt lat="50.48068" lon="3.13943">
        <ele>40.6</ele>
        <time>2023-08-06T05:24:55Z</time>
      </trkpt>
      <trkpt lat="50.48066" lon="3.13945">
        <ele>40.4</ele>
        <time>2023-08-06T05:24:56Z</time>
      </trkpt>
      <trkpt lat="50.48065" lon="3.13946">
        <ele>40.4</ele>
        <time>2023-08-06T05:24:57Z</time>
      </trkpt>
      <trkpt lat="50.48063" lon="3.13948">
        <ele>40.4</ele>
        <time>2023-08-06T05:24:58Z</time>
      </trkpt>
      <trkpt lat="50.48062" lon="3.13949">
        <ele>40.4</ele>
        <time>2023-08-06T05:24:59Z</time>
      </trkpt>
      <trkpt lat="50.48061" lon="3.13951">
        <ele>40.4</ele>
        <time>2023-08-06T05:25:00Z</time>
      </trkpt>
      <trkpt lat="50.4806" lon="3.13952">
        <ele>40.2</ele>
        <time>2023-08-06T05:25:01Z</time>
      </trkpt>
      <trkpt lat="50.48059" lon="3.13953">
        <ele>40.2</ele>
        <time>2023-08-06T05:25:02Z</time>
      </trkpt>
      <trkpt lat="50.48059" lon="3.13954">
        <ele>40.2</ele>
        <time>2023-08-06T05:25:03Z</time>
      </trkpt>
      <trkpt lat="50.4806" lon="3.13954">
        <ele>40.2</ele>
        <time>2023-08-06T05:25:04Z</time>
      </trkpt>
      <trkpt lat="50.4806" lon="3.13954">
        <ele>40.2</ele>
        <time>2023-08-06T05:25:05Z</time>
      </trkpt>
      <trkpt lat="50.4806" lon="3.13954">
        <ele>40.4</ele>
        <time>2023-08-06T05:25:06Z</time>
      </trkpt>
      <trkpt lat="50.48057" lon="3.1396">
        <ele>40.2</ele>
        <time>2023-08-06T05:25:52Z</time>
      </trkpt>
      <trkpt lat="50.48057" lon="3.13964">
        <ele>40</ele>
        <time>2023-08-06T05:25:53Z</time>
      </trkpt>
      <trkpt lat="50.48061" lon="3.13986">
        <ele>40</ele>
        <time>2023-08-06T05:25:57Z</time>
      </trkpt>
      <trkpt lat="50.48062" lon="3.13991">
        <ele>40</ele>
        <time>2023-08-06T05:25:58Z</time>
      </trkpt>
      <trkpt lat="50.48064" lon="3.14006">
        <ele>40</ele>
        <time>2023-08-06T05:26:00Z</time>
      </trkpt>
      <trkpt lat="50.48065" lon="3.14013">
        <ele>39.8</ele>
        <time>2023-08-06T05:26:01Z</time>
      </trkpt>
      <trkpt lat="50.48067" lon="3.14025">
        <ele>39.8</ele>
        <time>2023-08-06T05:26:03Z</time>
      </trkpt>
      <trkpt lat="50.48067" lon="3.14031">
        <ele>39.8</ele>
        <time>2023-08-06T05:26:04Z</time>
      </trkpt>
      <trkpt lat="50.48068" lon="3.14038">
        <ele>39.6</ele>
        <time>2023-08-06T05:26:05Z</time>
      </trkpt>
      <trkpt lat="50.48068" lon="3.14043">
        <ele>39.6</ele>
        <time>2023-08-06T05:26:06Z</time>
      </trkpt>
      <trkpt lat="50.48069" lon="3.14049">
        <ele>39.6</ele>
        <time>2023-08-06T05:26:07Z</time>
      </trkpt>
      <trkpt lat="50.48072" lon="3.1406">
        <ele>39.4</ele>
        <time>2023-08-06T05:26:09Z</time>
      </trkpt>
      <trkpt lat="50.48073" lon="3.14065">
        <ele>39.4</ele>
        <time>2023-08-06T05:26:10Z</time>
      </trkpt>
      <trkpt lat="50.48073" lon="3.14069">
        <ele>39</ele>
        <time>2023-08-06T05:26:11Z</time>
      </trkpt>
      <trkpt lat="50.48073" lon="3.14074">
        <ele>38.8</ele>
        <time>2023-08-06T05:26:12Z</time>
      </trkpt>
      <trkpt lat="50.48074" lon="3.14098">
        <ele>38.6</ele>
        <time>2023-08-06T05:26:16Z</time>
      </trkpt>
      <trkpt lat="50.48075" lon="3.14109">
        <ele>38.4</ele>
        <time>2023-08-06T05:26:18Z</time>
      </trkpt>
      <trkpt lat="50.48079" lon="3.14151">
        <ele>38.2</ele>
        <time>2023-08-06T05:26:25Z</time>
      </trkpt>
      <trkpt lat="50.48084" lon="3.14202">
        <ele>38.4</ele>
        <time>2023-08-06T05:26:33Z</time>
      </trkpt>
      <trkpt lat="50.48092" lon="3.14242">
        <ele>38.8</ele>
        <time>2023-08-06T05:26:40Z</time>
      </trkpt>
      <trkpt lat="50.48094" lon="3.14247">
        <ele>38.8</ele>
        <time>2023-08-06T05:26:41Z</time>
      </trkpt>
      <trkpt lat="50.48098" lon="3.14255">
        <ele>39</ele>
        <time>2023-08-06T05:26:43Z</time>
      </trkpt>
      <trkpt lat="50.481" lon="3.1427">
        <ele>39</ele>
        <time>2023-08-06T05:26:46Z</time>
      </trkpt>
      <trkpt lat="50.481" lon="3.14274">
        <ele>39.2</ele>
        <time>2023-08-06T05:26:47Z</time>
      </trkpt>
      <trkpt lat="50.481" lon="3.14277">
        <ele>39.2</ele>
        <time>2023-08-06T05:26:48Z</time>
      </trkpt>
      <trkpt lat="50.48099" lon="3.14282">
        <ele>39.2</ele>
        <time>2023-08-06T05:26:49Z</time>
      </trkpt>
      <trkpt lat="50.48097" lon="3.14287">
        <ele>39.2</ele>
        <time>2023-08-06T05:26:50Z</time>
      </trkpt>
      <trkpt lat="50.48095" lon="3.14291">
        <ele>39.2</ele>
        <time>2023-08-06T05:26:51Z</time>
      </trkpt>
      <trkpt lat="50.48093" lon="3.14295">
        <ele>39.2</ele>
        <time>2023-08-06T05:26:52Z</time>
      </trkpt>
      <trkpt lat="50.48088" lon="3.14308">
        <ele>39.2</ele>
        <time>2023-08-06T05:26:54Z</time>
      </trkpt>
      <trkpt lat="50.48086" lon="3.14322">
        <ele>39</ele>
        <time>2023-08-06T05:26:56Z</time>
      </trkpt>
      <trkpt lat="50.48087" lon="3.14329">
        <ele>38.8</ele>
        <time>2023-08-06T05:26:57Z</time>
      </trkpt>
      <trkpt lat="50.48089" lon="3.14333">
        <ele>38.4</ele>
        <time>2023-08-06T05:26:58Z</time>
      </trkpt>
      <trkpt lat="50.48093" lon="3.14339">
        <ele>38.4</ele>
        <time>2023-08-06T05:26:59Z</time>
      </trkpt>
      <trkpt lat="50.48096" lon="3.14342">
        <ele>38.2</ele>
        <time>2023-08-06T05:27:00Z</time>
      </trkpt>
      <trkpt lat="50.48099" lon="3.14346">
        <ele>38</ele>
        <time>2023-08-06T05:27:01Z</time>
      </trkpt>
      <trkpt lat="50.48101" lon="3.14349">
        <ele>38</ele>
        <time>2023-08-06T05:27:02Z</time>
      </trkpt>
      <trkpt lat="50.48104" lon="3.14354">
        <ele>38</ele>
        <time>2023-08-06T05:27:03Z</time>
      </trkpt>
      <trkpt lat="50.48109" lon="3.14363">
        <ele>37.8</ele>
        <time>2023-08-06T05:27:05Z</time>
      </trkpt>
      <trkpt lat="50.48112" lon="3.14367">
        <ele>37.8</ele>
        <time>2023-08-06T05:27:06Z</time>
      </trkpt>
      <trkpt lat="50.48115" lon="3.1437">
        <ele>37.8</ele>
        <time>2023-08-06T05:27:07Z</time>
      </trkpt>
      <trkpt lat="50.48117" lon="3.14374">
        <ele>37.8</ele>
        <time>2023-08-06T05:27:08Z</time>
      </trkpt>
      <trkpt lat="50.4812" lon="3.14378">
        <ele>37.8</ele>
        <time>2023-08-06T05:27:09Z</time>
      </trkpt>
      <trkpt lat="50.48123" lon="3.14381">
        <ele>38</ele>
        <time>2023-08-06T05:27:10Z</time>
      </trkpt>
      <trkpt lat="50.48125" lon="3.14384">
        <ele>38.2</ele>
        <time>2023-08-06T05:27:11Z</time>
      </trkpt>
      <trkpt lat="50.48128" lon="3.14389">
        <ele>38.2</ele>
        <time>2023-08-06T05:27:12Z</time>
      </trkpt>
      <trkpt lat="50.48136" lon="3.14402">
        <ele>38.4</ele>
        <time>2023-08-06T05:27:15Z</time>
      </trkpt>
      <trkpt lat="50.48152" lon="3.14431">
        <ele>39.2</ele>
        <time>2023-08-06T05:27:22Z</time>
      </trkpt>
      <trkpt lat="50.48155" lon="3.14435">
        <ele>39.2</ele>
        <time>2023-08-06T05:27:23Z</time>
      </trkpt>
      <trkpt lat="50.48156" lon="3.14439">
        <ele>39.4</ele>
        <time>2023-08-06T05:27:24Z</time>
      </trkpt>
      <trkpt lat="50.48163" lon="3.14453">
        <ele>39.4</ele>
        <time>2023-08-06T05:27:27Z</time>
      </trkpt>
      <trkpt lat="50.48165" lon="3.14458">
        <ele>39.6</ele>
        <time>2023-08-06T05:27:28Z</time>
      </trkpt>
      <trkpt lat="50.48176" lon="3.14483">
        <ele>40</ele>
        <time>2023-08-06T05:27:34Z</time>
      </trkpt>
      <trkpt lat="50.48175" lon="3.14486">
        <ele>40.2</ele>
        <time>2023-08-06T05:27:35Z</time>
      </trkpt>
      <trkpt lat="50.48173" lon="3.14489">
        <ele>40.2</ele>
        <time>2023-08-06T05:27:36Z</time>
      </trkpt>
      <trkpt lat="50.48171" lon="3.14493">
        <ele>40.4</ele>
        <time>2023-08-06T05:27:37Z</time>
      </trkpt>
      <trkpt lat="50.48166" lon="3.145">
        <ele>40.4</ele>
        <time>2023-08-06T05:27:39Z</time>
      </trkpt>
      <trkpt lat="50.48164" lon="3.14503">
        <ele>40.4</ele>
        <time>2023-08-06T05:27:40Z</time>
      </trkpt>
      <trkpt lat="50.48162" lon="3.14507">
        <ele>40.6</ele>
        <time>2023-08-06T05:27:41Z</time>
      </trkpt>
      <trkpt lat="50.48156" lon="3.14518">
        <ele>40.8</ele>
        <time>2023-08-06T05:27:44Z</time>
      </trkpt>
      <trkpt lat="50.48154" lon="3.14522">
        <ele>41</ele>
        <time>2023-08-06T05:27:45Z</time>
      </trkpt>
      <trkpt lat="50.48152" lon="3.14525">
        <ele>41</ele>
        <time>2023-08-06T05:27:46Z</time>
      </trkpt>
      <trkpt lat="50.4815" lon="3.14528">
        <ele>41</ele>
        <time>2023-08-06T05:27:47Z</time>
      </trkpt>
      <trkpt lat="50.48148" lon="3.14535">
        <ele>41.2</ele>
        <time>2023-08-06T05:27:49Z</time>
      </trkpt>
      <trkpt lat="50.48147" lon="3.14539">
        <ele>41.2</ele>
        <time>2023-08-06T05:27:50Z</time>
      </trkpt>
      <trkpt lat="50.48145" lon="3.14543">
        <ele>41.2</ele>
        <time>2023-08-06T05:27:51Z</time>
      </trkpt>
      <trkpt lat="50.48144" lon="3.14547">
        <ele>41.4</ele>
        <time>2023-08-06T05:27:52Z</time>
      </trkpt>
      <trkpt lat="50.48143" lon="3.1455">
        <ele>41.6</ele>
        <time>2023-08-06T05:27:53Z</time>
      </trkpt>
      <trkpt lat="50.48141" lon="3.14554">
        <ele>41.6</ele>
        <time>2023-08-06T05:27:54Z</time>
      </trkpt>
      <trkpt lat="50.48132" lon="3.14577">
        <ele>42.6</ele>
        <time>2023-08-06T05:28:00Z</time>
      </trkpt>
      <trkpt lat="50.48127" lon="3.1459">
        <ele>43</ele>
        <time>2023-08-06T05:28:03Z</time>
      </trkpt>
      <trkpt lat="50.48125" lon="3.14594">
        <ele>43</ele>
        <time>2023-08-06T05:28:04Z</time>
      </trkpt>
      <trkpt lat="50.48124" lon="3.14598">
        <ele>43</ele>
        <time>2023-08-06T05:28:05Z</time>
      </trkpt>
      <trkpt lat="50.48122" lon="3.14603">
        <ele>43</ele>
        <time>2023-08-06T05:28:06Z</time>
      </trkpt>
      <trkpt lat="50.48121" lon="3.14606">
        <ele>43</ele>
        <time>2023-08-06T05:28:07Z</time>
      </trkpt>
      <trkpt lat="50.4812" lon="3.14611">
        <ele>43</ele>
        <time>2023-08-06T05:28:08Z</time>
      </trkpt>
      <trkpt lat="50.48119" lon="3.14615">
        <ele>43</ele>
        <time>2023-08-06T05:28:09Z</time>
      </trkpt>
      <trkpt lat="50.48117" lon="3.1462">
        <ele>43</ele>
        <time>2023-08-06T05:28:10Z</time>
      </trkpt>
      <trkpt lat="50.48116" lon="3.14624">
        <ele>43</ele>
        <time>2023-08-06T05:28:11Z</time>
      </trkpt>
      <trkpt lat="50.48116" lon="3.14628">
        <ele>43</ele>
        <time>2023-08-06T05:28:12Z</time>
      </trkpt>
      <trkpt lat="50.48114" lon="3.14633">
        <ele>43.2</ele>
        <time>2023-08-06T05:28:13Z</time>
      </trkpt>
      <trkpt lat="50.48102" lon="3.14678">
        <ele>43.4</ele>
        <time>2023-08-06T05:28:23Z</time>
      </trkpt>
      <trkpt lat="50.48089" lon="3.14711">
        <ele>43.6</ele>
        <time>2023-08-06T05:28:31Z</time>
      </trkpt>
      <trkpt lat="50.48077" lon="3.14741">
        <ele>43.6</ele>
        <time>2023-08-06T05:28:38Z</time>
      </trkpt>
      <trkpt lat="50.48074" lon="3.14748">
        <ele>43.8</ele>
        <time>2023-08-06T05:28:40Z</time>
      </trkpt>
      <trkpt lat="50.48072" lon="3.14752">
        <ele>43.8</ele>
        <time>2023-08-06T05:28:41Z</time>
      </trkpt>
      <trkpt lat="50.48071" lon="3.14756">
        <ele>43.8</ele>
        <time>2023-08-06T05:28:42Z</time>
      </trkpt>
      <trkpt lat="50.48069" lon="3.1476">
        <ele>43.8</ele>
        <time>2023-08-06T05:28:43Z</time>
      </trkpt>
      <trkpt lat="50.48062" lon="3.14776">
        <ele>43.8</ele>
        <time>2023-08-06T05:28:47Z</time>
      </trkpt>
      <trkpt lat="50.48058" lon="3.14787">
        <ele>43.8</ele>
        <time>2023-08-06T05:28:50Z</time>
      </trkpt>
      <trkpt lat="50.48058" lon="3.14791">
        <ele>43.8</ele>
        <time>2023-08-06T05:28:51Z</time>
      </trkpt>
      <trkpt lat="50.48059" lon="3.14794">
        <ele>44</ele>
        <time>2023-08-06T05:28:52Z</time>
      </trkpt>
      <trkpt lat="50.4806" lon="3.14797">
        <ele>44</ele>
        <time>2023-08-06T05:28:53Z</time>
      </trkpt>
      <trkpt lat="50.48063" lon="3.148">
        <ele>44</ele>
        <time>2023-08-06T05:28:54Z</time>
      </trkpt>
      <trkpt lat="50.48068" lon="3.14806">
        <ele>44</ele>
        <time>2023-08-06T05:28:56Z</time>
      </trkpt>
      <trkpt lat="50.4807" lon="3.14808">
        <ele>44</ele>
        <time>2023-08-06T05:28:57Z</time>
      </trkpt>
      <trkpt lat="50.48073" lon="3.14812">
        <ele>44</ele>
        <time>2023-08-06T05:28:58Z</time>
      </trkpt>
      <trkpt lat="50.48098" lon="3.14842">
        <ele>44.2</ele>
        <time>2023-08-06T05:29:07Z</time>
      </trkpt>
      <trkpt lat="50.48124" lon="3.14872">
        <ele>44.6</ele>
        <time>2023-08-06T05:29:16Z</time>
      </trkpt>
      <trkpt lat="50.48126" lon="3.14876">
        <ele>44.6</ele>
        <time>2023-08-06T05:29:17Z</time>
      </trkpt>
      <trkpt lat="50.48153" lon="3.1491">
        <ele>44.8</ele>
        <time>2023-08-06T05:29:26Z</time>
      </trkpt>
      <trkpt lat="50.48161" lon="3.14945">
        <ele>44.4</ele>
        <time>2023-08-06T05:29:32Z</time>
      </trkpt>
      <trkpt lat="50.48167" lon="3.14993">
        <ele>44.4</ele>
        <time>2023-08-06T05:29:39Z</time>
      </trkpt>
      <trkpt lat="50.48177" lon="3.15049">
        <ele>44</ele>
        <time>2023-08-06T05:29:47Z</time>
      </trkpt>
      <trkpt lat="50.48188" lon="3.15109">
        <ele>43.8</ele>
        <time>2023-08-06T05:29:55Z</time>
      </trkpt>
      <trkpt lat="50.48195" lon="3.15135">
        <ele>43.8</ele>
        <time>2023-08-06T05:29:59Z</time>
      </trkpt>
      <trkpt lat="50.48197" lon="3.15142">
        <ele>43.8</ele>
        <time>2023-08-06T05:30:00Z</time>
      </trkpt>
      <trkpt lat="50.48199" lon="3.15149">
        <ele>43.8</ele>
        <time>2023-08-06T05:30:01Z</time>
      </trkpt>
      <trkpt lat="50.48201" lon="3.15155">
        <ele>43.8</ele>
        <time>2023-08-06T05:30:02Z</time>
      </trkpt>
      <trkpt lat="50.48203" lon="3.15162">
        <ele>43.8</ele>
        <time>2023-08-06T05:30:03Z</time>
      </trkpt>
      <trkpt lat="50.48205" lon="3.15169">
        <ele>43.8</ele>
        <time>2023-08-06T05:30:04Z</time>
      </trkpt>
      <trkpt lat="50.48223" lon="3.15225">
        <ele>43.6</ele>
        <time>2023-08-06T05:30:12Z</time>
      </trkpt>
      <trkpt lat="50.48229" lon="3.15245">
        <ele>43.4</ele>
        <time>2023-08-06T05:30:15Z</time>
      </trkpt>
      <trkpt lat="50.4824" lon="3.15286">
        <ele>43.4</ele>
        <time>2023-08-06T05:30:21Z</time>
      </trkpt>
      <trkpt lat="50.48241" lon="3.1529">
        <ele>43.4</ele>
        <time>2023-08-06T05:30:22Z</time>
      </trkpt>
      <trkpt lat="50.48242" lon="3.15296">
        <ele>43.6</ele>
        <time>2023-08-06T05:30:23Z</time>
      </trkpt>
      <trkpt lat="50.48242" lon="3.15299">
        <ele>43.6</ele>
        <time>2023-08-06T05:30:24Z</time>
      </trkpt>
      <trkpt lat="50.48243" lon="3.15303">
        <ele>43.6</ele>
        <time>2023-08-06T05:30:25Z</time>
      </trkpt>
      <trkpt lat="50.48244" lon="3.15307">
        <ele>43.6</ele>
        <time>2023-08-06T05:30:26Z</time>
      </trkpt>
      <trkpt lat="50.48246" lon="3.15312">
        <ele>43.8</ele>
        <time>2023-08-06T05:30:27Z</time>
      </trkpt>
      <trkpt lat="50.48248" lon="3.15319">
        <ele>43.8</ele>
        <time>2023-08-06T05:30:29Z</time>
      </trkpt>
      <trkpt lat="50.48249" lon="3.15323">
        <ele>43.8</ele>
        <time>2023-08-06T05:30:30Z</time>
      </trkpt>
      <trkpt lat="50.4825" lon="3.15327">
        <ele>43.8</ele>
        <time>2023-08-06T05:30:31Z</time>
      </trkpt>
      <trkpt lat="50.48252" lon="3.15336">
        <ele>43.8</ele>
        <time>2023-08-06T05:30:33Z</time>
      </trkpt>
      <trkpt lat="50.48256" lon="3.15363">
        <ele>43.8</ele>
        <time>2023-08-06T05:30:38Z</time>
      </trkpt>
      <trkpt lat="50.48263" lon="3.15412">
        <ele>43.6</ele>
        <time>2023-08-06T05:30:45Z</time>
      </trkpt>
      <trkpt lat="50.48266" lon="3.15426">
        <ele>43.4</ele>
        <time>2023-08-06T05:30:47Z</time>
      </trkpt>
      <trkpt lat="50.48273" lon="3.15466">
        <ele>43.2</ele>
        <time>2023-08-06T05:30:52Z</time>
      </trkpt>
      <trkpt lat="50.48286" lon="3.15538">
        <ele>43.2</ele>
        <time>2023-08-06T05:31:01Z</time>
      </trkpt>
      <trkpt lat="50.48291" lon="3.15568">
        <ele>43.4</ele>
        <time>2023-08-06T05:31:05Z</time>
      </trkpt>
      <trkpt lat="50.48293" lon="3.15577">
        <ele>43.6</ele>
        <time>2023-08-06T05:31:06Z</time>
      </trkpt>
      <trkpt lat="50.48294" lon="3.15584">
        <ele>43.6</ele>
        <time>2023-08-06T05:31:07Z</time>
      </trkpt>
      <trkpt lat="50.48295" lon="3.1559">
        <ele>43.8</ele>
        <time>2023-08-06T05:31:08Z</time>
      </trkpt>
      <trkpt lat="50.48297" lon="3.15598">
        <ele>43.8</ele>
        <time>2023-08-06T05:31:09Z</time>
      </trkpt>
      <trkpt lat="50.48298" lon="3.15606">
        <ele>43.8</ele>
        <time>2023-08-06T05:31:10Z</time>
      </trkpt>
      <trkpt lat="50.483" lon="3.15613">
        <ele>43.8</ele>
        <time>2023-08-06T05:31:11Z</time>
      </trkpt>
      <trkpt lat="50.48301" lon="3.1562">
        <ele>43.8</ele>
        <time>2023-08-06T05:31:12Z</time>
      </trkpt>
      <trkpt lat="50.48304" lon="3.15634">
        <ele>43.8</ele>
        <time>2023-08-06T05:31:14Z</time>
      </trkpt>
      <trkpt lat="50.48306" lon="3.1564">
        <ele>43.8</ele>
        <time>2023-08-06T05:31:15Z</time>
      </trkpt>
      <trkpt lat="50.48308" lon="3.15647">
        <ele>43.8</ele>
        <time>2023-08-06T05:31:16Z</time>
      </trkpt>
      <trkpt lat="50.48309" lon="3.15654">
        <ele>43.8</ele>
        <time>2023-08-06T05:31:17Z</time>
      </trkpt>
      <trkpt lat="50.48311" lon="3.15661">
        <ele>43.8</ele>
        <time>2023-08-06T05:31:18Z</time>
      </trkpt>
      <trkpt lat="50.48312" lon="3.15667">
        <ele>43.8</ele>
        <time>2023-08-06T05:31:19Z</time>
      </trkpt>
      <trkpt lat="50.48314" lon="3.15673">
        <ele>43.8</ele>
        <time>2023-08-06T05:31:20Z</time>
      </trkpt>
      <trkpt lat="50.48315" lon="3.1568">
        <ele>43.8</ele>
        <time>2023-08-06T05:31:21Z</time>
      </trkpt>
      <trkpt lat="50.48317" lon="3.15686">
        <ele>43.6</ele>
        <time>2023-08-06T05:31:22Z</time>
      </trkpt>
      <trkpt lat="50.48318" lon="3.15694">
        <ele>43.6</ele>
        <time>2023-08-06T05:31:23Z</time>
      </trkpt>
      <trkpt lat="50.48319" lon="3.157">
        <ele>43.6</ele>
        <time>2023-08-06T05:31:24Z</time>
      </trkpt>
      <trkpt lat="50.48321" lon="3.15706">
        <ele>43.8</ele>
        <time>2023-08-06T05:31:25Z</time>
      </trkpt>
      <trkpt lat="50.48322" lon="3.15713">
        <ele>44</ele>
        <time>2023-08-06T05:31:26Z</time>
      </trkpt>
      <trkpt lat="50.48325" lon="3.15727">
        <ele>44</ele>
        <time>2023-08-06T05:31:28Z</time>
      </trkpt>
      <trkpt lat="50.48339" lon="3.1578">
        <ele>44</ele>
        <time>2023-08-06T05:31:36Z</time>
      </trkpt>
      <trkpt lat="50.48342" lon="3.15787">
        <ele>44</ele>
        <time>2023-08-06T05:31:37Z</time>
      </trkpt>
      <trkpt lat="50.48345" lon="3.15792">
        <ele>44</ele>
        <time>2023-08-06T05:31:38Z</time>
      </trkpt>
      <trkpt lat="50.48351" lon="3.15798">
        <ele>44</ele>
        <time>2023-08-06T05:31:40Z</time>
      </trkpt>
      <trkpt lat="50.48356" lon="3.15799">
        <ele>44</ele>
        <time>2023-08-06T05:31:41Z</time>
      </trkpt>
      <trkpt lat="50.4836" lon="3.15798">
        <ele>44.2</ele>
        <time>2023-08-06T05:31:42Z</time>
      </trkpt>
      <trkpt lat="50.48364" lon="3.15796">
        <ele>44.6</ele>
        <time>2023-08-06T05:31:43Z</time>
      </trkpt>
      <trkpt lat="50.48367" lon="3.15794">
        <ele>44.8</ele>
        <time>2023-08-06T05:31:44Z</time>
      </trkpt>
      <trkpt lat="50.48371" lon="3.15792">
        <ele>45</ele>
        <time>2023-08-06T05:31:45Z</time>
      </trkpt>
      <trkpt lat="50.48376" lon="3.15791">
        <ele>45</ele>
        <time>2023-08-06T05:31:46Z</time>
      </trkpt>
      <trkpt lat="50.48379" lon="3.1579">
        <ele>45</ele>
        <time>2023-08-06T05:31:47Z</time>
      </trkpt>
      <trkpt lat="50.48383" lon="3.15792">
        <ele>45</ele>
        <time>2023-08-06T05:31:48Z</time>
      </trkpt>
      <trkpt lat="50.48386" lon="3.15794">
        <ele>45</ele>
        <time>2023-08-06T05:31:49Z</time>
      </trkpt>
      <trkpt lat="50.48389" lon="3.15798">
        <ele>45</ele>
        <time>2023-08-06T05:31:50Z</time>
      </trkpt>
      <trkpt lat="50.48391" lon="3.15804">
        <ele>45</ele>
        <time>2023-08-06T05:31:51Z</time>
      </trkpt>
      <trkpt lat="50.48394" lon="3.15815">
        <ele>45</ele>
        <time>2023-08-06T05:31:53Z</time>
      </trkpt>
      <trkpt lat="50.48396" lon="3.15821">
        <ele>44.8</ele>
        <time>2023-08-06T05:31:54Z</time>
      </trkpt>
      <trkpt lat="50.48398" lon="3.15828">
        <ele>44.8</ele>
        <time>2023-08-06T05:31:55Z</time>
      </trkpt>
      <trkpt lat="50.48405" lon="3.1586">
        <ele>44.4</ele>
        <time>2023-08-06T05:32:00Z</time>
      </trkpt>
      <trkpt lat="50.48425" lon="3.1593">
        <ele>44.2</ele>
        <time>2023-08-06T05:32:10Z</time>
      </trkpt>
      <trkpt lat="50.4844" lon="3.15982">
        <ele>44.2</ele>
        <time>2023-08-06T05:32:18Z</time>
      </trkpt>
      <trkpt lat="50.48442" lon="3.15988">
        <ele>44.2</ele>
        <time>2023-08-06T05:32:19Z</time>
      </trkpt>
      <trkpt lat="50.48444" lon="3.15996">
        <ele>44.2</ele>
        <time>2023-08-06T05:32:20Z</time>
      </trkpt>
      <trkpt lat="50.48446" lon="3.16001">
        <ele>44.4</ele>
        <time>2023-08-06T05:32:21Z</time>
      </trkpt>
      <trkpt lat="50.48448" lon="3.16007">
        <ele>44.4</ele>
        <time>2023-08-06T05:32:22Z</time>
      </trkpt>
      <trkpt lat="50.4845" lon="3.16015">
        <ele>44.4</ele>
        <time>2023-08-06T05:32:23Z</time>
      </trkpt>
      <trkpt lat="50.48451" lon="3.16019">
        <ele>44.4</ele>
        <time>2023-08-06T05:32:24Z</time>
      </trkpt>
      <trkpt lat="50.48453" lon="3.16026">
        <ele>44.4</ele>
        <time>2023-08-06T05:32:25Z</time>
      </trkpt>
      <trkpt lat="50.48454" lon="3.16032">
        <ele>44</ele>
        <time>2023-08-06T05:32:26Z</time>
      </trkpt>
      <trkpt lat="50.48456" lon="3.16039">
        <ele>43.8</ele>
        <time>2023-08-06T05:32:27Z</time>
      </trkpt>
      <trkpt lat="50.48458" lon="3.16046">
        <ele>43.6</ele>
        <time>2023-08-06T05:32:28Z</time>
      </trkpt>
      <trkpt lat="50.4846" lon="3.16053">
        <ele>43.6</ele>
        <time>2023-08-06T05:32:29Z</time>
      </trkpt>
      <trkpt lat="50.48466" lon="3.16076">
        <ele>43.6</ele>
        <time>2023-08-06T05:32:33Z</time>
      </trkpt>
      <trkpt lat="50.48468" lon="3.16084">
        <ele>43.6</ele>
        <time>2023-08-06T05:32:34Z</time>
      </trkpt>
      <trkpt lat="50.48477" lon="3.16115">
        <ele>44</ele>
        <time>2023-08-06T05:32:39Z</time>
      </trkpt>
      <trkpt lat="50.48478" lon="3.1612">
        <ele>44</ele>
        <time>2023-08-06T05:32:40Z</time>
      </trkpt>
      <trkpt lat="50.4848" lon="3.16126">
        <ele>44</ele>
        <time>2023-08-06T05:32:41Z</time>
      </trkpt>
      <trkpt lat="50.48483" lon="3.16139">
        <ele>44</ele>
        <time>2023-08-06T05:32:43Z</time>
      </trkpt>
      <trkpt lat="50.48485" lon="3.16144">
        <ele>43.8</ele>
        <time>2023-08-06T05:32:44Z</time>
      </trkpt>
      <trkpt lat="50.48487" lon="3.1615">
        <ele>43.8</ele>
        <time>2023-08-06T05:32:45Z</time>
      </trkpt>
      <trkpt lat="50.48493" lon="3.16174">
        <ele>44</ele>
        <time>2023-08-06T05:32:49Z</time>
      </trkpt>
      <trkpt lat="50.48495" lon="3.1618">
        <ele>44</ele>
        <time>2023-08-06T05:32:50Z</time>
      </trkpt>
      <trkpt lat="50.48501" lon="3.1619">
        <ele>44.2</ele>
        <time>2023-08-06T05:32:52Z</time>
      </trkpt>
      <trkpt lat="50.48505" lon="3.16194">
        <ele>44.2</ele>
        <time>2023-08-06T05:32:53Z</time>
      </trkpt>
      <trkpt lat="50.48508" lon="3.16194">
        <ele>44.2</ele>
        <time>2023-08-06T05:32:54Z</time>
      </trkpt>
      <trkpt lat="50.48512" lon="3.16192">
        <ele>44.4</ele>
        <time>2023-08-06T05:32:55Z</time>
      </trkpt>
      <trkpt lat="50.48516" lon="3.1619">
        <ele>44.4</ele>
        <time>2023-08-06T05:32:56Z</time>
      </trkpt>
      <trkpt lat="50.48522" lon="3.16186">
        <ele>44.4</ele>
        <time>2023-08-06T05:32:58Z</time>
      </trkpt>
      <trkpt lat="50.48526" lon="3.16184">
        <ele>44.4</ele>
        <time>2023-08-06T05:32:59Z</time>
      </trkpt>
      <trkpt lat="50.48529" lon="3.16181">
        <ele>44.4</ele>
        <time>2023-08-06T05:33:00Z</time>
      </trkpt>
      <trkpt lat="50.48532" lon="3.16178">
        <ele>44.2</ele>
        <time>2023-08-06T05:33:01Z</time>
      </trkpt>
      <trkpt lat="50.48536" lon="3.16176">
        <ele>44.2</ele>
        <time>2023-08-06T05:33:02Z</time>
      </trkpt>
      <trkpt lat="50.48538" lon="3.16174">
        <ele>44</ele>
        <time>2023-08-06T05:33:03Z</time>
      </trkpt>
      <trkpt lat="50.48541" lon="3.16171">
        <ele>44</ele>
        <time>2023-08-06T05:33:04Z</time>
      </trkpt>
      <trkpt lat="50.48545" lon="3.16168">
        <ele>43.8</ele>
        <time>2023-08-06T05:33:05Z</time>
      </trkpt>
      <trkpt lat="50.48547" lon="3.16166">
        <ele>43.8</ele>
        <time>2023-08-06T05:33:06Z</time>
      </trkpt>
      <trkpt lat="50.48551" lon="3.16163">
        <ele>43.8</ele>
        <time>2023-08-06T05:33:07Z</time>
      </trkpt>
      <trkpt lat="50.48554" lon="3.16161">
        <ele>43.8</ele>
        <time>2023-08-06T05:33:08Z</time>
      </trkpt>
      <trkpt lat="50.48566" lon="3.1615">
        <ele>43.8</ele>
        <time>2023-08-06T05:33:12Z</time>
      </trkpt>
      <trkpt lat="50.48569" lon="3.16148">
        <ele>43.8</ele>
        <time>2023-08-06T05:33:13Z</time>
      </trkpt>
      <trkpt lat="50.48572" lon="3.16145">
        <ele>43.8</ele>
        <time>2023-08-06T05:33:14Z</time>
      </trkpt>
      <trkpt lat="50.48612" lon="3.16112">
        <ele>43.8</ele>
        <time>2023-08-06T05:33:27Z</time>
      </trkpt>
      <trkpt lat="50.48631" lon="3.16099">
        <ele>43.8</ele>
        <time>2023-08-06T05:33:33Z</time>
      </trkpt>
      <trkpt lat="50.48634" lon="3.16102">
        <ele>43.8</ele>
        <time>2023-08-06T05:33:34Z</time>
      </trkpt>
      <trkpt lat="50.48635" lon="3.16106">
        <ele>43.8</ele>
        <time>2023-08-06T05:33:35Z</time>
      </trkpt>
      <trkpt lat="50.48636" lon="3.16109">
        <ele>43.8</ele>
        <time>2023-08-06T05:33:36Z</time>
      </trkpt>
      <trkpt lat="50.48638" lon="3.16113">
        <ele>43.8</ele>
        <time>2023-08-06T05:33:37Z</time>
      </trkpt>
      <trkpt lat="50.4864" lon="3.16118">
        <ele>43.8</ele>
        <time>2023-08-06T05:33:38Z</time>
      </trkpt>
      <trkpt lat="50.48641" lon="3.16124">
        <ele>43.8</ele>
        <time>2023-08-06T05:33:39Z</time>
      </trkpt>
      <trkpt lat="50.48643" lon="3.16128">
        <ele>43.8</ele>
        <time>2023-08-06T05:33:40Z</time>
      </trkpt>
      <trkpt lat="50.48649" lon="3.16148">
        <ele>44</ele>
        <time>2023-08-06T05:33:44Z</time>
      </trkpt>
      <trkpt lat="50.48661" lon="3.16187">
        <ele>44.4</ele>
        <time>2023-08-06T05:33:52Z</time>
      </trkpt>
      <trkpt lat="50.48674" lon="3.16228">
        <ele>44.8</ele>
        <time>2023-08-06T05:34:00Z</time>
      </trkpt>
      <trkpt lat="50.48686" lon="3.16272">
        <ele>44.4</ele>
        <time>2023-08-06T05:34:08Z</time>
      </trkpt>
      <trkpt lat="50.48699" lon="3.16313">
        <ele>44.2</ele>
        <time>2023-08-06T05:34:16Z</time>
      </trkpt>
      <trkpt lat="50.48708" lon="3.16339">
        <ele>44.4</ele>
        <time>2023-08-06T05:34:21Z</time>
      </trkpt>
      <trkpt lat="50.4871" lon="3.16349">
        <ele>44.4</ele>
        <time>2023-08-06T05:34:23Z</time>
      </trkpt>
      <trkpt lat="50.48727" lon="3.16404">
        <ele>44</ele>
        <time>2023-08-06T05:34:33Z</time>
      </trkpt>
      <trkpt lat="50.48743" lon="3.16449">
        <ele>44</ele>
        <time>2023-08-06T05:34:41Z</time>
      </trkpt>
      <trkpt lat="50.4875" lon="3.16467">
        <ele>44</ele>
        <time>2023-08-06T05:34:44Z</time>
      </trkpt>
      <trkpt lat="50.48757" lon="3.1648">
        <ele>44</ele>
        <time>2023-08-06T05:34:47Z</time>
      </trkpt>
      <trkpt lat="50.48762" lon="3.16492">
        <ele>44</ele>
        <time>2023-08-06T05:34:49Z</time>
      </trkpt>
      <trkpt lat="50.48763" lon="3.16496">
        <ele>44</ele>
        <time>2023-08-06T05:34:50Z</time>
      </trkpt>
      <trkpt lat="50.48765" lon="3.16501">
        <ele>44</ele>
        <time>2023-08-06T05:34:51Z</time>
      </trkpt>
      <trkpt lat="50.48768" lon="3.16507">
        <ele>44</ele>
        <time>2023-08-06T05:34:52Z</time>
      </trkpt>
      <trkpt lat="50.48769" lon="3.16511">
        <ele>44</ele>
        <time>2023-08-06T05:34:53Z</time>
      </trkpt>
      <trkpt lat="50.48772" lon="3.16518">
        <ele>44.2</ele>
        <time>2023-08-06T05:34:54Z</time>
      </trkpt>
      <trkpt lat="50.48773" lon="3.16522">
        <ele>44.2</ele>
        <time>2023-08-06T05:34:55Z</time>
      </trkpt>
      <trkpt lat="50.4878" lon="3.16538">
        <ele>44.2</ele>
        <time>2023-08-06T05:34:58Z</time>
      </trkpt>
      <trkpt lat="50.48783" lon="3.16548">
        <ele>44.2</ele>
        <time>2023-08-06T05:35:00Z</time>
      </trkpt>
      <trkpt lat="50.48805" lon="3.16605">
        <ele>44.2</ele>
        <time>2023-08-06T05:35:10Z</time>
      </trkpt>
      <trkpt lat="50.48808" lon="3.16613">
        <ele>44.2</ele>
        <time>2023-08-06T05:35:11Z</time>
      </trkpt>
      <trkpt lat="50.48823" lon="3.1666">
        <ele>43.8</ele>
        <time>2023-08-06T05:35:18Z</time>
      </trkpt>
      <trkpt lat="50.48839" lon="3.16704">
        <ele>43.6</ele>
        <time>2023-08-06T05:35:25Z</time>
      </trkpt>
      <trkpt lat="50.48841" lon="3.16711">
        <ele>43.6</ele>
        <time>2023-08-06T05:35:26Z</time>
      </trkpt>
      <trkpt lat="50.48842" lon="3.16715">
        <ele>43.4</ele>
        <time>2023-08-06T05:35:27Z</time>
      </trkpt>
      <trkpt lat="50.48844" lon="3.16722">
        <ele>43.2</ele>
        <time>2023-08-06T05:35:28Z</time>
      </trkpt>
      <trkpt lat="50.48846" lon="3.16728">
        <ele>43.2</ele>
        <time>2023-08-06T05:35:29Z</time>
      </trkpt>
      <trkpt lat="50.48848" lon="3.16734">
        <ele>43.2</ele>
        <time>2023-08-06T05:35:30Z</time>
      </trkpt>
      <trkpt lat="50.48851" lon="3.16741">
        <ele>43</ele>
        <time>2023-08-06T05:35:31Z</time>
      </trkpt>
      <trkpt lat="50.48852" lon="3.16746">
        <ele>43</ele>
        <time>2023-08-06T05:35:32Z</time>
      </trkpt>
      <trkpt lat="50.48854" lon="3.16752">
        <ele>42.8</ele>
        <time>2023-08-06T05:35:33Z</time>
      </trkpt>
      <trkpt lat="50.48856" lon="3.16759">
        <ele>42.8</ele>
        <time>2023-08-06T05:35:34Z</time>
      </trkpt>
      <trkpt lat="50.48858" lon="3.16765">
        <ele>42.8</ele>
        <time>2023-08-06T05:35:35Z</time>
      </trkpt>
      <trkpt lat="50.4886" lon="3.16771">
        <ele>42.6</ele>
        <time>2023-08-06T05:35:36Z</time>
      </trkpt>
      <trkpt lat="50.48877" lon="3.1682">
        <ele>43.8</ele>
        <time>2023-08-06T05:35:44Z</time>
      </trkpt>
      <trkpt lat="50.48897" lon="3.16886">
        <ele>42.6</ele>
        <time>2023-08-06T05:35:54Z</time>
      </trkpt>
      <trkpt lat="50.48911" lon="3.16936">
        <ele>42.4</ele>
        <time>2023-08-06T05:36:02Z</time>
      </trkpt>
      <trkpt lat="50.48913" lon="3.16943">
        <ele>42.4</ele>
        <time>2023-08-06T05:36:03Z</time>
      </trkpt>
      <trkpt lat="50.48915" lon="3.16949">
        <ele>42.4</ele>
        <time>2023-08-06T05:36:04Z</time>
      </trkpt>
      <trkpt lat="50.48917" lon="3.16954">
        <ele>42.4</ele>
        <time>2023-08-06T05:36:05Z</time>
      </trkpt>
      <trkpt lat="50.48919" lon="3.1696">
        <ele>42.4</ele>
        <time>2023-08-06T05:36:06Z</time>
      </trkpt>
      <trkpt lat="50.48921" lon="3.16966">
        <ele>42.4</ele>
        <time>2023-08-06T05:36:07Z</time>
      </trkpt>
      <trkpt lat="50.48923" lon="3.16973">
        <ele>42.4</ele>
        <time>2023-08-06T05:36:08Z</time>
      </trkpt>
      <trkpt lat="50.48925" lon="3.16979">
        <ele>42.6</ele>
        <time>2023-08-06T05:36:09Z</time>
      </trkpt>
      <trkpt lat="50.4893" lon="3.16996">
        <ele>43</ele>
        <time>2023-08-06T05:36:12Z</time>
      </trkpt>
      <trkpt lat="50.48932" lon="3.17004">
        <ele>43</ele>
        <time>2023-08-06T05:36:13Z</time>
      </trkpt>
      <trkpt lat="50.48946" lon="3.17046">
        <ele>43.2</ele>
        <time>2023-08-06T05:36:20Z</time>
      </trkpt>
      <trkpt lat="50.48949" lon="3.17059">
        <ele>43.2</ele>
        <time>2023-08-06T05:36:22Z</time>
      </trkpt>
      <trkpt lat="50.48968" lon="3.1712">
        <ele>43.2</ele>
        <time>2023-08-06T05:36:32Z</time>
      </trkpt>
      <trkpt lat="50.48971" lon="3.17131">
        <ele>43</ele>
        <time>2023-08-06T05:36:34Z</time>
      </trkpt>
      <trkpt lat="50.48973" lon="3.17137">
        <ele>43</ele>
        <time>2023-08-06T05:36:35Z</time>
      </trkpt>
      <trkpt lat="50.48974" lon="3.17143">
        <ele>43</ele>
        <time>2023-08-06T05:36:36Z</time>
      </trkpt>
      <trkpt lat="50.48974" lon="3.17148">
        <ele>43</ele>
        <time>2023-08-06T05:36:37Z</time>
      </trkpt>
      <trkpt lat="50.48974" lon="3.17151">
        <ele>42.8</ele>
        <time>2023-08-06T05:36:38Z</time>
      </trkpt>
      <trkpt lat="50.48973" lon="3.17157">
        <ele>42.8</ele>
        <time>2023-08-06T05:36:39Z</time>
      </trkpt>
      <trkpt lat="50.48972" lon="3.17162">
        <ele>42.8</ele>
        <time>2023-08-06T05:36:40Z</time>
      </trkpt>
      <trkpt lat="50.48971" lon="3.17167">
        <ele>42.8</ele>
        <time>2023-08-06T05:36:41Z</time>
      </trkpt>
      <trkpt lat="50.4897" lon="3.17173">
        <ele>42.8</ele>
        <time>2023-08-06T05:36:42Z</time>
      </trkpt>
      <trkpt lat="50.4896" lon="3.17225">
        <ele>42.2</ele>
        <time>2023-08-06T05:36:50Z</time>
      </trkpt>
      <trkpt lat="50.48957" lon="3.17245">
        <ele>42</ele>
        <time>2023-08-06T05:36:53Z</time>
      </trkpt>
      <trkpt lat="50.48947" lon="3.173">
        <ele>42.2</ele>
        <time>2023-08-06T05:37:00Z</time>
      </trkpt>
      <trkpt lat="50.48936" lon="3.17364">
        <ele>41.8</ele>
        <time>2023-08-06T05:37:08Z</time>
      </trkpt>
      <trkpt lat="50.48931" lon="3.17399">
        <ele>41</ele>
        <time>2023-08-06T05:37:12Z</time>
      </trkpt>
      <trkpt lat="50.48924" lon="3.17434">
        <ele>40.4</ele>
        <time>2023-08-06T05:37:16Z</time>
      </trkpt>
      <trkpt lat="50.48915" lon="3.17486">
        <ele>39.6</ele>
        <time>2023-08-06T05:37:22Z</time>
      </trkpt>
      <trkpt lat="50.48907" lon="3.17518">
        <ele>38.8</ele>
        <time>2023-08-06T05:37:26Z</time>
      </trkpt>
      <trkpt lat="50.48905" lon="3.17524">
        <ele>38.8</ele>
        <time>2023-08-06T05:37:27Z</time>
      </trkpt>
      <trkpt lat="50.48903" lon="3.17531">
        <ele>38.8</ele>
        <time>2023-08-06T05:37:28Z</time>
      </trkpt>
      <trkpt lat="50.489" lon="3.17539">
        <ele>38.6</ele>
        <time>2023-08-06T05:37:29Z</time>
      </trkpt>
      <trkpt lat="50.48898" lon="3.17546">
        <ele>38.6</ele>
        <time>2023-08-06T05:37:30Z</time>
      </trkpt>
      <trkpt lat="50.48895" lon="3.17553">
        <ele>38.6</ele>
        <time>2023-08-06T05:37:31Z</time>
      </trkpt>
      <trkpt lat="50.48893" lon="3.17561">
        <ele>38.6</ele>
        <time>2023-08-06T05:37:32Z</time>
      </trkpt>
      <trkpt lat="50.48885" lon="3.17583">
        <ele>38.6</ele>
        <time>2023-08-06T05:37:35Z</time>
      </trkpt>
      <trkpt lat="50.48879" lon="3.17598">
        <ele>38.4</ele>
        <time>2023-08-06T05:37:37Z</time>
      </trkpt>
      <trkpt lat="50.48851" lon="3.17672">
        <ele>37.6</ele>
        <time>2023-08-06T05:37:47Z</time>
      </trkpt>
      <trkpt lat="50.48849" lon="3.17679">
        <ele>37.4</ele>
        <time>2023-08-06T05:37:48Z</time>
      </trkpt>
      <trkpt lat="50.48846" lon="3.17686">
        <ele>37.2</ele>
        <time>2023-08-06T05:37:49Z</time>
      </trkpt>
      <trkpt lat="50.48842" lon="3.177">
        <ele>37.2</ele>
        <time>2023-08-06T05:37:51Z</time>
      </trkpt>
      <trkpt lat="50.48839" lon="3.17709">
        <ele>37</ele>
        <time>2023-08-06T05:37:52Z</time>
      </trkpt>
      <trkpt lat="50.48838" lon="3.17715">
        <ele>37</ele>
        <time>2023-08-06T05:37:53Z</time>
      </trkpt>
      <trkpt lat="50.48836" lon="3.17723">
        <ele>37</ele>
        <time>2023-08-06T05:37:54Z</time>
      </trkpt>
      <trkpt lat="50.4883" lon="3.17746">
        <ele>36.6</ele>
        <time>2023-08-06T05:37:57Z</time>
      </trkpt>
      <trkpt lat="50.48828" lon="3.17754">
        <ele>36.4</ele>
        <time>2023-08-06T05:37:58Z</time>
      </trkpt>
      <trkpt lat="50.48807" lon="3.17836">
        <ele>35.8</ele>
        <time>2023-08-06T05:38:08Z</time>
      </trkpt>
      <trkpt lat="50.48806" lon="3.17842">
        <ele>36</ele>
        <time>2023-08-06T05:38:09Z</time>
      </trkpt>
      <trkpt lat="50.48796" lon="3.1788">
        <ele>35.8</ele>
        <time>2023-08-06T05:38:14Z</time>
      </trkpt>
      <trkpt lat="50.48795" lon="3.17888">
        <ele>35.8</ele>
        <time>2023-08-06T05:38:15Z</time>
      </trkpt>
      <trkpt lat="50.48793" lon="3.17895">
        <ele>35.8</ele>
        <time>2023-08-06T05:38:16Z</time>
      </trkpt>
      <trkpt lat="50.48791" lon="3.17902">
        <ele>35.8</ele>
        <time>2023-08-06T05:38:17Z</time>
      </trkpt>
      <trkpt lat="50.48789" lon="3.1791">
        <ele>35.8</ele>
        <time>2023-08-06T05:38:18Z</time>
      </trkpt>
      <trkpt lat="50.48788" lon="3.17917">
        <ele>35.8</ele>
        <time>2023-08-06T05:38:19Z</time>
      </trkpt>
      <trkpt lat="50.48782" lon="3.17941">
        <ele>35.2</ele>
        <time>2023-08-06T05:38:22Z</time>
      </trkpt>
      <trkpt lat="50.48768" lon="3.17997">
        <ele>34.8</ele>
        <time>2023-08-06T05:38:29Z</time>
      </trkpt>
      <trkpt lat="50.4876" lon="3.18028">
        <ele>34</ele>
        <time>2023-08-06T05:38:33Z</time>
      </trkpt>
      <trkpt lat="50.48754" lon="3.18053">
        <ele>33.8</ele>
        <time>2023-08-06T05:38:36Z</time>
      </trkpt>
      <trkpt lat="50.48752" lon="3.18061">
        <ele>33.8</ele>
        <time>2023-08-06T05:38:37Z</time>
      </trkpt>
      <trkpt lat="50.48751" lon="3.18067">
        <ele>33.8</ele>
        <time>2023-08-06T05:38:38Z</time>
      </trkpt>
      <trkpt lat="50.48749" lon="3.18074">
        <ele>33.8</ele>
        <time>2023-08-06T05:38:39Z</time>
      </trkpt>
      <trkpt lat="50.48747" lon="3.18083">
        <ele>33.8</ele>
        <time>2023-08-06T05:38:40Z</time>
      </trkpt>
      <trkpt lat="50.48745" lon="3.18091">
        <ele>33.6</ele>
        <time>2023-08-06T05:38:41Z</time>
      </trkpt>
      <trkpt lat="50.48742" lon="3.18105">
        <ele>33.4</ele>
        <time>2023-08-06T05:38:43Z</time>
      </trkpt>
      <trkpt lat="50.48726" lon="3.18169">
        <ele>33.2</ele>
        <time>2023-08-06T05:38:51Z</time>
      </trkpt>
      <trkpt lat="50.48706" lon="3.18247">
        <ele>33</ele>
        <time>2023-08-06T05:39:01Z</time>
      </trkpt>
      <trkpt lat="50.48705" lon="3.18255">
        <ele>33</ele>
        <time>2023-08-06T05:39:02Z</time>
      </trkpt>
      <trkpt lat="50.48703" lon="3.18264">
        <ele>32.6</ele>
        <time>2023-08-06T05:39:03Z</time>
      </trkpt>
      <trkpt lat="50.48701" lon="3.18271">
        <ele>32.6</ele>
        <time>2023-08-06T05:39:04Z</time>
      </trkpt>
      <trkpt lat="50.48699" lon="3.18278">
        <ele>32.4</ele>
        <time>2023-08-06T05:39:05Z</time>
      </trkpt>
      <trkpt lat="50.48697" lon="3.18284">
        <ele>32.2</ele>
        <time>2023-08-06T05:39:06Z</time>
      </trkpt>
      <trkpt lat="50.48696" lon="3.18292">
        <ele>32.2</ele>
        <time>2023-08-06T05:39:07Z</time>
      </trkpt>
      <trkpt lat="50.48694" lon="3.18299">
        <ele>32</ele>
        <time>2023-08-06T05:39:08Z</time>
      </trkpt>
      <trkpt lat="50.48692" lon="3.18308">
        <ele>32</ele>
        <time>2023-08-06T05:39:09Z</time>
      </trkpt>
      <trkpt lat="50.4869" lon="3.18314">
        <ele>31.8</ele>
        <time>2023-08-06T05:39:10Z</time>
      </trkpt>
      <trkpt lat="50.48689" lon="3.18322">
        <ele>31.8</ele>
        <time>2023-08-06T05:39:11Z</time>
      </trkpt>
      <trkpt lat="50.48682" lon="3.18353">
        <ele>31.6</ele>
        <time>2023-08-06T05:39:15Z</time>
      </trkpt>
      <trkpt lat="50.48665" lon="3.18427">
        <ele>31.8</ele>
        <time>2023-08-06T05:39:24Z</time>
      </trkpt>
      <trkpt lat="50.48654" lon="3.18457">
        <ele>31.2</ele>
        <time>2023-08-06T05:39:28Z</time>
      </trkpt>
      <trkpt lat="50.48651" lon="3.18463">
        <ele>31.2</ele>
        <time>2023-08-06T05:39:29Z</time>
      </trkpt>
      <trkpt lat="50.48647" lon="3.18469">
        <ele>31</ele>
        <time>2023-08-06T05:39:30Z</time>
      </trkpt>
      <trkpt lat="50.4864" lon="3.18479">
        <ele>31</ele>
        <time>2023-08-06T05:39:32Z</time>
      </trkpt>
      <trkpt lat="50.48636" lon="3.18484">
        <ele>31</ele>
        <time>2023-08-06T05:39:33Z</time>
      </trkpt>
      <trkpt lat="50.48632" lon="3.18489">
        <ele>31</ele>
        <time>2023-08-06T05:39:34Z</time>
      </trkpt>
      <trkpt lat="50.48629" lon="3.18494">
        <ele>31</ele>
        <time>2023-08-06T05:39:35Z</time>
      </trkpt>
      <trkpt lat="50.48625" lon="3.18499">
        <ele>30.8</ele>
        <time>2023-08-06T05:39:36Z</time>
      </trkpt>
      <trkpt lat="50.48621" lon="3.18506">
        <ele>30.8</ele>
        <time>2023-08-06T05:39:37Z</time>
      </trkpt>
      <trkpt lat="50.48618" lon="3.1851">
        <ele>30.8</ele>
        <time>2023-08-06T05:39:38Z</time>
      </trkpt>
      <trkpt lat="50.48614" lon="3.18515">
        <ele>30.6</ele>
        <time>2023-08-06T05:39:39Z</time>
      </trkpt>
      <trkpt lat="50.4861" lon="3.18522">
        <ele>30.6</ele>
        <time>2023-08-06T05:39:40Z</time>
      </trkpt>
      <trkpt lat="50.48603" lon="3.18531">
        <ele>30.6</ele>
        <time>2023-08-06T05:39:42Z</time>
      </trkpt>
      <trkpt lat="50.48578" lon="3.18561">
        <ele>30.4</ele>
        <time>2023-08-06T05:39:48Z</time>
      </trkpt>
      <trkpt lat="50.48559" lon="3.18576">
        <ele>30.4</ele>
        <time>2023-08-06T05:39:52Z</time>
      </trkpt>
      <trkpt lat="50.48538" lon="3.18593">
        <ele>30.2</ele>
        <time>2023-08-06T05:39:57Z</time>
      </trkpt>
      <trkpt lat="50.48533" lon="3.18597">
        <ele>30</ele>
        <time>2023-08-06T05:39:58Z</time>
      </trkpt>
      <trkpt lat="50.48529" lon="3.18599">
        <ele>30</ele>
        <time>2023-08-06T05:39:59Z</time>
      </trkpt>
      <trkpt lat="50.48524" lon="3.18601">
        <ele>30</ele>
        <time>2023-08-06T05:40:00Z</time>
      </trkpt>
      <trkpt lat="50.48519" lon="3.186">
        <ele>30</ele>
        <time>2023-08-06T05:40:01Z</time>
      </trkpt>
      <trkpt lat="50.48516" lon="3.18599">
        <ele>30</ele>
        <time>2023-08-06T05:40:02Z</time>
      </trkpt>
      <trkpt lat="50.48511" lon="3.18596">
        <ele>29.6</ele>
        <time>2023-08-06T05:40:03Z</time>
      </trkpt>
      <trkpt lat="50.48507" lon="3.18592">
        <ele>29.6</ele>
        <time>2023-08-06T05:40:04Z</time>
      </trkpt>
      <trkpt lat="50.48502" lon="3.18588">
        <ele>29.6</ele>
        <time>2023-08-06T05:40:05Z</time>
      </trkpt>
      <trkpt lat="50.48499" lon="3.18585">
        <ele>29.4</ele>
        <time>2023-08-06T05:40:06Z</time>
      </trkpt>
      <trkpt lat="50.48494" lon="3.18582">
        <ele>29.4</ele>
        <time>2023-08-06T05:40:07Z</time>
      </trkpt>
      <trkpt lat="50.48484" lon="3.18581">
        <ele>29.4</ele>
        <time>2023-08-06T05:40:09Z</time>
      </trkpt>
      <trkpt lat="50.48479" lon="3.18582">
        <ele>29.4</ele>
        <time>2023-08-06T05:40:10Z</time>
      </trkpt>
      <trkpt lat="50.48474" lon="3.18584">
        <ele>29.4</ele>
        <time>2023-08-06T05:40:11Z</time>
      </trkpt>
      <trkpt lat="50.48469" lon="3.18586">
        <ele>29.2</ele>
        <time>2023-08-06T05:40:12Z</time>
      </trkpt>
      <trkpt lat="50.48465" lon="3.18589">
        <ele>29.2</ele>
        <time>2023-08-06T05:40:13Z</time>
      </trkpt>
      <trkpt lat="50.4846" lon="3.18593">
        <ele>29.2</ele>
        <time>2023-08-06T05:40:14Z</time>
      </trkpt>
      <trkpt lat="50.48454" lon="3.18599">
        <ele>29.2</ele>
        <time>2023-08-06T05:40:15Z</time>
      </trkpt>
      <trkpt lat="50.48423" lon="3.18643">
        <ele>28.8</ele>
        <time>2023-08-06T05:40:22Z</time>
      </trkpt>
      <trkpt lat="50.484" lon="3.18698">
        <ele>28.6</ele>
        <time>2023-08-06T05:40:29Z</time>
      </trkpt>
      <trkpt lat="50.48379" lon="3.18774">
        <ele>28.4</ele>
        <time>2023-08-06T05:40:37Z</time>
      </trkpt>
      <trkpt lat="50.48371" lon="3.18801">
        <ele>28.4</ele>
        <time>2023-08-06T05:40:40Z</time>
      </trkpt>
      <trkpt lat="50.48353" lon="3.18861">
        <ele>27.8</ele>
        <time>2023-08-06T05:40:46Z</time>
      </trkpt>
      <trkpt lat="50.4833" lon="3.1893">
        <ele>27.6</ele>
        <time>2023-08-06T05:40:53Z</time>
      </trkpt>
      <trkpt lat="50.4831" lon="3.18987">
        <ele>27.4</ele>
        <time>2023-08-06T05:40:59Z</time>
      </trkpt>
      <trkpt lat="50.48307" lon="3.18996">
        <ele>27.4</ele>
        <time>2023-08-06T05:41:00Z</time>
      </trkpt>
      <trkpt lat="50.48303" lon="3.19007">
        <ele>27.4</ele>
        <time>2023-08-06T05:41:01Z</time>
      </trkpt>
      <trkpt lat="50.48299" lon="3.19014">
        <ele>27.4</ele>
        <time>2023-08-06T05:41:02Z</time>
      </trkpt>
      <trkpt lat="50.48295" lon="3.19022">
        <ele>27.4</ele>
        <time>2023-08-06T05:41:03Z</time>
      </trkpt>
      <trkpt lat="50.48281" lon="3.19047">
        <ele>27.2</ele>
        <time>2023-08-06T05:41:06Z</time>
      </trkpt>
      <trkpt lat="50.48267" lon="3.19068">
        <ele>27.2</ele>
        <time>2023-08-06T05:41:09Z</time>
      </trkpt>
      <trkpt lat="50.48263" lon="3.19073">
        <ele>27.4</ele>
        <time>2023-08-06T05:41:10Z</time>
      </trkpt>
      <trkpt lat="50.48258" lon="3.1908">
        <ele>27.4</ele>
        <time>2023-08-06T05:41:11Z</time>
      </trkpt>
      <trkpt lat="50.48253" lon="3.19088">
        <ele>27.4</ele>
        <time>2023-08-06T05:41:12Z</time>
      </trkpt>
      <trkpt lat="50.48249" lon="3.19095">
        <ele>27.4</ele>
        <time>2023-08-06T05:41:13Z</time>
      </trkpt>
      <trkpt lat="50.48245" lon="3.19103">
        <ele>27.4</ele>
        <time>2023-08-06T05:41:14Z</time>
      </trkpt>
      <trkpt lat="50.48242" lon="3.19111">
        <ele>27.6</ele>
        <time>2023-08-06T05:41:15Z</time>
      </trkpt>
      <trkpt lat="50.48236" lon="3.19128">
        <ele>27.8</ele>
        <time>2023-08-06T05:41:17Z</time>
      </trkpt>
      <trkpt lat="50.48233" lon="3.19136">
        <ele>27.8</ele>
        <time>2023-08-06T05:41:18Z</time>
      </trkpt>
      <trkpt lat="50.4823" lon="3.19147">
        <ele>27.8</ele>
        <time>2023-08-06T05:41:19Z</time>
      </trkpt>
      <trkpt lat="50.48228" lon="3.19155">
        <ele>28</ele>
        <time>2023-08-06T05:41:20Z</time>
      </trkpt>
      <trkpt lat="50.48226" lon="3.19162">
        <ele>28</ele>
        <time>2023-08-06T05:41:21Z</time>
      </trkpt>
      <trkpt lat="50.48224" lon="3.19171">
        <ele>28</ele>
        <time>2023-08-06T05:41:22Z</time>
      </trkpt>
      <trkpt lat="50.48221" lon="3.1918">
        <ele>28.2</ele>
        <time>2023-08-06T05:41:23Z</time>
      </trkpt>
      <trkpt lat="50.4822" lon="3.19187">
        <ele>28.2</ele>
        <time>2023-08-06T05:41:24Z</time>
      </trkpt>
      <trkpt lat="50.48218" lon="3.19198">
        <ele>28.4</ele>
        <time>2023-08-06T05:41:25Z</time>
      </trkpt>
      <trkpt lat="50.48217" lon="3.19204">
        <ele>28.6</ele>
        <time>2023-08-06T05:41:26Z</time>
      </trkpt>
      <trkpt lat="50.48216" lon="3.19213">
        <ele>28.8</ele>
        <time>2023-08-06T05:41:27Z</time>
      </trkpt>
      <trkpt lat="50.48215" lon="3.19222">
        <ele>28.8</ele>
        <time>2023-08-06T05:41:28Z</time>
      </trkpt>
      <trkpt lat="50.48214" lon="3.19233">
        <ele>28.8</ele>
        <time>2023-08-06T05:41:29Z</time>
      </trkpt>
      <trkpt lat="50.48214" lon="3.19277">
        <ele>29.2</ele>
        <time>2023-08-06T05:41:34Z</time>
      </trkpt>
      <trkpt lat="50.48217" lon="3.19305">
        <ele>29.4</ele>
        <time>2023-08-06T05:41:37Z</time>
      </trkpt>
      <trkpt lat="50.4822" lon="3.1936">
        <ele>29.8</ele>
        <time>2023-08-06T05:41:43Z</time>
      </trkpt>
      <trkpt lat="50.4823" lon="3.19411">
        <ele>29.8</ele>
        <time>2023-08-06T05:41:49Z</time>
      </trkpt>
      <trkpt lat="50.48245" lon="3.19462">
        <ele>29.8</ele>
        <time>2023-08-06T05:41:55Z</time>
      </trkpt>
      <trkpt lat="50.4827" lon="3.19538">
        <ele>29.4</ele>
        <time>2023-08-06T05:42:04Z</time>
      </trkpt>
      <trkpt lat="50.48284" lon="3.1959">
        <ele>29.6</ele>
        <time>2023-08-06T05:42:10Z</time>
      </trkpt>
      <trkpt lat="50.48286" lon="3.19601">
        <ele>29.6</ele>
        <time>2023-08-06T05:42:11Z</time>
      </trkpt>
      <trkpt lat="50.48286" lon="3.19618">
        <ele>29.6</ele>
        <time>2023-08-06T05:42:13Z</time>
      </trkpt>
      <trkpt lat="50.48285" lon="3.19626">
        <ele>29.8</ele>
        <time>2023-08-06T05:42:14Z</time>
      </trkpt>
      <trkpt lat="50.48283" lon="3.19635">
        <ele>29.8</ele>
        <time>2023-08-06T05:42:15Z</time>
      </trkpt>
      <trkpt lat="50.48279" lon="3.19645">
        <ele>29.8</ele>
        <time>2023-08-06T05:42:16Z</time>
      </trkpt>
      <trkpt lat="50.48276" lon="3.19651">
        <ele>29.8</ele>
        <time>2023-08-06T05:42:17Z</time>
      </trkpt>
      <trkpt lat="50.48273" lon="3.19658">
        <ele>29.6</ele>
        <time>2023-08-06T05:42:18Z</time>
      </trkpt>
      <trkpt lat="50.4827" lon="3.19665">
        <ele>29.6</ele>
        <time>2023-08-06T05:42:19Z</time>
      </trkpt>
      <trkpt lat="50.48266" lon="3.19672">
        <ele>29.6</ele>
        <time>2023-08-06T05:42:20Z</time>
      </trkpt>
      <trkpt lat="50.48262" lon="3.19681">
        <ele>29.6</ele>
        <time>2023-08-06T05:42:21Z</time>
      </trkpt>
      <trkpt lat="50.48256" lon="3.19694">
        <ele>29.6</ele>
        <time>2023-08-06T05:42:23Z</time>
      </trkpt>
      <trkpt lat="50.48249" lon="3.19709">
        <ele>29.8</ele>
        <time>2023-08-06T05:42:25Z</time>
      </trkpt>
      <trkpt lat="50.48246" lon="3.19715">
        <ele>29.8</ele>
        <time>2023-08-06T05:42:26Z</time>
      </trkpt>
      <trkpt lat="50.48243" lon="3.19722">
        <ele>29.8</ele>
        <time>2023-08-06T05:42:27Z</time>
      </trkpt>
      <trkpt lat="50.48239" lon="3.1973">
        <ele>29.8</ele>
        <time>2023-08-06T05:42:28Z</time>
      </trkpt>
      <trkpt lat="50.48236" lon="3.19735">
        <ele>30</ele>
        <time>2023-08-06T05:42:29Z</time>
      </trkpt>
      <trkpt lat="50.48232" lon="3.19743">
        <ele>30</ele>
        <time>2023-08-06T05:42:30Z</time>
      </trkpt>
      <trkpt lat="50.4823" lon="3.19748">
        <ele>30.2</ele>
        <time>2023-08-06T05:42:31Z</time>
      </trkpt>
      <trkpt lat="50.48226" lon="3.19754">
        <ele>30.2</ele>
        <time>2023-08-06T05:42:32Z</time>
      </trkpt>
      <trkpt lat="50.48223" lon="3.1976">
        <ele>30.4</ele>
        <time>2023-08-06T05:42:33Z</time>
      </trkpt>
      <trkpt lat="50.48219" lon="3.19768">
        <ele>30.6</ele>
        <time>2023-08-06T05:42:34Z</time>
      </trkpt>
      <trkpt lat="50.48217" lon="3.19775">
        <ele>30.6</ele>
        <time>2023-08-06T05:42:35Z</time>
      </trkpt>
      <trkpt lat="50.48214" lon="3.19781">
        <ele>30.8</ele>
        <time>2023-08-06T05:42:36Z</time>
      </trkpt>
      <trkpt lat="50.48211" lon="3.19788">
        <ele>31</ele>
        <time>2023-08-06T05:42:37Z</time>
      </trkpt>
      <trkpt lat="50.48208" lon="3.19794">
        <ele>31</ele>
        <time>2023-08-06T05:42:38Z</time>
      </trkpt>
      <trkpt lat="50.48202" lon="3.19807">
        <ele>31</ele>
        <time>2023-08-06T05:42:40Z</time>
      </trkpt>
      <trkpt lat="50.48199" lon="3.19813">
        <ele>31</ele>
        <time>2023-08-06T05:42:41Z</time>
      </trkpt>
      <trkpt lat="50.48195" lon="3.1982">
        <ele>31.2</ele>
        <time>2023-08-06T05:42:42Z</time>
      </trkpt>
      <trkpt lat="50.48193" lon="3.19825">
        <ele>31.2</ele>
        <time>2023-08-06T05:42:43Z</time>
      </trkpt>
      <trkpt lat="50.4819" lon="3.19831">
        <ele>31.2</ele>
        <time>2023-08-06T05:42:44Z</time>
      </trkpt>
      <trkpt lat="50.48187" lon="3.19836">
        <ele>31.2</ele>
        <time>2023-08-06T05:42:45Z</time>
      </trkpt>
      <trkpt lat="50.48184" lon="3.19843">
        <ele>31.2</ele>
        <time>2023-08-06T05:42:46Z</time>
      </trkpt>
      <trkpt lat="50.48182" lon="3.19849">
        <ele>31.4</ele>
        <time>2023-08-06T05:42:47Z</time>
      </trkpt>
      <trkpt lat="50.48173" lon="3.19868">
        <ele>31.6</ele>
        <time>2023-08-06T05:42:50Z</time>
      </trkpt>
      <trkpt lat="50.48165" lon="3.19889">
        <ele>32.2</ele>
        <time>2023-08-06T05:42:53Z</time>
      </trkpt>
      <trkpt lat="50.48157" lon="3.1991">
        <ele>32.2</ele>
        <time>2023-08-06T05:42:56Z</time>
      </trkpt>
      <trkpt lat="50.48154" lon="3.19917">
        <ele>32.4</ele>
        <time>2023-08-06T05:42:57Z</time>
      </trkpt>
      <trkpt lat="50.48143" lon="3.19946">
        <ele>33.2</ele>
        <time>2023-08-06T05:43:01Z</time>
      </trkpt>
      <trkpt lat="50.48138" lon="3.19967">
        <ele>33.4</ele>
        <time>2023-08-06T05:43:04Z</time>
      </trkpt>
      <trkpt lat="50.48134" lon="3.19984">
        <ele>33.4</ele>
        <time>2023-08-06T05:43:06Z</time>
      </trkpt>
      <trkpt lat="50.48132" lon="3.19992">
        <ele>33.4</ele>
        <time>2023-08-06T05:43:07Z</time>
      </trkpt>
      <trkpt lat="50.48131" lon="3.19998">
        <ele>33.4</ele>
        <time>2023-08-06T05:43:08Z</time>
      </trkpt>
      <trkpt lat="50.4813" lon="3.20006">
        <ele>33.4</ele>
        <time>2023-08-06T05:43:09Z</time>
      </trkpt>
      <trkpt lat="50.48128" lon="3.20016">
        <ele>33.4</ele>
        <time>2023-08-06T05:43:10Z</time>
      </trkpt>
      <trkpt lat="50.48125" lon="3.20032">
        <ele>33.2</ele>
        <time>2023-08-06T05:43:12Z</time>
      </trkpt>
      <trkpt lat="50.48113" lon="3.20111">
        <ele>32.8</ele>
        <time>2023-08-06T05:43:21Z</time>
      </trkpt>
      <trkpt lat="50.48111" lon="3.2012">
        <ele>32.8</ele>
        <time>2023-08-06T05:43:22Z</time>
      </trkpt>
      <trkpt lat="50.48096" lon="3.20161">
        <ele>32.8</ele>
        <time>2023-08-06T05:43:27Z</time>
      </trkpt>
      <trkpt lat="50.48076" lon="3.20194">
        <ele>32.6</ele>
        <time>2023-08-06T05:43:32Z</time>
      </trkpt>
      <trkpt lat="50.48071" lon="3.20202">
        <ele>32.6</ele>
        <time>2023-08-06T05:43:33Z</time>
      </trkpt>
      <trkpt lat="50.48068" lon="3.20207">
        <ele>32.8</ele>
        <time>2023-08-06T05:43:34Z</time>
      </trkpt>
      <trkpt lat="50.48063" lon="3.20215">
        <ele>32.8</ele>
        <time>2023-08-06T05:43:35Z</time>
      </trkpt>
      <trkpt lat="50.48056" lon="3.20226">
        <ele>32.8</ele>
        <time>2023-08-06T05:43:37Z</time>
      </trkpt>
      <trkpt lat="50.48037" lon="3.20259">
        <ele>32.8</ele>
        <time>2023-08-06T05:43:42Z</time>
      </trkpt>
      <trkpt lat="50.47998" lon="3.20323">
        <ele>33.2</ele>
        <time>2023-08-06T05:43:52Z</time>
      </trkpt>
      <trkpt lat="50.4799" lon="3.20336">
        <ele>33.4</ele>
        <time>2023-08-06T05:43:54Z</time>
      </trkpt>
      <trkpt lat="50.47984" lon="3.2035">
        <ele>33.4</ele>
        <time>2023-08-06T05:43:56Z</time>
      </trkpt>
      <trkpt lat="50.47977" lon="3.20371">
        <ele>33.6</ele>
        <time>2023-08-06T05:43:59Z</time>
      </trkpt>
      <trkpt lat="50.47975" lon="3.20387">
        <ele>33.6</ele>
        <time>2023-08-06T05:44:01Z</time>
      </trkpt>
      <trkpt lat="50.47975" lon="3.20394">
        <ele>33.8</ele>
        <time>2023-08-06T05:44:02Z</time>
      </trkpt>
      <trkpt lat="50.47974" lon="3.20401">
        <ele>33.8</ele>
        <time>2023-08-06T05:44:03Z</time>
      </trkpt>
      <trkpt lat="50.47974" lon="3.20408">
        <ele>33.8</ele>
        <time>2023-08-06T05:44:04Z</time>
      </trkpt>
      <trkpt lat="50.47973" lon="3.20415">
        <ele>33.8</ele>
        <time>2023-08-06T05:44:05Z</time>
      </trkpt>
      <trkpt lat="50.47971" lon="3.20421">
        <ele>33.8</ele>
        <time>2023-08-06T05:44:06Z</time>
      </trkpt>
      <trkpt lat="50.47968" lon="3.20425">
        <ele>34</ele>
        <time>2023-08-06T05:44:07Z</time>
      </trkpt>
      <trkpt lat="50.47965" lon="3.20429">
        <ele>34</ele>
        <time>2023-08-06T05:44:08Z</time>
      </trkpt>
      <trkpt lat="50.47961" lon="3.20432">
        <ele>33.8</ele>
        <time>2023-08-06T05:44:09Z</time>
      </trkpt>
      <trkpt lat="50.47957" lon="3.20435">
        <ele>33.8</ele>
        <time>2023-08-06T05:44:10Z</time>
      </trkpt>
      <trkpt lat="50.47954" lon="3.20438">
        <ele>34</ele>
        <time>2023-08-06T05:44:11Z</time>
      </trkpt>
      <trkpt lat="50.4795" lon="3.20441">
        <ele>34</ele>
        <time>2023-08-06T05:44:12Z</time>
      </trkpt>
      <trkpt lat="50.47947" lon="3.20446">
        <ele>34</ele>
        <time>2023-08-06T05:44:13Z</time>
      </trkpt>
      <trkpt lat="50.47946" lon="3.20458">
        <ele>34</ele>
        <time>2023-08-06T05:44:15Z</time>
      </trkpt>
      <trkpt lat="50.47947" lon="3.20464">
        <ele>34</ele>
        <time>2023-08-06T05:44:16Z</time>
      </trkpt>
      <trkpt lat="50.4795" lon="3.2047">
        <ele>34</ele>
        <time>2023-08-06T05:44:17Z</time>
      </trkpt>
      <trkpt lat="50.47957" lon="3.2048">
        <ele>34</ele>
        <time>2023-08-06T05:44:19Z</time>
      </trkpt>
      <trkpt lat="50.47961" lon="3.20483">
        <ele>34</ele>
        <time>2023-08-06T05:44:20Z</time>
      </trkpt>
      <trkpt lat="50.47967" lon="3.20488">
        <ele>34</ele>
        <time>2023-08-06T05:44:21Z</time>
      </trkpt>
      <trkpt lat="50.47971" lon="3.2049">
        <ele>34</ele>
        <time>2023-08-06T05:44:22Z</time>
      </trkpt>
      <trkpt lat="50.47981" lon="3.20496">
        <ele>34</ele>
        <time>2023-08-06T05:44:24Z</time>
      </trkpt>
      <trkpt lat="50.47997" lon="3.20501">
        <ele>33.8</ele>
        <time>2023-08-06T05:44:27Z</time>
      </trkpt>
      <trkpt lat="50.48002" lon="3.20504">
        <ele>33.8</ele>
        <time>2023-08-06T05:44:28Z</time>
      </trkpt>
      <trkpt lat="50.48012" lon="3.20514">
        <ele>33.8</ele>
        <time>2023-08-06T05:44:30Z</time>
      </trkpt>
      <trkpt lat="50.48047" lon="3.20565">
        <ele>33.2</ele>
        <time>2023-08-06T05:44:38Z</time>
      </trkpt>
      <trkpt lat="50.48058" lon="3.20586">
        <ele>33</ele>
        <time>2023-08-06T05:44:41Z</time>
      </trkpt>
      <trkpt lat="50.48063" lon="3.20592">
        <ele>33</ele>
        <time>2023-08-06T05:44:42Z</time>
      </trkpt>
      <trkpt lat="50.48067" lon="3.20598">
        <ele>32.8</ele>
        <time>2023-08-06T05:44:43Z</time>
      </trkpt>
      <trkpt lat="50.48071" lon="3.20604">
        <ele>32.8</ele>
        <time>2023-08-06T05:44:44Z</time>
      </trkpt>
      <trkpt lat="50.48105" lon="3.20679">
        <ele>32.4</ele>
        <time>2023-08-06T05:44:54Z</time>
      </trkpt>
      <trkpt lat="50.48108" lon="3.20685">
        <ele>32.4</ele>
        <time>2023-08-06T05:44:55Z</time>
      </trkpt>
      <trkpt lat="50.48111" lon="3.20693">
        <ele>32.2</ele>
        <time>2023-08-06T05:44:56Z</time>
      </trkpt>
      <trkpt lat="50.48122" lon="3.20715">
        <ele>32</ele>
        <time>2023-08-06T05:44:59Z</time>
      </trkpt>
      <trkpt lat="50.48129" lon="3.20728">
        <ele>32</ele>
        <time>2023-08-06T05:45:01Z</time>
      </trkpt>
      <trkpt lat="50.48133" lon="3.20733">
        <ele>31.8</ele>
        <time>2023-08-06T05:45:02Z</time>
      </trkpt>
      <trkpt lat="50.48137" lon="3.20739">
        <ele>31.8</ele>
        <time>2023-08-06T05:45:03Z</time>
      </trkpt>
      <trkpt lat="50.48141" lon="3.20743">
        <ele>31.8</ele>
        <time>2023-08-06T05:45:04Z</time>
      </trkpt>
      <trkpt lat="50.48144" lon="3.20747">
        <ele>31.8</ele>
        <time>2023-08-06T05:45:05Z</time>
      </trkpt>
      <trkpt lat="50.48147" lon="3.20751">
        <ele>31.8</ele>
        <time>2023-08-06T05:45:06Z</time>
      </trkpt>
      <trkpt lat="50.48149" lon="3.20754">
        <ele>31.8</ele>
        <time>2023-08-06T05:45:07Z</time>
      </trkpt>
      <trkpt lat="50.48151" lon="3.20756">
        <ele>31.8</ele>
        <time>2023-08-06T05:45:08Z</time>
      </trkpt>
      <trkpt lat="50.48152" lon="3.20758">
        <ele>31.8</ele>
        <time>2023-08-06T05:45:09Z</time>
      </trkpt>
      <trkpt lat="50.48154" lon="3.2076">
        <ele>31.8</ele>
        <time>2023-08-06T05:45:10Z</time>
      </trkpt>
      <trkpt lat="50.48156" lon="3.20762">
        <ele>31.8</ele>
        <time>2023-08-06T05:45:11Z</time>
      </trkpt>
      <trkpt lat="50.48158" lon="3.20763">
        <ele>31.8</ele>
        <time>2023-08-06T05:45:12Z</time>
      </trkpt>
      <trkpt lat="50.48163" lon="3.20767">
        <ele>31.8</ele>
        <time>2023-08-06T05:45:14Z</time>
      </trkpt>
      <trkpt lat="50.4818" lon="3.20785">
        <ele>32</ele>
        <time>2023-08-06T05:45:19Z</time>
      </trkpt>
      <trkpt lat="50.48207" lon="3.2081">
        <ele>32</ele>
        <time>2023-08-06T05:45:25Z</time>
      </trkpt>
      <trkpt lat="50.48239" lon="3.2084">
        <ele>31.2</ele>
        <time>2023-08-06T05:45:32Z</time>
      </trkpt>
      <trkpt lat="50.48244" lon="3.20844">
        <ele>31.2</ele>
        <time>2023-08-06T05:45:33Z</time>
      </trkpt>
      <trkpt lat="50.48279" lon="3.20873">
        <ele>30.4</ele>
        <time>2023-08-06T05:45:41Z</time>
      </trkpt>
      <trkpt lat="50.48295" lon="3.20886">
        <ele>30</ele>
        <time>2023-08-06T05:45:43Z</time>
      </trkpt>
      <trkpt lat="50.48333" lon="3.20918">
        <ele>29.4</ele>
        <time>2023-08-06T05:45:50Z</time>
      </trkpt>
      <trkpt lat="50.48384" lon="3.20962">
        <ele>29</ele>
        <time>2023-08-06T05:45:59Z</time>
      </trkpt>
      <trkpt lat="50.48401" lon="3.20975">
        <ele>28.8</ele>
        <time>2023-08-06T05:46:02Z</time>
      </trkpt>
      <trkpt lat="50.48407" lon="3.20979">
        <ele>28.6</ele>
        <time>2023-08-06T05:46:03Z</time>
      </trkpt>
      <trkpt lat="50.48419" lon="3.20983">
        <ele>28.4</ele>
        <time>2023-08-06T05:46:05Z</time>
      </trkpt>
      <trkpt lat="50.4845" lon="3.20987">
        <ele>27.6</ele>
        <time>2023-08-06T05:46:10Z</time>
      </trkpt>
      <trkpt lat="50.48469" lon="3.20991">
        <ele>27.4</ele>
        <time>2023-08-06T05:46:13Z</time>
      </trkpt>
      <trkpt lat="50.4851" lon="3.21005">
        <ele>26.6</ele>
        <time>2023-08-06T05:46:20Z</time>
      </trkpt>
      <trkpt lat="50.48515" lon="3.21008">
        <ele>26.6</ele>
        <time>2023-08-06T05:46:21Z</time>
      </trkpt>
      <trkpt lat="50.48521" lon="3.2101">
        <ele>26.4</ele>
        <time>2023-08-06T05:46:22Z</time>
      </trkpt>
      <trkpt lat="50.48574" lon="3.21031">
        <ele>26</ele>
        <time>2023-08-06T05:46:31Z</time>
      </trkpt>
      <trkpt lat="50.48598" lon="3.21039">
        <ele>25.6</ele>
        <time>2023-08-06T05:46:35Z</time>
      </trkpt>
      <trkpt lat="50.48604" lon="3.2104">
        <ele>25.4</ele>
        <time>2023-08-06T05:46:36Z</time>
      </trkpt>
      <trkpt lat="50.48653" lon="3.2105">
        <ele>24.8</ele>
        <time>2023-08-06T05:46:44Z</time>
      </trkpt>
      <trkpt lat="50.48684" lon="3.21055">
        <ele>24.4</ele>
        <time>2023-08-06T05:46:49Z</time>
      </trkpt>
      <trkpt lat="50.48701" lon="3.21053">
        <ele>24.2</ele>
        <time>2023-08-06T05:46:52Z</time>
      </trkpt>
      <trkpt lat="50.48718" lon="3.21053">
        <ele>24</ele>
        <time>2023-08-06T05:46:55Z</time>
      </trkpt>
      <trkpt lat="50.48724" lon="3.21053">
        <ele>24</ele>
        <time>2023-08-06T05:46:56Z</time>
      </trkpt>
      <trkpt lat="50.4873" lon="3.21054">
        <ele>23.8</ele>
        <time>2023-08-06T05:46:57Z</time>
      </trkpt>
      <trkpt lat="50.48735" lon="3.21056">
        <ele>23.8</ele>
        <time>2023-08-06T05:46:58Z</time>
      </trkpt>
      <trkpt lat="50.48741" lon="3.21057">
        <ele>23.8</ele>
        <time>2023-08-06T05:46:59Z</time>
      </trkpt>
      <trkpt lat="50.48773" lon="3.21068">
        <ele>23.8</ele>
        <time>2023-08-06T05:47:05Z</time>
      </trkpt>
      <trkpt lat="50.48773" lon="3.21068">
        <ele>23.8</ele>
        <time>2023-08-06T05:47:06Z</time>
      </trkpt>
      <trkpt lat="50.48784" lon="3.21072">
        <ele>23.8</ele>
        <time>2023-08-06T05:47:07Z</time>
      </trkpt>
      <trkpt lat="50.48799" lon="3.21077">
        <ele>23.8</ele>
        <time>2023-08-06T05:47:10Z</time>
      </trkpt>
      <trkpt lat="50.48809" lon="3.21081">
        <ele>23.8</ele>
        <time>2023-08-06T05:47:12Z</time>
      </trkpt>
      <trkpt lat="50.48814" lon="3.21083">
        <ele>23.8</ele>
        <time>2023-08-06T05:47:13Z</time>
      </trkpt>
      <trkpt lat="50.48819" lon="3.21085">
        <ele>23.8</ele>
        <time>2023-08-06T05:47:14Z</time>
      </trkpt>
      <trkpt lat="50.48824" lon="3.21087">
        <ele>23.8</ele>
        <time>2023-08-06T05:47:15Z</time>
      </trkpt>
      <trkpt lat="50.48829" lon="3.21089">
        <ele>23.6</ele>
        <time>2023-08-06T05:47:16Z</time>
      </trkpt>
      <trkpt lat="50.48834" lon="3.21091">
        <ele>23.6</ele>
        <time>2023-08-06T05:47:17Z</time>
      </trkpt>
      <trkpt lat="50.48834" lon="3.21091">
        <ele>23.6</ele>
        <time>2023-08-06T05:47:18Z</time>
      </trkpt>
      <trkpt lat="50.48842" lon="3.21096">
        <ele>23.6</ele>
        <time>2023-08-06T05:47:19Z</time>
      </trkpt>
      <trkpt lat="50.48848" lon="3.21099">
        <ele>23.6</ele>
        <time>2023-08-06T05:47:20Z</time>
      </trkpt>
      <trkpt lat="50.48852" lon="3.21102">
        <ele>23.4</ele>
        <time>2023-08-06T05:47:21Z</time>
      </trkpt>
      <trkpt lat="50.48855" lon="3.21104">
        <ele>23.4</ele>
        <time>2023-08-06T05:47:22Z</time>
      </trkpt>
      <trkpt lat="50.4886" lon="3.21106">
        <ele>23.4</ele>
        <time>2023-08-06T05:47:23Z</time>
      </trkpt>
      <trkpt lat="50.48873" lon="3.21116">
        <ele>23.2</ele>
        <time>2023-08-06T05:47:26Z</time>
      </trkpt>
      <trkpt lat="50.48877" lon="3.2112">
        <ele>23.2</ele>
        <time>2023-08-06T05:47:27Z</time>
      </trkpt>
      <trkpt lat="50.48879" lon="3.21126">
        <ele>23.2</ele>
        <time>2023-08-06T05:47:28Z</time>
      </trkpt>
      <trkpt lat="50.48881" lon="3.21133">
        <ele>23.2</ele>
        <time>2023-08-06T05:47:29Z</time>
      </trkpt>
      <trkpt lat="50.48881" lon="3.21133">
        <ele>23.2</ele>
        <time>2023-08-06T05:47:30Z</time>
      </trkpt>
      <trkpt lat="50.48881" lon="3.2114">
        <ele>23.2</ele>
        <time>2023-08-06T05:47:31Z</time>
      </trkpt>
      <trkpt lat="50.48878" lon="3.21155">
        <ele>23.2</ele>
        <time>2023-08-06T05:47:32Z</time>
      </trkpt>
      <trkpt lat="50.48877" lon="3.2116">
        <ele>23.2</ele>
        <time>2023-08-06T05:47:33Z</time>
      </trkpt>
      <trkpt lat="50.48875" lon="3.21168">
        <ele>23.2</ele>
        <time>2023-08-06T05:47:34Z</time>
      </trkpt>
      <trkpt lat="50.48874" lon="3.21176">
        <ele>23.2</ele>
        <time>2023-08-06T05:47:35Z</time>
      </trkpt>
      <trkpt lat="50.48873" lon="3.21183">
        <ele>23.2</ele>
        <time>2023-08-06T05:47:36Z</time>
      </trkpt>
      <trkpt lat="50.48871" lon="3.21189">
        <ele>23.2</ele>
        <time>2023-08-06T05:47:37Z</time>
      </trkpt>
      <trkpt lat="50.48871" lon="3.21189">
        <ele>23.4</ele>
        <time>2023-08-06T05:47:38Z</time>
      </trkpt>
      <trkpt lat="50.4887" lon="3.21202">
        <ele>23.4</ele>
        <time>2023-08-06T05:47:39Z</time>
      </trkpt>
      <trkpt lat="50.48869" lon="3.21208">
        <ele>23.6</ele>
        <time>2023-08-06T05:47:40Z</time>
      </trkpt>
      <trkpt lat="50.48869" lon="3.21213">
        <ele>23.6</ele>
        <time>2023-08-06T05:47:41Z</time>
      </trkpt>
      <trkpt lat="50.48868" lon="3.21219">
        <ele>23.8</ele>
        <time>2023-08-06T05:47:42Z</time>
      </trkpt>
      <trkpt lat="50.48867" lon="3.21224">
        <ele>23.8</ele>
        <time>2023-08-06T05:47:43Z</time>
      </trkpt>
      <trkpt lat="50.48867" lon="3.21228">
        <ele>24.2</ele>
        <time>2023-08-06T05:47:44Z</time>
      </trkpt>
      <trkpt lat="50.48867" lon="3.21232">
        <ele>24.4</ele>
        <time>2023-08-06T05:47:45Z</time>
      </trkpt>
      <trkpt lat="50.48867" lon="3.21236">
        <ele>24.4</ele>
        <time>2023-08-06T05:47:46Z</time>
      </trkpt>
      <trkpt lat="50.48867" lon="3.21236">
        <ele>24.6</ele>
        <time>2023-08-06T05:47:47Z</time>
      </trkpt>
      <trkpt lat="50.48867" lon="3.21244">
        <ele>24.8</ele>
        <time>2023-08-06T05:47:48Z</time>
      </trkpt>
      <trkpt lat="50.48868" lon="3.21255">
        <ele>25.6</ele>
        <time>2023-08-06T05:47:51Z</time>
      </trkpt>
      <trkpt lat="50.48868" lon="3.2126">
        <ele>25.8</ele>
        <time>2023-08-06T05:47:52Z</time>
      </trkpt>
      <trkpt lat="50.48868" lon="3.21264">
        <ele>26</ele>
        <time>2023-08-06T05:47:53Z</time>
      </trkpt>
      <trkpt lat="50.4887" lon="3.21282">
        <ele>26.6</ele>
        <time>2023-08-06T05:47:57Z</time>
      </trkpt>
      <trkpt lat="50.48871" lon="3.21287">
        <ele>26.8</ele>
        <time>2023-08-06T05:47:58Z</time>
      </trkpt>
      <trkpt lat="50.48871" lon="3.21287">
        <ele>27</ele>
        <time>2023-08-06T05:47:59Z</time>
      </trkpt>
      <trkpt lat="50.48872" lon="3.21295">
        <ele>27.2</ele>
        <time>2023-08-06T05:48:00Z</time>
      </trkpt>
      <trkpt lat="50.48873" lon="3.21299">
        <ele>27.6</ele>
        <time>2023-08-06T05:48:01Z</time>
      </trkpt>
      <trkpt lat="50.48874" lon="3.21303">
        <ele>27.8</ele>
        <time>2023-08-06T05:48:02Z</time>
      </trkpt>
      <trkpt lat="50.48874" lon="3.21308">
        <ele>28</ele>
        <time>2023-08-06T05:48:03Z</time>
      </trkpt>
      <trkpt lat="50.48875" lon="3.21312">
        <ele>28</ele>
        <time>2023-08-06T05:48:04Z</time>
      </trkpt>
      <trkpt lat="50.48876" lon="3.21317">
        <ele>28.2</ele>
        <time>2023-08-06T05:48:05Z</time>
      </trkpt>
      <trkpt lat="50.48877" lon="3.21322">
        <ele>28.2</ele>
        <time>2023-08-06T05:48:06Z</time>
      </trkpt>
      <trkpt lat="50.48878" lon="3.21326">
        <ele>28.6</ele>
        <time>2023-08-06T05:48:07Z</time>
      </trkpt>
      <trkpt lat="50.48879" lon="3.21331">
        <ele>29</ele>
        <time>2023-08-06T05:48:08Z</time>
      </trkpt>
      <trkpt lat="50.4888" lon="3.21335">
        <ele>29</ele>
        <time>2023-08-06T05:48:09Z</time>
      </trkpt>
      <trkpt lat="50.48882" lon="3.21339">
        <ele>29.4</ele>
        <time>2023-08-06T05:48:10Z</time>
      </trkpt>
      <trkpt lat="50.48883" lon="3.21344">
        <ele>29.4</ele>
        <time>2023-08-06T05:48:11Z</time>
      </trkpt>
      <trkpt lat="50.48884" lon="3.21348">
        <ele>29.6</ele>
        <time>2023-08-06T05:48:12Z</time>
      </trkpt>
      <trkpt lat="50.48885" lon="3.21353">
        <ele>29.6</ele>
        <time>2023-08-06T05:48:13Z</time>
      </trkpt>
      <trkpt lat="50.48887" lon="3.21357">
        <ele>29.8</ele>
        <time>2023-08-06T05:48:14Z</time>
      </trkpt>
      <trkpt lat="50.48887" lon="3.21357">
        <ele>30</ele>
        <time>2023-08-06T05:48:15Z</time>
      </trkpt>
      <trkpt lat="50.48889" lon="3.21366">
        <ele>30.2</ele>
        <time>2023-08-06T05:48:16Z</time>
      </trkpt>
      <trkpt lat="50.48891" lon="3.2137">
        <ele>30.4</ele>
        <time>2023-08-06T05:48:17Z</time>
      </trkpt>
      <trkpt lat="50.48892" lon="3.21375">
        <ele>30.4</ele>
        <time>2023-08-06T05:48:18Z</time>
      </trkpt>
      <trkpt lat="50.48893" lon="3.21379">
        <ele>30.6</ele>
        <time>2023-08-06T05:48:19Z</time>
      </trkpt>
      <trkpt lat="50.48894" lon="3.21384">
        <ele>30.8</ele>
        <time>2023-08-06T05:48:20Z</time>
      </trkpt>
      <trkpt lat="50.48895" lon="3.21388">
        <ele>30.8</ele>
        <time>2023-08-06T05:48:21Z</time>
      </trkpt>
      <trkpt lat="50.48897" lon="3.21394">
        <ele>31</ele>
        <time>2023-08-06T05:48:22Z</time>
      </trkpt>
      <trkpt lat="50.48898" lon="3.21399">
        <ele>31</ele>
        <time>2023-08-06T05:48:23Z</time>
      </trkpt>
      <trkpt lat="50.48899" lon="3.21404">
        <ele>31</ele>
        <time>2023-08-06T05:48:24Z</time>
      </trkpt>
      <trkpt lat="50.48901" lon="3.2141">
        <ele>31</ele>
        <time>2023-08-06T05:48:25Z</time>
      </trkpt>
      <trkpt lat="50.48902" lon="3.21415">
        <ele>31.2</ele>
        <time>2023-08-06T05:48:26Z</time>
      </trkpt>
      <trkpt lat="50.48904" lon="3.2142">
        <ele>31.2</ele>
        <time>2023-08-06T05:48:27Z</time>
      </trkpt>
      <trkpt lat="50.48905" lon="3.21425">
        <ele>31.2</ele>
        <time>2023-08-06T05:48:28Z</time>
      </trkpt>
      <trkpt lat="50.48907" lon="3.2143">
        <ele>31.2</ele>
        <time>2023-08-06T05:48:29Z</time>
      </trkpt>
      <trkpt lat="50.48908" lon="3.21436">
        <ele>31.4</ele>
        <time>2023-08-06T05:48:30Z</time>
      </trkpt>
      <trkpt lat="50.4891" lon="3.21442">
        <ele>31.4</ele>
        <time>2023-08-06T05:48:31Z</time>
      </trkpt>
      <trkpt lat="50.48911" lon="3.21448">
        <ele>31.4</ele>
        <time>2023-08-06T05:48:32Z</time>
      </trkpt>
      <trkpt lat="50.48913" lon="3.21454">
        <ele>31.4</ele>
        <time>2023-08-06T05:48:33Z</time>
      </trkpt>
      <trkpt lat="50.48915" lon="3.2146">
        <ele>31.4</ele>
        <time>2023-08-06T05:48:34Z</time>
      </trkpt>
      <trkpt lat="50.48917" lon="3.21466">
        <ele>31.4</ele>
        <time>2023-08-06T05:48:35Z</time>
      </trkpt>
      <trkpt lat="50.48919" lon="3.21473">
        <ele>31.4</ele>
        <time>2023-08-06T05:48:36Z</time>
      </trkpt>
      <trkpt lat="50.48921" lon="3.2148">
        <ele>31.4</ele>
        <time>2023-08-06T05:48:37Z</time>
      </trkpt>
      <trkpt lat="50.48924" lon="3.21487">
        <ele>31.4</ele>
        <time>2023-08-06T05:48:38Z</time>
      </trkpt>
      <trkpt lat="50.48942" lon="3.21551">
        <ele>30.2</ele>
        <time>2023-08-06T05:48:46Z</time>
      </trkpt>
      <trkpt lat="50.48942" lon="3.21551">
        <ele>30</ele>
        <time>2023-08-06T05:48:47Z</time>
      </trkpt>
      <trkpt lat="50.48947" lon="3.21573">
        <ele>29.8</ele>
        <time>2023-08-06T05:48:48Z</time>
      </trkpt>
      <trkpt lat="50.48951" lon="3.21605">
        <ele>29.2</ele>
        <time>2023-08-06T05:48:51Z</time>
      </trkpt>
      <trkpt lat="50.48951" lon="3.21605">
        <ele>29.2</ele>
        <time>2023-08-06T05:48:52Z</time>
      </trkpt>
      <trkpt lat="50.48951" lon="3.21628">
        <ele>28.8</ele>
        <time>2023-08-06T05:48:53Z</time>
      </trkpt>
      <trkpt lat="50.48949" lon="3.21661">
        <ele>28</ele>
        <time>2023-08-06T05:48:56Z</time>
      </trkpt>
      <trkpt lat="50.48945" lon="3.21687">
        <ele>27.6</ele>
        <time>2023-08-06T05:48:58Z</time>
      </trkpt>
      <trkpt lat="50.48939" lon="3.2171">
        <ele>27</ele>
        <time>2023-08-06T05:49:00Z</time>
      </trkpt>
      <trkpt lat="50.48935" lon="3.21721">
        <ele>26.6</ele>
        <time>2023-08-06T05:49:01Z</time>
      </trkpt>
      <trkpt lat="50.48932" lon="3.21732">
        <ele>26.4</ele>
        <time>2023-08-06T05:49:02Z</time>
      </trkpt>
      <trkpt lat="50.4892" lon="3.2176">
        <ele>25.4</ele>
        <time>2023-08-06T05:49:05Z</time>
      </trkpt>
      <trkpt lat="50.48904" lon="3.21802">
        <ele>24.6</ele>
        <time>2023-08-06T05:49:09Z</time>
      </trkpt>
      <trkpt lat="50.48904" lon="3.21802">
        <ele>24.2</ele>
        <time>2023-08-06T05:49:10Z</time>
      </trkpt>
      <trkpt lat="50.48868" lon="3.21882">
        <ele>22.8</ele>
        <time>2023-08-06T05:49:17Z</time>
      </trkpt>
      <trkpt lat="50.48862" lon="3.21894">
        <ele>22.6</ele>
        <time>2023-08-06T05:49:18Z</time>
      </trkpt>
      <trkpt lat="50.48831" lon="3.21957">
        <ele>21.8</ele>
        <time>2023-08-06T05:49:24Z</time>
      </trkpt>
      <trkpt lat="50.48821" lon="3.21974">
        <ele>21.6</ele>
        <time>2023-08-06T05:49:27Z</time>
      </trkpt>
      <trkpt lat="50.48781" lon="3.22044">
        <ele>21.4</ele>
        <time>2023-08-06T05:49:33Z</time>
      </trkpt>
      <trkpt lat="50.48776" lon="3.22053">
        <ele>21.4</ele>
        <time>2023-08-06T05:49:35Z</time>
      </trkpt>
      <trkpt lat="50.48772" lon="3.2206">
        <ele>21.4</ele>
        <time>2023-08-06T05:49:36Z</time>
      </trkpt>
      <trkpt lat="50.48762" lon="3.22079">
        <ele>21.4</ele>
        <time>2023-08-06T05:49:37Z</time>
      </trkpt>
      <trkpt lat="50.48758" lon="3.22087">
        <ele>21.4</ele>
        <time>2023-08-06T05:49:38Z</time>
      </trkpt>
      <trkpt lat="50.48754" lon="3.22096">
        <ele>21.4</ele>
        <time>2023-08-06T05:49:39Z</time>
      </trkpt>
      <trkpt lat="50.48751" lon="3.22105">
        <ele>21.4</ele>
        <time>2023-08-06T05:49:40Z</time>
      </trkpt>
      <trkpt lat="50.48748" lon="3.22114">
        <ele>21.4</ele>
        <time>2023-08-06T05:49:41Z</time>
      </trkpt>
      <trkpt lat="50.48748" lon="3.22114">
        <ele>21.2</ele>
        <time>2023-08-06T05:49:42Z</time>
      </trkpt>
      <trkpt lat="50.48742" lon="3.22131">
        <ele>21.2</ele>
        <time>2023-08-06T05:49:43Z</time>
      </trkpt>
      <trkpt lat="50.48737" lon="3.22149">
        <ele>21.2</ele>
        <time>2023-08-06T05:49:45Z</time>
      </trkpt>
      <trkpt lat="50.48735" lon="3.22158">
        <ele>21.2</ele>
        <time>2023-08-06T05:49:46Z</time>
      </trkpt>
      <trkpt lat="50.48735" lon="3.22158">
        <ele>21.2</ele>
        <time>2023-08-06T05:49:47Z</time>
      </trkpt>
      <trkpt lat="50.4873" lon="3.22176">
        <ele>21</ele>
        <time>2023-08-06T05:49:48Z</time>
      </trkpt>
      <trkpt lat="50.48728" lon="3.22184">
        <ele>21</ele>
        <time>2023-08-06T05:49:49Z</time>
      </trkpt>
      <trkpt lat="50.48724" lon="3.2219">
        <ele>21</ele>
        <time>2023-08-06T05:49:50Z</time>
      </trkpt>
      <trkpt lat="50.48721" lon="3.22194">
        <ele>20.8</ele>
        <time>2023-08-06T05:49:51Z</time>
      </trkpt>
      <trkpt lat="50.48715" lon="3.22198">
        <ele>20.8</ele>
        <time>2023-08-06T05:49:52Z</time>
      </trkpt>
      <trkpt lat="50.4871" lon="3.22198">
        <ele>20.8</ele>
        <time>2023-08-06T05:49:53Z</time>
      </trkpt>
      <trkpt lat="50.48705" lon="3.22199">
        <ele>20.6</ele>
        <time>2023-08-06T05:49:54Z</time>
      </trkpt>
      <trkpt lat="50.48705" lon="3.22199">
        <ele>20.6</ele>
        <time>2023-08-06T05:49:55Z</time>
      </trkpt>
      <trkpt lat="50.48695" lon="3.22203">
        <ele>20.6</ele>
        <time>2023-08-06T05:49:56Z</time>
      </trkpt>
      <trkpt lat="50.48685" lon="3.22213">
        <ele>20.6</ele>
        <time>2023-08-06T05:49:58Z</time>
      </trkpt>
      <trkpt lat="50.48682" lon="3.22219">
        <ele>20.6</ele>
        <time>2023-08-06T05:49:59Z</time>
      </trkpt>
      <trkpt lat="50.48678" lon="3.22227">
        <ele>20.6</ele>
        <time>2023-08-06T05:50:00Z</time>
      </trkpt>
      <trkpt lat="50.48675" lon="3.22235">
        <ele>20.8</ele>
        <time>2023-08-06T05:50:01Z</time>
      </trkpt>
      <trkpt lat="50.48672" lon="3.22243">
        <ele>20.8</ele>
        <time>2023-08-06T05:50:02Z</time>
      </trkpt>
      <trkpt lat="50.48669" lon="3.22252">
        <ele>20.8</ele>
        <time>2023-08-06T05:50:03Z</time>
      </trkpt>
      <trkpt lat="50.48657" lon="3.22302">
        <ele>21.2</ele>
        <time>2023-08-06T05:50:08Z</time>
      </trkpt>
      <trkpt lat="50.48634" lon="3.22382">
        <ele>21.2</ele>
        <time>2023-08-06T05:50:16Z</time>
      </trkpt>
      <trkpt lat="50.4861" lon="3.2245">
        <ele>21</ele>
        <time>2023-08-06T05:50:23Z</time>
      </trkpt>
      <trkpt lat="50.48577" lon="3.22522">
        <ele>21</ele>
        <time>2023-08-06T05:50:31Z</time>
      </trkpt>
      <trkpt lat="50.48565" lon="3.2255">
        <ele>21</ele>
        <time>2023-08-06T05:50:34Z</time>
      </trkpt>
      <trkpt lat="50.48529" lon="3.22621">
        <ele>20.6</ele>
        <time>2023-08-06T05:50:42Z</time>
      </trkpt>
      <trkpt lat="50.48501" lon="3.22656">
        <ele>20.6</ele>
        <time>2023-08-06T05:50:47Z</time>
      </trkpt>
      <trkpt lat="50.48496" lon="3.22662">
        <ele>20.4</ele>
        <time>2023-08-06T05:50:48Z</time>
      </trkpt>
      <trkpt lat="50.4849" lon="3.22669">
        <ele>20.4</ele>
        <time>2023-08-06T05:50:49Z</time>
      </trkpt>
      <trkpt lat="50.48446" lon="3.22725">
        <ele>20.2</ele>
        <time>2023-08-06T05:50:57Z</time>
      </trkpt>
      <trkpt lat="50.48431" lon="3.22748">
        <ele>20.2</ele>
        <time>2023-08-06T05:51:00Z</time>
      </trkpt>
      <trkpt lat="50.48426" lon="3.22756">
        <ele>20.2</ele>
        <time>2023-08-06T05:51:01Z</time>
      </trkpt>
      <trkpt lat="50.48389" lon="3.22821">
        <ele>20.2</ele>
        <time>2023-08-06T05:51:09Z</time>
      </trkpt>
      <trkpt lat="50.48379" lon="3.22837">
        <ele>20.2</ele>
        <time>2023-08-06T05:51:11Z</time>
      </trkpt>
      <trkpt lat="50.48342" lon="3.22903">
        <ele>20</ele>
        <time>2023-08-06T05:51:19Z</time>
      </trkpt>
      <trkpt lat="50.48338" lon="3.22911">
        <ele>20</ele>
        <time>2023-08-06T05:51:20Z</time>
      </trkpt>
      <trkpt lat="50.48334" lon="3.22919">
        <ele>20</ele>
        <time>2023-08-06T05:51:21Z</time>
      </trkpt>
      <trkpt lat="50.48329" lon="3.22927">
        <ele>20</ele>
        <time>2023-08-06T05:51:22Z</time>
      </trkpt>
      <trkpt lat="50.48325" lon="3.22934">
        <ele>20</ele>
        <time>2023-08-06T05:51:23Z</time>
      </trkpt>
      <trkpt lat="50.48321" lon="3.22941">
        <ele>20</ele>
        <time>2023-08-06T05:51:24Z</time>
      </trkpt>
      <trkpt lat="50.48317" lon="3.22948">
        <ele>20</ele>
        <time>2023-08-06T05:51:25Z</time>
      </trkpt>
      <trkpt lat="50.48313" lon="3.22955">
        <ele>20</ele>
        <time>2023-08-06T05:51:26Z</time>
      </trkpt>
      <trkpt lat="50.48309" lon="3.22962">
        <ele>20.2</ele>
        <time>2023-08-06T05:51:27Z</time>
      </trkpt>
      <trkpt lat="50.48309" lon="3.22962">
        <ele>20.4</ele>
        <time>2023-08-06T05:51:28Z</time>
      </trkpt>
      <trkpt lat="50.48301" lon="3.22975">
        <ele>20.4</ele>
        <time>2023-08-06T05:51:29Z</time>
      </trkpt>
      <trkpt lat="50.48298" lon="3.22982">
        <ele>20.4</ele>
        <time>2023-08-06T05:51:30Z</time>
      </trkpt>
      <trkpt lat="50.48294" lon="3.22989">
        <ele>20.4</ele>
        <time>2023-08-06T05:51:31Z</time>
      </trkpt>
      <trkpt lat="50.4829" lon="3.22995">
        <ele>20.4</ele>
        <time>2023-08-06T05:51:32Z</time>
      </trkpt>
      <trkpt lat="50.48286" lon="3.23002">
        <ele>20.4</ele>
        <time>2023-08-06T05:51:33Z</time>
      </trkpt>
      <trkpt lat="50.48283" lon="3.23008">
        <ele>20.4</ele>
        <time>2023-08-06T05:51:34Z</time>
      </trkpt>
      <trkpt lat="50.4828" lon="3.23013">
        <ele>20.4</ele>
        <time>2023-08-06T05:51:35Z</time>
      </trkpt>
      <trkpt lat="50.48275" lon="3.23021">
        <ele>20.4</ele>
        <time>2023-08-06T05:51:36Z</time>
      </trkpt>
      <trkpt lat="50.48272" lon="3.23028">
        <ele>20.6</ele>
        <time>2023-08-06T05:51:37Z</time>
      </trkpt>
      <trkpt lat="50.48268" lon="3.23034">
        <ele>20.6</ele>
        <time>2023-08-06T05:51:38Z</time>
      </trkpt>
      <trkpt lat="50.48264" lon="3.2304">
        <ele>20.8</ele>
        <time>2023-08-06T05:51:39Z</time>
      </trkpt>
      <trkpt lat="50.48261" lon="3.23047">
        <ele>20.8</ele>
        <time>2023-08-06T05:51:40Z</time>
      </trkpt>
      <trkpt lat="50.48253" lon="3.2306">
        <ele>21.2</ele>
        <time>2023-08-06T05:51:42Z</time>
      </trkpt>
      <trkpt lat="50.4825" lon="3.23066">
        <ele>21.4</ele>
        <time>2023-08-06T05:51:43Z</time>
      </trkpt>
      <trkpt lat="50.48246" lon="3.23073">
        <ele>21.4</ele>
        <time>2023-08-06T05:51:44Z</time>
      </trkpt>
      <trkpt lat="50.48243" lon="3.23079">
        <ele>21.6</ele>
        <time>2023-08-06T05:51:45Z</time>
      </trkpt>
      <trkpt lat="50.48236" lon="3.23091">
        <ele>21.6</ele>
        <time>2023-08-06T05:51:47Z</time>
      </trkpt>
      <trkpt lat="50.48233" lon="3.23098">
        <ele>21.6</ele>
        <time>2023-08-06T05:51:48Z</time>
      </trkpt>
      <trkpt lat="50.48229" lon="3.23104">
        <ele>21.8</ele>
        <time>2023-08-06T05:51:49Z</time>
      </trkpt>
      <trkpt lat="50.48226" lon="3.2311">
        <ele>21.8</ele>
        <time>2023-08-06T05:51:50Z</time>
      </trkpt>
      <trkpt lat="50.48223" lon="3.23116">
        <ele>22</ele>
        <time>2023-08-06T05:51:51Z</time>
      </trkpt>
      <trkpt lat="50.48198" lon="3.23162">
        <ele>22.2</ele>
        <time>2023-08-06T05:51:58Z</time>
      </trkpt>
      <trkpt lat="50.48194" lon="3.23168">
        <ele>22.4</ele>
        <time>2023-08-06T05:51:59Z</time>
      </trkpt>
      <trkpt lat="50.48188" lon="3.23182">
        <ele>22.6</ele>
        <time>2023-08-06T05:52:01Z</time>
      </trkpt>
      <trkpt lat="50.48182" lon="3.23195">
        <ele>22.8</ele>
        <time>2023-08-06T05:52:03Z</time>
      </trkpt>
      <trkpt lat="50.48168" lon="3.2322">
        <ele>23.2</ele>
        <time>2023-08-06T05:52:07Z</time>
      </trkpt>
      <trkpt lat="50.48161" lon="3.23233">
        <ele>23.4</ele>
        <time>2023-08-06T05:52:09Z</time>
      </trkpt>
      <trkpt lat="50.48151" lon="3.23251">
        <ele>23.6</ele>
        <time>2023-08-06T05:52:12Z</time>
      </trkpt>
      <trkpt lat="50.48141" lon="3.23271">
        <ele>23.8</ele>
        <time>2023-08-06T05:52:15Z</time>
      </trkpt>
      <trkpt lat="50.48127" lon="3.23297">
        <ele>24.4</ele>
        <time>2023-08-06T05:52:19Z</time>
      </trkpt>
      <trkpt lat="50.48119" lon="3.23308">
        <ele>24.6</ele>
        <time>2023-08-06T05:52:21Z</time>
      </trkpt>
      <trkpt lat="50.48115" lon="3.23315">
        <ele>24.8</ele>
        <time>2023-08-06T05:52:22Z</time>
      </trkpt>
      <trkpt lat="50.48082" lon="3.23381">
        <ele>24.8</ele>
        <time>2023-08-06T05:52:32Z</time>
      </trkpt>
      <trkpt lat="50.48053" lon="3.23437">
        <ele>25.2</ele>
        <time>2023-08-06T05:52:41Z</time>
      </trkpt>
      <trkpt lat="50.4805" lon="3.23443">
        <ele>25.4</ele>
        <time>2023-08-06T05:52:42Z</time>
      </trkpt>
      <trkpt lat="50.48046" lon="3.23449">
        <ele>25.4</ele>
        <time>2023-08-06T05:52:43Z</time>
      </trkpt>
      <trkpt lat="50.48043" lon="3.23455">
        <ele>25.6</ele>
        <time>2023-08-06T05:52:44Z</time>
      </trkpt>
      <trkpt lat="50.4804" lon="3.23461">
        <ele>25.6</ele>
        <time>2023-08-06T05:52:45Z</time>
      </trkpt>
      <trkpt lat="50.48037" lon="3.23467">
        <ele>25.6</ele>
        <time>2023-08-06T05:52:46Z</time>
      </trkpt>
      <trkpt lat="50.48024" lon="3.2349">
        <ele>25.4</ele>
        <time>2023-08-06T05:52:50Z</time>
      </trkpt>
      <trkpt lat="50.48021" lon="3.23496">
        <ele>25.4</ele>
        <time>2023-08-06T05:52:51Z</time>
      </trkpt>
      <trkpt lat="50.48018" lon="3.23502">
        <ele>25.2</ele>
        <time>2023-08-06T05:52:52Z</time>
      </trkpt>
      <trkpt lat="50.48018" lon="3.23502">
        <ele>25.2</ele>
        <time>2023-08-06T05:52:53Z</time>
      </trkpt>
      <trkpt lat="50.48012" lon="3.23512">
        <ele>25</ele>
        <time>2023-08-06T05:52:54Z</time>
      </trkpt>
      <trkpt lat="50.48009" lon="3.23518">
        <ele>24.8</ele>
        <time>2023-08-06T05:52:55Z</time>
      </trkpt>
      <trkpt lat="50.48007" lon="3.23523">
        <ele>24.8</ele>
        <time>2023-08-06T05:52:56Z</time>
      </trkpt>
      <trkpt lat="50.48004" lon="3.23529">
        <ele>24.8</ele>
        <time>2023-08-06T05:52:57Z</time>
      </trkpt>
      <trkpt lat="50.48001" lon="3.23534">
        <ele>24.8</ele>
        <time>2023-08-06T05:52:58Z</time>
      </trkpt>
      <trkpt lat="50.47998" lon="3.23538">
        <ele>25</ele>
        <time>2023-08-06T05:52:59Z</time>
      </trkpt>
      <trkpt lat="50.47991" lon="3.23546">
        <ele>25</ele>
        <time>2023-08-06T05:53:01Z</time>
      </trkpt>
      <trkpt lat="50.47988" lon="3.23548">
        <ele>25</ele>
        <time>2023-08-06T05:53:02Z</time>
      </trkpt>
      <trkpt lat="50.47984" lon="3.23548">
        <ele>25</ele>
        <time>2023-08-06T05:53:03Z</time>
      </trkpt>
      <trkpt lat="50.47981" lon="3.23545">
        <ele>25</ele>
        <time>2023-08-06T05:53:04Z</time>
      </trkpt>
      <trkpt lat="50.47978" lon="3.23542">
        <ele>25</ele>
        <time>2023-08-06T05:53:05Z</time>
      </trkpt>
      <trkpt lat="50.47975" lon="3.23537">
        <ele>25</ele>
        <time>2023-08-06T05:53:06Z</time>
      </trkpt>
      <trkpt lat="50.47972" lon="3.23533">
        <ele>25</ele>
        <time>2023-08-06T05:53:07Z</time>
      </trkpt>
      <trkpt lat="50.47969" lon="3.23529">
        <ele>25</ele>
        <time>2023-08-06T05:53:08Z</time>
      </trkpt>
      <trkpt lat="50.47966" lon="3.23524">
        <ele>25</ele>
        <time>2023-08-06T05:53:09Z</time>
      </trkpt>
      <trkpt lat="50.47963" lon="3.23519">
        <ele>25</ele>
        <time>2023-08-06T05:53:10Z</time>
      </trkpt>
      <trkpt lat="50.47955" lon="3.23503">
        <ele>25.2</ele>
        <time>2023-08-06T05:53:13Z</time>
      </trkpt>
      <trkpt lat="50.47953" lon="3.23497">
        <ele>25.2</ele>
        <time>2023-08-06T05:53:14Z</time>
      </trkpt>
      <trkpt lat="50.47952" lon="3.23491">
        <ele>25.2</ele>
        <time>2023-08-06T05:53:15Z</time>
      </trkpt>
      <trkpt lat="50.47953" lon="3.23485">
        <ele>25.2</ele>
        <time>2023-08-06T05:53:16Z</time>
      </trkpt>
      <trkpt lat="50.47954" lon="3.23479">
        <ele>25.2</ele>
        <time>2023-08-06T05:53:17Z</time>
      </trkpt>
      <trkpt lat="50.47955" lon="3.23473">
        <ele>25.4</ele>
        <time>2023-08-06T05:53:18Z</time>
      </trkpt>
      <trkpt lat="50.47957" lon="3.23468">
        <ele>25.2</ele>
        <time>2023-08-06T05:53:19Z</time>
      </trkpt>
      <trkpt lat="50.47958" lon="3.23463">
        <ele>25.4</ele>
        <time>2023-08-06T05:53:20Z</time>
      </trkpt>
      <trkpt lat="50.47959" lon="3.23457">
        <ele>25.2</ele>
        <time>2023-08-06T05:53:21Z</time>
      </trkpt>
      <trkpt lat="50.47961" lon="3.23451">
        <ele>25.2</ele>
        <time>2023-08-06T05:53:22Z</time>
      </trkpt>
      <trkpt lat="50.47962" lon="3.23446">
        <ele>25</ele>
        <time>2023-08-06T05:53:23Z</time>
      </trkpt>
      <trkpt lat="50.47965" lon="3.23428">
        <ele>24.8</ele>
        <time>2023-08-06T05:53:26Z</time>
      </trkpt>
      <trkpt lat="50.47964" lon="3.23422">
        <ele>24.8</ele>
        <time>2023-08-06T05:53:27Z</time>
      </trkpt>
      <trkpt lat="50.4796" lon="3.2339">
        <ele>24.8</ele>
        <time>2023-08-06T05:53:33Z</time>
      </trkpt>
      <trkpt lat="50.47945" lon="3.23342">
        <ele>25</ele>
        <time>2023-08-06T05:53:40Z</time>
      </trkpt>
      <trkpt lat="50.47933" lon="3.23308">
        <ele>25.4</ele>
        <time>2023-08-06T05:53:46Z</time>
      </trkpt>
      <trkpt lat="50.47931" lon="3.23303">
        <ele>25.6</ele>
        <time>2023-08-06T05:53:47Z</time>
      </trkpt>
      <trkpt lat="50.47929" lon="3.23297">
        <ele>25.6</ele>
        <time>2023-08-06T05:53:48Z</time>
      </trkpt>
      <trkpt lat="50.47927" lon="3.23292">
        <ele>25.6</ele>
        <time>2023-08-06T05:53:49Z</time>
      </trkpt>
      <trkpt lat="50.47925" lon="3.23287">
        <ele>25.6</ele>
        <time>2023-08-06T05:53:50Z</time>
      </trkpt>
      <trkpt lat="50.47922" lon="3.23282">
        <ele>25.6</ele>
        <time>2023-08-06T05:53:51Z</time>
      </trkpt>
      <trkpt lat="50.47918" lon="3.23271">
        <ele>25.4</ele>
        <time>2023-08-06T05:53:53Z</time>
      </trkpt>
      <trkpt lat="50.47914" lon="3.2326">
        <ele>25.2</ele>
        <time>2023-08-06T05:53:55Z</time>
      </trkpt>
      <trkpt lat="50.47911" lon="3.23255">
        <ele>25</ele>
        <time>2023-08-06T05:53:56Z</time>
      </trkpt>
      <trkpt lat="50.47909" lon="3.2325">
        <ele>25</ele>
        <time>2023-08-06T05:53:57Z</time>
      </trkpt>
      <trkpt lat="50.47909" lon="3.2325">
        <ele>25</ele>
        <time>2023-08-06T05:53:58Z</time>
      </trkpt>
      <trkpt lat="50.47905" lon="3.23239">
        <ele>25.2</ele>
        <time>2023-08-06T05:53:59Z</time>
      </trkpt>
      <trkpt lat="50.47903" lon="3.23235">
        <ele>25.2</ele>
        <time>2023-08-06T05:54:00Z</time>
      </trkpt>
      <trkpt lat="50.47899" lon="3.23224">
        <ele>25.2</ele>
        <time>2023-08-06T05:54:02Z</time>
      </trkpt>
      <trkpt lat="50.47883" lon="3.23189">
        <ele>25.6</ele>
        <time>2023-08-06T05:54:09Z</time>
      </trkpt>
      <trkpt lat="50.47856" lon="3.23137">
        <ele>25.6</ele>
        <time>2023-08-06T05:54:20Z</time>
      </trkpt>
      <trkpt lat="50.47851" lon="3.23128">
        <ele>25.6</ele>
        <time>2023-08-06T05:54:22Z</time>
      </trkpt>
      <trkpt lat="50.47836" lon="3.23101">
        <ele>25.6</ele>
        <time>2023-08-06T05:54:29Z</time>
      </trkpt>
      <trkpt lat="50.47829" lon="3.23088">
        <ele>25.6</ele>
        <time>2023-08-06T05:54:31Z</time>
      </trkpt>
      <trkpt lat="50.47826" lon="3.23084">
        <ele>25.8</ele>
        <time>2023-08-06T05:54:32Z</time>
      </trkpt>
      <trkpt lat="50.47823" lon="3.2308">
        <ele>25.8</ele>
        <time>2023-08-06T05:54:33Z</time>
      </trkpt>
      <trkpt lat="50.47821" lon="3.23077">
        <ele>25.8</ele>
        <time>2023-08-06T05:54:34Z</time>
      </trkpt>
      <trkpt lat="50.47818" lon="3.23073">
        <ele>25.8</ele>
        <time>2023-08-06T05:54:35Z</time>
      </trkpt>
      <trkpt lat="50.47816" lon="3.23069">
        <ele>25.8</ele>
        <time>2023-08-06T05:54:36Z</time>
      </trkpt>
      <trkpt lat="50.47813" lon="3.23065">
        <ele>25.8</ele>
        <time>2023-08-06T05:54:37Z</time>
      </trkpt>
      <trkpt lat="50.47795" lon="3.23037">
        <ele>25.8</ele>
        <time>2023-08-06T05:54:44Z</time>
      </trkpt>
      <trkpt lat="50.47771" lon="3.23002">
        <ele>26.4</ele>
        <time>2023-08-06T05:54:54Z</time>
      </trkpt>
      <trkpt lat="50.47768" lon="3.22998">
        <ele>26.6</ele>
        <time>2023-08-06T05:54:55Z</time>
      </trkpt>
      <trkpt lat="50.47736" lon="3.2295">
        <ele>27</ele>
        <time>2023-08-06T05:55:07Z</time>
      </trkpt>
      <trkpt lat="50.47727" lon="3.22933">
        <ele>27.2</ele>
        <time>2023-08-06T05:55:11Z</time>
      </trkpt>
      <trkpt lat="50.47723" lon="3.22925">
        <ele>27.2</ele>
        <time>2023-08-06T05:55:12Z</time>
      </trkpt>
      <trkpt lat="50.47712" lon="3.22902">
        <ele>27.6</ele>
        <time>2023-08-06T05:55:17Z</time>
      </trkpt>
      <trkpt lat="50.47692" lon="3.22853">
        <ele>26.8</ele>
        <time>2023-08-06T05:55:27Z</time>
      </trkpt>
      <trkpt lat="50.47691" lon="3.22848">
        <ele>26.6</ele>
        <time>2023-08-06T05:55:28Z</time>
      </trkpt>
      <trkpt lat="50.4769" lon="3.22842">
        <ele>26.4</ele>
        <time>2023-08-06T05:55:29Z</time>
      </trkpt>
      <trkpt lat="50.47688" lon="3.22831">
        <ele>26.4</ele>
        <time>2023-08-06T05:55:31Z</time>
      </trkpt>
      <trkpt lat="50.47686" lon="3.22795">
        <ele>26.2</ele>
        <time>2023-08-06T05:55:37Z</time>
      </trkpt>
      <trkpt lat="50.47683" lon="3.22755">
        <ele>26</ele>
        <time>2023-08-06T05:55:44Z</time>
      </trkpt>
      <trkpt lat="50.47682" lon="3.2275">
        <ele>26</ele>
        <time>2023-08-06T05:55:45Z</time>
      </trkpt>
      <trkpt lat="50.47669" lon="3.22714">
        <ele>26.2</ele>
        <time>2023-08-06T05:55:52Z</time>
      </trkpt>
      <trkpt lat="50.47643" lon="3.22678">
        <ele>27</ele>
        <time>2023-08-06T05:56:01Z</time>
      </trkpt>
      <trkpt lat="50.47609" lon="3.22648">
        <ele>26.8</ele>
        <time>2023-08-06T05:56:11Z</time>
      </trkpt>
      <trkpt lat="50.47578" lon="3.2262">
        <ele>27</ele>
        <time>2023-08-06T05:56:20Z</time>
      </trkpt>
      <trkpt lat="50.47578" lon="3.2262">
        <ele>26.8</ele>
        <time>2023-08-06T05:56:21Z</time>
      </trkpt>
      <trkpt lat="50.47571" lon="3.22615">
        <ele>26.6</ele>
        <time>2023-08-06T05:56:22Z</time>
      </trkpt>
      <trkpt lat="50.47568" lon="3.22612">
        <ele>26.4</ele>
        <time>2023-08-06T05:56:23Z</time>
      </trkpt>
      <trkpt lat="50.47564" lon="3.22609">
        <ele>26.4</ele>
        <time>2023-08-06T05:56:24Z</time>
      </trkpt>
      <trkpt lat="50.47561" lon="3.22606">
        <ele>26.4</ele>
        <time>2023-08-06T05:56:25Z</time>
      </trkpt>
      <trkpt lat="50.47561" lon="3.22606">
        <ele>26.4</ele>
        <time>2023-08-06T05:56:26Z</time>
      </trkpt>
      <trkpt lat="50.47533" lon="3.22581">
        <ele>26.4</ele>
        <time>2023-08-06T05:56:33Z</time>
      </trkpt>
      <trkpt lat="50.47506" lon="3.22555">
        <ele>26.8</ele>
        <time>2023-08-06T05:56:41Z</time>
      </trkpt>
      <trkpt lat="50.47491" lon="3.22536">
        <ele>27.4</ele>
        <time>2023-08-06T05:56:46Z</time>
      </trkpt>
      <trkpt lat="50.47486" lon="3.22527">
        <ele>27.4</ele>
        <time>2023-08-06T05:56:48Z</time>
      </trkpt>
      <trkpt lat="50.4747" lon="3.22486">
        <ele>27.2</ele>
        <time>2023-08-06T05:56:56Z</time>
      </trkpt>
      <trkpt lat="50.47468" lon="3.22481">
        <ele>27.2</ele>
        <time>2023-08-06T05:56:57Z</time>
      </trkpt>
      <trkpt lat="50.47458" lon="3.22463">
        <ele>27.2</ele>
        <time>2023-08-06T05:57:01Z</time>
      </trkpt>
      <trkpt lat="50.47456" lon="3.22459">
        <ele>27.4</ele>
        <time>2023-08-06T05:57:02Z</time>
      </trkpt>
      <trkpt lat="50.47453" lon="3.22455">
        <ele>27.6</ele>
        <time>2023-08-06T05:57:03Z</time>
      </trkpt>
      <trkpt lat="50.4745" lon="3.22451">
        <ele>27.6</ele>
        <time>2023-08-06T05:57:04Z</time>
      </trkpt>
      <trkpt lat="50.47447" lon="3.22447">
        <ele>27.6</ele>
        <time>2023-08-06T05:57:05Z</time>
      </trkpt>
      <trkpt lat="50.47444" lon="3.22443">
        <ele>27.6</ele>
        <time>2023-08-06T05:57:06Z</time>
      </trkpt>
      <trkpt lat="50.47424" lon="3.22418">
        <ele>27.6</ele>
        <time>2023-08-06T05:57:13Z</time>
      </trkpt>
      <trkpt lat="50.47421" lon="3.22414">
        <ele>27.6</ele>
        <time>2023-08-06T05:57:14Z</time>
      </trkpt>
      <trkpt lat="50.47415" lon="3.22408">
        <ele>27.6</ele>
        <time>2023-08-06T05:57:16Z</time>
      </trkpt>
      <trkpt lat="50.47403" lon="3.22394">
        <ele>27.2</ele>
        <time>2023-08-06T05:57:20Z</time>
      </trkpt>
      <trkpt lat="50.4739" lon="3.2238">
        <ele>27.4</ele>
        <time>2023-08-06T05:57:24Z</time>
      </trkpt>
      <trkpt lat="50.47383" lon="3.2238">
        <ele>27.6</ele>
        <time>2023-08-06T05:57:26Z</time>
      </trkpt>
      <trkpt lat="50.4738" lon="3.22383">
        <ele>27.4</ele>
        <time>2023-08-06T05:57:27Z</time>
      </trkpt>
      <trkpt lat="50.47375" lon="3.22391">
        <ele>27.6</ele>
        <time>2023-08-06T05:57:29Z</time>
      </trkpt>
      <trkpt lat="50.47374" lon="3.22401">
        <ele>27.6</ele>
        <time>2023-08-06T05:57:31Z</time>
      </trkpt>
      <trkpt lat="50.47373" lon="3.22406">
        <ele>27.8</ele>
        <time>2023-08-06T05:57:32Z</time>
      </trkpt>
      <trkpt lat="50.47372" lon="3.2241">
        <ele>27.8</ele>
        <time>2023-08-06T05:57:33Z</time>
      </trkpt>
      <trkpt lat="50.47371" lon="3.22414">
        <ele>27.8</ele>
        <time>2023-08-06T05:57:34Z</time>
      </trkpt>
      <trkpt lat="50.4737" lon="3.22418">
        <ele>28</ele>
        <time>2023-08-06T05:57:35Z</time>
      </trkpt>
      <trkpt lat="50.47369" lon="3.22423">
        <ele>28</ele>
        <time>2023-08-06T05:57:36Z</time>
      </trkpt>
      <trkpt lat="50.47368" lon="3.22428">
        <ele>28</ele>
        <time>2023-08-06T05:57:37Z</time>
      </trkpt>
      <trkpt lat="50.47362" lon="3.2245">
        <ele>28.2</ele>
        <time>2023-08-06T05:57:41Z</time>
      </trkpt>
      <trkpt lat="50.47361" lon="3.22455">
        <ele>28.2</ele>
        <time>2023-08-06T05:57:42Z</time>
      </trkpt>
      <trkpt lat="50.47351" lon="3.22495">
        <ele>28.6</ele>
        <time>2023-08-06T05:57:49Z</time>
      </trkpt>
      <trkpt lat="50.47338" lon="3.22542">
        <ele>29.2</ele>
        <time>2023-08-06T05:57:57Z</time>
      </trkpt>
      <trkpt lat="50.47336" lon="3.22548">
        <ele>29.2</ele>
        <time>2023-08-06T05:57:58Z</time>
      </trkpt>
      <trkpt lat="50.4732" lon="3.22609">
        <ele>29.8</ele>
        <time>2023-08-06T05:58:08Z</time>
      </trkpt>
      <trkpt lat="50.47305" lon="3.22664">
        <ele>30.2</ele>
        <time>2023-08-06T05:58:17Z</time>
      </trkpt>
      <trkpt lat="50.47303" lon="3.2267">
        <ele>30.2</ele>
        <time>2023-08-06T05:58:18Z</time>
      </trkpt>
      <trkpt lat="50.4729" lon="3.22719">
        <ele>31</ele>
        <time>2023-08-06T05:58:26Z</time>
      </trkpt>
      <trkpt lat="50.47286" lon="3.22737">
        <ele>31</ele>
        <time>2023-08-06T05:58:29Z</time>
      </trkpt>
      <trkpt lat="50.47283" lon="3.22749">
        <ele>31.2</ele>
        <time>2023-08-06T05:58:31Z</time>
      </trkpt>
      <trkpt lat="50.47281" lon="3.22756">
        <ele>31.4</ele>
        <time>2023-08-06T05:58:32Z</time>
      </trkpt>
      <trkpt lat="50.47275" lon="3.22776">
        <ele>31.6</ele>
        <time>2023-08-06T05:58:35Z</time>
      </trkpt>
      <trkpt lat="50.47268" lon="3.22803">
        <ele>32</ele>
        <time>2023-08-06T05:58:39Z</time>
      </trkpt>
      <trkpt lat="50.47266" lon="3.2281">
        <ele>32</ele>
        <time>2023-08-06T05:58:40Z</time>
      </trkpt>
      <trkpt lat="50.47262" lon="3.2286">
        <ele>32</ele>
        <time>2023-08-06T05:58:47Z</time>
      </trkpt>
      <trkpt lat="50.47264" lon="3.22898">
        <ele>32</ele>
        <time>2023-08-06T05:58:52Z</time>
      </trkpt>
      <trkpt lat="50.47267" lon="3.22914">
        <ele>32</ele>
        <time>2023-08-06T05:58:54Z</time>
      </trkpt>
      <trkpt lat="50.47283" lon="3.22983">
        <ele>31.6</ele>
        <time>2023-08-06T05:59:03Z</time>
      </trkpt>
      <trkpt lat="50.47298" lon="3.23045">
        <ele>31.4</ele>
        <time>2023-08-06T05:59:11Z</time>
      </trkpt>
      <trkpt lat="50.47317" lon="3.23123">
        <ele>30.8</ele>
        <time>2023-08-06T05:59:21Z</time>
      </trkpt>
      <trkpt lat="50.4732" lon="3.23138">
        <ele>30.4</ele>
        <time>2023-08-06T05:59:23Z</time>
      </trkpt>
      <trkpt lat="50.47322" lon="3.23145">
        <ele>30.4</ele>
        <time>2023-08-06T05:59:24Z</time>
      </trkpt>
      <trkpt lat="50.47323" lon="3.23152">
        <ele>30.2</ele>
        <time>2023-08-06T05:59:25Z</time>
      </trkpt>
      <trkpt lat="50.47325" lon="3.2316">
        <ele>30</ele>
        <time>2023-08-06T05:59:26Z</time>
      </trkpt>
      <trkpt lat="50.47327" lon="3.23167">
        <ele>30</ele>
        <time>2023-08-06T05:59:27Z</time>
      </trkpt>
      <trkpt lat="50.47328" lon="3.23175">
        <ele>30</ele>
        <time>2023-08-06T05:59:28Z</time>
      </trkpt>
      <trkpt lat="50.47329" lon="3.23182">
        <ele>30</ele>
        <time>2023-08-06T05:59:29Z</time>
      </trkpt>
      <trkpt lat="50.47325" lon="3.23195">
        <ele>29.8</ele>
        <time>2023-08-06T05:59:31Z</time>
      </trkpt>
      <trkpt lat="50.47323" lon="3.23198">
        <ele>29.6</ele>
        <time>2023-08-06T05:59:32Z</time>
      </trkpt>
      <trkpt lat="50.4732" lon="3.23198">
        <ele>29.6</ele>
        <time>2023-08-06T05:59:33Z</time>
      </trkpt>
      <trkpt lat="50.47318" lon="3.23198">
        <ele>29.6</ele>
        <time>2023-08-06T05:59:34Z</time>
      </trkpt>
      <trkpt lat="50.47317" lon="3.23198">
        <ele>29.6</ele>
        <time>2023-08-06T05:59:35Z</time>
      </trkpt>
      <trkpt lat="50.47316" lon="3.23197">
        <ele>29.6</ele>
        <time>2023-08-06T05:59:36Z</time>
      </trkpt>
      <trkpt lat="50.47315" lon="3.23197">
        <ele>29.6</ele>
        <time>2023-08-06T05:59:37Z</time>
      </trkpt>
      <trkpt lat="50.47313" lon="3.23196">
        <ele>29.6</ele>
        <time>2023-08-06T05:59:38Z</time>
      </trkpt>
      <trkpt lat="50.47308" lon="3.23195">
        <ele>29.6</ele>
        <time>2023-08-06T05:59:40Z</time>
      </trkpt>
      <trkpt lat="50.47298" lon="3.23198">
        <ele>29.6</ele>
        <time>2023-08-06T05:59:43Z</time>
      </trkpt>
      <trkpt lat="50.47294" lon="3.23201">
        <ele>29.6</ele>
        <time>2023-08-06T05:59:44Z</time>
      </trkpt>
      <trkpt lat="50.47291" lon="3.23204">
        <ele>29.6</ele>
        <time>2023-08-06T05:59:45Z</time>
      </trkpt>
      <trkpt lat="50.47288" lon="3.23208">
        <ele>29.6</ele>
        <time>2023-08-06T05:59:46Z</time>
      </trkpt>
      <trkpt lat="50.47283" lon="3.23219">
        <ele>29.8</ele>
        <time>2023-08-06T05:59:48Z</time>
      </trkpt>
      <trkpt lat="50.47281" lon="3.23225">
        <ele>30</ele>
        <time>2023-08-06T05:59:49Z</time>
      </trkpt>
      <trkpt lat="50.47278" lon="3.23231">
        <ele>30</ele>
        <time>2023-08-06T05:59:50Z</time>
      </trkpt>
      <trkpt lat="50.4727" lon="3.23241">
        <ele>30.2</ele>
        <time>2023-08-06T05:59:52Z</time>
      </trkpt>
      <trkpt lat="50.47266" lon="3.23245">
        <ele>30.2</ele>
        <time>2023-08-06T05:59:53Z</time>
      </trkpt>
      <trkpt lat="50.47266" lon="3.23245">
        <ele>30.2</ele>
        <time>2023-08-06T05:59:54Z</time>
      </trkpt>
      <trkpt lat="50.47257" lon="3.23247">
        <ele>30.2</ele>
        <time>2023-08-06T05:59:55Z</time>
      </trkpt>
      <trkpt lat="50.47252" lon="3.23247">
        <ele>30.2</ele>
        <time>2023-08-06T05:59:56Z</time>
      </trkpt>
      <trkpt lat="50.47248" lon="3.23246">
        <ele>30.2</ele>
        <time>2023-08-06T05:59:57Z</time>
      </trkpt>
      <trkpt lat="50.47244" lon="3.23243">
        <ele>30.2</ele>
        <time>2023-08-06T05:59:58Z</time>
      </trkpt>
      <trkpt lat="50.47239" lon="3.23241">
        <ele>30.2</ele>
        <time>2023-08-06T05:59:59Z</time>
      </trkpt>
      <trkpt lat="50.47235" lon="3.23238">
        <ele>30</ele>
        <time>2023-08-06T06:00:00Z</time>
      </trkpt>
      <trkpt lat="50.47228" lon="3.2323">
        <ele>30.2</ele>
        <time>2023-08-06T06:00:02Z</time>
      </trkpt>
      <trkpt lat="50.47224" lon="3.23226">
        <ele>30.2</ele>
        <time>2023-08-06T06:00:03Z</time>
      </trkpt>
      <trkpt lat="50.4722" lon="3.23222">
        <ele>30.2</ele>
        <time>2023-08-06T06:00:04Z</time>
      </trkpt>
      <trkpt lat="50.47212" lon="3.23214">
        <ele>30.2</ele>
        <time>2023-08-06T06:00:06Z</time>
      </trkpt>
      <trkpt lat="50.47193" lon="3.23195">
        <ele>30.6</ele>
        <time>2023-08-06T06:00:11Z</time>
      </trkpt>
      <trkpt lat="50.47185" lon="3.23187">
        <ele>30.8</ele>
        <time>2023-08-06T06:00:13Z</time>
      </trkpt>
      <trkpt lat="50.47163" lon="3.23163">
        <ele>31</ele>
        <time>2023-08-06T06:00:19Z</time>
      </trkpt>
      <trkpt lat="50.47159" lon="3.23159">
        <ele>31</ele>
        <time>2023-08-06T06:00:20Z</time>
      </trkpt>
      <trkpt lat="50.47152" lon="3.23151">
        <ele>31.2</ele>
        <time>2023-08-06T06:00:22Z</time>
      </trkpt>
      <trkpt lat="50.47141" lon="3.2314">
        <ele>31.4</ele>
        <time>2023-08-06T06:00:25Z</time>
      </trkpt>
      <trkpt lat="50.47138" lon="3.23138">
        <ele>31.6</ele>
        <time>2023-08-06T06:00:26Z</time>
      </trkpt>
      <trkpt lat="50.47134" lon="3.23136">
        <ele>31.6</ele>
        <time>2023-08-06T06:00:27Z</time>
      </trkpt>
      <trkpt lat="50.4713" lon="3.23137">
        <ele>31.8</ele>
        <time>2023-08-06T06:00:28Z</time>
      </trkpt>
      <trkpt lat="50.47127" lon="3.23141">
        <ele>31.8</ele>
        <time>2023-08-06T06:00:29Z</time>
      </trkpt>
      <trkpt lat="50.47125" lon="3.23145">
        <ele>31.8</ele>
        <time>2023-08-06T06:00:30Z</time>
      </trkpt>
      <trkpt lat="50.47122" lon="3.2315">
        <ele>31.8</ele>
        <time>2023-08-06T06:00:31Z</time>
      </trkpt>
      <trkpt lat="50.4711" lon="3.23195">
        <ele>31.6</ele>
        <time>2023-08-06T06:00:38Z</time>
      </trkpt>
      <trkpt lat="50.47098" lon="3.23243">
        <ele>31.4</ele>
        <time>2023-08-06T06:00:45Z</time>
      </trkpt>
      <trkpt lat="50.47083" lon="3.23299">
        <ele>31.4</ele>
        <time>2023-08-06T06:00:53Z</time>
      </trkpt>
      <trkpt lat="50.47082" lon="3.23307">
        <ele>31.4</ele>
        <time>2023-08-06T06:00:54Z</time>
      </trkpt>
      <trkpt lat="50.47081" lon="3.23332">
        <ele>31.2</ele>
        <time>2023-08-06T06:00:57Z</time>
      </trkpt>
      <trkpt lat="50.47081" lon="3.2334">
        <ele>31.2</ele>
        <time>2023-08-06T06:00:58Z</time>
      </trkpt>
      <trkpt lat="50.47083" lon="3.23349">
        <ele>31.2</ele>
        <time>2023-08-06T06:00:59Z</time>
      </trkpt>
      <trkpt lat="50.47088" lon="3.23364">
        <ele>31</ele>
        <time>2023-08-06T06:01:01Z</time>
      </trkpt>
      <trkpt lat="50.47092" lon="3.23371">
        <ele>31</ele>
        <time>2023-08-06T06:01:02Z</time>
      </trkpt>
      <trkpt lat="50.47096" lon="3.23378">
        <ele>31</ele>
        <time>2023-08-06T06:01:03Z</time>
      </trkpt>
      <trkpt lat="50.47124" lon="3.23417">
        <ele>30.6</ele>
        <time>2023-08-06T06:01:09Z</time>
      </trkpt>
      <trkpt lat="50.47158" lon="3.23463">
        <ele>30.4</ele>
        <time>2023-08-06T06:01:16Z</time>
      </trkpt>
      <trkpt lat="50.47194" lon="3.23511">
        <ele>29.8</ele>
        <time>2023-08-06T06:01:23Z</time>
      </trkpt>
      <trkpt lat="50.47214" lon="3.2354">
        <ele>29.2</ele>
        <time>2023-08-06T06:01:27Z</time>
      </trkpt>
      <trkpt lat="50.47256" lon="3.23595">
        <ele>28.8</ele>
        <time>2023-08-06T06:01:35Z</time>
      </trkpt>
      <trkpt lat="50.47261" lon="3.23602">
        <ele>28.8</ele>
        <time>2023-08-06T06:01:36Z</time>
      </trkpt>
      <trkpt lat="50.4727" lon="3.23614">
        <ele>28.8</ele>
        <time>2023-08-06T06:01:38Z</time>
      </trkpt>
      <trkpt lat="50.47275" lon="3.23622">
        <ele>28.6</ele>
        <time>2023-08-06T06:01:39Z</time>
      </trkpt>
      <trkpt lat="50.4728" lon="3.23629">
        <ele>28.6</ele>
        <time>2023-08-06T06:01:40Z</time>
      </trkpt>
      <trkpt lat="50.47284" lon="3.23635">
        <ele>28.6</ele>
        <time>2023-08-06T06:01:41Z</time>
      </trkpt>
      <trkpt lat="50.47289" lon="3.23642">
        <ele>28.4</ele>
        <time>2023-08-06T06:01:42Z</time>
      </trkpt>
      <trkpt lat="50.47293" lon="3.23649">
        <ele>28.4</ele>
        <time>2023-08-06T06:01:43Z</time>
      </trkpt>
      <trkpt lat="50.47297" lon="3.23656">
        <ele>28.4</ele>
        <time>2023-08-06T06:01:44Z</time>
      </trkpt>
      <trkpt lat="50.47301" lon="3.23664">
        <ele>28.4</ele>
        <time>2023-08-06T06:01:45Z</time>
      </trkpt>
      <trkpt lat="50.47304" lon="3.23671">
        <ele>28.4</ele>
        <time>2023-08-06T06:01:46Z</time>
      </trkpt>
      <trkpt lat="50.47308" lon="3.23679">
        <ele>28.2</ele>
        <time>2023-08-06T06:01:47Z</time>
      </trkpt>
      <trkpt lat="50.47312" lon="3.23687">
        <ele>28.2</ele>
        <time>2023-08-06T06:01:48Z</time>
      </trkpt>
      <trkpt lat="50.47325" lon="3.2372">
        <ele>28</ele>
        <time>2023-08-06T06:01:52Z</time>
      </trkpt>
      <trkpt lat="50.47337" lon="3.23753">
        <ele>27.8</ele>
        <time>2023-08-06T06:01:56Z</time>
      </trkpt>
      <trkpt lat="50.47346" lon="3.23788">
        <ele>27.8</ele>
        <time>2023-08-06T06:02:00Z</time>
      </trkpt>
      <trkpt lat="50.47347" lon="3.23797">
        <ele>27.8</ele>
        <time>2023-08-06T06:02:01Z</time>
      </trkpt>
      <trkpt lat="50.47348" lon="3.23806">
        <ele>27.8</ele>
        <time>2023-08-06T06:02:02Z</time>
      </trkpt>
      <trkpt lat="50.47347" lon="3.23815">
        <ele>27.8</ele>
        <time>2023-08-06T06:02:03Z</time>
      </trkpt>
      <trkpt lat="50.47346" lon="3.23823">
        <ele>27.8</ele>
        <time>2023-08-06T06:02:04Z</time>
      </trkpt>
      <trkpt lat="50.47344" lon="3.23831">
        <ele>27.8</ele>
        <time>2023-08-06T06:02:05Z</time>
      </trkpt>
      <trkpt lat="50.47341" lon="3.23839">
        <ele>27.6</ele>
        <time>2023-08-06T06:02:06Z</time>
      </trkpt>
      <trkpt lat="50.47338" lon="3.23847">
        <ele>27.6</ele>
        <time>2023-08-06T06:02:07Z</time>
      </trkpt>
      <trkpt lat="50.47332" lon="3.23864">
        <ele>27.6</ele>
        <time>2023-08-06T06:02:09Z</time>
      </trkpt>
      <trkpt lat="50.47323" lon="3.23891">
        <ele>27.4</ele>
        <time>2023-08-06T06:02:12Z</time>
      </trkpt>
      <trkpt lat="50.47321" lon="3.2391">
        <ele>27.2</ele>
        <time>2023-08-06T06:02:14Z</time>
      </trkpt>
      <trkpt lat="50.47322" lon="3.23919">
        <ele>27.2</ele>
        <time>2023-08-06T06:02:15Z</time>
      </trkpt>
      <trkpt lat="50.47325" lon="3.23927">
        <ele>27.2</ele>
        <time>2023-08-06T06:02:16Z</time>
      </trkpt>
      <trkpt lat="50.47328" lon="3.23935">
        <ele>27.2</ele>
        <time>2023-08-06T06:02:17Z</time>
      </trkpt>
      <trkpt lat="50.47332" lon="3.23942">
        <ele>27.2</ele>
        <time>2023-08-06T06:02:18Z</time>
      </trkpt>
      <trkpt lat="50.47336" lon="3.23949">
        <ele>27.2</ele>
        <time>2023-08-06T06:02:19Z</time>
      </trkpt>
      <trkpt lat="50.47339" lon="3.23957">
        <ele>27.4</ele>
        <time>2023-08-06T06:02:20Z</time>
      </trkpt>
      <trkpt lat="50.47358" lon="3.23982">
        <ele>27.4</ele>
        <time>2023-08-06T06:02:24Z</time>
      </trkpt>
      <trkpt lat="50.47399" lon="3.24041">
        <ele>27.2</ele>
        <time>2023-08-06T06:02:33Z</time>
      </trkpt>
      <trkpt lat="50.47408" lon="3.24054">
        <ele>26.8</ele>
        <time>2023-08-06T06:02:35Z</time>
      </trkpt>
      <trkpt lat="50.47421" lon="3.24072">
        <ele>26.4</ele>
        <time>2023-08-06T06:02:38Z</time>
      </trkpt>
      <trkpt lat="50.47425" lon="3.24078">
        <ele>26.4</ele>
        <time>2023-08-06T06:02:39Z</time>
      </trkpt>
      <trkpt lat="50.4743" lon="3.24084">
        <ele>26.2</ele>
        <time>2023-08-06T06:02:40Z</time>
      </trkpt>
      <trkpt lat="50.47434" lon="3.2409">
        <ele>26.2</ele>
        <time>2023-08-06T06:02:41Z</time>
      </trkpt>
      <trkpt lat="50.47437" lon="3.24096">
        <ele>26.2</ele>
        <time>2023-08-06T06:02:42Z</time>
      </trkpt>
      <trkpt lat="50.4744" lon="3.24102">
        <ele>25.8</ele>
        <time>2023-08-06T06:02:43Z</time>
      </trkpt>
      <trkpt lat="50.47442" lon="3.24109">
        <ele>25.6</ele>
        <time>2023-08-06T06:02:44Z</time>
      </trkpt>
      <trkpt lat="50.47442" lon="3.24115">
        <ele>25.4</ele>
        <time>2023-08-06T06:02:45Z</time>
      </trkpt>
      <trkpt lat="50.47441" lon="3.24121">
        <ele>25.4</ele>
        <time>2023-08-06T06:02:46Z</time>
      </trkpt>
      <trkpt lat="50.47439" lon="3.24126">
        <ele>25.4</ele>
        <time>2023-08-06T06:02:47Z</time>
      </trkpt>
      <trkpt lat="50.47436" lon="3.24131">
        <ele>25.4</ele>
        <time>2023-08-06T06:02:48Z</time>
      </trkpt>
      <trkpt lat="50.47432" lon="3.24136">
        <ele>25.2</ele>
        <time>2023-08-06T06:02:49Z</time>
      </trkpt>
      <trkpt lat="50.47428" lon="3.24141">
        <ele>25.2</ele>
        <time>2023-08-06T06:02:50Z</time>
      </trkpt>
      <trkpt lat="50.47425" lon="3.24146">
        <ele>25</ele>
        <time>2023-08-06T06:02:51Z</time>
      </trkpt>
      <trkpt lat="50.47401" lon="3.2418">
        <ele>24.6</ele>
        <time>2023-08-06T06:02:57Z</time>
      </trkpt>
      <trkpt lat="50.47379" lon="3.24208">
        <ele>24.2</ele>
        <time>2023-08-06T06:03:02Z</time>
      </trkpt>
      <trkpt lat="50.47362" lon="3.2423">
        <ele>24</ele>
        <time>2023-08-06T06:03:06Z</time>
      </trkpt>
      <trkpt lat="50.47317" lon="3.24287">
        <ele>24</ele>
        <time>2023-08-06T06:03:16Z</time>
      </trkpt>
      <trkpt lat="50.4727" lon="3.24342">
        <ele>24</ele>
        <time>2023-08-06T06:03:26Z</time>
      </trkpt>
      <trkpt lat="50.47265" lon="3.24346">
        <ele>24</ele>
        <time>2023-08-06T06:03:27Z</time>
      </trkpt>
      <trkpt lat="50.4725" lon="3.24359">
        <ele>24</ele>
        <time>2023-08-06T06:03:30Z</time>
      </trkpt>
      <trkpt lat="50.47239" lon="3.24367">
        <ele>24</ele>
        <time>2023-08-06T06:03:32Z</time>
      </trkpt>
      <trkpt lat="50.47201" lon="3.24394">
        <ele>23.8</ele>
        <time>2023-08-06T06:03:39Z</time>
      </trkpt>
      <trkpt lat="50.47159" lon="3.24424">
        <ele>23.4</ele>
        <time>2023-08-06T06:03:47Z</time>
      </trkpt>
      <trkpt lat="50.47144" lon="3.24435">
        <ele>23.2</ele>
        <time>2023-08-06T06:03:50Z</time>
      </trkpt>
      <trkpt lat="50.4713" lon="3.24445">
        <ele>23.2</ele>
        <time>2023-08-06T06:03:53Z</time>
      </trkpt>
      <trkpt lat="50.47125" lon="3.24448">
        <ele>23.2</ele>
        <time>2023-08-06T06:03:54Z</time>
      </trkpt>
      <trkpt lat="50.47121" lon="3.24452">
        <ele>23.2</ele>
        <time>2023-08-06T06:03:55Z</time>
      </trkpt>
      <trkpt lat="50.47117" lon="3.24457">
        <ele>23.2</ele>
        <time>2023-08-06T06:03:56Z</time>
      </trkpt>
      <trkpt lat="50.47116" lon="3.24465">
        <ele>23.2</ele>
        <time>2023-08-06T06:03:57Z</time>
      </trkpt>
      <trkpt lat="50.47116" lon="3.24473">
        <ele>23.2</ele>
        <time>2023-08-06T06:03:58Z</time>
      </trkpt>
      <trkpt lat="50.47118" lon="3.24478">
        <ele>23.2</ele>
        <time>2023-08-06T06:03:59Z</time>
      </trkpt>
      <trkpt lat="50.47121" lon="3.24484">
        <ele>23.2</ele>
        <time>2023-08-06T06:04:00Z</time>
      </trkpt>
      <trkpt lat="50.47124" lon="3.2449">
        <ele>23.2</ele>
        <time>2023-08-06T06:04:01Z</time>
      </trkpt>
      <trkpt lat="50.47127" lon="3.24497">
        <ele>23.2</ele>
        <time>2023-08-06T06:04:02Z</time>
      </trkpt>
      <trkpt lat="50.4713" lon="3.24504">
        <ele>23.2</ele>
        <time>2023-08-06T06:04:03Z</time>
      </trkpt>
      <trkpt lat="50.47135" lon="3.24519">
        <ele>23.2</ele>
        <time>2023-08-06T06:04:05Z</time>
      </trkpt>
      <trkpt lat="50.47141" lon="3.24534">
        <ele>23</ele>
        <time>2023-08-06T06:04:07Z</time>
      </trkpt>
      <trkpt lat="50.47161" lon="3.24592">
        <ele>22.8</ele>
        <time>2023-08-06T06:04:14Z</time>
      </trkpt>
      <trkpt lat="50.47166" lon="3.24609">
        <ele>22.6</ele>
        <time>2023-08-06T06:04:16Z</time>
      </trkpt>
      <trkpt lat="50.47167" lon="3.24627">
        <ele>22.6</ele>
        <time>2023-08-06T06:04:18Z</time>
      </trkpt>
      <trkpt lat="50.47165" lon="3.24636">
        <ele>22.4</ele>
        <time>2023-08-06T06:04:19Z</time>
      </trkpt>
      <trkpt lat="50.47163" lon="3.24644">
        <ele>22.4</ele>
        <time>2023-08-06T06:04:20Z</time>
      </trkpt>
      <trkpt lat="50.47161" lon="3.24653">
        <ele>22.2</ele>
        <time>2023-08-06T06:04:21Z</time>
      </trkpt>
      <trkpt lat="50.47157" lon="3.2466">
        <ele>22.2</ele>
        <time>2023-08-06T06:04:22Z</time>
      </trkpt>
      <trkpt lat="50.47154" lon="3.24668">
        <ele>22</ele>
        <time>2023-08-06T06:04:23Z</time>
      </trkpt>
      <trkpt lat="50.47133" lon="3.24705">
        <ele>21.6</ele>
        <time>2023-08-06T06:04:28Z</time>
      </trkpt>
      <trkpt lat="50.47125" lon="3.24719">
        <ele>21.2</ele>
        <time>2023-08-06T06:04:30Z</time>
      </trkpt>
      <trkpt lat="50.47103" lon="3.24758">
        <ele>20.4</ele>
        <time>2023-08-06T06:04:35Z</time>
      </trkpt>
      <trkpt lat="50.4709" lon="3.24781">
        <ele>20</ele>
        <time>2023-08-06T06:04:38Z</time>
      </trkpt>
      <trkpt lat="50.47053" lon="3.24843">
        <ele>19.4</ele>
        <time>2023-08-06T06:04:46Z</time>
      </trkpt>
      <trkpt lat="50.47042" lon="3.24864">
        <ele>19</ele>
        <time>2023-08-06T06:04:49Z</time>
      </trkpt>
      <trkpt lat="50.47021" lon="3.24893">
        <ele>18.4</ele>
        <time>2023-08-06T06:04:53Z</time>
      </trkpt>
      <trkpt lat="50.47" lon="3.2492">
        <ele>18</ele>
        <time>2023-08-06T06:04:57Z</time>
      </trkpt>
      <trkpt lat="50.46994" lon="3.24926">
        <ele>18</ele>
        <time>2023-08-06T06:04:58Z</time>
      </trkpt>
      <trkpt lat="50.46982" lon="3.24938">
        <ele>17.8</ele>
        <time>2023-08-06T06:05:00Z</time>
      </trkpt>
      <trkpt lat="50.46948" lon="3.2498">
        <ele>17.2</ele>
        <time>2023-08-06T06:05:06Z</time>
      </trkpt>
      <trkpt lat="50.4692" lon="3.25033">
        <ele>16.8</ele>
        <time>2023-08-06T06:05:12Z</time>
      </trkpt>
      <trkpt lat="50.46911" lon="3.25051">
        <ele>16.6</ele>
        <time>2023-08-06T06:05:14Z</time>
      </trkpt>
      <trkpt lat="50.46876" lon="3.25124">
        <ele>15.8</ele>
        <time>2023-08-06T06:05:22Z</time>
      </trkpt>
      <trkpt lat="50.46871" lon="3.25134">
        <ele>15.8</ele>
        <time>2023-08-06T06:05:23Z</time>
      </trkpt>
      <trkpt lat="50.46863" lon="3.25149">
        <ele>15.6</ele>
        <time>2023-08-06T06:05:25Z</time>
      </trkpt>
      <trkpt lat="50.46843" lon="3.25192">
        <ele>15.4</ele>
        <time>2023-08-06T06:05:30Z</time>
      </trkpt>
      <trkpt lat="50.46836" lon="3.25208">
        <ele>15.2</ele>
        <time>2023-08-06T06:05:32Z</time>
      </trkpt>
      <trkpt lat="50.46827" lon="3.25225">
        <ele>15.2</ele>
        <time>2023-08-06T06:05:34Z</time>
      </trkpt>
      <trkpt lat="50.46824" lon="3.25233">
        <ele>15.2</ele>
        <time>2023-08-06T06:05:35Z</time>
      </trkpt>
      <trkpt lat="50.4682" lon="3.25241">
        <ele>15</ele>
        <time>2023-08-06T06:05:36Z</time>
      </trkpt>
      <trkpt lat="50.46804" lon="3.25272">
        <ele>14.8</ele>
        <time>2023-08-06T06:05:40Z</time>
      </trkpt>
      <trkpt lat="50.46794" lon="3.25283">
        <ele>14.8</ele>
        <time>2023-08-06T06:05:42Z</time>
      </trkpt>
      <trkpt lat="50.46789" lon="3.25286">
        <ele>14.8</ele>
        <time>2023-08-06T06:05:43Z</time>
      </trkpt>
      <trkpt lat="50.46783" lon="3.25288">
        <ele>14.8</ele>
        <time>2023-08-06T06:05:44Z</time>
      </trkpt>
      <trkpt lat="50.46777" lon="3.25291">
        <ele>14.8</ele>
        <time>2023-08-06T06:05:45Z</time>
      </trkpt>
      <trkpt lat="50.46772" lon="3.25297">
        <ele>14.8</ele>
        <time>2023-08-06T06:05:46Z</time>
      </trkpt>
      <trkpt lat="50.4677" lon="3.25304">
        <ele>14.8</ele>
        <time>2023-08-06T06:05:47Z</time>
      </trkpt>
      <trkpt lat="50.46768" lon="3.25312">
        <ele>14.8</ele>
        <time>2023-08-06T06:05:48Z</time>
      </trkpt>
      <trkpt lat="50.46768" lon="3.25321">
        <ele>14.8</ele>
        <time>2023-08-06T06:05:49Z</time>
      </trkpt>
      <trkpt lat="50.46769" lon="3.2533">
        <ele>14.8</ele>
        <time>2023-08-06T06:05:50Z</time>
      </trkpt>
      <trkpt lat="50.46769" lon="3.25339">
        <ele>14.8</ele>
        <time>2023-08-06T06:05:51Z</time>
      </trkpt>
      <trkpt lat="50.46769" lon="3.25349">
        <ele>14.8</ele>
        <time>2023-08-06T06:05:52Z</time>
      </trkpt>
      <trkpt lat="50.46769" lon="3.25358">
        <ele>14.8</ele>
        <time>2023-08-06T06:05:53Z</time>
      </trkpt>
      <trkpt lat="50.46769" lon="3.25369">
        <ele>14.8</ele>
        <time>2023-08-06T06:05:54Z</time>
      </trkpt>
      <trkpt lat="50.46767" lon="3.25376">
        <ele>14.6</ele>
        <time>2023-08-06T06:05:55Z</time>
      </trkpt>
      <trkpt lat="50.46748" lon="3.25445">
        <ele>14.4</ele>
        <time>2023-08-06T06:06:03Z</time>
      </trkpt>
      <trkpt lat="50.46727" lon="3.25526">
        <ele>14</ele>
        <time>2023-08-06T06:06:12Z</time>
      </trkpt>
      <trkpt lat="50.46722" lon="3.25544">
        <ele>14</ele>
        <time>2023-08-06T06:06:14Z</time>
      </trkpt>
      <trkpt lat="50.46704" lon="3.25619">
        <ele>14</ele>
        <time>2023-08-06T06:06:22Z</time>
      </trkpt>
      <trkpt lat="50.46692" lon="3.25662">
        <ele>13.8</ele>
        <time>2023-08-06T06:06:27Z</time>
      </trkpt>
      <trkpt lat="50.4669" lon="3.25671">
        <ele>13.8</ele>
        <time>2023-08-06T06:06:28Z</time>
      </trkpt>
      <trkpt lat="50.46688" lon="3.2568">
        <ele>13.8</ele>
        <time>2023-08-06T06:06:29Z</time>
      </trkpt>
      <trkpt lat="50.46686" lon="3.25689">
        <ele>13.8</ele>
        <time>2023-08-06T06:06:30Z</time>
      </trkpt>
      <trkpt lat="50.46681" lon="3.25707">
        <ele>13.6</ele>
        <time>2023-08-06T06:06:32Z</time>
      </trkpt>
      <trkpt lat="50.46676" lon="3.25724">
        <ele>13.6</ele>
        <time>2023-08-06T06:06:34Z</time>
      </trkpt>
      <trkpt lat="50.46669" lon="3.2574">
        <ele>13.6</ele>
        <time>2023-08-06T06:06:36Z</time>
      </trkpt>
      <trkpt lat="50.46666" lon="3.25748">
        <ele>13.6</ele>
        <time>2023-08-06T06:06:37Z</time>
      </trkpt>
      <trkpt lat="50.46647" lon="3.25775">
        <ele>13.4</ele>
        <time>2023-08-06T06:06:41Z</time>
      </trkpt>
      <trkpt lat="50.46616" lon="3.25807">
        <ele>12.8</ele>
        <time>2023-08-06T06:06:47Z</time>
      </trkpt>
      <trkpt lat="50.46597" lon="3.25812">
        <ele>12.4</ele>
        <time>2023-08-06T06:06:50Z</time>
      </trkpt>
      <trkpt lat="50.46591" lon="3.25813">
        <ele>12.4</ele>
        <time>2023-08-06T06:06:51Z</time>
      </trkpt>
      <trkpt lat="50.46537" lon="3.2582">
        <ele>12.4</ele>
        <time>2023-08-06T06:07:00Z</time>
      </trkpt>
      <trkpt lat="50.46525" lon="3.25823">
        <ele>12.4</ele>
        <time>2023-08-06T06:07:02Z</time>
      </trkpt>
      <trkpt lat="50.4652" lon="3.25824">
        <ele>12.4</ele>
        <time>2023-08-06T06:07:03Z</time>
      </trkpt>
      <trkpt lat="50.46514" lon="3.25825">
        <ele>12.4</ele>
        <time>2023-08-06T06:07:04Z</time>
      </trkpt>
      <trkpt lat="50.46508" lon="3.25826">
        <ele>12.4</ele>
        <time>2023-08-06T06:07:05Z</time>
      </trkpt>
      <trkpt lat="50.46502" lon="3.25828">
        <ele>12.2</ele>
        <time>2023-08-06T06:07:06Z</time>
      </trkpt>
      <trkpt lat="50.46497" lon="3.2583">
        <ele>12.2</ele>
        <time>2023-08-06T06:07:07Z</time>
      </trkpt>
      <trkpt lat="50.46491" lon="3.25833">
        <ele>12.2</ele>
        <time>2023-08-06T06:07:08Z</time>
      </trkpt>
      <trkpt lat="50.46486" lon="3.25836">
        <ele>12.2</ele>
        <time>2023-08-06T06:07:09Z</time>
      </trkpt>
      <trkpt lat="50.46481" lon="3.25841">
        <ele>12.2</ele>
        <time>2023-08-06T06:07:10Z</time>
      </trkpt>
      <trkpt lat="50.46461" lon="3.2586">
        <ele>12.2</ele>
        <time>2023-08-06T06:07:14Z</time>
      </trkpt>
      <trkpt lat="50.4643" lon="3.2589">
        <ele>11.6</ele>
        <time>2023-08-06T06:07:20Z</time>
      </trkpt>
      <trkpt lat="50.46417" lon="3.25904">
        <ele>11.2</ele>
        <time>2023-08-06T06:07:23Z</time>
      </trkpt>
      <trkpt lat="50.46406" lon="3.25916">
        <ele>11.2</ele>
        <time>2023-08-06T06:07:25Z</time>
      </trkpt>
      <trkpt lat="50.46402" lon="3.25921">
        <ele>11</ele>
        <time>2023-08-06T06:07:26Z</time>
      </trkpt>
      <trkpt lat="50.4638" lon="3.25947">
        <ele>11.4</ele>
        <time>2023-08-06T06:07:31Z</time>
      </trkpt>
      <trkpt lat="50.46377" lon="3.25951">
        <ele>11.6</ele>
        <time>2023-08-06T06:07:32Z</time>
      </trkpt>
      <trkpt lat="50.46373" lon="3.25956">
        <ele>11.6</ele>
        <time>2023-08-06T06:07:33Z</time>
      </trkpt>
      <trkpt lat="50.46367" lon="3.25962">
        <ele>11.4</ele>
        <time>2023-08-06T06:07:34Z</time>
      </trkpt>
      <trkpt lat="50.46363" lon="3.25967">
        <ele>11.4</ele>
        <time>2023-08-06T06:07:35Z</time>
      </trkpt>
      <trkpt lat="50.4636" lon="3.25971">
        <ele>11</ele>
        <time>2023-08-06T06:07:36Z</time>
      </trkpt>
      <trkpt lat="50.46356" lon="3.25976">
        <ele>11</ele>
        <time>2023-08-06T06:07:37Z</time>
      </trkpt>
      <trkpt lat="50.46351" lon="3.25981">
        <ele>11.2</ele>
        <time>2023-08-06T06:07:38Z</time>
      </trkpt>
      <trkpt lat="50.46347" lon="3.25986">
        <ele>11.2</ele>
        <time>2023-08-06T06:07:39Z</time>
      </trkpt>
      <trkpt lat="50.46343" lon="3.25991">
        <ele>11.6</ele>
        <time>2023-08-06T06:07:40Z</time>
      </trkpt>
      <trkpt lat="50.4634" lon="3.25995">
        <ele>11.6</ele>
        <time>2023-08-06T06:07:41Z</time>
      </trkpt>
      <trkpt lat="50.46336" lon="3.26">
        <ele>11.8</ele>
        <time>2023-08-06T06:07:42Z</time>
      </trkpt>
      <trkpt lat="50.46331" lon="3.26005">
        <ele>11.8</ele>
        <time>2023-08-06T06:07:43Z</time>
      </trkpt>
      <trkpt lat="50.46327" lon="3.2601">
        <ele>11.6</ele>
        <time>2023-08-06T06:07:44Z</time>
      </trkpt>
      <trkpt lat="50.46324" lon="3.26013">
        <ele>11.6</ele>
        <time>2023-08-06T06:07:45Z</time>
      </trkpt>
      <trkpt lat="50.4632" lon="3.26018">
        <ele>11.8</ele>
        <time>2023-08-06T06:07:46Z</time>
      </trkpt>
      <trkpt lat="50.46317" lon="3.26022">
        <ele>11.8</ele>
        <time>2023-08-06T06:07:47Z</time>
      </trkpt>
      <trkpt lat="50.46312" lon="3.26028">
        <ele>12</ele>
        <time>2023-08-06T06:07:48Z</time>
      </trkpt>
      <trkpt lat="50.46308" lon="3.26033">
        <ele>12</ele>
        <time>2023-08-06T06:07:49Z</time>
      </trkpt>
      <trkpt lat="50.46305" lon="3.26038">
        <ele>11.8</ele>
        <time>2023-08-06T06:07:50Z</time>
      </trkpt>
      <trkpt lat="50.46302" lon="3.26042">
        <ele>11.8</ele>
        <time>2023-08-06T06:07:51Z</time>
      </trkpt>
      <trkpt lat="50.46298" lon="3.26047">
        <ele>11.6</ele>
        <time>2023-08-06T06:07:52Z</time>
      </trkpt>
      <trkpt lat="50.46295" lon="3.26052">
        <ele>11.6</ele>
        <time>2023-08-06T06:07:53Z</time>
      </trkpt>
      <trkpt lat="50.46287" lon="3.26062">
        <ele>12</ele>
        <time>2023-08-06T06:07:55Z</time>
      </trkpt>
      <trkpt lat="50.46284" lon="3.26067">
        <ele>12.2</ele>
        <time>2023-08-06T06:07:56Z</time>
      </trkpt>
      <trkpt lat="50.46258" lon="3.26104">
        <ele>12.2</ele>
        <time>2023-08-06T06:08:03Z</time>
      </trkpt>
      <trkpt lat="50.46226" lon="3.26149">
        <ele>12.4</ele>
        <time>2023-08-06T06:08:12Z</time>
      </trkpt>
      <trkpt lat="50.46193" lon="3.26193">
        <ele>12.4</ele>
        <time>2023-08-06T06:08:21Z</time>
      </trkpt>
      <trkpt lat="50.46189" lon="3.26197">
        <ele>12.4</ele>
        <time>2023-08-06T06:08:22Z</time>
      </trkpt>
      <trkpt lat="50.46186" lon="3.26202">
        <ele>12.6</ele>
        <time>2023-08-06T06:08:23Z</time>
      </trkpt>
      <trkpt lat="50.46184" lon="3.26206">
        <ele>12.8</ele>
        <time>2023-08-06T06:08:24Z</time>
      </trkpt>
      <trkpt lat="50.46181" lon="3.26211">
        <ele>12.8</ele>
        <time>2023-08-06T06:08:25Z</time>
      </trkpt>
      <trkpt lat="50.46177" lon="3.26218">
        <ele>13</ele>
        <time>2023-08-06T06:08:26Z</time>
      </trkpt>
      <trkpt lat="50.46174" lon="3.26223">
        <ele>13</ele>
        <time>2023-08-06T06:08:27Z</time>
      </trkpt>
      <trkpt lat="50.46172" lon="3.26228">
        <ele>13</ele>
        <time>2023-08-06T06:08:28Z</time>
      </trkpt>
      <trkpt lat="50.4617" lon="3.26234">
        <ele>13</ele>
        <time>2023-08-06T06:08:29Z</time>
      </trkpt>
      <trkpt lat="50.46141" lon="3.26295">
        <ele>12.6</ele>
        <time>2023-08-06T06:08:39Z</time>
      </trkpt>
      <trkpt lat="50.46114" lon="3.2637">
        <ele>12.4</ele>
        <time>2023-08-06T06:08:50Z</time>
      </trkpt>
      <trkpt lat="50.46101" lon="3.26404">
        <ele>13</ele>
        <time>2023-08-06T06:08:55Z</time>
      </trkpt>
      <trkpt lat="50.46094" lon="3.26423">
        <ele>13</ele>
        <time>2023-08-06T06:08:58Z</time>
      </trkpt>
      <trkpt lat="50.4608" lon="3.26457">
        <ele>12.8</ele>
        <time>2023-08-06T06:09:03Z</time>
      </trkpt>
      <trkpt lat="50.46072" lon="3.26482">
        <ele>12.6</ele>
        <time>2023-08-06T06:09:07Z</time>
      </trkpt>
      <trkpt lat="50.46064" lon="3.265">
        <ele>12.8</ele>
        <time>2023-08-06T06:09:10Z</time>
      </trkpt>
      <trkpt lat="50.46062" lon="3.26505">
        <ele>12.8</ele>
        <time>2023-08-06T06:09:11Z</time>
      </trkpt>
      <trkpt lat="50.4606" lon="3.2651">
        <ele>12.8</ele>
        <time>2023-08-06T06:09:12Z</time>
      </trkpt>
      <trkpt lat="50.46058" lon="3.26517">
        <ele>12.8</ele>
        <time>2023-08-06T06:09:13Z</time>
      </trkpt>
      <trkpt lat="50.46056" lon="3.26521">
        <ele>12.8</ele>
        <time>2023-08-06T06:09:14Z</time>
      </trkpt>
      <trkpt lat="50.46055" lon="3.26524">
        <ele>12.8</ele>
        <time>2023-08-06T06:09:15Z</time>
      </trkpt>
      <trkpt lat="50.46053" lon="3.26525">
        <ele>12.8</ele>
        <time>2023-08-06T06:09:16Z</time>
      </trkpt>
      <trkpt lat="50.46052" lon="3.26525">
        <ele>13</ele>
        <time>2023-08-06T06:09:17Z</time>
      </trkpt>
      <trkpt lat="50.46051" lon="3.26525">
        <ele>13</ele>
        <time>2023-08-06T06:09:18Z</time>
      </trkpt>
      <trkpt lat="50.46051" lon="3.26525">
        <ele>13.2</ele>
        <time>2023-08-06T06:09:19Z</time>
      </trkpt>
      <trkpt lat="50.46051" lon="3.26525">
        <ele>13.2</ele>
        <time>2023-08-06T06:09:20Z</time>
      </trkpt>
      <trkpt lat="50.46043" lon="3.2653">
        <ele>13.8</ele>
        <time>2023-08-06T06:09:41Z</time>
      </trkpt>
      <trkpt lat="50.46026" lon="3.26534">
        <ele>13.6</ele>
        <time>2023-08-06T06:09:47Z</time>
      </trkpt>
      <trkpt lat="50.46004" lon="3.2654">
        <ele>13.6</ele>
        <time>2023-08-06T06:09:54Z</time>
      </trkpt>
      <trkpt lat="50.45999" lon="3.26539">
        <ele>13.4</ele>
        <time>2023-08-06T06:09:55Z</time>
      </trkpt>
      <trkpt lat="50.45994" lon="3.26539">
        <ele>13.4</ele>
        <time>2023-08-06T06:09:56Z</time>
      </trkpt>
      <trkpt lat="50.45989" lon="3.26542">
        <ele>13.4</ele>
        <time>2023-08-06T06:09:57Z</time>
      </trkpt>
      <trkpt lat="50.45986" lon="3.26544">
        <ele>13.4</ele>
        <time>2023-08-06T06:09:58Z</time>
      </trkpt>
      <trkpt lat="50.45977" lon="3.26545">
        <ele>13.6</ele>
        <time>2023-08-06T06:10:02Z</time>
      </trkpt>
      <trkpt lat="50.45975" lon="3.26547">
        <ele>13.6</ele>
        <time>2023-08-06T06:10:03Z</time>
      </trkpt>
      <trkpt lat="50.4597" lon="3.26549">
        <ele>13.6</ele>
        <time>2023-08-06T06:10:04Z</time>
      </trkpt>
      <trkpt lat="50.45958" lon="3.26552">
        <ele>13.6</ele>
        <time>2023-08-06T06:10:07Z</time>
      </trkpt>
      <trkpt lat="50.45953" lon="3.26553">
        <ele>13.6</ele>
        <time>2023-08-06T06:10:08Z</time>
      </trkpt>
      <trkpt lat="50.45938" lon="3.26556">
        <ele>13.6</ele>
        <time>2023-08-06T06:10:11Z</time>
      </trkpt>
      <trkpt lat="50.45918" lon="3.26561">
        <ele>13.6</ele>
        <time>2023-08-06T06:10:15Z</time>
      </trkpt>
      <trkpt lat="50.45905" lon="3.26562">
        <ele>13.6</ele>
        <time>2023-08-06T06:10:18Z</time>
      </trkpt>
      <trkpt lat="50.45885" lon="3.26566">
        <ele>13.6</ele>
        <time>2023-08-06T06:10:22Z</time>
      </trkpt>
      <trkpt lat="50.45877" lon="3.26568">
        <ele>13.6</ele>
        <time>2023-08-06T06:10:24Z</time>
      </trkpt>
      <trkpt lat="50.45865" lon="3.26571">
        <ele>13.4</ele>
        <time>2023-08-06T06:10:26Z</time>
      </trkpt>
      <trkpt lat="50.4584" lon="3.2658">
        <ele>13.2</ele>
        <time>2023-08-06T06:10:31Z</time>
      </trkpt>
      <trkpt lat="50.45801" lon="3.2659">
        <ele>12.8</ele>
        <time>2023-08-06T06:10:39Z</time>
      </trkpt>
      <trkpt lat="50.45786" lon="3.26594">
        <ele>12.6</ele>
        <time>2023-08-06T06:10:42Z</time>
      </trkpt>
      <trkpt lat="50.45766" lon="3.26598">
        <ele>12.4</ele>
        <time>2023-08-06T06:10:46Z</time>
      </trkpt>
      <trkpt lat="50.45723" lon="3.2661">
        <ele>12</ele>
        <time>2023-08-06T06:10:54Z</time>
      </trkpt>
      <trkpt lat="50.4569" lon="3.26619">
        <ele>11.8</ele>
        <time>2023-08-06T06:11:00Z</time>
      </trkpt>
      <trkpt lat="50.45678" lon="3.26622">
        <ele>11.8</ele>
        <time>2023-08-06T06:11:02Z</time>
      </trkpt>
      <trkpt lat="50.45672" lon="3.26624">
        <ele>11.8</ele>
        <time>2023-08-06T06:11:03Z</time>
      </trkpt>
      <trkpt lat="50.45633" lon="3.26634">
        <ele>11.2</ele>
        <time>2023-08-06T06:11:10Z</time>
      </trkpt>
      <trkpt lat="50.4562" lon="3.26637">
        <ele>11.2</ele>
        <time>2023-08-06T06:11:12Z</time>
      </trkpt>
      <trkpt lat="50.45585" lon="3.26647">
        <ele>10.6</ele>
        <time>2023-08-06T06:11:18Z</time>
      </trkpt>
      <trkpt lat="50.45575" lon="3.26649">
        <ele>10.6</ele>
        <time>2023-08-06T06:11:20Z</time>
      </trkpt>
      <trkpt lat="50.45552" lon="3.26655">
        <ele>10</ele>
        <time>2023-08-06T06:11:24Z</time>
      </trkpt>
      <trkpt lat="50.45549" lon="3.26656">
        <ele>10</ele>
        <time>2023-08-06T06:11:25Z</time>
      </trkpt>
      <trkpt lat="50.45544" lon="3.26657">
        <ele>9.8</ele>
        <time>2023-08-06T06:11:26Z</time>
      </trkpt>
      <trkpt lat="50.45541" lon="3.26658">
        <ele>9.8</ele>
        <time>2023-08-06T06:11:27Z</time>
      </trkpt>
      <trkpt lat="50.45539" lon="3.2666">
        <ele>9.6</ele>
        <time>2023-08-06T06:11:28Z</time>
      </trkpt>
      <trkpt lat="50.45537" lon="3.26662">
        <ele>9.6</ele>
        <time>2023-08-06T06:11:29Z</time>
      </trkpt>
      <trkpt lat="50.45534" lon="3.26665">
        <ele>9.6</ele>
        <time>2023-08-06T06:11:30Z</time>
      </trkpt>
      <trkpt lat="50.45532" lon="3.26667">
        <ele>9.6</ele>
        <time>2023-08-06T06:11:31Z</time>
      </trkpt>
      <trkpt lat="50.45531" lon="3.26667">
        <ele>9.6</ele>
        <time>2023-08-06T06:11:32Z</time>
      </trkpt>
      <trkpt lat="50.45529" lon="3.26667">
        <ele>9.6</ele>
        <time>2023-08-06T06:11:33Z</time>
      </trkpt>
      <trkpt lat="50.45527" lon="3.26665">
        <ele>9.4</ele>
        <time>2023-08-06T06:11:34Z</time>
      </trkpt>
      <trkpt lat="50.45525" lon="3.26664">
        <ele>9.4</ele>
        <time>2023-08-06T06:11:35Z</time>
      </trkpt>
      <trkpt lat="50.45522" lon="3.26663">
        <ele>9.4</ele>
        <time>2023-08-06T06:11:36Z</time>
      </trkpt>
      <trkpt lat="50.45521" lon="3.26664">
        <ele>9.4</ele>
        <time>2023-08-06T06:11:37Z</time>
      </trkpt>
      <trkpt lat="50.45519" lon="3.26668">
        <ele>9.2</ele>
        <time>2023-08-06T06:11:39Z</time>
      </trkpt>
      <trkpt lat="50.45517" lon="3.26668">
        <ele>9.2</ele>
        <time>2023-08-06T06:11:40Z</time>
      </trkpt>
      <trkpt lat="50.45514" lon="3.26668">
        <ele>9.2</ele>
        <time>2023-08-06T06:11:41Z</time>
      </trkpt>
      <trkpt lat="50.45511" lon="3.26669">
        <ele>9.2</ele>
        <time>2023-08-06T06:11:42Z</time>
      </trkpt>
      <trkpt lat="50.45507" lon="3.26669">
        <ele>9.2</ele>
        <time>2023-08-06T06:11:43Z</time>
      </trkpt>
      <trkpt lat="50.45497" lon="3.26671">
        <ele>9</ele>
        <time>2023-08-06T06:11:46Z</time>
      </trkpt>
      <trkpt lat="50.4549" lon="3.26672">
        <ele>9</ele>
        <time>2023-08-06T06:11:48Z</time>
      </trkpt>
      <trkpt lat="50.45468" lon="3.26676">
        <ele>8.8</ele>
        <time>2023-08-06T06:11:53Z</time>
      </trkpt>
      <trkpt lat="50.45428" lon="3.26684">
        <ele>8.8</ele>
        <time>2023-08-06T06:12:02Z</time>
      </trkpt>
      <trkpt lat="50.45396" lon="3.26693">
        <ele>8.6</ele>
        <time>2023-08-06T06:12:09Z</time>
      </trkpt>
      <trkpt lat="50.45363" lon="3.26699">
        <ele>8.6</ele>
        <time>2023-08-06T06:12:16Z</time>
      </trkpt>
      <trkpt lat="50.45329" lon="3.26708">
        <ele>8.4</ele>
        <time>2023-08-06T06:12:23Z</time>
      </trkpt>
      <trkpt lat="50.45325" lon="3.2671">
        <ele>8.4</ele>
        <time>2023-08-06T06:12:24Z</time>
      </trkpt>
      <trkpt lat="50.45315" lon="3.26712">
        <ele>8.4</ele>
        <time>2023-08-06T06:12:26Z</time>
      </trkpt>
      <trkpt lat="50.45305" lon="3.26713">
        <ele>8.4</ele>
        <time>2023-08-06T06:12:28Z</time>
      </trkpt>
      <trkpt lat="50.453" lon="3.26715">
        <ele>8.4</ele>
        <time>2023-08-06T06:12:29Z</time>
      </trkpt>
      <trkpt lat="50.45295" lon="3.26716">
        <ele>8.4</ele>
        <time>2023-08-06T06:12:30Z</time>
      </trkpt>
      <trkpt lat="50.45291" lon="3.26718">
        <ele>8.2</ele>
        <time>2023-08-06T06:12:31Z</time>
      </trkpt>
      <trkpt lat="50.45278" lon="3.26723">
        <ele>8.2</ele>
        <time>2023-08-06T06:12:34Z</time>
      </trkpt>
      <trkpt lat="50.45274" lon="3.26724">
        <ele>8</ele>
        <time>2023-08-06T06:12:35Z</time>
      </trkpt>
      <trkpt lat="50.45269" lon="3.26724">
        <ele>8</ele>
        <time>2023-08-06T06:12:36Z</time>
      </trkpt>
      <trkpt lat="50.45265" lon="3.26725">
        <ele>8</ele>
        <time>2023-08-06T06:12:37Z</time>
      </trkpt>
      <trkpt lat="50.4526" lon="3.26726">
        <ele>8</ele>
        <time>2023-08-06T06:12:38Z</time>
      </trkpt>
      <trkpt lat="50.45254" lon="3.26727">
        <ele>8</ele>
        <time>2023-08-06T06:12:39Z</time>
      </trkpt>
      <trkpt lat="50.4524" lon="3.2673">
        <ele>7.8</ele>
        <time>2023-08-06T06:12:42Z</time>
      </trkpt>
      <trkpt lat="50.45227" lon="3.26734">
        <ele>7.8</ele>
        <time>2023-08-06T06:12:45Z</time>
      </trkpt>
      <trkpt lat="50.45224" lon="3.26735">
        <ele>7.8</ele>
        <time>2023-08-06T06:12:46Z</time>
      </trkpt>
      <trkpt lat="50.45214" lon="3.26738">
        <ele>7.6</ele>
        <time>2023-08-06T06:12:48Z</time>
      </trkpt>
      <trkpt lat="50.45209" lon="3.2674">
        <ele>7.6</ele>
        <time>2023-08-06T06:12:49Z</time>
      </trkpt>
      <trkpt lat="50.45205" lon="3.26741">
        <ele>7.6</ele>
        <time>2023-08-06T06:12:50Z</time>
      </trkpt>
      <trkpt lat="50.45167" lon="3.26748">
        <ele>7.6</ele>
        <time>2023-08-06T06:12:58Z</time>
      </trkpt>
      <trkpt lat="50.45152" lon="3.26752">
        <ele>7.4</ele>
        <time>2023-08-06T06:13:01Z</time>
      </trkpt>
      <trkpt lat="50.45129" lon="3.26759">
        <ele>7.2</ele>
        <time>2023-08-06T06:13:06Z</time>
      </trkpt>
      <trkpt lat="50.45124" lon="3.26761">
        <ele>7.2</ele>
        <time>2023-08-06T06:13:07Z</time>
      </trkpt>
      <trkpt lat="50.45115" lon="3.26765">
        <ele>7</ele>
        <time>2023-08-06T06:13:09Z</time>
      </trkpt>
      <trkpt lat="50.45093" lon="3.2677">
        <ele>6.8</ele>
        <time>2023-08-06T06:13:14Z</time>
      </trkpt>
      <trkpt lat="50.45063" lon="3.26777">
        <ele>6.4</ele>
        <time>2023-08-06T06:13:20Z</time>
      </trkpt>
      <trkpt lat="50.4503" lon="3.26788">
        <ele>6.4</ele>
        <time>2023-08-06T06:13:27Z</time>
      </trkpt>
      <trkpt lat="50.45025" lon="3.26789">
        <ele>6.4</ele>
        <time>2023-08-06T06:13:28Z</time>
      </trkpt>
      <trkpt lat="50.44997" lon="3.26797">
        <ele>6.2</ele>
        <time>2023-08-06T06:13:34Z</time>
      </trkpt>
      <trkpt lat="50.44967" lon="3.26805">
        <ele>6</ele>
        <time>2023-08-06T06:13:40Z</time>
      </trkpt>
      <trkpt lat="50.44963" lon="3.26808">
        <ele>6</ele>
        <time>2023-08-06T06:13:41Z</time>
      </trkpt>
      <trkpt lat="50.44959" lon="3.26812">
        <ele>6</ele>
        <time>2023-08-06T06:13:42Z</time>
      </trkpt>
      <trkpt lat="50.44955" lon="3.26815">
        <ele>5.8</ele>
        <time>2023-08-06T06:13:43Z</time>
      </trkpt>
      <trkpt lat="50.44947" lon="3.26816">
        <ele>5.8</ele>
        <time>2023-08-06T06:13:45Z</time>
      </trkpt>
      <trkpt lat="50.44943" lon="3.26815">
        <ele>5.6</ele>
        <time>2023-08-06T06:13:46Z</time>
      </trkpt>
      <trkpt lat="50.4494" lon="3.26814">
        <ele>5.6</ele>
        <time>2023-08-06T06:13:47Z</time>
      </trkpt>
      <trkpt lat="50.44936" lon="3.26815">
        <ele>5.4</ele>
        <time>2023-08-06T06:13:48Z</time>
      </trkpt>
      <trkpt lat="50.44932" lon="3.26815">
        <ele>5.4</ele>
        <time>2023-08-06T06:13:49Z</time>
      </trkpt>
      <trkpt lat="50.44918" lon="3.26818">
        <ele>5.2</ele>
        <time>2023-08-06T06:13:52Z</time>
      </trkpt>
      <trkpt lat="50.44894" lon="3.26823">
        <ele>5</ele>
        <time>2023-08-06T06:13:57Z</time>
      </trkpt>
      <trkpt lat="50.4489" lon="3.26824">
        <ele>4.8</ele>
        <time>2023-08-06T06:13:58Z</time>
      </trkpt>
      <trkpt lat="50.44875" lon="3.26826">
        <ele>4.8</ele>
        <time>2023-08-06T06:14:01Z</time>
      </trkpt>
      <trkpt lat="50.4486" lon="3.26831">
        <ele>4.8</ele>
        <time>2023-08-06T06:14:04Z</time>
      </trkpt>
      <trkpt lat="50.44824" lon="3.26839">
        <ele>4.8</ele>
        <time>2023-08-06T06:14:11Z</time>
      </trkpt>
      <trkpt lat="50.44779" lon="3.26851">
        <ele>5</ele>
        <time>2023-08-06T06:14:20Z</time>
      </trkpt>
      <trkpt lat="50.4477" lon="3.26854">
        <ele>5</ele>
        <time>2023-08-06T06:14:22Z</time>
      </trkpt>
      <trkpt lat="50.44765" lon="3.26855">
        <ele>5</ele>
        <time>2023-08-06T06:14:23Z</time>
      </trkpt>
      <trkpt lat="50.44757" lon="3.26857">
        <ele>5</ele>
        <time>2023-08-06T06:14:25Z</time>
      </trkpt>
      <trkpt lat="50.44754" lon="3.26858">
        <ele>5</ele>
        <time>2023-08-06T06:14:26Z</time>
      </trkpt>
      <trkpt lat="50.44752" lon="3.2686">
        <ele>5</ele>
        <time>2023-08-06T06:14:27Z</time>
      </trkpt>
      <trkpt lat="50.4475" lon="3.26862">
        <ele>5</ele>
        <time>2023-08-06T06:14:28Z</time>
      </trkpt>
      <trkpt lat="50.44748" lon="3.26863">
        <ele>5</ele>
        <time>2023-08-06T06:14:29Z</time>
      </trkpt>
      <trkpt lat="50.44747" lon="3.26863">
        <ele>5</ele>
        <time>2023-08-06T06:14:30Z</time>
      </trkpt>
      <trkpt lat="50.44746" lon="3.26862">
        <ele>5</ele>
        <time>2023-08-06T06:14:31Z</time>
      </trkpt>
      <trkpt lat="50.44746" lon="3.26862">
        <ele>5</ele>
        <time>2023-08-06T06:14:32Z</time>
      </trkpt>
      <trkpt lat="50.44744" lon="3.26862">
        <ele>5</ele>
        <time>2023-08-06T06:14:33Z</time>
      </trkpt>
      <trkpt lat="50.44742" lon="3.26863">
        <ele>5</ele>
        <time>2023-08-06T06:14:34Z</time>
      </trkpt>
      <trkpt lat="50.4474" lon="3.26863">
        <ele>5</ele>
        <time>2023-08-06T06:14:35Z</time>
      </trkpt>
      <trkpt lat="50.44737" lon="3.26864">
        <ele>5</ele>
        <time>2023-08-06T06:14:36Z</time>
      </trkpt>
      <trkpt lat="50.44734" lon="3.26866">
        <ele>5</ele>
        <time>2023-08-06T06:14:37Z</time>
      </trkpt>
      <trkpt lat="50.44731" lon="3.26867">
        <ele>5</ele>
        <time>2023-08-06T06:14:38Z</time>
      </trkpt>
      <trkpt lat="50.44721" lon="3.26869">
        <ele>4.8</ele>
        <time>2023-08-06T06:14:41Z</time>
      </trkpt>
      <trkpt lat="50.4471" lon="3.26869">
        <ele>4.6</ele>
        <time>2023-08-06T06:14:44Z</time>
      </trkpt>
      <trkpt lat="50.44707" lon="3.2687">
        <ele>4.6</ele>
        <time>2023-08-06T06:14:45Z</time>
      </trkpt>
      <trkpt lat="50.44704" lon="3.26871">
        <ele>4.6</ele>
        <time>2023-08-06T06:14:46Z</time>
      </trkpt>
      <trkpt lat="50.44702" lon="3.26873">
        <ele>4.4</ele>
        <time>2023-08-06T06:14:47Z</time>
      </trkpt>
      <trkpt lat="50.44695" lon="3.26877">
        <ele>4.4</ele>
        <time>2023-08-06T06:14:50Z</time>
      </trkpt>
      <trkpt lat="50.44693" lon="3.26878">
        <ele>4.4</ele>
        <time>2023-08-06T06:14:51Z</time>
      </trkpt>
      <trkpt lat="50.4469" lon="3.26877">
        <ele>4.2</ele>
        <time>2023-08-06T06:14:52Z</time>
      </trkpt>
      <trkpt lat="50.44688" lon="3.26876">
        <ele>4.2</ele>
        <time>2023-08-06T06:14:53Z</time>
      </trkpt>
      <trkpt lat="50.44685" lon="3.26875">
        <ele>4.2</ele>
        <time>2023-08-06T06:14:54Z</time>
      </trkpt>
      <trkpt lat="50.44682" lon="3.26876">
        <ele>4.2</ele>
        <time>2023-08-06T06:14:55Z</time>
      </trkpt>
      <trkpt lat="50.44679" lon="3.26877">
        <ele>4.2</ele>
        <time>2023-08-06T06:14:56Z</time>
      </trkpt>
      <trkpt lat="50.44676" lon="3.26878">
        <ele>4.2</ele>
        <time>2023-08-06T06:14:57Z</time>
      </trkpt>
      <trkpt lat="50.44668" lon="3.26879">
        <ele>4.2</ele>
        <time>2023-08-06T06:14:59Z</time>
      </trkpt>
      <trkpt lat="50.44643" lon="3.26885">
        <ele>4.2</ele>
        <time>2023-08-06T06:15:05Z</time>
      </trkpt>
      <trkpt lat="50.44627" lon="3.2689">
        <ele>4.2</ele>
        <time>2023-08-06T06:15:09Z</time>
      </trkpt>
      <trkpt lat="50.44622" lon="3.26892">
        <ele>4.2</ele>
        <time>2023-08-06T06:15:10Z</time>
      </trkpt>
      <trkpt lat="50.44578" lon="3.26906">
        <ele>4</ele>
        <time>2023-08-06T06:15:20Z</time>
      </trkpt>
      <trkpt lat="50.44552" lon="3.26917">
        <ele>3.8</ele>
        <time>2023-08-06T06:15:26Z</time>
      </trkpt>
      <trkpt lat="50.44539" lon="3.2692">
        <ele>3.8</ele>
        <time>2023-08-06T06:15:29Z</time>
      </trkpt>
      <trkpt lat="50.44534" lon="3.26922">
        <ele>3.8</ele>
        <time>2023-08-06T06:15:30Z</time>
      </trkpt>
      <trkpt lat="50.44508" lon="3.26934">
        <ele>3.8</ele>
        <time>2023-08-06T06:15:36Z</time>
      </trkpt>
      <trkpt lat="50.44467" lon="3.26954">
        <ele>3.6</ele>
        <time>2023-08-06T06:15:45Z</time>
      </trkpt>
      <trkpt lat="50.44432" lon="3.2697">
        <ele>3.4</ele>
        <time>2023-08-06T06:15:53Z</time>
      </trkpt>
      <trkpt lat="50.44427" lon="3.26973">
        <ele>3.4</ele>
        <time>2023-08-06T06:15:54Z</time>
      </trkpt>
      <trkpt lat="50.44413" lon="3.26977">
        <ele>3.4</ele>
        <time>2023-08-06T06:15:57Z</time>
      </trkpt>
      <trkpt lat="50.44409" lon="3.2698">
        <ele>3.4</ele>
        <time>2023-08-06T06:15:58Z</time>
      </trkpt>
      <trkpt lat="50.44397" lon="3.26986">
        <ele>3.4</ele>
        <time>2023-08-06T06:16:01Z</time>
      </trkpt>
      <trkpt lat="50.44393" lon="3.26987">
        <ele>3.4</ele>
        <time>2023-08-06T06:16:02Z</time>
      </trkpt>
      <trkpt lat="50.44389" lon="3.26988">
        <ele>3.4</ele>
        <time>2023-08-06T06:16:03Z</time>
      </trkpt>
      <trkpt lat="50.44384" lon="3.26989">
        <ele>3.4</ele>
        <time>2023-08-06T06:16:04Z</time>
      </trkpt>
      <trkpt lat="50.44381" lon="3.2699">
        <ele>3.4</ele>
        <time>2023-08-06T06:16:05Z</time>
      </trkpt>
      <trkpt lat="50.44377" lon="3.26991">
        <ele>3.6</ele>
        <time>2023-08-06T06:16:06Z</time>
      </trkpt>
      <trkpt lat="50.44372" lon="3.26993">
        <ele>3.6</ele>
        <time>2023-08-06T06:16:07Z</time>
      </trkpt>
      <trkpt lat="50.44368" lon="3.26996">
        <ele>3.6</ele>
        <time>2023-08-06T06:16:08Z</time>
      </trkpt>
      <trkpt lat="50.44364" lon="3.26999">
        <ele>3.6</ele>
        <time>2023-08-06T06:16:09Z</time>
      </trkpt>
      <trkpt lat="50.44361" lon="3.27001">
        <ele>3.8</ele>
        <time>2023-08-06T06:16:10Z</time>
      </trkpt>
      <trkpt lat="50.44318" lon="3.2702">
        <ele>3.8</ele>
        <time>2023-08-06T06:16:20Z</time>
      </trkpt>
      <trkpt lat="50.44302" lon="3.27027">
        <ele>3.8</ele>
        <time>2023-08-06T06:16:24Z</time>
      </trkpt>
      <trkpt lat="50.44274" lon="3.27039">
        <ele>3.8</ele>
        <time>2023-08-06T06:16:30Z</time>
      </trkpt>
      <trkpt lat="50.44236" lon="3.27056">
        <ele>4</ele>
        <time>2023-08-06T06:16:39Z</time>
      </trkpt>
      <trkpt lat="50.44232" lon="3.27058">
        <ele>4</ele>
        <time>2023-08-06T06:16:40Z</time>
      </trkpt>
      <trkpt lat="50.4422" lon="3.27063">
        <ele>4</ele>
        <time>2023-08-06T06:16:43Z</time>
      </trkpt>
      <trkpt lat="50.44216" lon="3.27064">
        <ele>4</ele>
        <time>2023-08-06T06:16:44Z</time>
      </trkpt>
      <trkpt lat="50.4421" lon="3.27066">
        <ele>4</ele>
        <time>2023-08-06T06:16:45Z</time>
      </trkpt>
      <trkpt lat="50.44206" lon="3.27068">
        <ele>4</ele>
        <time>2023-08-06T06:16:46Z</time>
      </trkpt>
      <trkpt lat="50.44201" lon="3.2707">
        <ele>4</ele>
        <time>2023-08-06T06:16:47Z</time>
      </trkpt>
      <trkpt lat="50.44185" lon="3.27076">
        <ele>4</ele>
        <time>2023-08-06T06:16:51Z</time>
      </trkpt>
      <trkpt lat="50.44177" lon="3.27079">
        <ele>4</ele>
        <time>2023-08-06T06:16:53Z</time>
      </trkpt>
      <trkpt lat="50.44173" lon="3.2708">
        <ele>4</ele>
        <time>2023-08-06T06:16:54Z</time>
      </trkpt>
      <trkpt lat="50.44168" lon="3.27082">
        <ele>4</ele>
        <time>2023-08-06T06:16:55Z</time>
      </trkpt>
      <trkpt lat="50.44164" lon="3.27083">
        <ele>4</ele>
        <time>2023-08-06T06:16:56Z</time>
      </trkpt>
      <trkpt lat="50.44157" lon="3.27085">
        <ele>4</ele>
        <time>2023-08-06T06:16:58Z</time>
      </trkpt>
      <trkpt lat="50.44152" lon="3.27086">
        <ele>4</ele>
        <time>2023-08-06T06:16:59Z</time>
      </trkpt>
      <trkpt lat="50.44147" lon="3.27088">
        <ele>4</ele>
        <time>2023-08-06T06:17:00Z</time>
      </trkpt>
      <trkpt lat="50.44142" lon="3.27089">
        <ele>4</ele>
        <time>2023-08-06T06:17:01Z</time>
      </trkpt>
      <trkpt lat="50.44127" lon="3.27093">
        <ele>4</ele>
        <time>2023-08-06T06:17:04Z</time>
      </trkpt>
      <trkpt lat="50.44122" lon="3.27095">
        <ele>4</ele>
        <time>2023-08-06T06:17:05Z</time>
      </trkpt>
      <trkpt lat="50.44092" lon="3.27113">
        <ele>4</ele>
        <time>2023-08-06T06:17:11Z</time>
      </trkpt>
      <trkpt lat="50.44058" lon="3.27131">
        <ele>3.8</ele>
        <time>2023-08-06T06:17:18Z</time>
      </trkpt>
      <trkpt lat="50.44051" lon="3.27133">
        <ele>3.8</ele>
        <time>2023-08-06T06:17:19Z</time>
      </trkpt>
      <trkpt lat="50.44032" lon="3.27146">
        <ele>3.8</ele>
        <time>2023-08-06T06:17:23Z</time>
      </trkpt>
      <trkpt lat="50.44001" lon="3.27156">
        <ele>3.8</ele>
        <time>2023-08-06T06:17:29Z</time>
      </trkpt>
      <trkpt lat="50.43992" lon="3.27159">
        <ele>3.8</ele>
        <time>2023-08-06T06:17:31Z</time>
      </trkpt>
      <trkpt lat="50.43963" lon="3.27175">
        <ele>4</ele>
        <time>2023-08-06T06:17:37Z</time>
      </trkpt>
      <trkpt lat="50.43931" lon="3.27188">
        <ele>4.2</ele>
        <time>2023-08-06T06:17:43Z</time>
      </trkpt>
      <trkpt lat="50.43907" lon="3.27198">
        <ele>4.2</ele>
        <time>2023-08-06T06:17:48Z</time>
      </trkpt>
      <trkpt lat="50.43897" lon="3.272">
        <ele>4.2</ele>
        <time>2023-08-06T06:17:50Z</time>
      </trkpt>
      <trkpt lat="50.43887" lon="3.27203">
        <ele>4.2</ele>
        <time>2023-08-06T06:17:52Z</time>
      </trkpt>
      <trkpt lat="50.43872" lon="3.2721">
        <ele>4.2</ele>
        <time>2023-08-06T06:17:55Z</time>
      </trkpt>
      <trkpt lat="50.43854" lon="3.27218">
        <ele>4.2</ele>
        <time>2023-08-06T06:17:59Z</time>
      </trkpt>
      <trkpt lat="50.43849" lon="3.2722">
        <ele>4.2</ele>
        <time>2023-08-06T06:18:00Z</time>
      </trkpt>
      <trkpt lat="50.43839" lon="3.27226">
        <ele>4.2</ele>
        <time>2023-08-06T06:18:02Z</time>
      </trkpt>
      <trkpt lat="50.43816" lon="3.27239">
        <ele>4</ele>
        <time>2023-08-06T06:18:07Z</time>
      </trkpt>
      <trkpt lat="50.43807" lon="3.27242">
        <ele>4</ele>
        <time>2023-08-06T06:18:09Z</time>
      </trkpt>
      <trkpt lat="50.43794" lon="3.27246">
        <ele>3.8</ele>
        <time>2023-08-06T06:18:12Z</time>
      </trkpt>
      <trkpt lat="50.43787" lon="3.27246">
        <ele>3.8</ele>
        <time>2023-08-06T06:18:14Z</time>
      </trkpt>
      <trkpt lat="50.43783" lon="3.27245">
        <ele>3.8</ele>
        <time>2023-08-06T06:18:15Z</time>
      </trkpt>
      <trkpt lat="50.4378" lon="3.27246">
        <ele>3.8</ele>
        <time>2023-08-06T06:18:16Z</time>
      </trkpt>
      <trkpt lat="50.43776" lon="3.27247">
        <ele>3.8</ele>
        <time>2023-08-06T06:18:17Z</time>
      </trkpt>
      <trkpt lat="50.43774" lon="3.27249">
        <ele>4</ele>
        <time>2023-08-06T06:18:18Z</time>
      </trkpt>
      <trkpt lat="50.43772" lon="3.27251">
        <ele>4</ele>
        <time>2023-08-06T06:18:19Z</time>
      </trkpt>
      <trkpt lat="50.43771" lon="3.27253">
        <ele>4</ele>
        <time>2023-08-06T06:18:20Z</time>
      </trkpt>
      <trkpt lat="50.43769" lon="3.27253">
        <ele>4</ele>
        <time>2023-08-06T06:18:21Z</time>
      </trkpt>
      <trkpt lat="50.43767" lon="3.27255">
        <ele>4</ele>
        <time>2023-08-06T06:18:22Z</time>
      </trkpt>
      <trkpt lat="50.43764" lon="3.2726">
        <ele>4</ele>
        <time>2023-08-06T06:18:24Z</time>
      </trkpt>
      <trkpt lat="50.43764" lon="3.27265">
        <ele>4</ele>
        <time>2023-08-06T06:18:25Z</time>
      </trkpt>
      <trkpt lat="50.43763" lon="3.27269">
        <ele>4</ele>
        <time>2023-08-06T06:18:26Z</time>
      </trkpt>
      <trkpt lat="50.43763" lon="3.27279">
        <ele>4</ele>
        <time>2023-08-06T06:18:28Z</time>
      </trkpt>
      <trkpt lat="50.43763" lon="3.27285">
        <ele>4</ele>
        <time>2023-08-06T06:18:29Z</time>
      </trkpt>
      <trkpt lat="50.43763" lon="3.27302">
        <ele>4</ele>
        <time>2023-08-06T06:18:32Z</time>
      </trkpt>
      <trkpt lat="50.43763" lon="3.27328">
        <ele>4.2</ele>
        <time>2023-08-06T06:18:36Z</time>
      </trkpt>
      <trkpt lat="50.43762" lon="3.27377">
        <ele>4</ele>
        <time>2023-08-06T06:18:43Z</time>
      </trkpt>
      <trkpt lat="50.43759" lon="3.27435">
        <ele>3.8</ele>
        <time>2023-08-06T06:18:51Z</time>
      </trkpt>
      <trkpt lat="50.43758" lon="3.27467">
        <ele>3.8</ele>
        <time>2023-08-06T06:18:55Z</time>
      </trkpt>
      <trkpt lat="50.43758" lon="3.27489">
        <ele>3.8</ele>
        <time>2023-08-06T06:18:58Z</time>
      </trkpt>
      <trkpt lat="50.43756" lon="3.27546">
        <ele>3.8</ele>
        <time>2023-08-06T06:19:05Z</time>
      </trkpt>
      <trkpt lat="50.43756" lon="3.27554">
        <ele>3.8</ele>
        <time>2023-08-06T06:19:06Z</time>
      </trkpt>
      <trkpt lat="50.43755" lon="3.27572">
        <ele>3.8</ele>
        <time>2023-08-06T06:19:08Z</time>
      </trkpt>
      <trkpt lat="50.43754" lon="3.27605">
        <ele>3.6</ele>
        <time>2023-08-06T06:19:12Z</time>
      </trkpt>
      <trkpt lat="50.43754" lon="3.27622">
        <ele>3.4</ele>
        <time>2023-08-06T06:19:14Z</time>
      </trkpt>
      <trkpt lat="50.43753" lon="3.27646">
        <ele>3.2</ele>
        <time>2023-08-06T06:19:17Z</time>
      </trkpt>
      <trkpt lat="50.43752" lon="3.27679">
        <ele>3</ele>
        <time>2023-08-06T06:19:21Z</time>
      </trkpt>
      <trkpt lat="50.43752" lon="3.27687">
        <ele>3</ele>
        <time>2023-08-06T06:19:22Z</time>
      </trkpt>
      <trkpt lat="50.4375" lon="3.27712">
        <ele>2.8</ele>
        <time>2023-08-06T06:19:25Z</time>
      </trkpt>
      <trkpt lat="50.43749" lon="3.27728">
        <ele>2.8</ele>
        <time>2023-08-06T06:19:27Z</time>
      </trkpt>
      <trkpt lat="50.43749" lon="3.27746">
        <ele>3</ele>
        <time>2023-08-06T06:19:29Z</time>
      </trkpt>
      <trkpt lat="50.43748" lon="3.27771">
        <ele>3</ele>
        <time>2023-08-06T06:19:32Z</time>
      </trkpt>
      <trkpt lat="50.43748" lon="3.27779">
        <ele>3</ele>
        <time>2023-08-06T06:19:33Z</time>
      </trkpt>
      <trkpt lat="50.43747" lon="3.27788">
        <ele>3</ele>
        <time>2023-08-06T06:19:34Z</time>
      </trkpt>
      <trkpt lat="50.43743" lon="3.2783">
        <ele>3.2</ele>
        <time>2023-08-06T06:19:39Z</time>
      </trkpt>
      <trkpt lat="50.43743" lon="3.27879">
        <ele>3.4</ele>
        <time>2023-08-06T06:19:45Z</time>
      </trkpt>
      <trkpt lat="50.43742" lon="3.27895">
        <ele>3.4</ele>
        <time>2023-08-06T06:19:47Z</time>
      </trkpt>
      <trkpt lat="50.43742" lon="3.27904">
        <ele>3.4</ele>
        <time>2023-08-06T06:19:48Z</time>
      </trkpt>
      <trkpt lat="50.43742" lon="3.27928">
        <ele>3.4</ele>
        <time>2023-08-06T06:19:51Z</time>
      </trkpt>
      <trkpt lat="50.43742" lon="3.27936">
        <ele>3.2</ele>
        <time>2023-08-06T06:19:52Z</time>
      </trkpt>
      <trkpt lat="50.43742" lon="3.27968">
        <ele>2.8</ele>
        <time>2023-08-06T06:19:56Z</time>
      </trkpt>
      <trkpt lat="50.43742" lon="3.27975">
        <ele>2.8</ele>
        <time>2023-08-06T06:19:57Z</time>
      </trkpt>
      <trkpt lat="50.43742" lon="3.27984">
        <ele>2.8</ele>
        <time>2023-08-06T06:19:58Z</time>
      </trkpt>
      <trkpt lat="50.43739" lon="3.28011">
        <ele>2.8</ele>
        <time>2023-08-06T06:20:01Z</time>
      </trkpt>
      <trkpt lat="50.43739" lon="3.28028">
        <ele>2.8</ele>
        <time>2023-08-06T06:20:03Z</time>
      </trkpt>
      <trkpt lat="50.43738" lon="3.28036">
        <ele>2.8</ele>
        <time>2023-08-06T06:20:04Z</time>
      </trkpt>
      <trkpt lat="50.43733" lon="3.28108">
        <ele>2.8</ele>
        <time>2023-08-06T06:20:12Z</time>
      </trkpt>
      <trkpt lat="50.43733" lon="3.28117">
        <ele>2.8</ele>
        <time>2023-08-06T06:20:13Z</time>
      </trkpt>
      <trkpt lat="50.43731" lon="3.28152">
        <ele>2.8</ele>
        <time>2023-08-06T06:20:17Z</time>
      </trkpt>
      <trkpt lat="50.43731" lon="3.28162">
        <ele>2.8</ele>
        <time>2023-08-06T06:20:18Z</time>
      </trkpt>
      <trkpt lat="50.4373" lon="3.28204">
        <ele>2.8</ele>
        <time>2023-08-06T06:20:23Z</time>
      </trkpt>
      <trkpt lat="50.43728" lon="3.28246">
        <ele>2.8</ele>
        <time>2023-08-06T06:20:28Z</time>
      </trkpt>
      <trkpt lat="50.43727" lon="3.28253">
        <ele>2.8</ele>
        <time>2023-08-06T06:20:29Z</time>
      </trkpt>
      <trkpt lat="50.43727" lon="3.28261">
        <ele>2.8</ele>
        <time>2023-08-06T06:20:30Z</time>
      </trkpt>
      <trkpt lat="50.43726" lon="3.2827">
        <ele>2.8</ele>
        <time>2023-08-06T06:20:31Z</time>
      </trkpt>
      <trkpt lat="50.43725" lon="3.28311">
        <ele>2.8</ele>
        <time>2023-08-06T06:20:36Z</time>
      </trkpt>
      <trkpt lat="50.43725" lon="3.28328">
        <ele>2.8</ele>
        <time>2023-08-06T06:20:38Z</time>
      </trkpt>
      <trkpt lat="50.43725" lon="3.28336">
        <ele>2.8</ele>
        <time>2023-08-06T06:20:39Z</time>
      </trkpt>
      <trkpt lat="50.43724" lon="3.28345">
        <ele>3</ele>
        <time>2023-08-06T06:20:40Z</time>
      </trkpt>
      <trkpt lat="50.43723" lon="3.28376">
        <ele>3</ele>
        <time>2023-08-06T06:20:44Z</time>
      </trkpt>
      <trkpt lat="50.43723" lon="3.28384">
        <ele>3</ele>
        <time>2023-08-06T06:20:45Z</time>
      </trkpt>
      <trkpt lat="50.43722" lon="3.28391">
        <ele>3</ele>
        <time>2023-08-06T06:20:46Z</time>
      </trkpt>
      <trkpt lat="50.43722" lon="3.28399">
        <ele>3</ele>
        <time>2023-08-06T06:20:47Z</time>
      </trkpt>
      <trkpt lat="50.43722" lon="3.28407">
        <ele>3</ele>
        <time>2023-08-06T06:20:48Z</time>
      </trkpt>
      <trkpt lat="50.43721" lon="3.28424">
        <ele>3.2</ele>
        <time>2023-08-06T06:20:50Z</time>
      </trkpt>
      <trkpt lat="50.43721" lon="3.28432">
        <ele>3.2</ele>
        <time>2023-08-06T06:20:51Z</time>
      </trkpt>
      <trkpt lat="50.43721" lon="3.28448">
        <ele>3.2</ele>
        <time>2023-08-06T06:20:53Z</time>
      </trkpt>
      <trkpt lat="50.4372" lon="3.28463">
        <ele>3.4</ele>
        <time>2023-08-06T06:20:55Z</time>
      </trkpt>
      <trkpt lat="50.43719" lon="3.28486">
        <ele>3.4</ele>
        <time>2023-08-06T06:20:58Z</time>
      </trkpt>
      <trkpt lat="50.43719" lon="3.2851">
        <ele>3.6</ele>
        <time>2023-08-06T06:21:01Z</time>
      </trkpt>
      <trkpt lat="50.43719" lon="3.28517">
        <ele>3.6</ele>
        <time>2023-08-06T06:21:02Z</time>
      </trkpt>
      <trkpt lat="50.43719" lon="3.28526">
        <ele>3.6</ele>
        <time>2023-08-06T06:21:03Z</time>
      </trkpt>
      <trkpt lat="50.43718" lon="3.28533">
        <ele>3.6</ele>
        <time>2023-08-06T06:21:04Z</time>
      </trkpt>
      <trkpt lat="50.43718" lon="3.28542">
        <ele>3.6</ele>
        <time>2023-08-06T06:21:05Z</time>
      </trkpt>
      <trkpt lat="50.43713" lon="3.28602">
        <ele>3.6</ele>
        <time>2023-08-06T06:21:12Z</time>
      </trkpt>
      <trkpt lat="50.43708" lon="3.28691">
        <ele>3.2</ele>
        <time>2023-08-06T06:21:22Z</time>
      </trkpt>
      <trkpt lat="50.43706" lon="3.28762">
        <ele>3.4</ele>
        <time>2023-08-06T06:21:30Z</time>
      </trkpt>
      <trkpt lat="50.43705" lon="3.2878">
        <ele>3.6</ele>
        <time>2023-08-06T06:21:32Z</time>
      </trkpt>
      <trkpt lat="50.43702" lon="3.28838">
        <ele>3.6</ele>
        <time>2023-08-06T06:21:39Z</time>
      </trkpt>
      <trkpt lat="50.43699" lon="3.28926">
        <ele>3.8</ele>
        <time>2023-08-06T06:21:49Z</time>
      </trkpt>
      <trkpt lat="50.43695" lon="3.29018">
        <ele>3.6</ele>
        <time>2023-08-06T06:22:00Z</time>
      </trkpt>
      <trkpt lat="50.43694" lon="3.29027">
        <ele>3.8</ele>
        <time>2023-08-06T06:22:01Z</time>
      </trkpt>
      <trkpt lat="50.43693" lon="3.29061">
        <ele>3.8</ele>
        <time>2023-08-06T06:22:05Z</time>
      </trkpt>
      <trkpt lat="50.43691" lon="3.2911">
        <ele>4</ele>
        <time>2023-08-06T06:22:11Z</time>
      </trkpt>
      <trkpt lat="50.43691" lon="3.29119">
        <ele>4</ele>
        <time>2023-08-06T06:22:12Z</time>
      </trkpt>
      <trkpt lat="50.43691" lon="3.29127">
        <ele>4</ele>
        <time>2023-08-06T06:22:13Z</time>
      </trkpt>
      <trkpt lat="50.43691" lon="3.29135">
        <ele>4</ele>
        <time>2023-08-06T06:22:14Z</time>
      </trkpt>
      <trkpt lat="50.43691" lon="3.29143">
        <ele>4</ele>
        <time>2023-08-06T06:22:15Z</time>
      </trkpt>
      <trkpt lat="50.4369" lon="3.29151">
        <ele>4</ele>
        <time>2023-08-06T06:22:16Z</time>
      </trkpt>
      <trkpt lat="50.43689" lon="3.29159">
        <ele>4.2</ele>
        <time>2023-08-06T06:22:17Z</time>
      </trkpt>
      <trkpt lat="50.43689" lon="3.29167">
        <ele>4.2</ele>
        <time>2023-08-06T06:22:18Z</time>
      </trkpt>
      <trkpt lat="50.43686" lon="3.29242">
        <ele>4.6</ele>
        <time>2023-08-06T06:22:27Z</time>
      </trkpt>
      <trkpt lat="50.43683" lon="3.29298">
        <ele>4.6</ele>
        <time>2023-08-06T06:22:34Z</time>
      </trkpt>
      <trkpt lat="50.43683" lon="3.29306">
        <ele>4.8</ele>
        <time>2023-08-06T06:22:35Z</time>
      </trkpt>
      <trkpt lat="50.43682" lon="3.29314">
        <ele>4.8</ele>
        <time>2023-08-06T06:22:36Z</time>
      </trkpt>
      <trkpt lat="50.43682" lon="3.29321">
        <ele>4.8</ele>
        <time>2023-08-06T06:22:37Z</time>
      </trkpt>
      <trkpt lat="50.43682" lon="3.29329">
        <ele>4.8</ele>
        <time>2023-08-06T06:22:38Z</time>
      </trkpt>
      <trkpt lat="50.43682" lon="3.29337">
        <ele>4.8</ele>
        <time>2023-08-06T06:22:39Z</time>
      </trkpt>
      <trkpt lat="50.43681" lon="3.29344">
        <ele>4.8</ele>
        <time>2023-08-06T06:22:40Z</time>
      </trkpt>
      <trkpt lat="50.43681" lon="3.29351">
        <ele>4.8</ele>
        <time>2023-08-06T06:22:41Z</time>
      </trkpt>
      <trkpt lat="50.4368" lon="3.29359">
        <ele>4.8</ele>
        <time>2023-08-06T06:22:42Z</time>
      </trkpt>
      <trkpt lat="50.4368" lon="3.29366">
        <ele>4.8</ele>
        <time>2023-08-06T06:22:43Z</time>
      </trkpt>
      <trkpt lat="50.43679" lon="3.29374">
        <ele>4.8</ele>
        <time>2023-08-06T06:22:44Z</time>
      </trkpt>
      <trkpt lat="50.43679" lon="3.29421">
        <ele>4.6</ele>
        <time>2023-08-06T06:22:50Z</time>
      </trkpt>
      <trkpt lat="50.4368" lon="3.29428">
        <ele>4.6</ele>
        <time>2023-08-06T06:22:51Z</time>
      </trkpt>
      <trkpt lat="50.43684" lon="3.29446">
        <ele>4.6</ele>
        <time>2023-08-06T06:22:54Z</time>
      </trkpt>
      <trkpt lat="50.43685" lon="3.29452">
        <ele>4.6</ele>
        <time>2023-08-06T06:22:55Z</time>
      </trkpt>
      <trkpt lat="50.43686" lon="3.29458">
        <ele>4.6</ele>
        <time>2023-08-06T06:22:56Z</time>
      </trkpt>
      <trkpt lat="50.43687" lon="3.29464">
        <ele>4.6</ele>
        <time>2023-08-06T06:22:57Z</time>
      </trkpt>
      <trkpt lat="50.43687" lon="3.29467">
        <ele>4.6</ele>
        <time>2023-08-06T06:22:58Z</time>
      </trkpt>
      <trkpt lat="50.43687" lon="3.29471">
        <ele>4.6</ele>
        <time>2023-08-06T06:22:59Z</time>
      </trkpt>
      <trkpt lat="50.43686" lon="3.29474">
        <ele>4.6</ele>
        <time>2023-08-06T06:23:00Z</time>
      </trkpt>
      <trkpt lat="50.43684" lon="3.29476">
        <ele>4.4</ele>
        <time>2023-08-06T06:23:01Z</time>
      </trkpt>
      <trkpt lat="50.43683" lon="3.29478">
        <ele>4.4</ele>
        <time>2023-08-06T06:23:02Z</time>
      </trkpt>
      <trkpt lat="50.43681" lon="3.29478">
        <ele>4.4</ele>
        <time>2023-08-06T06:23:03Z</time>
      </trkpt>
      <trkpt lat="50.4368" lon="3.29478">
        <ele>4.4</ele>
        <time>2023-08-06T06:23:04Z</time>
      </trkpt>
      <trkpt lat="50.4368" lon="3.29479">
        <ele>4.2</ele>
        <time>2023-08-06T06:23:05Z</time>
      </trkpt>
      <trkpt lat="50.4368" lon="3.29479">
        <ele>4.2</ele>
        <time>2023-08-06T06:23:06Z</time>
      </trkpt>
      <trkpt lat="50.4368" lon="3.29478">
        <ele>4.2</ele>
        <time>2023-08-06T06:23:07Z</time>
      </trkpt>
      <trkpt lat="50.43681" lon="3.29479">
        <ele>0.80000000000001</ele>
        <time>2023-08-06T06:40:59Z</time>
      </trkpt>
      <trkpt lat="50.43685" lon="3.29476">
        <ele>0.80000000000001</ele>
        <time>2023-08-06T06:41:01Z</time>
      </trkpt>
      <trkpt lat="50.43687" lon="3.29474">
        <ele>0.60000000000002</ele>
        <time>2023-08-06T06:41:02Z</time>
      </trkpt>
      <trkpt lat="50.43688" lon="3.29472">
        <ele>0.60000000000002</ele>
        <time>2023-08-06T06:41:03Z</time>
      </trkpt>
      <trkpt lat="50.4369" lon="3.29472">
        <ele>0.60000000000002</ele>
        <time>2023-08-06T06:41:04Z</time>
      </trkpt>
      <trkpt lat="50.43692" lon="3.29473">
        <ele>0.60000000000002</ele>
        <time>2023-08-06T06:41:05Z</time>
      </trkpt>
      <trkpt lat="50.43697" lon="3.29479">
        <ele>0.60000000000002</ele>
        <time>2023-08-06T06:41:09Z</time>
      </trkpt>
      <trkpt lat="50.43697" lon="3.29481">
        <ele>0.60000000000002</ele>
        <time>2023-08-06T06:41:10Z</time>
      </trkpt>
      <trkpt lat="50.43696" lon="3.29482">
        <ele>0.60000000000002</ele>
        <time>2023-08-06T06:41:11Z</time>
      </trkpt>
      <trkpt lat="50.43694" lon="3.2948">
        <ele>0.60000000000002</ele>
        <time>2023-08-06T06:41:13Z</time>
      </trkpt>
      <trkpt lat="50.43693" lon="3.29478">
        <ele>0.60000000000002</ele>
        <time>2023-08-06T06:41:14Z</time>
      </trkpt>
      <trkpt lat="50.43693" lon="3.29475">
        <ele>0.60000000000002</ele>
        <time>2023-08-06T06:41:15Z</time>
      </trkpt>
      <trkpt lat="50.43693" lon="3.29472">
        <ele>0.60000000000002</ele>
        <time>2023-08-06T06:41:16Z</time>
      </trkpt>
      <trkpt lat="50.43693" lon="3.29469">
        <ele>0.80000000000001</ele>
        <time>2023-08-06T06:41:17Z</time>
      </trkpt>
      <trkpt lat="50.43691" lon="3.29464">
        <ele>0.80000000000001</ele>
        <time>2023-08-06T06:41:19Z</time>
      </trkpt>
      <trkpt lat="50.43689" lon="3.29462">
        <ele>0.80000000000001</ele>
        <time>2023-08-06T06:41:20Z</time>
      </trkpt>
      <trkpt lat="50.43687" lon="3.29463">
        <ele>0.80000000000001</ele>
        <time>2023-08-06T06:41:21Z</time>
      </trkpt>
      <trkpt lat="50.43687" lon="3.29466">
        <ele>0.80000000000001</ele>
        <time>2023-08-06T06:41:22Z</time>
      </trkpt>
      <trkpt lat="50.4369" lon="3.29477">
        <ele>0.80000000000001</ele>
        <time>2023-08-06T06:41:26Z</time>
      </trkpt>
      <trkpt lat="50.43692" lon="3.29479">
        <ele>0.80000000000001</ele>
        <time>2023-08-06T06:41:27Z</time>
      </trkpt>
      <trkpt lat="50.43696" lon="3.29482">
        <ele>0.80000000000001</ele>
        <time>2023-08-06T06:41:29Z</time>
      </trkpt>
      <trkpt lat="50.43698" lon="3.29483">
        <ele>0.80000000000001</ele>
        <time>2023-08-06T06:41:30Z</time>
      </trkpt>
      <trkpt lat="50.437" lon="3.29483">
        <ele>0.80000000000001</ele>
        <time>2023-08-06T06:41:31Z</time>
      </trkpt>
      <trkpt lat="50.43702" lon="3.29483">
        <ele>0.80000000000001</ele>
        <time>2023-08-06T06:41:32Z</time>
      </trkpt>
      <trkpt lat="50.43704" lon="3.29482">
        <ele>0.80000000000001</ele>
        <time>2023-08-06T06:41:33Z</time>
      </trkpt>
      <trkpt lat="50.43706" lon="3.29482">
        <ele>0.80000000000001</ele>
        <time>2023-08-06T06:41:34Z</time>
      </trkpt>
      <trkpt lat="50.43708" lon="3.29482">
        <ele>0.80000000000001</ele>
        <time>2023-08-06T06:41:35Z</time>
      </trkpt>
      <trkpt lat="50.43734" lon="3.2948">
        <ele>1</ele>
        <time>2023-08-06T06:41:43Z</time>
      </trkpt>
      <trkpt lat="50.43745" lon="3.29478">
        <ele>1</ele>
        <time>2023-08-06T06:41:46Z</time>
      </trkpt>
      <trkpt lat="50.43748" lon="3.29477">
        <ele>1</ele>
        <time>2023-08-06T06:41:47Z</time>
      </trkpt>
      <trkpt lat="50.43748" lon="3.29477">
        <ele>1</ele>
        <time>2023-08-06T06:41:48Z</time>
      </trkpt>
      <trkpt lat="50.43756" lon="3.29475">
        <ele>1</ele>
        <time>2023-08-06T06:41:49Z</time>
      </trkpt>
      <trkpt lat="50.43776" lon="3.29473">
        <ele>1</ele>
        <time>2023-08-06T06:41:54Z</time>
      </trkpt>
      <trkpt lat="50.4378" lon="3.29473">
        <ele>1</ele>
        <time>2023-08-06T06:41:55Z</time>
      </trkpt>
      <trkpt lat="50.43784" lon="3.29473">
        <ele>1</ele>
        <time>2023-08-06T06:41:56Z</time>
      </trkpt>
      <trkpt lat="50.43788" lon="3.29472">
        <ele>1</ele>
        <time>2023-08-06T06:41:57Z</time>
      </trkpt>
      <trkpt lat="50.43792" lon="3.29471">
        <ele>1</ele>
        <time>2023-08-06T06:41:58Z</time>
      </trkpt>
      <trkpt lat="50.43821" lon="3.2947">
        <ele>0.80000000000001</ele>
        <time>2023-08-06T06:42:04Z</time>
      </trkpt>
      <trkpt lat="50.43846" lon="3.29467">
        <ele>0.80000000000001</ele>
        <time>2023-08-06T06:42:10Z</time>
      </trkpt>
      <trkpt lat="50.43855" lon="3.29471">
        <ele>0.80000000000001</ele>
        <time>2023-08-06T06:42:12Z</time>
      </trkpt>
      <trkpt lat="50.43857" lon="3.29472">
        <ele>0.80000000000001</ele>
        <time>2023-08-06T06:42:13Z</time>
      </trkpt>
      <trkpt lat="50.43865" lon="3.29475">
        <ele>0.60000000000002</ele>
        <time>2023-08-06T06:42:15Z</time>
      </trkpt>
      <trkpt lat="50.43867" lon="3.29475">
        <ele>0.60000000000002</ele>
        <time>2023-08-06T06:42:16Z</time>
      </trkpt>
      <trkpt lat="50.43869" lon="3.29474">
        <ele>0.39999999999998</ele>
        <time>2023-08-06T06:42:17Z</time>
      </trkpt>
      <trkpt lat="50.43869" lon="3.29473">
        <ele>0.39999999999998</ele>
        <time>2023-08-06T06:42:18Z</time>
      </trkpt>
      <trkpt lat="50.43867" lon="3.29472">
        <ele>0.39999999999998</ele>
        <time>2023-08-06T06:42:19Z</time>
      </trkpt>
      <trkpt lat="50.43865" lon="3.29471">
        <ele>0.39999999999998</ele>
        <time>2023-08-06T06:42:20Z</time>
      </trkpt>
      <trkpt lat="50.43854" lon="3.29469">
        <ele>0.80000000000001</ele>
        <time>2023-08-06T06:42:24Z</time>
      </trkpt>
      <trkpt lat="50.4384" lon="3.29468">
        <ele>0.60000000000002</ele>
        <time>2023-08-06T06:42:29Z</time>
      </trkpt>
      <trkpt lat="50.43839" lon="3.29469">
        <ele>0.60000000000002</ele>
        <time>2023-08-06T06:42:30Z</time>
      </trkpt>
      <trkpt lat="50.43839" lon="3.29472">
        <ele>0.39999999999998</ele>
        <time>2023-08-06T06:42:31Z</time>
      </trkpt>
      <trkpt lat="50.43839" lon="3.29474">
        <ele>0.39999999999998</ele>
        <time>2023-08-06T06:42:32Z</time>
      </trkpt>
      <trkpt lat="50.43839" lon="3.29475">
        <ele>0.39999999999998</ele>
        <time>2023-08-06T06:42:33Z</time>
      </trkpt>
      <trkpt lat="50.4384" lon="3.29475">
        <ele>0.19999999999999</ele>
        <time>2023-08-06T06:42:34Z</time>
      </trkpt>
      <trkpt lat="50.4384" lon="3.29477">
        <ele>0.19999999999999</ele>
        <time>2023-08-06T06:42:35Z</time>
      </trkpt>
      <trkpt lat="50.43842" lon="3.29484">
        <ele>0.19999999999999</ele>
        <time>2023-08-06T06:42:38Z</time>
      </trkpt>
      <trkpt lat="50.43842" lon="3.29487">
        <ele>0.19999999999999</ele>
        <time>2023-08-06T06:42:39Z</time>
      </trkpt>
      <trkpt lat="50.43842" lon="3.29491">
        <ele>-0.19999999999999</ele>
        <time>2023-08-06T06:42:40Z</time>
      </trkpt>
      <trkpt lat="50.43846" lon="3.29506">
        <ele>-0.39999999999998</ele>
        <time>2023-08-06T06:42:44Z</time>
      </trkpt>
      <trkpt lat="50.43847" lon="3.29517">
        <ele>-0.60000000000002</ele>
        <time>2023-08-06T06:42:47Z</time>
      </trkpt>
      <trkpt lat="50.43851" lon="3.29542">
        <ele>-0.60000000000002</ele>
        <time>2023-08-06T06:42:53Z</time>
      </trkpt>
      <trkpt lat="50.43857" lon="3.29575">
        <ele>-0.39999999999998</ele>
        <time>2023-08-06T06:43:00Z</time>
      </trkpt>
      <trkpt lat="50.43861" lon="3.29599">
        <ele>-0.19999999999999</ele>
        <time>2023-08-06T06:43:05Z</time>
      </trkpt>
      <trkpt lat="50.43861" lon="3.29602">
        <ele>-0.19999999999999</ele>
        <time>2023-08-06T06:43:06Z</time>
      </trkpt>
      <trkpt lat="50.43861" lon="3.29606">
        <ele>-0.19999999999999</ele>
        <time>2023-08-06T06:43:07Z</time>
      </trkpt>
      <trkpt lat="50.4386" lon="3.29611">
        <ele>-0.19999999999999</ele>
        <time>2023-08-06T06:43:08Z</time>
      </trkpt>
      <trkpt lat="50.4386" lon="3.29616">
        <ele>-0.19999999999999</ele>
        <time>2023-08-06T06:43:09Z</time>
      </trkpt>
      <trkpt lat="50.4386" lon="3.29622">
        <ele>-0.19999999999999</ele>
        <time>2023-08-06T06:43:10Z</time>
      </trkpt>
      <trkpt lat="50.4386" lon="3.29658">
        <ele>0.19999999999999</ele>
        <time>2023-08-06T06:43:15Z</time>
      </trkpt>
      <trkpt lat="50.4386" lon="3.29663">
        <ele>0.19999999999999</ele>
        <time>2023-08-06T06:43:16Z</time>
      </trkpt>
      <trkpt lat="50.4386" lon="3.29669">
        <ele>0.19999999999999</ele>
        <time>2023-08-06T06:43:17Z</time>
      </trkpt>
      <trkpt lat="50.4386" lon="3.29675">
        <ele>0.19999999999999</ele>
        <time>2023-08-06T06:43:18Z</time>
      </trkpt>
      <trkpt lat="50.43858" lon="3.29695">
        <ele>-0.19999999999999</ele>
        <time>2023-08-06T06:43:21Z</time>
      </trkpt>
      <trkpt lat="50.43859" lon="3.29709">
        <ele>-0.39999999999998</ele>
        <time>2023-08-06T06:43:24Z</time>
      </trkpt>
      <trkpt lat="50.43857" lon="3.29714">
        <ele>-0.39999999999998</ele>
        <time>2023-08-06T06:43:25Z</time>
      </trkpt>
      <trkpt lat="50.43857" lon="3.29714">
        <ele>-0.39999999999998</ele>
        <time>2023-08-06T06:43:26Z</time>
      </trkpt>
      <trkpt lat="50.43854" lon="3.29722">
        <ele>-0.39999999999998</ele>
        <time>2023-08-06T06:43:27Z</time>
      </trkpt>
      <trkpt lat="50.43855" lon="3.29727">
        <ele>-0.39999999999998</ele>
        <time>2023-08-06T06:43:28Z</time>
      </trkpt>
      <trkpt lat="50.43855" lon="3.29732">
        <ele>-0.60000000000002</ele>
        <time>2023-08-06T06:43:29Z</time>
      </trkpt>
      <trkpt lat="50.43854" lon="3.29736">
        <ele>-0.60000000000002</ele>
        <time>2023-08-06T06:43:30Z</time>
      </trkpt>
      <trkpt lat="50.43853" lon="3.29742">
        <ele>-0.60000000000002</ele>
        <time>2023-08-06T06:43:31Z</time>
      </trkpt>
      <trkpt lat="50.43853" lon="3.29747">
        <ele>-0.60000000000002</ele>
        <time>2023-08-06T06:43:32Z</time>
      </trkpt>
      <trkpt lat="50.43852" lon="3.29752">
        <ele>-0.60000000000002</ele>
        <time>2023-08-06T06:43:33Z</time>
      </trkpt>
      <trkpt lat="50.43853" lon="3.29756">
        <ele>-0.60000000000002</ele>
        <time>2023-08-06T06:43:34Z</time>
      </trkpt>
      <trkpt lat="50.43854" lon="3.29761">
        <ele>-0.60000000000002</ele>
        <time>2023-08-06T06:43:35Z</time>
      </trkpt>
      <trkpt lat="50.43852" lon="3.29779">
        <ele>-0.60000000000002</ele>
        <time>2023-08-06T06:43:38Z</time>
      </trkpt>
      <trkpt lat="50.43851" lon="3.29785">
        <ele>-0.60000000000002</ele>
        <time>2023-08-06T06:43:39Z</time>
      </trkpt>
      <trkpt lat="50.43851" lon="3.2979">
        <ele>-0.39999999999998</ele>
        <time>2023-08-06T06:43:40Z</time>
      </trkpt>
      <trkpt lat="50.43852" lon="3.29793">
        <ele>-0.39999999999998</ele>
        <time>2023-08-06T06:43:41Z</time>
      </trkpt>
      <trkpt lat="50.43851" lon="3.2982">
        <ele>-0.19999999999999</ele>
        <time>2023-08-06T06:43:47Z</time>
      </trkpt>
      <trkpt lat="50.43852" lon="3.29824">
        <ele>-0.19999999999999</ele>
        <time>2023-08-06T06:43:48Z</time>
      </trkpt>
      <trkpt lat="50.4385" lon="3.2984">
        <ele>-0.19999999999999</ele>
        <time>2023-08-06T06:43:51Z</time>
      </trkpt>
      <trkpt lat="50.4385" lon="3.29845">
        <ele>-0.19999999999999</ele>
        <time>2023-08-06T06:43:52Z</time>
      </trkpt>
      <trkpt lat="50.43851" lon="3.2985">
        <ele>-0.19999999999999</ele>
        <time>2023-08-06T06:43:53Z</time>
      </trkpt>
      <trkpt lat="50.43852" lon="3.29856">
        <ele>-0.19999999999999</ele>
        <time>2023-08-06T06:43:54Z</time>
      </trkpt>
      <trkpt lat="50.4385" lon="3.29863">
        <ele>-0.19999999999999</ele>
        <time>2023-08-06T06:43:55Z</time>
      </trkpt>
      <trkpt lat="50.43849" lon="3.29867">
        <ele>-0.19999999999999</ele>
        <time>2023-08-06T06:43:56Z</time>
      </trkpt>
      <trkpt lat="50.43849" lon="3.29874">
        <ele>-0.19999999999999</ele>
        <time>2023-08-06T06:43:58Z</time>
      </trkpt>
      <trkpt lat="50.4385" lon="3.29877">
        <ele>-0.19999999999999</ele>
        <time>2023-08-06T06:43:59Z</time>
      </trkpt>
      <trkpt lat="50.43849" lon="3.29883">
        <ele>-0.19999999999999</ele>
        <time>2023-08-06T06:44:00Z</time>
      </trkpt>
      <trkpt lat="50.43848" lon="3.29888">
        <ele>-0.19999999999999</ele>
        <time>2023-08-06T06:44:01Z</time>
      </trkpt>
      <trkpt lat="50.43853" lon="3.29902">
        <ele>-0.19999999999999</ele>
        <time>2023-08-06T06:44:04Z</time>
      </trkpt>
      <trkpt lat="50.43853" lon="3.29908">
        <ele>-0.19999999999999</ele>
        <time>2023-08-06T06:44:05Z</time>
      </trkpt>
      <trkpt lat="50.43853" lon="3.29918">
        <ele>0.19999999999999</ele>
        <time>2023-08-06T06:44:08Z</time>
      </trkpt>
      <trkpt lat="50.43854" lon="3.29927">
        <ele>0.19999999999999</ele>
        <time>2023-08-06T06:44:09Z</time>
      </trkpt>
      <trkpt lat="50.43855" lon="3.29946">
        <ele>0.19999999999999</ele>
        <time>2023-08-06T06:44:14Z</time>
      </trkpt>
      <trkpt lat="50.43856" lon="3.29951">
        <ele>0.19999999999999</ele>
        <time>2023-08-06T06:44:15Z</time>
      </trkpt>
      <trkpt lat="50.43856" lon="3.29956">
        <ele>0.19999999999999</ele>
        <time>2023-08-06T06:44:16Z</time>
      </trkpt>
      <trkpt lat="50.43858" lon="3.29972">
        <ele>0.19999999999999</ele>
        <time>2023-08-06T06:44:19Z</time>
      </trkpt>
      <trkpt lat="50.4386" lon="3.29985">
        <ele>0.19999999999999</ele>
        <time>2023-08-06T06:44:21Z</time>
      </trkpt>
      <trkpt lat="50.43862" lon="3.30007">
        <ele>0.39999999999998</ele>
        <time>2023-08-06T06:44:25Z</time>
      </trkpt>
      <trkpt lat="50.43864" lon="3.30012">
        <ele>0.39999999999998</ele>
        <time>2023-08-06T06:44:26Z</time>
      </trkpt>
      <trkpt lat="50.43865" lon="3.30018">
        <ele>0.39999999999998</ele>
        <time>2023-08-06T06:44:27Z</time>
      </trkpt>
      <trkpt lat="50.43867" lon="3.30023">
        <ele>0.39999999999998</ele>
        <time>2023-08-06T06:44:28Z</time>
      </trkpt>
      <trkpt lat="50.43872" lon="3.30056">
        <ele>0.19999999999999</ele>
        <time>2023-08-06T06:44:34Z</time>
      </trkpt>
      <trkpt lat="50.43872" lon="3.30078">
        <ele>-0.19999999999999</ele>
        <time>2023-08-06T06:44:38Z</time>
      </trkpt>
      <trkpt lat="50.43874" lon="3.30087">
        <ele>-0.39999999999998</ele>
        <time>2023-08-06T06:44:40Z</time>
      </trkpt>
      <trkpt lat="50.43874" lon="3.30092">
        <ele>-0.39999999999998</ele>
        <time>2023-08-06T06:44:41Z</time>
      </trkpt>
      <trkpt lat="50.43875" lon="3.301">
        <ele>-0.19999999999999</ele>
        <time>2023-08-06T06:44:43Z</time>
      </trkpt>
      <trkpt lat="50.43875" lon="3.30104">
        <ele>-0.39999999999998</ele>
        <time>2023-08-06T06:44:44Z</time>
      </trkpt>
      <trkpt lat="50.43875" lon="3.30109">
        <ele>-0.60000000000002</ele>
        <time>2023-08-06T06:44:45Z</time>
      </trkpt>
      <trkpt lat="50.43879" lon="3.30135">
        <ele>-0.60000000000002</ele>
        <time>2023-08-06T06:44:50Z</time>
      </trkpt>
      <trkpt lat="50.43879" lon="3.30135">
        <ele>-0.60000000000002</ele>
        <time>2023-08-06T06:44:51Z</time>
      </trkpt>
      <trkpt lat="50.4388" lon="3.30145">
        <ele>-0.60000000000002</ele>
        <time>2023-08-06T06:44:52Z</time>
      </trkpt>
      <trkpt lat="50.43881" lon="3.30178">
        <ele>-0.60000000000002</ele>
        <time>2023-08-06T06:44:58Z</time>
      </trkpt>
      <trkpt lat="50.43882" lon="3.30189">
        <ele>-0.60000000000002</ele>
        <time>2023-08-06T06:45:00Z</time>
      </trkpt>
      <trkpt lat="50.43883" lon="3.30202">
        <ele>-0.60000000000002</ele>
        <time>2023-08-06T06:45:03Z</time>
      </trkpt>
      <trkpt lat="50.43884" lon="3.30206">
        <ele>-0.60000000000002</ele>
        <time>2023-08-06T06:45:04Z</time>
      </trkpt>
      <trkpt lat="50.43884" lon="3.30211">
        <ele>-0.60000000000002</ele>
        <time>2023-08-06T06:45:05Z</time>
      </trkpt>
      <trkpt lat="50.43885" lon="3.30228">
        <ele>-0.60000000000002</ele>
        <time>2023-08-06T06:45:08Z</time>
      </trkpt>
      <trkpt lat="50.43887" lon="3.30276">
        <ele>-0.39999999999998</ele>
        <time>2023-08-06T06:45:16Z</time>
      </trkpt>
      <trkpt lat="50.43887" lon="3.30322">
        <ele>-0.80000000000001</ele>
        <time>2023-08-06T06:45:24Z</time>
      </trkpt>
      <trkpt lat="50.43885" lon="3.30326">
        <ele>-0.80000000000001</ele>
        <time>2023-08-06T06:45:25Z</time>
      </trkpt>
      <trkpt lat="50.43882" lon="3.30329">
        <ele>-0.80000000000001</ele>
        <time>2023-08-06T06:45:26Z</time>
      </trkpt>
      <trkpt lat="50.43879" lon="3.3033">
        <ele>-0.80000000000001</ele>
        <time>2023-08-06T06:45:27Z</time>
      </trkpt>
      <trkpt lat="50.43876" lon="3.3033">
        <ele>-0.80000000000001</ele>
        <time>2023-08-06T06:45:28Z</time>
      </trkpt>
      <trkpt lat="50.43873" lon="3.30329">
        <ele>-0.80000000000001</ele>
        <time>2023-08-06T06:45:29Z</time>
      </trkpt>
      <trkpt lat="50.4387" lon="3.30329">
        <ele>-0.80000000000001</ele>
        <time>2023-08-06T06:45:30Z</time>
      </trkpt>
      <trkpt lat="50.43867" lon="3.30328">
        <ele>-1</ele>
        <time>2023-08-06T06:45:31Z</time>
      </trkpt>
      <trkpt lat="50.43863" lon="3.30328">
        <ele>-1</ele>
        <time>2023-08-06T06:45:32Z</time>
      </trkpt>
      <trkpt lat="50.43856" lon="3.30328">
        <ele>-1</ele>
        <time>2023-08-06T06:45:34Z</time>
      </trkpt>
      <trkpt lat="50.43829" lon="3.30326">
        <ele>-0.60000000000002</ele>
        <time>2023-08-06T06:45:42Z</time>
      </trkpt>
      <trkpt lat="50.43823" lon="3.30325">
        <ele>-0.60000000000002</ele>
        <time>2023-08-06T06:45:44Z</time>
      </trkpt>
      <trkpt lat="50.43808" lon="3.30323">
        <ele>-0.39999999999998</ele>
        <time>2023-08-06T06:45:48Z</time>
      </trkpt>
      <trkpt lat="50.43777" lon="3.30319">
        <ele>-0.39999999999998</ele>
        <time>2023-08-06T06:45:56Z</time>
      </trkpt>
      <trkpt lat="50.43771" lon="3.30318">
        <ele>-0.39999999999998</ele>
        <time>2023-08-06T06:45:58Z</time>
      </trkpt>
      <trkpt lat="50.4377" lon="3.30318">
        <ele>-0.39999999999998</ele>
        <time>2023-08-06T06:45:59Z</time>
      </trkpt>
      <trkpt lat="50.43768" lon="3.3032">
        <ele>-0.39999999999998</ele>
        <time>2023-08-06T06:46:00Z</time>
      </trkpt>
      <trkpt lat="50.43767" lon="3.30322">
        <ele>-0.60000000000002</ele>
        <time>2023-08-06T06:46:01Z</time>
      </trkpt>
      <trkpt lat="50.43766" lon="3.30326">
        <ele>-0.60000000000002</ele>
        <time>2023-08-06T06:46:02Z</time>
      </trkpt>
      <trkpt lat="50.43766" lon="3.30335">
        <ele>-0.60000000000002</ele>
        <time>2023-08-06T06:46:04Z</time>
      </trkpt>
      <trkpt lat="50.43766" lon="3.30339">
        <ele>-0.60000000000002</ele>
        <time>2023-08-06T06:46:05Z</time>
      </trkpt>
      <trkpt lat="50.43766" lon="3.30343">
        <ele>-0.60000000000002</ele>
        <time>2023-08-06T06:46:06Z</time>
      </trkpt>
      <trkpt lat="50.43766" lon="3.30366">
        <ele>-1</ele>
        <time>2023-08-06T06:46:11Z</time>
      </trkpt>
      <trkpt lat="50.43766" lon="3.30387">
        <ele>-0.80000000000001</ele>
        <time>2023-08-06T06:46:16Z</time>
      </trkpt>
      <trkpt lat="50.43767" lon="3.30391">
        <ele>-0.80000000000001</ele>
        <time>2023-08-06T06:46:17Z</time>
      </trkpt>
      <trkpt lat="50.43768" lon="3.30395">
        <ele>-0.80000000000001</ele>
        <time>2023-08-06T06:46:18Z</time>
      </trkpt>
      <trkpt lat="50.43769" lon="3.30413">
        <ele>-0.80000000000001</ele>
        <time>2023-08-06T06:46:22Z</time>
      </trkpt>
      <trkpt lat="50.43772" lon="3.30448">
        <ele>-0.39999999999998</ele>
        <time>2023-08-06T06:46:29Z</time>
      </trkpt>
      <trkpt lat="50.43776" lon="3.30474">
        <ele>-0.39999999999998</ele>
        <time>2023-08-06T06:46:35Z</time>
      </trkpt>
      <trkpt lat="50.43776" lon="3.30481">
        <ele>-0.39999999999998</ele>
        <time>2023-08-06T06:46:37Z</time>
      </trkpt>
      <trkpt lat="50.43777" lon="3.30485">
        <ele>-0.39999999999998</ele>
        <time>2023-08-06T06:46:38Z</time>
      </trkpt>
      <trkpt lat="50.43778" lon="3.30488">
        <ele>-0.39999999999998</ele>
        <time>2023-08-06T06:46:39Z</time>
      </trkpt>
      <trkpt lat="50.43778" lon="3.30492">
        <ele>-0.39999999999998</ele>
        <time>2023-08-06T06:46:40Z</time>
      </trkpt>
      <trkpt lat="50.43778" lon="3.30495">
        <ele>-0.39999999999998</ele>
        <time>2023-08-06T06:46:41Z</time>
      </trkpt>
      <trkpt lat="50.43779" lon="3.30499">
        <ele>-0.60000000000002</ele>
        <time>2023-08-06T06:46:42Z</time>
      </trkpt>
      <trkpt lat="50.43779" lon="3.30503">
        <ele>-0.80000000000001</ele>
        <time>2023-08-06T06:46:43Z</time>
      </trkpt>
      <trkpt lat="50.43779" lon="3.30506">
        <ele>-0.80000000000001</ele>
        <time>2023-08-06T06:46:44Z</time>
      </trkpt>
      <trkpt lat="50.43779" lon="3.30509">
        <ele>-0.80000000000001</ele>
        <time>2023-08-06T06:46:45Z</time>
      </trkpt>
      <trkpt lat="50.43779" lon="3.30512">
        <ele>-0.80000000000001</ele>
        <time>2023-08-06T06:46:46Z</time>
      </trkpt>
      <trkpt lat="50.4378" lon="3.30516">
        <ele>-0.80000000000001</ele>
        <time>2023-08-06T06:46:47Z</time>
      </trkpt>
      <trkpt lat="50.43783" lon="3.30558">
        <ele>-1.4</ele>
        <time>2023-08-06T06:46:57Z</time>
      </trkpt>
      <trkpt lat="50.43783" lon="3.3056">
        <ele>-1.4</ele>
        <time>2023-08-06T06:46:58Z</time>
      </trkpt>
      <trkpt lat="50.43783" lon="3.30563">
        <ele>-1.4</ele>
        <time>2023-08-06T06:46:59Z</time>
      </trkpt>
      <trkpt lat="50.43783" lon="3.30566">
        <ele>-1.4</ele>
        <time>2023-08-06T06:47:00Z</time>
      </trkpt>
      <trkpt lat="50.43783" lon="3.30569">
        <ele>-1.6</ele>
        <time>2023-08-06T06:47:01Z</time>
      </trkpt>
      <trkpt lat="50.43784" lon="3.30576">
        <ele>-1.6</ele>
        <time>2023-08-06T06:47:03Z</time>
      </trkpt>
      <trkpt lat="50.43783" lon="3.30587">
        <ele>-1.6</ele>
        <time>2023-08-06T06:47:06Z</time>
      </trkpt>
      <trkpt lat="50.43782" lon="3.3059">
        <ele>-1.6</ele>
        <time>2023-08-06T06:47:07Z</time>
      </trkpt>
      <trkpt lat="50.43779" lon="3.30591">
        <ele>-1.6</ele>
        <time>2023-08-06T06:47:08Z</time>
      </trkpt>
      <trkpt lat="50.43773" lon="3.3059">
        <ele>-1.6</ele>
        <time>2023-08-06T06:47:11Z</time>
      </trkpt>
      <trkpt lat="50.43771" lon="3.3059">
        <ele>-1.6</ele>
        <time>2023-08-06T06:47:12Z</time>
      </trkpt>
      <trkpt lat="50.43768" lon="3.3059">
        <ele>-1.6</ele>
        <time>2023-08-06T06:47:13Z</time>
      </trkpt>
      <trkpt lat="50.43753" lon="3.30589">
        <ele>-1.6</ele>
        <time>2023-08-06T06:47:19Z</time>
      </trkpt>
      <trkpt lat="50.43728" lon="3.30588">
        <ele>-1.2</ele>
        <time>2023-08-06T06:47:29Z</time>
      </trkpt>
      <trkpt lat="50.43726" lon="3.30589">
        <ele>-1.2</ele>
        <time>2023-08-06T06:47:30Z</time>
      </trkpt>
      <trkpt lat="50.43724" lon="3.30589">
        <ele>-1.2</ele>
        <time>2023-08-06T06:47:31Z</time>
      </trkpt>
      <trkpt lat="50.43721" lon="3.30588">
        <ele>-1.2</ele>
        <time>2023-08-06T06:47:32Z</time>
      </trkpt>
      <trkpt lat="50.43719" lon="3.30588">
        <ele>-1.4</ele>
        <time>2023-08-06T06:47:33Z</time>
      </trkpt>
      <trkpt lat="50.43712" lon="3.30586">
        <ele>-1.6</ele>
        <time>2023-08-06T06:47:36Z</time>
      </trkpt>
      <trkpt lat="50.4371" lon="3.30586">
        <ele>-1.6</ele>
        <time>2023-08-06T06:47:37Z</time>
      </trkpt>
      <trkpt lat="50.43708" lon="3.30585">
        <ele>-1.8</ele>
        <time>2023-08-06T06:47:38Z</time>
      </trkpt>
      <trkpt lat="50.43703" lon="3.30585">
        <ele>-2</ele>
        <time>2023-08-06T06:47:40Z</time>
      </trkpt>
      <trkpt lat="50.43701" lon="3.30585">
        <ele>-2</ele>
        <time>2023-08-06T06:47:41Z</time>
      </trkpt>
      <trkpt lat="50.437" lon="3.30584">
        <ele>-2.2</ele>
        <time>2023-08-06T06:47:42Z</time>
      </trkpt>
      <trkpt lat="50.43698" lon="3.30584">
        <ele>-2.2</ele>
        <time>2023-08-06T06:47:43Z</time>
      </trkpt>
      <trkpt lat="50.43695" lon="3.30583">
        <ele>-2.2</ele>
        <time>2023-08-06T06:47:44Z</time>
      </trkpt>
      <trkpt lat="50.43693" lon="3.30582">
        <ele>-2.2</ele>
        <time>2023-08-06T06:47:45Z</time>
      </trkpt>
      <trkpt lat="50.4369" lon="3.30582">
        <ele>-2.2</ele>
        <time>2023-08-06T06:47:46Z</time>
      </trkpt>
      <trkpt lat="50.43688" lon="3.30581">
        <ele>-2.2</ele>
        <time>2023-08-06T06:47:47Z</time>
      </trkpt>
      <trkpt lat="50.43684" lon="3.30581">
        <ele>-2.2</ele>
        <time>2023-08-06T06:47:49Z</time>
      </trkpt>
      <trkpt lat="50.43682" lon="3.30581">
        <ele>-2.2</ele>
        <time>2023-08-06T06:47:50Z</time>
      </trkpt>
      <trkpt lat="50.43679" lon="3.30581">
        <ele>-2.4</ele>
        <time>2023-08-06T06:47:51Z</time>
      </trkpt>
      <trkpt lat="50.43675" lon="3.30581">
        <ele>-2.4</ele>
        <time>2023-08-06T06:47:53Z</time>
      </trkpt>
      <trkpt lat="50.43662" lon="3.3058">
        <ele>-2.2</ele>
        <time>2023-08-06T06:47:58Z</time>
      </trkpt>
      <trkpt lat="50.43655" lon="3.30581">
        <ele>-2.2</ele>
        <time>2023-08-06T06:48:01Z</time>
      </trkpt>
      <trkpt lat="50.43649" lon="3.3058">
        <ele>-2.2</ele>
        <time>2023-08-06T06:48:04Z</time>
      </trkpt>
      <trkpt lat="50.43637" lon="3.30578">
        <ele>-2.2</ele>
        <time>2023-08-06T06:48:08Z</time>
      </trkpt>
      <trkpt lat="50.43635" lon="3.30578">
        <ele>-2.2</ele>
        <time>2023-08-06T06:48:09Z</time>
      </trkpt>
      <trkpt lat="50.43632" lon="3.30578">
        <ele>-2.2</ele>
        <time>2023-08-06T06:48:10Z</time>
      </trkpt>
      <trkpt lat="50.43625" lon="3.30577">
        <ele>-2.2</ele>
        <time>2023-08-06T06:48:13Z</time>
      </trkpt>
      <trkpt lat="50.43621" lon="3.30576">
        <ele>-2.2</ele>
        <time>2023-08-06T06:48:14Z</time>
      </trkpt>
      <trkpt lat="50.43604" lon="3.30576">
        <ele>-2.2</ele>
        <time>2023-08-06T06:48:19Z</time>
      </trkpt>
      <trkpt lat="50.43587" lon="3.30572">
        <ele>-2.2</ele>
        <time>2023-08-06T06:48:25Z</time>
      </trkpt>
      <trkpt lat="50.43576" lon="3.3057">
        <ele>-2.2</ele>
        <time>2023-08-06T06:48:29Z</time>
      </trkpt>
      <trkpt lat="50.43574" lon="3.3057">
        <ele>-2.2</ele>
        <time>2023-08-06T06:48:30Z</time>
      </trkpt>
      <trkpt lat="50.43571" lon="3.3057">
        <ele>-2.2</ele>
        <time>2023-08-06T06:48:31Z</time>
      </trkpt>
      <trkpt lat="50.43568" lon="3.30569">
        <ele>-2.2</ele>
        <time>2023-08-06T06:48:32Z</time>
      </trkpt>
      <trkpt lat="50.43565" lon="3.30569">
        <ele>-2.2</ele>
        <time>2023-08-06T06:48:33Z</time>
      </trkpt>
      <trkpt lat="50.43563" lon="3.30569">
        <ele>-2.2</ele>
        <time>2023-08-06T06:48:34Z</time>
      </trkpt>
      <trkpt lat="50.4356" lon="3.30568">
        <ele>-2.2</ele>
        <time>2023-08-06T06:48:35Z</time>
      </trkpt>
      <trkpt lat="50.43546" lon="3.30568">
        <ele>-2</ele>
        <time>2023-08-06T06:48:40Z</time>
      </trkpt>
      <trkpt lat="50.43535" lon="3.30568">
        <ele>-1.6</ele>
        <time>2023-08-06T06:48:44Z</time>
      </trkpt>
      <trkpt lat="50.43532" lon="3.30568">
        <ele>-1.4</ele>
        <time>2023-08-06T06:48:45Z</time>
      </trkpt>
      <trkpt lat="50.4353" lon="3.30567">
        <ele>-1.2</ele>
        <time>2023-08-06T06:48:46Z</time>
      </trkpt>
      <trkpt lat="50.43527" lon="3.30567">
        <ele>-1.2</ele>
        <time>2023-08-06T06:48:47Z</time>
      </trkpt>
      <trkpt lat="50.43525" lon="3.30568">
        <ele>-1.2</ele>
        <time>2023-08-06T06:48:48Z</time>
      </trkpt>
      <trkpt lat="50.43523" lon="3.30568">
        <ele>-1.2</ele>
        <time>2023-08-06T06:48:49Z</time>
      </trkpt>
      <trkpt lat="50.43523" lon="3.30568">
        <ele>-1.2</ele>
        <time>2023-08-06T06:48:50Z</time>
      </trkpt>
      <trkpt lat="50.43519" lon="3.30568">
        <ele>-1.2</ele>
        <time>2023-08-06T06:48:51Z</time>
      </trkpt>
      <trkpt lat="50.43516" lon="3.30568">
        <ele>-1.2</ele>
        <time>2023-08-06T06:48:52Z</time>
      </trkpt>
      <trkpt lat="50.43492" lon="3.30564">
        <ele>-0.80000000000001</ele>
        <time>2023-08-06T06:49:01Z</time>
      </trkpt>
      <trkpt lat="50.43482" lon="3.30562">
        <ele>-0.80000000000001</ele>
        <time>2023-08-06T06:49:05Z</time>
      </trkpt>
      <trkpt lat="50.43479" lon="3.30561">
        <ele>-0.80000000000001</ele>
        <time>2023-08-06T06:49:06Z</time>
      </trkpt>
      <trkpt lat="50.43477" lon="3.30561">
        <ele>-0.80000000000001</ele>
        <time>2023-08-06T06:49:07Z</time>
      </trkpt>
      <trkpt lat="50.43477" lon="3.30561">
        <ele>-0.80000000000001</ele>
        <time>2023-08-06T06:49:08Z</time>
      </trkpt>
      <trkpt lat="50.43473" lon="3.30559">
        <ele>-0.80000000000001</ele>
        <time>2023-08-06T06:49:09Z</time>
      </trkpt>
      <trkpt lat="50.4347" lon="3.30559">
        <ele>-0.80000000000001</ele>
        <time>2023-08-06T06:49:10Z</time>
      </trkpt>
      <trkpt lat="50.43467" lon="3.30559">
        <ele>-0.80000000000001</ele>
        <time>2023-08-06T06:49:11Z</time>
      </trkpt>
      <trkpt lat="50.43465" lon="3.30559">
        <ele>-0.80000000000001</ele>
        <time>2023-08-06T06:49:12Z</time>
      </trkpt>
      <trkpt lat="50.43463" lon="3.3056">
        <ele>-0.60000000000002</ele>
        <time>2023-08-06T06:49:13Z</time>
      </trkpt>
      <trkpt lat="50.43462" lon="3.30562">
        <ele>-0.60000000000002</ele>
        <time>2023-08-06T06:49:14Z</time>
      </trkpt>
      <trkpt lat="50.43462" lon="3.30562">
        <ele>-0.60000000000002</ele>
        <time>2023-08-06T06:49:15Z</time>
      </trkpt>
      <trkpt lat="50.43459" lon="3.30568">
        <ele>-0.60000000000002</ele>
        <time>2023-08-06T06:49:16Z</time>
      </trkpt>
      <trkpt lat="50.43455" lon="3.30574">
        <ele>-0.39999999999998</ele>
        <time>2023-08-06T06:49:18Z</time>
      </trkpt>
      <trkpt lat="50.43453" lon="3.30578">
        <ele>-0.39999999999998</ele>
        <time>2023-08-06T06:49:19Z</time>
      </trkpt>
      <trkpt lat="50.43452" lon="3.30583">
        <ele>-0.39999999999998</ele>
        <time>2023-08-06T06:49:20Z</time>
      </trkpt>
      <trkpt lat="50.43445" lon="3.30603">
        <ele>-0.39999999999998</ele>
        <time>2023-08-06T06:49:24Z</time>
      </trkpt>
      <trkpt lat="50.43445" lon="3.30612">
        <ele>-0.39999999999998</ele>
        <time>2023-08-06T06:49:26Z</time>
      </trkpt>
      <trkpt lat="50.43445" lon="3.30616">
        <ele>-0.39999999999998</ele>
        <time>2023-08-06T06:49:27Z</time>
      </trkpt>
      <trkpt lat="50.43445" lon="3.30616">
        <ele>-0.39999999999998</ele>
        <time>2023-08-06T06:49:28Z</time>
      </trkpt>
      <trkpt lat="50.43446" lon="3.30626">
        <ele>-0.60000000000002</ele>
        <time>2023-08-06T06:49:29Z</time>
      </trkpt>
      <trkpt lat="50.43446" lon="3.30631">
        <ele>-0.60000000000002</ele>
        <time>2023-08-06T06:49:30Z</time>
      </trkpt>
      <trkpt lat="50.43446" lon="3.30644">
        <ele>-0.60000000000002</ele>
        <time>2023-08-06T06:49:33Z</time>
      </trkpt>
      <trkpt lat="50.43443" lon="3.3065">
        <ele>-0.60000000000002</ele>
        <time>2023-08-06T06:49:34Z</time>
      </trkpt>
      <trkpt lat="50.43441" lon="3.30655">
        <ele>-0.60000000000002</ele>
        <time>2023-08-06T06:49:35Z</time>
      </trkpt>
      <trkpt lat="50.43439" lon="3.30657">
        <ele>-0.60000000000002</ele>
        <time>2023-08-06T06:49:36Z</time>
      </trkpt>
      <trkpt lat="50.43436" lon="3.30659">
        <ele>-0.60000000000002</ele>
        <time>2023-08-06T06:49:37Z</time>
      </trkpt>
      <trkpt lat="50.43432" lon="3.3066">
        <ele>-0.60000000000002</ele>
        <time>2023-08-06T06:49:38Z</time>
      </trkpt>
      <trkpt lat="50.43429" lon="3.30661">
        <ele>-0.60000000000002</ele>
        <time>2023-08-06T06:49:39Z</time>
      </trkpt>
      <trkpt lat="50.43425" lon="3.30662">
        <ele>-0.60000000000002</ele>
        <time>2023-08-06T06:49:40Z</time>
      </trkpt>
      <trkpt lat="50.43425" lon="3.30662">
        <ele>-0.60000000000002</ele>
        <time>2023-08-06T06:49:41Z</time>
      </trkpt>
      <trkpt lat="50.43409" lon="3.30658">
        <ele>-0.60000000000002</ele>
        <time>2023-08-06T06:49:44Z</time>
      </trkpt>
      <trkpt lat="50.43405" lon="3.30661">
        <ele>-0.60000000000002</ele>
        <time>2023-08-06T06:49:45Z</time>
      </trkpt>
      <trkpt lat="50.43398" lon="3.30659">
        <ele>-0.60000000000002</ele>
        <time>2023-08-06T06:49:48Z</time>
      </trkpt>
      <trkpt lat="50.43392" lon="3.30658">
        <ele>-0.60000000000002</ele>
        <time>2023-08-06T06:49:49Z</time>
      </trkpt>
      <trkpt lat="50.43388" lon="3.30657">
        <ele>-0.80000000000001</ele>
        <time>2023-08-06T06:49:50Z</time>
      </trkpt>
      <trkpt lat="50.43384" lon="3.30657">
        <ele>-0.80000000000001</ele>
        <time>2023-08-06T06:49:51Z</time>
      </trkpt>
      <trkpt lat="50.43381" lon="3.30657">
        <ele>-1</ele>
        <time>2023-08-06T06:49:53Z</time>
      </trkpt>
      <trkpt lat="50.43371" lon="3.30656">
        <ele>-1.2</ele>
        <time>2023-08-06T06:49:55Z</time>
      </trkpt>
      <trkpt lat="50.43368" lon="3.30655">
        <ele>-1.2</ele>
        <time>2023-08-06T06:49:56Z</time>
      </trkpt>
      <trkpt lat="50.43365" lon="3.30654">
        <ele>-1.4</ele>
        <time>2023-08-06T06:49:57Z</time>
      </trkpt>
      <trkpt lat="50.43362" lon="3.30653">
        <ele>-1.4</ele>
        <time>2023-08-06T06:49:58Z</time>
      </trkpt>
      <trkpt lat="50.43339" lon="3.30651">
        <ele>-1.6</ele>
        <time>2023-08-06T06:50:04Z</time>
      </trkpt>
      <trkpt lat="50.43314" lon="3.30647">
        <ele>-2.2</ele>
        <time>2023-08-06T06:50:11Z</time>
      </trkpt>
      <trkpt lat="50.43304" lon="3.30645">
        <ele>-2.2</ele>
        <time>2023-08-06T06:50:14Z</time>
      </trkpt>
      <trkpt lat="50.43302" lon="3.30644">
        <ele>-2.2</ele>
        <time>2023-08-06T06:50:15Z</time>
      </trkpt>
      <trkpt lat="50.43299" lon="3.30643">
        <ele>-2.2</ele>
        <time>2023-08-06T06:50:16Z</time>
      </trkpt>
      <trkpt lat="50.43296" lon="3.30642">
        <ele>-2.2</ele>
        <time>2023-08-06T06:50:17Z</time>
      </trkpt>
      <trkpt lat="50.43274" lon="3.30643">
        <ele>-2.2</ele>
        <time>2023-08-06T06:50:24Z</time>
      </trkpt>
      <trkpt lat="50.43272" lon="3.3065">
        <ele>-2.2</ele>
        <time>2023-08-06T06:50:26Z</time>
      </trkpt>
      <trkpt lat="50.43271" lon="3.30655">
        <ele>-2.2</ele>
        <time>2023-08-06T06:50:27Z</time>
      </trkpt>
      <trkpt lat="50.43271" lon="3.30661">
        <ele>-2.2</ele>
        <time>2023-08-06T06:50:28Z</time>
      </trkpt>
      <trkpt lat="50.43272" lon="3.30666">
        <ele>-2</ele>
        <time>2023-08-06T06:50:29Z</time>
      </trkpt>
      <trkpt lat="50.43272" lon="3.30671">
        <ele>-2</ele>
        <time>2023-08-06T06:50:30Z</time>
      </trkpt>
      <trkpt lat="50.43272" lon="3.30676">
        <ele>-2</ele>
        <time>2023-08-06T06:50:31Z</time>
      </trkpt>
      <trkpt lat="50.43272" lon="3.30681">
        <ele>-2</ele>
        <time>2023-08-06T06:50:32Z</time>
      </trkpt>
      <trkpt lat="50.43272" lon="3.30686">
        <ele>-2.2</ele>
        <time>2023-08-06T06:50:33Z</time>
      </trkpt>
      <trkpt lat="50.43272" lon="3.30692">
        <ele>-2.2</ele>
        <time>2023-08-06T06:50:34Z</time>
      </trkpt>
      <trkpt lat="50.43272" lon="3.30703">
        <ele>-2.2</ele>
        <time>2023-08-06T06:50:36Z</time>
      </trkpt>
      <trkpt lat="50.43272" lon="3.3072">
        <ele>-2.2</ele>
        <time>2023-08-06T06:50:39Z</time>
      </trkpt>
      <trkpt lat="50.43269" lon="3.30757">
        <ele>-2.2</ele>
        <time>2023-08-06T06:50:45Z</time>
      </trkpt>
      <trkpt lat="50.43268" lon="3.30762">
        <ele>-2</ele>
        <time>2023-08-06T06:50:46Z</time>
      </trkpt>
      <trkpt lat="50.43268" lon="3.30768">
        <ele>-2</ele>
        <time>2023-08-06T06:50:47Z</time>
      </trkpt>
      <trkpt lat="50.43268" lon="3.30772">
        <ele>-2</ele>
        <time>2023-08-06T06:50:48Z</time>
      </trkpt>
      <trkpt lat="50.43267" lon="3.30779">
        <ele>-2</ele>
        <time>2023-08-06T06:50:49Z</time>
      </trkpt>
      <trkpt lat="50.43267" lon="3.30785">
        <ele>-2</ele>
        <time>2023-08-06T06:50:50Z</time>
      </trkpt>
      <trkpt lat="50.43267" lon="3.30797">
        <ele>-2</ele>
        <time>2023-08-06T06:50:52Z</time>
      </trkpt>
      <trkpt lat="50.43266" lon="3.30809">
        <ele>-2</ele>
        <time>2023-08-06T06:50:54Z</time>
      </trkpt>
      <trkpt lat="50.43266" lon="3.30815">
        <ele>-2</ele>
        <time>2023-08-06T06:50:55Z</time>
      </trkpt>
      <trkpt lat="50.43265" lon="3.3082">
        <ele>-2</ele>
        <time>2023-08-06T06:50:56Z</time>
      </trkpt>
      <trkpt lat="50.43263" lon="3.30825">
        <ele>-1.8</ele>
        <time>2023-08-06T06:50:57Z</time>
      </trkpt>
      <trkpt lat="50.43263" lon="3.3083">
        <ele>-1.8</ele>
        <time>2023-08-06T06:50:58Z</time>
      </trkpt>
      <trkpt lat="50.43263" lon="3.3083">
        <ele>-1.8</ele>
        <time>2023-08-06T06:50:59Z</time>
      </trkpt>
      <trkpt lat="50.43262" lon="3.30844">
        <ele>-2</ele>
        <time>2023-08-06T06:51:01Z</time>
      </trkpt>
      <trkpt lat="50.43261" lon="3.30848">
        <ele>-2.2</ele>
        <time>2023-08-06T06:51:02Z</time>
      </trkpt>
      <trkpt lat="50.4326" lon="3.30863">
        <ele>-2</ele>
        <time>2023-08-06T06:51:05Z</time>
      </trkpt>
      <trkpt lat="50.43258" lon="3.30869">
        <ele>-2</ele>
        <time>2023-08-06T06:51:06Z</time>
      </trkpt>
      <trkpt lat="50.43257" lon="3.30875">
        <ele>-1.8</ele>
        <time>2023-08-06T06:51:07Z</time>
      </trkpt>
      <trkpt lat="50.43254" lon="3.30917">
        <ele>-2</ele>
        <time>2023-08-06T06:51:14Z</time>
      </trkpt>
      <trkpt lat="50.43256" lon="3.30939">
        <ele>-2</ele>
        <time>2023-08-06T06:51:18Z</time>
      </trkpt>
      <trkpt lat="50.43256" lon="3.30939">
        <ele>-1.8</ele>
        <time>2023-08-06T06:51:19Z</time>
      </trkpt>
      <trkpt lat="50.43257" lon="3.3095">
        <ele>-1.8</ele>
        <time>2023-08-06T06:51:20Z</time>
      </trkpt>
      <trkpt lat="50.43256" lon="3.30967">
        <ele>-1.8</ele>
        <time>2023-08-06T06:51:23Z</time>
      </trkpt>
      <trkpt lat="50.43255" lon="3.30974">
        <ele>-1.8</ele>
        <time>2023-08-06T06:51:24Z</time>
      </trkpt>
      <trkpt lat="50.43255" lon="3.3098">
        <ele>-1.8</ele>
        <time>2023-08-06T06:51:25Z</time>
      </trkpt>
      <trkpt lat="50.43255" lon="3.30985">
        <ele>-1.8</ele>
        <time>2023-08-06T06:51:26Z</time>
      </trkpt>
      <trkpt lat="50.43255" lon="3.3099">
        <ele>-1.6</ele>
        <time>2023-08-06T06:51:27Z</time>
      </trkpt>
      <trkpt lat="50.43254" lon="3.31003">
        <ele>-1.6</ele>
        <time>2023-08-06T06:51:29Z</time>
      </trkpt>
      <trkpt lat="50.43254" lon="3.3101">
        <ele>-1.6</ele>
        <time>2023-08-06T06:51:30Z</time>
      </trkpt>
      <trkpt lat="50.43254" lon="3.31021">
        <ele>-1.6</ele>
        <time>2023-08-06T06:51:32Z</time>
      </trkpt>
      <trkpt lat="50.43253" lon="3.31028">
        <ele>-1.8</ele>
        <time>2023-08-06T06:51:33Z</time>
      </trkpt>
      <trkpt lat="50.43253" lon="3.31028">
        <ele>-2</ele>
        <time>2023-08-06T06:51:34Z</time>
      </trkpt>
      <trkpt lat="50.43254" lon="3.31038">
        <ele>-2.2</ele>
        <time>2023-08-06T06:51:35Z</time>
      </trkpt>
      <trkpt lat="50.43255" lon="3.31048">
        <ele>-2.4</ele>
        <time>2023-08-06T06:51:37Z</time>
      </trkpt>
      <trkpt lat="50.43255" lon="3.31053">
        <ele>-2.4</ele>
        <time>2023-08-06T06:51:38Z</time>
      </trkpt>
      <trkpt lat="50.43254" lon="3.31058">
        <ele>-2.4</ele>
        <time>2023-08-06T06:51:39Z</time>
      </trkpt>
      <trkpt lat="50.43254" lon="3.31063">
        <ele>-2.6</ele>
        <time>2023-08-06T06:51:40Z</time>
      </trkpt>
      <trkpt lat="50.43253" lon="3.31067">
        <ele>-2.6</ele>
        <time>2023-08-06T06:51:41Z</time>
      </trkpt>
      <trkpt lat="50.43254" lon="3.31072">
        <ele>-2.6</ele>
        <time>2023-08-06T06:51:42Z</time>
      </trkpt>
      <trkpt lat="50.43254" lon="3.31078">
        <ele>-2.8</ele>
        <time>2023-08-06T06:51:44Z</time>
      </trkpt>
      <trkpt lat="50.43253" lon="3.31111">
        <ele>-2.8</ele>
        <time>2023-08-06T06:51:48Z</time>
      </trkpt>
      <trkpt lat="50.43251" lon="3.31131">
        <ele>-2.6</ele>
        <time>2023-08-06T06:51:51Z</time>
      </trkpt>
      <trkpt lat="50.43248" lon="3.31151">
        <ele>-2.4</ele>
        <time>2023-08-06T06:51:54Z</time>
      </trkpt>
      <trkpt lat="50.43247" lon="3.31159">
        <ele>-2.4</ele>
        <time>2023-08-06T06:51:55Z</time>
      </trkpt>
      <trkpt lat="50.43249" lon="3.31176">
        <ele>-2.4</ele>
        <time>2023-08-06T06:51:58Z</time>
      </trkpt>
      <trkpt lat="50.43248" lon="3.31183">
        <ele>-2.4</ele>
        <time>2023-08-06T06:51:59Z</time>
      </trkpt>
      <trkpt lat="50.43246" lon="3.31192">
        <ele>-2.4</ele>
        <time>2023-08-06T06:52:00Z</time>
      </trkpt>
      <trkpt lat="50.43247" lon="3.31199">
        <ele>-2.4</ele>
        <time>2023-08-06T06:52:01Z</time>
      </trkpt>
      <trkpt lat="50.43247" lon="3.31214">
        <ele>-2.4</ele>
        <time>2023-08-06T06:52:03Z</time>
      </trkpt>
      <trkpt lat="50.43247" lon="3.31228">
        <ele>-2.4</ele>
        <time>2023-08-06T06:52:05Z</time>
      </trkpt>
      <trkpt lat="50.43247" lon="3.31233">
        <ele>-2.4</ele>
        <time>2023-08-06T06:52:06Z</time>
      </trkpt>
      <trkpt lat="50.43247" lon="3.3124">
        <ele>-2.4</ele>
        <time>2023-08-06T06:52:07Z</time>
      </trkpt>
      <trkpt lat="50.43246" lon="3.31248">
        <ele>-2.4</ele>
        <time>2023-08-06T06:52:08Z</time>
      </trkpt>
      <trkpt lat="50.43245" lon="3.31262">
        <ele>-2.4</ele>
        <time>2023-08-06T06:52:10Z</time>
      </trkpt>
      <trkpt lat="50.43243" lon="3.3127">
        <ele>-2.4</ele>
        <time>2023-08-06T06:52:11Z</time>
      </trkpt>
      <trkpt lat="50.43242" lon="3.31295">
        <ele>-2.8</ele>
        <time>2023-08-06T06:52:15Z</time>
      </trkpt>
      <trkpt lat="50.43242" lon="3.31295">
        <ele>-2.8</ele>
        <time>2023-08-06T06:52:16Z</time>
      </trkpt>
      <trkpt lat="50.43242" lon="3.31317">
        <ele>-3</ele>
        <time>2023-08-06T06:52:19Z</time>
      </trkpt>
      <trkpt lat="50.43242" lon="3.31321">
        <ele>-3</ele>
        <time>2023-08-06T06:52:20Z</time>
      </trkpt>
      <trkpt lat="50.43241" lon="3.31328">
        <ele>-3</ele>
        <time>2023-08-06T06:52:21Z</time>
      </trkpt>
      <trkpt lat="50.43236" lon="3.31335">
        <ele>-3</ele>
        <time>2023-08-06T06:52:23Z</time>
      </trkpt>
      <trkpt lat="50.43234" lon="3.31336">
        <ele>-3.2</ele>
        <time>2023-08-06T06:52:24Z</time>
      </trkpt>
      <trkpt lat="50.43222" lon="3.31337">
        <ele>-3.4</ele>
        <time>2023-08-06T06:52:27Z</time>
      </trkpt>
      <trkpt lat="50.43218" lon="3.31337">
        <ele>-3.8</ele>
        <time>2023-08-06T06:52:28Z</time>
      </trkpt>
      <trkpt lat="50.43206" lon="3.31344">
        <ele>-3.8</ele>
        <time>2023-08-06T06:52:31Z</time>
      </trkpt>
      <trkpt lat="50.43195" lon="3.31356">
        <ele>-4</ele>
        <time>2023-08-06T06:52:34Z</time>
      </trkpt>
      <trkpt lat="50.43191" lon="3.31361">
        <ele>-4</ele>
        <time>2023-08-06T06:52:35Z</time>
      </trkpt>
      <trkpt lat="50.43159" lon="3.3139">
        <ele>-4</ele>
        <time>2023-08-06T06:52:43Z</time>
      </trkpt>
      <trkpt lat="50.4315" lon="3.31394">
        <ele>-4</ele>
        <time>2023-08-06T06:52:45Z</time>
      </trkpt>
      <trkpt lat="50.43141" lon="3.31394">
        <ele>-4</ele>
        <time>2023-08-06T06:52:47Z</time>
      </trkpt>
      <trkpt lat="50.43091" lon="3.31388">
        <ele>-3.8</ele>
        <time>2023-08-06T06:52:58Z</time>
      </trkpt>
      <trkpt lat="50.43055" lon="3.31399">
        <ele>-3.8</ele>
        <time>2023-08-06T06:53:06Z</time>
      </trkpt>
      <trkpt lat="50.43047" lon="3.31403">
        <ele>-3.8</ele>
        <time>2023-08-06T06:53:08Z</time>
      </trkpt>
      <trkpt lat="50.43044" lon="3.31405">
        <ele>-3.8</ele>
        <time>2023-08-06T06:53:09Z</time>
      </trkpt>
      <trkpt lat="50.43042" lon="3.31406">
        <ele>-3.8</ele>
        <time>2023-08-06T06:53:10Z</time>
      </trkpt>
      <trkpt lat="50.43041" lon="3.31408">
        <ele>-3.8</ele>
        <time>2023-08-06T06:53:11Z</time>
      </trkpt>
      <trkpt lat="50.4304" lon="3.3141">
        <ele>-3.8</ele>
        <time>2023-08-06T06:53:12Z</time>
      </trkpt>
      <trkpt lat="50.43039" lon="3.31414">
        <ele>-3.8</ele>
        <time>2023-08-06T06:53:13Z</time>
      </trkpt>
      <trkpt lat="50.43039" lon="3.31418">
        <ele>-3.8</ele>
        <time>2023-08-06T06:53:14Z</time>
      </trkpt>
      <trkpt lat="50.4304" lon="3.31424">
        <ele>-3.8</ele>
        <time>2023-08-06T06:53:15Z</time>
      </trkpt>
      <trkpt lat="50.43046" lon="3.31439">
        <ele>-4</ele>
        <time>2023-08-06T06:53:18Z</time>
      </trkpt>
      <trkpt lat="50.43048" lon="3.31445">
        <ele>-4</ele>
        <time>2023-08-06T06:53:19Z</time>
      </trkpt>
      <trkpt lat="50.43052" lon="3.31456">
        <ele>-4.4</ele>
        <time>2023-08-06T06:53:21Z</time>
      </trkpt>
      <trkpt lat="50.43064" lon="3.31507">
        <ele>-4.6</ele>
        <time>2023-08-06T06:53:29Z</time>
      </trkpt>
      <trkpt lat="50.43076" lon="3.31563">
        <ele>-4.2</ele>
        <time>2023-08-06T06:53:37Z</time>
      </trkpt>
      <trkpt lat="50.43077" lon="3.31577">
        <ele>-4.2</ele>
        <time>2023-08-06T06:53:39Z</time>
      </trkpt>
      <trkpt lat="50.43087" lon="3.31645">
        <ele>-3.6</ele>
        <time>2023-08-06T06:53:49Z</time>
      </trkpt>
      <trkpt lat="50.431" lon="3.3173">
        <ele>-4</ele>
        <time>2023-08-06T06:54:00Z</time>
      </trkpt>
      <trkpt lat="50.43112" lon="3.31806">
        <ele>-4</ele>
        <time>2023-08-06T06:54:09Z</time>
      </trkpt>
      <trkpt lat="50.43123" lon="3.31891">
        <ele>-4.4</ele>
        <time>2023-08-06T06:54:18Z</time>
      </trkpt>
      <trkpt lat="50.43125" lon="3.31899">
        <ele>-4.4</ele>
        <time>2023-08-06T06:54:20Z</time>
      </trkpt>
      <trkpt lat="50.43133" lon="3.31963">
        <ele>-4.2</ele>
        <time>2023-08-06T06:54:27Z</time>
      </trkpt>
      <trkpt lat="50.43133" lon="3.31963">
        <ele>-4</ele>
        <time>2023-08-06T06:54:28Z</time>
      </trkpt>
      <trkpt lat="50.43135" lon="3.31981">
        <ele>-4</ele>
        <time>2023-08-06T06:54:30Z</time>
      </trkpt>
      <trkpt lat="50.43144" lon="3.32065">
        <ele>-3.2</ele>
        <time>2023-08-06T06:54:39Z</time>
      </trkpt>
      <trkpt lat="50.43144" lon="3.32065">
        <ele>-3.2</ele>
        <time>2023-08-06T06:54:40Z</time>
      </trkpt>
      <trkpt lat="50.43151" lon="3.32139">
        <ele>-3</ele>
        <time>2023-08-06T06:54:48Z</time>
      </trkpt>
      <trkpt lat="50.43158" lon="3.32222">
        <ele>-3.6</ele>
        <time>2023-08-06T06:54:58Z</time>
      </trkpt>
      <trkpt lat="50.43163" lon="3.32286">
        <ele>-3.8</ele>
        <time>2023-08-06T06:55:05Z</time>
      </trkpt>
      <trkpt lat="50.43164" lon="3.32374">
        <ele>-4</ele>
        <time>2023-08-06T06:55:14Z</time>
      </trkpt>
      <trkpt lat="50.43163" lon="3.32384">
        <ele>-4</ele>
        <time>2023-08-06T06:55:15Z</time>
      </trkpt>
      <trkpt lat="50.4316" lon="3.32451">
        <ele>-4.2</ele>
        <time>2023-08-06T06:55:22Z</time>
      </trkpt>
      <trkpt lat="50.43158" lon="3.32471">
        <ele>-4.2</ele>
        <time>2023-08-06T06:55:24Z</time>
      </trkpt>
      <trkpt lat="50.43157" lon="3.3249">
        <ele>-4.2</ele>
        <time>2023-08-06T06:55:25Z</time>
      </trkpt>
      <trkpt lat="50.43157" lon="3.3249">
        <ele>-4.2</ele>
        <time>2023-08-06T06:55:26Z</time>
      </trkpt>
      <trkpt lat="50.43156" lon="3.32512">
        <ele>-4.2</ele>
        <time>2023-08-06T06:55:27Z</time>
      </trkpt>
      <trkpt lat="50.43157" lon="3.3252">
        <ele>-4.4</ele>
        <time>2023-08-06T06:55:29Z</time>
      </trkpt>
      <trkpt lat="50.43158" lon="3.32529">
        <ele>-4.4</ele>
        <time>2023-08-06T06:55:30Z</time>
      </trkpt>
      <trkpt lat="50.43166" lon="3.32556">
        <ele>-4.6</ele>
        <time>2023-08-06T06:55:32Z</time>
      </trkpt>
      <trkpt lat="50.43169" lon="3.32566">
        <ele>-4.8</ele>
        <time>2023-08-06T06:55:34Z</time>
      </trkpt>
      <trkpt lat="50.43172" lon="3.32573">
        <ele>-4.8</ele>
        <time>2023-08-06T06:55:35Z</time>
      </trkpt>
      <trkpt lat="50.432" lon="3.3265">
        <ele>-5.2</ele>
        <time>2023-08-06T06:55:44Z</time>
      </trkpt>
      <trkpt lat="50.43214" lon="3.32693">
        <ele>-5</ele>
        <time>2023-08-06T06:55:49Z</time>
      </trkpt>
      <trkpt lat="50.4324" lon="3.32771">
        <ele>-4.8</ele>
        <time>2023-08-06T06:55:57Z</time>
      </trkpt>
      <trkpt lat="50.43243" lon="3.32781">
        <ele>-4.8</ele>
        <time>2023-08-06T06:55:58Z</time>
      </trkpt>
      <trkpt lat="50.43255" lon="3.32811">
        <ele>-4.6</ele>
        <time>2023-08-06T06:56:02Z</time>
      </trkpt>
      <trkpt lat="50.43255" lon="3.32811">
        <ele>-4.6</ele>
        <time>2023-08-06T06:56:03Z</time>
      </trkpt>
      <trkpt lat="50.43258" lon="3.3282">
        <ele>-4.6</ele>
        <time>2023-08-06T06:56:04Z</time>
      </trkpt>
      <trkpt lat="50.43261" lon="3.32826">
        <ele>-4.6</ele>
        <time>2023-08-06T06:56:05Z</time>
      </trkpt>
      <trkpt lat="50.43262" lon="3.32832">
        <ele>-4.6</ele>
        <time>2023-08-06T06:56:06Z</time>
      </trkpt>
      <trkpt lat="50.43264" lon="3.3284">
        <ele>-4.4</ele>
        <time>2023-08-06T06:56:07Z</time>
      </trkpt>
      <trkpt lat="50.43265" lon="3.32848">
        <ele>-4.4</ele>
        <time>2023-08-06T06:56:08Z</time>
      </trkpt>
      <trkpt lat="50.43269" lon="3.32884">
        <ele>-4.4</ele>
        <time>2023-08-06T06:56:12Z</time>
      </trkpt>
      <trkpt lat="50.43276" lon="3.3296">
        <ele>-5</ele>
        <time>2023-08-06T06:56:20Z</time>
      </trkpt>
      <trkpt lat="50.43274" lon="3.32999">
        <ele>-5.2</ele>
        <time>2023-08-06T06:56:23Z</time>
      </trkpt>
      <trkpt lat="50.43272" lon="3.3302">
        <ele>-5.2</ele>
        <time>2023-08-06T06:56:26Z</time>
      </trkpt>
      <trkpt lat="50.43261" lon="3.33107">
        <ele>-5.2</ele>
        <time>2023-08-06T06:56:35Z</time>
      </trkpt>
      <trkpt lat="50.4326" lon="3.33118">
        <ele>-5.2</ele>
        <time>2023-08-06T06:56:36Z</time>
      </trkpt>
      <trkpt lat="50.43261" lon="3.33179">
        <ele>-5.4</ele>
        <time>2023-08-06T06:56:42Z</time>
      </trkpt>
      <trkpt lat="50.43263" lon="3.33217">
        <ele>-5.4</ele>
        <time>2023-08-06T06:56:45Z</time>
      </trkpt>
      <trkpt lat="50.43262" lon="3.33237">
        <ele>-5.6</ele>
        <time>2023-08-06T06:56:48Z</time>
      </trkpt>
      <trkpt lat="50.4326" lon="3.33258">
        <ele>-5.6</ele>
        <time>2023-08-06T06:56:49Z</time>
      </trkpt>
      <trkpt lat="50.43256" lon="3.3329">
        <ele>-5.4</ele>
        <time>2023-08-06T06:56:53Z</time>
      </trkpt>
      <trkpt lat="50.43256" lon="3.33298">
        <ele>-5.4</ele>
        <time>2023-08-06T06:56:54Z</time>
      </trkpt>
      <trkpt lat="50.43257" lon="3.33309">
        <ele>-5.4</ele>
        <time>2023-08-06T06:56:55Z</time>
      </trkpt>
      <trkpt lat="50.43261" lon="3.33328">
        <ele>-5.6</ele>
        <time>2023-08-06T06:56:56Z</time>
      </trkpt>
      <trkpt lat="50.43261" lon="3.33328">
        <ele>-5.6</ele>
        <time>2023-08-06T06:56:57Z</time>
      </trkpt>
      <trkpt lat="50.43266" lon="3.33335">
        <ele>-5.6</ele>
        <time>2023-08-06T06:56:58Z</time>
      </trkpt>
      <trkpt lat="50.43277" lon="3.33354">
        <ele>-5.6</ele>
        <time>2023-08-06T06:57:00Z</time>
      </trkpt>
      <trkpt lat="50.43281" lon="3.33361">
        <ele>-5.6</ele>
        <time>2023-08-06T06:57:01Z</time>
      </trkpt>
      <trkpt lat="50.43281" lon="3.33361">
        <ele>-5.6</ele>
        <time>2023-08-06T06:57:02Z</time>
      </trkpt>
      <trkpt lat="50.43286" lon="3.33369">
        <ele>-5.6</ele>
        <time>2023-08-06T06:57:03Z</time>
      </trkpt>
      <trkpt lat="50.43289" lon="3.33374">
        <ele>-5.6</ele>
        <time>2023-08-06T06:57:04Z</time>
      </trkpt>
      <trkpt lat="50.43296" lon="3.33388">
        <ele>-5.6</ele>
        <time>2023-08-06T06:57:05Z</time>
      </trkpt>
      <trkpt lat="50.433" lon="3.33397">
        <ele>-5.6</ele>
        <time>2023-08-06T06:57:06Z</time>
      </trkpt>
      <trkpt lat="50.433" lon="3.33397">
        <ele>-5.6</ele>
        <time>2023-08-06T06:57:07Z</time>
      </trkpt>
      <trkpt lat="50.43303" lon="3.33405">
        <ele>-5.6</ele>
        <time>2023-08-06T06:57:08Z</time>
      </trkpt>
      <trkpt lat="50.43305" lon="3.33412">
        <ele>-5.4</ele>
        <time>2023-08-06T06:57:09Z</time>
      </trkpt>
      <trkpt lat="50.43309" lon="3.33428">
        <ele>-5.4</ele>
        <time>2023-08-06T06:57:10Z</time>
      </trkpt>
      <trkpt lat="50.43312" lon="3.33438">
        <ele>-5.4</ele>
        <time>2023-08-06T06:57:11Z</time>
      </trkpt>
      <trkpt lat="50.43313" lon="3.33447">
        <ele>-5.2</ele>
        <time>2023-08-06T06:57:13Z</time>
      </trkpt>
      <trkpt lat="50.43314" lon="3.33455">
        <ele>-5.2</ele>
        <time>2023-08-06T06:57:14Z</time>
      </trkpt>
      <trkpt lat="50.43316" lon="3.33472">
        <ele>-5.2</ele>
        <time>2023-08-06T06:57:15Z</time>
      </trkpt>
      <trkpt lat="50.43325" lon="3.33545">
        <ele>-5</ele>
        <time>2023-08-06T06:57:24Z</time>
      </trkpt>
      <trkpt lat="50.4333" lon="3.336">
        <ele>-4.8</ele>
        <time>2023-08-06T06:57:29Z</time>
      </trkpt>
      <trkpt lat="50.43334" lon="3.33618">
        <ele>-4.8</ele>
        <time>2023-08-06T06:57:31Z</time>
      </trkpt>
      <trkpt lat="50.43352" lon="3.33691">
        <ele>-4.8</ele>
        <time>2023-08-06T06:57:41Z</time>
      </trkpt>
      <trkpt lat="50.4336" lon="3.33717">
        <ele>-4.8</ele>
        <time>2023-08-06T06:57:43Z</time>
      </trkpt>
      <trkpt lat="50.43363" lon="3.33724">
        <ele>-4.8</ele>
        <time>2023-08-06T06:57:44Z</time>
      </trkpt>
      <trkpt lat="50.43375" lon="3.33743">
        <ele>-4.8</ele>
        <time>2023-08-06T06:57:47Z</time>
      </trkpt>
      <trkpt lat="50.43388" lon="3.33761">
        <ele>-4.8</ele>
        <time>2023-08-06T06:57:51Z</time>
      </trkpt>
      <trkpt lat="50.43397" lon="3.33773">
        <ele>-4.6</ele>
        <time>2023-08-06T06:57:52Z</time>
      </trkpt>
      <trkpt lat="50.43402" lon="3.33781">
        <ele>-4.6</ele>
        <time>2023-08-06T06:57:53Z</time>
      </trkpt>
      <trkpt lat="50.43414" lon="3.3381">
        <ele>-4.6</ele>
        <time>2023-08-06T06:57:57Z</time>
      </trkpt>
      <trkpt lat="50.43426" lon="3.3385">
        <ele>-4.8</ele>
        <time>2023-08-06T06:58:03Z</time>
      </trkpt>
      <trkpt lat="50.4343" lon="3.33869">
        <ele>-4.8</ele>
        <time>2023-08-06T06:58:05Z</time>
      </trkpt>
      <trkpt lat="50.4345" lon="3.33943">
        <ele>-5</ele>
        <time>2023-08-06T06:58:13Z</time>
      </trkpt>
      <trkpt lat="50.43468" lon="3.3398">
        <ele>-5.4</ele>
        <time>2023-08-06T06:58:18Z</time>
      </trkpt>
      <trkpt lat="50.4348" lon="3.34">
        <ele>-5.4</ele>
        <time>2023-08-06T06:58:22Z</time>
      </trkpt>
      <trkpt lat="50.43499" lon="3.34026">
        <ele>-5.4</ele>
        <time>2023-08-06T06:58:26Z</time>
      </trkpt>
      <trkpt lat="50.43514" lon="3.3405">
        <ele>-5.4</ele>
        <time>2023-08-06T06:58:29Z</time>
      </trkpt>
      <trkpt lat="50.43519" lon="3.34058">
        <ele>-5.4</ele>
        <time>2023-08-06T06:58:30Z</time>
      </trkpt>
      <trkpt lat="50.43519" lon="3.34058">
        <ele>-5.4</ele>
        <time>2023-08-06T06:58:31Z</time>
      </trkpt>
      <trkpt lat="50.43534" lon="3.34083">
        <ele>-5.4</ele>
        <time>2023-08-06T06:58:34Z</time>
      </trkpt>
      <trkpt lat="50.43541" lon="3.341">
        <ele>-5.2</ele>
        <time>2023-08-06T06:58:37Z</time>
      </trkpt>
      <trkpt lat="50.43543" lon="3.34106">
        <ele>-5.2</ele>
        <time>2023-08-06T06:58:38Z</time>
      </trkpt>
      <trkpt lat="50.43545" lon="3.34114">
        <ele>-5.2</ele>
        <time>2023-08-06T06:58:39Z</time>
      </trkpt>
      <trkpt lat="50.43546" lon="3.34123">
        <ele>-5.2</ele>
        <time>2023-08-06T06:58:40Z</time>
      </trkpt>
      <trkpt lat="50.43542" lon="3.34142">
        <ele>-5.2</ele>
        <time>2023-08-06T06:58:41Z</time>
      </trkpt>
      <trkpt lat="50.43542" lon="3.34142">
        <ele>-5.2</ele>
        <time>2023-08-06T06:58:42Z</time>
      </trkpt>
      <trkpt lat="50.43539" lon="3.3415">
        <ele>-5.2</ele>
        <time>2023-08-06T06:58:43Z</time>
      </trkpt>
      <trkpt lat="50.43537" lon="3.34157">
        <ele>-5.2</ele>
        <time>2023-08-06T06:58:44Z</time>
      </trkpt>
      <trkpt lat="50.43529" lon="3.34171">
        <ele>-5.2</ele>
        <time>2023-08-06T06:58:45Z</time>
      </trkpt>
      <trkpt lat="50.43525" lon="3.34178">
        <ele>-5.2</ele>
        <time>2023-08-06T06:58:46Z</time>
      </trkpt>
      <trkpt lat="50.43525" lon="3.34178">
        <ele>-5.2</ele>
        <time>2023-08-06T06:58:47Z</time>
      </trkpt>
      <trkpt lat="50.43485" lon="3.34234">
        <ele>-5.4</ele>
        <time>2023-08-06T06:58:55Z</time>
      </trkpt>
      <trkpt lat="50.4345" lon="3.34272">
        <ele>-5.4</ele>
        <time>2023-08-06T06:59:02Z</time>
      </trkpt>
      <trkpt lat="50.43441" lon="3.34281">
        <ele>-5.2</ele>
        <time>2023-08-06T06:59:05Z</time>
      </trkpt>
      <trkpt lat="50.43433" lon="3.34292">
        <ele>-5</ele>
        <time>2023-08-06T06:59:06Z</time>
      </trkpt>
      <trkpt lat="50.43429" lon="3.343">
        <ele>-5</ele>
        <time>2023-08-06T06:59:07Z</time>
      </trkpt>
      <trkpt lat="50.43429" lon="3.343">
        <ele>-5.2</ele>
        <time>2023-08-06T06:59:08Z</time>
      </trkpt>
      <trkpt lat="50.43427" lon="3.34307">
        <ele>-5</ele>
        <time>2023-08-06T06:59:09Z</time>
      </trkpt>
      <trkpt lat="50.43426" lon="3.34313">
        <ele>-5</ele>
        <time>2023-08-06T06:59:10Z</time>
      </trkpt>
      <trkpt lat="50.43426" lon="3.34329">
        <ele>-5</ele>
        <time>2023-08-06T06:59:11Z</time>
      </trkpt>
      <trkpt lat="50.43426" lon="3.34329">
        <ele>-5</ele>
        <time>2023-08-06T06:59:12Z</time>
      </trkpt>
      <trkpt lat="50.43426" lon="3.34347">
        <ele>-5</ele>
        <time>2023-08-06T06:59:13Z</time>
      </trkpt>
      <trkpt lat="50.43426" lon="3.34347">
        <ele>-5</ele>
        <time>2023-08-06T06:59:14Z</time>
      </trkpt>
      <trkpt lat="50.43426" lon="3.34356">
        <ele>-5</ele>
        <time>2023-08-06T06:59:15Z</time>
      </trkpt>
      <trkpt lat="50.43426" lon="3.34362">
        <ele>-5</ele>
        <time>2023-08-06T06:59:16Z</time>
      </trkpt>
      <trkpt lat="50.43426" lon="3.34398">
        <ele>-5</ele>
        <time>2023-08-06T06:59:20Z</time>
      </trkpt>
      <trkpt lat="50.43427" lon="3.34422">
        <ele>-4.8</ele>
        <time>2023-08-06T06:59:22Z</time>
      </trkpt>
      <trkpt lat="50.43426" lon="3.34466">
        <ele>-5</ele>
        <time>2023-08-06T06:59:27Z</time>
      </trkpt>
      <trkpt lat="50.43425" lon="3.34502">
        <ele>-5</ele>
        <time>2023-08-06T06:59:32Z</time>
      </trkpt>
      <trkpt lat="50.43429" lon="3.34529">
        <ele>-5</ele>
        <time>2023-08-06T06:59:34Z</time>
      </trkpt>
      <trkpt lat="50.43438" lon="3.34567">
        <ele>-5</ele>
        <time>2023-08-06T06:59:39Z</time>
      </trkpt>
      <trkpt lat="50.43438" lon="3.34567">
        <ele>-5</ele>
        <time>2023-08-06T06:59:40Z</time>
      </trkpt>
      <trkpt lat="50.43446" lon="3.34598">
        <ele>-5.2</ele>
        <time>2023-08-06T06:59:43Z</time>
      </trkpt>
      <trkpt lat="50.43446" lon="3.34598">
        <ele>-5.2</ele>
        <time>2023-08-06T06:59:44Z</time>
      </trkpt>
      <trkpt lat="50.43449" lon="3.34617">
        <ele>-5.2</ele>
        <time>2023-08-06T06:59:45Z</time>
      </trkpt>
      <trkpt lat="50.43456" lon="3.34659">
        <ele>-5.2</ele>
        <time>2023-08-06T06:59:50Z</time>
      </trkpt>
      <trkpt lat="50.43464" lon="3.34691">
        <ele>-5.4</ele>
        <time>2023-08-06T06:59:54Z</time>
      </trkpt>
      <trkpt lat="50.4347" lon="3.34706">
        <ele>-5.6</ele>
        <time>2023-08-06T06:59:57Z</time>
      </trkpt>
      <trkpt lat="50.43473" lon="3.34714">
        <ele>-5.8</ele>
        <time>2023-08-06T06:59:58Z</time>
      </trkpt>
      <trkpt lat="50.4348" lon="3.34728">
        <ele>-5.8</ele>
        <time>2023-08-06T06:59:59Z</time>
      </trkpt>
      <trkpt lat="50.43487" lon="3.34743">
        <ele>-5.8</ele>
        <time>2023-08-06T07:00:02Z</time>
      </trkpt>
      <trkpt lat="50.4349" lon="3.3475">
        <ele>-5.8</ele>
        <time>2023-08-06T07:00:03Z</time>
      </trkpt>
      <trkpt lat="50.43493" lon="3.34756">
        <ele>-5.8</ele>
        <time>2023-08-06T07:00:04Z</time>
      </trkpt>
      <trkpt lat="50.43497" lon="3.34763">
        <ele>-5.8</ele>
        <time>2023-08-06T07:00:05Z</time>
      </trkpt>
      <trkpt lat="50.43522" lon="3.34816">
        <ele>-5.8</ele>
        <time>2023-08-06T07:00:11Z</time>
      </trkpt>
      <trkpt lat="50.43525" lon="3.34824">
        <ele>-5.8</ele>
        <time>2023-08-06T07:00:13Z</time>
      </trkpt>
      <trkpt lat="50.43527" lon="3.3483">
        <ele>-5.6</ele>
        <time>2023-08-06T07:00:14Z</time>
      </trkpt>
      <trkpt lat="50.43529" lon="3.34858">
        <ele>-5.6</ele>
        <time>2023-08-06T07:00:16Z</time>
      </trkpt>
      <trkpt lat="50.43529" lon="3.34858">
        <ele>-5.6</ele>
        <time>2023-08-06T07:00:17Z</time>
      </trkpt>
      <trkpt lat="50.43529" lon="3.34867">
        <ele>-5.6</ele>
        <time>2023-08-06T07:00:18Z</time>
      </trkpt>
      <trkpt lat="50.43528" lon="3.34874">
        <ele>-5.6</ele>
        <time>2023-08-06T07:00:19Z</time>
      </trkpt>
      <trkpt lat="50.43525" lon="3.34891">
        <ele>-5.6</ele>
        <time>2023-08-06T07:00:20Z</time>
      </trkpt>
      <trkpt lat="50.43518" lon="3.34907">
        <ele>-5.6</ele>
        <time>2023-08-06T07:00:22Z</time>
      </trkpt>
      <trkpt lat="50.43518" lon="3.34907">
        <ele>-5.6</ele>
        <time>2023-08-06T07:00:23Z</time>
      </trkpt>
      <trkpt lat="50.43513" lon="3.34913">
        <ele>-5.6</ele>
        <time>2023-08-06T07:00:24Z</time>
      </trkpt>
      <trkpt lat="50.435" lon="3.34929">
        <ele>-5.6</ele>
        <time>2023-08-06T07:00:26Z</time>
      </trkpt>
      <trkpt lat="50.43494" lon="3.34935">
        <ele>-5.4</ele>
        <time>2023-08-06T07:00:27Z</time>
      </trkpt>
      <trkpt lat="50.43485" lon="3.34946">
        <ele>-5.4</ele>
        <time>2023-08-06T07:00:30Z</time>
      </trkpt>
      <trkpt lat="50.43476" lon="3.34958">
        <ele>-5.4</ele>
        <time>2023-08-06T07:00:31Z</time>
      </trkpt>
      <trkpt lat="50.4347" lon="3.34975">
        <ele>-5.4</ele>
        <time>2023-08-06T07:00:34Z</time>
      </trkpt>
      <trkpt lat="50.43469" lon="3.35001">
        <ele>-5.2</ele>
        <time>2023-08-06T07:00:36Z</time>
      </trkpt>
      <trkpt lat="50.43469" lon="3.35001">
        <ele>-5.2</ele>
        <time>2023-08-06T07:00:37Z</time>
      </trkpt>
      <trkpt lat="50.4347" lon="3.35022">
        <ele>-5.2</ele>
        <time>2023-08-06T07:00:38Z</time>
      </trkpt>
      <trkpt lat="50.4347" lon="3.35022">
        <ele>-5.2</ele>
        <time>2023-08-06T07:00:39Z</time>
      </trkpt>
      <trkpt lat="50.43472" lon="3.35056">
        <ele>-5.4</ele>
        <time>2023-08-06T07:00:42Z</time>
      </trkpt>
      <trkpt lat="50.43473" lon="3.35067">
        <ele>-5.4</ele>
        <time>2023-08-06T07:00:44Z</time>
      </trkpt>
      <trkpt lat="50.43475" lon="3.35083">
        <ele>-5.4</ele>
        <time>2023-08-06T07:00:46Z</time>
      </trkpt>
      <trkpt lat="50.43476" lon="3.35101">
        <ele>-5.4</ele>
        <time>2023-08-06T07:00:47Z</time>
      </trkpt>
      <trkpt lat="50.43477" lon="3.35112">
        <ele>-5.4</ele>
        <time>2023-08-06T07:00:48Z</time>
      </trkpt>
      <trkpt lat="50.43475" lon="3.35147">
        <ele>-5.4</ele>
        <time>2023-08-06T07:00:52Z</time>
      </trkpt>
      <trkpt lat="50.43472" lon="3.35168">
        <ele>-5.4</ele>
        <time>2023-08-06T07:00:54Z</time>
      </trkpt>
      <trkpt lat="50.4346" lon="3.35211">
        <ele>-5.4</ele>
        <time>2023-08-06T07:01:00Z</time>
      </trkpt>
      <trkpt lat="50.43441" lon="3.35249">
        <ele>-5.6</ele>
        <time>2023-08-06T07:01:05Z</time>
      </trkpt>
      <trkpt lat="50.43432" lon="3.35262">
        <ele>-5.6</ele>
        <time>2023-08-06T07:01:06Z</time>
      </trkpt>
      <trkpt lat="50.43412" lon="3.35282">
        <ele>-5.6</ele>
        <time>2023-08-06T07:01:10Z</time>
      </trkpt>
      <trkpt lat="50.43402" lon="3.35292">
        <ele>-5.6</ele>
        <time>2023-08-06T07:01:12Z</time>
      </trkpt>
      <trkpt lat="50.43361" lon="3.35327">
        <ele>-5.4</ele>
        <time>2023-08-06T07:01:20Z</time>
      </trkpt>
      <trkpt lat="50.43316" lon="3.35371">
        <ele>-5.4</ele>
        <time>2023-08-06T07:01:29Z</time>
      </trkpt>
      <trkpt lat="50.43272" lon="3.35422">
        <ele>-5.2</ele>
        <time>2023-08-06T07:01:38Z</time>
      </trkpt>
      <trkpt lat="50.43257" lon="3.35439">
        <ele>-5.2</ele>
        <time>2023-08-06T07:01:41Z</time>
      </trkpt>
      <trkpt lat="50.43252" lon="3.35444">
        <ele>-5.2</ele>
        <time>2023-08-06T07:01:42Z</time>
      </trkpt>
      <trkpt lat="50.43234" lon="3.35455">
        <ele>-5</ele>
        <time>2023-08-06T07:01:45Z</time>
      </trkpt>
      <trkpt lat="50.43197" lon="3.35461">
        <ele>-5</ele>
        <time>2023-08-06T07:01:51Z</time>
      </trkpt>
      <trkpt lat="50.43185" lon="3.35461">
        <ele>-4.8</ele>
        <time>2023-08-06T07:01:53Z</time>
      </trkpt>
      <trkpt lat="50.43179" lon="3.35462">
        <ele>-4.8</ele>
        <time>2023-08-06T07:01:54Z</time>
      </trkpt>
      <trkpt lat="50.43143" lon="3.35464">
        <ele>-4.8</ele>
        <time>2023-08-06T07:02:00Z</time>
      </trkpt>
      <trkpt lat="50.43125" lon="3.35467">
        <ele>-4.8</ele>
        <time>2023-08-06T07:02:03Z</time>
      </trkpt>
      <trkpt lat="50.43068" lon="3.35477">
        <ele>-5</ele>
        <time>2023-08-06T07:02:12Z</time>
      </trkpt>
      <trkpt lat="50.43056" lon="3.3548">
        <ele>-5.2</ele>
        <time>2023-08-06T07:02:14Z</time>
      </trkpt>
      <trkpt lat="50.43032" lon="3.35485">
        <ele>-5.4</ele>
        <time>2023-08-06T07:02:18Z</time>
      </trkpt>
      <trkpt lat="50.43026" lon="3.35486">
        <ele>-5.4</ele>
        <time>2023-08-06T07:02:19Z</time>
      </trkpt>
      <trkpt lat="50.43019" lon="3.35488">
        <ele>-5.4</ele>
        <time>2023-08-06T07:02:20Z</time>
      </trkpt>
      <trkpt lat="50.43015" lon="3.3549">
        <ele>-5.4</ele>
        <time>2023-08-06T07:02:21Z</time>
      </trkpt>
      <trkpt lat="50.43009" lon="3.35491">
        <ele>-5.4</ele>
        <time>2023-08-06T07:02:22Z</time>
      </trkpt>
      <trkpt lat="50.43003" lon="3.35493">
        <ele>-5.4</ele>
        <time>2023-08-06T07:02:23Z</time>
      </trkpt>
      <trkpt lat="50.42951" lon="3.3551">
        <ele>-5.8</ele>
        <time>2023-08-06T07:02:32Z</time>
      </trkpt>
      <trkpt lat="50.42941" lon="3.35518">
        <ele>-5.8</ele>
        <time>2023-08-06T07:02:34Z</time>
      </trkpt>
      <trkpt lat="50.42936" lon="3.35522">
        <ele>-5.8</ele>
        <time>2023-08-06T07:02:35Z</time>
      </trkpt>
      <trkpt lat="50.42931" lon="3.35527">
        <ele>-5.8</ele>
        <time>2023-08-06T07:02:36Z</time>
      </trkpt>
      <trkpt lat="50.42927" lon="3.35531">
        <ele>-5.8</ele>
        <time>2023-08-06T07:02:37Z</time>
      </trkpt>
      <trkpt lat="50.42923" lon="3.35536">
        <ele>-5.8</ele>
        <time>2023-08-06T07:02:38Z</time>
      </trkpt>
      <trkpt lat="50.42919" lon="3.35541">
        <ele>-5.6</ele>
        <time>2023-08-06T07:02:39Z</time>
      </trkpt>
      <trkpt lat="50.42915" lon="3.35546">
        <ele>-5.6</ele>
        <time>2023-08-06T07:02:40Z</time>
      </trkpt>
      <trkpt lat="50.42911" lon="3.35552">
        <ele>-5.6</ele>
        <time>2023-08-06T07:02:41Z</time>
      </trkpt>
      <trkpt lat="50.42908" lon="3.35558">
        <ele>-5.4</ele>
        <time>2023-08-06T07:02:42Z</time>
      </trkpt>
      <trkpt lat="50.42905" lon="3.35564">
        <ele>-5.4</ele>
        <time>2023-08-06T07:02:43Z</time>
      </trkpt>
      <trkpt lat="50.42903" lon="3.35572">
        <ele>-5.2</ele>
        <time>2023-08-06T07:02:44Z</time>
      </trkpt>
      <trkpt lat="50.42902" lon="3.3558">
        <ele>-5.2</ele>
        <time>2023-08-06T07:02:45Z</time>
      </trkpt>
      <trkpt lat="50.42901" lon="3.35588">
        <ele>-5.2</ele>
        <time>2023-08-06T07:02:46Z</time>
      </trkpt>
      <trkpt lat="50.429" lon="3.35596">
        <ele>-5</ele>
        <time>2023-08-06T07:02:47Z</time>
      </trkpt>
      <trkpt lat="50.42898" lon="3.35612">
        <ele>-5</ele>
        <time>2023-08-06T07:02:49Z</time>
      </trkpt>
      <trkpt lat="50.42895" lon="3.35636">
        <ele>-5</ele>
        <time>2023-08-06T07:02:52Z</time>
      </trkpt>
      <trkpt lat="50.42891" lon="3.35659">
        <ele>-5</ele>
        <time>2023-08-06T07:02:55Z</time>
      </trkpt>
      <trkpt lat="50.42889" lon="3.35684">
        <ele>-4.8</ele>
        <time>2023-08-06T07:02:58Z</time>
      </trkpt>
      <trkpt lat="50.42878" lon="3.35759">
        <ele>-5</ele>
        <time>2023-08-06T07:03:07Z</time>
      </trkpt>
      <trkpt lat="50.42868" lon="3.35828">
        <ele>-5.2</ele>
        <time>2023-08-06T07:03:15Z</time>
      </trkpt>
      <trkpt lat="50.42856" lon="3.35916">
        <ele>-5.8</ele>
        <time>2023-08-06T07:03:25Z</time>
      </trkpt>
      <trkpt lat="50.42853" lon="3.35952">
        <ele>-5.8</ele>
        <time>2023-08-06T07:03:29Z</time>
      </trkpt>
      <trkpt lat="50.42855" lon="3.35969">
        <ele>-5.8</ele>
        <time>2023-08-06T07:03:31Z</time>
      </trkpt>
      <trkpt lat="50.42857" lon="3.35985">
        <ele>-6</ele>
        <time>2023-08-06T07:03:33Z</time>
      </trkpt>
      <trkpt lat="50.42858" lon="3.35992">
        <ele>-6</ele>
        <time>2023-08-06T07:03:34Z</time>
      </trkpt>
      <trkpt lat="50.42859" lon="3.36001">
        <ele>-6</ele>
        <time>2023-08-06T07:03:35Z</time>
      </trkpt>
      <trkpt lat="50.4286" lon="3.36007">
        <ele>-6</ele>
        <time>2023-08-06T07:03:36Z</time>
      </trkpt>
      <trkpt lat="50.42861" lon="3.36015">
        <ele>-6</ele>
        <time>2023-08-06T07:03:37Z</time>
      </trkpt>
      <trkpt lat="50.42862" lon="3.36022">
        <ele>-6</ele>
        <time>2023-08-06T07:03:38Z</time>
      </trkpt>
      <trkpt lat="50.42864" lon="3.3603">
        <ele>-6</ele>
        <time>2023-08-06T07:03:39Z</time>
      </trkpt>
      <trkpt lat="50.42864" lon="3.36037">
        <ele>-6</ele>
        <time>2023-08-06T07:03:40Z</time>
      </trkpt>
      <trkpt lat="50.42865" lon="3.36044">
        <ele>-6</ele>
        <time>2023-08-06T07:03:41Z</time>
      </trkpt>
      <trkpt lat="50.42866" lon="3.36051">
        <ele>-6</ele>
        <time>2023-08-06T07:03:42Z</time>
      </trkpt>
      <trkpt lat="50.42867" lon="3.36059">
        <ele>-6</ele>
        <time>2023-08-06T07:03:43Z</time>
      </trkpt>
      <trkpt lat="50.42868" lon="3.36066">
        <ele>-6.2</ele>
        <time>2023-08-06T07:03:44Z</time>
      </trkpt>
      <trkpt lat="50.42869" lon="3.36074">
        <ele>-6.2</ele>
        <time>2023-08-06T07:03:45Z</time>
      </trkpt>
      <trkpt lat="50.42874" lon="3.3611">
        <ele>-6.6</ele>
        <time>2023-08-06T07:03:50Z</time>
      </trkpt>
      <trkpt lat="50.42875" lon="3.36117">
        <ele>-6.8</ele>
        <time>2023-08-06T07:03:51Z</time>
      </trkpt>
      <trkpt lat="50.42877" lon="3.36132">
        <ele>-7</ele>
        <time>2023-08-06T07:03:53Z</time>
      </trkpt>
      <trkpt lat="50.42879" lon="3.36146">
        <ele>-7.2</ele>
        <time>2023-08-06T07:03:55Z</time>
      </trkpt>
      <trkpt lat="50.4289" lon="3.36228">
        <ele>-7.2</ele>
        <time>2023-08-06T07:04:06Z</time>
      </trkpt>
      <trkpt lat="50.42897" lon="3.36279">
        <ele>-7.2</ele>
        <time>2023-08-06T07:04:13Z</time>
      </trkpt>
      <trkpt lat="50.42898" lon="3.36286">
        <ele>-7</ele>
        <time>2023-08-06T07:04:14Z</time>
      </trkpt>
      <trkpt lat="50.429" lon="3.363">
        <ele>-6.8</ele>
        <time>2023-08-06T07:04:16Z</time>
      </trkpt>
      <trkpt lat="50.42901" lon="3.36307">
        <ele>-6.8</ele>
        <time>2023-08-06T07:04:17Z</time>
      </trkpt>
      <trkpt lat="50.42902" lon="3.36314">
        <ele>-6.6</ele>
        <time>2023-08-06T07:04:18Z</time>
      </trkpt>
      <trkpt lat="50.42903" lon="3.36321">
        <ele>-6.6</ele>
        <time>2023-08-06T07:04:19Z</time>
      </trkpt>
      <trkpt lat="50.42904" lon="3.36328">
        <ele>-6.4</ele>
        <time>2023-08-06T07:04:20Z</time>
      </trkpt>
      <trkpt lat="50.42905" lon="3.36335">
        <ele>-6.2</ele>
        <time>2023-08-06T07:04:21Z</time>
      </trkpt>
      <trkpt lat="50.42906" lon="3.36342">
        <ele>-6.2</ele>
        <time>2023-08-06T07:04:22Z</time>
      </trkpt>
      <trkpt lat="50.42907" lon="3.36348">
        <ele>-6.2</ele>
        <time>2023-08-06T07:04:23Z</time>
      </trkpt>
      <trkpt lat="50.42907" lon="3.36355">
        <ele>-6.2</ele>
        <time>2023-08-06T07:04:24Z</time>
      </trkpt>
      <trkpt lat="50.42908" lon="3.36363">
        <ele>-6</ele>
        <time>2023-08-06T07:04:25Z</time>
      </trkpt>
      <trkpt lat="50.4291" lon="3.36377">
        <ele>-5.8</ele>
        <time>2023-08-06T07:04:27Z</time>
      </trkpt>
      <trkpt lat="50.42911" lon="3.36384">
        <ele>-5.6</ele>
        <time>2023-08-06T07:04:28Z</time>
      </trkpt>
      <trkpt lat="50.42917" lon="3.36438">
        <ele>-5.6</ele>
        <time>2023-08-06T07:04:36Z</time>
      </trkpt>
      <trkpt lat="50.42919" lon="3.36451">
        <ele>-5.6</ele>
        <time>2023-08-06T07:04:38Z</time>
      </trkpt>
      <trkpt lat="50.4292" lon="3.36457">
        <ele>-5.6</ele>
        <time>2023-08-06T07:04:39Z</time>
      </trkpt>
      <trkpt lat="50.42923" lon="3.36484">
        <ele>-5.2</ele>
        <time>2023-08-06T07:04:43Z</time>
      </trkpt>
      <trkpt lat="50.42924" lon="3.3649">
        <ele>-5.2</ele>
        <time>2023-08-06T07:04:44Z</time>
      </trkpt>
      <trkpt lat="50.42925" lon="3.36497">
        <ele>-5</ele>
        <time>2023-08-06T07:04:45Z</time>
      </trkpt>
      <trkpt lat="50.42927" lon="3.36516">
        <ele>-5</ele>
        <time>2023-08-06T07:04:48Z</time>
      </trkpt>
      <trkpt lat="50.42928" lon="3.36522">
        <ele>-4.8</ele>
        <time>2023-08-06T07:04:49Z</time>
      </trkpt>
      <trkpt lat="50.42929" lon="3.36528">
        <ele>-4.6</ele>
        <time>2023-08-06T07:04:50Z</time>
      </trkpt>
      <trkpt lat="50.4293" lon="3.36534">
        <ele>-4.8</ele>
        <time>2023-08-06T07:04:51Z</time>
      </trkpt>
      <trkpt lat="50.42932" lon="3.36553">
        <ele>-4.6</ele>
        <time>2023-08-06T07:04:54Z</time>
      </trkpt>
      <trkpt lat="50.4294" lon="3.36611">
        <ele>-4.8</ele>
        <time>2023-08-06T07:05:03Z</time>
      </trkpt>
      <trkpt lat="50.4295" lon="3.36683">
        <ele>-5.2</ele>
        <time>2023-08-06T07:05:14Z</time>
      </trkpt>
      <trkpt lat="50.4295" lon="3.3669">
        <ele>-5.2</ele>
        <time>2023-08-06T07:05:15Z</time>
      </trkpt>
      <trkpt lat="50.42951" lon="3.36696">
        <ele>-5.2</ele>
        <time>2023-08-06T07:05:16Z</time>
      </trkpt>
      <trkpt lat="50.42952" lon="3.36702">
        <ele>-5.2</ele>
        <time>2023-08-06T07:05:17Z</time>
      </trkpt>
      <trkpt lat="50.42953" lon="3.36709">
        <ele>-5.2</ele>
        <time>2023-08-06T07:05:18Z</time>
      </trkpt>
      <trkpt lat="50.42958" lon="3.36748">
        <ele>-5.2</ele>
        <time>2023-08-06T07:05:24Z</time>
      </trkpt>
      <trkpt lat="50.42967" lon="3.36822">
        <ele>-5.6</ele>
        <time>2023-08-06T07:05:35Z</time>
      </trkpt>
      <trkpt lat="50.42976" lon="3.36883">
        <ele>-5.4</ele>
        <time>2023-08-06T07:05:44Z</time>
      </trkpt>
      <trkpt lat="50.42979" lon="3.3691">
        <ele>-5.4</ele>
        <time>2023-08-06T07:05:48Z</time>
      </trkpt>
      <trkpt lat="50.42981" lon="3.36925">
        <ele>-5.6</ele>
        <time>2023-08-06T07:05:50Z</time>
      </trkpt>
      <trkpt lat="50.42983" lon="3.36938">
        <ele>-5.6</ele>
        <time>2023-08-06T07:05:52Z</time>
      </trkpt>
      <trkpt lat="50.42985" lon="3.36951">
        <ele>-5.6</ele>
        <time>2023-08-06T07:05:54Z</time>
      </trkpt>
      <trkpt lat="50.42989" lon="3.36985">
        <ele>-6</ele>
        <time>2023-08-06T07:05:59Z</time>
      </trkpt>
      <trkpt lat="50.42991" lon="3.37007">
        <ele>-6</ele>
        <time>2023-08-06T07:06:02Z</time>
      </trkpt>
      <trkpt lat="50.42997" lon="3.37047">
        <ele>-5.8</ele>
        <time>2023-08-06T07:06:08Z</time>
      </trkpt>
      <trkpt lat="50.43" lon="3.37074">
        <ele>-5.8</ele>
        <time>2023-08-06T07:06:12Z</time>
      </trkpt>
      <trkpt lat="50.43001" lon="3.37081">
        <ele>-5.8</ele>
        <time>2023-08-06T07:06:13Z</time>
      </trkpt>
      <trkpt lat="50.43002" lon="3.37087">
        <ele>-5.8</ele>
        <time>2023-08-06T07:06:14Z</time>
      </trkpt>
      <trkpt lat="50.43007" lon="3.37128">
        <ele>-6.2</ele>
        <time>2023-08-06T07:06:20Z</time>
      </trkpt>
      <trkpt lat="50.43016" lon="3.37197">
        <ele>-6.8</ele>
        <time>2023-08-06T07:06:30Z</time>
      </trkpt>
      <trkpt lat="50.43017" lon="3.37204">
        <ele>-6.8</ele>
        <time>2023-08-06T07:06:31Z</time>
      </trkpt>
      <trkpt lat="50.4302" lon="3.37231">
        <ele>-6.6</ele>
        <time>2023-08-06T07:06:35Z</time>
      </trkpt>
      <trkpt lat="50.43021" lon="3.37238">
        <ele>-6.6</ele>
        <time>2023-08-06T07:06:36Z</time>
      </trkpt>
      <trkpt lat="50.43022" lon="3.37244">
        <ele>-6.6</ele>
        <time>2023-08-06T07:06:37Z</time>
      </trkpt>
      <trkpt lat="50.43023" lon="3.37251">
        <ele>-6.6</ele>
        <time>2023-08-06T07:06:38Z</time>
      </trkpt>
      <trkpt lat="50.43023" lon="3.37257">
        <ele>-6.6</ele>
        <time>2023-08-06T07:06:39Z</time>
      </trkpt>
      <trkpt lat="50.43024" lon="3.37264">
        <ele>-6.2</ele>
        <time>2023-08-06T07:06:40Z</time>
      </trkpt>
      <trkpt lat="50.43025" lon="3.3727">
        <ele>-6.2</ele>
        <time>2023-08-06T07:06:41Z</time>
      </trkpt>
      <trkpt lat="50.43026" lon="3.37283">
        <ele>-6</ele>
        <time>2023-08-06T07:06:43Z</time>
      </trkpt>
      <trkpt lat="50.43027" lon="3.3729">
        <ele>-6</ele>
        <time>2023-08-06T07:06:44Z</time>
      </trkpt>
      <trkpt lat="50.43028" lon="3.37296">
        <ele>-6</ele>
        <time>2023-08-06T07:06:45Z</time>
      </trkpt>
      <trkpt lat="50.43028" lon="3.37303">
        <ele>-6</ele>
        <time>2023-08-06T07:06:46Z</time>
      </trkpt>
      <trkpt lat="50.43029" lon="3.3731">
        <ele>-6</ele>
        <time>2023-08-06T07:06:47Z</time>
      </trkpt>
      <trkpt lat="50.43036" lon="3.37369">
        <ele>-6.2</ele>
        <time>2023-08-06T07:06:56Z</time>
      </trkpt>
      <trkpt lat="50.43038" lon="3.37382">
        <ele>-6.2</ele>
        <time>2023-08-06T07:06:58Z</time>
      </trkpt>
      <trkpt lat="50.43039" lon="3.37388">
        <ele>-6.2</ele>
        <time>2023-08-06T07:06:59Z</time>
      </trkpt>
      <trkpt lat="50.43041" lon="3.37408">
        <ele>-6.2</ele>
        <time>2023-08-06T07:07:02Z</time>
      </trkpt>
      <trkpt lat="50.43046" lon="3.37441">
        <ele>-6</ele>
        <time>2023-08-06T07:07:07Z</time>
      </trkpt>
      <trkpt lat="50.43057" lon="3.37525">
        <ele>-6</ele>
        <time>2023-08-06T07:07:19Z</time>
      </trkpt>
      <trkpt lat="50.43065" lon="3.37589">
        <ele>-6.6</ele>
        <time>2023-08-06T07:07:28Z</time>
      </trkpt>
      <trkpt lat="50.43069" lon="3.37617">
        <ele>-7</ele>
        <time>2023-08-06T07:07:32Z</time>
      </trkpt>
      <trkpt lat="50.4307" lon="3.37623">
        <ele>-7.2</ele>
        <time>2023-08-06T07:07:33Z</time>
      </trkpt>
      <trkpt lat="50.4307" lon="3.3763">
        <ele>-7.2</ele>
        <time>2023-08-06T07:07:34Z</time>
      </trkpt>
      <trkpt lat="50.43071" lon="3.37637">
        <ele>-7.4</ele>
        <time>2023-08-06T07:07:35Z</time>
      </trkpt>
      <trkpt lat="50.43076" lon="3.37666">
        <ele>-7.6</ele>
        <time>2023-08-06T07:07:39Z</time>
      </trkpt>
      <trkpt lat="50.43085" lon="3.37735">
        <ele>-6.6</ele>
        <time>2023-08-06T07:07:49Z</time>
      </trkpt>
      <trkpt lat="50.43086" lon="3.37742">
        <ele>-6.6</ele>
        <time>2023-08-06T07:07:50Z</time>
      </trkpt>
      <trkpt lat="50.43087" lon="3.37749">
        <ele>-6.4</ele>
        <time>2023-08-06T07:07:51Z</time>
      </trkpt>
      <trkpt lat="50.43087" lon="3.37755">
        <ele>-6.4</ele>
        <time>2023-08-06T07:07:52Z</time>
      </trkpt>
      <trkpt lat="50.43089" lon="3.37764">
        <ele>-6.4</ele>
        <time>2023-08-06T07:07:53Z</time>
      </trkpt>
      <trkpt lat="50.43089" lon="3.37769">
        <ele>-6.4</ele>
        <time>2023-08-06T07:07:54Z</time>
      </trkpt>
      <trkpt lat="50.43093" lon="3.37797">
        <ele>-6.4</ele>
        <time>2023-08-06T07:07:58Z</time>
      </trkpt>
      <trkpt lat="50.43103" lon="3.37877">
        <ele>-6.2</ele>
        <time>2023-08-06T07:08:10Z</time>
      </trkpt>
      <trkpt lat="50.43104" lon="3.37884">
        <ele>-6.2</ele>
        <time>2023-08-06T07:08:11Z</time>
      </trkpt>
      <trkpt lat="50.43105" lon="3.3789">
        <ele>-6.2</ele>
        <time>2023-08-06T07:08:12Z</time>
      </trkpt>
      <trkpt lat="50.43106" lon="3.37896">
        <ele>-6.2</ele>
        <time>2023-08-06T07:08:13Z</time>
      </trkpt>
      <trkpt lat="50.43106" lon="3.37903">
        <ele>-6.2</ele>
        <time>2023-08-06T07:08:14Z</time>
      </trkpt>
      <trkpt lat="50.43107" lon="3.37909">
        <ele>-6.2</ele>
        <time>2023-08-06T07:08:15Z</time>
      </trkpt>
      <trkpt lat="50.43108" lon="3.37916">
        <ele>-6.2</ele>
        <time>2023-08-06T07:08:16Z</time>
      </trkpt>
      <trkpt lat="50.43108" lon="3.37922">
        <ele>-6.2</ele>
        <time>2023-08-06T07:08:17Z</time>
      </trkpt>
      <trkpt lat="50.43109" lon="3.37929">
        <ele>-6.2</ele>
        <time>2023-08-06T07:08:18Z</time>
      </trkpt>
      <trkpt lat="50.43112" lon="3.37947">
        <ele>-6.2</ele>
        <time>2023-08-06T07:08:21Z</time>
      </trkpt>
      <trkpt lat="50.43114" lon="3.37952">
        <ele>-6.2</ele>
        <time>2023-08-06T07:08:22Z</time>
      </trkpt>
      <trkpt lat="50.43115" lon="3.37959">
        <ele>-6.2</ele>
        <time>2023-08-06T07:08:23Z</time>
      </trkpt>
      <trkpt lat="50.43116" lon="3.37965">
        <ele>-6.2</ele>
        <time>2023-08-06T07:08:24Z</time>
      </trkpt>
      <trkpt lat="50.43117" lon="3.37971">
        <ele>-6</ele>
        <time>2023-08-06T07:08:25Z</time>
      </trkpt>
      <trkpt lat="50.43117" lon="3.37979">
        <ele>-6</ele>
        <time>2023-08-06T07:08:26Z</time>
      </trkpt>
      <trkpt lat="50.4312" lon="3.37997">
        <ele>-6</ele>
        <time>2023-08-06T07:08:29Z</time>
      </trkpt>
      <trkpt lat="50.4312" lon="3.38019">
        <ele>-6</ele>
        <time>2023-08-06T07:08:32Z</time>
      </trkpt>
      <trkpt lat="50.43117" lon="3.3804">
        <ele>-6.2</ele>
        <time>2023-08-06T07:08:35Z</time>
      </trkpt>
      <trkpt lat="50.43115" lon="3.38047">
        <ele>-6.2</ele>
        <time>2023-08-06T07:08:36Z</time>
      </trkpt>
      <trkpt lat="50.43104" lon="3.38088">
        <ele>-6.2</ele>
        <time>2023-08-06T07:08:42Z</time>
      </trkpt>
      <trkpt lat="50.43102" lon="3.38095">
        <ele>-6.2</ele>
        <time>2023-08-06T07:08:43Z</time>
      </trkpt>
      <trkpt lat="50.43094" lon="3.38121">
        <ele>-5.8</ele>
        <time>2023-08-06T07:08:47Z</time>
      </trkpt>
      <trkpt lat="50.4309" lon="3.38134">
        <ele>-5.8</ele>
        <time>2023-08-06T07:08:49Z</time>
      </trkpt>
      <trkpt lat="50.43086" lon="3.38156">
        <ele>-5.6</ele>
        <time>2023-08-06T07:08:52Z</time>
      </trkpt>
      <trkpt lat="50.43078" lon="3.38185">
        <ele>-5.4</ele>
        <time>2023-08-06T07:08:56Z</time>
      </trkpt>
      <trkpt lat="50.43071" lon="3.38213">
        <ele>-5.4</ele>
        <time>2023-08-06T07:09:00Z</time>
      </trkpt>
      <trkpt lat="50.43063" lon="3.38237">
        <ele>-5.4</ele>
        <time>2023-08-06T07:09:03Z</time>
      </trkpt>
      <trkpt lat="50.43057" lon="3.38249">
        <ele>-5.6</ele>
        <time>2023-08-06T07:09:05Z</time>
      </trkpt>
      <trkpt lat="50.43054" lon="3.38255">
        <ele>-5.6</ele>
        <time>2023-08-06T07:09:06Z</time>
      </trkpt>
      <trkpt lat="50.4305" lon="3.38261">
        <ele>-5.6</ele>
        <time>2023-08-06T07:09:07Z</time>
      </trkpt>
      <trkpt lat="50.43031" lon="3.38278">
        <ele>-6.2</ele>
        <time>2023-08-06T07:09:11Z</time>
      </trkpt>
      <trkpt lat="50.43003" lon="3.38298">
        <ele>-6.4</ele>
        <time>2023-08-06T07:09:17Z</time>
      </trkpt>
      <trkpt lat="50.42998" lon="3.38301">
        <ele>-6.4</ele>
        <time>2023-08-06T07:09:18Z</time>
      </trkpt>
      <trkpt lat="50.42993" lon="3.38304">
        <ele>-6.4</ele>
        <time>2023-08-06T07:09:19Z</time>
      </trkpt>
      <trkpt lat="50.42988" lon="3.38307">
        <ele>-6.4</ele>
        <time>2023-08-06T07:09:20Z</time>
      </trkpt>
      <trkpt lat="50.42984" lon="3.3831">
        <ele>-6.2</ele>
        <time>2023-08-06T07:09:21Z</time>
      </trkpt>
      <trkpt lat="50.42979" lon="3.38314">
        <ele>-6.4</ele>
        <time>2023-08-06T07:09:22Z</time>
      </trkpt>
      <trkpt lat="50.42971" lon="3.38327">
        <ele>-6.4</ele>
        <time>2023-08-06T07:09:24Z</time>
      </trkpt>
      <trkpt lat="50.42946" lon="3.38367">
        <ele>-6.2</ele>
        <time>2023-08-06T07:09:31Z</time>
      </trkpt>
      <trkpt lat="50.4294" lon="3.38379">
        <ele>-6.2</ele>
        <time>2023-08-06T07:09:33Z</time>
      </trkpt>
      <trkpt lat="50.42926" lon="3.38402">
        <ele>-6.2</ele>
        <time>2023-08-06T07:09:37Z</time>
      </trkpt>
      <trkpt lat="50.42923" lon="3.38408">
        <ele>-6.2</ele>
        <time>2023-08-06T07:09:38Z</time>
      </trkpt>
      <trkpt lat="50.42919" lon="3.38414">
        <ele>-6.2</ele>
        <time>2023-08-06T07:09:39Z</time>
      </trkpt>
      <trkpt lat="50.42914" lon="3.38428">
        <ele>-6.2</ele>
        <time>2023-08-06T07:09:41Z</time>
      </trkpt>
      <trkpt lat="50.429" lon="3.38483">
        <ele>-6</ele>
        <time>2023-08-06T07:09:48Z</time>
      </trkpt>
      <trkpt lat="50.42884" lon="3.38536">
        <ele>-6.2</ele>
        <time>2023-08-06T07:09:55Z</time>
      </trkpt>
      <trkpt lat="50.42868" lon="3.38589">
        <ele>-6.2</ele>
        <time>2023-08-06T07:10:02Z</time>
      </trkpt>
      <trkpt lat="50.42865" lon="3.38596">
        <ele>-6.2</ele>
        <time>2023-08-06T07:10:03Z</time>
      </trkpt>
      <trkpt lat="50.42862" lon="3.38603">
        <ele>-6.2</ele>
        <time>2023-08-06T07:10:04Z</time>
      </trkpt>
      <trkpt lat="50.42854" lon="3.38613">
        <ele>-6.2</ele>
        <time>2023-08-06T07:10:06Z</time>
      </trkpt>
      <trkpt lat="50.42849" lon="3.38617">
        <ele>-6.2</ele>
        <time>2023-08-06T07:10:07Z</time>
      </trkpt>
      <trkpt lat="50.42844" lon="3.3862">
        <ele>-6.2</ele>
        <time>2023-08-06T07:10:08Z</time>
      </trkpt>
      <trkpt lat="50.42825" lon="3.38631">
        <ele>-6.2</ele>
        <time>2023-08-06T07:10:12Z</time>
      </trkpt>
      <trkpt lat="50.4282" lon="3.38642">
        <ele>-6.2</ele>
        <time>2023-08-06T07:10:14Z</time>
      </trkpt>
      <trkpt lat="50.42819" lon="3.38648">
        <ele>-6</ele>
        <time>2023-08-06T07:10:15Z</time>
      </trkpt>
      <trkpt lat="50.4282" lon="3.38656">
        <ele>-6</ele>
        <time>2023-08-06T07:10:16Z</time>
      </trkpt>
      <trkpt lat="50.42821" lon="3.38661">
        <ele>-5.8</ele>
        <time>2023-08-06T07:10:17Z</time>
      </trkpt>
      <trkpt lat="50.42821" lon="3.38667">
        <ele>-5.8</ele>
        <time>2023-08-06T07:10:18Z</time>
      </trkpt>
      <trkpt lat="50.42822" lon="3.38673">
        <ele>-5.8</ele>
        <time>2023-08-06T07:10:19Z</time>
      </trkpt>
      <trkpt lat="50.42822" lon="3.38679">
        <ele>-5.6</ele>
        <time>2023-08-06T07:10:20Z</time>
      </trkpt>
      <trkpt lat="50.42822" lon="3.38685">
        <ele>-5.6</ele>
        <time>2023-08-06T07:10:21Z</time>
      </trkpt>
      <trkpt lat="50.42822" lon="3.3869">
        <ele>-5.4</ele>
        <time>2023-08-06T07:10:22Z</time>
      </trkpt>
      <trkpt lat="50.42823" lon="3.38696">
        <ele>-5.4</ele>
        <time>2023-08-06T07:10:23Z</time>
      </trkpt>
      <trkpt lat="50.42823" lon="3.38702">
        <ele>-5.2</ele>
        <time>2023-08-06T07:10:24Z</time>
      </trkpt>
      <trkpt lat="50.42823" lon="3.38707">
        <ele>-5</ele>
        <time>2023-08-06T07:10:25Z</time>
      </trkpt>
      <trkpt lat="50.42824" lon="3.38713">
        <ele>-4.8</ele>
        <time>2023-08-06T07:10:26Z</time>
      </trkpt>
      <trkpt lat="50.42824" lon="3.38719">
        <ele>-4.6</ele>
        <time>2023-08-06T07:10:27Z</time>
      </trkpt>
      <trkpt lat="50.42825" lon="3.38725">
        <ele>-4.4</ele>
        <time>2023-08-06T07:10:28Z</time>
      </trkpt>
      <trkpt lat="50.42826" lon="3.3873">
        <ele>-4.2</ele>
        <time>2023-08-06T07:10:29Z</time>
      </trkpt>
      <trkpt lat="50.42826" lon="3.38751">
        <ele>-3.8</ele>
        <time>2023-08-06T07:10:33Z</time>
      </trkpt>
      <trkpt lat="50.42825" lon="3.38754">
        <ele>-3.6</ele>
        <time>2023-08-06T07:10:34Z</time>
      </trkpt>
      <trkpt lat="50.42824" lon="3.38758">
        <ele>-3.6</ele>
        <time>2023-08-06T07:10:35Z</time>
      </trkpt>
      <trkpt lat="50.42823" lon="3.38762">
        <ele>-3.6</ele>
        <time>2023-08-06T07:10:36Z</time>
      </trkpt>
      <trkpt lat="50.4282" lon="3.38764">
        <ele>-3.4</ele>
        <time>2023-08-06T07:10:37Z</time>
      </trkpt>
      <trkpt lat="50.42817" lon="3.38767">
        <ele>-3.4</ele>
        <time>2023-08-06T07:10:38Z</time>
      </trkpt>
      <trkpt lat="50.42814" lon="3.3877">
        <ele>-3.4</ele>
        <time>2023-08-06T07:10:39Z</time>
      </trkpt>
      <trkpt lat="50.42811" lon="3.38772">
        <ele>-3.4</ele>
        <time>2023-08-06T07:10:40Z</time>
      </trkpt>
      <trkpt lat="50.42808" lon="3.38775">
        <ele>-3.4</ele>
        <time>2023-08-06T07:10:41Z</time>
      </trkpt>
      <trkpt lat="50.42807" lon="3.38779">
        <ele>-3.4</ele>
        <time>2023-08-06T07:10:42Z</time>
      </trkpt>
      <trkpt lat="50.42806" lon="3.38784">
        <ele>-3.4</ele>
        <time>2023-08-06T07:10:43Z</time>
      </trkpt>
      <trkpt lat="50.42806" lon="3.38787">
        <ele>-3.4</ele>
        <time>2023-08-06T07:10:44Z</time>
      </trkpt>
      <trkpt lat="50.42805" lon="3.3879">
        <ele>-3.4</ele>
        <time>2023-08-06T07:10:45Z</time>
      </trkpt>
      <trkpt lat="50.42803" lon="3.38792">
        <ele>-3.4</ele>
        <time>2023-08-06T07:10:46Z</time>
      </trkpt>
      <trkpt lat="50.428" lon="3.38793">
        <ele>-3.4</ele>
        <time>2023-08-06T07:10:47Z</time>
      </trkpt>
      <trkpt lat="50.42795" lon="3.38797">
        <ele>-3.2</ele>
        <time>2023-08-06T07:10:49Z</time>
      </trkpt>
      <trkpt lat="50.42792" lon="3.388">
        <ele>-3.2</ele>
        <time>2023-08-06T07:10:50Z</time>
      </trkpt>
      <trkpt lat="50.42782" lon="3.38805">
        <ele>-3</ele>
        <time>2023-08-06T07:10:53Z</time>
      </trkpt>
      <trkpt lat="50.42763" lon="3.38815">
        <ele>-3.2</ele>
        <time>2023-08-06T07:10:58Z</time>
      </trkpt>
      <trkpt lat="50.42747" lon="3.38822">
        <ele>-3</ele>
        <time>2023-08-06T07:11:02Z</time>
      </trkpt>
      <trkpt lat="50.42717" lon="3.38834">
        <ele>-2.6</ele>
        <time>2023-08-06T07:11:09Z</time>
      </trkpt>
      <trkpt lat="50.42703" lon="3.38839">
        <ele>-2.6</ele>
        <time>2023-08-06T07:11:12Z</time>
      </trkpt>
      <trkpt lat="50.42659" lon="3.38858">
        <ele>-2.4</ele>
        <time>2023-08-06T07:11:21Z</time>
      </trkpt>
      <trkpt lat="50.42603" lon="3.38881">
        <ele>-2.8</ele>
        <time>2023-08-06T07:11:31Z</time>
      </trkpt>
      <trkpt lat="50.42563" lon="3.389">
        <ele>-3.2</ele>
        <time>2023-08-06T07:11:37Z</time>
      </trkpt>
      <trkpt lat="50.42537" lon="3.38917">
        <ele>-3.6</ele>
        <time>2023-08-06T07:11:41Z</time>
      </trkpt>
      <trkpt lat="50.42523" lon="3.38926">
        <ele>-4</ele>
        <time>2023-08-06T07:11:43Z</time>
      </trkpt>
      <trkpt lat="50.42478" lon="3.38967">
        <ele>-4.8</ele>
        <time>2023-08-06T07:11:50Z</time>
      </trkpt>
      <trkpt lat="50.42444" lon="3.39011">
        <ele>-5</ele>
        <time>2023-08-06T07:11:56Z</time>
      </trkpt>
      <trkpt lat="50.42439" lon="3.39019">
        <ele>-5.2</ele>
        <time>2023-08-06T07:11:57Z</time>
      </trkpt>
      <trkpt lat="50.42401" lon="3.39086">
        <ele>-5.4</ele>
        <time>2023-08-06T07:12:05Z</time>
      </trkpt>
      <trkpt lat="50.4238" lon="3.39132">
        <ele>-6</ele>
        <time>2023-08-06T07:12:10Z</time>
      </trkpt>
      <trkpt lat="50.42368" lon="3.39158">
        <ele>-6</ele>
        <time>2023-08-06T07:12:13Z</time>
      </trkpt>
      <trkpt lat="50.42364" lon="3.39168">
        <ele>-6</ele>
        <time>2023-08-06T07:12:14Z</time>
      </trkpt>
      <trkpt lat="50.42353" lon="3.39194">
        <ele>-6</ele>
        <time>2023-08-06T07:12:17Z</time>
      </trkpt>
      <trkpt lat="50.42349" lon="3.39203">
        <ele>-6</ele>
        <time>2023-08-06T07:12:18Z</time>
      </trkpt>
      <trkpt lat="50.42346" lon="3.39211">
        <ele>-6</ele>
        <time>2023-08-06T07:12:19Z</time>
      </trkpt>
      <trkpt lat="50.42339" lon="3.39229">
        <ele>-6</ele>
        <time>2023-08-06T07:12:21Z</time>
      </trkpt>
      <trkpt lat="50.42336" lon="3.39238">
        <ele>-6</ele>
        <time>2023-08-06T07:12:22Z</time>
      </trkpt>
      <trkpt lat="50.42332" lon="3.39246">
        <ele>-6</ele>
        <time>2023-08-06T07:12:23Z</time>
      </trkpt>
      <trkpt lat="50.42329" lon="3.39254">
        <ele>-5.8</ele>
        <time>2023-08-06T07:12:24Z</time>
      </trkpt>
      <trkpt lat="50.42326" lon="3.39262">
        <ele>-5.8</ele>
        <time>2023-08-06T07:12:25Z</time>
      </trkpt>
      <trkpt lat="50.42323" lon="3.39271">
        <ele>-5.8</ele>
        <time>2023-08-06T07:12:26Z</time>
      </trkpt>
      <trkpt lat="50.42319" lon="3.39279">
        <ele>-5.8</ele>
        <time>2023-08-06T07:12:27Z</time>
      </trkpt>
      <trkpt lat="50.42316" lon="3.39288">
        <ele>-5.8</ele>
        <time>2023-08-06T07:12:28Z</time>
      </trkpt>
      <trkpt lat="50.42312" lon="3.39297">
        <ele>-5.8</ele>
        <time>2023-08-06T07:12:29Z</time>
      </trkpt>
      <trkpt lat="50.42308" lon="3.39306">
        <ele>-5.8</ele>
        <time>2023-08-06T07:12:30Z</time>
      </trkpt>
      <trkpt lat="50.42282" lon="3.3937">
        <ele>-5.6</ele>
        <time>2023-08-06T07:12:37Z</time>
      </trkpt>
      <trkpt lat="50.42251" lon="3.39448">
        <ele>-6</ele>
        <time>2023-08-06T07:12:45Z</time>
      </trkpt>
      <trkpt lat="50.42247" lon="3.39458">
        <ele>-6</ele>
        <time>2023-08-06T07:12:46Z</time>
      </trkpt>
      <trkpt lat="50.42214" lon="3.39537">
        <ele>-6.4</ele>
        <time>2023-08-06T07:12:54Z</time>
      </trkpt>
      <trkpt lat="50.42202" lon="3.39565">
        <ele>-6.4</ele>
        <time>2023-08-06T07:12:57Z</time>
      </trkpt>
      <trkpt lat="50.42198" lon="3.39575">
        <ele>-6.2</ele>
        <time>2023-08-06T07:12:58Z</time>
      </trkpt>
      <trkpt lat="50.42194" lon="3.39584">
        <ele>-6.2</ele>
        <time>2023-08-06T07:12:59Z</time>
      </trkpt>
      <trkpt lat="50.4219" lon="3.39593">
        <ele>-6.2</ele>
        <time>2023-08-06T07:13:00Z</time>
      </trkpt>
      <trkpt lat="50.42186" lon="3.39602">
        <ele>-6.2</ele>
        <time>2023-08-06T07:13:01Z</time>
      </trkpt>
      <trkpt lat="50.42182" lon="3.39611">
        <ele>-6.2</ele>
        <time>2023-08-06T07:13:02Z</time>
      </trkpt>
      <trkpt lat="50.42178" lon="3.39622">
        <ele>-6.2</ele>
        <time>2023-08-06T07:13:03Z</time>
      </trkpt>
      <trkpt lat="50.42175" lon="3.39629">
        <ele>-6.2</ele>
        <time>2023-08-06T07:13:04Z</time>
      </trkpt>
      <trkpt lat="50.42172" lon="3.39638">
        <ele>-6.2</ele>
        <time>2023-08-06T07:13:05Z</time>
      </trkpt>
      <trkpt lat="50.42168" lon="3.39647">
        <ele>-6.2</ele>
        <time>2023-08-06T07:13:06Z</time>
      </trkpt>
      <trkpt lat="50.42164" lon="3.39655">
        <ele>-6.2</ele>
        <time>2023-08-06T07:13:07Z</time>
      </trkpt>
      <trkpt lat="50.4216" lon="3.39665">
        <ele>-6.2</ele>
        <time>2023-08-06T07:13:08Z</time>
      </trkpt>
      <trkpt lat="50.42156" lon="3.39675">
        <ele>-6.4</ele>
        <time>2023-08-06T07:13:09Z</time>
      </trkpt>
      <trkpt lat="50.42144" lon="3.39704">
        <ele>-6.4</ele>
        <time>2023-08-06T07:13:12Z</time>
      </trkpt>
      <trkpt lat="50.42124" lon="3.39755">
        <ele>-6.4</ele>
        <time>2023-08-06T07:13:17Z</time>
      </trkpt>
      <trkpt lat="50.42099" lon="3.39813">
        <ele>-6.4</ele>
        <time>2023-08-06T07:13:23Z</time>
      </trkpt>
      <trkpt lat="50.42095" lon="3.39822">
        <ele>-6.2</ele>
        <time>2023-08-06T07:13:24Z</time>
      </trkpt>
      <trkpt lat="50.42091" lon="3.39832">
        <ele>-6.2</ele>
        <time>2023-08-06T07:13:25Z</time>
      </trkpt>
      <trkpt lat="50.42088" lon="3.39841">
        <ele>-6.2</ele>
        <time>2023-08-06T07:13:26Z</time>
      </trkpt>
      <trkpt lat="50.42084" lon="3.3985">
        <ele>-6.2</ele>
        <time>2023-08-06T07:13:27Z</time>
      </trkpt>
      <trkpt lat="50.4208" lon="3.39859">
        <ele>-6</ele>
        <time>2023-08-06T07:13:28Z</time>
      </trkpt>
      <trkpt lat="50.42076" lon="3.39869">
        <ele>-6</ele>
        <time>2023-08-06T07:13:29Z</time>
      </trkpt>
      <trkpt lat="50.42073" lon="3.39878">
        <ele>-6</ele>
        <time>2023-08-06T07:13:30Z</time>
      </trkpt>
      <trkpt lat="50.42068" lon="3.39888">
        <ele>-5.8</ele>
        <time>2023-08-06T07:13:31Z</time>
      </trkpt>
      <trkpt lat="50.42065" lon="3.39896">
        <ele>-5.6</ele>
        <time>2023-08-06T07:13:32Z</time>
      </trkpt>
      <trkpt lat="50.42062" lon="3.39905">
        <ele>-5.4</ele>
        <time>2023-08-06T07:13:33Z</time>
      </trkpt>
      <trkpt lat="50.42058" lon="3.39914">
        <ele>-5.4</ele>
        <time>2023-08-06T07:13:34Z</time>
      </trkpt>
      <trkpt lat="50.42055" lon="3.39922">
        <ele>-5.2</ele>
        <time>2023-08-06T07:13:35Z</time>
      </trkpt>
      <trkpt lat="50.42051" lon="3.39931">
        <ele>-5.2</ele>
        <time>2023-08-06T07:13:36Z</time>
      </trkpt>
      <trkpt lat="50.42047" lon="3.39939">
        <ele>-5</ele>
        <time>2023-08-06T07:13:37Z</time>
      </trkpt>
      <trkpt lat="50.42044" lon="3.39947">
        <ele>-4.8</ele>
        <time>2023-08-06T07:13:38Z</time>
      </trkpt>
      <trkpt lat="50.4204" lon="3.39956">
        <ele>-4.8</ele>
        <time>2023-08-06T07:13:39Z</time>
      </trkpt>
      <trkpt lat="50.42036" lon="3.39964">
        <ele>-4.8</ele>
        <time>2023-08-06T07:13:40Z</time>
      </trkpt>
      <trkpt lat="50.42033" lon="3.39972">
        <ele>-4.8</ele>
        <time>2023-08-06T07:13:41Z</time>
      </trkpt>
      <trkpt lat="50.4203" lon="3.3998">
        <ele>-4.8</ele>
        <time>2023-08-06T07:13:42Z</time>
      </trkpt>
      <trkpt lat="50.42026" lon="3.39988">
        <ele>-4.8</ele>
        <time>2023-08-06T07:13:43Z</time>
      </trkpt>
      <trkpt lat="50.42022" lon="3.39996">
        <ele>-4.8</ele>
        <time>2023-08-06T07:13:44Z</time>
      </trkpt>
      <trkpt lat="50.4199" lon="3.40072">
        <ele>-5.2</ele>
        <time>2023-08-06T07:13:53Z</time>
      </trkpt>
      <trkpt lat="50.41958" lon="3.4015">
        <ele>-5.6</ele>
        <time>2023-08-06T07:14:02Z</time>
      </trkpt>
      <trkpt lat="50.41928" lon="3.40228">
        <ele>-6</ele>
        <time>2023-08-06T07:14:11Z</time>
      </trkpt>
      <trkpt lat="50.41925" lon="3.40236">
        <ele>-6</ele>
        <time>2023-08-06T07:14:12Z</time>
      </trkpt>
      <trkpt lat="50.41922" lon="3.40245">
        <ele>-6</ele>
        <time>2023-08-06T07:14:13Z</time>
      </trkpt>
      <trkpt lat="50.41919" lon="3.40253">
        <ele>-6.2</ele>
        <time>2023-08-06T07:14:14Z</time>
      </trkpt>
      <trkpt lat="50.41916" lon="3.40261">
        <ele>-6.2</ele>
        <time>2023-08-06T07:14:15Z</time>
      </trkpt>
      <trkpt lat="50.41913" lon="3.40269">
        <ele>-6.2</ele>
        <time>2023-08-06T07:14:16Z</time>
      </trkpt>
      <trkpt lat="50.4191" lon="3.40278">
        <ele>-6.2</ele>
        <time>2023-08-06T07:14:17Z</time>
      </trkpt>
      <trkpt lat="50.41907" lon="3.40286">
        <ele>-6.2</ele>
        <time>2023-08-06T07:14:18Z</time>
      </trkpt>
      <trkpt lat="50.41904" lon="3.40294">
        <ele>-6.2</ele>
        <time>2023-08-06T07:14:19Z</time>
      </trkpt>
      <trkpt lat="50.41901" lon="3.40302">
        <ele>-6.2</ele>
        <time>2023-08-06T07:14:20Z</time>
      </trkpt>
      <trkpt lat="50.41898" lon="3.4031">
        <ele>-6.2</ele>
        <time>2023-08-06T07:14:21Z</time>
      </trkpt>
      <trkpt lat="50.41895" lon="3.40318">
        <ele>-6.2</ele>
        <time>2023-08-06T07:14:22Z</time>
      </trkpt>
      <trkpt lat="50.41892" lon="3.40328">
        <ele>-6.2</ele>
        <time>2023-08-06T07:14:23Z</time>
      </trkpt>
      <trkpt lat="50.41875" lon="3.40375">
        <ele>-6.2</ele>
        <time>2023-08-06T07:14:29Z</time>
      </trkpt>
      <trkpt lat="50.41873" lon="3.40384">
        <ele>-6.2</ele>
        <time>2023-08-06T07:14:30Z</time>
      </trkpt>
      <trkpt lat="50.41863" lon="3.40416">
        <ele>-6.2</ele>
        <time>2023-08-06T07:14:34Z</time>
      </trkpt>
      <trkpt lat="50.4186" lon="3.40424">
        <ele>-6</ele>
        <time>2023-08-06T07:14:35Z</time>
      </trkpt>
      <trkpt lat="50.41858" lon="3.40432">
        <ele>-6</ele>
        <time>2023-08-06T07:14:36Z</time>
      </trkpt>
      <trkpt lat="50.41856" lon="3.40439">
        <ele>-6</ele>
        <time>2023-08-06T07:14:37Z</time>
      </trkpt>
      <trkpt lat="50.41854" lon="3.40447">
        <ele>-6</ele>
        <time>2023-08-06T07:14:38Z</time>
      </trkpt>
      <trkpt lat="50.41852" lon="3.40454">
        <ele>-6</ele>
        <time>2023-08-06T07:14:39Z</time>
      </trkpt>
      <trkpt lat="50.41849" lon="3.40462">
        <ele>-6</ele>
        <time>2023-08-06T07:14:40Z</time>
      </trkpt>
      <trkpt lat="50.41847" lon="3.40469">
        <ele>-6</ele>
        <time>2023-08-06T07:14:41Z</time>
      </trkpt>
      <trkpt lat="50.41845" lon="3.40476">
        <ele>-6</ele>
        <time>2023-08-06T07:14:42Z</time>
      </trkpt>
      <trkpt lat="50.41843" lon="3.40479">
        <ele>-6</ele>
        <time>2023-08-06T07:14:43Z</time>
      </trkpt>
      <trkpt lat="50.4184" lon="3.40483">
        <ele>-5.8</ele>
        <time>2023-08-06T07:14:44Z</time>
      </trkpt>
      <trkpt lat="50.41838" lon="3.40486">
        <ele>-5.8</ele>
        <time>2023-08-06T07:14:45Z</time>
      </trkpt>
      <trkpt lat="50.41835" lon="3.40489">
        <ele>-5.8</ele>
        <time>2023-08-06T07:14:46Z</time>
      </trkpt>
      <trkpt lat="50.41833" lon="3.40493">
        <ele>-5.8</ele>
        <time>2023-08-06T07:14:47Z</time>
      </trkpt>
      <trkpt lat="50.41831" lon="3.40498">
        <ele>-5.8</ele>
        <time>2023-08-06T07:14:48Z</time>
      </trkpt>
      <trkpt lat="50.41829" lon="3.40504">
        <ele>-5.8</ele>
        <time>2023-08-06T07:14:49Z</time>
      </trkpt>
      <trkpt lat="50.41828" lon="3.4051">
        <ele>-5.8</ele>
        <time>2023-08-06T07:14:50Z</time>
      </trkpt>
      <trkpt lat="50.41826" lon="3.40516">
        <ele>-5.8</ele>
        <time>2023-08-06T07:14:51Z</time>
      </trkpt>
      <trkpt lat="50.41814" lon="3.40556">
        <ele>-6</ele>
        <time>2023-08-06T07:14:57Z</time>
      </trkpt>
      <trkpt lat="50.4181" lon="3.40572">
        <ele>-6</ele>
        <time>2023-08-06T07:14:59Z</time>
      </trkpt>
      <trkpt lat="50.41799" lon="3.4061">
        <ele>-6.2</ele>
        <time>2023-08-06T07:15:04Z</time>
      </trkpt>
      <trkpt lat="50.41789" lon="3.40644">
        <ele>-6.2</ele>
        <time>2023-08-06T07:15:09Z</time>
      </trkpt>
      <trkpt lat="50.41787" lon="3.40651">
        <ele>-6.2</ele>
        <time>2023-08-06T07:15:10Z</time>
      </trkpt>
      <trkpt lat="50.41785" lon="3.40657">
        <ele>-6.2</ele>
        <time>2023-08-06T07:15:11Z</time>
      </trkpt>
      <trkpt lat="50.41783" lon="3.40663">
        <ele>-6</ele>
        <time>2023-08-06T07:15:12Z</time>
      </trkpt>
      <trkpt lat="50.41781" lon="3.40668">
        <ele>-5.8</ele>
        <time>2023-08-06T07:15:13Z</time>
      </trkpt>
      <trkpt lat="50.41779" lon="3.40674">
        <ele>-5.8</ele>
        <time>2023-08-06T07:15:14Z</time>
      </trkpt>
      <trkpt lat="50.41774" lon="3.40685">
        <ele>-5.4</ele>
        <time>2023-08-06T07:15:16Z</time>
      </trkpt>
      <trkpt lat="50.41772" lon="3.4069">
        <ele>-5.4</ele>
        <time>2023-08-06T07:15:17Z</time>
      </trkpt>
      <trkpt lat="50.41769" lon="3.40696">
        <ele>-5.2</ele>
        <time>2023-08-06T07:15:18Z</time>
      </trkpt>
      <trkpt lat="50.41767" lon="3.40701">
        <ele>-5</ele>
        <time>2023-08-06T07:15:19Z</time>
      </trkpt>
      <trkpt lat="50.41765" lon="3.40707">
        <ele>-5</ele>
        <time>2023-08-06T07:15:20Z</time>
      </trkpt>
      <trkpt lat="50.41762" lon="3.40719">
        <ele>-4.8</ele>
        <time>2023-08-06T07:15:22Z</time>
      </trkpt>
      <trkpt lat="50.41756" lon="3.40728">
        <ele>-4.6</ele>
        <time>2023-08-06T07:15:24Z</time>
      </trkpt>
      <trkpt lat="50.41752" lon="3.4073">
        <ele>-4.4</ele>
        <time>2023-08-06T07:15:25Z</time>
      </trkpt>
      <trkpt lat="50.41747" lon="3.40731">
        <ele>-4.4</ele>
        <time>2023-08-06T07:15:26Z</time>
      </trkpt>
      <trkpt lat="50.41737" lon="3.40732">
        <ele>-4.4</ele>
        <time>2023-08-06T07:15:28Z</time>
      </trkpt>
      <trkpt lat="50.41732" lon="3.40732">
        <ele>-4.2</ele>
        <time>2023-08-06T07:15:29Z</time>
      </trkpt>
      <trkpt lat="50.41721" lon="3.40732">
        <ele>-4.2</ele>
        <time>2023-08-06T07:15:31Z</time>
      </trkpt>
      <trkpt lat="50.4171" lon="3.40733">
        <ele>-4.2</ele>
        <time>2023-08-06T07:15:33Z</time>
      </trkpt>
      <trkpt lat="50.41694" lon="3.40733">
        <ele>-4.4</ele>
        <time>2023-08-06T07:15:36Z</time>
      </trkpt>
      <trkpt lat="50.41644" lon="3.40729">
        <ele>-4.6</ele>
        <time>2023-08-06T07:15:45Z</time>
      </trkpt>
      <trkpt lat="50.41588" lon="3.40719">
        <ele>-4.8</ele>
        <time>2023-08-06T07:15:55Z</time>
      </trkpt>
      <trkpt lat="50.41532" lon="3.40701">
        <ele>-5</ele>
        <time>2023-08-06T07:16:05Z</time>
      </trkpt>
      <trkpt lat="50.41509" lon="3.40693">
        <ele>-5</ele>
        <time>2023-08-06T07:16:09Z</time>
      </trkpt>
      <trkpt lat="50.41486" lon="3.40685">
        <ele>-5.2</ele>
        <time>2023-08-06T07:16:13Z</time>
      </trkpt>
      <trkpt lat="50.41439" lon="3.40668">
        <ele>-5.4</ele>
        <time>2023-08-06T07:16:21Z</time>
      </trkpt>
      <trkpt lat="50.41383" lon="3.40648">
        <ele>-5.4</ele>
        <time>2023-08-06T07:16:30Z</time>
      </trkpt>
      <trkpt lat="50.41377" lon="3.40646">
        <ele>-5.6</ele>
        <time>2023-08-06T07:16:31Z</time>
      </trkpt>
      <trkpt lat="50.41318" lon="3.40626">
        <ele>-6.4</ele>
        <time>2023-08-06T07:16:40Z</time>
      </trkpt>
      <trkpt lat="50.41311" lon="3.40624">
        <ele>-6.6</ele>
        <time>2023-08-06T07:16:41Z</time>
      </trkpt>
      <trkpt lat="50.41257" lon="3.40606">
        <ele>-6.6</ele>
        <time>2023-08-06T07:16:49Z</time>
      </trkpt>
      <trkpt lat="50.4125" lon="3.40603">
        <ele>-6.6</ele>
        <time>2023-08-06T07:16:50Z</time>
      </trkpt>
      <trkpt lat="50.41203" lon="3.40587">
        <ele>-6.4</ele>
        <time>2023-08-06T07:16:57Z</time>
      </trkpt>
      <trkpt lat="50.41196" lon="3.40585">
        <ele>-6.4</ele>
        <time>2023-08-06T07:16:58Z</time>
      </trkpt>
      <trkpt lat="50.41189" lon="3.40582">
        <ele>-6.4</ele>
        <time>2023-08-06T07:16:59Z</time>
      </trkpt>
      <trkpt lat="50.41183" lon="3.4058">
        <ele>-6.4</ele>
        <time>2023-08-06T07:17:00Z</time>
      </trkpt>
      <trkpt lat="50.41176" lon="3.40578">
        <ele>-6.4</ele>
        <time>2023-08-06T07:17:01Z</time>
      </trkpt>
      <trkpt lat="50.41169" lon="3.40575">
        <ele>-6.4</ele>
        <time>2023-08-06T07:17:02Z</time>
      </trkpt>
      <trkpt lat="50.41129" lon="3.40562">
        <ele>-6.2</ele>
        <time>2023-08-06T07:17:08Z</time>
      </trkpt>
      <trkpt lat="50.41123" lon="3.40559">
        <ele>-6.2</ele>
        <time>2023-08-06T07:17:09Z</time>
      </trkpt>
      <trkpt lat="50.41071" lon="3.40542">
        <ele>-5.8</ele>
        <time>2023-08-06T07:17:17Z</time>
      </trkpt>
      <trkpt lat="50.41065" lon="3.4054">
        <ele>-5.8</ele>
        <time>2023-08-06T07:17:18Z</time>
      </trkpt>
      <trkpt lat="50.41059" lon="3.40538">
        <ele>-5.8</ele>
        <time>2023-08-06T07:17:19Z</time>
      </trkpt>
      <trkpt lat="50.41053" lon="3.40536">
        <ele>-5.6</ele>
        <time>2023-08-06T07:17:20Z</time>
      </trkpt>
      <trkpt lat="50.41047" lon="3.40533">
        <ele>-5.6</ele>
        <time>2023-08-06T07:17:21Z</time>
      </trkpt>
      <trkpt lat="50.41042" lon="3.40531">
        <ele>-5.6</ele>
        <time>2023-08-06T07:17:22Z</time>
      </trkpt>
      <trkpt lat="50.41035" lon="3.40529">
        <ele>-5.6</ele>
        <time>2023-08-06T07:17:23Z</time>
      </trkpt>
      <trkpt lat="50.41029" lon="3.40527">
        <ele>-5.6</ele>
        <time>2023-08-06T07:17:24Z</time>
      </trkpt>
      <trkpt lat="50.41023" lon="3.40525">
        <ele>-5.6</ele>
        <time>2023-08-06T07:17:25Z</time>
      </trkpt>
      <trkpt lat="50.41017" lon="3.40522">
        <ele>-5.6</ele>
        <time>2023-08-06T07:17:26Z</time>
      </trkpt>
      <trkpt lat="50.41012" lon="3.4052">
        <ele>-5.6</ele>
        <time>2023-08-06T07:17:27Z</time>
      </trkpt>
      <trkpt lat="50.41005" lon="3.40517">
        <ele>-5.6</ele>
        <time>2023-08-06T07:17:28Z</time>
      </trkpt>
      <trkpt lat="50.40999" lon="3.40515">
        <ele>-5.4</ele>
        <time>2023-08-06T07:17:29Z</time>
      </trkpt>
      <trkpt lat="50.4097" lon="3.40504">
        <ele>-5.6</ele>
        <time>2023-08-06T07:17:34Z</time>
      </trkpt>
      <trkpt lat="50.40964" lon="3.40503">
        <ele>-5.6</ele>
        <time>2023-08-06T07:17:35Z</time>
      </trkpt>
      <trkpt lat="50.40958" lon="3.40501">
        <ele>-5.6</ele>
        <time>2023-08-06T07:17:36Z</time>
      </trkpt>
      <trkpt lat="50.40952" lon="3.405">
        <ele>-5.6</ele>
        <time>2023-08-06T07:17:37Z</time>
      </trkpt>
      <trkpt lat="50.40946" lon="3.40498">
        <ele>-5.4</ele>
        <time>2023-08-06T07:17:38Z</time>
      </trkpt>
      <trkpt lat="50.40941" lon="3.40496">
        <ele>-5.4</ele>
        <time>2023-08-06T07:17:39Z</time>
      </trkpt>
      <trkpt lat="50.40935" lon="3.40494">
        <ele>-5.4</ele>
        <time>2023-08-06T07:17:40Z</time>
      </trkpt>
      <trkpt lat="50.40923" lon="3.40491">
        <ele>-5.4</ele>
        <time>2023-08-06T07:17:42Z</time>
      </trkpt>
      <trkpt lat="50.40918" lon="3.4049">
        <ele>-5.2</ele>
        <time>2023-08-06T07:17:43Z</time>
      </trkpt>
      <trkpt lat="50.40896" lon="3.40486">
        <ele>-5.2</ele>
        <time>2023-08-06T07:17:47Z</time>
      </trkpt>
      <trkpt lat="50.4089" lon="3.40485">
        <ele>-5.2</ele>
        <time>2023-08-06T07:17:48Z</time>
      </trkpt>
      <trkpt lat="50.40872" lon="3.40483">
        <ele>-5.2</ele>
        <time>2023-08-06T07:17:51Z</time>
      </trkpt>
      <trkpt lat="50.40866" lon="3.40483">
        <ele>-5.2</ele>
        <time>2023-08-06T07:17:52Z</time>
      </trkpt>
      <trkpt lat="50.40861" lon="3.40483">
        <ele>-5.2</ele>
        <time>2023-08-06T07:17:53Z</time>
      </trkpt>
      <trkpt lat="50.40821" lon="3.40483">
        <ele>-5.4</ele>
        <time>2023-08-06T07:18:00Z</time>
      </trkpt>
      <trkpt lat="50.40782" lon="3.40488">
        <ele>-5.8</ele>
        <time>2023-08-06T07:18:07Z</time>
      </trkpt>
      <trkpt lat="50.40776" lon="3.40489">
        <ele>-5.8</ele>
        <time>2023-08-06T07:18:08Z</time>
      </trkpt>
      <trkpt lat="50.40771" lon="3.40491">
        <ele>-5.8</ele>
        <time>2023-08-06T07:18:09Z</time>
      </trkpt>
      <trkpt lat="50.40759" lon="3.40493">
        <ele>-5.8</ele>
        <time>2023-08-06T07:18:11Z</time>
      </trkpt>
      <trkpt lat="50.4071" lon="3.40509">
        <ele>-5.8</ele>
        <time>2023-08-06T07:18:20Z</time>
      </trkpt>
      <trkpt lat="50.40705" lon="3.40511">
        <ele>-5.8</ele>
        <time>2023-08-06T07:18:21Z</time>
      </trkpt>
      <trkpt lat="50.40699" lon="3.40513">
        <ele>-5.8</ele>
        <time>2023-08-06T07:18:22Z</time>
      </trkpt>
      <trkpt lat="50.40689" lon="3.40518">
        <ele>-5.8</ele>
        <time>2023-08-06T07:18:24Z</time>
      </trkpt>
      <trkpt lat="50.40684" lon="3.40521">
        <ele>-5.8</ele>
        <time>2023-08-06T07:18:25Z</time>
      </trkpt>
      <trkpt lat="50.40679" lon="3.40523">
        <ele>-5.8</ele>
        <time>2023-08-06T07:18:26Z</time>
      </trkpt>
      <trkpt lat="50.40673" lon="3.40526">
        <ele>-5.8</ele>
        <time>2023-08-06T07:18:27Z</time>
      </trkpt>
      <trkpt lat="50.4067" lon="3.40528">
        <ele>-5.8</ele>
        <time>2023-08-06T07:18:28Z</time>
      </trkpt>
      <trkpt lat="50.40665" lon="3.40531">
        <ele>-5.8</ele>
        <time>2023-08-06T07:18:29Z</time>
      </trkpt>
      <trkpt lat="50.4066" lon="3.40533">
        <ele>-5.6</ele>
        <time>2023-08-06T07:18:30Z</time>
      </trkpt>
      <trkpt lat="50.40656" lon="3.40536">
        <ele>-5.6</ele>
        <time>2023-08-06T07:18:31Z</time>
      </trkpt>
      <trkpt lat="50.40651" lon="3.40538">
        <ele>-5.6</ele>
        <time>2023-08-06T07:18:32Z</time>
      </trkpt>
      <trkpt lat="50.40647" lon="3.4054">
        <ele>-5.8</ele>
        <time>2023-08-06T07:18:33Z</time>
      </trkpt>
      <trkpt lat="50.40643" lon="3.40542">
        <ele>-5.6</ele>
        <time>2023-08-06T07:18:34Z</time>
      </trkpt>
      <trkpt lat="50.40639" lon="3.40546">
        <ele>-5.4</ele>
        <time>2023-08-06T07:18:35Z</time>
      </trkpt>
      <trkpt lat="50.40636" lon="3.4055">
        <ele>-5.6</ele>
        <time>2023-08-06T07:18:36Z</time>
      </trkpt>
      <trkpt lat="50.40633" lon="3.40554">
        <ele>-5.4</ele>
        <time>2023-08-06T07:18:37Z</time>
      </trkpt>
      <trkpt lat="50.4063" lon="3.4056">
        <ele>-5.2</ele>
        <time>2023-08-06T07:18:38Z</time>
      </trkpt>
      <trkpt lat="50.40627" lon="3.40563">
        <ele>-5.2</ele>
        <time>2023-08-06T07:18:39Z</time>
      </trkpt>
      <trkpt lat="50.40619" lon="3.40567">
        <ele>-5</ele>
        <time>2023-08-06T07:18:41Z</time>
      </trkpt>
      <trkpt lat="50.40615" lon="3.40569">
        <ele>-5</ele>
        <time>2023-08-06T07:18:42Z</time>
      </trkpt>
      <trkpt lat="50.4061" lon="3.40571">
        <ele>-5</ele>
        <time>2023-08-06T07:18:43Z</time>
      </trkpt>
      <trkpt lat="50.4057" lon="3.40593">
        <ele>-5</ele>
        <time>2023-08-06T07:18:52Z</time>
      </trkpt>
      <trkpt lat="50.40545" lon="3.4062">
        <ele>-4.8</ele>
        <time>2023-08-06T07:18:59Z</time>
      </trkpt>
      <trkpt lat="50.40542" lon="3.40625">
        <ele>-4.8</ele>
        <time>2023-08-06T07:19:00Z</time>
      </trkpt>
      <trkpt lat="50.40538" lon="3.40629">
        <ele>-5</ele>
        <time>2023-08-06T07:19:01Z</time>
      </trkpt>
      <trkpt lat="50.40534" lon="3.40633">
        <ele>-5</ele>
        <time>2023-08-06T07:19:02Z</time>
      </trkpt>
      <trkpt lat="50.40525" lon="3.40638">
        <ele>-5</ele>
        <time>2023-08-06T07:19:04Z</time>
      </trkpt>
      <trkpt lat="50.40521" lon="3.40642">
        <ele>-5</ele>
        <time>2023-08-06T07:19:05Z</time>
      </trkpt>
      <trkpt lat="50.40491" lon="3.40676">
        <ele>-5.6</ele>
        <time>2023-08-06T07:19:12Z</time>
      </trkpt>
      <trkpt lat="50.40487" lon="3.40681">
        <ele>-5.6</ele>
        <time>2023-08-06T07:19:13Z</time>
      </trkpt>
      <trkpt lat="50.40465" lon="3.40705">
        <ele>-5.4</ele>
        <time>2023-08-06T07:19:18Z</time>
      </trkpt>
      <trkpt lat="50.40427" lon="3.40741">
        <ele>-5.4</ele>
        <time>2023-08-06T07:19:26Z</time>
      </trkpt>
      <trkpt lat="50.40414" lon="3.40753">
        <ele>-5.4</ele>
        <time>2023-08-06T07:19:29Z</time>
      </trkpt>
      <trkpt lat="50.40409" lon="3.40758">
        <ele>-5.4</ele>
        <time>2023-08-06T07:19:30Z</time>
      </trkpt>
      <trkpt lat="50.40391" lon="3.40776">
        <ele>-5.4</ele>
        <time>2023-08-06T07:19:34Z</time>
      </trkpt>
      <trkpt lat="50.40364" lon="3.40805">
        <ele>-5.4</ele>
        <time>2023-08-06T07:19:40Z</time>
      </trkpt>
      <trkpt lat="50.40354" lon="3.40814">
        <ele>-5.4</ele>
        <time>2023-08-06T07:19:42Z</time>
      </trkpt>
      <trkpt lat="50.4035" lon="3.40818">
        <ele>-5.4</ele>
        <time>2023-08-06T07:19:43Z</time>
      </trkpt>
      <trkpt lat="50.40338" lon="3.40833">
        <ele>-5.4</ele>
        <time>2023-08-06T07:19:46Z</time>
      </trkpt>
      <trkpt lat="50.40333" lon="3.40837">
        <ele>-5.4</ele>
        <time>2023-08-06T07:19:47Z</time>
      </trkpt>
      <trkpt lat="50.40329" lon="3.40841">
        <ele>-5.4</ele>
        <time>2023-08-06T07:19:48Z</time>
      </trkpt>
      <trkpt lat="50.40324" lon="3.40845">
        <ele>-5.4</ele>
        <time>2023-08-06T07:19:49Z</time>
      </trkpt>
      <trkpt lat="50.40319" lon="3.40851">
        <ele>-5.4</ele>
        <time>2023-08-06T07:19:50Z</time>
      </trkpt>
      <trkpt lat="50.40316" lon="3.40855">
        <ele>-5.2</ele>
        <time>2023-08-06T07:19:51Z</time>
      </trkpt>
      <trkpt lat="50.40312" lon="3.40859">
        <ele>-5.2</ele>
        <time>2023-08-06T07:19:52Z</time>
      </trkpt>
      <trkpt lat="50.40308" lon="3.40863">
        <ele>-5.2</ele>
        <time>2023-08-06T07:19:53Z</time>
      </trkpt>
      <trkpt lat="50.40304" lon="3.40867">
        <ele>-5.2</ele>
        <time>2023-08-06T07:19:54Z</time>
      </trkpt>
      <trkpt lat="50.40299" lon="3.40871">
        <ele>-5</ele>
        <time>2023-08-06T07:19:55Z</time>
      </trkpt>
      <trkpt lat="50.40295" lon="3.40875">
        <ele>-5</ele>
        <time>2023-08-06T07:19:56Z</time>
      </trkpt>
      <trkpt lat="50.40278" lon="3.40893">
        <ele>-5</ele>
        <time>2023-08-06T07:20:00Z</time>
      </trkpt>
      <trkpt lat="50.4026" lon="3.40912">
        <ele>-4.8</ele>
        <time>2023-08-06T07:20:04Z</time>
      </trkpt>
      <trkpt lat="50.40257" lon="3.40916">
        <ele>-4.8</ele>
        <time>2023-08-06T07:20:05Z</time>
      </trkpt>
      <trkpt lat="50.40253" lon="3.4092">
        <ele>-4.8</ele>
        <time>2023-08-06T07:20:06Z</time>
      </trkpt>
      <trkpt lat="50.40249" lon="3.40925">
        <ele>-4.8</ele>
        <time>2023-08-06T07:20:07Z</time>
      </trkpt>
      <trkpt lat="50.40245" lon="3.40929">
        <ele>-4.8</ele>
        <time>2023-08-06T07:20:08Z</time>
      </trkpt>
      <trkpt lat="50.40242" lon="3.40934">
        <ele>-4.8</ele>
        <time>2023-08-06T07:20:09Z</time>
      </trkpt>
      <trkpt lat="50.40238" lon="3.40939">
        <ele>-4.8</ele>
        <time>2023-08-06T07:20:10Z</time>
      </trkpt>
      <trkpt lat="50.40234" lon="3.40943">
        <ele>-4.8</ele>
        <time>2023-08-06T07:20:11Z</time>
      </trkpt>
      <trkpt lat="50.4023" lon="3.40947">
        <ele>-4.6</ele>
        <time>2023-08-06T07:20:12Z</time>
      </trkpt>
      <trkpt lat="50.40226" lon="3.40951">
        <ele>-4.6</ele>
        <time>2023-08-06T07:20:13Z</time>
      </trkpt>
      <trkpt lat="50.40222" lon="3.40955">
        <ele>-4.6</ele>
        <time>2023-08-06T07:20:14Z</time>
      </trkpt>
      <trkpt lat="50.40206" lon="3.40971">
        <ele>-4.4</ele>
        <time>2023-08-06T07:20:18Z</time>
      </trkpt>
      <trkpt lat="50.40202" lon="3.40975">
        <ele>-4.4</ele>
        <time>2023-08-06T07:20:19Z</time>
      </trkpt>
      <trkpt lat="50.40198" lon="3.40979">
        <ele>-4.4</ele>
        <time>2023-08-06T07:20:20Z</time>
      </trkpt>
      <trkpt lat="50.40187" lon="3.40992">
        <ele>-4.2</ele>
        <time>2023-08-06T07:20:23Z</time>
      </trkpt>
      <trkpt lat="50.40159" lon="3.41023">
        <ele>-3.6</ele>
        <time>2023-08-06T07:20:30Z</time>
      </trkpt>
      <trkpt lat="50.40134" lon="3.41049">
        <ele>-3.4</ele>
        <time>2023-08-06T07:20:36Z</time>
      </trkpt>
      <trkpt lat="50.4013" lon="3.41053">
        <ele>-3.4</ele>
        <time>2023-08-06T07:20:37Z</time>
      </trkpt>
      <trkpt lat="50.40121" lon="3.41061">
        <ele>-3.4</ele>
        <time>2023-08-06T07:20:39Z</time>
      </trkpt>
      <trkpt lat="50.401" lon="3.4108">
        <ele>-3.6</ele>
        <time>2023-08-06T07:20:44Z</time>
      </trkpt>
      <trkpt lat="50.40071" lon="3.41111">
        <ele>-3.6</ele>
        <time>2023-08-06T07:20:51Z</time>
      </trkpt>
      <trkpt lat="50.4006" lon="3.41122">
        <ele>-3.6</ele>
        <time>2023-08-06T07:20:54Z</time>
      </trkpt>
      <trkpt lat="50.40057" lon="3.41127">
        <ele>-3.6</ele>
        <time>2023-08-06T07:20:55Z</time>
      </trkpt>
      <trkpt lat="50.40054" lon="3.41131">
        <ele>-3.6</ele>
        <time>2023-08-06T07:20:56Z</time>
      </trkpt>
      <trkpt lat="50.4005" lon="3.41134">
        <ele>-3.6</ele>
        <time>2023-08-06T07:20:57Z</time>
      </trkpt>
      <trkpt lat="50.40046" lon="3.41138">
        <ele>-3.6</ele>
        <time>2023-08-06T07:20:58Z</time>
      </trkpt>
      <trkpt lat="50.40042" lon="3.41142">
        <ele>-3.6</ele>
        <time>2023-08-06T07:20:59Z</time>
      </trkpt>
      <trkpt lat="50.40038" lon="3.41146">
        <ele>-3.6</ele>
        <time>2023-08-06T07:21:00Z</time>
      </trkpt>
      <trkpt lat="50.40033" lon="3.41149">
        <ele>-3.6</ele>
        <time>2023-08-06T07:21:01Z</time>
      </trkpt>
      <trkpt lat="50.40004" lon="3.41179">
        <ele>-3.6</ele>
        <time>2023-08-06T07:21:08Z</time>
      </trkpt>
      <trkpt lat="50.3999" lon="3.41198">
        <ele>-3.6</ele>
        <time>2023-08-06T07:21:12Z</time>
      </trkpt>
      <trkpt lat="50.39986" lon="3.41203">
        <ele>-3.6</ele>
        <time>2023-08-06T07:21:13Z</time>
      </trkpt>
      <trkpt lat="50.39982" lon="3.41207">
        <ele>-3.6</ele>
        <time>2023-08-06T07:21:14Z</time>
      </trkpt>
      <trkpt lat="50.39978" lon="3.41211">
        <ele>-3.6</ele>
        <time>2023-08-06T07:21:15Z</time>
      </trkpt>
      <trkpt lat="50.39973" lon="3.41215">
        <ele>-3.6</ele>
        <time>2023-08-06T07:21:16Z</time>
      </trkpt>
      <trkpt lat="50.39961" lon="3.41227">
        <ele>-3.6</ele>
        <time>2023-08-06T07:21:19Z</time>
      </trkpt>
      <trkpt lat="50.39957" lon="3.41232">
        <ele>-3.6</ele>
        <time>2023-08-06T07:21:20Z</time>
      </trkpt>
      <trkpt lat="50.3991" lon="3.41281">
        <ele>-3.2</ele>
        <time>2023-08-06T07:21:31Z</time>
      </trkpt>
      <trkpt lat="50.39906" lon="3.41286">
        <ele>-3.2</ele>
        <time>2023-08-06T07:21:32Z</time>
      </trkpt>
      <trkpt lat="50.39875" lon="3.41318">
        <ele>-3.4</ele>
        <time>2023-08-06T07:21:39Z</time>
      </trkpt>
      <trkpt lat="50.39848" lon="3.41346">
        <ele>-3.6</ele>
        <time>2023-08-06T07:21:45Z</time>
      </trkpt>
      <trkpt lat="50.39843" lon="3.4135">
        <ele>-3.6</ele>
        <time>2023-08-06T07:21:46Z</time>
      </trkpt>
      <trkpt lat="50.39838" lon="3.41354">
        <ele>-3.6</ele>
        <time>2023-08-06T07:21:47Z</time>
      </trkpt>
      <trkpt lat="50.39815" lon="3.41379">
        <ele>-3.8</ele>
        <time>2023-08-06T07:21:52Z</time>
      </trkpt>
      <trkpt lat="50.39801" lon="3.41394">
        <ele>-3.8</ele>
        <time>2023-08-06T07:21:55Z</time>
      </trkpt>
      <trkpt lat="50.3979" lon="3.414">
        <ele>-3.8</ele>
        <time>2023-08-06T07:21:57Z</time>
      </trkpt>
      <trkpt lat="50.39785" lon="3.41403">
        <ele>-3.8</ele>
        <time>2023-08-06T07:21:58Z</time>
      </trkpt>
      <trkpt lat="50.39771" lon="3.41418">
        <ele>-4</ele>
        <time>2023-08-06T07:22:01Z</time>
      </trkpt>
      <trkpt lat="50.39738" lon="3.41458">
        <ele>-4.2</ele>
        <time>2023-08-06T07:22:08Z</time>
      </trkpt>
      <trkpt lat="50.39733" lon="3.41463">
        <ele>-4.2</ele>
        <time>2023-08-06T07:22:09Z</time>
      </trkpt>
      <trkpt lat="50.39712" lon="3.41483">
        <ele>-4.4</ele>
        <time>2023-08-06T07:22:13Z</time>
      </trkpt>
      <trkpt lat="50.39697" lon="3.41501">
        <ele>-4.6</ele>
        <time>2023-08-06T07:22:16Z</time>
      </trkpt>
      <trkpt lat="50.39677" lon="3.4152">
        <ele>-4.6</ele>
        <time>2023-08-06T07:22:20Z</time>
      </trkpt>
      <trkpt lat="50.39659" lon="3.4154">
        <ele>-4.4</ele>
        <time>2023-08-06T07:22:24Z</time>
      </trkpt>
      <trkpt lat="50.39655" lon="3.41545">
        <ele>-4.4</ele>
        <time>2023-08-06T07:22:25Z</time>
      </trkpt>
      <trkpt lat="50.3965" lon="3.4155">
        <ele>-4.4</ele>
        <time>2023-08-06T07:22:26Z</time>
      </trkpt>
      <trkpt lat="50.39646" lon="3.41554">
        <ele>-4.2</ele>
        <time>2023-08-06T07:22:27Z</time>
      </trkpt>
      <trkpt lat="50.39641" lon="3.41559">
        <ele>-4.2</ele>
        <time>2023-08-06T07:22:28Z</time>
      </trkpt>
      <trkpt lat="50.39636" lon="3.41564">
        <ele>-4.2</ele>
        <time>2023-08-06T07:22:29Z</time>
      </trkpt>
      <trkpt lat="50.39632" lon="3.41568">
        <ele>-4.2</ele>
        <time>2023-08-06T07:22:30Z</time>
      </trkpt>
      <trkpt lat="50.39628" lon="3.41573">
        <ele>-4</ele>
        <time>2023-08-06T07:22:31Z</time>
      </trkpt>
      <trkpt lat="50.39623" lon="3.41577">
        <ele>-4</ele>
        <time>2023-08-06T07:22:32Z</time>
      </trkpt>
      <trkpt lat="50.39618" lon="3.41582">
        <ele>-4</ele>
        <time>2023-08-06T07:22:33Z</time>
      </trkpt>
      <trkpt lat="50.39613" lon="3.41587">
        <ele>-4</ele>
        <time>2023-08-06T07:22:34Z</time>
      </trkpt>
      <trkpt lat="50.39595" lon="3.41607">
        <ele>-3.8</ele>
        <time>2023-08-06T07:22:38Z</time>
      </trkpt>
      <trkpt lat="50.39563" lon="3.41641">
        <ele>-3.8</ele>
        <time>2023-08-06T07:22:45Z</time>
      </trkpt>
      <trkpt lat="50.3955" lon="3.41654">
        <ele>-3.8</ele>
        <time>2023-08-06T07:22:48Z</time>
      </trkpt>
      <trkpt lat="50.3954" lon="3.41664">
        <ele>-3.8</ele>
        <time>2023-08-06T07:22:50Z</time>
      </trkpt>
      <trkpt lat="50.39532" lon="3.41674">
        <ele>-4</ele>
        <time>2023-08-06T07:22:52Z</time>
      </trkpt>
      <trkpt lat="50.39528" lon="3.41678">
        <ele>-4</ele>
        <time>2023-08-06T07:22:53Z</time>
      </trkpt>
      <trkpt lat="50.39523" lon="3.41683">
        <ele>-4</ele>
        <time>2023-08-06T07:22:54Z</time>
      </trkpt>
      <trkpt lat="50.39519" lon="3.41688">
        <ele>-4.2</ele>
        <time>2023-08-06T07:22:55Z</time>
      </trkpt>
      <trkpt lat="50.39515" lon="3.41693">
        <ele>-4.2</ele>
        <time>2023-08-06T07:22:56Z</time>
      </trkpt>
      <trkpt lat="50.39511" lon="3.41698">
        <ele>-4.2</ele>
        <time>2023-08-06T07:22:57Z</time>
      </trkpt>
      <trkpt lat="50.39506" lon="3.41702">
        <ele>-4.2</ele>
        <time>2023-08-06T07:22:58Z</time>
      </trkpt>
      <trkpt lat="50.39502" lon="3.41707">
        <ele>-4.4</ele>
        <time>2023-08-06T07:22:59Z</time>
      </trkpt>
      <trkpt lat="50.39468" lon="3.41742">
        <ele>-4.6</ele>
        <time>2023-08-06T07:23:06Z</time>
      </trkpt>
      <trkpt lat="50.39425" lon="3.41789">
        <ele>-4.2</ele>
        <time>2023-08-06T07:23:15Z</time>
      </trkpt>
      <trkpt lat="50.39392" lon="3.41821">
        <ele>-4.6</ele>
        <time>2023-08-06T07:23:21Z</time>
      </trkpt>
      <trkpt lat="50.39384" lon="3.41831">
        <ele>-4.8</ele>
        <time>2023-08-06T07:23:23Z</time>
      </trkpt>
      <trkpt lat="50.39379" lon="3.41836">
        <ele>-4.8</ele>
        <time>2023-08-06T07:23:24Z</time>
      </trkpt>
      <trkpt lat="50.39363" lon="3.41849">
        <ele>-5</ele>
        <time>2023-08-06T07:23:27Z</time>
      </trkpt>
      <trkpt lat="50.39358" lon="3.41853">
        <ele>-5</ele>
        <time>2023-08-06T07:23:28Z</time>
      </trkpt>
      <trkpt lat="50.39353" lon="3.41858">
        <ele>-5</ele>
        <time>2023-08-06T07:23:29Z</time>
      </trkpt>
      <trkpt lat="50.39349" lon="3.41862">
        <ele>-5.2</ele>
        <time>2023-08-06T07:23:30Z</time>
      </trkpt>
      <trkpt lat="50.39345" lon="3.41866">
        <ele>-5.2</ele>
        <time>2023-08-06T07:23:31Z</time>
      </trkpt>
      <trkpt lat="50.39341" lon="3.41871">
        <ele>-5.2</ele>
        <time>2023-08-06T07:23:32Z</time>
      </trkpt>
      <trkpt lat="50.39337" lon="3.41876">
        <ele>-5.2</ele>
        <time>2023-08-06T07:23:33Z</time>
      </trkpt>
      <trkpt lat="50.39332" lon="3.4188">
        <ele>-5.2</ele>
        <time>2023-08-06T07:23:34Z</time>
      </trkpt>
      <trkpt lat="50.39328" lon="3.41885">
        <ele>-5.2</ele>
        <time>2023-08-06T07:23:35Z</time>
      </trkpt>
      <trkpt lat="50.39324" lon="3.4189">
        <ele>-5.2</ele>
        <time>2023-08-06T07:23:36Z</time>
      </trkpt>
      <trkpt lat="50.39319" lon="3.41894">
        <ele>-5.2</ele>
        <time>2023-08-06T07:23:37Z</time>
      </trkpt>
      <trkpt lat="50.39306" lon="3.41909">
        <ele>-5.2</ele>
        <time>2023-08-06T07:23:40Z</time>
      </trkpt>
      <trkpt lat="50.39301" lon="3.41914">
        <ele>-5.2</ele>
        <time>2023-08-06T07:23:41Z</time>
      </trkpt>
      <trkpt lat="50.39264" lon="3.41951">
        <ele>-4.8</ele>
        <time>2023-08-06T07:23:49Z</time>
      </trkpt>
      <trkpt lat="50.3925" lon="3.41965">
        <ele>-4.8</ele>
        <time>2023-08-06T07:23:52Z</time>
      </trkpt>
      <trkpt lat="50.39242" lon="3.41975">
        <ele>-4.6</ele>
        <time>2023-08-06T07:23:54Z</time>
      </trkpt>
      <trkpt lat="50.39237" lon="3.4198">
        <ele>-4.6</ele>
        <time>2023-08-06T07:23:55Z</time>
      </trkpt>
      <trkpt lat="50.39233" lon="3.41984">
        <ele>-4.4</ele>
        <time>2023-08-06T07:23:56Z</time>
      </trkpt>
      <trkpt lat="50.39206" lon="3.4201">
        <ele>-4.2</ele>
        <time>2023-08-06T07:24:02Z</time>
      </trkpt>
      <trkpt lat="50.39202" lon="3.42014">
        <ele>-4.4</ele>
        <time>2023-08-06T07:24:03Z</time>
      </trkpt>
      <trkpt lat="50.39198" lon="3.42018">
        <ele>-4.4</ele>
        <time>2023-08-06T07:24:04Z</time>
      </trkpt>
      <trkpt lat="50.39194" lon="3.42022">
        <ele>-4.4</ele>
        <time>2023-08-06T07:24:05Z</time>
      </trkpt>
      <trkpt lat="50.3919" lon="3.42026">
        <ele>-4.4</ele>
        <time>2023-08-06T07:24:06Z</time>
      </trkpt>
      <trkpt lat="50.39187" lon="3.42029">
        <ele>-4.4</ele>
        <time>2023-08-06T07:24:07Z</time>
      </trkpt>
      <trkpt lat="50.39183" lon="3.42033">
        <ele>-4.4</ele>
        <time>2023-08-06T07:24:08Z</time>
      </trkpt>
      <trkpt lat="50.39179" lon="3.42038">
        <ele>-4.4</ele>
        <time>2023-08-06T07:24:09Z</time>
      </trkpt>
      <trkpt lat="50.39176" lon="3.42042">
        <ele>-4.2</ele>
        <time>2023-08-06T07:24:10Z</time>
      </trkpt>
      <trkpt lat="50.39172" lon="3.42046">
        <ele>-4.2</ele>
        <time>2023-08-06T07:24:11Z</time>
      </trkpt>
      <trkpt lat="50.39168" lon="3.42049">
        <ele>-4</ele>
        <time>2023-08-06T07:24:12Z</time>
      </trkpt>
      <trkpt lat="50.39165" lon="3.42053">
        <ele>-3.8</ele>
        <time>2023-08-06T07:24:13Z</time>
      </trkpt>
      <trkpt lat="50.39161" lon="3.42056">
        <ele>-3.8</ele>
        <time>2023-08-06T07:24:14Z</time>
      </trkpt>
      <trkpt lat="50.39157" lon="3.4206">
        <ele>-3.6</ele>
        <time>2023-08-06T07:24:15Z</time>
      </trkpt>
      <trkpt lat="50.39154" lon="3.42063">
        <ele>-3.4</ele>
        <time>2023-08-06T07:24:16Z</time>
      </trkpt>
      <trkpt lat="50.39151" lon="3.42066">
        <ele>-3.4</ele>
        <time>2023-08-06T07:24:17Z</time>
      </trkpt>
      <trkpt lat="50.39141" lon="3.42077">
        <ele>-3.2</ele>
        <time>2023-08-06T07:24:20Z</time>
      </trkpt>
      <trkpt lat="50.39137" lon="3.4208">
        <ele>-3.2</ele>
        <time>2023-08-06T07:24:21Z</time>
      </trkpt>
      <trkpt lat="50.39134" lon="3.42083">
        <ele>-3.2</ele>
        <time>2023-08-06T07:24:22Z</time>
      </trkpt>
      <trkpt lat="50.3913" lon="3.42086">
        <ele>-3</ele>
        <time>2023-08-06T07:24:23Z</time>
      </trkpt>
      <trkpt lat="50.39127" lon="3.42089">
        <ele>-2.8</ele>
        <time>2023-08-06T07:24:24Z</time>
      </trkpt>
      <trkpt lat="50.39123" lon="3.42092">
        <ele>-2.8</ele>
        <time>2023-08-06T07:24:25Z</time>
      </trkpt>
      <trkpt lat="50.39119" lon="3.42095">
        <ele>-2.6</ele>
        <time>2023-08-06T07:24:26Z</time>
      </trkpt>
      <trkpt lat="50.39112" lon="3.42103">
        <ele>-2.6</ele>
        <time>2023-08-06T07:24:28Z</time>
      </trkpt>
      <trkpt lat="50.39097" lon="3.42116">
        <ele>-2.2</ele>
        <time>2023-08-06T07:24:32Z</time>
      </trkpt>
      <trkpt lat="50.39083" lon="3.42131">
        <ele>-2</ele>
        <time>2023-08-06T07:24:36Z</time>
      </trkpt>
      <trkpt lat="50.39076" lon="3.42137">
        <ele>-1.8</ele>
        <time>2023-08-06T07:24:38Z</time>
      </trkpt>
      <trkpt lat="50.39069" lon="3.42144">
        <ele>-1.2</ele>
        <time>2023-08-06T07:24:40Z</time>
      </trkpt>
      <trkpt lat="50.39063" lon="3.42152">
        <ele>-1</ele>
        <time>2023-08-06T07:24:42Z</time>
      </trkpt>
      <trkpt lat="50.39059" lon="3.42156">
        <ele>-0.80000000000001</ele>
        <time>2023-08-06T07:24:43Z</time>
      </trkpt>
      <trkpt lat="50.39057" lon="3.42158">
        <ele>-0.80000000000001</ele>
        <time>2023-08-06T07:24:44Z</time>
      </trkpt>
      <trkpt lat="50.39054" lon="3.42162">
        <ele>-0.60000000000002</ele>
        <time>2023-08-06T07:24:45Z</time>
      </trkpt>
      <trkpt lat="50.39051" lon="3.42165">
        <ele>-0.60000000000002</ele>
        <time>2023-08-06T07:24:46Z</time>
      </trkpt>
      <trkpt lat="50.39048" lon="3.42168">
        <ele>-0.19999999999999</ele>
        <time>2023-08-06T07:24:47Z</time>
      </trkpt>
      <trkpt lat="50.39045" lon="3.42171">
        <ele>-0.19999999999999</ele>
        <time>2023-08-06T07:24:48Z</time>
      </trkpt>
      <trkpt lat="50.39042" lon="3.42175">
        <ele>-0.19999999999999</ele>
        <time>2023-08-06T07:24:49Z</time>
      </trkpt>
      <trkpt lat="50.39039" lon="3.42178">
        <ele>-0.19999999999999</ele>
        <time>2023-08-06T07:24:50Z</time>
      </trkpt>
      <trkpt lat="50.39036" lon="3.42181">
        <ele>0.19999999999999</ele>
        <time>2023-08-06T07:24:51Z</time>
      </trkpt>
      <trkpt lat="50.39033" lon="3.42184">
        <ele>0.19999999999999</ele>
        <time>2023-08-06T07:24:52Z</time>
      </trkpt>
      <trkpt lat="50.3903" lon="3.42187">
        <ele>0.39999999999998</ele>
        <time>2023-08-06T07:24:53Z</time>
      </trkpt>
      <trkpt lat="50.39027" lon="3.4219">
        <ele>0.39999999999998</ele>
        <time>2023-08-06T07:24:54Z</time>
      </trkpt>
      <trkpt lat="50.39024" lon="3.42193">
        <ele>0.80000000000001</ele>
        <time>2023-08-06T07:24:55Z</time>
      </trkpt>
      <trkpt lat="50.39021" lon="3.42196">
        <ele>1</ele>
        <time>2023-08-06T07:24:56Z</time>
      </trkpt>
      <trkpt lat="50.39018" lon="3.42199">
        <ele>1</ele>
        <time>2023-08-06T07:24:57Z</time>
      </trkpt>
      <trkpt lat="50.39015" lon="3.42202">
        <ele>1</ele>
        <time>2023-08-06T07:24:58Z</time>
      </trkpt>
      <trkpt lat="50.39012" lon="3.42204">
        <ele>1.2</ele>
        <time>2023-08-06T07:24:59Z</time>
      </trkpt>
      <trkpt lat="50.3901" lon="3.42207">
        <ele>1.2</ele>
        <time>2023-08-06T07:25:00Z</time>
      </trkpt>
      <trkpt lat="50.39007" lon="3.4221">
        <ele>1.4</ele>
        <time>2023-08-06T07:25:01Z</time>
      </trkpt>
      <trkpt lat="50.39004" lon="3.42213">
        <ele>1.6</ele>
        <time>2023-08-06T07:25:02Z</time>
      </trkpt>
      <trkpt lat="50.39002" lon="3.42216">
        <ele>1.8</ele>
        <time>2023-08-06T07:25:03Z</time>
      </trkpt>
      <trkpt lat="50.38999" lon="3.42219">
        <ele>1.8</ele>
        <time>2023-08-06T07:25:04Z</time>
      </trkpt>
      <trkpt lat="50.38997" lon="3.42222">
        <ele>2</ele>
        <time>2023-08-06T07:25:05Z</time>
      </trkpt>
      <trkpt lat="50.38994" lon="3.42224">
        <ele>2</ele>
        <time>2023-08-06T07:25:06Z</time>
      </trkpt>
      <trkpt lat="50.38991" lon="3.42227">
        <ele>2</ele>
        <time>2023-08-06T07:25:07Z</time>
      </trkpt>
      <trkpt lat="50.38988" lon="3.42229">
        <ele>2</ele>
        <time>2023-08-06T07:25:08Z</time>
      </trkpt>
      <trkpt lat="50.38985" lon="3.42232">
        <ele>2.2</ele>
        <time>2023-08-06T07:25:09Z</time>
      </trkpt>
      <trkpt lat="50.38983" lon="3.42235">
        <ele>2.4</ele>
        <time>2023-08-06T07:25:10Z</time>
      </trkpt>
      <trkpt lat="50.3898" lon="3.42237">
        <ele>2.4</ele>
        <time>2023-08-06T07:25:11Z</time>
      </trkpt>
      <trkpt lat="50.38977" lon="3.4224">
        <ele>2.6</ele>
        <time>2023-08-06T07:25:12Z</time>
      </trkpt>
      <trkpt lat="50.38974" lon="3.42245">
        <ele>2.6</ele>
        <time>2023-08-06T07:25:13Z</time>
      </trkpt>
      <trkpt lat="50.38972" lon="3.42248">
        <ele>2.8</ele>
        <time>2023-08-06T07:25:14Z</time>
      </trkpt>
      <trkpt lat="50.38969" lon="3.42251">
        <ele>2.6</ele>
        <time>2023-08-06T07:25:15Z</time>
      </trkpt>
      <trkpt lat="50.38966" lon="3.42254">
        <ele>2.8</ele>
        <time>2023-08-06T07:25:16Z</time>
      </trkpt>
      <trkpt lat="50.38962" lon="3.42258">
        <ele>3</ele>
        <time>2023-08-06T07:25:17Z</time>
      </trkpt>
      <trkpt lat="50.38959" lon="3.42261">
        <ele>3</ele>
        <time>2023-08-06T07:25:18Z</time>
      </trkpt>
      <trkpt lat="50.38957" lon="3.42264">
        <ele>3</ele>
        <time>2023-08-06T07:25:19Z</time>
      </trkpt>
      <trkpt lat="50.38954" lon="3.42268">
        <ele>3.2</ele>
        <time>2023-08-06T07:25:20Z</time>
      </trkpt>
      <trkpt lat="50.38951" lon="3.42272">
        <ele>3.2</ele>
        <time>2023-08-06T07:25:21Z</time>
      </trkpt>
      <trkpt lat="50.38949" lon="3.42275">
        <ele>3.2</ele>
        <time>2023-08-06T07:25:22Z</time>
      </trkpt>
      <trkpt lat="50.38945" lon="3.42278">
        <ele>3.2</ele>
        <time>2023-08-06T07:25:23Z</time>
      </trkpt>
      <trkpt lat="50.38942" lon="3.42281">
        <ele>3.2</ele>
        <time>2023-08-06T07:25:24Z</time>
      </trkpt>
      <trkpt lat="50.38939" lon="3.42284">
        <ele>3.2</ele>
        <time>2023-08-06T07:25:25Z</time>
      </trkpt>
      <trkpt lat="50.38936" lon="3.42288">
        <ele>3.4</ele>
        <time>2023-08-06T07:25:26Z</time>
      </trkpt>
      <trkpt lat="50.38927" lon="3.42298">
        <ele>3.8</ele>
        <time>2023-08-06T07:25:29Z</time>
      </trkpt>
      <trkpt lat="50.38924" lon="3.42302">
        <ele>4</ele>
        <time>2023-08-06T07:25:30Z</time>
      </trkpt>
      <trkpt lat="50.38909" lon="3.42317">
        <ele>4.4</ele>
        <time>2023-08-06T07:25:35Z</time>
      </trkpt>
      <trkpt lat="50.38905" lon="3.4232">
        <ele>4.4</ele>
        <time>2023-08-06T07:25:36Z</time>
      </trkpt>
      <trkpt lat="50.38883" lon="3.42344">
        <ele>5</ele>
        <time>2023-08-06T07:25:43Z</time>
      </trkpt>
      <trkpt lat="50.3888" lon="3.42348">
        <ele>5.2</ele>
        <time>2023-08-06T07:25:44Z</time>
      </trkpt>
      <trkpt lat="50.38867" lon="3.42359">
        <ele>5.6</ele>
        <time>2023-08-06T07:25:48Z</time>
      </trkpt>
      <trkpt lat="50.38861" lon="3.42364">
        <ele>6</ele>
        <time>2023-08-06T07:25:50Z</time>
      </trkpt>
      <trkpt lat="50.38848" lon="3.42376">
        <ele>6</ele>
        <time>2023-08-06T07:25:55Z</time>
      </trkpt>
      <trkpt lat="50.38846" lon="3.42378">
        <ele>6</ele>
        <time>2023-08-06T07:25:56Z</time>
      </trkpt>
      <trkpt lat="50.38845" lon="3.4238">
        <ele>6</ele>
        <time>2023-08-06T07:25:57Z</time>
      </trkpt>
      <trkpt lat="50.38843" lon="3.42381">
        <ele>6</ele>
        <time>2023-08-06T07:25:58Z</time>
      </trkpt>
      <trkpt lat="50.38841" lon="3.42382">
        <ele>6</ele>
        <time>2023-08-06T07:25:59Z</time>
      </trkpt>
      <trkpt lat="50.38837" lon="3.42385">
        <ele>6</ele>
        <time>2023-08-06T07:26:01Z</time>
      </trkpt>
      <trkpt lat="50.38835" lon="3.42387">
        <ele>6</ele>
        <time>2023-08-06T07:26:02Z</time>
      </trkpt>
      <trkpt lat="50.38833" lon="3.42389">
        <ele>6</ele>
        <time>2023-08-06T07:26:03Z</time>
      </trkpt>
      <trkpt lat="50.38832" lon="3.42391">
        <ele>6</ele>
        <time>2023-08-06T07:26:04Z</time>
      </trkpt>
      <trkpt lat="50.3883" lon="3.42393">
        <ele>6.2</ele>
        <time>2023-08-06T07:26:05Z</time>
      </trkpt>
      <trkpt lat="50.38829" lon="3.42396">
        <ele>6.2</ele>
        <time>2023-08-06T07:26:06Z</time>
      </trkpt>
      <trkpt lat="50.38823" lon="3.42401">
        <ele>6.4</ele>
        <time>2023-08-06T07:26:09Z</time>
      </trkpt>
      <trkpt lat="50.38809" lon="3.42417">
        <ele>6.4</ele>
        <time>2023-08-06T07:26:15Z</time>
      </trkpt>
      <trkpt lat="50.38797" lon="3.42428">
        <ele>6.6</ele>
        <time>2023-08-06T07:26:19Z</time>
      </trkpt>
      <trkpt lat="50.38789" lon="3.42437">
        <ele>6.6</ele>
        <time>2023-08-06T07:26:22Z</time>
      </trkpt>
      <trkpt lat="50.38778" lon="3.42449">
        <ele>6.6</ele>
        <time>2023-08-06T07:26:26Z</time>
      </trkpt>
      <trkpt lat="50.38761" lon="3.42468">
        <ele>7</ele>
        <time>2023-08-06T07:26:32Z</time>
      </trkpt>
      <trkpt lat="50.3873" lon="3.42499">
        <ele>7.4</ele>
        <time>2023-08-06T07:26:42Z</time>
      </trkpt>
      <trkpt lat="50.38717" lon="3.42513">
        <ele>7.8</ele>
        <time>2023-08-06T07:26:46Z</time>
      </trkpt>
      <trkpt lat="50.387" lon="3.42531">
        <ele>8.2</ele>
        <time>2023-08-06T07:26:51Z</time>
      </trkpt>
      <trkpt lat="50.38682" lon="3.4255">
        <ele>8.8</ele>
        <time>2023-08-06T07:26:57Z</time>
      </trkpt>
      <trkpt lat="50.38679" lon="3.42553">
        <ele>8.8</ele>
        <time>2023-08-06T07:26:58Z</time>
      </trkpt>
      <trkpt lat="50.38676" lon="3.42557">
        <ele>9</ele>
        <time>2023-08-06T07:26:59Z</time>
      </trkpt>
      <trkpt lat="50.38673" lon="3.4256">
        <ele>9.2</ele>
        <time>2023-08-06T07:27:00Z</time>
      </trkpt>
      <trkpt lat="50.3867" lon="3.42563">
        <ele>9.2</ele>
        <time>2023-08-06T07:27:01Z</time>
      </trkpt>
      <trkpt lat="50.38667" lon="3.42566">
        <ele>9.2</ele>
        <time>2023-08-06T07:27:02Z</time>
      </trkpt>
      <trkpt lat="50.38648" lon="3.42585">
        <ele>9.8</ele>
        <time>2023-08-06T07:27:08Z</time>
      </trkpt>
      <trkpt lat="50.38638" lon="3.42594">
        <ele>10</ele>
        <time>2023-08-06T07:27:11Z</time>
      </trkpt>
      <trkpt lat="50.38611" lon="3.4262">
        <ele>10.6</ele>
        <time>2023-08-06T07:27:19Z</time>
      </trkpt>
      <trkpt lat="50.38588" lon="3.42644">
        <ele>10.8</ele>
        <time>2023-08-06T07:27:26Z</time>
      </trkpt>
      <trkpt lat="50.38577" lon="3.42655">
        <ele>11</ele>
        <time>2023-08-06T07:27:29Z</time>
      </trkpt>
      <trkpt lat="50.38568" lon="3.42665">
        <ele>11.2</ele>
        <time>2023-08-06T07:27:32Z</time>
      </trkpt>
      <trkpt lat="50.38565" lon="3.42669">
        <ele>11.2</ele>
        <time>2023-08-06T07:27:33Z</time>
      </trkpt>
      <trkpt lat="50.3855" lon="3.42683">
        <ele>11.2</ele>
        <time>2023-08-06T07:27:37Z</time>
      </trkpt>
      <trkpt lat="50.38532" lon="3.42703">
        <ele>11.4</ele>
        <time>2023-08-06T07:27:42Z</time>
      </trkpt>
      <trkpt lat="50.38529" lon="3.42707">
        <ele>11.4</ele>
        <time>2023-08-06T07:27:43Z</time>
      </trkpt>
      <trkpt lat="50.38525" lon="3.42711">
        <ele>11.4</ele>
        <time>2023-08-06T07:27:44Z</time>
      </trkpt>
      <trkpt lat="50.38507" lon="3.42729">
        <ele>11.6</ele>
        <time>2023-08-06T07:27:49Z</time>
      </trkpt>
      <trkpt lat="50.38495" lon="3.4274">
        <ele>11.8</ele>
        <time>2023-08-06T07:27:52Z</time>
      </trkpt>
      <trkpt lat="50.38472" lon="3.42763">
        <ele>12</ele>
        <time>2023-08-06T07:27:58Z</time>
      </trkpt>
      <trkpt lat="50.38468" lon="3.42768">
        <ele>12</ele>
        <time>2023-08-06T07:27:59Z</time>
      </trkpt>
      <trkpt lat="50.38457" lon="3.42781">
        <ele>12</ele>
        <time>2023-08-06T07:28:02Z</time>
      </trkpt>
      <trkpt lat="50.38446" lon="3.42793">
        <ele>12.2</ele>
        <time>2023-08-06T07:28:05Z</time>
      </trkpt>
      <trkpt lat="50.38442" lon="3.42798">
        <ele>12.2</ele>
        <time>2023-08-06T07:28:06Z</time>
      </trkpt>
      <trkpt lat="50.38438" lon="3.42801">
        <ele>12.2</ele>
        <time>2023-08-06T07:28:07Z</time>
      </trkpt>
      <trkpt lat="50.38435" lon="3.42805">
        <ele>12.2</ele>
        <time>2023-08-06T07:28:08Z</time>
      </trkpt>
      <trkpt lat="50.38407" lon="3.42835">
        <ele>12.4</ele>
        <time>2023-08-06T07:28:15Z</time>
      </trkpt>
      <trkpt lat="50.38381" lon="3.42859">
        <ele>12.4</ele>
        <time>2023-08-06T07:28:21Z</time>
      </trkpt>
      <trkpt lat="50.38348" lon="3.42894">
        <ele>12.8</ele>
        <time>2023-08-06T07:28:29Z</time>
      </trkpt>
      <trkpt lat="50.38344" lon="3.42898">
        <ele>13</ele>
        <time>2023-08-06T07:28:30Z</time>
      </trkpt>
      <trkpt lat="50.38301" lon="3.42943">
        <ele>13.8</ele>
        <time>2023-08-06T07:28:40Z</time>
      </trkpt>
      <trkpt lat="50.38292" lon="3.42954">
        <ele>13.8</ele>
        <time>2023-08-06T07:28:42Z</time>
      </trkpt>
      <trkpt lat="50.38273" lon="3.42974">
        <ele>13.8</ele>
        <time>2023-08-06T07:28:46Z</time>
      </trkpt>
      <trkpt lat="50.38242" lon="3.43008">
        <ele>14</ele>
        <time>2023-08-06T07:28:53Z</time>
      </trkpt>
      <trkpt lat="50.38237" lon="3.43012">
        <ele>14</ele>
        <time>2023-08-06T07:28:54Z</time>
      </trkpt>
      <trkpt lat="50.38198" lon="3.43051">
        <ele>14.4</ele>
        <time>2023-08-06T07:29:02Z</time>
      </trkpt>
      <trkpt lat="50.3817" lon="3.43078">
        <ele>14.8</ele>
        <time>2023-08-06T07:29:08Z</time>
      </trkpt>
      <trkpt lat="50.38165" lon="3.43081">
        <ele>14.8</ele>
        <time>2023-08-06T07:29:09Z</time>
      </trkpt>
      <trkpt lat="50.3816" lon="3.43084">
        <ele>14.8</ele>
        <time>2023-08-06T07:29:10Z</time>
      </trkpt>
      <trkpt lat="50.38155" lon="3.43085">
        <ele>14.8</ele>
        <time>2023-08-06T07:29:11Z</time>
      </trkpt>
      <trkpt lat="50.38144" lon="3.43086">
        <ele>14.8</ele>
        <time>2023-08-06T07:29:13Z</time>
      </trkpt>
      <trkpt lat="50.38105" lon="3.43088">
        <ele>14.2</ele>
        <time>2023-08-06T07:29:20Z</time>
      </trkpt>
      <trkpt lat="50.38055" lon="3.4309">
        <ele>13.6</ele>
        <time>2023-08-06T07:29:29Z</time>
      </trkpt>
      <trkpt lat="50.38012" lon="3.43094">
        <ele>13.2</ele>
        <time>2023-08-06T07:29:36Z</time>
      </trkpt>
      <trkpt lat="50.37978" lon="3.43098">
        <ele>13.4</ele>
        <time>2023-08-06T07:29:42Z</time>
      </trkpt>
      <trkpt lat="50.37973" lon="3.43098">
        <ele>13.6</ele>
        <time>2023-08-06T07:29:43Z</time>
      </trkpt>
      <trkpt lat="50.37967" lon="3.43098">
        <ele>13.6</ele>
        <time>2023-08-06T07:29:44Z</time>
      </trkpt>
      <trkpt lat="50.37961" lon="3.43098">
        <ele>13.6</ele>
        <time>2023-08-06T07:29:45Z</time>
      </trkpt>
      <trkpt lat="50.37956" lon="3.43099">
        <ele>13.6</ele>
        <time>2023-08-06T07:29:46Z</time>
      </trkpt>
      <trkpt lat="50.37949" lon="3.43099">
        <ele>13.6</ele>
        <time>2023-08-06T07:29:47Z</time>
      </trkpt>
      <trkpt lat="50.37945" lon="3.43099">
        <ele>13.6</ele>
        <time>2023-08-06T07:29:48Z</time>
      </trkpt>
      <trkpt lat="50.37935" lon="3.431">
        <ele>13.6</ele>
        <time>2023-08-06T07:29:50Z</time>
      </trkpt>
      <trkpt lat="50.3793" lon="3.431">
        <ele>13.6</ele>
        <time>2023-08-06T07:29:51Z</time>
      </trkpt>
      <trkpt lat="50.37925" lon="3.431">
        <ele>13.6</ele>
        <time>2023-08-06T07:29:52Z</time>
      </trkpt>
      <trkpt lat="50.3792" lon="3.431">
        <ele>13.6</ele>
        <time>2023-08-06T07:29:53Z</time>
      </trkpt>
      <trkpt lat="50.37887" lon="3.43104">
        <ele>13.6</ele>
        <time>2023-08-06T07:29:59Z</time>
      </trkpt>
      <trkpt lat="50.37848" lon="3.43116">
        <ele>14</ele>
        <time>2023-08-06T07:30:06Z</time>
      </trkpt>
      <trkpt lat="50.37838" lon="3.43115">
        <ele>14</ele>
        <time>2023-08-06T07:30:08Z</time>
      </trkpt>
      <trkpt lat="50.37833" lon="3.43112">
        <ele>14</ele>
        <time>2023-08-06T07:30:09Z</time>
      </trkpt>
      <trkpt lat="50.37829" lon="3.43108">
        <ele>14</ele>
        <time>2023-08-06T07:30:10Z</time>
      </trkpt>
      <trkpt lat="50.37824" lon="3.43102">
        <ele>14</ele>
        <time>2023-08-06T07:30:11Z</time>
      </trkpt>
      <trkpt lat="50.37821" lon="3.43096">
        <ele>14.2</ele>
        <time>2023-08-06T07:30:12Z</time>
      </trkpt>
      <trkpt lat="50.37818" lon="3.43089">
        <ele>14.2</ele>
        <time>2023-08-06T07:30:13Z</time>
      </trkpt>
      <trkpt lat="50.37815" lon="3.43083">
        <ele>14.2</ele>
        <time>2023-08-06T07:30:14Z</time>
      </trkpt>
      <trkpt lat="50.37806" lon="3.43052">
        <ele>14.6</ele>
        <time>2023-08-06T07:30:18Z</time>
      </trkpt>
      <trkpt lat="50.37804" lon="3.43045">
        <ele>14.6</ele>
        <time>2023-08-06T07:30:19Z</time>
      </trkpt>
      <trkpt lat="50.37798" lon="3.43027">
        <ele>14.8</ele>
        <time>2023-08-06T07:30:21Z</time>
      </trkpt>
      <trkpt lat="50.37796" lon="3.43021">
        <ele>15</ele>
        <time>2023-08-06T07:30:22Z</time>
      </trkpt>
      <trkpt lat="50.37788" lon="3.42998">
        <ele>15.2</ele>
        <time>2023-08-06T07:30:25Z</time>
      </trkpt>
      <trkpt lat="50.37777" lon="3.42976">
        <ele>15.4</ele>
        <time>2023-08-06T07:30:28Z</time>
      </trkpt>
      <trkpt lat="50.37766" lon="3.42967">
        <ele>15.6</ele>
        <time>2023-08-06T07:30:30Z</time>
      </trkpt>
      <trkpt lat="50.3776" lon="3.42965">
        <ele>15.6</ele>
        <time>2023-08-06T07:30:31Z</time>
      </trkpt>
      <trkpt lat="50.37754" lon="3.42966">
        <ele>15.6</ele>
        <time>2023-08-06T07:30:32Z</time>
      </trkpt>
      <trkpt lat="50.37743" lon="3.42971">
        <ele>15.6</ele>
        <time>2023-08-06T07:30:34Z</time>
      </trkpt>
      <trkpt lat="50.37737" lon="3.42973">
        <ele>15.8</ele>
        <time>2023-08-06T07:30:35Z</time>
      </trkpt>
      <trkpt lat="50.37731" lon="3.42975">
        <ele>15.8</ele>
        <time>2023-08-06T07:30:36Z</time>
      </trkpt>
      <trkpt lat="50.37714" lon="3.42981">
        <ele>16</ele>
        <time>2023-08-06T07:30:39Z</time>
      </trkpt>
      <trkpt lat="50.37697" lon="3.42987">
        <ele>15.8</ele>
        <time>2023-08-06T07:30:42Z</time>
      </trkpt>
      <trkpt lat="50.3765" lon="3.42993">
        <ele>15.4</ele>
        <time>2023-08-06T07:30:50Z</time>
      </trkpt>
      <trkpt lat="50.37638" lon="3.42994">
        <ele>15.6</ele>
        <time>2023-08-06T07:30:52Z</time>
      </trkpt>
      <trkpt lat="50.37597" lon="3.43">
        <ele>16</ele>
        <time>2023-08-06T07:30:59Z</time>
      </trkpt>
      <trkpt lat="50.37592" lon="3.43002">
        <ele>16</ele>
        <time>2023-08-06T07:31:00Z</time>
      </trkpt>
      <trkpt lat="50.37574" lon="3.43006">
        <ele>16</ele>
        <time>2023-08-06T07:31:03Z</time>
      </trkpt>
      <trkpt lat="50.37568" lon="3.43008">
        <ele>16</ele>
        <time>2023-08-06T07:31:04Z</time>
      </trkpt>
      <trkpt lat="50.37551" lon="3.43011">
        <ele>16</ele>
        <time>2023-08-06T07:31:07Z</time>
      </trkpt>
      <trkpt lat="50.37535" lon="3.43018">
        <ele>16</ele>
        <time>2023-08-06T07:31:10Z</time>
      </trkpt>
      <trkpt lat="50.37523" lon="3.43022">
        <ele>16</ele>
        <time>2023-08-06T07:31:12Z</time>
      </trkpt>
      <trkpt lat="50.37512" lon="3.43027">
        <ele>16</ele>
        <time>2023-08-06T07:31:14Z</time>
      </trkpt>
      <trkpt lat="50.37468" lon="3.43052">
        <ele>16.4</ele>
        <time>2023-08-06T07:31:22Z</time>
      </trkpt>
      <trkpt lat="50.37451" lon="3.4306">
        <ele>16.4</ele>
        <time>2023-08-06T07:31:25Z</time>
      </trkpt>
      <trkpt lat="50.37433" lon="3.43063">
        <ele>16.4</ele>
        <time>2023-08-06T07:31:28Z</time>
      </trkpt>
      <trkpt lat="50.3738" lon="3.43059">
        <ele>16.8</ele>
        <time>2023-08-06T07:31:37Z</time>
      </trkpt>
      <trkpt lat="50.37374" lon="3.43058">
        <ele>16.8</ele>
        <time>2023-08-06T07:31:38Z</time>
      </trkpt>
      <trkpt lat="50.37315" lon="3.43051">
        <ele>17.2</ele>
        <time>2023-08-06T07:31:48Z</time>
      </trkpt>
      <trkpt lat="50.37281" lon="3.43048">
        <ele>17.4</ele>
        <time>2023-08-06T07:31:54Z</time>
      </trkpt>
      <trkpt lat="50.37276" lon="3.43048">
        <ele>17.4</ele>
        <time>2023-08-06T07:31:55Z</time>
      </trkpt>
      <trkpt lat="50.37271" lon="3.43049">
        <ele>17.4</ele>
        <time>2023-08-06T07:31:56Z</time>
      </trkpt>
      <trkpt lat="50.37261" lon="3.43051">
        <ele>17.6</ele>
        <time>2023-08-06T07:31:58Z</time>
      </trkpt>
      <trkpt lat="50.37256" lon="3.43052">
        <ele>17.6</ele>
        <time>2023-08-06T07:31:59Z</time>
      </trkpt>
      <trkpt lat="50.37252" lon="3.43054">
        <ele>17.6</ele>
        <time>2023-08-06T07:32:00Z</time>
      </trkpt>
      <trkpt lat="50.37247" lon="3.43055">
        <ele>17.6</ele>
        <time>2023-08-06T07:32:01Z</time>
      </trkpt>
      <trkpt lat="50.37242" lon="3.43056">
        <ele>17.8</ele>
        <time>2023-08-06T07:32:02Z</time>
      </trkpt>
      <trkpt lat="50.37233" lon="3.43053">
        <ele>17.8</ele>
        <time>2023-08-06T07:32:04Z</time>
      </trkpt>
      <trkpt lat="50.37228" lon="3.43051">
        <ele>17.8</ele>
        <time>2023-08-06T07:32:05Z</time>
      </trkpt>
      <trkpt lat="50.37219" lon="3.43047">
        <ele>17.8</ele>
        <time>2023-08-06T07:32:07Z</time>
      </trkpt>
      <trkpt lat="50.37202" lon="3.43036">
        <ele>18</ele>
        <time>2023-08-06T07:32:11Z</time>
      </trkpt>
      <trkpt lat="50.37197" lon="3.43033">
        <ele>18</ele>
        <time>2023-08-06T07:32:12Z</time>
      </trkpt>
      <trkpt lat="50.37189" lon="3.43029">
        <ele>18.2</ele>
        <time>2023-08-06T07:32:14Z</time>
      </trkpt>
      <trkpt lat="50.37184" lon="3.43027">
        <ele>18.2</ele>
        <time>2023-08-06T07:32:15Z</time>
      </trkpt>
      <trkpt lat="50.37175" lon="3.43026">
        <ele>18.4</ele>
        <time>2023-08-06T07:32:17Z</time>
      </trkpt>
      <trkpt lat="50.37162" lon="3.43024">
        <ele>18.6</ele>
        <time>2023-08-06T07:32:20Z</time>
      </trkpt>
      <trkpt lat="50.37157" lon="3.43023">
        <ele>18.6</ele>
        <time>2023-08-06T07:32:21Z</time>
      </trkpt>
      <trkpt lat="50.37144" lon="3.43017">
        <ele>18.6</ele>
        <time>2023-08-06T07:32:24Z</time>
      </trkpt>
      <trkpt lat="50.37131" lon="3.43008">
        <ele>18.6</ele>
        <time>2023-08-06T07:32:27Z</time>
      </trkpt>
      <trkpt lat="50.37114" lon="3.42994">
        <ele>18.8</ele>
        <time>2023-08-06T07:32:31Z</time>
      </trkpt>
      <trkpt lat="50.3711" lon="3.42991">
        <ele>18.8</ele>
        <time>2023-08-06T07:32:32Z</time>
      </trkpt>
      <trkpt lat="50.37087" lon="3.42979">
        <ele>19</ele>
        <time>2023-08-06T07:32:37Z</time>
      </trkpt>
      <trkpt lat="50.37083" lon="3.42977">
        <ele>19.2</ele>
        <time>2023-08-06T07:32:38Z</time>
      </trkpt>
      <trkpt lat="50.37079" lon="3.42975">
        <ele>19.2</ele>
        <time>2023-08-06T07:32:39Z</time>
      </trkpt>
      <trkpt lat="50.37075" lon="3.42973">
        <ele>19.2</ele>
        <time>2023-08-06T07:32:40Z</time>
      </trkpt>
      <trkpt lat="50.3707" lon="3.42971">
        <ele>19.4</ele>
        <time>2023-08-06T07:32:41Z</time>
      </trkpt>
      <trkpt lat="50.37062" lon="3.42967">
        <ele>19.4</ele>
        <time>2023-08-06T07:32:43Z</time>
      </trkpt>
      <trkpt lat="50.37058" lon="3.42965">
        <ele>19.6</ele>
        <time>2023-08-06T07:32:44Z</time>
      </trkpt>
      <trkpt lat="50.37053" lon="3.42962">
        <ele>19.6</ele>
        <time>2023-08-06T07:32:45Z</time>
      </trkpt>
      <trkpt lat="50.3705" lon="3.4296">
        <ele>19.8</ele>
        <time>2023-08-06T07:32:46Z</time>
      </trkpt>
      <trkpt lat="50.37045" lon="3.42958">
        <ele>19.8</ele>
        <time>2023-08-06T07:32:47Z</time>
      </trkpt>
      <trkpt lat="50.37002" lon="3.42933">
        <ele>19.6</ele>
        <time>2023-08-06T07:32:57Z</time>
      </trkpt>
      <trkpt lat="50.36958" lon="3.42911">
        <ele>19.4</ele>
        <time>2023-08-06T07:33:06Z</time>
      </trkpt>
      <trkpt lat="50.3691" lon="3.42892">
        <ele>19.4</ele>
        <time>2023-08-06T07:33:16Z</time>
      </trkpt>
      <trkpt lat="50.36877" lon="3.4288">
        <ele>19.4</ele>
        <time>2023-08-06T07:33:23Z</time>
      </trkpt>
      <trkpt lat="50.36872" lon="3.42879">
        <ele>19.4</ele>
        <time>2023-08-06T07:33:24Z</time>
      </trkpt>
      <trkpt lat="50.36868" lon="3.42877">
        <ele>19.4</ele>
        <time>2023-08-06T07:33:25Z</time>
      </trkpt>
      <trkpt lat="50.36863" lon="3.42875">
        <ele>19.4</ele>
        <time>2023-08-06T07:33:26Z</time>
      </trkpt>
      <trkpt lat="50.3686" lon="3.42873">
        <ele>19.4</ele>
        <time>2023-08-06T07:33:27Z</time>
      </trkpt>
      <trkpt lat="50.36857" lon="3.4287">
        <ele>19.4</ele>
        <time>2023-08-06T07:33:28Z</time>
      </trkpt>
      <trkpt lat="50.36854" lon="3.42866">
        <ele>19.4</ele>
        <time>2023-08-06T07:33:29Z</time>
      </trkpt>
      <trkpt lat="50.36853" lon="3.42863">
        <ele>19.4</ele>
        <time>2023-08-06T07:33:30Z</time>
      </trkpt>
      <trkpt lat="50.36854" lon="3.42859">
        <ele>19.2</ele>
        <time>2023-08-06T07:33:31Z</time>
      </trkpt>
      <trkpt lat="50.36856" lon="3.42854">
        <ele>19.2</ele>
        <time>2023-08-06T07:33:32Z</time>
      </trkpt>
      <trkpt lat="50.36858" lon="3.4285">
        <ele>19</ele>
        <time>2023-08-06T07:33:33Z</time>
      </trkpt>
      <trkpt lat="50.36865" lon="3.42833">
        <ele>18.6</ele>
        <time>2023-08-06T07:33:37Z</time>
      </trkpt>
      <trkpt lat="50.36884" lon="3.42789">
        <ele>18.4</ele>
        <time>2023-08-06T07:33:43Z</time>
      </trkpt>
      <trkpt lat="50.36889" lon="3.42776">
        <ele>18.4</ele>
        <time>2023-08-06T07:33:45Z</time>
      </trkpt>
      <trkpt lat="50.36893" lon="3.4277">
        <ele>18.4</ele>
        <time>2023-08-06T07:33:46Z</time>
      </trkpt>
      <trkpt lat="50.36902" lon="3.4275">
        <ele>18.6</ele>
        <time>2023-08-06T07:33:49Z</time>
      </trkpt>
      <trkpt lat="50.36929" lon="3.42687">
        <ele>18</ele>
        <time>2023-08-06T07:33:58Z</time>
      </trkpt>
      <trkpt lat="50.36946" lon="3.42652">
        <ele>17.4</ele>
        <time>2023-08-06T07:34:03Z</time>
      </trkpt>
      <trkpt lat="50.36965" lon="3.42606">
        <ele>16.6</ele>
        <time>2023-08-06T07:34:09Z</time>
      </trkpt>
      <trkpt lat="50.36971" lon="3.42591">
        <ele>16.4</ele>
        <time>2023-08-06T07:34:11Z</time>
      </trkpt>
      <trkpt lat="50.36985" lon="3.42555">
        <ele>15.8</ele>
        <time>2023-08-06T07:34:16Z</time>
      </trkpt>
      <trkpt lat="50.36987" lon="3.42547">
        <ele>15.6</ele>
        <time>2023-08-06T07:34:17Z</time>
      </trkpt>
      <trkpt lat="50.3699" lon="3.42539">
        <ele>15.6</ele>
        <time>2023-08-06T07:34:18Z</time>
      </trkpt>
      <trkpt lat="50.36995" lon="3.42523">
        <ele>15.2</ele>
        <time>2023-08-06T07:34:20Z</time>
      </trkpt>
      <trkpt lat="50.37012" lon="3.42472">
        <ele>13.8</ele>
        <time>2023-08-06T07:34:26Z</time>
      </trkpt>
      <trkpt lat="50.37015" lon="3.42463">
        <ele>13.6</ele>
        <time>2023-08-06T07:34:27Z</time>
      </trkpt>
      <trkpt lat="50.37036" lon="3.42406">
        <ele>12.8</ele>
        <time>2023-08-06T07:34:34Z</time>
      </trkpt>
      <trkpt lat="50.37039" lon="3.42397">
        <ele>12.6</ele>
        <time>2023-08-06T07:34:35Z</time>
      </trkpt>
      <trkpt lat="50.37041" lon="3.42389">
        <ele>12.4</ele>
        <time>2023-08-06T07:34:36Z</time>
      </trkpt>
      <trkpt lat="50.37044" lon="3.42381">
        <ele>12.2</ele>
        <time>2023-08-06T07:34:37Z</time>
      </trkpt>
      <trkpt lat="50.37046" lon="3.42373">
        <ele>12.2</ele>
        <time>2023-08-06T07:34:38Z</time>
      </trkpt>
      <trkpt lat="50.37048" lon="3.42365">
        <ele>12.2</ele>
        <time>2023-08-06T07:34:39Z</time>
      </trkpt>
      <trkpt lat="50.37051" lon="3.42349">
        <ele>11.6</ele>
        <time>2023-08-06T07:34:41Z</time>
      </trkpt>
      <trkpt lat="50.37053" lon="3.42342">
        <ele>11.6</ele>
        <time>2023-08-06T07:34:42Z</time>
      </trkpt>
      <trkpt lat="50.37055" lon="3.42333">
        <ele>11.2</ele>
        <time>2023-08-06T07:34:43Z</time>
      </trkpt>
      <trkpt lat="50.37056" lon="3.42325">
        <ele>11.2</ele>
        <time>2023-08-06T07:34:44Z</time>
      </trkpt>
      <trkpt lat="50.37057" lon="3.42316">
        <ele>11</ele>
        <time>2023-08-06T07:34:45Z</time>
      </trkpt>
      <trkpt lat="50.37059" lon="3.4229">
        <ele>10.8</ele>
        <time>2023-08-06T07:34:48Z</time>
      </trkpt>
      <trkpt lat="50.3706" lon="3.42282">
        <ele>10.6</ele>
        <time>2023-08-06T07:34:49Z</time>
      </trkpt>
      <trkpt lat="50.37061" lon="3.42266">
        <ele>10.4</ele>
        <time>2023-08-06T07:34:51Z</time>
      </trkpt>
      <trkpt lat="50.37064" lon="3.42254">
        <ele>10</ele>
        <time>2023-08-06T07:34:53Z</time>
      </trkpt>
      <trkpt lat="50.37068" lon="3.4225">
        <ele>10</ele>
        <time>2023-08-06T07:34:54Z</time>
      </trkpt>
      <trkpt lat="50.37073" lon="3.42247">
        <ele>10</ele>
        <time>2023-08-06T07:34:55Z</time>
      </trkpt>
      <trkpt lat="50.37077" lon="3.42245">
        <ele>9.8</ele>
        <time>2023-08-06T07:34:56Z</time>
      </trkpt>
      <trkpt lat="50.37081" lon="3.42241">
        <ele>9.8</ele>
        <time>2023-08-06T07:34:57Z</time>
      </trkpt>
      <trkpt lat="50.37084" lon="3.42236">
        <ele>9.6</ele>
        <time>2023-08-06T07:34:58Z</time>
      </trkpt>
      <trkpt lat="50.37086" lon="3.42229">
        <ele>9.4</ele>
        <time>2023-08-06T07:34:59Z</time>
      </trkpt>
      <trkpt lat="50.37087" lon="3.42222">
        <ele>9.4</ele>
        <time>2023-08-06T07:35:00Z</time>
      </trkpt>
      <trkpt lat="50.37088" lon="3.42215">
        <ele>9.2</ele>
        <time>2023-08-06T07:35:01Z</time>
      </trkpt>
      <trkpt lat="50.37089" lon="3.42208">
        <ele>9.2</ele>
        <time>2023-08-06T07:35:02Z</time>
      </trkpt>
      <trkpt lat="50.3709" lon="3.42201">
        <ele>9</ele>
        <time>2023-08-06T07:35:03Z</time>
      </trkpt>
      <trkpt lat="50.37094" lon="3.42172">
        <ele>8.4</ele>
        <time>2023-08-06T07:35:07Z</time>
      </trkpt>
      <trkpt lat="50.37096" lon="3.42164">
        <ele>8.2</ele>
        <time>2023-08-06T07:35:08Z</time>
      </trkpt>
      <trkpt lat="50.37106" lon="3.42097">
        <ele>7.6</ele>
        <time>2023-08-06T07:35:17Z</time>
      </trkpt>
      <trkpt lat="50.37108" lon="3.42082">
        <ele>7.4</ele>
        <time>2023-08-06T07:35:19Z</time>
      </trkpt>
      <trkpt lat="50.37112" lon="3.42055">
        <ele>7</ele>
        <time>2023-08-06T07:35:23Z</time>
      </trkpt>
      <trkpt lat="50.37112" lon="3.42049">
        <ele>7</ele>
        <time>2023-08-06T07:35:24Z</time>
      </trkpt>
      <trkpt lat="50.37113" lon="3.42044">
        <ele>7</ele>
        <time>2023-08-06T07:35:25Z</time>
      </trkpt>
      <trkpt lat="50.37113" lon="3.42038">
        <ele>7</ele>
        <time>2023-08-06T07:35:26Z</time>
      </trkpt>
      <trkpt lat="50.37114" lon="3.42032">
        <ele>7</ele>
        <time>2023-08-06T07:35:27Z</time>
      </trkpt>
      <trkpt lat="50.37115" lon="3.42022">
        <ele>6.8</ele>
        <time>2023-08-06T07:35:29Z</time>
      </trkpt>
      <trkpt lat="50.37116" lon="3.42018">
        <ele>6.8</ele>
        <time>2023-08-06T07:35:30Z</time>
      </trkpt>
      <trkpt lat="50.37117" lon="3.42013">
        <ele>6.8</ele>
        <time>2023-08-06T07:35:31Z</time>
      </trkpt>
      <trkpt lat="50.37125" lon="3.41992">
        <ele>6.6</ele>
        <time>2023-08-06T07:35:35Z</time>
      </trkpt>
      <trkpt lat="50.37128" lon="3.41986">
        <ele>6.6</ele>
        <time>2023-08-06T07:35:36Z</time>
      </trkpt>
      <trkpt lat="50.37135" lon="3.41973">
        <ele>6.2</ele>
        <time>2023-08-06T07:35:38Z</time>
      </trkpt>
      <trkpt lat="50.37141" lon="3.41962">
        <ele>5.8</ele>
        <time>2023-08-06T07:35:40Z</time>
      </trkpt>
      <trkpt lat="50.37149" lon="3.41951">
        <ele>5.4</ele>
        <time>2023-08-06T07:35:42Z</time>
      </trkpt>
      <trkpt lat="50.37156" lon="3.41941">
        <ele>5.2</ele>
        <time>2023-08-06T07:35:44Z</time>
      </trkpt>
      <trkpt lat="50.3716" lon="3.41936">
        <ele>5.2</ele>
        <time>2023-08-06T07:35:45Z</time>
      </trkpt>
      <trkpt lat="50.37174" lon="3.4191">
        <ele>5.4</ele>
        <time>2023-08-06T07:35:50Z</time>
      </trkpt>
      <trkpt lat="50.37176" lon="3.41906">
        <ele>5.4</ele>
        <time>2023-08-06T07:35:51Z</time>
      </trkpt>
      <trkpt lat="50.37179" lon="3.41901">
        <ele>5.6</ele>
        <time>2023-08-06T07:35:52Z</time>
      </trkpt>
      <trkpt lat="50.37181" lon="3.41896">
        <ele>5.6</ele>
        <time>2023-08-06T07:35:53Z</time>
      </trkpt>
      <trkpt lat="50.37183" lon="3.41892">
        <ele>5.6</ele>
        <time>2023-08-06T07:35:54Z</time>
      </trkpt>
      <trkpt lat="50.37185" lon="3.41887">
        <ele>5.6</ele>
        <time>2023-08-06T07:35:55Z</time>
      </trkpt>
      <trkpt lat="50.37185" lon="3.41882">
        <ele>5.6</ele>
        <time>2023-08-06T07:35:56Z</time>
      </trkpt>
      <trkpt lat="50.37184" lon="3.41877">
        <ele>5.4</ele>
        <time>2023-08-06T07:35:57Z</time>
      </trkpt>
      <trkpt lat="50.37183" lon="3.41872">
        <ele>5.2</ele>
        <time>2023-08-06T07:35:58Z</time>
      </trkpt>
      <trkpt lat="50.37181" lon="3.41868">
        <ele>5</ele>
        <time>2023-08-06T07:35:59Z</time>
      </trkpt>
      <trkpt lat="50.37178" lon="3.41865">
        <ele>5</ele>
        <time>2023-08-06T07:36:00Z</time>
      </trkpt>
      <trkpt lat="50.37175" lon="3.41861">
        <ele>4.8</ele>
        <time>2023-08-06T07:36:01Z</time>
      </trkpt>
      <trkpt lat="50.37172" lon="3.41858">
        <ele>4.6</ele>
        <time>2023-08-06T07:36:02Z</time>
      </trkpt>
      <trkpt lat="50.37155" lon="3.41836">
        <ele>4.4</ele>
        <time>2023-08-06T07:36:07Z</time>
      </trkpt>
      <trkpt lat="50.37135" lon="3.41804">
        <ele>4</ele>
        <time>2023-08-06T07:36:13Z</time>
      </trkpt>
      <trkpt lat="50.37129" lon="3.41793">
        <ele>4.2</ele>
        <time>2023-08-06T07:36:15Z</time>
      </trkpt>
      <trkpt lat="50.37103" lon="3.41753">
        <ele>3</ele>
        <time>2023-08-06T07:36:23Z</time>
      </trkpt>
      <trkpt lat="50.37072" lon="3.41705">
        <ele>2</ele>
        <time>2023-08-06T07:36:32Z</time>
      </trkpt>
      <trkpt lat="50.37065" lon="3.41695">
        <ele>2</ele>
        <time>2023-08-06T07:36:34Z</time>
      </trkpt>
      <trkpt lat="50.37048" lon="3.41667">
        <ele>1.8</ele>
        <time>2023-08-06T07:36:39Z</time>
      </trkpt>
      <trkpt lat="50.37016" lon="3.41613">
        <ele>1.4</ele>
        <time>2023-08-06T07:36:48Z</time>
      </trkpt>
      <trkpt lat="50.37013" lon="3.41606">
        <ele>1.2</ele>
        <time>2023-08-06T07:36:49Z</time>
      </trkpt>
      <trkpt lat="50.36992" lon="3.41571">
        <ele>0.80000000000001</ele>
        <time>2023-08-06T07:36:54Z</time>
      </trkpt>
      <trkpt lat="50.36988" lon="3.41563">
        <ele>0.80000000000001</ele>
        <time>2023-08-06T07:36:55Z</time>
      </trkpt>
      <trkpt lat="50.36958" lon="3.41503">
        <ele>0.80000000000001</ele>
        <time>2023-08-06T07:37:03Z</time>
      </trkpt>
      <trkpt lat="50.36954" lon="3.41496">
        <ele>-0.19999999999999</ele>
        <time>2023-08-06T07:37:04Z</time>
      </trkpt>
      <trkpt lat="50.36926" lon="3.41433">
        <ele>-0.80000000000001</ele>
        <time>2023-08-06T07:37:12Z</time>
      </trkpt>
      <trkpt lat="50.36911" lon="3.41402">
        <ele>-1.2</ele>
        <time>2023-08-06T07:37:16Z</time>
      </trkpt>
      <trkpt lat="50.36892" lon="3.41362">
        <ele>-1.4</ele>
        <time>2023-08-06T07:37:21Z</time>
      </trkpt>
      <trkpt lat="50.36889" lon="3.41355">
        <ele>-1.4</ele>
        <time>2023-08-06T07:37:22Z</time>
      </trkpt>
      <trkpt lat="50.36879" lon="3.41331">
        <ele>-1.6</ele>
        <time>2023-08-06T07:37:25Z</time>
      </trkpt>
      <trkpt lat="50.36875" lon="3.41324">
        <ele>-1.6</ele>
        <time>2023-08-06T07:37:26Z</time>
      </trkpt>
      <trkpt lat="50.36873" lon="3.41318">
        <ele>-1.6</ele>
        <time>2023-08-06T07:37:27Z</time>
      </trkpt>
      <trkpt lat="50.36869" lon="3.41311">
        <ele>-1.6</ele>
        <time>2023-08-06T07:37:28Z</time>
      </trkpt>
      <trkpt lat="50.36866" lon="3.41304">
        <ele>-1.6</ele>
        <time>2023-08-06T07:37:29Z</time>
      </trkpt>
      <trkpt lat="50.36862" lon="3.41295">
        <ele>-1.6</ele>
        <time>2023-08-06T07:37:30Z</time>
      </trkpt>
      <trkpt lat="50.36835" lon="3.41244">
        <ele>-1.6</ele>
        <time>2023-08-06T07:37:38Z</time>
      </trkpt>
      <trkpt lat="50.36832" lon="3.4124">
        <ele>-2</ele>
        <time>2023-08-06T07:37:39Z</time>
      </trkpt>
      <trkpt lat="50.3683" lon="3.41236">
        <ele>-2</ele>
        <time>2023-08-06T07:37:40Z</time>
      </trkpt>
      <trkpt lat="50.36829" lon="3.41233">
        <ele>-2</ele>
        <time>2023-08-06T07:37:41Z</time>
      </trkpt>
      <trkpt lat="50.36827" lon="3.4123">
        <ele>-2</ele>
        <time>2023-08-06T07:37:42Z</time>
      </trkpt>
      <trkpt lat="50.36827" lon="3.41227">
        <ele>-2</ele>
        <time>2023-08-06T07:37:43Z</time>
      </trkpt>
      <trkpt lat="50.36827" lon="3.41223">
        <ele>-2</ele>
        <time>2023-08-06T07:37:44Z</time>
      </trkpt>
      <trkpt lat="50.36827" lon="3.41219">
        <ele>-2.2</ele>
        <time>2023-08-06T07:37:45Z</time>
      </trkpt>
      <trkpt lat="50.36828" lon="3.41217">
        <ele>-2</ele>
        <time>2023-08-06T07:37:46Z</time>
      </trkpt>
      <trkpt lat="50.36829" lon="3.41215">
        <ele>-2</ele>
        <time>2023-08-06T07:37:47Z</time>
      </trkpt>
      <trkpt lat="50.36831" lon="3.41214">
        <ele>-2</ele>
        <time>2023-08-06T07:37:48Z</time>
      </trkpt>
      <trkpt lat="50.36832" lon="3.41213">
        <ele>-2</ele>
        <time>2023-08-06T07:37:49Z</time>
      </trkpt>
      <trkpt lat="50.36834" lon="3.41211">
        <ele>-2</ele>
        <time>2023-08-06T07:37:50Z</time>
      </trkpt>
      <trkpt lat="50.36836" lon="3.4121">
        <ele>-2</ele>
        <time>2023-08-06T07:37:51Z</time>
      </trkpt>
      <trkpt lat="50.36839" lon="3.41207">
        <ele>-2</ele>
        <time>2023-08-06T07:37:53Z</time>
      </trkpt>
      <trkpt lat="50.36841" lon="3.41205">
        <ele>-2</ele>
        <time>2023-08-06T07:37:54Z</time>
      </trkpt>
      <trkpt lat="50.36842" lon="3.41203">
        <ele>-2</ele>
        <time>2023-08-06T07:37:55Z</time>
      </trkpt>
      <trkpt lat="50.3684" lon="3.41199">
        <ele>-2</ele>
        <time>2023-08-06T07:37:57Z</time>
      </trkpt>
      <trkpt lat="50.36829" lon="3.41205">
        <ele>-2</ele>
        <time>2023-08-06T07:38:01Z</time>
      </trkpt>
      <trkpt lat="50.36826" lon="3.41204">
        <ele>-2</ele>
        <time>2023-08-06T07:38:02Z</time>
      </trkpt>
      <trkpt lat="50.36822" lon="3.41202">
        <ele>-2</ele>
        <time>2023-08-06T07:38:03Z</time>
      </trkpt>
      <trkpt lat="50.36816" lon="3.41198">
        <ele>-2</ele>
        <time>2023-08-06T07:38:05Z</time>
      </trkpt>
      <trkpt lat="50.36806" lon="3.4119">
        <ele>-2</ele>
        <time>2023-08-06T07:38:08Z</time>
      </trkpt>
      <trkpt lat="50.3679" lon="3.41176">
        <ele>-2.2</ele>
        <time>2023-08-06T07:38:13Z</time>
      </trkpt>
      <trkpt lat="50.36788" lon="3.41174">
        <ele>-2.4</ele>
        <time>2023-08-06T07:38:14Z</time>
      </trkpt>
      <trkpt lat="50.36787" lon="3.41172">
        <ele>-2.4</ele>
        <time>2023-08-06T07:38:15Z</time>
      </trkpt>
      <trkpt lat="50.36785" lon="3.41171">
        <ele>-2.4</ele>
        <time>2023-08-06T07:38:16Z</time>
      </trkpt>
      <trkpt lat="50.36783" lon="3.4117">
        <ele>-2.4</ele>
        <time>2023-08-06T07:38:17Z</time>
      </trkpt>
      <trkpt lat="50.3678" lon="3.4117">
        <ele>-2.6</ele>
        <time>2023-08-06T07:38:18Z</time>
      </trkpt>
      <trkpt lat="50.36778" lon="3.41168">
        <ele>-2.6</ele>
        <time>2023-08-06T07:38:19Z</time>
      </trkpt>
      <trkpt lat="50.36768" lon="3.4116">
        <ele>-2.4</ele>
        <time>2023-08-06T07:38:23Z</time>
      </trkpt>
      <trkpt lat="50.36754" lon="3.41144">
        <ele>-2.4</ele>
        <time>2023-08-06T07:38:28Z</time>
      </trkpt>
      <trkpt lat="50.3675" lon="3.41141">
        <ele>-2.4</ele>
        <time>2023-08-06T07:38:29Z</time>
      </trkpt>
      <trkpt lat="50.36733" lon="3.41128">
        <ele>-2.6</ele>
        <time>2023-08-06T07:38:34Z</time>
      </trkpt>
      <trkpt lat="50.36717" lon="3.41117">
        <ele>-2.8</ele>
        <time>2023-08-06T07:38:39Z</time>
      </trkpt>
      <trkpt lat="50.36714" lon="3.41114">
        <ele>-2.8</ele>
        <time>2023-08-06T07:38:40Z</time>
      </trkpt>
      <trkpt lat="50.3671" lon="3.41112">
        <ele>-2.8</ele>
        <time>2023-08-06T07:38:41Z</time>
      </trkpt>
      <trkpt lat="50.36706" lon="3.41109">
        <ele>-3</ele>
        <time>2023-08-06T07:38:42Z</time>
      </trkpt>
      <trkpt lat="50.36703" lon="3.41107">
        <ele>-3</ele>
        <time>2023-08-06T07:38:43Z</time>
      </trkpt>
      <trkpt lat="50.36691" lon="3.41099">
        <ele>-3.4</ele>
        <time>2023-08-06T07:38:46Z</time>
      </trkpt>
      <trkpt lat="50.36689" lon="3.41099">
        <ele>-3.4</ele>
        <time>2023-08-06T07:38:47Z</time>
      </trkpt>
      <trkpt lat="50.36685" lon="3.41098">
        <ele>-3.4</ele>
        <time>2023-08-06T07:38:48Z</time>
      </trkpt>
      <trkpt lat="50.36681" lon="3.41097">
        <ele>-3.4</ele>
        <time>2023-08-06T07:38:49Z</time>
      </trkpt>
      <trkpt lat="50.36678" lon="3.41095">
        <ele>-3.4</ele>
        <time>2023-08-06T07:38:50Z</time>
      </trkpt>
      <trkpt lat="50.36674" lon="3.41092">
        <ele>-3.4</ele>
        <time>2023-08-06T07:38:51Z</time>
      </trkpt>
      <trkpt lat="50.3667" lon="3.4109">
        <ele>-3.4</ele>
        <time>2023-08-06T07:38:52Z</time>
      </trkpt>
      <trkpt lat="50.36666" lon="3.41089">
        <ele>-3.4</ele>
        <time>2023-08-06T07:38:53Z</time>
      </trkpt>
      <trkpt lat="50.3666" lon="3.41084">
        <ele>-3.6</ele>
        <time>2023-08-06T07:38:55Z</time>
      </trkpt>
      <trkpt lat="50.36647" lon="3.41079">
        <ele>-3.8</ele>
        <time>2023-08-06T07:38:58Z</time>
      </trkpt>
      <trkpt lat="50.36641" lon="3.41078">
        <ele>-4</ele>
        <time>2023-08-06T07:39:00Z</time>
      </trkpt>
      <trkpt lat="50.36638" lon="3.41078">
        <ele>-4</ele>
        <time>2023-08-06T07:39:01Z</time>
      </trkpt>
      <trkpt lat="50.36634" lon="3.41079">
        <ele>-4</ele>
        <time>2023-08-06T07:39:02Z</time>
      </trkpt>
      <trkpt lat="50.36631" lon="3.41079">
        <ele>-4</ele>
        <time>2023-08-06T07:39:03Z</time>
      </trkpt>
      <trkpt lat="50.36613" lon="3.41077">
        <ele>-4</ele>
        <time>2023-08-06T07:39:08Z</time>
      </trkpt>
      <trkpt lat="50.36605" lon="3.41076">
        <ele>-4</ele>
        <time>2023-08-06T07:39:10Z</time>
      </trkpt>
      <trkpt lat="50.36576" lon="3.41072">
        <ele>-3.8</ele>
        <time>2023-08-06T07:39:17Z</time>
      </trkpt>
      <trkpt lat="50.3656" lon="3.4107">
        <ele>-4</ele>
        <time>2023-08-06T07:39:21Z</time>
      </trkpt>
      <trkpt lat="50.36556" lon="3.41071">
        <ele>-4.2</ele>
        <time>2023-08-06T07:39:22Z</time>
      </trkpt>
      <trkpt lat="50.36553" lon="3.41072">
        <ele>-4.2</ele>
        <time>2023-08-06T07:39:23Z</time>
      </trkpt>
      <trkpt lat="50.3655" lon="3.41073">
        <ele>-4.2</ele>
        <time>2023-08-06T07:39:24Z</time>
      </trkpt>
      <trkpt lat="50.36542" lon="3.41073">
        <ele>-4.2</ele>
        <time>2023-08-06T07:39:26Z</time>
      </trkpt>
      <trkpt lat="50.36538" lon="3.41073">
        <ele>-4.4</ele>
        <time>2023-08-06T07:39:27Z</time>
      </trkpt>
      <trkpt lat="50.36535" lon="3.41073">
        <ele>-4.4</ele>
        <time>2023-08-06T07:39:28Z</time>
      </trkpt>
      <trkpt lat="50.36531" lon="3.41073">
        <ele>-4.4</ele>
        <time>2023-08-06T07:39:29Z</time>
      </trkpt>
      <trkpt lat="50.36527" lon="3.41073">
        <ele>-4.4</ele>
        <time>2023-08-06T07:39:30Z</time>
      </trkpt>
      <trkpt lat="50.36523" lon="3.41073">
        <ele>-4.4</ele>
        <time>2023-08-06T07:39:31Z</time>
      </trkpt>
      <trkpt lat="50.36512" lon="3.41073">
        <ele>-4.2</ele>
        <time>2023-08-06T07:39:34Z</time>
      </trkpt>
      <trkpt lat="50.36508" lon="3.41072">
        <ele>-4.2</ele>
        <time>2023-08-06T07:39:35Z</time>
      </trkpt>
      <trkpt lat="50.36501" lon="3.41071">
        <ele>-4.2</ele>
        <time>2023-08-06T07:39:37Z</time>
      </trkpt>
      <trkpt lat="50.36497" lon="3.4107">
        <ele>-4.2</ele>
        <time>2023-08-06T07:39:38Z</time>
      </trkpt>
      <trkpt lat="50.36494" lon="3.41067">
        <ele>-4.2</ele>
        <time>2023-08-06T07:39:39Z</time>
      </trkpt>
      <trkpt lat="50.36491" lon="3.41066">
        <ele>-4.2</ele>
        <time>2023-08-06T07:39:40Z</time>
      </trkpt>
      <trkpt lat="50.36488" lon="3.41065">
        <ele>-4.2</ele>
        <time>2023-08-06T07:39:41Z</time>
      </trkpt>
      <trkpt lat="50.36486" lon="3.41064">
        <ele>-4.2</ele>
        <time>2023-08-06T07:39:42Z</time>
      </trkpt>
      <trkpt lat="50.36483" lon="3.41063">
        <ele>-4.2</ele>
        <time>2023-08-06T07:39:43Z</time>
      </trkpt>
      <trkpt lat="50.3648" lon="3.41063">
        <ele>-4</ele>
        <time>2023-08-06T07:39:44Z</time>
      </trkpt>
      <trkpt lat="50.36477" lon="3.41062">
        <ele>-4</ele>
        <time>2023-08-06T07:39:45Z</time>
      </trkpt>
      <trkpt lat="50.36467" lon="3.41063">
        <ele>-3.8</ele>
        <time>2023-08-06T07:39:48Z</time>
      </trkpt>
      <trkpt lat="50.36461" lon="3.41063">
        <ele>-4</ele>
        <time>2023-08-06T07:39:50Z</time>
      </trkpt>
      <trkpt lat="50.36457" lon="3.41064">
        <ele>-4</ele>
        <time>2023-08-06T07:39:51Z</time>
      </trkpt>
      <trkpt lat="50.36454" lon="3.41064">
        <ele>-4</ele>
        <time>2023-08-06T07:39:52Z</time>
      </trkpt>
      <trkpt lat="50.36444" lon="3.41063">
        <ele>-4.2</ele>
        <time>2023-08-06T07:39:55Z</time>
      </trkpt>
      <trkpt lat="50.36435" lon="3.41061">
        <ele>-4.6</ele>
        <time>2023-08-06T07:39:58Z</time>
      </trkpt>
      <trkpt lat="50.36432" lon="3.4106">
        <ele>-4.4</ele>
        <time>2023-08-06T07:39:59Z</time>
      </trkpt>
      <trkpt lat="50.36429" lon="3.41059">
        <ele>-4.4</ele>
        <time>2023-08-06T07:40:00Z</time>
      </trkpt>
      <trkpt lat="50.36427" lon="3.41059">
        <ele>-4.4</ele>
        <time>2023-08-06T07:40:01Z</time>
      </trkpt>
      <trkpt lat="50.36418" lon="3.41054">
        <ele>-4.4</ele>
        <time>2023-08-06T07:40:04Z</time>
      </trkpt>
      <trkpt lat="50.3639" lon="3.41042">
        <ele>-3.8</ele>
        <time>2023-08-06T07:40:12Z</time>
      </trkpt>
      <trkpt lat="50.36384" lon="3.41036">
        <ele>-4</ele>
        <time>2023-08-06T07:40:14Z</time>
      </trkpt>
      <trkpt lat="50.36381" lon="3.41033">
        <ele>-4</ele>
        <time>2023-08-06T07:40:15Z</time>
      </trkpt>
      <trkpt lat="50.36374" lon="3.41024">
        <ele>-4</ele>
        <time>2023-08-06T07:40:18Z</time>
      </trkpt>
      <trkpt lat="50.36371" lon="3.41023">
        <ele>-4</ele>
        <time>2023-08-06T07:40:19Z</time>
      </trkpt>
      <trkpt lat="50.36369" lon="3.41024">
        <ele>-4</ele>
        <time>2023-08-06T07:40:20Z</time>
      </trkpt>
      <trkpt lat="50.36367" lon="3.41026">
        <ele>-4</ele>
        <time>2023-08-06T07:40:21Z</time>
      </trkpt>
      <trkpt lat="50.36364" lon="3.41029">
        <ele>-4</ele>
        <time>2023-08-06T07:40:22Z</time>
      </trkpt>
      <trkpt lat="50.36362" lon="3.41032">
        <ele>-4</ele>
        <time>2023-08-06T07:40:23Z</time>
      </trkpt>
      <trkpt lat="50.36361" lon="3.41035">
        <ele>-4</ele>
        <time>2023-08-06T07:40:24Z</time>
      </trkpt>
      <trkpt lat="50.36355" lon="3.41045">
        <ele>-4</ele>
        <time>2023-08-06T07:40:27Z</time>
      </trkpt>
      <trkpt lat="50.3635" lon="3.4105">
        <ele>-4</ele>
        <time>2023-08-06T07:40:29Z</time>
      </trkpt>
      <trkpt lat="50.36337" lon="3.41056">
        <ele>-3.8</ele>
        <time>2023-08-06T07:40:33Z</time>
      </trkpt>
      <trkpt lat="50.36334" lon="3.41057">
        <ele>-3.8</ele>
        <time>2023-08-06T07:40:34Z</time>
      </trkpt>
      <trkpt lat="50.3631" lon="3.41058">
        <ele>-3.8</ele>
        <time>2023-08-06T07:40:41Z</time>
      </trkpt>
      <trkpt lat="50.36291" lon="3.41055">
        <ele>-3.6</ele>
        <time>2023-08-06T07:40:47Z</time>
      </trkpt>
      <trkpt lat="50.36288" lon="3.41054">
        <ele>-3.6</ele>
        <time>2023-08-06T07:40:48Z</time>
      </trkpt>
      <trkpt lat="50.36285" lon="3.41054">
        <ele>-3.6</ele>
        <time>2023-08-06T07:40:49Z</time>
      </trkpt>
      <trkpt lat="50.36282" lon="3.41053">
        <ele>-3.6</ele>
        <time>2023-08-06T07:40:50Z</time>
      </trkpt>
      <trkpt lat="50.3628" lon="3.41054">
        <ele>-3.6</ele>
        <time>2023-08-06T07:40:51Z</time>
      </trkpt>
      <trkpt lat="50.36277" lon="3.41054">
        <ele>-3.6</ele>
        <time>2023-08-06T07:40:52Z</time>
      </trkpt>
      <trkpt lat="50.36275" lon="3.41053">
        <ele>-3.6</ele>
        <time>2023-08-06T07:40:53Z</time>
      </trkpt>
      <trkpt lat="50.36273" lon="3.41053">
        <ele>-3.6</ele>
        <time>2023-08-06T07:40:54Z</time>
      </trkpt>
      <trkpt lat="50.36271" lon="3.41052">
        <ele>-3.6</ele>
        <time>2023-08-06T07:40:55Z</time>
      </trkpt>
      <trkpt lat="50.36259" lon="3.41049">
        <ele>-3.6</ele>
        <time>2023-08-06T07:40:59Z</time>
      </trkpt>
      <trkpt lat="50.36249" lon="3.41046">
        <ele>-3.6</ele>
        <time>2023-08-06T07:41:02Z</time>
      </trkpt>
      <trkpt lat="50.36233" lon="3.4104">
        <ele>-3.6</ele>
        <time>2023-08-06T07:41:07Z</time>
      </trkpt>
      <trkpt lat="50.36208" lon="3.41031">
        <ele>-3.2</ele>
        <time>2023-08-06T07:41:15Z</time>
      </trkpt>
      <trkpt lat="50.36185" lon="3.41026">
        <ele>-3.2</ele>
        <time>2023-08-06T07:41:22Z</time>
      </trkpt>
      <trkpt lat="50.36166" lon="3.41019">
        <ele>-3.6</ele>
        <time>2023-08-06T07:41:28Z</time>
      </trkpt>
      <trkpt lat="50.36137" lon="3.41012">
        <ele>-3.6</ele>
        <time>2023-08-06T07:41:37Z</time>
      </trkpt>
      <trkpt lat="50.36134" lon="3.41011">
        <ele>-3.6</ele>
        <time>2023-08-06T07:41:38Z</time>
      </trkpt>
      <trkpt lat="50.36131" lon="3.41011">
        <ele>-3.6</ele>
        <time>2023-08-06T07:41:39Z</time>
      </trkpt>
      <trkpt lat="50.36128" lon="3.4101">
        <ele>-3.6</ele>
        <time>2023-08-06T07:41:40Z</time>
      </trkpt>
      <trkpt lat="50.36119" lon="3.41009">
        <ele>-3.6</ele>
        <time>2023-08-06T07:41:43Z</time>
      </trkpt>
      <trkpt lat="50.36116" lon="3.41008">
        <ele>-3.6</ele>
        <time>2023-08-06T07:41:44Z</time>
      </trkpt>
      <trkpt lat="50.36113" lon="3.41007">
        <ele>-3.6</ele>
        <time>2023-08-06T07:41:45Z</time>
      </trkpt>
      <trkpt lat="50.3611" lon="3.41007">
        <ele>-3.4</ele>
        <time>2023-08-06T07:41:46Z</time>
      </trkpt>
      <trkpt lat="50.36106" lon="3.41008">
        <ele>-3.4</ele>
        <time>2023-08-06T07:41:48Z</time>
      </trkpt>
      <trkpt lat="50.36103" lon="3.41009">
        <ele>-3.4</ele>
        <time>2023-08-06T07:41:49Z</time>
      </trkpt>
      <trkpt lat="50.36101" lon="3.41011">
        <ele>-3.4</ele>
        <time>2023-08-06T07:41:50Z</time>
      </trkpt>
      <trkpt lat="50.36099" lon="3.41011">
        <ele>-3.6</ele>
        <time>2023-08-06T07:41:51Z</time>
      </trkpt>
      <trkpt lat="50.36097" lon="3.41013">
        <ele>-3.4</ele>
        <time>2023-08-06T07:41:52Z</time>
      </trkpt>
      <trkpt lat="50.36095" lon="3.41014">
        <ele>-3.4</ele>
        <time>2023-08-06T07:41:53Z</time>
      </trkpt>
      <trkpt lat="50.36093" lon="3.41015">
        <ele>-3.4</ele>
        <time>2023-08-06T07:41:54Z</time>
      </trkpt>
      <trkpt lat="50.36091" lon="3.41017">
        <ele>-3.4</ele>
        <time>2023-08-06T07:41:55Z</time>
      </trkpt>
      <trkpt lat="50.36088" lon="3.4102">
        <ele>-3.4</ele>
        <time>2023-08-06T07:41:56Z</time>
      </trkpt>
      <trkpt lat="50.36084" lon="3.41024">
        <ele>-3.4</ele>
        <time>2023-08-06T07:41:58Z</time>
      </trkpt>
      <trkpt lat="50.36082" lon="3.41027">
        <ele>-3.4</ele>
        <time>2023-08-06T07:41:59Z</time>
      </trkpt>
      <trkpt lat="50.36079" lon="3.41029">
        <ele>-3.4</ele>
        <time>2023-08-06T07:42:00Z</time>
      </trkpt>
      <trkpt lat="50.36077" lon="3.41032">
        <ele>-3.4</ele>
        <time>2023-08-06T07:42:01Z</time>
      </trkpt>
      <trkpt lat="50.36075" lon="3.41034">
        <ele>-3.4</ele>
        <time>2023-08-06T07:42:02Z</time>
      </trkpt>
      <trkpt lat="50.36064" lon="3.41045">
        <ele>-3.2</ele>
        <time>2023-08-06T07:42:07Z</time>
      </trkpt>
      <trkpt lat="50.36062" lon="3.41046">
        <ele>-3.2</ele>
        <time>2023-08-06T07:42:08Z</time>
      </trkpt>
      <trkpt lat="50.36059" lon="3.41049">
        <ele>-3.2</ele>
        <time>2023-08-06T07:42:09Z</time>
      </trkpt>
      <trkpt lat="50.36056" lon="3.41051">
        <ele>-3.2</ele>
        <time>2023-08-06T07:42:10Z</time>
      </trkpt>
      <trkpt lat="50.36053" lon="3.41053">
        <ele>-3.2</ele>
        <time>2023-08-06T07:42:11Z</time>
      </trkpt>
      <trkpt lat="50.36045" lon="3.41062">
        <ele>-3</ele>
        <time>2023-08-06T07:42:14Z</time>
      </trkpt>
      <trkpt lat="50.36042" lon="3.41067">
        <ele>-3</ele>
        <time>2023-08-06T07:42:15Z</time>
      </trkpt>
      <trkpt lat="50.36039" lon="3.41072">
        <ele>-3</ele>
        <time>2023-08-06T07:42:16Z</time>
      </trkpt>
      <trkpt lat="50.36037" lon="3.41076">
        <ele>-3</ele>
        <time>2023-08-06T07:42:17Z</time>
      </trkpt>
      <trkpt lat="50.36037" lon="3.41081">
        <ele>-3</ele>
        <time>2023-08-06T07:42:18Z</time>
      </trkpt>
      <trkpt lat="50.36036" lon="3.41085">
        <ele>-3</ele>
        <time>2023-08-06T07:42:19Z</time>
      </trkpt>
      <trkpt lat="50.36035" lon="3.41101">
        <ele>-3</ele>
        <time>2023-08-06T07:42:22Z</time>
      </trkpt>
      <trkpt lat="50.36036" lon="3.41105">
        <ele>-3</ele>
        <time>2023-08-06T07:42:23Z</time>
      </trkpt>
      <trkpt lat="50.36036" lon="3.41109">
        <ele>-3</ele>
        <time>2023-08-06T07:42:24Z</time>
      </trkpt>
      <trkpt lat="50.36036" lon="3.41113">
        <ele>-3</ele>
        <time>2023-08-06T07:42:25Z</time>
      </trkpt>
      <trkpt lat="50.36035" lon="3.41117">
        <ele>-3</ele>
        <time>2023-08-06T07:42:26Z</time>
      </trkpt>
      <trkpt lat="50.36034" lon="3.41122">
        <ele>-3.2</ele>
        <time>2023-08-06T07:42:27Z</time>
      </trkpt>
      <trkpt lat="50.36034" lon="3.41128">
        <ele>-3.2</ele>
        <time>2023-08-06T07:42:28Z</time>
      </trkpt>
      <trkpt lat="50.36035" lon="3.41155">
        <ele>-3.4</ele>
        <time>2023-08-06T07:42:33Z</time>
      </trkpt>
      <trkpt lat="50.36038" lon="3.41177">
        <ele>-3.4</ele>
        <time>2023-08-06T07:42:38Z</time>
      </trkpt>
      <trkpt lat="50.36039" lon="3.4118">
        <ele>-3.6</ele>
        <time>2023-08-06T07:42:39Z</time>
      </trkpt>
      <trkpt lat="50.36039" lon="3.41183">
        <ele>-3.6</ele>
        <time>2023-08-06T07:42:40Z</time>
      </trkpt>
      <trkpt lat="50.3604" lon="3.41185">
        <ele>-3.6</ele>
        <time>2023-08-06T07:42:41Z</time>
      </trkpt>
      <trkpt lat="50.36041" lon="3.41185">
        <ele>-3.6</ele>
        <time>2023-08-06T07:42:42Z</time>
      </trkpt>
      <trkpt lat="50.36041" lon="3.41185">
        <ele>-3.6</ele>
        <time>2023-08-06T07:42:43Z</time>
      </trkpt>
      <trkpt lat="50.36042" lon="3.41184">
        <ele>-3.6</ele>
        <time>2023-08-06T07:42:44Z</time>
      </trkpt>
      <trkpt lat="50.36042" lon="3.41184">
        <ele>-3.6</ele>
        <time>2023-08-06T07:42:45Z</time>
      </trkpt>
      <trkpt lat="50.36042" lon="3.41184">
        <ele>-3.6</ele>
        <time>2023-08-06T07:42:46Z</time>
      </trkpt>
      <trkpt lat="50.36036" lon="3.41144">
        <ele>-3.4</ele>
        <time>2023-08-06T07:45:35Z</time>
      </trkpt>
      <trkpt lat="50.36036" lon="3.4114">
        <ele>-3.4</ele>
        <time>2023-08-06T07:45:36Z</time>
      </trkpt>
      <trkpt lat="50.36037" lon="3.41125">
        <ele>-3.4</ele>
        <time>2023-08-06T07:45:40Z</time>
      </trkpt>
      <trkpt lat="50.36039" lon="3.41121">
        <ele>-3.4</ele>
        <time>2023-08-06T07:45:41Z</time>
      </trkpt>
      <trkpt lat="50.36041" lon="3.41119">
        <ele>-3.4</ele>
        <time>2023-08-06T07:45:42Z</time>
      </trkpt>
      <trkpt lat="50.36044" lon="3.41117">
        <ele>-3.4</ele>
        <time>2023-08-06T07:45:43Z</time>
      </trkpt>
      <trkpt lat="50.36051" lon="3.41113">
        <ele>-3.2</ele>
        <time>2023-08-06T07:45:46Z</time>
      </trkpt>
      <trkpt lat="50.36059" lon="3.41109">
        <ele>-3.4</ele>
        <time>2023-08-06T07:45:49Z</time>
      </trkpt>
      <trkpt lat="50.3607" lon="3.41104">
        <ele>-3.2</ele>
        <time>2023-08-06T07:45:53Z</time>
      </trkpt>
      <trkpt lat="50.36084" lon="3.41102">
        <ele>-3.2</ele>
        <time>2023-08-06T07:45:58Z</time>
      </trkpt>
      <trkpt lat="50.36087" lon="3.41102">
        <ele>-3.2</ele>
        <time>2023-08-06T07:45:59Z</time>
      </trkpt>
      <trkpt lat="50.36094" lon="3.41102">
        <ele>-3.2</ele>
        <time>2023-08-06T07:46:01Z</time>
      </trkpt>
      <trkpt lat="50.36096" lon="3.41102">
        <ele>-3.2</ele>
        <time>2023-08-06T07:46:02Z</time>
      </trkpt>
      <trkpt lat="50.36113" lon="3.41102">
        <ele>-2.8</ele>
        <time>2023-08-06T07:46:08Z</time>
      </trkpt>
      <trkpt lat="50.36122" lon="3.41102">
        <ele>-2.8</ele>
        <time>2023-08-06T07:46:11Z</time>
      </trkpt>
      <trkpt lat="50.36147" lon="3.411">
        <ele>-2.8</ele>
        <time>2023-08-06T07:46:20Z</time>
      </trkpt>
      <trkpt lat="50.36165" lon="3.411">
        <ele>-2.8</ele>
        <time>2023-08-06T07:46:26Z</time>
      </trkpt>
      <trkpt lat="50.36171" lon="3.41101">
        <ele>-2.8</ele>
        <time>2023-08-06T07:46:28Z</time>
      </trkpt>
      <trkpt lat="50.36184" lon="3.41097">
        <ele>-3</ele>
        <time>2023-08-06T07:46:33Z</time>
      </trkpt>
      <trkpt lat="50.36187" lon="3.41097">
        <ele>-3</ele>
        <time>2023-08-06T07:46:34Z</time>
      </trkpt>
      <trkpt lat="50.3619" lon="3.41099">
        <ele>-3</ele>
        <time>2023-08-06T07:46:35Z</time>
      </trkpt>
      <trkpt lat="50.36193" lon="3.411">
        <ele>-2.8</ele>
        <time>2023-08-06T07:46:36Z</time>
      </trkpt>
      <trkpt lat="50.36196" lon="3.411">
        <ele>-3</ele>
        <time>2023-08-06T07:46:37Z</time>
      </trkpt>
      <trkpt lat="50.36204" lon="3.41101">
        <ele>-3</ele>
        <time>2023-08-06T07:46:39Z</time>
      </trkpt>
      <trkpt lat="50.36224" lon="3.41102">
        <ele>-3.2</ele>
        <time>2023-08-06T07:46:45Z</time>
      </trkpt>
      <trkpt lat="50.36233" lon="3.41102">
        <ele>-3</ele>
        <time>2023-08-06T07:46:48Z</time>
      </trkpt>
      <trkpt lat="50.3624" lon="3.41102">
        <ele>-3</ele>
        <time>2023-08-06T07:46:50Z</time>
      </trkpt>
      <trkpt lat="50.36242" lon="3.41103">
        <ele>-3</ele>
        <time>2023-08-06T07:46:51Z</time>
      </trkpt>
      <trkpt lat="50.36255" lon="3.41103">
        <ele>-2.8</ele>
        <time>2023-08-06T07:46:55Z</time>
      </trkpt>
      <trkpt lat="50.36258" lon="3.41104">
        <ele>-2.8</ele>
        <time>2023-08-06T07:46:56Z</time>
      </trkpt>
      <trkpt lat="50.36261" lon="3.41104">
        <ele>-2.8</ele>
        <time>2023-08-06T07:46:57Z</time>
      </trkpt>
      <trkpt lat="50.36264" lon="3.41104">
        <ele>-3</ele>
        <time>2023-08-06T07:46:58Z</time>
      </trkpt>
      <trkpt lat="50.36289" lon="3.41104">
        <ele>-2.8</ele>
        <time>2023-08-06T07:47:05Z</time>
      </trkpt>
      <trkpt lat="50.36296" lon="3.41103">
        <ele>-2.8</ele>
        <time>2023-08-06T07:47:07Z</time>
      </trkpt>
      <trkpt lat="50.36299" lon="3.41103">
        <ele>-2.6</ele>
        <time>2023-08-06T07:47:08Z</time>
      </trkpt>
      <trkpt lat="50.36302" lon="3.41103">
        <ele>-2.6</ele>
        <time>2023-08-06T07:47:09Z</time>
      </trkpt>
      <trkpt lat="50.36304" lon="3.41103">
        <ele>-2.6</ele>
        <time>2023-08-06T07:47:10Z</time>
      </trkpt>
      <trkpt lat="50.36306" lon="3.41103">
        <ele>-2.6</ele>
        <time>2023-08-06T07:47:11Z</time>
      </trkpt>
      <trkpt lat="50.36308" lon="3.41103">
        <ele>-2.6</ele>
        <time>2023-08-06T07:47:12Z</time>
      </trkpt>
      <trkpt lat="50.3631" lon="3.41103">
        <ele>-2.6</ele>
        <time>2023-08-06T07:47:13Z</time>
      </trkpt>
      <trkpt lat="50.36314" lon="3.41104">
        <ele>-2.8</ele>
        <time>2023-08-06T07:47:14Z</time>
      </trkpt>
      <trkpt lat="50.36316" lon="3.41104">
        <ele>-2.8</ele>
        <time>2023-08-06T07:47:15Z</time>
      </trkpt>
      <trkpt lat="50.36322" lon="3.41103">
        <ele>-3.4</ele>
        <time>2023-08-06T07:47:17Z</time>
      </trkpt>
      <trkpt lat="50.36325" lon="3.41103">
        <ele>-3.4</ele>
        <time>2023-08-06T07:47:18Z</time>
      </trkpt>
      <trkpt lat="50.36328" lon="3.41104">
        <ele>-3.6</ele>
        <time>2023-08-06T07:47:19Z</time>
      </trkpt>
      <trkpt lat="50.36331" lon="3.41105">
        <ele>-3.6</ele>
        <time>2023-08-06T07:47:20Z</time>
      </trkpt>
      <trkpt lat="50.36334" lon="3.41106">
        <ele>-3.6</ele>
        <time>2023-08-06T07:47:21Z</time>
      </trkpt>
      <trkpt lat="50.36337" lon="3.41106">
        <ele>-3.6</ele>
        <time>2023-08-06T07:47:22Z</time>
      </trkpt>
      <trkpt lat="50.36347" lon="3.41107">
        <ele>-3.6</ele>
        <time>2023-08-06T07:47:25Z</time>
      </trkpt>
      <trkpt lat="50.36371" lon="3.41108">
        <ele>-4.2</ele>
        <time>2023-08-06T07:47:33Z</time>
      </trkpt>
      <trkpt lat="50.36378" lon="3.41107">
        <ele>-4.2</ele>
        <time>2023-08-06T07:47:35Z</time>
      </trkpt>
      <trkpt lat="50.36381" lon="3.41107">
        <ele>-4.2</ele>
        <time>2023-08-06T07:47:36Z</time>
      </trkpt>
      <trkpt lat="50.36384" lon="3.41107">
        <ele>-4.4</ele>
        <time>2023-08-06T07:47:37Z</time>
      </trkpt>
      <trkpt lat="50.36387" lon="3.41107">
        <ele>-4.4</ele>
        <time>2023-08-06T07:47:38Z</time>
      </trkpt>
      <trkpt lat="50.3639" lon="3.41107">
        <ele>-4.4</ele>
        <time>2023-08-06T07:47:39Z</time>
      </trkpt>
      <trkpt lat="50.36392" lon="3.41107">
        <ele>-4.4</ele>
        <time>2023-08-06T07:47:40Z</time>
      </trkpt>
      <trkpt lat="50.36394" lon="3.41106">
        <ele>-4.4</ele>
        <time>2023-08-06T07:47:41Z</time>
      </trkpt>
      <trkpt lat="50.36396" lon="3.41105">
        <ele>-4.2</ele>
        <time>2023-08-06T07:47:42Z</time>
      </trkpt>
      <trkpt lat="50.36398" lon="3.41105">
        <ele>-4.2</ele>
        <time>2023-08-06T07:47:43Z</time>
      </trkpt>
      <trkpt lat="50.36399" lon="3.41105">
        <ele>-4.2</ele>
        <time>2023-08-06T07:47:44Z</time>
      </trkpt>
      <trkpt lat="50.364" lon="3.41104">
        <ele>-4.2</ele>
        <time>2023-08-06T07:47:45Z</time>
      </trkpt>
      <trkpt lat="50.364" lon="3.41104">
        <ele>-4</ele>
        <time>2023-08-06T07:47:46Z</time>
      </trkpt>
      <trkpt lat="50.364" lon="3.41104">
        <ele>-4</ele>
        <time>2023-08-06T07:47:47Z</time>
      </trkpt>
      <trkpt lat="50.36407" lon="3.41098">
        <ele>-2.4</ele>
        <time>2023-08-06T07:48:10Z</time>
      </trkpt>
      <trkpt lat="50.36414" lon="3.41097">
        <ele>-2.2</ele>
        <time>2023-08-06T07:48:13Z</time>
      </trkpt>
      <trkpt lat="50.36416" lon="3.41096">
        <ele>-2.2</ele>
        <time>2023-08-06T07:48:14Z</time>
      </trkpt>
      <trkpt lat="50.36417" lon="3.41095">
        <ele>-2.2</ele>
        <time>2023-08-06T07:48:15Z</time>
      </trkpt>
      <trkpt lat="50.36419" lon="3.41095">
        <ele>-2.6</ele>
        <time>2023-08-06T07:48:16Z</time>
      </trkpt>
      <trkpt lat="50.36426" lon="3.41095">
        <ele>-2.6</ele>
        <time>2023-08-06T07:48:20Z</time>
      </trkpt>
      <trkpt lat="50.36428" lon="3.41096">
        <ele>-2.6</ele>
        <time>2023-08-06T07:48:21Z</time>
      </trkpt>
      <trkpt lat="50.36429" lon="3.41095">
        <ele>-2.6</ele>
        <time>2023-08-06T07:48:22Z</time>
      </trkpt>
      <trkpt lat="50.3643" lon="3.41095">
        <ele>-2.6</ele>
        <time>2023-08-06T07:48:23Z</time>
      </trkpt>
      <trkpt lat="50.36434" lon="3.41096">
        <ele>-2.6</ele>
        <time>2023-08-06T07:48:25Z</time>
      </trkpt>
      <trkpt lat="50.36437" lon="3.41097">
        <ele>-2.6</ele>
        <time>2023-08-06T07:48:26Z</time>
      </trkpt>
      <trkpt lat="50.36439" lon="3.41097">
        <ele>-2.6</ele>
        <time>2023-08-06T07:48:27Z</time>
      </trkpt>
      <trkpt lat="50.36447" lon="3.41097">
        <ele>-2.6</ele>
        <time>2023-08-06T07:48:30Z</time>
      </trkpt>
      <trkpt lat="50.3645" lon="3.41097">
        <ele>-2.6</ele>
        <time>2023-08-06T07:48:31Z</time>
      </trkpt>
      <trkpt lat="50.36452" lon="3.41096">
        <ele>-2.6</ele>
        <time>2023-08-06T07:48:32Z</time>
      </trkpt>
      <trkpt lat="50.36453" lon="3.41097">
        <ele>-2.6</ele>
        <time>2023-08-06T07:48:33Z</time>
      </trkpt>
      <trkpt lat="50.36458" lon="3.41098">
        <ele>-2.6</ele>
        <time>2023-08-06T07:48:34Z</time>
      </trkpt>
      <trkpt lat="50.36468" lon="3.41099">
        <ele>-2.6</ele>
        <time>2023-08-06T07:48:35Z</time>
      </trkpt>
      <trkpt lat="50.36473" lon="3.41099">
        <ele>-2.6</ele>
        <time>2023-08-06T07:48:37Z</time>
      </trkpt>
      <trkpt lat="50.36474" lon="3.41099">
        <ele>-2.8</ele>
        <time>2023-08-06T07:48:38Z</time>
      </trkpt>
      <trkpt lat="50.36475" lon="3.41099">
        <ele>-2.8</ele>
        <time>2023-08-06T07:48:39Z</time>
      </trkpt>
      <trkpt lat="50.36476" lon="3.411">
        <ele>-2.8</ele>
        <time>2023-08-06T07:48:40Z</time>
      </trkpt>
      <trkpt lat="50.36479" lon="3.41101">
        <ele>-3</ele>
        <time>2023-08-06T07:48:41Z</time>
      </trkpt>
      <trkpt lat="50.36482" lon="3.41101">
        <ele>-3</ele>
        <time>2023-08-06T07:48:42Z</time>
      </trkpt>
      <trkpt lat="50.36484" lon="3.41101">
        <ele>-3</ele>
        <time>2023-08-06T07:48:43Z</time>
      </trkpt>
      <trkpt lat="50.36486" lon="3.411">
        <ele>-3</ele>
        <time>2023-08-06T07:48:44Z</time>
      </trkpt>
      <trkpt lat="50.36489" lon="3.41099">
        <ele>-3</ele>
        <time>2023-08-06T07:48:46Z</time>
      </trkpt>
      <trkpt lat="50.3649" lon="3.411">
        <ele>-3</ele>
        <time>2023-08-06T07:48:47Z</time>
      </trkpt>
      <trkpt lat="50.36492" lon="3.411">
        <ele>-3</ele>
        <time>2023-08-06T07:48:48Z</time>
      </trkpt>
      <trkpt lat="50.36498" lon="3.41099">
        <ele>-3</ele>
        <time>2023-08-06T07:48:52Z</time>
      </trkpt>
      <trkpt lat="50.36501" lon="3.41099">
        <ele>-3</ele>
        <time>2023-08-06T07:48:53Z</time>
      </trkpt>
      <trkpt lat="50.36505" lon="3.41098">
        <ele>-3</ele>
        <time>2023-08-06T07:48:55Z</time>
      </trkpt>
      <trkpt lat="50.36512" lon="3.41097">
        <ele>-3</ele>
        <time>2023-08-06T07:48:59Z</time>
      </trkpt>
      <trkpt lat="50.36521" lon="3.41097">
        <ele>-3</ele>
        <time>2023-08-06T07:49:02Z</time>
      </trkpt>
      <trkpt lat="50.36533" lon="3.41099">
        <ele>-3</ele>
        <time>2023-08-06T07:49:05Z</time>
      </trkpt>
      <trkpt lat="50.36536" lon="3.411">
        <ele>-3</ele>
        <time>2023-08-06T07:49:06Z</time>
      </trkpt>
      <trkpt lat="50.36538" lon="3.411">
        <ele>-3</ele>
        <time>2023-08-06T07:49:07Z</time>
      </trkpt>
      <trkpt lat="50.36544" lon="3.41099">
        <ele>-3</ele>
        <time>2023-08-06T07:49:09Z</time>
      </trkpt>
      <trkpt lat="50.36548" lon="3.411">
        <ele>-2.8</ele>
        <time>2023-08-06T07:49:11Z</time>
      </trkpt>
      <trkpt lat="50.3655" lon="3.411">
        <ele>-2.8</ele>
        <time>2023-08-06T07:49:12Z</time>
      </trkpt>
      <trkpt lat="50.36554" lon="3.411">
        <ele>-2.8</ele>
        <time>2023-08-06T07:49:13Z</time>
      </trkpt>
      <trkpt lat="50.36561" lon="3.41101">
        <ele>-3</ele>
        <time>2023-08-06T07:49:15Z</time>
      </trkpt>
      <trkpt lat="50.36565" lon="3.41102">
        <ele>-3</ele>
        <time>2023-08-06T07:49:16Z</time>
      </trkpt>
      <trkpt lat="50.36567" lon="3.411">
        <ele>-3</ele>
        <time>2023-08-06T07:49:17Z</time>
      </trkpt>
      <trkpt lat="50.36571" lon="3.41099">
        <ele>-3</ele>
        <time>2023-08-06T07:49:18Z</time>
      </trkpt>
      <trkpt lat="50.36574" lon="3.41099">
        <ele>-3</ele>
        <time>2023-08-06T07:49:19Z</time>
      </trkpt>
      <trkpt lat="50.36585" lon="3.41101">
        <ele>-2.8</ele>
        <time>2023-08-06T07:49:23Z</time>
      </trkpt>
      <trkpt lat="50.36589" lon="3.411">
        <ele>-2.8</ele>
        <time>2023-08-06T07:49:24Z</time>
      </trkpt>
      <trkpt lat="50.3661" lon="3.41101">
        <ele>-2.6</ele>
        <time>2023-08-06T07:49:30Z</time>
      </trkpt>
      <trkpt lat="50.36613" lon="3.41102">
        <ele>-2.6</ele>
        <time>2023-08-06T07:49:31Z</time>
      </trkpt>
      <trkpt lat="50.36616" lon="3.41102">
        <ele>-2.6</ele>
        <time>2023-08-06T07:49:32Z</time>
      </trkpt>
      <trkpt lat="50.3662" lon="3.41103">
        <ele>-2.6</ele>
        <time>2023-08-06T07:49:33Z</time>
      </trkpt>
      <trkpt lat="50.36622" lon="3.41105">
        <ele>-2.6</ele>
        <time>2023-08-06T07:49:34Z</time>
      </trkpt>
      <trkpt lat="50.36624" lon="3.41106">
        <ele>-2.6</ele>
        <time>2023-08-06T07:49:35Z</time>
      </trkpt>
      <trkpt lat="50.36627" lon="3.41106">
        <ele>-2.6</ele>
        <time>2023-08-06T07:49:36Z</time>
      </trkpt>
      <trkpt lat="50.36631" lon="3.41106">
        <ele>-2.6</ele>
        <time>2023-08-06T07:49:37Z</time>
      </trkpt>
      <trkpt lat="50.36635" lon="3.41107">
        <ele>-2.6</ele>
        <time>2023-08-06T07:49:38Z</time>
      </trkpt>
      <trkpt lat="50.3664" lon="3.41108">
        <ele>-2.6</ele>
        <time>2023-08-06T07:49:39Z</time>
      </trkpt>
      <trkpt lat="50.36645" lon="3.41108">
        <ele>-2.6</ele>
        <time>2023-08-06T07:49:40Z</time>
      </trkpt>
      <trkpt lat="50.36647" lon="3.41109">
        <ele>-2.6</ele>
        <time>2023-08-06T07:49:41Z</time>
      </trkpt>
      <trkpt lat="50.3665" lon="3.4111">
        <ele>-2.6</ele>
        <time>2023-08-06T07:49:42Z</time>
      </trkpt>
      <trkpt lat="50.36661" lon="3.41113">
        <ele>-2.6</ele>
        <time>2023-08-06T07:49:45Z</time>
      </trkpt>
      <trkpt lat="50.36663" lon="3.41114">
        <ele>-2.2</ele>
        <time>2023-08-06T07:49:46Z</time>
      </trkpt>
      <trkpt lat="50.36666" lon="3.41115">
        <ele>-2.2</ele>
        <time>2023-08-06T07:49:47Z</time>
      </trkpt>
      <trkpt lat="50.36688" lon="3.41123">
        <ele>-2.2</ele>
        <time>2023-08-06T07:49:54Z</time>
      </trkpt>
      <trkpt lat="50.36692" lon="3.41124">
        <ele>-2.2</ele>
        <time>2023-08-06T07:49:55Z</time>
      </trkpt>
      <trkpt lat="50.36713" lon="3.41133">
        <ele>-2.2</ele>
        <time>2023-08-06T07:50:00Z</time>
      </trkpt>
      <trkpt lat="50.36717" lon="3.41136">
        <ele>-2.2</ele>
        <time>2023-08-06T07:50:03Z</time>
      </trkpt>
      <trkpt lat="50.36722" lon="3.41138">
        <ele>-2.2</ele>
        <time>2023-08-06T07:50:04Z</time>
      </trkpt>
      <trkpt lat="50.36724" lon="3.4114">
        <ele>-2.2</ele>
        <time>2023-08-06T07:50:05Z</time>
      </trkpt>
      <trkpt lat="50.36725" lon="3.41143">
        <ele>-2.2</ele>
        <time>2023-08-06T07:50:06Z</time>
      </trkpt>
      <trkpt lat="50.36726" lon="3.41144">
        <ele>-2.2</ele>
        <time>2023-08-06T07:50:07Z</time>
      </trkpt>
      <trkpt lat="50.36734" lon="3.41148">
        <ele>-2.4</ele>
        <time>2023-08-06T07:50:09Z</time>
      </trkpt>
      <trkpt lat="50.36736" lon="3.4115">
        <ele>-2.6</ele>
        <time>2023-08-06T07:50:10Z</time>
      </trkpt>
      <trkpt lat="50.36738" lon="3.41152">
        <ele>-2.6</ele>
        <time>2023-08-06T07:50:11Z</time>
      </trkpt>
      <trkpt lat="50.3674" lon="3.41154">
        <ele>-2.6</ele>
        <time>2023-08-06T07:50:12Z</time>
      </trkpt>
      <trkpt lat="50.36742" lon="3.41156">
        <ele>-2.6</ele>
        <time>2023-08-06T07:50:13Z</time>
      </trkpt>
      <trkpt lat="50.36745" lon="3.41158">
        <ele>-2.6</ele>
        <time>2023-08-06T07:50:14Z</time>
      </trkpt>
      <trkpt lat="50.36771" lon="3.4118">
        <ele>-2.6</ele>
        <time>2023-08-06T07:50:21Z</time>
      </trkpt>
      <trkpt lat="50.36787" lon="3.41195">
        <ele>-2.6</ele>
        <time>2023-08-06T07:50:26Z</time>
      </trkpt>
      <trkpt lat="50.36788" lon="3.41197">
        <ele>-2.6</ele>
        <time>2023-08-06T07:50:27Z</time>
      </trkpt>
      <trkpt lat="50.36789" lon="3.41199">
        <ele>-2.6</ele>
        <time>2023-08-06T07:50:28Z</time>
      </trkpt>
      <trkpt lat="50.36791" lon="3.41202">
        <ele>-2.6</ele>
        <time>2023-08-06T07:50:29Z</time>
      </trkpt>
      <trkpt lat="50.36794" lon="3.41204">
        <ele>-2.6</ele>
        <time>2023-08-06T07:50:30Z</time>
      </trkpt>
      <trkpt lat="50.36796" lon="3.41207">
        <ele>-2.6</ele>
        <time>2023-08-06T07:50:31Z</time>
      </trkpt>
      <trkpt lat="50.36797" lon="3.41209">
        <ele>-2.6</ele>
        <time>2023-08-06T07:50:32Z</time>
      </trkpt>
      <trkpt lat="50.36799" lon="3.41212">
        <ele>-2.6</ele>
        <time>2023-08-06T07:50:33Z</time>
      </trkpt>
      <trkpt lat="50.36801" lon="3.41214">
        <ele>-2.6</ele>
        <time>2023-08-06T07:50:34Z</time>
      </trkpt>
      <trkpt lat="50.36806" lon="3.41221">
        <ele>-2.6</ele>
        <time>2023-08-06T07:50:37Z</time>
      </trkpt>
      <trkpt lat="50.3681" lon="3.41227">
        <ele>-2.4</ele>
        <time>2023-08-06T07:50:40Z</time>
      </trkpt>
      <trkpt lat="50.36807" lon="3.41231">
        <ele>-2.4</ele>
        <time>2023-08-06T07:50:42Z</time>
      </trkpt>
      <trkpt lat="50.36802" lon="3.41234">
        <ele>-2.4</ele>
        <time>2023-08-06T07:50:44Z</time>
      </trkpt>
      <trkpt lat="50.36799" lon="3.41236">
        <ele>-2.4</ele>
        <time>2023-08-06T07:50:45Z</time>
      </trkpt>
      <trkpt lat="50.36796" lon="3.41237">
        <ele>-2.4</ele>
        <time>2023-08-06T07:50:46Z</time>
      </trkpt>
      <trkpt lat="50.36787" lon="3.41243">
        <ele>-2.4</ele>
        <time>2023-08-06T07:50:49Z</time>
      </trkpt>
      <trkpt lat="50.3678" lon="3.41246">
        <ele>-2.4</ele>
        <time>2023-08-06T07:50:51Z</time>
      </trkpt>
      <trkpt lat="50.36777" lon="3.41248">
        <ele>-2.4</ele>
        <time>2023-08-06T07:50:52Z</time>
      </trkpt>
      <trkpt lat="50.36758" lon="3.41256">
        <ele>-2.2</ele>
        <time>2023-08-06T07:50:57Z</time>
      </trkpt>
      <trkpt lat="50.36739" lon="3.41263">
        <ele>-2.2</ele>
        <time>2023-08-06T07:51:02Z</time>
      </trkpt>
      <trkpt lat="50.36735" lon="3.41265">
        <ele>-2.2</ele>
        <time>2023-08-06T07:51:03Z</time>
      </trkpt>
      <trkpt lat="50.36714" lon="3.41277">
        <ele>-2</ele>
        <time>2023-08-06T07:51:08Z</time>
      </trkpt>
      <trkpt lat="50.3671" lon="3.4128">
        <ele>-2</ele>
        <time>2023-08-06T07:51:09Z</time>
      </trkpt>
      <trkpt lat="50.36692" lon="3.41296">
        <ele>-1.8</ele>
        <time>2023-08-06T07:51:14Z</time>
      </trkpt>
      <trkpt lat="50.36685" lon="3.41303">
        <ele>-1.6</ele>
        <time>2023-08-06T07:51:16Z</time>
      </trkpt>
      <trkpt lat="50.36682" lon="3.41307">
        <ele>-1.6</ele>
        <time>2023-08-06T07:51:17Z</time>
      </trkpt>
      <trkpt lat="50.36679" lon="3.41311">
        <ele>-1.6</ele>
        <time>2023-08-06T07:51:18Z</time>
      </trkpt>
      <trkpt lat="50.36676" lon="3.41315">
        <ele>-1.4</ele>
        <time>2023-08-06T07:51:19Z</time>
      </trkpt>
      <trkpt lat="50.36673" lon="3.41319">
        <ele>-1.4</ele>
        <time>2023-08-06T07:51:20Z</time>
      </trkpt>
      <trkpt lat="50.3667" lon="3.41324">
        <ele>-1.4</ele>
        <time>2023-08-06T07:51:21Z</time>
      </trkpt>
      <trkpt lat="50.36667" lon="3.41329">
        <ele>-1.4</ele>
        <time>2023-08-06T07:51:22Z</time>
      </trkpt>
      <trkpt lat="50.36664" lon="3.41333">
        <ele>-1.4</ele>
        <time>2023-08-06T07:51:23Z</time>
      </trkpt>
      <trkpt lat="50.36649" lon="3.41369">
        <ele>-1</ele>
        <time>2023-08-06T07:51:29Z</time>
      </trkpt>
      <trkpt lat="50.36631" lon="3.41443">
        <ele>-0.39999999999998</ele>
        <time>2023-08-06T07:51:40Z</time>
      </trkpt>
      <trkpt lat="50.36615" lon="3.41523">
        <ele>-0.39999999999998</ele>
        <time>2023-08-06T07:51:52Z</time>
      </trkpt>
      <trkpt lat="50.36612" lon="3.41536">
        <ele>0.19999999999999</ele>
        <time>2023-08-06T07:51:54Z</time>
      </trkpt>
      <trkpt lat="50.36611" lon="3.41542">
        <ele>0.19999999999999</ele>
        <time>2023-08-06T07:51:55Z</time>
      </trkpt>
      <trkpt lat="50.3661" lon="3.41549">
        <ele>0.19999999999999</ele>
        <time>2023-08-06T07:51:56Z</time>
      </trkpt>
      <trkpt lat="50.36605" lon="3.41574">
        <ele>0.60000000000002</ele>
        <time>2023-08-06T07:52:00Z</time>
      </trkpt>
      <trkpt lat="50.36603" lon="3.41587">
        <ele>0.80000000000001</ele>
        <time>2023-08-06T07:52:02Z</time>
      </trkpt>
      <trkpt lat="50.36602" lon="3.41594">
        <ele>1</ele>
        <time>2023-08-06T07:52:03Z</time>
      </trkpt>
      <trkpt lat="50.36595" lon="3.41631">
        <ele>1.4</ele>
        <time>2023-08-06T07:52:09Z</time>
      </trkpt>
      <trkpt lat="50.36593" lon="3.41637">
        <ele>1.4</ele>
        <time>2023-08-06T07:52:10Z</time>
      </trkpt>
      <trkpt lat="50.36593" lon="3.41643">
        <ele>1.4</ele>
        <time>2023-08-06T07:52:11Z</time>
      </trkpt>
      <trkpt lat="50.36591" lon="3.41649">
        <ele>1.4</ele>
        <time>2023-08-06T07:52:12Z</time>
      </trkpt>
      <trkpt lat="50.36591" lon="3.41655">
        <ele>1.6</ele>
        <time>2023-08-06T07:52:13Z</time>
      </trkpt>
      <trkpt lat="50.3659" lon="3.41661">
        <ele>1.6</ele>
        <time>2023-08-06T07:52:14Z</time>
      </trkpt>
      <trkpt lat="50.36589" lon="3.41667">
        <ele>1.6</ele>
        <time>2023-08-06T07:52:15Z</time>
      </trkpt>
      <trkpt lat="50.36588" lon="3.41672">
        <ele>1.8</ele>
        <time>2023-08-06T07:52:16Z</time>
      </trkpt>
      <trkpt lat="50.36586" lon="3.41684">
        <ele>2</ele>
        <time>2023-08-06T07:52:18Z</time>
      </trkpt>
      <trkpt lat="50.36584" lon="3.41695">
        <ele>2.2</ele>
        <time>2023-08-06T07:52:20Z</time>
      </trkpt>
      <trkpt lat="50.36583" lon="3.41702">
        <ele>2.2</ele>
        <time>2023-08-06T07:52:21Z</time>
      </trkpt>
      <trkpt lat="50.36579" lon="3.41719">
        <ele>2.4</ele>
        <time>2023-08-06T07:52:24Z</time>
      </trkpt>
      <trkpt lat="50.36577" lon="3.41731">
        <ele>2.6</ele>
        <time>2023-08-06T07:52:26Z</time>
      </trkpt>
      <trkpt lat="50.36571" lon="3.41774">
        <ele>3</ele>
        <time>2023-08-06T07:52:33Z</time>
      </trkpt>
      <trkpt lat="50.36559" lon="3.41844">
        <ele>3.8</ele>
        <time>2023-08-06T07:52:45Z</time>
      </trkpt>
      <trkpt lat="50.36552" lon="3.4187">
        <ele>4</ele>
        <time>2023-08-06T07:52:50Z</time>
      </trkpt>
      <trkpt lat="50.3655" lon="3.4187">
        <ele>4</ele>
        <time>2023-08-06T07:52:51Z</time>
      </trkpt>
      <trkpt lat="50.36547" lon="3.41869">
        <ele>4</ele>
        <time>2023-08-06T07:52:52Z</time>
      </trkpt>
      <trkpt lat="50.36543" lon="3.41867">
        <ele>4.2</ele>
        <time>2023-08-06T07:52:53Z</time>
      </trkpt>
      <trkpt lat="50.36528" lon="3.4186">
        <ele>4.2</ele>
        <time>2023-08-06T07:52:57Z</time>
      </trkpt>
      <trkpt lat="50.365" lon="3.41847">
        <ele>4.2</ele>
        <time>2023-08-06T07:53:04Z</time>
      </trkpt>
      <trkpt lat="50.36453" lon="3.41823">
        <ele>4.4</ele>
        <time>2023-08-06T07:53:15Z</time>
      </trkpt>
      <trkpt lat="50.36414" lon="3.41805">
        <ele>4</ele>
        <time>2023-08-06T07:53:24Z</time>
      </trkpt>
      <trkpt lat="50.36366" lon="3.41781">
        <ele>3.8</ele>
        <time>2023-08-06T07:53:35Z</time>
      </trkpt>
      <trkpt lat="50.36341" lon="3.41771">
        <ele>3.6</ele>
        <time>2023-08-06T07:53:41Z</time>
      </trkpt>
      <trkpt lat="50.36337" lon="3.41772">
        <ele>3.6</ele>
        <time>2023-08-06T07:53:42Z</time>
      </trkpt>
      <trkpt lat="50.36334" lon="3.41776">
        <ele>3.6</ele>
        <time>2023-08-06T07:53:43Z</time>
      </trkpt>
      <trkpt lat="50.36332" lon="3.41781">
        <ele>3.6</ele>
        <time>2023-08-06T07:53:44Z</time>
      </trkpt>
      <trkpt lat="50.36331" lon="3.41787">
        <ele>3.6</ele>
        <time>2023-08-06T07:53:45Z</time>
      </trkpt>
      <trkpt lat="50.36328" lon="3.41798">
        <ele>3.2</ele>
        <time>2023-08-06T07:53:47Z</time>
      </trkpt>
      <trkpt lat="50.36327" lon="3.41804">
        <ele>3.2</ele>
        <time>2023-08-06T07:53:48Z</time>
      </trkpt>
      <trkpt lat="50.36326" lon="3.4181">
        <ele>3.2</ele>
        <time>2023-08-06T07:53:49Z</time>
      </trkpt>
      <trkpt lat="50.36324" lon="3.41815">
        <ele>3.2</ele>
        <time>2023-08-06T07:53:50Z</time>
      </trkpt>
      <trkpt lat="50.36323" lon="3.4182">
        <ele>3.2</ele>
        <time>2023-08-06T07:53:51Z</time>
      </trkpt>
      <trkpt lat="50.36322" lon="3.41826">
        <ele>3.2</ele>
        <time>2023-08-06T07:53:52Z</time>
      </trkpt>
      <trkpt lat="50.36322" lon="3.41831">
        <ele>3.4</ele>
        <time>2023-08-06T07:53:53Z</time>
      </trkpt>
      <trkpt lat="50.36321" lon="3.41837">
        <ele>3.4</ele>
        <time>2023-08-06T07:53:54Z</time>
      </trkpt>
      <trkpt lat="50.36319" lon="3.41842">
        <ele>3.4</ele>
        <time>2023-08-06T07:53:55Z</time>
      </trkpt>
      <trkpt lat="50.36318" lon="3.41848">
        <ele>3.4</ele>
        <time>2023-08-06T07:53:56Z</time>
      </trkpt>
      <trkpt lat="50.36318" lon="3.41853">
        <ele>3.4</ele>
        <time>2023-08-06T07:53:57Z</time>
      </trkpt>
      <trkpt lat="50.36317" lon="3.41858">
        <ele>3.4</ele>
        <time>2023-08-06T07:53:58Z</time>
      </trkpt>
      <trkpt lat="50.36316" lon="3.41863">
        <ele>3.4</ele>
        <time>2023-08-06T07:53:59Z</time>
      </trkpt>
      <trkpt lat="50.36315" lon="3.41869">
        <ele>3.4</ele>
        <time>2023-08-06T07:54:00Z</time>
      </trkpt>
      <trkpt lat="50.36314" lon="3.41874">
        <ele>3.4</ele>
        <time>2023-08-06T07:54:01Z</time>
      </trkpt>
      <trkpt lat="50.36311" lon="3.41884">
        <ele>3.8</ele>
        <time>2023-08-06T07:54:03Z</time>
      </trkpt>
      <trkpt lat="50.36309" lon="3.41894">
        <ele>4</ele>
        <time>2023-08-06T07:54:05Z</time>
      </trkpt>
      <trkpt lat="50.36303" lon="3.41925">
        <ele>4.4</ele>
        <time>2023-08-06T07:54:11Z</time>
      </trkpt>
      <trkpt lat="50.36303" lon="3.4193">
        <ele>4.4</ele>
        <time>2023-08-06T07:54:12Z</time>
      </trkpt>
      <trkpt lat="50.36302" lon="3.41935">
        <ele>4.4</ele>
        <time>2023-08-06T07:54:13Z</time>
      </trkpt>
      <trkpt lat="50.363" lon="3.41946">
        <ele>4.6</ele>
        <time>2023-08-06T07:54:15Z</time>
      </trkpt>
      <trkpt lat="50.36298" lon="3.41966">
        <ele>5</ele>
        <time>2023-08-06T07:54:19Z</time>
      </trkpt>
      <trkpt lat="50.36297" lon="3.4197">
        <ele>5</ele>
        <time>2023-08-06T07:54:20Z</time>
      </trkpt>
      <trkpt lat="50.36296" lon="3.41975">
        <ele>5.2</ele>
        <time>2023-08-06T07:54:21Z</time>
      </trkpt>
      <trkpt lat="50.36295" lon="3.4198">
        <ele>5.2</ele>
        <time>2023-08-06T07:54:22Z</time>
      </trkpt>
      <trkpt lat="50.36295" lon="3.41985">
        <ele>5.4</ele>
        <time>2023-08-06T07:54:23Z</time>
      </trkpt>
      <trkpt lat="50.36294" lon="3.4199">
        <ele>5.4</ele>
        <time>2023-08-06T07:54:24Z</time>
      </trkpt>
      <trkpt lat="50.36293" lon="3.41995">
        <ele>5.4</ele>
        <time>2023-08-06T07:54:25Z</time>
      </trkpt>
      <trkpt lat="50.36292" lon="3.42">
        <ele>5.4</ele>
        <time>2023-08-06T07:54:26Z</time>
      </trkpt>
      <trkpt lat="50.3629" lon="3.42016">
        <ele>5.8</ele>
        <time>2023-08-06T07:54:29Z</time>
      </trkpt>
      <trkpt lat="50.36281" lon="3.42047">
        <ele>5.6</ele>
        <time>2023-08-06T07:54:35Z</time>
      </trkpt>
      <trkpt lat="50.36276" lon="3.42086">
        <ele>5.8</ele>
        <time>2023-08-06T07:54:42Z</time>
      </trkpt>
      <trkpt lat="50.36273" lon="3.42106">
        <ele>6.4</ele>
        <time>2023-08-06T07:54:46Z</time>
      </trkpt>
      <trkpt lat="50.36271" lon="3.42112">
        <ele>6.4</ele>
        <time>2023-08-06T07:54:47Z</time>
      </trkpt>
      <trkpt lat="50.3627" lon="3.42117">
        <ele>6.4</ele>
        <time>2023-08-06T07:54:48Z</time>
      </trkpt>
      <trkpt lat="50.36268" lon="3.42122">
        <ele>6.4</ele>
        <time>2023-08-06T07:54:49Z</time>
      </trkpt>
      <trkpt lat="50.36264" lon="3.42137">
        <ele>6</ele>
        <time>2023-08-06T07:54:52Z</time>
      </trkpt>
      <trkpt lat="50.36263" lon="3.42142">
        <ele>6</ele>
        <time>2023-08-06T07:54:53Z</time>
      </trkpt>
      <trkpt lat="50.36263" lon="3.42147">
        <ele>6</ele>
        <time>2023-08-06T07:54:54Z</time>
      </trkpt>
      <trkpt lat="50.36261" lon="3.42158">
        <ele>6</ele>
        <time>2023-08-06T07:54:56Z</time>
      </trkpt>
      <trkpt lat="50.36252" lon="3.42197">
        <ele>6.2</ele>
        <time>2023-08-06T07:55:03Z</time>
      </trkpt>
      <trkpt lat="50.36251" lon="3.42202">
        <ele>6.2</ele>
        <time>2023-08-06T07:55:04Z</time>
      </trkpt>
      <trkpt lat="50.36246" lon="3.42231">
        <ele>6.2</ele>
        <time>2023-08-06T07:55:09Z</time>
      </trkpt>
      <trkpt lat="50.36245" lon="3.42237">
        <ele>6.2</ele>
        <time>2023-08-06T07:55:10Z</time>
      </trkpt>
      <trkpt lat="50.36244" lon="3.42243">
        <ele>6.2</ele>
        <time>2023-08-06T07:55:11Z</time>
      </trkpt>
      <trkpt lat="50.36237" lon="3.4228">
        <ele>6.6</ele>
        <time>2023-08-06T07:55:18Z</time>
      </trkpt>
      <trkpt lat="50.36236" lon="3.42286">
        <ele>6.6</ele>
        <time>2023-08-06T07:55:19Z</time>
      </trkpt>
      <trkpt lat="50.36234" lon="3.42297">
        <ele>6.6</ele>
        <time>2023-08-06T07:55:21Z</time>
      </trkpt>
      <trkpt lat="50.36233" lon="3.42302">
        <ele>6.6</ele>
        <time>2023-08-06T07:55:22Z</time>
      </trkpt>
      <trkpt lat="50.36232" lon="3.42308">
        <ele>6.6</ele>
        <time>2023-08-06T07:55:23Z</time>
      </trkpt>
      <trkpt lat="50.36226" lon="3.42342">
        <ele>6.6</ele>
        <time>2023-08-06T07:55:29Z</time>
      </trkpt>
      <trkpt lat="50.36225" lon="3.42348">
        <ele>6.6</ele>
        <time>2023-08-06T07:55:30Z</time>
      </trkpt>
      <trkpt lat="50.36224" lon="3.42353">
        <ele>6.8</ele>
        <time>2023-08-06T07:55:31Z</time>
      </trkpt>
      <trkpt lat="50.36223" lon="3.42359">
        <ele>6.8</ele>
        <time>2023-08-06T07:55:32Z</time>
      </trkpt>
      <trkpt lat="50.36221" lon="3.42369">
        <ele>6.8</ele>
        <time>2023-08-06T07:55:34Z</time>
      </trkpt>
      <trkpt lat="50.3622" lon="3.42375">
        <ele>6.8</ele>
        <time>2023-08-06T07:55:35Z</time>
      </trkpt>
      <trkpt lat="50.36219" lon="3.42379">
        <ele>6.8</ele>
        <time>2023-08-06T07:55:36Z</time>
      </trkpt>
      <trkpt lat="50.36219" lon="3.42384">
        <ele>6.8</ele>
        <time>2023-08-06T07:55:37Z</time>
      </trkpt>
      <trkpt lat="50.36218" lon="3.42389">
        <ele>6.8</ele>
        <time>2023-08-06T07:55:38Z</time>
      </trkpt>
      <trkpt lat="50.36217" lon="3.42394">
        <ele>6.8</ele>
        <time>2023-08-06T07:55:39Z</time>
      </trkpt>
      <trkpt lat="50.36216" lon="3.42399">
        <ele>6.6</ele>
        <time>2023-08-06T07:55:40Z</time>
      </trkpt>
      <trkpt lat="50.36215" lon="3.42404">
        <ele>6.6</ele>
        <time>2023-08-06T07:55:41Z</time>
      </trkpt>
      <trkpt lat="50.36214" lon="3.42409">
        <ele>6.6</ele>
        <time>2023-08-06T07:55:42Z</time>
      </trkpt>
      <trkpt lat="50.36213" lon="3.42414">
        <ele>6.6</ele>
        <time>2023-08-06T07:55:43Z</time>
      </trkpt>
      <trkpt lat="50.36213" lon="3.42419">
        <ele>6.6</ele>
        <time>2023-08-06T07:55:44Z</time>
      </trkpt>
      <trkpt lat="50.36204" lon="3.42458">
        <ele>6.8</ele>
        <time>2023-08-06T07:55:52Z</time>
      </trkpt>
      <trkpt lat="50.362" lon="3.42466">
        <ele>6.6</ele>
        <time>2023-08-06T07:55:54Z</time>
      </trkpt>
      <trkpt lat="50.36198" lon="3.4247">
        <ele>6.6</ele>
        <time>2023-08-06T07:55:55Z</time>
      </trkpt>
      <trkpt lat="50.36195" lon="3.42472">
        <ele>6.6</ele>
        <time>2023-08-06T07:55:56Z</time>
      </trkpt>
      <trkpt lat="50.36192" lon="3.42473">
        <ele>6.6</ele>
        <time>2023-08-06T07:55:57Z</time>
      </trkpt>
      <trkpt lat="50.36188" lon="3.42471">
        <ele>6.6</ele>
        <time>2023-08-06T07:55:58Z</time>
      </trkpt>
      <trkpt lat="50.36181" lon="3.42468">
        <ele>6.6</ele>
        <time>2023-08-06T07:56:00Z</time>
      </trkpt>
      <trkpt lat="50.36177" lon="3.42466">
        <ele>6.8</ele>
        <time>2023-08-06T07:56:01Z</time>
      </trkpt>
      <trkpt lat="50.36165" lon="3.42462">
        <ele>6.6</ele>
        <time>2023-08-06T07:56:04Z</time>
      </trkpt>
      <trkpt lat="50.3613" lon="3.42451">
        <ele>5.8</ele>
        <time>2023-08-06T07:56:12Z</time>
      </trkpt>
      <trkpt lat="50.36117" lon="3.42446">
        <ele>5.4</ele>
        <time>2023-08-06T07:56:15Z</time>
      </trkpt>
      <trkpt lat="50.36094" lon="3.42435">
        <ele>5.4</ele>
        <time>2023-08-06T07:56:20Z</time>
      </trkpt>
      <trkpt lat="50.36044" lon="3.42409">
        <ele>4.6</ele>
        <time>2023-08-06T07:56:31Z</time>
      </trkpt>
      <trkpt lat="50.36035" lon="3.42405">
        <ele>4.4</ele>
        <time>2023-08-06T07:56:33Z</time>
      </trkpt>
      <trkpt lat="50.35998" lon="3.42385">
        <ele>3.8</ele>
        <time>2023-08-06T07:56:41Z</time>
      </trkpt>
      <trkpt lat="50.35964" lon="3.4237">
        <ele>3.2</ele>
        <time>2023-08-06T07:56:48Z</time>
      </trkpt>
      <trkpt lat="50.35959" lon="3.42368">
        <ele>3.2</ele>
        <time>2023-08-06T07:56:49Z</time>
      </trkpt>
      <trkpt lat="50.35954" lon="3.42366">
        <ele>3</ele>
        <time>2023-08-06T07:56:50Z</time>
      </trkpt>
      <trkpt lat="50.35912" lon="3.42351">
        <ele>2.6</ele>
        <time>2023-08-06T07:56:59Z</time>
      </trkpt>
      <trkpt lat="50.35907" lon="3.42349">
        <ele>2.6</ele>
        <time>2023-08-06T07:57:00Z</time>
      </trkpt>
      <trkpt lat="50.35884" lon="3.42332">
        <ele>2.2</ele>
        <time>2023-08-06T07:57:05Z</time>
      </trkpt>
      <trkpt lat="50.3587" lon="3.42322">
        <ele>2.2</ele>
        <time>2023-08-06T07:57:08Z</time>
      </trkpt>
      <trkpt lat="50.3585" lon="3.42311">
        <ele>1.6</ele>
        <time>2023-08-06T07:57:12Z</time>
      </trkpt>
      <trkpt lat="50.35835" lon="3.42307">
        <ele>1.4</ele>
        <time>2023-08-06T07:57:15Z</time>
      </trkpt>
      <trkpt lat="50.35799" lon="3.42306">
        <ele>1.2</ele>
        <time>2023-08-06T07:57:22Z</time>
      </trkpt>
      <trkpt lat="50.35794" lon="3.42305">
        <ele>1.2</ele>
        <time>2023-08-06T07:57:23Z</time>
      </trkpt>
      <trkpt lat="50.35768" lon="3.42303">
        <ele>0.60000000000002</ele>
        <time>2023-08-06T07:57:28Z</time>
      </trkpt>
      <trkpt lat="50.35753" lon="3.42299">
        <ele>0.60000000000002</ele>
        <time>2023-08-06T07:57:31Z</time>
      </trkpt>
      <trkpt lat="50.35748" lon="3.42297">
        <ele>0.60000000000002</ele>
        <time>2023-08-06T07:57:32Z</time>
      </trkpt>
      <trkpt lat="50.35743" lon="3.42296">
        <ele>0.60000000000002</ele>
        <time>2023-08-06T07:57:33Z</time>
      </trkpt>
      <trkpt lat="50.35719" lon="3.42293">
        <ele>0.60000000000002</ele>
        <time>2023-08-06T07:57:38Z</time>
      </trkpt>
      <trkpt lat="50.35674" lon="3.42287">
        <ele>0.39999999999998</ele>
        <time>2023-08-06T07:57:47Z</time>
      </trkpt>
      <trkpt lat="50.35659" lon="3.42286">
        <ele>0.19999999999999</ele>
        <time>2023-08-06T07:57:50Z</time>
      </trkpt>
      <trkpt lat="50.35639" lon="3.42282">
        <ele>0.19999999999999</ele>
        <time>2023-08-06T07:57:54Z</time>
      </trkpt>
      <trkpt lat="50.35618" lon="3.42277">
        <ele>0.19999999999999</ele>
        <time>2023-08-06T07:57:58Z</time>
      </trkpt>
      <trkpt lat="50.35573" lon="3.42265">
        <ele>-0.60000000000002</ele>
        <time>2023-08-06T07:58:07Z</time>
      </trkpt>
      <trkpt lat="50.35568" lon="3.42263">
        <ele>-0.60000000000002</ele>
        <time>2023-08-06T07:58:08Z</time>
      </trkpt>
      <trkpt lat="50.35563" lon="3.42262">
        <ele>-0.39999999999998</ele>
        <time>2023-08-06T07:58:09Z</time>
      </trkpt>
      <trkpt lat="50.35558" lon="3.4226">
        <ele>-0.19999999999999</ele>
        <time>2023-08-06T07:58:10Z</time>
      </trkpt>
      <trkpt lat="50.35539" lon="3.42251">
        <ele>-0.60000000000002</ele>
        <time>2023-08-06T07:58:14Z</time>
      </trkpt>
      <trkpt lat="50.35492" lon="3.42221">
        <ele>-1</ele>
        <time>2023-08-06T07:58:24Z</time>
      </trkpt>
      <trkpt lat="50.35479" lon="3.42212">
        <ele>-1.2</ele>
        <time>2023-08-06T07:58:27Z</time>
      </trkpt>
      <trkpt lat="50.3544" lon="3.42187">
        <ele>-1.6</ele>
        <time>2023-08-06T07:58:35Z</time>
      </trkpt>
      <trkpt lat="50.35422" lon="3.42175">
        <ele>-1.6</ele>
        <time>2023-08-06T07:58:39Z</time>
      </trkpt>
      <trkpt lat="50.35419" lon="3.42173">
        <ele>-1.6</ele>
        <time>2023-08-06T07:58:40Z</time>
      </trkpt>
      <trkpt lat="50.35415" lon="3.4217">
        <ele>-1.6</ele>
        <time>2023-08-06T07:58:41Z</time>
      </trkpt>
      <trkpt lat="50.3541" lon="3.42168">
        <ele>-1.6</ele>
        <time>2023-08-06T07:58:42Z</time>
      </trkpt>
      <trkpt lat="50.35407" lon="3.42166">
        <ele>-1.6</ele>
        <time>2023-08-06T07:58:43Z</time>
      </trkpt>
      <trkpt lat="50.35404" lon="3.42164">
        <ele>-1.6</ele>
        <time>2023-08-06T07:58:44Z</time>
      </trkpt>
      <trkpt lat="50.35401" lon="3.42163">
        <ele>-1.6</ele>
        <time>2023-08-06T07:58:45Z</time>
      </trkpt>
      <trkpt lat="50.35398" lon="3.42162">
        <ele>-1.6</ele>
        <time>2023-08-06T07:58:46Z</time>
      </trkpt>
      <trkpt lat="50.35395" lon="3.4216">
        <ele>-1.6</ele>
        <time>2023-08-06T07:58:47Z</time>
      </trkpt>
      <trkpt lat="50.35393" lon="3.42159">
        <ele>-1.6</ele>
        <time>2023-08-06T07:58:48Z</time>
      </trkpt>
      <trkpt lat="50.3539" lon="3.42157">
        <ele>-1.6</ele>
        <time>2023-08-06T07:58:49Z</time>
      </trkpt>
      <trkpt lat="50.35375" lon="3.42138">
        <ele>-1.6</ele>
        <time>2023-08-06T07:58:55Z</time>
      </trkpt>
      <trkpt lat="50.35364" lon="3.42113">
        <ele>-1.8</ele>
        <time>2023-08-06T07:59:00Z</time>
      </trkpt>
      <trkpt lat="50.35344" lon="3.42074">
        <ele>-2</ele>
        <time>2023-08-06T07:59:07Z</time>
      </trkpt>
      <trkpt lat="50.35332" lon="3.42055">
        <ele>-2</ele>
        <time>2023-08-06T07:59:11Z</time>
      </trkpt>
      <trkpt lat="50.35331" lon="3.42053">
        <ele>-2</ele>
        <time>2023-08-06T07:59:12Z</time>
      </trkpt>
      <trkpt lat="50.3533" lon="3.42051">
        <ele>-2</ele>
        <time>2023-08-06T07:59:13Z</time>
      </trkpt>
      <trkpt lat="50.35328" lon="3.42049">
        <ele>-2</ele>
        <time>2023-08-06T07:59:14Z</time>
      </trkpt>
      <trkpt lat="50.35327" lon="3.42048">
        <ele>-2</ele>
        <time>2023-08-06T07:59:15Z</time>
      </trkpt>
      <trkpt lat="50.35326" lon="3.42046">
        <ele>-2</ele>
        <time>2023-08-06T07:59:16Z</time>
      </trkpt>
      <trkpt lat="50.35324" lon="3.42042">
        <ele>-2.2</ele>
        <time>2023-08-06T07:59:18Z</time>
      </trkpt>
      <trkpt lat="50.35319" lon="3.42034">
        <ele>-2.2</ele>
        <time>2023-08-06T07:59:21Z</time>
      </trkpt>
      <trkpt lat="50.35308" lon="3.42019">
        <ele>-2.8</ele>
        <time>2023-08-06T07:59:26Z</time>
      </trkpt>
      <trkpt lat="50.35306" lon="3.42015">
        <ele>-2.8</ele>
        <time>2023-08-06T07:59:27Z</time>
      </trkpt>
      <trkpt lat="50.35294" lon="3.41995">
        <ele>-3</ele>
        <time>2023-08-06T07:59:32Z</time>
      </trkpt>
      <trkpt lat="50.35284" lon="3.41977">
        <ele>-3.2</ele>
        <time>2023-08-06T07:59:36Z</time>
      </trkpt>
      <trkpt lat="50.35274" lon="3.41958">
        <ele>-3.2</ele>
        <time>2023-08-06T07:59:40Z</time>
      </trkpt>
      <trkpt lat="50.35263" lon="3.4192">
        <ele>-3.2</ele>
        <time>2023-08-06T07:59:47Z</time>
      </trkpt>
      <trkpt lat="50.35256" lon="3.41898">
        <ele>-3.2</ele>
        <time>2023-08-06T07:59:51Z</time>
      </trkpt>
      <trkpt lat="50.35253" lon="3.41888">
        <ele>-3.2</ele>
        <time>2023-08-06T07:59:53Z</time>
      </trkpt>
      <trkpt lat="50.35251" lon="3.41884">
        <ele>-3.2</ele>
        <time>2023-08-06T07:59:54Z</time>
      </trkpt>
      <trkpt lat="50.35249" lon="3.41879">
        <ele>-3.4</ele>
        <time>2023-08-06T07:59:55Z</time>
      </trkpt>
      <trkpt lat="50.35248" lon="3.41875">
        <ele>-3.4</ele>
        <time>2023-08-06T07:59:56Z</time>
      </trkpt>
      <trkpt lat="50.35245" lon="3.41871">
        <ele>-3.4</ele>
        <time>2023-08-06T07:59:57Z</time>
      </trkpt>
      <trkpt lat="50.35243" lon="3.41866">
        <ele>-3.4</ele>
        <time>2023-08-06T07:59:58Z</time>
      </trkpt>
      <trkpt lat="50.35241" lon="3.41861">
        <ele>-3.4</ele>
        <time>2023-08-06T07:59:59Z</time>
      </trkpt>
      <trkpt lat="50.35239" lon="3.41857">
        <ele>-3.4</ele>
        <time>2023-08-06T08:00:00Z</time>
      </trkpt>
      <trkpt lat="50.35237" lon="3.41854">
        <ele>-3.4</ele>
        <time>2023-08-06T08:00:01Z</time>
      </trkpt>
      <trkpt lat="50.35235" lon="3.4185">
        <ele>-3.6</ele>
        <time>2023-08-06T08:00:02Z</time>
      </trkpt>
      <trkpt lat="50.35233" lon="3.41846">
        <ele>-3.6</ele>
        <time>2023-08-06T08:00:03Z</time>
      </trkpt>
      <trkpt lat="50.35225" lon="3.41831">
        <ele>-3.6</ele>
        <time>2023-08-06T08:00:07Z</time>
      </trkpt>
      <trkpt lat="50.35205" lon="3.41793">
        <ele>-3.6</ele>
        <time>2023-08-06T08:00:15Z</time>
      </trkpt>
      <trkpt lat="50.3519" lon="3.41769">
        <ele>-3.8</ele>
        <time>2023-08-06T08:00:21Z</time>
      </trkpt>
      <trkpt lat="50.35187" lon="3.41765">
        <ele>-3.6</ele>
        <time>2023-08-06T08:00:22Z</time>
      </trkpt>
      <trkpt lat="50.35184" lon="3.41762">
        <ele>-3.6</ele>
        <time>2023-08-06T08:00:23Z</time>
      </trkpt>
      <trkpt lat="50.35171" lon="3.41753">
        <ele>-3.2</ele>
        <time>2023-08-06T08:00:27Z</time>
      </trkpt>
      <trkpt lat="50.35168" lon="3.41751">
        <ele>-3</ele>
        <time>2023-08-06T08:00:28Z</time>
      </trkpt>
      <trkpt lat="50.35165" lon="3.4175">
        <ele>-3</ele>
        <time>2023-08-06T08:00:29Z</time>
      </trkpt>
      <trkpt lat="50.35163" lon="3.41748">
        <ele>-3</ele>
        <time>2023-08-06T08:00:30Z</time>
      </trkpt>
      <trkpt lat="50.3516" lon="3.41747">
        <ele>-3.2</ele>
        <time>2023-08-06T08:00:31Z</time>
      </trkpt>
      <trkpt lat="50.35156" lon="3.41745">
        <ele>-3.2</ele>
        <time>2023-08-06T08:00:32Z</time>
      </trkpt>
      <trkpt lat="50.35149" lon="3.41741">
        <ele>-3.6</ele>
        <time>2023-08-06T08:00:34Z</time>
      </trkpt>
      <trkpt lat="50.35147" lon="3.41739">
        <ele>-3.8</ele>
        <time>2023-08-06T08:00:35Z</time>
      </trkpt>
      <trkpt lat="50.35143" lon="3.41737">
        <ele>-4</ele>
        <time>2023-08-06T08:00:36Z</time>
      </trkpt>
      <trkpt lat="50.3514" lon="3.41735">
        <ele>-4.2</ele>
        <time>2023-08-06T08:00:37Z</time>
      </trkpt>
      <trkpt lat="50.35125" lon="3.41724">
        <ele>-4.2</ele>
        <time>2023-08-06T08:00:42Z</time>
      </trkpt>
      <trkpt lat="50.35122" lon="3.41722">
        <ele>-4</ele>
        <time>2023-08-06T08:00:43Z</time>
      </trkpt>
      <trkpt lat="50.35119" lon="3.4172">
        <ele>-3.8</ele>
        <time>2023-08-06T08:00:44Z</time>
      </trkpt>
      <trkpt lat="50.351" lon="3.41707">
        <ele>-4</ele>
        <time>2023-08-06T08:00:50Z</time>
      </trkpt>
      <trkpt lat="50.3508" lon="3.41698">
        <ele>-3.8</ele>
        <time>2023-08-06T08:00:56Z</time>
      </trkpt>
      <trkpt lat="50.35077" lon="3.41697">
        <ele>-3.8</ele>
        <time>2023-08-06T08:00:57Z</time>
      </trkpt>
      <trkpt lat="50.35074" lon="3.41697">
        <ele>-3.6</ele>
        <time>2023-08-06T08:00:58Z</time>
      </trkpt>
      <trkpt lat="50.35071" lon="3.41696">
        <ele>-3.6</ele>
        <time>2023-08-06T08:00:59Z</time>
      </trkpt>
      <trkpt lat="50.35068" lon="3.41695">
        <ele>-3.6</ele>
        <time>2023-08-06T08:01:00Z</time>
      </trkpt>
      <trkpt lat="50.35064" lon="3.41694">
        <ele>-3.4</ele>
        <time>2023-08-06T08:01:01Z</time>
      </trkpt>
      <trkpt lat="50.35057" lon="3.41692">
        <ele>-2.4</ele>
        <time>2023-08-06T08:01:03Z</time>
      </trkpt>
      <trkpt lat="50.35055" lon="3.41691">
        <ele>-2.2</ele>
        <time>2023-08-06T08:01:04Z</time>
      </trkpt>
      <trkpt lat="50.35037" lon="3.41688">
        <ele>-2</ele>
        <time>2023-08-06T08:01:09Z</time>
      </trkpt>
      <trkpt lat="50.35011" lon="3.41688">
        <ele>-2.4</ele>
        <time>2023-08-06T08:01:17Z</time>
      </trkpt>
      <trkpt lat="50.35005" lon="3.41688">
        <ele>-2.4</ele>
        <time>2023-08-06T08:01:19Z</time>
      </trkpt>
      <trkpt lat="50.35" lon="3.41687">
        <ele>-2.4</ele>
        <time>2023-08-06T08:01:20Z</time>
      </trkpt>
      <trkpt lat="50.34986" lon="3.41686">
        <ele>-2.4</ele>
        <time>2023-08-06T08:01:24Z</time>
      </trkpt>
      <trkpt lat="50.34983" lon="3.41685">
        <ele>-2.2</ele>
        <time>2023-08-06T08:01:25Z</time>
      </trkpt>
      <trkpt lat="50.34949" lon="3.41682">
        <ele>-2</ele>
        <time>2023-08-06T08:01:34Z</time>
      </trkpt>
      <trkpt lat="50.34928" lon="3.41688">
        <ele>-2</ele>
        <time>2023-08-06T08:01:40Z</time>
      </trkpt>
      <trkpt lat="50.34899" lon="3.41698">
        <ele>-1.6</ele>
        <time>2023-08-06T08:01:48Z</time>
      </trkpt>
      <trkpt lat="50.34885" lon="3.41699">
        <ele>-1.4</ele>
        <time>2023-08-06T08:01:52Z</time>
      </trkpt>
      <trkpt lat="50.34882" lon="3.41696">
        <ele>-1.4</ele>
        <time>2023-08-06T08:01:53Z</time>
      </trkpt>
      <trkpt lat="50.34881" lon="3.41692">
        <ele>-1.4</ele>
        <time>2023-08-06T08:01:54Z</time>
      </trkpt>
      <trkpt lat="50.34878" lon="3.41683">
        <ele>-1.2</ele>
        <time>2023-08-06T08:01:56Z</time>
      </trkpt>
      <trkpt lat="50.34878" lon="3.41677">
        <ele>-1</ele>
        <time>2023-08-06T08:01:57Z</time>
      </trkpt>
      <trkpt lat="50.34878" lon="3.41672">
        <ele>-1</ele>
        <time>2023-08-06T08:01:58Z</time>
      </trkpt>
      <trkpt lat="50.34877" lon="3.41667">
        <ele>-1</ele>
        <time>2023-08-06T08:01:59Z</time>
      </trkpt>
      <trkpt lat="50.34877" lon="3.41661">
        <ele>-1</ele>
        <time>2023-08-06T08:02:00Z</time>
      </trkpt>
      <trkpt lat="50.34873" lon="3.41629">
        <ele>-0.80000000000001</ele>
        <time>2023-08-06T08:02:06Z</time>
      </trkpt>
      <trkpt lat="50.34868" lon="3.41584">
        <ele>-0.80000000000001</ele>
        <time>2023-08-06T08:02:14Z</time>
      </trkpt>
      <trkpt lat="50.34863" lon="3.4155">
        <ele>-0.60000000000002</ele>
        <time>2023-08-06T08:02:20Z</time>
      </trkpt>
      <trkpt lat="50.34858" lon="3.415">
        <ele>-0.80000000000001</ele>
        <time>2023-08-06T08:02:28Z</time>
      </trkpt>
      <trkpt lat="50.34853" lon="3.41471">
        <ele>-1</ele>
        <time>2023-08-06T08:02:33Z</time>
      </trkpt>
      <trkpt lat="50.34852" lon="3.41464">
        <ele>-1</ele>
        <time>2023-08-06T08:02:34Z</time>
      </trkpt>
      <trkpt lat="50.34852" lon="3.41458">
        <ele>-1</ele>
        <time>2023-08-06T08:02:35Z</time>
      </trkpt>
      <trkpt lat="50.34851" lon="3.41452">
        <ele>-1</ele>
        <time>2023-08-06T08:02:36Z</time>
      </trkpt>
      <trkpt lat="50.34851" lon="3.41446">
        <ele>-1</ele>
        <time>2023-08-06T08:02:37Z</time>
      </trkpt>
      <trkpt lat="50.34856" lon="3.41417">
        <ele>-1.2</ele>
        <time>2023-08-06T08:02:42Z</time>
      </trkpt>
      <trkpt lat="50.34874" lon="3.41373">
        <ele>-1.6</ele>
        <time>2023-08-06T08:02:50Z</time>
      </trkpt>
      <trkpt lat="50.34895" lon="3.41309">
        <ele>-1.8</ele>
        <time>2023-08-06T08:03:01Z</time>
      </trkpt>
      <trkpt lat="50.34915" lon="3.41253">
        <ele>-1.8</ele>
        <time>2023-08-06T08:03:11Z</time>
      </trkpt>
      <trkpt lat="50.34936" lon="3.41203">
        <ele>-1.8</ele>
        <time>2023-08-06T08:03:20Z</time>
      </trkpt>
      <trkpt lat="50.34949" lon="3.41164">
        <ele>-1.8</ele>
        <time>2023-08-06T08:03:27Z</time>
      </trkpt>
      <trkpt lat="50.34951" lon="3.41159">
        <ele>-1.8</ele>
        <time>2023-08-06T08:03:28Z</time>
      </trkpt>
      <trkpt lat="50.34954" lon="3.41154">
        <ele>-1.6</ele>
        <time>2023-08-06T08:03:29Z</time>
      </trkpt>
      <trkpt lat="50.34956" lon="3.41149">
        <ele>-1.6</ele>
        <time>2023-08-06T08:03:30Z</time>
      </trkpt>
      <trkpt lat="50.34958" lon="3.41143">
        <ele>-1.4</ele>
        <time>2023-08-06T08:03:31Z</time>
      </trkpt>
      <trkpt lat="50.34959" lon="3.41139">
        <ele>-1.4</ele>
        <time>2023-08-06T08:03:32Z</time>
      </trkpt>
      <trkpt lat="50.34961" lon="3.41134">
        <ele>-1.4</ele>
        <time>2023-08-06T08:03:33Z</time>
      </trkpt>
      <trkpt lat="50.34962" lon="3.41129">
        <ele>-1.4</ele>
        <time>2023-08-06T08:03:34Z</time>
      </trkpt>
      <trkpt lat="50.34964" lon="3.41124">
        <ele>-1.4</ele>
        <time>2023-08-06T08:03:35Z</time>
      </trkpt>
      <trkpt lat="50.34966" lon="3.41119">
        <ele>-1.4</ele>
        <time>2023-08-06T08:03:36Z</time>
      </trkpt>
      <trkpt lat="50.34968" lon="3.41115">
        <ele>-1.2</ele>
        <time>2023-08-06T08:03:37Z</time>
      </trkpt>
      <trkpt lat="50.34971" lon="3.41112">
        <ele>-1.2</ele>
        <time>2023-08-06T08:03:38Z</time>
      </trkpt>
      <trkpt lat="50.34973" lon="3.41109">
        <ele>-1.2</ele>
        <time>2023-08-06T08:03:39Z</time>
      </trkpt>
      <trkpt lat="50.34976" lon="3.41108">
        <ele>-1.2</ele>
        <time>2023-08-06T08:03:40Z</time>
      </trkpt>
      <trkpt lat="50.34978" lon="3.41107">
        <ele>-1.4</ele>
        <time>2023-08-06T08:03:41Z</time>
      </trkpt>
      <trkpt lat="50.34981" lon="3.41108">
        <ele>-1.4</ele>
        <time>2023-08-06T08:03:42Z</time>
      </trkpt>
      <trkpt lat="50.34985" lon="3.41108">
        <ele>-1.4</ele>
        <time>2023-08-06T08:03:43Z</time>
      </trkpt>
      <trkpt lat="50.34988" lon="3.41109">
        <ele>-1.4</ele>
        <time>2023-08-06T08:03:44Z</time>
      </trkpt>
      <trkpt lat="50.3501" lon="3.41112">
        <ele>-1.6</ele>
        <time>2023-08-06T08:03:50Z</time>
      </trkpt>
      <trkpt lat="50.35013" lon="3.41112">
        <ele>-1.6</ele>
        <time>2023-08-06T08:03:51Z</time>
      </trkpt>
      <trkpt lat="50.35015" lon="3.41113">
        <ele>-1.8</ele>
        <time>2023-08-06T08:03:52Z</time>
      </trkpt>
      <trkpt lat="50.35018" lon="3.41113">
        <ele>-1.8</ele>
        <time>2023-08-06T08:03:53Z</time>
      </trkpt>
      <trkpt lat="50.3502" lon="3.41113">
        <ele>-1.8</ele>
        <time>2023-08-06T08:03:54Z</time>
      </trkpt>
      <trkpt lat="50.35023" lon="3.41114">
        <ele>-1.8</ele>
        <time>2023-08-06T08:03:55Z</time>
      </trkpt>
      <trkpt lat="50.35028" lon="3.41114">
        <ele>-2</ele>
        <time>2023-08-06T08:03:57Z</time>
      </trkpt>
      <trkpt lat="50.35029" lon="3.41113">
        <ele>-2</ele>
        <time>2023-08-06T08:03:58Z</time>
      </trkpt>
      <trkpt lat="50.3503" lon="3.41111">
        <ele>-2</ele>
        <time>2023-08-06T08:03:59Z</time>
      </trkpt>
      <trkpt lat="50.35029" lon="3.41109">
        <ele>-2.2</ele>
        <time>2023-08-06T08:04:00Z</time>
      </trkpt>
      <trkpt lat="50.35024" lon="3.41108">
        <ele>-2.2</ele>
        <time>2023-08-06T08:04:02Z</time>
      </trkpt>
      <trkpt lat="50.35019" lon="3.41107">
        <ele>-2.2</ele>
        <time>2023-08-06T08:04:04Z</time>
      </trkpt>
      <trkpt lat="50.35016" lon="3.41107">
        <ele>-2.2</ele>
        <time>2023-08-06T08:04:05Z</time>
      </trkpt>
      <trkpt lat="50.35002" lon="3.41104">
        <ele>-2.4</ele>
        <time>2023-08-06T08:04:09Z</time>
      </trkpt>
      <trkpt lat="50.34985" lon="3.41096">
        <ele>-2.2</ele>
        <time>2023-08-06T08:04:14Z</time>
      </trkpt>
      <trkpt lat="50.34982" lon="3.41092">
        <ele>-2.2</ele>
        <time>2023-08-06T08:04:15Z</time>
      </trkpt>
      <trkpt lat="50.34979" lon="3.41091">
        <ele>-2.2</ele>
        <time>2023-08-06T08:04:16Z</time>
      </trkpt>
      <trkpt lat="50.34974" lon="3.41094">
        <ele>-2.2</ele>
        <time>2023-08-06T08:04:18Z</time>
      </trkpt>
      <trkpt lat="50.34962" lon="3.41122">
        <ele>-2</ele>
        <time>2023-08-06T08:04:24Z</time>
      </trkpt>
      <trkpt lat="50.34959" lon="3.41131">
        <ele>-1.8</ele>
        <time>2023-08-06T08:04:26Z</time>
      </trkpt>
      <trkpt lat="50.34958" lon="3.41135">
        <ele>-1.8</ele>
        <time>2023-08-06T08:04:27Z</time>
      </trkpt>
      <trkpt lat="50.34957" lon="3.41139">
        <ele>-1.8</ele>
        <time>2023-08-06T08:04:28Z</time>
      </trkpt>
      <trkpt lat="50.34957" lon="3.41142">
        <ele>-1.8</ele>
        <time>2023-08-06T08:04:29Z</time>
      </trkpt>
      <trkpt lat="50.34957" lon="3.41145">
        <ele>-1.8</ele>
        <time>2023-08-06T08:04:30Z</time>
      </trkpt>
      <trkpt lat="50.34958" lon="3.41147">
        <ele>-1.8</ele>
        <time>2023-08-06T08:04:31Z</time>
      </trkpt>
      <trkpt lat="50.3496" lon="3.41148">
        <ele>-1.8</ele>
        <time>2023-08-06T08:04:32Z</time>
      </trkpt>
      <trkpt lat="50.34961" lon="3.41148">
        <ele>-1.8</ele>
        <time>2023-08-06T08:04:33Z</time>
      </trkpt>
      <trkpt lat="50.34965" lon="3.4115">
        <ele>-1.8</ele>
        <time>2023-08-06T08:04:35Z</time>
      </trkpt>
      <trkpt lat="50.34968" lon="3.4115">
        <ele>-2</ele>
        <time>2023-08-06T08:04:36Z</time>
      </trkpt>
      <trkpt lat="50.34981" lon="3.41153">
        <ele>-2.2</ele>
        <time>2023-08-06T08:04:40Z</time>
      </trkpt>
      <trkpt lat="50.34984" lon="3.41153">
        <ele>-2.2</ele>
        <time>2023-08-06T08:04:41Z</time>
      </trkpt>
      <trkpt lat="50.34987" lon="3.41153">
        <ele>-2.2</ele>
        <time>2023-08-06T08:04:42Z</time>
      </trkpt>
      <trkpt lat="50.34989" lon="3.41154">
        <ele>-2.2</ele>
        <time>2023-08-06T08:04:43Z</time>
      </trkpt>
      <trkpt lat="50.34991" lon="3.41154">
        <ele>-2.4</ele>
        <time>2023-08-06T08:04:44Z</time>
      </trkpt>
      <trkpt lat="50.34993" lon="3.41155">
        <ele>-2.4</ele>
        <time>2023-08-06T08:04:45Z</time>
      </trkpt>
      <trkpt lat="50.34996" lon="3.41155">
        <ele>-2.4</ele>
        <time>2023-08-06T08:04:46Z</time>
      </trkpt>
      <trkpt lat="50.35013" lon="3.41162">
        <ele>-2.4</ele>
        <time>2023-08-06T08:04:52Z</time>
      </trkpt>
      <trkpt lat="50.35035" lon="3.41175">
        <ele>-2.4</ele>
        <time>2023-08-06T08:04:59Z</time>
      </trkpt>
      <trkpt lat="50.35038" lon="3.41175">
        <ele>-2.4</ele>
        <time>2023-08-06T08:05:00Z</time>
      </trkpt>
      <trkpt lat="50.35041" lon="3.41174">
        <ele>-2.4</ele>
        <time>2023-08-06T08:05:01Z</time>
      </trkpt>
      <trkpt lat="50.35054" lon="3.41176">
        <ele>-2.4</ele>
        <time>2023-08-06T08:05:05Z</time>
      </trkpt>
      <trkpt lat="50.35074" lon="3.4117">
        <ele>-2.6</ele>
        <time>2023-08-06T08:05:10Z</time>
      </trkpt>
      <trkpt lat="50.35078" lon="3.4117">
        <ele>-2.6</ele>
        <time>2023-08-06T08:05:11Z</time>
      </trkpt>
      <trkpt lat="50.35083" lon="3.4117">
        <ele>-2.6</ele>
        <time>2023-08-06T08:05:12Z</time>
      </trkpt>
      <trkpt lat="50.35088" lon="3.4117">
        <ele>-2.6</ele>
        <time>2023-08-06T08:05:13Z</time>
      </trkpt>
      <trkpt lat="50.351" lon="3.41171">
        <ele>-2.8</ele>
        <time>2023-08-06T08:05:16Z</time>
      </trkpt>
      <trkpt lat="50.35109" lon="3.41171">
        <ele>-2.8</ele>
        <time>2023-08-06T08:05:18Z</time>
      </trkpt>
      <trkpt lat="50.35117" lon="3.41174">
        <ele>-2.8</ele>
        <time>2023-08-06T08:05:20Z</time>
      </trkpt>
      <trkpt lat="50.35129" lon="3.41179">
        <ele>-3</ele>
        <time>2023-08-06T08:05:23Z</time>
      </trkpt>
      <trkpt lat="50.35133" lon="3.4118">
        <ele>-3.2</ele>
        <time>2023-08-06T08:05:24Z</time>
      </trkpt>
      <trkpt lat="50.35136" lon="3.41181">
        <ele>-3.4</ele>
        <time>2023-08-06T08:05:25Z</time>
      </trkpt>
      <trkpt lat="50.3514" lon="3.41182">
        <ele>-3.4</ele>
        <time>2023-08-06T08:05:26Z</time>
      </trkpt>
      <trkpt lat="50.35144" lon="3.41184">
        <ele>-3.4</ele>
        <time>2023-08-06T08:05:27Z</time>
      </trkpt>
      <trkpt lat="50.35147" lon="3.41185">
        <ele>-3.4</ele>
        <time>2023-08-06T08:05:28Z</time>
      </trkpt>
      <trkpt lat="50.35151" lon="3.41187">
        <ele>-3.4</ele>
        <time>2023-08-06T08:05:29Z</time>
      </trkpt>
      <trkpt lat="50.35155" lon="3.41188">
        <ele>-3.4</ele>
        <time>2023-08-06T08:05:30Z</time>
      </trkpt>
      <trkpt lat="50.35159" lon="3.41189">
        <ele>-3.4</ele>
        <time>2023-08-06T08:05:31Z</time>
      </trkpt>
      <trkpt lat="50.35163" lon="3.41191">
        <ele>-3.4</ele>
        <time>2023-08-06T08:05:32Z</time>
      </trkpt>
      <trkpt lat="50.35196" lon="3.41202">
        <ele>-3.2</ele>
        <time>2023-08-06T08:05:40Z</time>
      </trkpt>
      <trkpt lat="50.3522" lon="3.41208">
        <ele>-3.4</ele>
        <time>2023-08-06T08:05:46Z</time>
      </trkpt>
      <trkpt lat="50.35229" lon="3.41209">
        <ele>-3.6</ele>
        <time>2023-08-06T08:05:48Z</time>
      </trkpt>
      <trkpt lat="50.35232" lon="3.41209">
        <ele>-3.6</ele>
        <time>2023-08-06T08:05:49Z</time>
      </trkpt>
      <trkpt lat="50.35245" lon="3.41212">
        <ele>-3.6</ele>
        <time>2023-08-06T08:05:52Z</time>
      </trkpt>
      <trkpt lat="50.35249" lon="3.41213">
        <ele>-3.6</ele>
        <time>2023-08-06T08:05:53Z</time>
      </trkpt>
      <trkpt lat="50.35253" lon="3.41213">
        <ele>-3.6</ele>
        <time>2023-08-06T08:05:54Z</time>
      </trkpt>
      <trkpt lat="50.35257" lon="3.41214">
        <ele>-3.6</ele>
        <time>2023-08-06T08:05:55Z</time>
      </trkpt>
      <trkpt lat="50.35261" lon="3.41214">
        <ele>-3.6</ele>
        <time>2023-08-06T08:05:56Z</time>
      </trkpt>
      <trkpt lat="50.35265" lon="3.41214">
        <ele>-3.6</ele>
        <time>2023-08-06T08:05:57Z</time>
      </trkpt>
      <trkpt lat="50.35308" lon="3.41214">
        <ele>-3.4</ele>
        <time>2023-08-06T08:06:07Z</time>
      </trkpt>
      <trkpt lat="50.35311" lon="3.41214">
        <ele>-3.4</ele>
        <time>2023-08-06T08:06:08Z</time>
      </trkpt>
      <trkpt lat="50.35314" lon="3.41214">
        <ele>-3.4</ele>
        <time>2023-08-06T08:06:09Z</time>
      </trkpt>
      <trkpt lat="50.35316" lon="3.41214">
        <ele>-3.4</ele>
        <time>2023-08-06T08:06:10Z</time>
      </trkpt>
      <trkpt lat="50.35318" lon="3.41213">
        <ele>-3.4</ele>
        <time>2023-08-06T08:06:11Z</time>
      </trkpt>
      <trkpt lat="50.35319" lon="3.41214">
        <ele>-3.4</ele>
        <time>2023-08-06T08:06:12Z</time>
      </trkpt>
      <trkpt lat="50.35321" lon="3.41214">
        <ele>-3.4</ele>
        <time>2023-08-06T08:06:13Z</time>
      </trkpt>
      <trkpt lat="50.35322" lon="3.41213">
        <ele>-3.4</ele>
        <time>2023-08-06T08:06:14Z</time>
      </trkpt>
      <trkpt lat="50.35325" lon="3.41213">
        <ele>-3.4</ele>
        <time>2023-08-06T08:06:16Z</time>
      </trkpt>
      <trkpt lat="50.35326" lon="3.41212">
        <ele>-3.6</ele>
        <time>2023-08-06T08:06:17Z</time>
      </trkpt>
      <trkpt lat="50.35328" lon="3.41213">
        <ele>-3.6</ele>
        <time>2023-08-06T08:06:18Z</time>
      </trkpt>
      <trkpt lat="50.35329" lon="3.41213">
        <ele>-3.6</ele>
        <time>2023-08-06T08:06:19Z</time>
      </trkpt>
      <trkpt lat="50.35331" lon="3.41212">
        <ele>-3.6</ele>
        <time>2023-08-06T08:06:20Z</time>
      </trkpt>
      <trkpt lat="50.35332" lon="3.41212">
        <ele>-3.6</ele>
        <time>2023-08-06T08:06:21Z</time>
      </trkpt>
      <trkpt lat="50.35334" lon="3.41212">
        <ele>-3.6</ele>
        <time>2023-08-06T08:06:22Z</time>
      </trkpt>
      <trkpt lat="50.35335" lon="3.41211">
        <ele>-3.6</ele>
        <time>2023-08-06T08:06:23Z</time>
      </trkpt>
      <trkpt lat="50.35336" lon="3.41211">
        <ele>-3.6</ele>
        <time>2023-08-06T08:06:24Z</time>
      </trkpt>
      <trkpt lat="50.35336" lon="3.41211">
        <ele>-3.6</ele>
        <time>2023-08-06T08:06:25Z</time>
      </trkpt>
      <trkpt lat="50.35336" lon="3.41211">
        <ele>-3.6</ele>
        <time>2023-08-06T08:06:27Z</time>
      </trkpt>
      <trkpt lat="50.35331" lon="3.41211">
        <ele>-4</ele>
        <time>2023-08-06T08:06:43Z</time>
      </trkpt>
      <trkpt lat="50.35329" lon="3.41212">
        <ele>-4</ele>
        <time>2023-08-06T08:06:44Z</time>
      </trkpt>
      <trkpt lat="50.35311" lon="3.41212">
        <ele>-3.8</ele>
        <time>2023-08-06T08:06:50Z</time>
      </trkpt>
      <trkpt lat="50.35286" lon="3.41212">
        <ele>-3.6</ele>
        <time>2023-08-06T08:06:56Z</time>
      </trkpt>
      <trkpt lat="50.35283" lon="3.41212">
        <ele>-3.6</ele>
        <time>2023-08-06T08:06:57Z</time>
      </trkpt>
      <trkpt lat="50.35248" lon="3.41211">
        <ele>-3.4</ele>
        <time>2023-08-06T08:07:05Z</time>
      </trkpt>
      <trkpt lat="50.35238" lon="3.4121">
        <ele>-3.4</ele>
        <time>2023-08-06T08:07:07Z</time>
      </trkpt>
      <trkpt lat="50.35217" lon="3.41206">
        <ele>-3.4</ele>
        <time>2023-08-06T08:07:12Z</time>
      </trkpt>
      <trkpt lat="50.35181" lon="3.41196">
        <ele>-3.4</ele>
        <time>2023-08-06T08:07:20Z</time>
      </trkpt>
      <trkpt lat="50.34891" lon="3.41313">
        <ele>6</ele>
        <time>2023-08-06T08:18:03Z</time>
      </trkpt>
      <trkpt lat="50.34891" lon="3.41313">
        <ele>21.4</ele>
        <time>2023-08-06T08:18:04Z</time>
      </trkpt>
      <trkpt lat="50.3489" lon="3.4132">
        <ele>21.6</ele>
        <time>2023-08-06T08:18:13Z</time>
      </trkpt>
      <trkpt lat="50.34889" lon="3.41326">
        <ele>21.6</ele>
        <time>2023-08-06T08:18:15Z</time>
      </trkpt>
      <trkpt lat="50.34888" lon="3.41329">
        <ele>21.4</ele>
        <time>2023-08-06T08:18:16Z</time>
      </trkpt>
      <trkpt lat="50.34881" lon="3.41349">
        <ele>21.4</ele>
        <time>2023-08-06T08:18:21Z</time>
      </trkpt>
      <trkpt lat="50.34879" lon="3.41353">
        <ele>21.4</ele>
        <time>2023-08-06T08:18:22Z</time>
      </trkpt>
      <trkpt lat="50.34864" lon="3.41391">
        <ele>21.8</ele>
        <time>2023-08-06T08:18:32Z</time>
      </trkpt>
      <trkpt lat="50.34852" lon="3.41427">
        <ele>21.6</ele>
        <time>2023-08-06T08:18:40Z</time>
      </trkpt>
      <trkpt lat="50.3485" lon="3.41457">
        <ele>22</ele>
        <time>2023-08-06T08:18:46Z</time>
      </trkpt>
      <trkpt lat="50.34856" lon="3.41505">
        <ele>22.4</ele>
        <time>2023-08-06T08:18:56Z</time>
      </trkpt>
      <trkpt lat="50.34856" lon="3.41508">
        <ele>22.4</ele>
        <time>2023-08-06T08:18:57Z</time>
      </trkpt>
      <trkpt lat="50.34856" lon="3.41511">
        <ele>22.4</ele>
        <time>2023-08-06T08:18:58Z</time>
      </trkpt>
      <trkpt lat="50.34856" lon="3.41513">
        <ele>22.4</ele>
        <time>2023-08-06T08:18:59Z</time>
      </trkpt>
      <trkpt lat="50.34857" lon="3.41517">
        <ele>22.4</ele>
        <time>2023-08-06T08:19:00Z</time>
      </trkpt>
      <trkpt lat="50.34858" lon="3.41521">
        <ele>22.4</ele>
        <time>2023-08-06T08:19:01Z</time>
      </trkpt>
      <trkpt lat="50.34859" lon="3.41524">
        <ele>22.4</ele>
        <time>2023-08-06T08:19:02Z</time>
      </trkpt>
      <trkpt lat="50.34863" lon="3.41547">
        <ele>22.2</ele>
        <time>2023-08-06T08:19:07Z</time>
      </trkpt>
      <trkpt lat="50.34868" lon="3.41582">
        <ele>22.2</ele>
        <time>2023-08-06T08:19:14Z</time>
      </trkpt>
      <trkpt lat="50.3487" lon="3.41611">
        <ele>22.4</ele>
        <time>2023-08-06T08:19:20Z</time>
      </trkpt>
      <trkpt lat="50.3487" lon="3.41615">
        <ele>22.4</ele>
        <time>2023-08-06T08:19:21Z</time>
      </trkpt>
      <trkpt lat="50.34871" lon="3.41621">
        <ele>22.4</ele>
        <time>2023-08-06T08:19:22Z</time>
      </trkpt>
      <trkpt lat="50.34873" lon="3.41645">
        <ele>22.4</ele>
        <time>2023-08-06T08:19:27Z</time>
      </trkpt>
      <trkpt lat="50.34874" lon="3.4165">
        <ele>22.6</ele>
        <time>2023-08-06T08:19:28Z</time>
      </trkpt>
      <trkpt lat="50.34874" lon="3.41654">
        <ele>22.4</ele>
        <time>2023-08-06T08:19:29Z</time>
      </trkpt>
      <trkpt lat="50.34875" lon="3.41658">
        <ele>22.4</ele>
        <time>2023-08-06T08:19:30Z</time>
      </trkpt>
      <trkpt lat="50.34876" lon="3.41663">
        <ele>22.4</ele>
        <time>2023-08-06T08:19:31Z</time>
      </trkpt>
      <trkpt lat="50.34876" lon="3.41668">
        <ele>22.6</ele>
        <time>2023-08-06T08:19:32Z</time>
      </trkpt>
      <trkpt lat="50.34876" lon="3.41671">
        <ele>22.6</ele>
        <time>2023-08-06T08:19:33Z</time>
      </trkpt>
      <trkpt lat="50.34877" lon="3.41676">
        <ele>22.6</ele>
        <time>2023-08-06T08:19:34Z</time>
      </trkpt>
      <trkpt lat="50.34877" lon="3.4168">
        <ele>22.6</ele>
        <time>2023-08-06T08:19:35Z</time>
      </trkpt>
      <trkpt lat="50.34878" lon="3.41684">
        <ele>22.6</ele>
        <time>2023-08-06T08:19:36Z</time>
      </trkpt>
      <trkpt lat="50.34879" lon="3.41688">
        <ele>22.6</ele>
        <time>2023-08-06T08:19:37Z</time>
      </trkpt>
      <trkpt lat="50.3488" lon="3.41692">
        <ele>22.6</ele>
        <time>2023-08-06T08:19:38Z</time>
      </trkpt>
      <trkpt lat="50.3488" lon="3.41695">
        <ele>22.6</ele>
        <time>2023-08-06T08:19:39Z</time>
      </trkpt>
      <trkpt lat="50.3488" lon="3.41698">
        <ele>22.6</ele>
        <time>2023-08-06T08:19:40Z</time>
      </trkpt>
      <trkpt lat="50.3488" lon="3.41702">
        <ele>22.6</ele>
        <time>2023-08-06T08:19:41Z</time>
      </trkpt>
      <trkpt lat="50.3488" lon="3.41705">
        <ele>22.6</ele>
        <time>2023-08-06T08:19:42Z</time>
      </trkpt>
      <trkpt lat="50.34881" lon="3.41709">
        <ele>22.4</ele>
        <time>2023-08-06T08:19:43Z</time>
      </trkpt>
      <trkpt lat="50.34882" lon="3.41711">
        <ele>22.4</ele>
        <time>2023-08-06T08:19:44Z</time>
      </trkpt>
      <trkpt lat="50.34884" lon="3.41711">
        <ele>22.4</ele>
        <time>2023-08-06T08:19:45Z</time>
      </trkpt>
      <trkpt lat="50.34885" lon="3.41709">
        <ele>22.4</ele>
        <time>2023-08-06T08:19:46Z</time>
      </trkpt>
      <trkpt lat="50.34886" lon="3.41705">
        <ele>22.4</ele>
        <time>2023-08-06T08:19:47Z</time>
      </trkpt>
      <trkpt lat="50.34886" lon="3.41702">
        <ele>22.4</ele>
        <time>2023-08-06T08:19:48Z</time>
      </trkpt>
      <trkpt lat="50.34882" lon="3.41692">
        <ele>22.6</ele>
        <time>2023-08-06T08:19:51Z</time>
      </trkpt>
      <trkpt lat="50.3488" lon="3.41687">
        <ele>22.6</ele>
        <time>2023-08-06T08:19:52Z</time>
      </trkpt>
      <trkpt lat="50.3488" lon="3.41679">
        <ele>22.8</ele>
        <time>2023-08-06T08:19:54Z</time>
      </trkpt>
      <trkpt lat="50.34876" lon="3.4164">
        <ele>22.8</ele>
        <time>2023-08-06T08:20:02Z</time>
      </trkpt>
      <trkpt lat="50.3487" lon="3.41587">
        <ele>23.2</ele>
        <time>2023-08-06T08:20:12Z</time>
      </trkpt>
      <trkpt lat="50.34868" lon="3.41576">
        <ele>23.2</ele>
        <time>2023-08-06T08:20:14Z</time>
      </trkpt>
      <trkpt lat="50.34862" lon="3.41528">
        <ele>23.2</ele>
        <time>2023-08-06T08:20:22Z</time>
      </trkpt>
      <trkpt lat="50.3486" lon="3.41515">
        <ele>23.2</ele>
        <time>2023-08-06T08:20:24Z</time>
      </trkpt>
      <trkpt lat="50.34858" lon="3.41509">
        <ele>23.2</ele>
        <time>2023-08-06T08:20:25Z</time>
      </trkpt>
      <trkpt lat="50.34855" lon="3.41507">
        <ele>23</ele>
        <time>2023-08-06T08:20:26Z</time>
      </trkpt>
      <trkpt lat="50.34852" lon="3.41506">
        <ele>22.8</ele>
        <time>2023-08-06T08:20:27Z</time>
      </trkpt>
      <trkpt lat="50.3485" lon="3.41507">
        <ele>22.8</ele>
        <time>2023-08-06T08:20:28Z</time>
      </trkpt>
      <trkpt lat="50.34847" lon="3.41509">
        <ele>22.8</ele>
        <time>2023-08-06T08:20:29Z</time>
      </trkpt>
      <trkpt lat="50.34845" lon="3.41511">
        <ele>22.6</ele>
        <time>2023-08-06T08:20:30Z</time>
      </trkpt>
      <trkpt lat="50.34843" lon="3.41514">
        <ele>22.6</ele>
        <time>2023-08-06T08:20:31Z</time>
      </trkpt>
      <trkpt lat="50.3484" lon="3.41517">
        <ele>22.6</ele>
        <time>2023-08-06T08:20:32Z</time>
      </trkpt>
      <trkpt lat="50.34828" lon="3.41526">
        <ele>23</ele>
        <time>2023-08-06T08:20:36Z</time>
      </trkpt>
      <trkpt lat="50.348" lon="3.41552">
        <ele>23.2</ele>
        <time>2023-08-06T08:20:45Z</time>
      </trkpt>
      <trkpt lat="50.34777" lon="3.41574">
        <ele>23.4</ele>
        <time>2023-08-06T08:20:52Z</time>
      </trkpt>
      <trkpt lat="50.34748" lon="3.41602">
        <ele>23.6</ele>
        <time>2023-08-06T08:21:01Z</time>
      </trkpt>
      <trkpt lat="50.34713" lon="3.41638">
        <ele>23.6</ele>
        <time>2023-08-06T08:21:11Z</time>
      </trkpt>
      <trkpt lat="50.34686" lon="3.41666">
        <ele>23.4</ele>
        <time>2023-08-06T08:21:18Z</time>
      </trkpt>
      <trkpt lat="50.3466" lon="3.41692">
        <ele>23.6</ele>
        <time>2023-08-06T08:21:25Z</time>
      </trkpt>
      <trkpt lat="50.34654" lon="3.41699">
        <ele>23.6</ele>
        <time>2023-08-06T08:21:27Z</time>
      </trkpt>
      <trkpt lat="50.34646" lon="3.41708">
        <ele>23.6</ele>
        <time>2023-08-06T08:21:29Z</time>
      </trkpt>
      <trkpt lat="50.34638" lon="3.41715">
        <ele>23.6</ele>
        <time>2023-08-06T08:21:31Z</time>
      </trkpt>
      <trkpt lat="50.34632" lon="3.41723">
        <ele>23.6</ele>
        <time>2023-08-06T08:21:33Z</time>
      </trkpt>
      <trkpt lat="50.34591" lon="3.41779">
        <ele>24.2</ele>
        <time>2023-08-06T08:21:45Z</time>
      </trkpt>
      <trkpt lat="50.34586" lon="3.41785">
        <ele>24</ele>
        <time>2023-08-06T08:21:46Z</time>
      </trkpt>
      <trkpt lat="50.34567" lon="3.41812">
        <ele>24</ele>
        <time>2023-08-06T08:21:52Z</time>
      </trkpt>
      <trkpt lat="50.34563" lon="3.41818">
        <ele>24</ele>
        <time>2023-08-06T08:21:53Z</time>
      </trkpt>
      <trkpt lat="50.34561" lon="3.41821">
        <ele>24</ele>
        <time>2023-08-06T08:21:54Z</time>
      </trkpt>
      <trkpt lat="50.34557" lon="3.41826">
        <ele>24</ele>
        <time>2023-08-06T08:21:55Z</time>
      </trkpt>
      <trkpt lat="50.34554" lon="3.41831">
        <ele>24</ele>
        <time>2023-08-06T08:21:56Z</time>
      </trkpt>
      <trkpt lat="50.34537" lon="3.41853">
        <ele>24</ele>
        <time>2023-08-06T08:22:01Z</time>
      </trkpt>
      <trkpt lat="50.34533" lon="3.41857">
        <ele>24</ele>
        <time>2023-08-06T08:22:02Z</time>
      </trkpt>
      <trkpt lat="50.3453" lon="3.41862">
        <ele>24</ele>
        <time>2023-08-06T08:22:03Z</time>
      </trkpt>
      <trkpt lat="50.34528" lon="3.41865">
        <ele>24</ele>
        <time>2023-08-06T08:22:04Z</time>
      </trkpt>
      <trkpt lat="50.34524" lon="3.41869">
        <ele>24</ele>
        <time>2023-08-06T08:22:05Z</time>
      </trkpt>
      <trkpt lat="50.34521" lon="3.41873">
        <ele>24.2</ele>
        <time>2023-08-06T08:22:06Z</time>
      </trkpt>
      <trkpt lat="50.34518" lon="3.41877">
        <ele>24.2</ele>
        <time>2023-08-06T08:22:07Z</time>
      </trkpt>
      <trkpt lat="50.34514" lon="3.41882">
        <ele>24.2</ele>
        <time>2023-08-06T08:22:08Z</time>
      </trkpt>
      <trkpt lat="50.34511" lon="3.41887">
        <ele>24.2</ele>
        <time>2023-08-06T08:22:09Z</time>
      </trkpt>
      <trkpt lat="50.34498" lon="3.41903">
        <ele>24.6</ele>
        <time>2023-08-06T08:22:13Z</time>
      </trkpt>
      <trkpt lat="50.34479" lon="3.4192">
        <ele>25</ele>
        <time>2023-08-06T08:22:18Z</time>
      </trkpt>
      <trkpt lat="50.34468" lon="3.41928">
        <ele>25.2</ele>
        <time>2023-08-06T08:22:21Z</time>
      </trkpt>
      <trkpt lat="50.34429" lon="3.41949">
        <ele>26</ele>
        <time>2023-08-06T08:22:30Z</time>
      </trkpt>
      <trkpt lat="50.34422" lon="3.41953">
        <ele>26.2</ele>
        <time>2023-08-06T08:22:32Z</time>
      </trkpt>
      <trkpt lat="50.34417" lon="3.41956">
        <ele>26.2</ele>
        <time>2023-08-06T08:22:33Z</time>
      </trkpt>
      <trkpt lat="50.34392" lon="3.41966">
        <ele>26.8</ele>
        <time>2023-08-06T08:22:39Z</time>
      </trkpt>
      <trkpt lat="50.3436" lon="3.41988">
        <ele>27</ele>
        <time>2023-08-06T08:22:47Z</time>
      </trkpt>
      <trkpt lat="50.34348" lon="3.41997">
        <ele>27.4</ele>
        <time>2023-08-06T08:22:50Z</time>
      </trkpt>
      <trkpt lat="50.34337" lon="3.42006">
        <ele>27.4</ele>
        <time>2023-08-06T08:22:53Z</time>
      </trkpt>
      <trkpt lat="50.3433" lon="3.42013">
        <ele>27.4</ele>
        <time>2023-08-06T08:22:55Z</time>
      </trkpt>
      <trkpt lat="50.34323" lon="3.42018">
        <ele>27.4</ele>
        <time>2023-08-06T08:22:57Z</time>
      </trkpt>
      <trkpt lat="50.3432" lon="3.42019">
        <ele>27.4</ele>
        <time>2023-08-06T08:22:58Z</time>
      </trkpt>
      <trkpt lat="50.34316" lon="3.42019">
        <ele>27.4</ele>
        <time>2023-08-06T08:22:59Z</time>
      </trkpt>
      <trkpt lat="50.34312" lon="3.42018">
        <ele>27.4</ele>
        <time>2023-08-06T08:23:00Z</time>
      </trkpt>
      <trkpt lat="50.34308" lon="3.42016">
        <ele>27.4</ele>
        <time>2023-08-06T08:23:01Z</time>
      </trkpt>
      <trkpt lat="50.34305" lon="3.42014">
        <ele>27.6</ele>
        <time>2023-08-06T08:23:02Z</time>
      </trkpt>
      <trkpt lat="50.34301" lon="3.42013">
        <ele>27.6</ele>
        <time>2023-08-06T08:23:03Z</time>
      </trkpt>
      <trkpt lat="50.34292" lon="3.42013">
        <ele>27.8</ele>
        <time>2023-08-06T08:23:05Z</time>
      </trkpt>
      <trkpt lat="50.34285" lon="3.42013">
        <ele>28</ele>
        <time>2023-08-06T08:23:07Z</time>
      </trkpt>
      <trkpt lat="50.34282" lon="3.42013">
        <ele>28</ele>
        <time>2023-08-06T08:23:08Z</time>
      </trkpt>
      <trkpt lat="50.34279" lon="3.42014">
        <ele>28</ele>
        <time>2023-08-06T08:23:09Z</time>
      </trkpt>
      <trkpt lat="50.34277" lon="3.42014">
        <ele>28</ele>
        <time>2023-08-06T08:23:10Z</time>
      </trkpt>
      <trkpt lat="50.34275" lon="3.42018">
        <ele>28</ele>
        <time>2023-08-06T08:23:11Z</time>
      </trkpt>
      <trkpt lat="50.34268" lon="3.42035">
        <ele>27.8</ele>
        <time>2023-08-06T08:23:15Z</time>
      </trkpt>
      <trkpt lat="50.34257" lon="3.42041">
        <ele>27.8</ele>
        <time>2023-08-06T08:23:18Z</time>
      </trkpt>
      <trkpt lat="50.34253" lon="3.42042">
        <ele>27.6</ele>
        <time>2023-08-06T08:23:19Z</time>
      </trkpt>
      <trkpt lat="50.3424" lon="3.42046">
        <ele>27.2</ele>
        <time>2023-08-06T08:23:22Z</time>
      </trkpt>
      <trkpt lat="50.34233" lon="3.4205">
        <ele>27.2</ele>
        <time>2023-08-06T08:23:24Z</time>
      </trkpt>
      <trkpt lat="50.34225" lon="3.42051">
        <ele>27.2</ele>
        <time>2023-08-06T08:23:26Z</time>
      </trkpt>
      <trkpt lat="50.3422" lon="3.42053">
        <ele>27.2</ele>
        <time>2023-08-06T08:23:27Z</time>
      </trkpt>
      <trkpt lat="50.34209" lon="3.42057">
        <ele>27.4</ele>
        <time>2023-08-06T08:23:30Z</time>
      </trkpt>
      <trkpt lat="50.34155" lon="3.42075">
        <ele>28.4</ele>
        <time>2023-08-06T08:23:43Z</time>
      </trkpt>
      <trkpt lat="50.34151" lon="3.42076">
        <ele>28.6</ele>
        <time>2023-08-06T08:23:44Z</time>
      </trkpt>
      <trkpt lat="50.34147" lon="3.42077">
        <ele>28.6</ele>
        <time>2023-08-06T08:23:45Z</time>
      </trkpt>
      <trkpt lat="50.34144" lon="3.42078">
        <ele>28.6</ele>
        <time>2023-08-06T08:23:46Z</time>
      </trkpt>
      <trkpt lat="50.34141" lon="3.42079">
        <ele>28.6</ele>
        <time>2023-08-06T08:23:47Z</time>
      </trkpt>
      <trkpt lat="50.34137" lon="3.42081">
        <ele>28.6</ele>
        <time>2023-08-06T08:23:48Z</time>
      </trkpt>
      <trkpt lat="50.34132" lon="3.42082">
        <ele>28.6</ele>
        <time>2023-08-06T08:23:49Z</time>
      </trkpt>
      <trkpt lat="50.34129" lon="3.42084">
        <ele>28.6</ele>
        <time>2023-08-06T08:23:50Z</time>
      </trkpt>
      <trkpt lat="50.34126" lon="3.42085">
        <ele>28.6</ele>
        <time>2023-08-06T08:23:51Z</time>
      </trkpt>
      <trkpt lat="50.34122" lon="3.42086">
        <ele>28.4</ele>
        <time>2023-08-06T08:23:52Z</time>
      </trkpt>
      <trkpt lat="50.34081" lon="3.42101">
        <ele>28.4</ele>
        <time>2023-08-06T08:24:03Z</time>
      </trkpt>
      <trkpt lat="50.34061" lon="3.42106">
        <ele>29</ele>
        <time>2023-08-06T08:24:08Z</time>
      </trkpt>
      <trkpt lat="50.34058" lon="3.42107">
        <ele>29</ele>
        <time>2023-08-06T08:24:09Z</time>
      </trkpt>
      <trkpt lat="50.34053" lon="3.42109">
        <ele>29</ele>
        <time>2023-08-06T08:24:10Z</time>
      </trkpt>
      <trkpt lat="50.34047" lon="3.42111">
        <ele>29</ele>
        <time>2023-08-06T08:24:12Z</time>
      </trkpt>
      <trkpt lat="50.34035" lon="3.42114">
        <ele>28.8</ele>
        <time>2023-08-06T08:24:15Z</time>
      </trkpt>
      <trkpt lat="50.34032" lon="3.42115">
        <ele>28.8</ele>
        <time>2023-08-06T08:24:16Z</time>
      </trkpt>
      <trkpt lat="50.34028" lon="3.42116">
        <ele>28.8</ele>
        <time>2023-08-06T08:24:17Z</time>
      </trkpt>
      <trkpt lat="50.34024" lon="3.42117">
        <ele>28.8</ele>
        <time>2023-08-06T08:24:18Z</time>
      </trkpt>
      <trkpt lat="50.34012" lon="3.4212">
        <ele>28.8</ele>
        <time>2023-08-06T08:24:21Z</time>
      </trkpt>
      <trkpt lat="50.33968" lon="3.42129">
        <ele>29.4</ele>
        <time>2023-08-06T08:24:33Z</time>
      </trkpt>
      <trkpt lat="50.33965" lon="3.4213">
        <ele>29.4</ele>
        <time>2023-08-06T08:24:34Z</time>
      </trkpt>
      <trkpt lat="50.33957" lon="3.42131">
        <ele>30</ele>
        <time>2023-08-06T08:24:36Z</time>
      </trkpt>
      <trkpt lat="50.33951" lon="3.42132">
        <ele>30.4</ele>
        <time>2023-08-06T08:24:38Z</time>
      </trkpt>
      <trkpt lat="50.33948" lon="3.42132">
        <ele>30.4</ele>
        <time>2023-08-06T08:24:39Z</time>
      </trkpt>
      <trkpt lat="50.33944" lon="3.42133">
        <ele>30.4</ele>
        <time>2023-08-06T08:24:40Z</time>
      </trkpt>
      <trkpt lat="50.33917" lon="3.42137">
        <ele>30.6</ele>
        <time>2023-08-06T08:24:47Z</time>
      </trkpt>
      <trkpt lat="50.33874" lon="3.42144">
        <ele>31.2</ele>
        <time>2023-08-06T08:24:58Z</time>
      </trkpt>
      <trkpt lat="50.3387" lon="3.42145">
        <ele>31.2</ele>
        <time>2023-08-06T08:24:59Z</time>
      </trkpt>
      <trkpt lat="50.33833" lon="3.42142">
        <ele>31.6</ele>
        <time>2023-08-06T08:25:08Z</time>
      </trkpt>
      <trkpt lat="50.33786" lon="3.42137">
        <ele>31.6</ele>
        <time>2023-08-06T08:25:19Z</time>
      </trkpt>
      <trkpt lat="50.33748" lon="3.42129">
        <ele>31.6</ele>
        <time>2023-08-06T08:25:28Z</time>
      </trkpt>
      <trkpt lat="50.33739" lon="3.42128">
        <ele>31.8</ele>
        <time>2023-08-06T08:25:30Z</time>
      </trkpt>
      <trkpt lat="50.33707" lon="3.42122">
        <ele>31.8</ele>
        <time>2023-08-06T08:25:37Z</time>
      </trkpt>
      <trkpt lat="50.33672" lon="3.42113">
        <ele>31.8</ele>
        <time>2023-08-06T08:25:45Z</time>
      </trkpt>
      <trkpt lat="50.33658" lon="3.4211">
        <ele>32</ele>
        <time>2023-08-06T08:25:48Z</time>
      </trkpt>
      <trkpt lat="50.3362" lon="3.42102">
        <ele>32.2</ele>
        <time>2023-08-06T08:25:56Z</time>
      </trkpt>
      <trkpt lat="50.33584" lon="3.42096">
        <ele>32</ele>
        <time>2023-08-06T08:26:04Z</time>
      </trkpt>
      <trkpt lat="50.33578" lon="3.42094">
        <ele>31.8</ele>
        <time>2023-08-06T08:26:05Z</time>
      </trkpt>
      <trkpt lat="50.33555" lon="3.42089">
        <ele>31.6</ele>
        <time>2023-08-06T08:26:10Z</time>
      </trkpt>
      <trkpt lat="50.33551" lon="3.42088">
        <ele>31.6</ele>
        <time>2023-08-06T08:26:11Z</time>
      </trkpt>
      <trkpt lat="50.33547" lon="3.42087">
        <ele>31.6</ele>
        <time>2023-08-06T08:26:12Z</time>
      </trkpt>
      <trkpt lat="50.33543" lon="3.42086">
        <ele>31.6</ele>
        <time>2023-08-06T08:26:13Z</time>
      </trkpt>
      <trkpt lat="50.33537" lon="3.42085">
        <ele>31.6</ele>
        <time>2023-08-06T08:26:14Z</time>
      </trkpt>
      <trkpt lat="50.33533" lon="3.42084">
        <ele>31.6</ele>
        <time>2023-08-06T08:26:15Z</time>
      </trkpt>
      <trkpt lat="50.3352" lon="3.4208">
        <ele>31.6</ele>
        <time>2023-08-06T08:26:18Z</time>
      </trkpt>
      <trkpt lat="50.33502" lon="3.42077">
        <ele>31.6</ele>
        <time>2023-08-06T08:26:22Z</time>
      </trkpt>
      <trkpt lat="50.3348" lon="3.42071">
        <ele>31.4</ele>
        <time>2023-08-06T08:26:27Z</time>
      </trkpt>
      <trkpt lat="50.33475" lon="3.4207">
        <ele>31.4</ele>
        <time>2023-08-06T08:26:28Z</time>
      </trkpt>
      <trkpt lat="50.3347" lon="3.4207">
        <ele>31.2</ele>
        <time>2023-08-06T08:26:29Z</time>
      </trkpt>
      <trkpt lat="50.33466" lon="3.42069">
        <ele>31.2</ele>
        <time>2023-08-06T08:26:30Z</time>
      </trkpt>
      <trkpt lat="50.33433" lon="3.42066">
        <ele>31.2</ele>
        <time>2023-08-06T08:26:37Z</time>
      </trkpt>
      <trkpt lat="50.33416" lon="3.42066">
        <ele>31.2</ele>
        <time>2023-08-06T08:26:41Z</time>
      </trkpt>
      <trkpt lat="50.33412" lon="3.42067">
        <ele>31.2</ele>
        <time>2023-08-06T08:26:42Z</time>
      </trkpt>
      <trkpt lat="50.33407" lon="3.42068">
        <ele>31.2</ele>
        <time>2023-08-06T08:26:43Z</time>
      </trkpt>
      <trkpt lat="50.33403" lon="3.42068">
        <ele>31.2</ele>
        <time>2023-08-06T08:26:44Z</time>
      </trkpt>
      <trkpt lat="50.33399" lon="3.42068">
        <ele>31.2</ele>
        <time>2023-08-06T08:26:45Z</time>
      </trkpt>
      <trkpt lat="50.33382" lon="3.42064">
        <ele>31.6</ele>
        <time>2023-08-06T08:26:49Z</time>
      </trkpt>
      <trkpt lat="50.33378" lon="3.42062">
        <ele>31.8</ele>
        <time>2023-08-06T08:26:50Z</time>
      </trkpt>
      <trkpt lat="50.33373" lon="3.42059">
        <ele>31.8</ele>
        <time>2023-08-06T08:26:51Z</time>
      </trkpt>
      <trkpt lat="50.33349" lon="3.4204">
        <ele>32.2</ele>
        <time>2023-08-06T08:26:57Z</time>
      </trkpt>
      <trkpt lat="50.33318" lon="3.42007">
        <ele>32.2</ele>
        <time>2023-08-06T08:27:05Z</time>
      </trkpt>
      <trkpt lat="50.33314" lon="3.42002">
        <ele>32.2</ele>
        <time>2023-08-06T08:27:06Z</time>
      </trkpt>
      <trkpt lat="50.33308" lon="3.41993">
        <ele>32</ele>
        <time>2023-08-06T08:27:08Z</time>
      </trkpt>
      <trkpt lat="50.33304" lon="3.41988">
        <ele>32</ele>
        <time>2023-08-06T08:27:09Z</time>
      </trkpt>
      <trkpt lat="50.33296" lon="3.41978">
        <ele>32</ele>
        <time>2023-08-06T08:27:11Z</time>
      </trkpt>
      <trkpt lat="50.33258" lon="3.41929">
        <ele>31.4</ele>
        <time>2023-08-06T08:27:21Z</time>
      </trkpt>
      <trkpt lat="50.33216" lon="3.41877">
        <ele>30.6</ele>
        <time>2023-08-06T08:27:31Z</time>
      </trkpt>
      <trkpt lat="50.33203" lon="3.41865">
        <ele>30</ele>
        <time>2023-08-06T08:27:34Z</time>
      </trkpt>
      <trkpt lat="50.33199" lon="3.41861">
        <ele>29.8</ele>
        <time>2023-08-06T08:27:35Z</time>
      </trkpt>
      <trkpt lat="50.33196" lon="3.41859">
        <ele>29.8</ele>
        <time>2023-08-06T08:27:36Z</time>
      </trkpt>
      <trkpt lat="50.33192" lon="3.41854">
        <ele>29.8</ele>
        <time>2023-08-06T08:27:37Z</time>
      </trkpt>
      <trkpt lat="50.33188" lon="3.41851">
        <ele>29.6</ele>
        <time>2023-08-06T08:27:38Z</time>
      </trkpt>
      <trkpt lat="50.33185" lon="3.41848">
        <ele>29.6</ele>
        <time>2023-08-06T08:27:39Z</time>
      </trkpt>
      <trkpt lat="50.33181" lon="3.41845">
        <ele>29.6</ele>
        <time>2023-08-06T08:27:40Z</time>
      </trkpt>
      <trkpt lat="50.33175" lon="3.4184">
        <ele>29.6</ele>
        <time>2023-08-06T08:27:42Z</time>
      </trkpt>
      <trkpt lat="50.33172" lon="3.41837">
        <ele>29.6</ele>
        <time>2023-08-06T08:27:43Z</time>
      </trkpt>
      <trkpt lat="50.33169" lon="3.41833">
        <ele>29.6</ele>
        <time>2023-08-06T08:27:44Z</time>
      </trkpt>
      <trkpt lat="50.33166" lon="3.4183">
        <ele>29.4</ele>
        <time>2023-08-06T08:27:45Z</time>
      </trkpt>
      <trkpt lat="50.33142" lon="3.41813">
        <ele>29</ele>
        <time>2023-08-06T08:27:51Z</time>
      </trkpt>
      <trkpt lat="50.33127" lon="3.41806">
        <ele>28.6</ele>
        <time>2023-08-06T08:27:54Z</time>
      </trkpt>
      <trkpt lat="50.33123" lon="3.41804">
        <ele>28.4</ele>
        <time>2023-08-06T08:27:55Z</time>
      </trkpt>
      <trkpt lat="50.33107" lon="3.41796">
        <ele>28</ele>
        <time>2023-08-06T08:27:58Z</time>
      </trkpt>
      <trkpt lat="50.33094" lon="3.41784">
        <ele>27.6</ele>
        <time>2023-08-06T08:28:01Z</time>
      </trkpt>
      <trkpt lat="50.33083" lon="3.41773">
        <ele>27.2</ele>
        <time>2023-08-06T08:28:04Z</time>
      </trkpt>
      <trkpt lat="50.33079" lon="3.41768">
        <ele>27</ele>
        <time>2023-08-06T08:28:05Z</time>
      </trkpt>
      <trkpt lat="50.33076" lon="3.41765">
        <ele>26.8</ele>
        <time>2023-08-06T08:28:06Z</time>
      </trkpt>
      <trkpt lat="50.33074" lon="3.41763">
        <ele>26.8</ele>
        <time>2023-08-06T08:28:07Z</time>
      </trkpt>
      <trkpt lat="50.33071" lon="3.41762">
        <ele>26.6</ele>
        <time>2023-08-06T08:28:08Z</time>
      </trkpt>
      <trkpt lat="50.33069" lon="3.41762">
        <ele>26.6</ele>
        <time>2023-08-06T08:28:09Z</time>
      </trkpt>
      <trkpt lat="50.33066" lon="3.41763">
        <ele>26.6</ele>
        <time>2023-08-06T08:28:10Z</time>
      </trkpt>
      <trkpt lat="50.33062" lon="3.41772">
        <ele>26.4</ele>
        <time>2023-08-06T08:28:12Z</time>
      </trkpt>
      <trkpt lat="50.33058" lon="3.4181">
        <ele>26.2</ele>
        <time>2023-08-06T08:28:18Z</time>
      </trkpt>
      <trkpt lat="50.33055" lon="3.41834">
        <ele>26</ele>
        <time>2023-08-06T08:28:21Z</time>
      </trkpt>
      <trkpt lat="50.33052" lon="3.41858">
        <ele>25.8</ele>
        <time>2023-08-06T08:28:24Z</time>
      </trkpt>
      <trkpt lat="50.33048" lon="3.41889">
        <ele>25.4</ele>
        <time>2023-08-06T08:28:28Z</time>
      </trkpt>
      <trkpt lat="50.33045" lon="3.41916">
        <ele>25.2</ele>
        <time>2023-08-06T08:28:31Z</time>
      </trkpt>
      <trkpt lat="50.33034" lon="3.42006">
        <ele>25</ele>
        <time>2023-08-06T08:28:41Z</time>
      </trkpt>
      <trkpt lat="50.33026" lon="3.42071">
        <ele>24.6</ele>
        <time>2023-08-06T08:28:48Z</time>
      </trkpt>
      <trkpt lat="50.33022" lon="3.42099">
        <ele>24.6</ele>
        <time>2023-08-06T08:28:51Z</time>
      </trkpt>
      <trkpt lat="50.33014" lon="3.42158">
        <ele>24.2</ele>
        <time>2023-08-06T08:28:57Z</time>
      </trkpt>
      <trkpt lat="50.33012" lon="3.42167">
        <ele>24.2</ele>
        <time>2023-08-06T08:28:58Z</time>
      </trkpt>
      <trkpt lat="50.33003" lon="3.42246">
        <ele>23.8</ele>
        <time>2023-08-06T08:29:06Z</time>
      </trkpt>
      <trkpt lat="50.33001" lon="3.42282">
        <ele>23.4</ele>
        <time>2023-08-06T08:29:09Z</time>
      </trkpt>
      <trkpt lat="50.32997" lon="3.42303">
        <ele>23.2</ele>
        <time>2023-08-06T08:29:11Z</time>
      </trkpt>
      <trkpt lat="50.32996" lon="3.42312">
        <ele>23</ele>
        <time>2023-08-06T08:29:12Z</time>
      </trkpt>
      <trkpt lat="50.32993" lon="3.42344">
        <ele>22.4</ele>
        <time>2023-08-06T08:29:15Z</time>
      </trkpt>
      <trkpt lat="50.32992" lon="3.42354">
        <ele>22.2</ele>
        <time>2023-08-06T08:29:16Z</time>
      </trkpt>
      <trkpt lat="50.32991" lon="3.42363">
        <ele>22.2</ele>
        <time>2023-08-06T08:29:17Z</time>
      </trkpt>
      <trkpt lat="50.32989" lon="3.42372">
        <ele>22</ele>
        <time>2023-08-06T08:29:18Z</time>
      </trkpt>
      <trkpt lat="50.32988" lon="3.42379">
        <ele>22</ele>
        <time>2023-08-06T08:29:19Z</time>
      </trkpt>
      <trkpt lat="50.32986" lon="3.42388">
        <ele>22</ele>
        <time>2023-08-06T08:29:20Z</time>
      </trkpt>
      <trkpt lat="50.32984" lon="3.42399">
        <ele>22</ele>
        <time>2023-08-06T08:29:21Z</time>
      </trkpt>
      <trkpt lat="50.32982" lon="3.42407">
        <ele>22</ele>
        <time>2023-08-06T08:29:22Z</time>
      </trkpt>
      <trkpt lat="50.3298" lon="3.42416">
        <ele>22</ele>
        <time>2023-08-06T08:29:23Z</time>
      </trkpt>
      <trkpt lat="50.32979" lon="3.42423">
        <ele>22</ele>
        <time>2023-08-06T08:29:24Z</time>
      </trkpt>
      <trkpt lat="50.32977" lon="3.42432">
        <ele>22</ele>
        <time>2023-08-06T08:29:25Z</time>
      </trkpt>
      <trkpt lat="50.32962" lon="3.42516">
        <ele>22.2</ele>
        <time>2023-08-06T08:29:34Z</time>
      </trkpt>
      <trkpt lat="50.32946" lon="3.42597">
        <ele>22.2</ele>
        <time>2023-08-06T08:29:43Z</time>
      </trkpt>
      <trkpt lat="50.32941" lon="3.42618">
        <ele>22.2</ele>
        <time>2023-08-06T08:29:45Z</time>
      </trkpt>
      <trkpt lat="50.32924" lon="3.42705">
        <ele>22</ele>
        <time>2023-08-06T08:29:54Z</time>
      </trkpt>
      <trkpt lat="50.3291" lon="3.4277">
        <ele>21.8</ele>
        <time>2023-08-06T08:30:01Z</time>
      </trkpt>
      <trkpt lat="50.32894" lon="3.42849">
        <ele>21.6</ele>
        <time>2023-08-06T08:30:09Z</time>
      </trkpt>
      <trkpt lat="50.32892" lon="3.42857">
        <ele>21.6</ele>
        <time>2023-08-06T08:30:10Z</time>
      </trkpt>
      <trkpt lat="50.3289" lon="3.42866">
        <ele>21.6</ele>
        <time>2023-08-06T08:30:11Z</time>
      </trkpt>
      <trkpt lat="50.32888" lon="3.42878">
        <ele>21.6</ele>
        <time>2023-08-06T08:30:12Z</time>
      </trkpt>
      <trkpt lat="50.32886" lon="3.42887">
        <ele>21.6</ele>
        <time>2023-08-06T08:30:13Z</time>
      </trkpt>
      <trkpt lat="50.32884" lon="3.42896">
        <ele>21.6</ele>
        <time>2023-08-06T08:30:14Z</time>
      </trkpt>
      <trkpt lat="50.32879" lon="3.42925">
        <ele>21.6</ele>
        <time>2023-08-06T08:30:17Z</time>
      </trkpt>
      <trkpt lat="50.32862" lon="3.4301">
        <ele>21.6</ele>
        <time>2023-08-06T08:30:26Z</time>
      </trkpt>
      <trkpt lat="50.32858" lon="3.43029">
        <ele>21.8</ele>
        <time>2023-08-06T08:30:28Z</time>
      </trkpt>
      <trkpt lat="50.32835" lon="3.43112">
        <ele>22</ele>
        <time>2023-08-06T08:30:37Z</time>
      </trkpt>
      <trkpt lat="50.3283" lon="3.43128">
        <ele>22</ele>
        <time>2023-08-06T08:30:39Z</time>
      </trkpt>
      <trkpt lat="50.32814" lon="3.43169">
        <ele>22.2</ele>
        <time>2023-08-06T08:30:44Z</time>
      </trkpt>
      <trkpt lat="50.3281" lon="3.4318">
        <ele>22.2</ele>
        <time>2023-08-06T08:30:45Z</time>
      </trkpt>
      <trkpt lat="50.32784" lon="3.43258">
        <ele>22.2</ele>
        <time>2023-08-06T08:30:54Z</time>
      </trkpt>
      <trkpt lat="50.32758" lon="3.43314">
        <ele>22.2</ele>
        <time>2023-08-06T08:31:01Z</time>
      </trkpt>
      <trkpt lat="50.32751" lon="3.4333">
        <ele>22.2</ele>
        <time>2023-08-06T08:31:03Z</time>
      </trkpt>
      <trkpt lat="50.32748" lon="3.43338">
        <ele>22.2</ele>
        <time>2023-08-06T08:31:04Z</time>
      </trkpt>
      <trkpt lat="50.32744" lon="3.43346">
        <ele>22.2</ele>
        <time>2023-08-06T08:31:05Z</time>
      </trkpt>
      <trkpt lat="50.3274" lon="3.43354">
        <ele>22.2</ele>
        <time>2023-08-06T08:31:06Z</time>
      </trkpt>
      <trkpt lat="50.32736" lon="3.43362">
        <ele>22.4</ele>
        <time>2023-08-06T08:31:07Z</time>
      </trkpt>
      <trkpt lat="50.32732" lon="3.43369">
        <ele>22.4</ele>
        <time>2023-08-06T08:31:08Z</time>
      </trkpt>
      <trkpt lat="50.32728" lon="3.43377">
        <ele>22.4</ele>
        <time>2023-08-06T08:31:09Z</time>
      </trkpt>
      <trkpt lat="50.3269" lon="3.4345">
        <ele>22</ele>
        <time>2023-08-06T08:31:18Z</time>
      </trkpt>
      <trkpt lat="50.3267" lon="3.4349">
        <ele>22</ele>
        <time>2023-08-06T08:31:23Z</time>
      </trkpt>
      <trkpt lat="50.32667" lon="3.43497">
        <ele>22</ele>
        <time>2023-08-06T08:31:24Z</time>
      </trkpt>
      <trkpt lat="50.32641" lon="3.43546">
        <ele>22</ele>
        <time>2023-08-06T08:31:30Z</time>
      </trkpt>
      <trkpt lat="50.32603" lon="3.43614">
        <ele>22</ele>
        <time>2023-08-06T08:31:39Z</time>
      </trkpt>
      <trkpt lat="50.32599" lon="3.43621">
        <ele>22</ele>
        <time>2023-08-06T08:31:40Z</time>
      </trkpt>
      <trkpt lat="50.32594" lon="3.43629">
        <ele>22</ele>
        <time>2023-08-06T08:31:41Z</time>
      </trkpt>
      <trkpt lat="50.3259" lon="3.43635">
        <ele>22</ele>
        <time>2023-08-06T08:31:42Z</time>
      </trkpt>
      <trkpt lat="50.32585" lon="3.43642">
        <ele>22.2</ele>
        <time>2023-08-06T08:31:43Z</time>
      </trkpt>
      <trkpt lat="50.32581" lon="3.43649">
        <ele>22.2</ele>
        <time>2023-08-06T08:31:44Z</time>
      </trkpt>
      <trkpt lat="50.32577" lon="3.43656">
        <ele>22.4</ele>
        <time>2023-08-06T08:31:45Z</time>
      </trkpt>
      <trkpt lat="50.32573" lon="3.43662">
        <ele>22.4</ele>
        <time>2023-08-06T08:31:46Z</time>
      </trkpt>
      <trkpt lat="50.32569" lon="3.43668">
        <ele>22.4</ele>
        <time>2023-08-06T08:31:47Z</time>
      </trkpt>
      <trkpt lat="50.32564" lon="3.43675">
        <ele>22.4</ele>
        <time>2023-08-06T08:31:48Z</time>
      </trkpt>
      <trkpt lat="50.3256" lon="3.43681">
        <ele>22.4</ele>
        <time>2023-08-06T08:31:49Z</time>
      </trkpt>
      <trkpt lat="50.32556" lon="3.43686">
        <ele>22.6</ele>
        <time>2023-08-06T08:31:50Z</time>
      </trkpt>
      <trkpt lat="50.32552" lon="3.43691">
        <ele>22.6</ele>
        <time>2023-08-06T08:31:51Z</time>
      </trkpt>
      <trkpt lat="50.32547" lon="3.43695">
        <ele>22.6</ele>
        <time>2023-08-06T08:31:52Z</time>
      </trkpt>
      <trkpt lat="50.32543" lon="3.43699">
        <ele>22.6</ele>
        <time>2023-08-06T08:31:53Z</time>
      </trkpt>
      <trkpt lat="50.32539" lon="3.43702">
        <ele>22.6</ele>
        <time>2023-08-06T08:31:54Z</time>
      </trkpt>
      <trkpt lat="50.32535" lon="3.43705">
        <ele>22.6</ele>
        <time>2023-08-06T08:31:55Z</time>
      </trkpt>
      <trkpt lat="50.32532" lon="3.43706">
        <ele>22.6</ele>
        <time>2023-08-06T08:31:56Z</time>
      </trkpt>
      <trkpt lat="50.32528" lon="3.43706">
        <ele>22.6</ele>
        <time>2023-08-06T08:31:57Z</time>
      </trkpt>
      <trkpt lat="50.32525" lon="3.43704">
        <ele>22.4</ele>
        <time>2023-08-06T08:31:58Z</time>
      </trkpt>
      <trkpt lat="50.32519" lon="3.43694">
        <ele>22.4</ele>
        <time>2023-08-06T08:32:00Z</time>
      </trkpt>
      <trkpt lat="50.32516" lon="3.43688">
        <ele>22.4</ele>
        <time>2023-08-06T08:32:01Z</time>
      </trkpt>
      <trkpt lat="50.32514" lon="3.43683">
        <ele>22.4</ele>
        <time>2023-08-06T08:32:02Z</time>
      </trkpt>
      <trkpt lat="50.32506" lon="3.43675">
        <ele>22.4</ele>
        <time>2023-08-06T08:32:04Z</time>
      </trkpt>
      <trkpt lat="50.32501" lon="3.43674">
        <ele>22.4</ele>
        <time>2023-08-06T08:32:05Z</time>
      </trkpt>
      <trkpt lat="50.32497" lon="3.43674">
        <ele>22.4</ele>
        <time>2023-08-06T08:32:06Z</time>
      </trkpt>
      <trkpt lat="50.3249" lon="3.43683">
        <ele>22.4</ele>
        <time>2023-08-06T08:32:08Z</time>
      </trkpt>
      <trkpt lat="50.32488" lon="3.43689">
        <ele>22.4</ele>
        <time>2023-08-06T08:32:09Z</time>
      </trkpt>
      <trkpt lat="50.32489" lon="3.43697">
        <ele>22.4</ele>
        <time>2023-08-06T08:32:10Z</time>
      </trkpt>
      <trkpt lat="50.32493" lon="3.43712">
        <ele>22.4</ele>
        <time>2023-08-06T08:32:12Z</time>
      </trkpt>
      <trkpt lat="50.32496" lon="3.43718">
        <ele>22.4</ele>
        <time>2023-08-06T08:32:13Z</time>
      </trkpt>
      <trkpt lat="50.32499" lon="3.43725">
        <ele>22.2</ele>
        <time>2023-08-06T08:32:14Z</time>
      </trkpt>
      <trkpt lat="50.32501" lon="3.43741">
        <ele>22</ele>
        <time>2023-08-06T08:32:16Z</time>
      </trkpt>
      <trkpt lat="50.32499" lon="3.43749">
        <ele>22</ele>
        <time>2023-08-06T08:32:17Z</time>
      </trkpt>
      <trkpt lat="50.32496" lon="3.43756">
        <ele>21.8</ele>
        <time>2023-08-06T08:32:18Z</time>
      </trkpt>
      <trkpt lat="50.32496" lon="3.43756">
        <ele>21.8</ele>
        <time>2023-08-06T08:32:19Z</time>
      </trkpt>
      <trkpt lat="50.3249" lon="3.43768">
        <ele>21.8</ele>
        <time>2023-08-06T08:32:20Z</time>
      </trkpt>
      <trkpt lat="50.32486" lon="3.43774">
        <ele>21.8</ele>
        <time>2023-08-06T08:32:21Z</time>
      </trkpt>
      <trkpt lat="50.32466" lon="3.43802">
        <ele>21.4</ele>
        <time>2023-08-06T08:32:26Z</time>
      </trkpt>
      <trkpt lat="50.32463" lon="3.43808">
        <ele>21.4</ele>
        <time>2023-08-06T08:32:27Z</time>
      </trkpt>
      <trkpt lat="50.32447" lon="3.43841">
        <ele>21.4</ele>
        <time>2023-08-06T08:32:32Z</time>
      </trkpt>
      <trkpt lat="50.32436" lon="3.43897">
        <ele>21.2</ele>
        <time>2023-08-06T08:32:39Z</time>
      </trkpt>
      <trkpt lat="50.32431" lon="3.43952">
        <ele>20.8</ele>
        <time>2023-08-06T08:32:45Z</time>
      </trkpt>
      <trkpt lat="50.32429" lon="3.4397">
        <ele>20.8</ele>
        <time>2023-08-06T08:32:47Z</time>
      </trkpt>
      <trkpt lat="50.32419" lon="3.44032">
        <ele>20.8</ele>
        <time>2023-08-06T08:32:54Z</time>
      </trkpt>
      <trkpt lat="50.32402" lon="3.44096">
        <ele>20.6</ele>
        <time>2023-08-06T08:33:01Z</time>
      </trkpt>
      <trkpt lat="50.32392" lon="3.44121">
        <ele>20.4</ele>
        <time>2023-08-06T08:33:04Z</time>
      </trkpt>
      <trkpt lat="50.32377" lon="3.4415">
        <ele>20.6</ele>
        <time>2023-08-06T08:33:08Z</time>
      </trkpt>
      <trkpt lat="50.32362" lon="3.44178">
        <ele>20.6</ele>
        <time>2023-08-06T08:33:12Z</time>
      </trkpt>
      <trkpt lat="50.32357" lon="3.44184">
        <ele>20.6</ele>
        <time>2023-08-06T08:33:13Z</time>
      </trkpt>
      <trkpt lat="50.32316" lon="3.44243">
        <ele>20.4</ele>
        <time>2023-08-06T08:33:22Z</time>
      </trkpt>
      <trkpt lat="50.3228" lon="3.44296">
        <ele>20.4</ele>
        <time>2023-08-06T08:33:30Z</time>
      </trkpt>
      <trkpt lat="50.32264" lon="3.44315">
        <ele>20.6</ele>
        <time>2023-08-06T08:33:33Z</time>
      </trkpt>
      <trkpt lat="50.32246" lon="3.44343">
        <ele>20.4</ele>
        <time>2023-08-06T08:33:37Z</time>
      </trkpt>
      <trkpt lat="50.32242" lon="3.44349">
        <ele>20.4</ele>
        <time>2023-08-06T08:33:38Z</time>
      </trkpt>
      <trkpt lat="50.32238" lon="3.44358">
        <ele>20.2</ele>
        <time>2023-08-06T08:33:39Z</time>
      </trkpt>
      <trkpt lat="50.32234" lon="3.44363">
        <ele>20.2</ele>
        <time>2023-08-06T08:33:40Z</time>
      </trkpt>
      <trkpt lat="50.3223" lon="3.4437">
        <ele>20.2</ele>
        <time>2023-08-06T08:33:41Z</time>
      </trkpt>
      <trkpt lat="50.32226" lon="3.44376">
        <ele>20</ele>
        <time>2023-08-06T08:33:42Z</time>
      </trkpt>
      <trkpt lat="50.32222" lon="3.44383">
        <ele>20</ele>
        <time>2023-08-06T08:33:43Z</time>
      </trkpt>
      <trkpt lat="50.32217" lon="3.4439">
        <ele>20</ele>
        <time>2023-08-06T08:33:44Z</time>
      </trkpt>
      <trkpt lat="50.32213" lon="3.44395">
        <ele>20</ele>
        <time>2023-08-06T08:33:45Z</time>
      </trkpt>
      <trkpt lat="50.32186" lon="3.44432">
        <ele>20</ele>
        <time>2023-08-06T08:33:51Z</time>
      </trkpt>
      <trkpt lat="50.32153" lon="3.44474">
        <ele>20</ele>
        <time>2023-08-06T08:33:58Z</time>
      </trkpt>
      <trkpt lat="50.32123" lon="3.44514">
        <ele>20.4</ele>
        <time>2023-08-06T08:34:05Z</time>
      </trkpt>
      <trkpt lat="50.32119" lon="3.4452">
        <ele>20.4</ele>
        <time>2023-08-06T08:34:06Z</time>
      </trkpt>
      <trkpt lat="50.32114" lon="3.44527">
        <ele>20.4</ele>
        <time>2023-08-06T08:34:07Z</time>
      </trkpt>
      <trkpt lat="50.32111" lon="3.44532">
        <ele>20.4</ele>
        <time>2023-08-06T08:34:08Z</time>
      </trkpt>
      <trkpt lat="50.32107" lon="3.44537">
        <ele>20.4</ele>
        <time>2023-08-06T08:34:09Z</time>
      </trkpt>
      <trkpt lat="50.32102" lon="3.44545">
        <ele>20.4</ele>
        <time>2023-08-06T08:34:10Z</time>
      </trkpt>
      <trkpt lat="50.32098" lon="3.44551">
        <ele>20.6</ele>
        <time>2023-08-06T08:34:11Z</time>
      </trkpt>
      <trkpt lat="50.32095" lon="3.44556">
        <ele>20.6</ele>
        <time>2023-08-06T08:34:12Z</time>
      </trkpt>
      <trkpt lat="50.32092" lon="3.44563">
        <ele>20.6</ele>
        <time>2023-08-06T08:34:13Z</time>
      </trkpt>
      <trkpt lat="50.32088" lon="3.44568">
        <ele>20.6</ele>
        <time>2023-08-06T08:34:14Z</time>
      </trkpt>
      <trkpt lat="50.32084" lon="3.44573">
        <ele>20.6</ele>
        <time>2023-08-06T08:34:15Z</time>
      </trkpt>
      <trkpt lat="50.32079" lon="3.44579">
        <ele>20.6</ele>
        <time>2023-08-06T08:34:16Z</time>
      </trkpt>
      <trkpt lat="50.32075" lon="3.44585">
        <ele>20.6</ele>
        <time>2023-08-06T08:34:17Z</time>
      </trkpt>
      <trkpt lat="50.32072" lon="3.44589">
        <ele>20.8</ele>
        <time>2023-08-06T08:34:18Z</time>
      </trkpt>
      <trkpt lat="50.32068" lon="3.44594">
        <ele>20.8</ele>
        <time>2023-08-06T08:34:19Z</time>
      </trkpt>
      <trkpt lat="50.32064" lon="3.44599">
        <ele>20.8</ele>
        <time>2023-08-06T08:34:20Z</time>
      </trkpt>
      <trkpt lat="50.3206" lon="3.44604">
        <ele>20.8</ele>
        <time>2023-08-06T08:34:21Z</time>
      </trkpt>
      <trkpt lat="50.32057" lon="3.44608">
        <ele>21</ele>
        <time>2023-08-06T08:34:22Z</time>
      </trkpt>
      <trkpt lat="50.32054" lon="3.44613">
        <ele>21</ele>
        <time>2023-08-06T08:34:23Z</time>
      </trkpt>
      <trkpt lat="50.3205" lon="3.44618">
        <ele>21</ele>
        <time>2023-08-06T08:34:24Z</time>
      </trkpt>
      <trkpt lat="50.32047" lon="3.44625">
        <ele>21</ele>
        <time>2023-08-06T08:34:25Z</time>
      </trkpt>
      <trkpt lat="50.32043" lon="3.4463">
        <ele>21</ele>
        <time>2023-08-06T08:34:26Z</time>
      </trkpt>
      <trkpt lat="50.3204" lon="3.44634">
        <ele>21.2</ele>
        <time>2023-08-06T08:34:27Z</time>
      </trkpt>
      <trkpt lat="50.32037" lon="3.4464">
        <ele>21.4</ele>
        <time>2023-08-06T08:34:28Z</time>
      </trkpt>
      <trkpt lat="50.32033" lon="3.44646">
        <ele>21.4</ele>
        <time>2023-08-06T08:34:29Z</time>
      </trkpt>
      <trkpt lat="50.32029" lon="3.44651">
        <ele>21.4</ele>
        <time>2023-08-06T08:34:30Z</time>
      </trkpt>
      <trkpt lat="50.32019" lon="3.44665">
        <ele>21.6</ele>
        <time>2023-08-06T08:34:33Z</time>
      </trkpt>
      <trkpt lat="50.3201" lon="3.44674">
        <ele>21.6</ele>
        <time>2023-08-06T08:34:35Z</time>
      </trkpt>
      <trkpt lat="50.31992" lon="3.44687">
        <ele>21.6</ele>
        <time>2023-08-06T08:34:39Z</time>
      </trkpt>
      <trkpt lat="50.31959" lon="3.44711">
        <ele>21.6</ele>
        <time>2023-08-06T08:34:46Z</time>
      </trkpt>
      <trkpt lat="50.31927" lon="3.44732">
        <ele>21.6</ele>
        <time>2023-08-06T08:34:53Z</time>
      </trkpt>
      <trkpt lat="50.31922" lon="3.44735">
        <ele>21.6</ele>
        <time>2023-08-06T08:34:54Z</time>
      </trkpt>
      <trkpt lat="50.31917" lon="3.44738">
        <ele>21.6</ele>
        <time>2023-08-06T08:34:55Z</time>
      </trkpt>
      <trkpt lat="50.31913" lon="3.44741">
        <ele>21.6</ele>
        <time>2023-08-06T08:34:56Z</time>
      </trkpt>
      <trkpt lat="50.31908" lon="3.44744">
        <ele>21.6</ele>
        <time>2023-08-06T08:34:57Z</time>
      </trkpt>
      <trkpt lat="50.31904" lon="3.44748">
        <ele>21.6</ele>
        <time>2023-08-06T08:34:58Z</time>
      </trkpt>
      <trkpt lat="50.31899" lon="3.44751">
        <ele>21.6</ele>
        <time>2023-08-06T08:34:59Z</time>
      </trkpt>
      <trkpt lat="50.31887" lon="3.44758">
        <ele>21.8</ele>
        <time>2023-08-06T08:35:02Z</time>
      </trkpt>
      <trkpt lat="50.31883" lon="3.44761">
        <ele>21.8</ele>
        <time>2023-08-06T08:35:03Z</time>
      </trkpt>
      <trkpt lat="50.31878" lon="3.44763">
        <ele>21.8</ele>
        <time>2023-08-06T08:35:04Z</time>
      </trkpt>
      <trkpt lat="50.31874" lon="3.44764">
        <ele>21.8</ele>
        <time>2023-08-06T08:35:05Z</time>
      </trkpt>
      <trkpt lat="50.3187" lon="3.44765">
        <ele>22</ele>
        <time>2023-08-06T08:35:06Z</time>
      </trkpt>
      <trkpt lat="50.31866" lon="3.44767">
        <ele>22.2</ele>
        <time>2023-08-06T08:35:07Z</time>
      </trkpt>
      <trkpt lat="50.31861" lon="3.44768">
        <ele>22.2</ele>
        <time>2023-08-06T08:35:08Z</time>
      </trkpt>
      <trkpt lat="50.31857" lon="3.4477">
        <ele>22.4</ele>
        <time>2023-08-06T08:35:09Z</time>
      </trkpt>
      <trkpt lat="50.31832" lon="3.44782">
        <ele>22.6</ele>
        <time>2023-08-06T08:35:14Z</time>
      </trkpt>
      <trkpt lat="50.3179" lon="3.44802">
        <ele>22.6</ele>
        <time>2023-08-06T08:35:22Z</time>
      </trkpt>
      <trkpt lat="50.31775" lon="3.44809">
        <ele>22.6</ele>
        <time>2023-08-06T08:35:25Z</time>
      </trkpt>
      <trkpt lat="50.31771" lon="3.4481">
        <ele>22.6</ele>
        <time>2023-08-06T08:35:26Z</time>
      </trkpt>
      <trkpt lat="50.31767" lon="3.44812">
        <ele>22.4</ele>
        <time>2023-08-06T08:35:27Z</time>
      </trkpt>
      <trkpt lat="50.31763" lon="3.44813">
        <ele>22.4</ele>
        <time>2023-08-06T08:35:28Z</time>
      </trkpt>
      <trkpt lat="50.31759" lon="3.44814">
        <ele>22.4</ele>
        <time>2023-08-06T08:35:29Z</time>
      </trkpt>
      <trkpt lat="50.31757" lon="3.44816">
        <ele>22.4</ele>
        <time>2023-08-06T08:35:30Z</time>
      </trkpt>
      <trkpt lat="50.31755" lon="3.44818">
        <ele>22.4</ele>
        <time>2023-08-06T08:35:31Z</time>
      </trkpt>
      <trkpt lat="50.31753" lon="3.44822">
        <ele>22.6</ele>
        <time>2023-08-06T08:35:32Z</time>
      </trkpt>
      <trkpt lat="50.31752" lon="3.44825">
        <ele>22.6</ele>
        <time>2023-08-06T08:35:33Z</time>
      </trkpt>
      <trkpt lat="50.31752" lon="3.44828">
        <ele>22.8</ele>
        <time>2023-08-06T08:35:34Z</time>
      </trkpt>
      <trkpt lat="50.31752" lon="3.44832">
        <ele>22.8</ele>
        <time>2023-08-06T08:35:35Z</time>
      </trkpt>
      <trkpt lat="50.31752" lon="3.44836">
        <ele>23</ele>
        <time>2023-08-06T08:35:36Z</time>
      </trkpt>
      <trkpt lat="50.31753" lon="3.4484">
        <ele>23</ele>
        <time>2023-08-06T08:35:37Z</time>
      </trkpt>
      <trkpt lat="50.31754" lon="3.44846">
        <ele>23</ele>
        <time>2023-08-06T08:35:39Z</time>
      </trkpt>
      <trkpt lat="50.31757" lon="3.44856">
        <ele>23.2</ele>
        <time>2023-08-06T08:35:42Z</time>
      </trkpt>
      <trkpt lat="50.31757" lon="3.44859">
        <ele>23.4</ele>
        <time>2023-08-06T08:35:43Z</time>
      </trkpt>
      <trkpt lat="50.31758" lon="3.44863">
        <ele>23.4</ele>
        <time>2023-08-06T08:35:44Z</time>
      </trkpt>
      <trkpt lat="50.31761" lon="3.44877">
        <ele>24</ele>
        <time>2023-08-06T08:35:48Z</time>
      </trkpt>
      <trkpt lat="50.31764" lon="3.44887">
        <ele>24.4</ele>
        <time>2023-08-06T08:35:51Z</time>
      </trkpt>
      <trkpt lat="50.3177" lon="3.44909">
        <ele>25.2</ele>
        <time>2023-08-06T08:35:57Z</time>
      </trkpt>
      <trkpt lat="50.31772" lon="3.44916">
        <ele>25.6</ele>
        <time>2023-08-06T08:35:59Z</time>
      </trkpt>
      <trkpt lat="50.31773" lon="3.44919">
        <ele>25.6</ele>
        <time>2023-08-06T08:36:00Z</time>
      </trkpt>
      <trkpt lat="50.31775" lon="3.44923">
        <ele>25.8</ele>
        <time>2023-08-06T08:36:01Z</time>
      </trkpt>
      <trkpt lat="50.31775" lon="3.44926">
        <ele>26.2</ele>
        <time>2023-08-06T08:36:02Z</time>
      </trkpt>
      <trkpt lat="50.31776" lon="3.4493">
        <ele>26.2</ele>
        <time>2023-08-06T08:36:03Z</time>
      </trkpt>
      <trkpt lat="50.31777" lon="3.44934">
        <ele>26.4</ele>
        <time>2023-08-06T08:36:04Z</time>
      </trkpt>
      <trkpt lat="50.31778" lon="3.44938">
        <ele>26.4</ele>
        <time>2023-08-06T08:36:05Z</time>
      </trkpt>
      <trkpt lat="50.31779" lon="3.44941">
        <ele>26.6</ele>
        <time>2023-08-06T08:36:06Z</time>
      </trkpt>
      <trkpt lat="50.3178" lon="3.44944">
        <ele>26.8</ele>
        <time>2023-08-06T08:36:07Z</time>
      </trkpt>
      <trkpt lat="50.3178" lon="3.44948">
        <ele>26.8</ele>
        <time>2023-08-06T08:36:08Z</time>
      </trkpt>
      <trkpt lat="50.31782" lon="3.44953">
        <ele>27</ele>
        <time>2023-08-06T08:36:09Z</time>
      </trkpt>
      <trkpt lat="50.31782" lon="3.44957">
        <ele>27</ele>
        <time>2023-08-06T08:36:10Z</time>
      </trkpt>
      <trkpt lat="50.31783" lon="3.44961">
        <ele>27.2</ele>
        <time>2023-08-06T08:36:11Z</time>
      </trkpt>
      <trkpt lat="50.31784" lon="3.44964">
        <ele>27.2</ele>
        <time>2023-08-06T08:36:12Z</time>
      </trkpt>
      <trkpt lat="50.31785" lon="3.44968">
        <ele>27.2</ele>
        <time>2023-08-06T08:36:13Z</time>
      </trkpt>
      <trkpt lat="50.31785" lon="3.44972">
        <ele>27.2</ele>
        <time>2023-08-06T08:36:14Z</time>
      </trkpt>
      <trkpt lat="50.31784" lon="3.44975">
        <ele>27.4</ele>
        <time>2023-08-06T08:36:15Z</time>
      </trkpt>
      <trkpt lat="50.31784" lon="3.44977">
        <ele>27.4</ele>
        <time>2023-08-06T08:36:16Z</time>
      </trkpt>
      <trkpt lat="50.31782" lon="3.4498">
        <ele>27.4</ele>
        <time>2023-08-06T08:36:17Z</time>
      </trkpt>
      <trkpt lat="50.31781" lon="3.44984">
        <ele>27.6</ele>
        <time>2023-08-06T08:36:18Z</time>
      </trkpt>
      <trkpt lat="50.3178" lon="3.44988">
        <ele>27.6</ele>
        <time>2023-08-06T08:36:19Z</time>
      </trkpt>
      <trkpt lat="50.3178" lon="3.44992">
        <ele>27.6</ele>
        <time>2023-08-06T08:36:20Z</time>
      </trkpt>
      <trkpt lat="50.3178" lon="3.44996">
        <ele>27.6</ele>
        <time>2023-08-06T08:36:21Z</time>
      </trkpt>
      <trkpt lat="50.31779" lon="3.45">
        <ele>27.6</ele>
        <time>2023-08-06T08:36:22Z</time>
      </trkpt>
      <trkpt lat="50.31779" lon="3.45004">
        <ele>27.6</ele>
        <time>2023-08-06T08:36:23Z</time>
      </trkpt>
      <trkpt lat="50.31779" lon="3.45007">
        <ele>27.8</ele>
        <time>2023-08-06T08:36:24Z</time>
      </trkpt>
      <trkpt lat="50.31779" lon="3.45022">
        <ele>27.8</ele>
        <time>2023-08-06T08:36:28Z</time>
      </trkpt>
      <trkpt lat="50.31779" lon="3.45026">
        <ele>28</ele>
        <time>2023-08-06T08:36:29Z</time>
      </trkpt>
      <trkpt lat="50.3178" lon="3.45029">
        <ele>28</ele>
        <time>2023-08-06T08:36:30Z</time>
      </trkpt>
      <trkpt lat="50.3178" lon="3.45033">
        <ele>28</ele>
        <time>2023-08-06T08:36:31Z</time>
      </trkpt>
      <trkpt lat="50.31783" lon="3.45038">
        <ele>28</ele>
        <time>2023-08-06T08:36:33Z</time>
      </trkpt>
      <trkpt lat="50.31785" lon="3.45041">
        <ele>28.2</ele>
        <time>2023-08-06T08:36:34Z</time>
      </trkpt>
      <trkpt lat="50.31786" lon="3.45043">
        <ele>28.2</ele>
        <time>2023-08-06T08:36:35Z</time>
      </trkpt>
      <trkpt lat="50.31787" lon="3.45045">
        <ele>28.2</ele>
        <time>2023-08-06T08:36:36Z</time>
      </trkpt>
      <trkpt lat="50.31788" lon="3.45046">
        <ele>28.2</ele>
        <time>2023-08-06T08:36:37Z</time>
      </trkpt>
      <trkpt lat="50.3179" lon="3.45048">
        <ele>28.2</ele>
        <time>2023-08-06T08:36:38Z</time>
      </trkpt>
      <trkpt lat="50.31792" lon="3.45049">
        <ele>28.2</ele>
        <time>2023-08-06T08:36:40Z</time>
      </trkpt>
      <trkpt lat="50.31793" lon="3.45049">
        <ele>28.2</ele>
        <time>2023-08-06T08:36:41Z</time>
      </trkpt>
      <trkpt lat="50.31793" lon="3.45048">
        <ele>28.2</ele>
        <time>2023-08-06T08:36:42Z</time>
      </trkpt>
      <trkpt lat="50.31793" lon="3.45048">
        <ele>28.2</ele>
        <time>2023-08-06T08:36:43Z</time>
      </trkpt>
      <trkpt lat="50.31793" lon="3.45048">
        <ele>28.2</ele>
        <time>2023-08-06T08:36:44Z</time>
      </trkpt>
      <trkpt lat="50.31793" lon="3.45048">
        <ele>28.2</ele>
        <time>2023-08-06T08:36:45Z</time>
      </trkpt>
      <trkpt lat="50.31793" lon="3.45046">
        <ele>28.4</ele>
        <time>2023-08-06T08:36:49Z</time>
      </trkpt>
      <trkpt lat="50.31792" lon="3.45046">
        <ele>22.4</ele>
        <time>2023-08-06T08:51:07Z</time>
      </trkpt>
      <trkpt lat="50.31789" lon="3.45046">
        <ele>28.2</ele>
        <time>2023-08-06T08:51:08Z</time>
      </trkpt>
      <trkpt lat="50.31783" lon="3.45047">
        <ele>28.2</ele>
        <time>2023-08-06T08:51:10Z</time>
      </trkpt>
      <trkpt lat="50.31768" lon="3.4505">
        <ele>28</ele>
        <time>2023-08-06T08:51:14Z</time>
      </trkpt>
      <trkpt lat="50.31766" lon="3.45051">
        <ele>28</ele>
        <time>2023-08-06T08:51:15Z</time>
      </trkpt>
      <trkpt lat="50.31764" lon="3.45053">
        <ele>28</ele>
        <time>2023-08-06T08:51:16Z</time>
      </trkpt>
      <trkpt lat="50.31762" lon="3.45055">
        <ele>28</ele>
        <time>2023-08-06T08:51:17Z</time>
      </trkpt>
      <trkpt lat="50.31759" lon="3.45059">
        <ele>28</ele>
        <time>2023-08-06T08:51:18Z</time>
      </trkpt>
      <trkpt lat="50.31758" lon="3.45062">
        <ele>28</ele>
        <time>2023-08-06T08:51:19Z</time>
      </trkpt>
      <trkpt lat="50.31757" lon="3.45066">
        <ele>27.6</ele>
        <time>2023-08-06T08:51:20Z</time>
      </trkpt>
      <trkpt lat="50.31757" lon="3.45072">
        <ele>27.6</ele>
        <time>2023-08-06T08:51:21Z</time>
      </trkpt>
      <trkpt lat="50.31758" lon="3.45078">
        <ele>27.4</ele>
        <time>2023-08-06T08:51:22Z</time>
      </trkpt>
      <trkpt lat="50.31758" lon="3.45084">
        <ele>27.2</ele>
        <time>2023-08-06T08:51:23Z</time>
      </trkpt>
      <trkpt lat="50.31758" lon="3.45089">
        <ele>27.2</ele>
        <time>2023-08-06T08:51:24Z</time>
      </trkpt>
      <trkpt lat="50.3176" lon="3.45094">
        <ele>27</ele>
        <time>2023-08-06T08:51:25Z</time>
      </trkpt>
      <trkpt lat="50.31762" lon="3.45105">
        <ele>26.6</ele>
        <time>2023-08-06T08:51:27Z</time>
      </trkpt>
      <trkpt lat="50.31768" lon="3.45146">
        <ele>26.2</ele>
        <time>2023-08-06T08:51:33Z</time>
      </trkpt>
      <trkpt lat="50.3177" lon="3.45152">
        <ele>26</ele>
        <time>2023-08-06T08:51:34Z</time>
      </trkpt>
      <trkpt lat="50.31771" lon="3.45159">
        <ele>26</ele>
        <time>2023-08-06T08:51:35Z</time>
      </trkpt>
      <trkpt lat="50.31773" lon="3.45174">
        <ele>25.8</ele>
        <time>2023-08-06T08:51:37Z</time>
      </trkpt>
      <trkpt lat="50.31773" lon="3.45181">
        <ele>25.6</ele>
        <time>2023-08-06T08:51:38Z</time>
      </trkpt>
      <trkpt lat="50.31773" lon="3.45188">
        <ele>25.6</ele>
        <time>2023-08-06T08:51:39Z</time>
      </trkpt>
      <trkpt lat="50.31772" lon="3.45202">
        <ele>25.4</ele>
        <time>2023-08-06T08:51:41Z</time>
      </trkpt>
      <trkpt lat="50.3177" lon="3.45209">
        <ele>25.4</ele>
        <time>2023-08-06T08:51:42Z</time>
      </trkpt>
      <trkpt lat="50.31767" lon="3.45216">
        <ele>25.2</ele>
        <time>2023-08-06T08:51:43Z</time>
      </trkpt>
      <trkpt lat="50.31763" lon="3.45223">
        <ele>25.2</ele>
        <time>2023-08-06T08:51:44Z</time>
      </trkpt>
      <trkpt lat="50.31759" lon="3.45229">
        <ele>25</ele>
        <time>2023-08-06T08:51:45Z</time>
      </trkpt>
      <trkpt lat="50.31754" lon="3.45235">
        <ele>25</ele>
        <time>2023-08-06T08:51:46Z</time>
      </trkpt>
      <trkpt lat="50.3175" lon="3.4524">
        <ele>24.6</ele>
        <time>2023-08-06T08:51:47Z</time>
      </trkpt>
      <trkpt lat="50.31732" lon="3.45263">
        <ele>24.2</ele>
        <time>2023-08-06T08:51:51Z</time>
      </trkpt>
      <trkpt lat="50.31723" lon="3.45274">
        <ele>24</ele>
        <time>2023-08-06T08:51:53Z</time>
      </trkpt>
      <trkpt lat="50.31709" lon="3.45291">
        <ele>23.6</ele>
        <time>2023-08-06T08:51:56Z</time>
      </trkpt>
      <trkpt lat="50.31685" lon="3.45319">
        <ele>23</ele>
        <time>2023-08-06T08:52:01Z</time>
      </trkpt>
      <trkpt lat="50.31663" lon="3.45348">
        <ele>22.4</ele>
        <time>2023-08-06T08:52:06Z</time>
      </trkpt>
      <trkpt lat="50.31651" lon="3.45364">
        <ele>22.4</ele>
        <time>2023-08-06T08:52:09Z</time>
      </trkpt>
      <trkpt lat="50.31647" lon="3.4537">
        <ele>22.4</ele>
        <time>2023-08-06T08:52:10Z</time>
      </trkpt>
      <trkpt lat="50.31643" lon="3.45376">
        <ele>22.2</ele>
        <time>2023-08-06T08:52:11Z</time>
      </trkpt>
      <trkpt lat="50.31639" lon="3.45381">
        <ele>22.2</ele>
        <time>2023-08-06T08:52:12Z</time>
      </trkpt>
      <trkpt lat="50.31635" lon="3.45387">
        <ele>22.2</ele>
        <time>2023-08-06T08:52:13Z</time>
      </trkpt>
      <trkpt lat="50.31631" lon="3.45392">
        <ele>22.2</ele>
        <time>2023-08-06T08:52:14Z</time>
      </trkpt>
      <trkpt lat="50.31627" lon="3.45397">
        <ele>22.2</ele>
        <time>2023-08-06T08:52:15Z</time>
      </trkpt>
      <trkpt lat="50.31624" lon="3.45402">
        <ele>22.2</ele>
        <time>2023-08-06T08:52:16Z</time>
      </trkpt>
      <trkpt lat="50.3162" lon="3.45407">
        <ele>22.2</ele>
        <time>2023-08-06T08:52:17Z</time>
      </trkpt>
      <trkpt lat="50.31616" lon="3.45412">
        <ele>22.2</ele>
        <time>2023-08-06T08:52:18Z</time>
      </trkpt>
      <trkpt lat="50.31612" lon="3.45417">
        <ele>22.2</ele>
        <time>2023-08-06T08:52:19Z</time>
      </trkpt>
      <trkpt lat="50.31608" lon="3.45422">
        <ele>22.2</ele>
        <time>2023-08-06T08:52:20Z</time>
      </trkpt>
      <trkpt lat="50.31604" lon="3.45427">
        <ele>22</ele>
        <time>2023-08-06T08:52:21Z</time>
      </trkpt>
      <trkpt lat="50.31597" lon="3.45437">
        <ele>22</ele>
        <time>2023-08-06T08:52:23Z</time>
      </trkpt>
      <trkpt lat="50.31593" lon="3.45441">
        <ele>22</ele>
        <time>2023-08-06T08:52:24Z</time>
      </trkpt>
      <trkpt lat="50.31589" lon="3.45445">
        <ele>22</ele>
        <time>2023-08-06T08:52:25Z</time>
      </trkpt>
      <trkpt lat="50.31585" lon="3.45449">
        <ele>21.8</ele>
        <time>2023-08-06T08:52:26Z</time>
      </trkpt>
      <trkpt lat="50.31581" lon="3.45454">
        <ele>21.8</ele>
        <time>2023-08-06T08:52:27Z</time>
      </trkpt>
      <trkpt lat="50.31577" lon="3.45458">
        <ele>21.8</ele>
        <time>2023-08-06T08:52:28Z</time>
      </trkpt>
      <trkpt lat="50.31573" lon="3.45462">
        <ele>21.8</ele>
        <time>2023-08-06T08:52:29Z</time>
      </trkpt>
      <trkpt lat="50.3157" lon="3.45466">
        <ele>21.8</ele>
        <time>2023-08-06T08:52:30Z</time>
      </trkpt>
      <trkpt lat="50.31566" lon="3.45471">
        <ele>21.8</ele>
        <time>2023-08-06T08:52:31Z</time>
      </trkpt>
      <trkpt lat="50.31563" lon="3.45475">
        <ele>21.8</ele>
        <time>2023-08-06T08:52:32Z</time>
      </trkpt>
      <trkpt lat="50.31559" lon="3.45479">
        <ele>21.8</ele>
        <time>2023-08-06T08:52:33Z</time>
      </trkpt>
      <trkpt lat="50.31556" lon="3.45483">
        <ele>21.8</ele>
        <time>2023-08-06T08:52:34Z</time>
      </trkpt>
      <trkpt lat="50.31552" lon="3.45487">
        <ele>21.6</ele>
        <time>2023-08-06T08:52:35Z</time>
      </trkpt>
      <trkpt lat="50.31549" lon="3.4549">
        <ele>21.6</ele>
        <time>2023-08-06T08:52:36Z</time>
      </trkpt>
      <trkpt lat="50.31546" lon="3.45493">
        <ele>21.6</ele>
        <time>2023-08-06T08:52:37Z</time>
      </trkpt>
      <trkpt lat="50.31542" lon="3.45497">
        <ele>21.6</ele>
        <time>2023-08-06T08:52:38Z</time>
      </trkpt>
      <trkpt lat="50.31539" lon="3.455">
        <ele>21.8</ele>
        <time>2023-08-06T08:52:39Z</time>
      </trkpt>
      <trkpt lat="50.31536" lon="3.45503">
        <ele>22</ele>
        <time>2023-08-06T08:52:40Z</time>
      </trkpt>
      <trkpt lat="50.31533" lon="3.45506">
        <ele>22</ele>
        <time>2023-08-06T08:52:41Z</time>
      </trkpt>
      <trkpt lat="50.3153" lon="3.45508">
        <ele>22</ele>
        <time>2023-08-06T08:52:42Z</time>
      </trkpt>
      <trkpt lat="50.31528" lon="3.45511">
        <ele>22</ele>
        <time>2023-08-06T08:52:43Z</time>
      </trkpt>
      <trkpt lat="50.31526" lon="3.45513">
        <ele>22.2</ele>
        <time>2023-08-06T08:52:44Z</time>
      </trkpt>
      <trkpt lat="50.3152" lon="3.45518">
        <ele>22.4</ele>
        <time>2023-08-06T08:52:46Z</time>
      </trkpt>
      <trkpt lat="50.31518" lon="3.4552">
        <ele>22.6</ele>
        <time>2023-08-06T08:52:47Z</time>
      </trkpt>
      <trkpt lat="50.31515" lon="3.45521">
        <ele>22.6</ele>
        <time>2023-08-06T08:52:48Z</time>
      </trkpt>
      <trkpt lat="50.31513" lon="3.45523">
        <ele>23</ele>
        <time>2023-08-06T08:52:49Z</time>
      </trkpt>
      <trkpt lat="50.3151" lon="3.45524">
        <ele>23.2</ele>
        <time>2023-08-06T08:52:50Z</time>
      </trkpt>
      <trkpt lat="50.31508" lon="3.45526">
        <ele>23.6</ele>
        <time>2023-08-06T08:52:51Z</time>
      </trkpt>
      <trkpt lat="50.31504" lon="3.45528">
        <ele>23.8</ele>
        <time>2023-08-06T08:52:52Z</time>
      </trkpt>
      <trkpt lat="50.31498" lon="3.4553">
        <ele>24</ele>
        <time>2023-08-06T08:52:54Z</time>
      </trkpt>
      <trkpt lat="50.31494" lon="3.45528">
        <ele>24</ele>
        <time>2023-08-06T08:52:55Z</time>
      </trkpt>
      <trkpt lat="50.31491" lon="3.45524">
        <ele>24</ele>
        <time>2023-08-06T08:52:56Z</time>
      </trkpt>
      <trkpt lat="50.3149" lon="3.4552">
        <ele>24</ele>
        <time>2023-08-06T08:52:57Z</time>
      </trkpt>
      <trkpt lat="50.31487" lon="3.4551">
        <ele>24</ele>
        <time>2023-08-06T08:52:59Z</time>
      </trkpt>
      <trkpt lat="50.31486" lon="3.45504">
        <ele>24</ele>
        <time>2023-08-06T08:53:00Z</time>
      </trkpt>
      <trkpt lat="50.31477" lon="3.45473">
        <ele>23.6</ele>
        <time>2023-08-06T08:53:05Z</time>
      </trkpt>
      <trkpt lat="50.31468" lon="3.45442">
        <ele>22.6</ele>
        <time>2023-08-06T08:53:10Z</time>
      </trkpt>
      <trkpt lat="50.31459" lon="3.45417">
        <ele>22.2</ele>
        <time>2023-08-06T08:53:14Z</time>
      </trkpt>
      <trkpt lat="50.31457" lon="3.45412">
        <ele>22</ele>
        <time>2023-08-06T08:53:15Z</time>
      </trkpt>
      <trkpt lat="50.31455" lon="3.45406">
        <ele>21.8</ele>
        <time>2023-08-06T08:53:16Z</time>
      </trkpt>
      <trkpt lat="50.31451" lon="3.45395">
        <ele>21.6</ele>
        <time>2023-08-06T08:53:18Z</time>
      </trkpt>
      <trkpt lat="50.31449" lon="3.45389">
        <ele>21.6</ele>
        <time>2023-08-06T08:53:19Z</time>
      </trkpt>
      <trkpt lat="50.31442" lon="3.45366">
        <ele>21.4</ele>
        <time>2023-08-06T08:53:23Z</time>
      </trkpt>
      <trkpt lat="50.3144" lon="3.45361">
        <ele>21.4</ele>
        <time>2023-08-06T08:53:24Z</time>
      </trkpt>
      <trkpt lat="50.31438" lon="3.45356">
        <ele>21.4</ele>
        <time>2023-08-06T08:53:25Z</time>
      </trkpt>
      <trkpt lat="50.31436" lon="3.45351">
        <ele>21.2</ele>
        <time>2023-08-06T08:53:26Z</time>
      </trkpt>
      <trkpt lat="50.31435" lon="3.45347">
        <ele>21.2</ele>
        <time>2023-08-06T08:53:27Z</time>
      </trkpt>
      <trkpt lat="50.31433" lon="3.45342">
        <ele>21.2</ele>
        <time>2023-08-06T08:53:28Z</time>
      </trkpt>
      <trkpt lat="50.31429" lon="3.45333">
        <ele>21</ele>
        <time>2023-08-06T08:53:30Z</time>
      </trkpt>
      <trkpt lat="50.31428" lon="3.45329">
        <ele>21</ele>
        <time>2023-08-06T08:53:31Z</time>
      </trkpt>
      <trkpt lat="50.31427" lon="3.45325">
        <ele>21</ele>
        <time>2023-08-06T08:53:32Z</time>
      </trkpt>
      <trkpt lat="50.31425" lon="3.4532">
        <ele>21</ele>
        <time>2023-08-06T08:53:33Z</time>
      </trkpt>
      <trkpt lat="50.31424" lon="3.45316">
        <ele>21</ele>
        <time>2023-08-06T08:53:34Z</time>
      </trkpt>
      <trkpt lat="50.31423" lon="3.45312">
        <ele>21</ele>
        <time>2023-08-06T08:53:35Z</time>
      </trkpt>
      <trkpt lat="50.31421" lon="3.45308">
        <ele>21</ele>
        <time>2023-08-06T08:53:36Z</time>
      </trkpt>
      <trkpt lat="50.3142" lon="3.45304">
        <ele>21.2</ele>
        <time>2023-08-06T08:53:37Z</time>
      </trkpt>
      <trkpt lat="50.31418" lon="3.453">
        <ele>21.2</ele>
        <time>2023-08-06T08:53:38Z</time>
      </trkpt>
      <trkpt lat="50.31415" lon="3.45292">
        <ele>21.4</ele>
        <time>2023-08-06T08:53:40Z</time>
      </trkpt>
      <trkpt lat="50.31413" lon="3.45288">
        <ele>21.6</ele>
        <time>2023-08-06T08:53:41Z</time>
      </trkpt>
      <trkpt lat="50.31412" lon="3.45284">
        <ele>22</ele>
        <time>2023-08-06T08:53:42Z</time>
      </trkpt>
      <trkpt lat="50.31411" lon="3.4528">
        <ele>22</ele>
        <time>2023-08-06T08:53:43Z</time>
      </trkpt>
      <trkpt lat="50.31409" lon="3.45276">
        <ele>22.2</ele>
        <time>2023-08-06T08:53:44Z</time>
      </trkpt>
      <trkpt lat="50.314" lon="3.45258">
        <ele>22.6</ele>
        <time>2023-08-06T08:53:49Z</time>
      </trkpt>
      <trkpt lat="50.31395" lon="3.45251">
        <ele>22.6</ele>
        <time>2023-08-06T08:53:51Z</time>
      </trkpt>
      <trkpt lat="50.31379" lon="3.45236">
        <ele>23</ele>
        <time>2023-08-06T08:53:57Z</time>
      </trkpt>
      <trkpt lat="50.31356" lon="3.45219">
        <ele>23.8</ele>
        <time>2023-08-06T08:54:05Z</time>
      </trkpt>
      <trkpt lat="50.3135" lon="3.45215">
        <ele>24</ele>
        <time>2023-08-06T08:54:07Z</time>
      </trkpt>
      <trkpt lat="50.31348" lon="3.45213">
        <ele>24</ele>
        <time>2023-08-06T08:54:08Z</time>
      </trkpt>
      <trkpt lat="50.31345" lon="3.45211">
        <ele>24.2</ele>
        <time>2023-08-06T08:54:09Z</time>
      </trkpt>
      <trkpt lat="50.31331" lon="3.45201">
        <ele>24.4</ele>
        <time>2023-08-06T08:54:14Z</time>
      </trkpt>
      <trkpt lat="50.31328" lon="3.452">
        <ele>24.6</ele>
        <time>2023-08-06T08:54:15Z</time>
      </trkpt>
      <trkpt lat="50.31325" lon="3.45198">
        <ele>24.8</ele>
        <time>2023-08-06T08:54:16Z</time>
      </trkpt>
      <trkpt lat="50.31316" lon="3.45193">
        <ele>25</ele>
        <time>2023-08-06T08:54:19Z</time>
      </trkpt>
      <trkpt lat="50.31294" lon="3.45179">
        <ele>25.6</ele>
        <time>2023-08-06T08:54:27Z</time>
      </trkpt>
      <trkpt lat="50.31292" lon="3.45177">
        <ele>25.8</ele>
        <time>2023-08-06T08:54:28Z</time>
      </trkpt>
      <trkpt lat="50.31286" lon="3.45173">
        <ele>26</ele>
        <time>2023-08-06T08:54:30Z</time>
      </trkpt>
      <trkpt lat="50.31266" lon="3.45153">
        <ele>26</ele>
        <time>2023-08-06T08:54:36Z</time>
      </trkpt>
      <trkpt lat="50.31246" lon="3.45119">
        <ele>25.8</ele>
        <time>2023-08-06T08:54:42Z</time>
      </trkpt>
      <trkpt lat="50.31235" lon="3.45099">
        <ele>25.2</ele>
        <time>2023-08-06T08:54:45Z</time>
      </trkpt>
      <trkpt lat="50.31224" lon="3.45077">
        <ele>24.8</ele>
        <time>2023-08-06T08:54:48Z</time>
      </trkpt>
      <trkpt lat="50.3122" lon="3.4507">
        <ele>24.4</ele>
        <time>2023-08-06T08:54:49Z</time>
      </trkpt>
      <trkpt lat="50.31208" lon="3.45046">
        <ele>23.4</ele>
        <time>2023-08-06T08:54:52Z</time>
      </trkpt>
      <trkpt lat="50.31205" lon="3.45039">
        <ele>23</ele>
        <time>2023-08-06T08:54:53Z</time>
      </trkpt>
      <trkpt lat="50.31201" lon="3.45031">
        <ele>22.8</ele>
        <time>2023-08-06T08:54:54Z</time>
      </trkpt>
      <trkpt lat="50.31193" lon="3.45017">
        <ele>22.2</ele>
        <time>2023-08-06T08:54:56Z</time>
      </trkpt>
      <trkpt lat="50.31187" lon="3.45004">
        <ele>21.8</ele>
        <time>2023-08-06T08:54:58Z</time>
      </trkpt>
      <trkpt lat="50.31183" lon="3.44998">
        <ele>21.6</ele>
        <time>2023-08-06T08:54:59Z</time>
      </trkpt>
      <trkpt lat="50.3118" lon="3.44992">
        <ele>21.6</ele>
        <time>2023-08-06T08:55:00Z</time>
      </trkpt>
      <trkpt lat="50.31177" lon="3.44986">
        <ele>21.4</ele>
        <time>2023-08-06T08:55:01Z</time>
      </trkpt>
      <trkpt lat="50.31173" lon="3.44981">
        <ele>21.2</ele>
        <time>2023-08-06T08:55:02Z</time>
      </trkpt>
      <trkpt lat="50.31171" lon="3.44976">
        <ele>21.2</ele>
        <time>2023-08-06T08:55:03Z</time>
      </trkpt>
      <trkpt lat="50.31168" lon="3.44971">
        <ele>21</ele>
        <time>2023-08-06T08:55:04Z</time>
      </trkpt>
      <trkpt lat="50.31165" lon="3.44966">
        <ele>21</ele>
        <time>2023-08-06T08:55:05Z</time>
      </trkpt>
      <trkpt lat="50.31162" lon="3.44961">
        <ele>21</ele>
        <time>2023-08-06T08:55:06Z</time>
      </trkpt>
      <trkpt lat="50.3116" lon="3.44957">
        <ele>21</ele>
        <time>2023-08-06T08:55:07Z</time>
      </trkpt>
      <trkpt lat="50.31157" lon="3.44951">
        <ele>21</ele>
        <time>2023-08-06T08:55:08Z</time>
      </trkpt>
      <trkpt lat="50.31155" lon="3.44947">
        <ele>21</ele>
        <time>2023-08-06T08:55:09Z</time>
      </trkpt>
      <trkpt lat="50.31137" lon="3.44913">
        <ele>20.8</ele>
        <time>2023-08-06T08:55:16Z</time>
      </trkpt>
      <trkpt lat="50.31112" lon="3.44868">
        <ele>20.4</ele>
        <time>2023-08-06T08:55:25Z</time>
      </trkpt>
      <trkpt lat="50.31097" lon="3.44854">
        <ele>20.2</ele>
        <time>2023-08-06T08:55:29Z</time>
      </trkpt>
      <trkpt lat="50.31089" lon="3.44849">
        <ele>20</ele>
        <time>2023-08-06T08:55:31Z</time>
      </trkpt>
      <trkpt lat="50.31055" lon="3.44836">
        <ele>19.6</ele>
        <time>2023-08-06T08:55:39Z</time>
      </trkpt>
      <trkpt lat="50.31019" lon="3.44825">
        <ele>19.4</ele>
        <time>2023-08-06T08:55:47Z</time>
      </trkpt>
      <trkpt lat="50.31014" lon="3.44823">
        <ele>19.4</ele>
        <time>2023-08-06T08:55:48Z</time>
      </trkpt>
      <trkpt lat="50.31011" lon="3.44822">
        <ele>19.4</ele>
        <time>2023-08-06T08:55:49Z</time>
      </trkpt>
      <trkpt lat="50.30979" lon="3.4481">
        <ele>19.4</ele>
        <time>2023-08-06T08:55:56Z</time>
      </trkpt>
      <trkpt lat="50.30975" lon="3.44809">
        <ele>19.4</ele>
        <time>2023-08-06T08:55:57Z</time>
      </trkpt>
      <trkpt lat="50.30971" lon="3.44808">
        <ele>19.4</ele>
        <time>2023-08-06T08:55:58Z</time>
      </trkpt>
      <trkpt lat="50.3095" lon="3.44801">
        <ele>19.4</ele>
        <time>2023-08-06T08:56:03Z</time>
      </trkpt>
      <trkpt lat="50.30945" lon="3.448">
        <ele>19.4</ele>
        <time>2023-08-06T08:56:04Z</time>
      </trkpt>
      <trkpt lat="50.30941" lon="3.44798">
        <ele>19.4</ele>
        <time>2023-08-06T08:56:05Z</time>
      </trkpt>
      <trkpt lat="50.30937" lon="3.44797">
        <ele>19.4</ele>
        <time>2023-08-06T08:56:06Z</time>
      </trkpt>
      <trkpt lat="50.30933" lon="3.44796">
        <ele>19.6</ele>
        <time>2023-08-06T08:56:07Z</time>
      </trkpt>
      <trkpt lat="50.30924" lon="3.44792">
        <ele>19.6</ele>
        <time>2023-08-06T08:56:09Z</time>
      </trkpt>
      <trkpt lat="50.3092" lon="3.44791">
        <ele>19.8</ele>
        <time>2023-08-06T08:56:10Z</time>
      </trkpt>
      <trkpt lat="50.3088" lon="3.44778">
        <ele>20</ele>
        <time>2023-08-06T08:56:19Z</time>
      </trkpt>
      <trkpt lat="50.30872" lon="3.44776">
        <ele>20.2</ele>
        <time>2023-08-06T08:56:21Z</time>
      </trkpt>
      <trkpt lat="50.30868" lon="3.44775">
        <ele>20.2</ele>
        <time>2023-08-06T08:56:22Z</time>
      </trkpt>
      <trkpt lat="50.30863" lon="3.44773">
        <ele>20.2</ele>
        <time>2023-08-06T08:56:23Z</time>
      </trkpt>
      <trkpt lat="50.30859" lon="3.44772">
        <ele>20.2</ele>
        <time>2023-08-06T08:56:24Z</time>
      </trkpt>
      <trkpt lat="50.30856" lon="3.44772">
        <ele>20.2</ele>
        <time>2023-08-06T08:56:25Z</time>
      </trkpt>
      <trkpt lat="50.30853" lon="3.44772">
        <ele>20.4</ele>
        <time>2023-08-06T08:56:26Z</time>
      </trkpt>
      <trkpt lat="50.30849" lon="3.44771">
        <ele>20.4</ele>
        <time>2023-08-06T08:56:27Z</time>
      </trkpt>
      <trkpt lat="50.30845" lon="3.4477">
        <ele>20.4</ele>
        <time>2023-08-06T08:56:28Z</time>
      </trkpt>
      <trkpt lat="50.30842" lon="3.44769">
        <ele>20.6</ele>
        <time>2023-08-06T08:56:29Z</time>
      </trkpt>
      <trkpt lat="50.30839" lon="3.44768">
        <ele>20.6</ele>
        <time>2023-08-06T08:56:30Z</time>
      </trkpt>
      <trkpt lat="50.30836" lon="3.44767">
        <ele>20.6</ele>
        <time>2023-08-06T08:56:31Z</time>
      </trkpt>
      <trkpt lat="50.30832" lon="3.44765">
        <ele>20.6</ele>
        <time>2023-08-06T08:56:32Z</time>
      </trkpt>
      <trkpt lat="50.30828" lon="3.44764">
        <ele>20.6</ele>
        <time>2023-08-06T08:56:33Z</time>
      </trkpt>
      <trkpt lat="50.30825" lon="3.44763">
        <ele>20.6</ele>
        <time>2023-08-06T08:56:34Z</time>
      </trkpt>
      <trkpt lat="50.30822" lon="3.44762">
        <ele>20.8</ele>
        <time>2023-08-06T08:56:35Z</time>
      </trkpt>
      <trkpt lat="50.30807" lon="3.44757">
        <ele>21.2</ele>
        <time>2023-08-06T08:56:40Z</time>
      </trkpt>
      <trkpt lat="50.30804" lon="3.44757">
        <ele>21.2</ele>
        <time>2023-08-06T08:56:41Z</time>
      </trkpt>
      <trkpt lat="50.30801" lon="3.44756">
        <ele>21.8</ele>
        <time>2023-08-06T08:56:42Z</time>
      </trkpt>
      <trkpt lat="50.30792" lon="3.44752">
        <ele>22.4</ele>
        <time>2023-08-06T08:56:45Z</time>
      </trkpt>
      <trkpt lat="50.30785" lon="3.44749">
        <ele>22.6</ele>
        <time>2023-08-06T08:56:47Z</time>
      </trkpt>
      <trkpt lat="50.30779" lon="3.44746">
        <ele>22.8</ele>
        <time>2023-08-06T08:56:49Z</time>
      </trkpt>
      <trkpt lat="50.30776" lon="3.44745">
        <ele>22.8</ele>
        <time>2023-08-06T08:56:50Z</time>
      </trkpt>
      <trkpt lat="50.30772" lon="3.44744">
        <ele>22.8</ele>
        <time>2023-08-06T08:56:51Z</time>
      </trkpt>
      <trkpt lat="50.30764" lon="3.44741">
        <ele>23</ele>
        <time>2023-08-06T08:56:53Z</time>
      </trkpt>
      <trkpt lat="50.30761" lon="3.44741">
        <ele>23.2</ele>
        <time>2023-08-06T08:56:54Z</time>
      </trkpt>
      <trkpt lat="50.30758" lon="3.4474">
        <ele>23.2</ele>
        <time>2023-08-06T08:56:55Z</time>
      </trkpt>
      <trkpt lat="50.30755" lon="3.44739">
        <ele>23.2</ele>
        <time>2023-08-06T08:56:56Z</time>
      </trkpt>
      <trkpt lat="50.30752" lon="3.44738">
        <ele>23.4</ele>
        <time>2023-08-06T08:56:57Z</time>
      </trkpt>
      <trkpt lat="50.3075" lon="3.44738">
        <ele>23.6</ele>
        <time>2023-08-06T08:56:58Z</time>
      </trkpt>
      <trkpt lat="50.30747" lon="3.44737">
        <ele>23.8</ele>
        <time>2023-08-06T08:56:59Z</time>
      </trkpt>
      <trkpt lat="50.30743" lon="3.44736">
        <ele>23.8</ele>
        <time>2023-08-06T08:57:00Z</time>
      </trkpt>
      <trkpt lat="50.30739" lon="3.44735">
        <ele>24</ele>
        <time>2023-08-06T08:57:01Z</time>
      </trkpt>
      <trkpt lat="50.30735" lon="3.44733">
        <ele>24.2</ele>
        <time>2023-08-06T08:57:02Z</time>
      </trkpt>
      <trkpt lat="50.30732" lon="3.44732">
        <ele>24.4</ele>
        <time>2023-08-06T08:57:03Z</time>
      </trkpt>
      <trkpt lat="50.30729" lon="3.44731">
        <ele>24.4</ele>
        <time>2023-08-06T08:57:04Z</time>
      </trkpt>
      <trkpt lat="50.30726" lon="3.44729">
        <ele>24.4</ele>
        <time>2023-08-06T08:57:05Z</time>
      </trkpt>
      <trkpt lat="50.30722" lon="3.44728">
        <ele>24.6</ele>
        <time>2023-08-06T08:57:06Z</time>
      </trkpt>
      <trkpt lat="50.30719" lon="3.44727">
        <ele>24.8</ele>
        <time>2023-08-06T08:57:07Z</time>
      </trkpt>
      <trkpt lat="50.30716" lon="3.44726">
        <ele>24.8</ele>
        <time>2023-08-06T08:57:08Z</time>
      </trkpt>
      <trkpt lat="50.30713" lon="3.44724">
        <ele>25</ele>
        <time>2023-08-06T08:57:09Z</time>
      </trkpt>
      <trkpt lat="50.30709" lon="3.44722">
        <ele>25.2</ele>
        <time>2023-08-06T08:57:10Z</time>
      </trkpt>
      <trkpt lat="50.30705" lon="3.4472">
        <ele>25.2</ele>
        <time>2023-08-06T08:57:11Z</time>
      </trkpt>
      <trkpt lat="50.30702" lon="3.44719">
        <ele>25.4</ele>
        <time>2023-08-06T08:57:12Z</time>
      </trkpt>
      <trkpt lat="50.30699" lon="3.44719">
        <ele>25.4</ele>
        <time>2023-08-06T08:57:13Z</time>
      </trkpt>
      <trkpt lat="50.30696" lon="3.44717">
        <ele>25.6</ele>
        <time>2023-08-06T08:57:14Z</time>
      </trkpt>
      <trkpt lat="50.30692" lon="3.44717">
        <ele>25.8</ele>
        <time>2023-08-06T08:57:15Z</time>
      </trkpt>
      <trkpt lat="50.30688" lon="3.44715">
        <ele>26</ele>
        <time>2023-08-06T08:57:16Z</time>
      </trkpt>
      <trkpt lat="50.30684" lon="3.44714">
        <ele>26.2</ele>
        <time>2023-08-06T08:57:17Z</time>
      </trkpt>
      <trkpt lat="50.30681" lon="3.44713">
        <ele>26.2</ele>
        <time>2023-08-06T08:57:18Z</time>
      </trkpt>
      <trkpt lat="50.30677" lon="3.44712">
        <ele>26.4</ele>
        <time>2023-08-06T08:57:19Z</time>
      </trkpt>
      <trkpt lat="50.30674" lon="3.44711">
        <ele>26.4</ele>
        <time>2023-08-06T08:57:20Z</time>
      </trkpt>
      <trkpt lat="50.30671" lon="3.44711">
        <ele>26.4</ele>
        <time>2023-08-06T08:57:21Z</time>
      </trkpt>
      <trkpt lat="50.30669" lon="3.4471">
        <ele>26.6</ele>
        <time>2023-08-06T08:57:22Z</time>
      </trkpt>
      <trkpt lat="50.30666" lon="3.44709">
        <ele>26.6</ele>
        <time>2023-08-06T08:57:23Z</time>
      </trkpt>
      <trkpt lat="50.30663" lon="3.44707">
        <ele>26.8</ele>
        <time>2023-08-06T08:57:24Z</time>
      </trkpt>
      <trkpt lat="50.3066" lon="3.44705">
        <ele>26.8</ele>
        <time>2023-08-06T08:57:25Z</time>
      </trkpt>
      <trkpt lat="50.30658" lon="3.44705">
        <ele>27</ele>
        <time>2023-08-06T08:57:26Z</time>
      </trkpt>
      <trkpt lat="50.30655" lon="3.44704">
        <ele>27</ele>
        <time>2023-08-06T08:57:27Z</time>
      </trkpt>
      <trkpt lat="50.30652" lon="3.44703">
        <ele>27.2</ele>
        <time>2023-08-06T08:57:28Z</time>
      </trkpt>
      <trkpt lat="50.30649" lon="3.44702">
        <ele>27.2</ele>
        <time>2023-08-06T08:57:29Z</time>
      </trkpt>
      <trkpt lat="50.30646" lon="3.44702">
        <ele>27.2</ele>
        <time>2023-08-06T08:57:30Z</time>
      </trkpt>
      <trkpt lat="50.30643" lon="3.44701">
        <ele>27.4</ele>
        <time>2023-08-06T08:57:31Z</time>
      </trkpt>
      <trkpt lat="50.3064" lon="3.447">
        <ele>27.4</ele>
        <time>2023-08-06T08:57:32Z</time>
      </trkpt>
      <trkpt lat="50.30638" lon="3.44699">
        <ele>27.6</ele>
        <time>2023-08-06T08:57:33Z</time>
      </trkpt>
      <trkpt lat="50.30635" lon="3.44698">
        <ele>27.6</ele>
        <time>2023-08-06T08:57:34Z</time>
      </trkpt>
      <trkpt lat="50.30632" lon="3.44697">
        <ele>27.6</ele>
        <time>2023-08-06T08:57:35Z</time>
      </trkpt>
      <trkpt lat="50.3063" lon="3.44696">
        <ele>27.6</ele>
        <time>2023-08-06T08:57:36Z</time>
      </trkpt>
      <trkpt lat="50.30627" lon="3.44695">
        <ele>27.8</ele>
        <time>2023-08-06T08:57:37Z</time>
      </trkpt>
      <trkpt lat="50.30624" lon="3.44694">
        <ele>28</ele>
        <time>2023-08-06T08:57:38Z</time>
      </trkpt>
      <trkpt lat="50.30621" lon="3.44693">
        <ele>28.2</ele>
        <time>2023-08-06T08:57:39Z</time>
      </trkpt>
      <trkpt lat="50.30617" lon="3.44692">
        <ele>28.2</ele>
        <time>2023-08-06T08:57:40Z</time>
      </trkpt>
      <trkpt lat="50.30615" lon="3.44691">
        <ele>28.4</ele>
        <time>2023-08-06T08:57:41Z</time>
      </trkpt>
      <trkpt lat="50.30605" lon="3.44688">
        <ele>28.8</ele>
        <time>2023-08-06T08:57:44Z</time>
      </trkpt>
      <trkpt lat="50.30602" lon="3.44687">
        <ele>29</ele>
        <time>2023-08-06T08:57:45Z</time>
      </trkpt>
      <trkpt lat="50.30599" lon="3.44686">
        <ele>29.2</ele>
        <time>2023-08-06T08:57:46Z</time>
      </trkpt>
      <trkpt lat="50.30596" lon="3.44685">
        <ele>29.2</ele>
        <time>2023-08-06T08:57:47Z</time>
      </trkpt>
      <trkpt lat="50.30593" lon="3.44684">
        <ele>29.4</ele>
        <time>2023-08-06T08:57:48Z</time>
      </trkpt>
      <trkpt lat="50.30591" lon="3.44683">
        <ele>29.6</ele>
        <time>2023-08-06T08:57:49Z</time>
      </trkpt>
      <trkpt lat="50.30588" lon="3.44682">
        <ele>29.6</ele>
        <time>2023-08-06T08:57:50Z</time>
      </trkpt>
      <trkpt lat="50.30585" lon="3.44681">
        <ele>29.8</ele>
        <time>2023-08-06T08:57:51Z</time>
      </trkpt>
      <trkpt lat="50.30582" lon="3.44681">
        <ele>29.8</ele>
        <time>2023-08-06T08:57:52Z</time>
      </trkpt>
      <trkpt lat="50.30579" lon="3.44679">
        <ele>29.8</ele>
        <time>2023-08-06T08:57:53Z</time>
      </trkpt>
      <trkpt lat="50.30575" lon="3.44678">
        <ele>29.8</ele>
        <time>2023-08-06T08:57:54Z</time>
      </trkpt>
      <trkpt lat="50.30573" lon="3.44677">
        <ele>30</ele>
        <time>2023-08-06T08:57:55Z</time>
      </trkpt>
      <trkpt lat="50.3057" lon="3.44676">
        <ele>30</ele>
        <time>2023-08-06T08:57:56Z</time>
      </trkpt>
      <trkpt lat="50.30567" lon="3.44676">
        <ele>30</ele>
        <time>2023-08-06T08:57:57Z</time>
      </trkpt>
      <trkpt lat="50.30564" lon="3.44675">
        <ele>30.2</ele>
        <time>2023-08-06T08:57:58Z</time>
      </trkpt>
      <trkpt lat="50.30561" lon="3.44674">
        <ele>30.2</ele>
        <time>2023-08-06T08:57:59Z</time>
      </trkpt>
      <trkpt lat="50.30559" lon="3.44673">
        <ele>30.2</ele>
        <time>2023-08-06T08:58:00Z</time>
      </trkpt>
      <trkpt lat="50.30555" lon="3.44672">
        <ele>30.2</ele>
        <time>2023-08-06T08:58:01Z</time>
      </trkpt>
      <trkpt lat="50.30552" lon="3.44671">
        <ele>30.4</ele>
        <time>2023-08-06T08:58:02Z</time>
      </trkpt>
      <trkpt lat="50.30548" lon="3.4467">
        <ele>30.4</ele>
        <time>2023-08-06T08:58:03Z</time>
      </trkpt>
      <trkpt lat="50.30529" lon="3.44664">
        <ele>30.8</ele>
        <time>2023-08-06T08:58:09Z</time>
      </trkpt>
      <trkpt lat="50.30511" lon="3.44658">
        <ele>31.2</ele>
        <time>2023-08-06T08:58:14Z</time>
      </trkpt>
      <trkpt lat="50.30499" lon="3.44653">
        <ele>31.6</ele>
        <time>2023-08-06T08:58:18Z</time>
      </trkpt>
      <trkpt lat="50.30497" lon="3.44652">
        <ele>31.8</ele>
        <time>2023-08-06T08:58:19Z</time>
      </trkpt>
      <trkpt lat="50.30486" lon="3.44649">
        <ele>32</ele>
        <time>2023-08-06T08:58:22Z</time>
      </trkpt>
      <trkpt lat="50.3048" lon="3.44648">
        <ele>32.2</ele>
        <time>2023-08-06T08:58:24Z</time>
      </trkpt>
      <trkpt lat="50.30472" lon="3.44645">
        <ele>32.4</ele>
        <time>2023-08-06T08:58:26Z</time>
      </trkpt>
      <trkpt lat="50.30468" lon="3.44644">
        <ele>32.6</ele>
        <time>2023-08-06T08:58:28Z</time>
      </trkpt>
      <trkpt lat="50.30465" lon="3.44643">
        <ele>32.8</ele>
        <time>2023-08-06T08:58:29Z</time>
      </trkpt>
      <trkpt lat="50.30452" lon="3.44639">
        <ele>32.8</ele>
        <time>2023-08-06T08:58:33Z</time>
      </trkpt>
      <trkpt lat="50.30425" lon="3.44633">
        <ele>32.6</ele>
        <time>2023-08-06T08:58:41Z</time>
      </trkpt>
      <trkpt lat="50.30422" lon="3.44635">
        <ele>32.6</ele>
        <time>2023-08-06T08:58:42Z</time>
      </trkpt>
      <trkpt lat="50.30419" lon="3.44638">
        <ele>32.6</ele>
        <time>2023-08-06T08:58:43Z</time>
      </trkpt>
      <trkpt lat="50.30415" lon="3.44643">
        <ele>32.6</ele>
        <time>2023-08-06T08:58:44Z</time>
      </trkpt>
      <trkpt lat="50.30412" lon="3.44649">
        <ele>32.6</ele>
        <time>2023-08-06T08:58:45Z</time>
      </trkpt>
      <trkpt lat="50.3041" lon="3.44654">
        <ele>32.4</ele>
        <time>2023-08-06T08:58:46Z</time>
      </trkpt>
      <trkpt lat="50.30408" lon="3.4466">
        <ele>32.4</ele>
        <time>2023-08-06T08:58:47Z</time>
      </trkpt>
      <trkpt lat="50.30402" lon="3.44673">
        <ele>32.4</ele>
        <time>2023-08-06T08:58:49Z</time>
      </trkpt>
      <trkpt lat="50.30399" lon="3.44678">
        <ele>32.2</ele>
        <time>2023-08-06T08:58:50Z</time>
      </trkpt>
      <trkpt lat="50.30396" lon="3.44682">
        <ele>32.2</ele>
        <time>2023-08-06T08:58:51Z</time>
      </trkpt>
      <trkpt lat="50.30392" lon="3.44685">
        <ele>32.2</ele>
        <time>2023-08-06T08:58:52Z</time>
      </trkpt>
      <trkpt lat="50.30388" lon="3.44687">
        <ele>32.2</ele>
        <time>2023-08-06T08:58:53Z</time>
      </trkpt>
      <trkpt lat="50.30383" lon="3.4469">
        <ele>32.2</ele>
        <time>2023-08-06T08:58:54Z</time>
      </trkpt>
      <trkpt lat="50.30379" lon="3.44692">
        <ele>32</ele>
        <time>2023-08-06T08:58:55Z</time>
      </trkpt>
      <trkpt lat="50.3037" lon="3.44693">
        <ele>32</ele>
        <time>2023-08-06T08:58:57Z</time>
      </trkpt>
      <trkpt lat="50.30365" lon="3.44691">
        <ele>32</ele>
        <time>2023-08-06T08:58:58Z</time>
      </trkpt>
      <trkpt lat="50.3036" lon="3.4469">
        <ele>32</ele>
        <time>2023-08-06T08:58:59Z</time>
      </trkpt>
      <trkpt lat="50.30337" lon="3.44681">
        <ele>31.8</ele>
        <time>2023-08-06T08:59:04Z</time>
      </trkpt>
      <trkpt lat="50.303" lon="3.44668">
        <ele>31.8</ele>
        <time>2023-08-06T08:59:12Z</time>
      </trkpt>
      <trkpt lat="50.30276" lon="3.44662">
        <ele>31.8</ele>
        <time>2023-08-06T08:59:17Z</time>
      </trkpt>
      <trkpt lat="50.30271" lon="3.44663">
        <ele>31.8</ele>
        <time>2023-08-06T08:59:18Z</time>
      </trkpt>
      <trkpt lat="50.30266" lon="3.44665">
        <ele>31.8</ele>
        <time>2023-08-06T08:59:19Z</time>
      </trkpt>
      <trkpt lat="50.30246" lon="3.44679">
        <ele>31.4</ele>
        <time>2023-08-06T08:59:23Z</time>
      </trkpt>
      <trkpt lat="50.30236" lon="3.44685">
        <ele>31.2</ele>
        <time>2023-08-06T08:59:25Z</time>
      </trkpt>
      <trkpt lat="50.3022" lon="3.44697">
        <ele>31</ele>
        <time>2023-08-06T08:59:28Z</time>
      </trkpt>
      <trkpt lat="50.30213" lon="3.44701">
        <ele>30.6</ele>
        <time>2023-08-06T08:59:29Z</time>
      </trkpt>
      <trkpt lat="50.30207" lon="3.44706">
        <ele>30.4</ele>
        <time>2023-08-06T08:59:30Z</time>
      </trkpt>
      <trkpt lat="50.30195" lon="3.44714">
        <ele>29.8</ele>
        <time>2023-08-06T08:59:32Z</time>
      </trkpt>
      <trkpt lat="50.30177" lon="3.44725">
        <ele>29.2</ele>
        <time>2023-08-06T08:59:35Z</time>
      </trkpt>
      <trkpt lat="50.3017" lon="3.44727">
        <ele>29</ele>
        <time>2023-08-06T08:59:36Z</time>
      </trkpt>
      <trkpt lat="50.30162" lon="3.4473">
        <ele>28.8</ele>
        <time>2023-08-06T08:59:37Z</time>
      </trkpt>
      <trkpt lat="50.30138" lon="3.44737">
        <ele>28</ele>
        <time>2023-08-06T08:59:41Z</time>
      </trkpt>
      <trkpt lat="50.30125" lon="3.44738">
        <ele>27.8</ele>
        <time>2023-08-06T08:59:43Z</time>
      </trkpt>
      <trkpt lat="50.30105" lon="3.44738">
        <ele>27.4</ele>
        <time>2023-08-06T08:59:46Z</time>
      </trkpt>
      <trkpt lat="50.30099" lon="3.44737">
        <ele>27.2</ele>
        <time>2023-08-06T08:59:47Z</time>
      </trkpt>
      <trkpt lat="50.30073" lon="3.44734">
        <ele>26.8</ele>
        <time>2023-08-06T08:59:51Z</time>
      </trkpt>
      <trkpt lat="50.30068" lon="3.44734">
        <ele>26.6</ele>
        <time>2023-08-06T08:59:52Z</time>
      </trkpt>
      <trkpt lat="50.30062" lon="3.44733">
        <ele>26.6</ele>
        <time>2023-08-06T08:59:53Z</time>
      </trkpt>
      <trkpt lat="50.30056" lon="3.44733">
        <ele>26.4</ele>
        <time>2023-08-06T08:59:54Z</time>
      </trkpt>
      <trkpt lat="50.3005" lon="3.44732">
        <ele>26.4</ele>
        <time>2023-08-06T08:59:55Z</time>
      </trkpt>
      <trkpt lat="50.30027" lon="3.44727">
        <ele>26.2</ele>
        <time>2023-08-06T08:59:59Z</time>
      </trkpt>
      <trkpt lat="50.30016" lon="3.44719">
        <ele>26.2</ele>
        <time>2023-08-06T09:00:01Z</time>
      </trkpt>
      <trkpt lat="50.30012" lon="3.44715">
        <ele>26.2</ele>
        <time>2023-08-06T09:00:02Z</time>
      </trkpt>
      <trkpt lat="50.30007" lon="3.44711">
        <ele>26.2</ele>
        <time>2023-08-06T09:00:03Z</time>
      </trkpt>
      <trkpt lat="50.30003" lon="3.44708">
        <ele>26.2</ele>
        <time>2023-08-06T09:00:04Z</time>
      </trkpt>
      <trkpt lat="50.29998" lon="3.44707">
        <ele>26.2</ele>
        <time>2023-08-06T09:00:05Z</time>
      </trkpt>
      <trkpt lat="50.29992" lon="3.44707">
        <ele>26.2</ele>
        <time>2023-08-06T09:00:06Z</time>
      </trkpt>
      <trkpt lat="50.29988" lon="3.44711">
        <ele>26.2</ele>
        <time>2023-08-06T09:00:07Z</time>
      </trkpt>
      <trkpt lat="50.29982" lon="3.44725">
        <ele>26.2</ele>
        <time>2023-08-06T09:00:09Z</time>
      </trkpt>
      <trkpt lat="50.2998" lon="3.44742">
        <ele>26</ele>
        <time>2023-08-06T09:00:11Z</time>
      </trkpt>
      <trkpt lat="50.29981" lon="3.44752">
        <ele>25.8</ele>
        <time>2023-08-06T09:00:12Z</time>
      </trkpt>
      <trkpt lat="50.29981" lon="3.44761">
        <ele>25.8</ele>
        <time>2023-08-06T09:00:13Z</time>
      </trkpt>
      <trkpt lat="50.29981" lon="3.44771">
        <ele>25.6</ele>
        <time>2023-08-06T09:00:14Z</time>
      </trkpt>
      <trkpt lat="50.29978" lon="3.4481">
        <ele>25.2</ele>
        <time>2023-08-06T09:00:18Z</time>
      </trkpt>
      <trkpt lat="50.29972" lon="3.44871">
        <ele>24.4</ele>
        <time>2023-08-06T09:00:24Z</time>
      </trkpt>
      <trkpt lat="50.29969" lon="3.44926">
        <ele>23.8</ele>
        <time>2023-08-06T09:00:29Z</time>
      </trkpt>
      <trkpt lat="50.29969" lon="3.44969">
        <ele>23.4</ele>
        <time>2023-08-06T09:00:33Z</time>
      </trkpt>
      <trkpt lat="50.29969" lon="3.45015">
        <ele>23</ele>
        <time>2023-08-06T09:00:37Z</time>
      </trkpt>
      <trkpt lat="50.29975" lon="3.45086">
        <ele>22.6</ele>
        <time>2023-08-06T09:00:43Z</time>
      </trkpt>
      <trkpt lat="50.2998" lon="3.45122">
        <ele>22.4</ele>
        <time>2023-08-06T09:00:46Z</time>
      </trkpt>
      <trkpt lat="50.29983" lon="3.45146">
        <ele>22.2</ele>
        <time>2023-08-06T09:00:48Z</time>
      </trkpt>
      <trkpt lat="50.29983" lon="3.45154">
        <ele>22.2</ele>
        <time>2023-08-06T09:00:49Z</time>
      </trkpt>
      <trkpt lat="50.29981" lon="3.45163">
        <ele>22.2</ele>
        <time>2023-08-06T09:00:50Z</time>
      </trkpt>
      <trkpt lat="50.29977" lon="3.45171">
        <ele>22.2</ele>
        <time>2023-08-06T09:00:51Z</time>
      </trkpt>
      <trkpt lat="50.29973" lon="3.45179">
        <ele>22</ele>
        <time>2023-08-06T09:00:52Z</time>
      </trkpt>
      <trkpt lat="50.29971" lon="3.45189">
        <ele>22</ele>
        <time>2023-08-06T09:00:53Z</time>
      </trkpt>
      <trkpt lat="50.2997" lon="3.452">
        <ele>21.8</ele>
        <time>2023-08-06T09:00:54Z</time>
      </trkpt>
      <trkpt lat="50.29971" lon="3.4521">
        <ele>21.8</ele>
        <time>2023-08-06T09:00:55Z</time>
      </trkpt>
      <trkpt lat="50.2997" lon="3.45221">
        <ele>21.6</ele>
        <time>2023-08-06T09:00:56Z</time>
      </trkpt>
      <trkpt lat="50.29963" lon="3.45239">
        <ele>21</ele>
        <time>2023-08-06T09:00:58Z</time>
      </trkpt>
      <trkpt lat="50.29958" lon="3.45246">
        <ele>20.8</ele>
        <time>2023-08-06T09:00:59Z</time>
      </trkpt>
      <trkpt lat="50.29952" lon="3.45251">
        <ele>20.6</ele>
        <time>2023-08-06T09:01:00Z</time>
      </trkpt>
      <trkpt lat="50.29946" lon="3.45253">
        <ele>20.6</ele>
        <time>2023-08-06T09:01:01Z</time>
      </trkpt>
      <trkpt lat="50.29939" lon="3.45254">
        <ele>20.4</ele>
        <time>2023-08-06T09:01:02Z</time>
      </trkpt>
      <trkpt lat="50.29932" lon="3.45255">
        <ele>20.4</ele>
        <time>2023-08-06T09:01:03Z</time>
      </trkpt>
      <trkpt lat="50.29925" lon="3.45255">
        <ele>20.2</ele>
        <time>2023-08-06T09:01:04Z</time>
      </trkpt>
      <trkpt lat="50.29892" lon="3.45255">
        <ele>20</ele>
        <time>2023-08-06T09:01:09Z</time>
      </trkpt>
      <trkpt lat="50.29885" lon="3.45254">
        <ele>20</ele>
        <time>2023-08-06T09:01:10Z</time>
      </trkpt>
      <trkpt lat="50.29853" lon="3.45253">
        <ele>19.8</ele>
        <time>2023-08-06T09:01:15Z</time>
      </trkpt>
      <trkpt lat="50.29828" lon="3.45249">
        <ele>19.6</ele>
        <time>2023-08-06T09:01:19Z</time>
      </trkpt>
      <trkpt lat="50.29796" lon="3.45242">
        <ele>19.6</ele>
        <time>2023-08-06T09:01:24Z</time>
      </trkpt>
      <trkpt lat="50.29772" lon="3.45235">
        <ele>19.8</ele>
        <time>2023-08-06T09:01:28Z</time>
      </trkpt>
      <trkpt lat="50.29765" lon="3.45233">
        <ele>19.8</ele>
        <time>2023-08-06T09:01:29Z</time>
      </trkpt>
      <trkpt lat="50.2971" lon="3.45225">
        <ele>20</ele>
        <time>2023-08-06T09:01:38Z</time>
      </trkpt>
      <trkpt lat="50.29654" lon="3.45229">
        <ele>20.2</ele>
        <time>2023-08-06T09:01:47Z</time>
      </trkpt>
      <trkpt lat="50.29648" lon="3.4523">
        <ele>20.4</ele>
        <time>2023-08-06T09:01:48Z</time>
      </trkpt>
      <trkpt lat="50.29642" lon="3.45232">
        <ele>20.4</ele>
        <time>2023-08-06T09:01:49Z</time>
      </trkpt>
      <trkpt lat="50.29635" lon="3.45233">
        <ele>20.4</ele>
        <time>2023-08-06T09:01:50Z</time>
      </trkpt>
      <trkpt lat="50.29611" lon="3.45237">
        <ele>20.4</ele>
        <time>2023-08-06T09:01:54Z</time>
      </trkpt>
      <trkpt lat="50.29593" lon="3.45239">
        <ele>20.4</ele>
        <time>2023-08-06T09:01:57Z</time>
      </trkpt>
      <trkpt lat="50.29539" lon="3.45242">
        <ele>20.4</ele>
        <time>2023-08-06T09:02:06Z</time>
      </trkpt>
      <trkpt lat="50.29533" lon="3.45242">
        <ele>20.4</ele>
        <time>2023-08-06T09:02:07Z</time>
      </trkpt>
      <trkpt lat="50.29508" lon="3.45243">
        <ele>20.6</ele>
        <time>2023-08-06T09:02:11Z</time>
      </trkpt>
      <trkpt lat="50.29488" lon="3.45245">
        <ele>20.8</ele>
        <time>2023-08-06T09:02:14Z</time>
      </trkpt>
      <trkpt lat="50.29451" lon="3.45252">
        <ele>21</ele>
        <time>2023-08-06T09:02:20Z</time>
      </trkpt>
      <trkpt lat="50.29433" lon="3.45255">
        <ele>21.4</ele>
        <time>2023-08-06T09:02:23Z</time>
      </trkpt>
      <trkpt lat="50.29421" lon="3.45257">
        <ele>21.4</ele>
        <time>2023-08-06T09:02:25Z</time>
      </trkpt>
      <trkpt lat="50.29414" lon="3.45258">
        <ele>21.6</ele>
        <time>2023-08-06T09:02:26Z</time>
      </trkpt>
      <trkpt lat="50.2941" lon="3.45259">
        <ele>21.6</ele>
        <time>2023-08-06T09:02:27Z</time>
      </trkpt>
      <trkpt lat="50.29402" lon="3.45261">
        <ele>21.6</ele>
        <time>2023-08-06T09:02:28Z</time>
      </trkpt>
      <trkpt lat="50.29398" lon="3.45262">
        <ele>21.8</ele>
        <time>2023-08-06T09:02:29Z</time>
      </trkpt>
      <trkpt lat="50.29392" lon="3.45263">
        <ele>21.8</ele>
        <time>2023-08-06T09:02:30Z</time>
      </trkpt>
      <trkpt lat="50.2938" lon="3.45265">
        <ele>22</ele>
        <time>2023-08-06T09:02:32Z</time>
      </trkpt>
      <trkpt lat="50.29363" lon="3.45269">
        <ele>22</ele>
        <time>2023-08-06T09:02:35Z</time>
      </trkpt>
      <trkpt lat="50.2931" lon="3.45281">
        <ele>22.4</ele>
        <time>2023-08-06T09:02:44Z</time>
      </trkpt>
      <trkpt lat="50.29252" lon="3.45302">
        <ele>22.4</ele>
        <time>2023-08-06T09:02:54Z</time>
      </trkpt>
      <trkpt lat="50.29239" lon="3.45305">
        <ele>22.4</ele>
        <time>2023-08-06T09:02:56Z</time>
      </trkpt>
      <trkpt lat="50.29183" lon="3.45323">
        <ele>22.6</ele>
        <time>2023-08-06T09:03:06Z</time>
      </trkpt>
      <trkpt lat="50.29171" lon="3.45327">
        <ele>22.6</ele>
        <time>2023-08-06T09:03:08Z</time>
      </trkpt>
      <trkpt lat="50.29149" lon="3.45336">
        <ele>22.6</ele>
        <time>2023-08-06T09:03:12Z</time>
      </trkpt>
      <trkpt lat="50.29143" lon="3.45337">
        <ele>22.6</ele>
        <time>2023-08-06T09:03:13Z</time>
      </trkpt>
      <trkpt lat="50.29137" lon="3.45339">
        <ele>22.6</ele>
        <time>2023-08-06T09:03:14Z</time>
      </trkpt>
      <trkpt lat="50.29122" lon="3.45346">
        <ele>22.4</ele>
        <time>2023-08-06T09:03:17Z</time>
      </trkpt>
      <trkpt lat="50.29116" lon="3.45348">
        <ele>22.4</ele>
        <time>2023-08-06T09:03:18Z</time>
      </trkpt>
      <trkpt lat="50.29111" lon="3.4535">
        <ele>22.2</ele>
        <time>2023-08-06T09:03:19Z</time>
      </trkpt>
      <trkpt lat="50.29104" lon="3.45352">
        <ele>22.2</ele>
        <time>2023-08-06T09:03:20Z</time>
      </trkpt>
      <trkpt lat="50.291" lon="3.45354">
        <ele>22.2</ele>
        <time>2023-08-06T09:03:21Z</time>
      </trkpt>
      <trkpt lat="50.29095" lon="3.45356">
        <ele>22.2</ele>
        <time>2023-08-06T09:03:22Z</time>
      </trkpt>
      <trkpt lat="50.29088" lon="3.45358">
        <ele>22.2</ele>
        <time>2023-08-06T09:03:23Z</time>
      </trkpt>
      <trkpt lat="50.29084" lon="3.4536">
        <ele>22</ele>
        <time>2023-08-06T09:03:24Z</time>
      </trkpt>
      <trkpt lat="50.29079" lon="3.45362">
        <ele>22</ele>
        <time>2023-08-06T09:03:25Z</time>
      </trkpt>
      <trkpt lat="50.29074" lon="3.45365">
        <ele>22</ele>
        <time>2023-08-06T09:03:26Z</time>
      </trkpt>
      <trkpt lat="50.29069" lon="3.45368">
        <ele>22</ele>
        <time>2023-08-06T09:03:27Z</time>
      </trkpt>
      <trkpt lat="50.29019" lon="3.45403">
        <ele>22.2</ele>
        <time>2023-08-06T09:03:37Z</time>
      </trkpt>
      <trkpt lat="50.2901" lon="3.45411">
        <ele>22.2</ele>
        <time>2023-08-06T09:03:39Z</time>
      </trkpt>
      <trkpt lat="50.29006" lon="3.45414">
        <ele>22.2</ele>
        <time>2023-08-06T09:03:40Z</time>
      </trkpt>
      <trkpt lat="50.29006" lon="3.45414">
        <ele>22.4</ele>
        <time>2023-08-06T09:03:41Z</time>
      </trkpt>
      <trkpt lat="50.28996" lon="3.45422">
        <ele>22.4</ele>
        <time>2023-08-06T09:03:42Z</time>
      </trkpt>
      <trkpt lat="50.28991" lon="3.45425">
        <ele>22.4</ele>
        <time>2023-08-06T09:03:43Z</time>
      </trkpt>
      <trkpt lat="50.28971" lon="3.4544">
        <ele>22.4</ele>
        <time>2023-08-06T09:03:47Z</time>
      </trkpt>
      <trkpt lat="50.2893" lon="3.45475">
        <ele>22.4</ele>
        <time>2023-08-06T09:03:55Z</time>
      </trkpt>
      <trkpt lat="50.28906" lon="3.45493">
        <ele>22.6</ele>
        <time>2023-08-06T09:04:00Z</time>
      </trkpt>
      <trkpt lat="50.28901" lon="3.45497">
        <ele>22.6</ele>
        <time>2023-08-06T09:04:01Z</time>
      </trkpt>
      <trkpt lat="50.28896" lon="3.455">
        <ele>22.6</ele>
        <time>2023-08-06T09:04:02Z</time>
      </trkpt>
      <trkpt lat="50.28891" lon="3.45503">
        <ele>22.6</ele>
        <time>2023-08-06T09:04:03Z</time>
      </trkpt>
      <trkpt lat="50.28885" lon="3.45506">
        <ele>22.8</ele>
        <time>2023-08-06T09:04:04Z</time>
      </trkpt>
      <trkpt lat="50.28876" lon="3.4551">
        <ele>22.8</ele>
        <time>2023-08-06T09:04:06Z</time>
      </trkpt>
      <trkpt lat="50.28871" lon="3.45512">
        <ele>23</ele>
        <time>2023-08-06T09:04:07Z</time>
      </trkpt>
      <trkpt lat="50.28861" lon="3.45517">
        <ele>23</ele>
        <time>2023-08-06T09:04:09Z</time>
      </trkpt>
      <trkpt lat="50.28856" lon="3.45519">
        <ele>23</ele>
        <time>2023-08-06T09:04:10Z</time>
      </trkpt>
      <trkpt lat="50.28852" lon="3.45523">
        <ele>23.2</ele>
        <time>2023-08-06T09:04:11Z</time>
      </trkpt>
      <trkpt lat="50.28849" lon="3.45529">
        <ele>23.2</ele>
        <time>2023-08-06T09:04:12Z</time>
      </trkpt>
      <trkpt lat="50.2885" lon="3.45535">
        <ele>23.2</ele>
        <time>2023-08-06T09:04:13Z</time>
      </trkpt>
      <trkpt lat="50.28852" lon="3.4554">
        <ele>23.4</ele>
        <time>2023-08-06T09:04:14Z</time>
      </trkpt>
      <trkpt lat="50.28855" lon="3.45542">
        <ele>23.6</ele>
        <time>2023-08-06T09:04:15Z</time>
      </trkpt>
      <trkpt lat="50.28859" lon="3.45542">
        <ele>23.4</ele>
        <time>2023-08-06T09:04:16Z</time>
      </trkpt>
      <trkpt lat="50.2887" lon="3.45543">
        <ele>23.8</ele>
        <time>2023-08-06T09:04:19Z</time>
      </trkpt>
      <trkpt lat="50.28874" lon="3.45544">
        <ele>23.8</ele>
        <time>2023-08-06T09:04:20Z</time>
      </trkpt>
      <trkpt lat="50.28877" lon="3.45544">
        <ele>24</ele>
        <time>2023-08-06T09:04:21Z</time>
      </trkpt>
      <trkpt lat="50.28886" lon="3.45545">
        <ele>24.2</ele>
        <time>2023-08-06T09:04:23Z</time>
      </trkpt>
      <trkpt lat="50.28901" lon="3.45548">
        <ele>24.8</ele>
        <time>2023-08-06T09:04:27Z</time>
      </trkpt>
      <trkpt lat="50.28914" lon="3.45552">
        <ele>25.4</ele>
        <time>2023-08-06T09:04:31Z</time>
      </trkpt>
      <trkpt lat="50.28917" lon="3.45553">
        <ele>25.4</ele>
        <time>2023-08-06T09:04:32Z</time>
      </trkpt>
      <trkpt lat="50.2892" lon="3.45554">
        <ele>25.6</ele>
        <time>2023-08-06T09:04:33Z</time>
      </trkpt>
      <trkpt lat="50.28924" lon="3.45555">
        <ele>25.8</ele>
        <time>2023-08-06T09:04:34Z</time>
      </trkpt>
      <trkpt lat="50.28927" lon="3.45556">
        <ele>25.8</ele>
        <time>2023-08-06T09:04:35Z</time>
      </trkpt>
      <trkpt lat="50.2893" lon="3.45557">
        <ele>26</ele>
        <time>2023-08-06T09:04:36Z</time>
      </trkpt>
      <trkpt lat="50.28933" lon="3.45559">
        <ele>26.2</ele>
        <time>2023-08-06T09:04:37Z</time>
      </trkpt>
      <trkpt lat="50.28936" lon="3.4556">
        <ele>26.2</ele>
        <time>2023-08-06T09:04:38Z</time>
      </trkpt>
      <trkpt lat="50.28938" lon="3.45561">
        <ele>26.4</ele>
        <time>2023-08-06T09:04:39Z</time>
      </trkpt>
      <trkpt lat="50.28938" lon="3.45561">
        <ele>26.4</ele>
        <time>2023-08-06T09:04:40Z</time>
      </trkpt>
      <trkpt lat="50.28943" lon="3.45563">
        <ele>26.8</ele>
        <time>2023-08-06T09:04:41Z</time>
      </trkpt>
      <trkpt lat="50.28946" lon="3.45565">
        <ele>26.8</ele>
        <time>2023-08-06T09:04:42Z</time>
      </trkpt>
      <trkpt lat="50.28948" lon="3.45566">
        <ele>27</ele>
        <time>2023-08-06T09:04:43Z</time>
      </trkpt>
      <trkpt lat="50.28951" lon="3.45568">
        <ele>27.2</ele>
        <time>2023-08-06T09:04:44Z</time>
      </trkpt>
      <trkpt lat="50.28954" lon="3.45571">
        <ele>27.4</ele>
        <time>2023-08-06T09:04:45Z</time>
      </trkpt>
      <trkpt lat="50.28956" lon="3.45573">
        <ele>27.4</ele>
        <time>2023-08-06T09:04:46Z</time>
      </trkpt>
      <trkpt lat="50.28959" lon="3.45575">
        <ele>27.6</ele>
        <time>2023-08-06T09:04:47Z</time>
      </trkpt>
      <trkpt lat="50.28959" lon="3.45575">
        <ele>27.6</ele>
        <time>2023-08-06T09:04:48Z</time>
      </trkpt>
      <trkpt lat="50.28963" lon="3.45579">
        <ele>27.8</ele>
        <time>2023-08-06T09:04:49Z</time>
      </trkpt>
      <trkpt lat="50.28966" lon="3.45581">
        <ele>28</ele>
        <time>2023-08-06T09:04:50Z</time>
      </trkpt>
      <trkpt lat="50.28968" lon="3.45583">
        <ele>28</ele>
        <time>2023-08-06T09:04:51Z</time>
      </trkpt>
      <trkpt lat="50.2897" lon="3.45585">
        <ele>28.2</ele>
        <time>2023-08-06T09:04:52Z</time>
      </trkpt>
      <trkpt lat="50.28972" lon="3.45587">
        <ele>28.4</ele>
        <time>2023-08-06T09:04:53Z</time>
      </trkpt>
      <trkpt lat="50.28974" lon="3.45589">
        <ele>28.4</ele>
        <time>2023-08-06T09:04:54Z</time>
      </trkpt>
      <trkpt lat="50.28977" lon="3.45591">
        <ele>28.4</ele>
        <time>2023-08-06T09:04:55Z</time>
      </trkpt>
      <trkpt lat="50.28979" lon="3.45593">
        <ele>28.6</ele>
        <time>2023-08-06T09:04:56Z</time>
      </trkpt>
      <trkpt lat="50.28981" lon="3.45594">
        <ele>28.6</ele>
        <time>2023-08-06T09:04:57Z</time>
      </trkpt>
      <trkpt lat="50.28983" lon="3.45596">
        <ele>28.8</ele>
        <time>2023-08-06T09:04:58Z</time>
      </trkpt>
      <trkpt lat="50.28985" lon="3.45599">
        <ele>29</ele>
        <time>2023-08-06T09:04:59Z</time>
      </trkpt>
      <trkpt lat="50.28988" lon="3.45601">
        <ele>29.2</ele>
        <time>2023-08-06T09:05:00Z</time>
      </trkpt>
      <trkpt lat="50.2899" lon="3.45603">
        <ele>29.2</ele>
        <time>2023-08-06T09:05:01Z</time>
      </trkpt>
      <trkpt lat="50.28992" lon="3.45605">
        <ele>29.4</ele>
        <time>2023-08-06T09:05:02Z</time>
      </trkpt>
      <trkpt lat="50.28995" lon="3.45608">
        <ele>29.4</ele>
        <time>2023-08-06T09:05:03Z</time>
      </trkpt>
      <trkpt lat="50.28997" lon="3.45609">
        <ele>29.6</ele>
        <time>2023-08-06T09:05:04Z</time>
      </trkpt>
      <trkpt lat="50.28999" lon="3.45612">
        <ele>29.6</ele>
        <time>2023-08-06T09:05:05Z</time>
      </trkpt>
      <trkpt lat="50.29002" lon="3.45614">
        <ele>29.8</ele>
        <time>2023-08-06T09:05:06Z</time>
      </trkpt>
      <trkpt lat="50.29004" lon="3.45615">
        <ele>29.8</ele>
        <time>2023-08-06T09:05:07Z</time>
      </trkpt>
      <trkpt lat="50.29006" lon="3.45617">
        <ele>29.8</ele>
        <time>2023-08-06T09:05:08Z</time>
      </trkpt>
      <trkpt lat="50.29009" lon="3.45619">
        <ele>29.8</ele>
        <time>2023-08-06T09:05:09Z</time>
      </trkpt>
      <trkpt lat="50.29011" lon="3.45621">
        <ele>30</ele>
        <time>2023-08-06T09:05:10Z</time>
      </trkpt>
      <trkpt lat="50.29013" lon="3.45623">
        <ele>30</ele>
        <time>2023-08-06T09:05:11Z</time>
      </trkpt>
      <trkpt lat="50.29015" lon="3.45625">
        <ele>30</ele>
        <time>2023-08-06T09:05:12Z</time>
      </trkpt>
      <trkpt lat="50.29017" lon="3.45627">
        <ele>30.2</ele>
        <time>2023-08-06T09:05:13Z</time>
      </trkpt>
      <trkpt lat="50.29019" lon="3.45629">
        <ele>30.4</ele>
        <time>2023-08-06T09:05:14Z</time>
      </trkpt>
      <trkpt lat="50.29021" lon="3.45631">
        <ele>30.6</ele>
        <time>2023-08-06T09:05:15Z</time>
      </trkpt>
      <trkpt lat="50.29023" lon="3.45633">
        <ele>30.8</ele>
        <time>2023-08-06T09:05:16Z</time>
      </trkpt>
      <trkpt lat="50.29025" lon="3.45635">
        <ele>31.2</ele>
        <time>2023-08-06T09:05:17Z</time>
      </trkpt>
      <trkpt lat="50.29027" lon="3.45637">
        <ele>31.4</ele>
        <time>2023-08-06T09:05:18Z</time>
      </trkpt>
      <trkpt lat="50.29029" lon="3.45639">
        <ele>31.4</ele>
        <time>2023-08-06T09:05:19Z</time>
      </trkpt>
      <trkpt lat="50.29031" lon="3.4564">
        <ele>31.6</ele>
        <time>2023-08-06T09:05:20Z</time>
      </trkpt>
      <trkpt lat="50.29033" lon="3.45642">
        <ele>31.8</ele>
        <time>2023-08-06T09:05:21Z</time>
      </trkpt>
      <trkpt lat="50.29035" lon="3.45644">
        <ele>32</ele>
        <time>2023-08-06T09:05:22Z</time>
      </trkpt>
      <trkpt lat="50.29035" lon="3.45644">
        <ele>32.2</ele>
        <time>2023-08-06T09:05:23Z</time>
      </trkpt>
      <trkpt lat="50.29039" lon="3.45647">
        <ele>32.2</ele>
        <time>2023-08-06T09:05:24Z</time>
      </trkpt>
      <trkpt lat="50.29041" lon="3.45649">
        <ele>32.4</ele>
        <time>2023-08-06T09:05:25Z</time>
      </trkpt>
      <trkpt lat="50.29043" lon="3.45651">
        <ele>32.4</ele>
        <time>2023-08-06T09:05:26Z</time>
      </trkpt>
      <trkpt lat="50.29045" lon="3.45653">
        <ele>32.6</ele>
        <time>2023-08-06T09:05:27Z</time>
      </trkpt>
      <trkpt lat="50.29047" lon="3.45655">
        <ele>32.6</ele>
        <time>2023-08-06T09:05:28Z</time>
      </trkpt>
      <trkpt lat="50.29049" lon="3.45656">
        <ele>32.8</ele>
        <time>2023-08-06T09:05:29Z</time>
      </trkpt>
      <trkpt lat="50.29051" lon="3.45658">
        <ele>32.8</ele>
        <time>2023-08-06T09:05:30Z</time>
      </trkpt>
      <trkpt lat="50.29053" lon="3.4566">
        <ele>32.8</ele>
        <time>2023-08-06T09:05:31Z</time>
      </trkpt>
      <trkpt lat="50.29055" lon="3.45662">
        <ele>33</ele>
        <time>2023-08-06T09:05:32Z</time>
      </trkpt>
      <trkpt lat="50.29057" lon="3.45664">
        <ele>33.2</ele>
        <time>2023-08-06T09:05:33Z</time>
      </trkpt>
      <trkpt lat="50.29059" lon="3.45666">
        <ele>33.2</ele>
        <time>2023-08-06T09:05:34Z</time>
      </trkpt>
      <trkpt lat="50.29061" lon="3.45667">
        <ele>33.4</ele>
        <time>2023-08-06T09:05:35Z</time>
      </trkpt>
      <trkpt lat="50.29063" lon="3.45669">
        <ele>33.6</ele>
        <time>2023-08-06T09:05:36Z</time>
      </trkpt>
      <trkpt lat="50.29065" lon="3.45671">
        <ele>33.6</ele>
        <time>2023-08-06T09:05:37Z</time>
      </trkpt>
      <trkpt lat="50.29065" lon="3.45671">
        <ele>34</ele>
        <time>2023-08-06T09:05:38Z</time>
      </trkpt>
      <trkpt lat="50.29069" lon="3.45675">
        <ele>34</ele>
        <time>2023-08-06T09:05:39Z</time>
      </trkpt>
      <trkpt lat="50.29071" lon="3.45677">
        <ele>34.2</ele>
        <time>2023-08-06T09:05:40Z</time>
      </trkpt>
      <trkpt lat="50.29074" lon="3.4568">
        <ele>34.4</ele>
        <time>2023-08-06T09:05:41Z</time>
      </trkpt>
      <trkpt lat="50.29076" lon="3.45682">
        <ele>34.4</ele>
        <time>2023-08-06T09:05:42Z</time>
      </trkpt>
      <trkpt lat="50.29076" lon="3.45682">
        <ele>34.6</ele>
        <time>2023-08-06T09:05:43Z</time>
      </trkpt>
      <trkpt lat="50.2908" lon="3.45686">
        <ele>34.6</ele>
        <time>2023-08-06T09:05:44Z</time>
      </trkpt>
      <trkpt lat="50.29082" lon="3.45689">
        <ele>34.8</ele>
        <time>2023-08-06T09:05:45Z</time>
      </trkpt>
      <trkpt lat="50.29085" lon="3.45691">
        <ele>34.8</ele>
        <time>2023-08-06T09:05:46Z</time>
      </trkpt>
      <trkpt lat="50.29087" lon="3.45693">
        <ele>35</ele>
        <time>2023-08-06T09:05:47Z</time>
      </trkpt>
      <trkpt lat="50.29089" lon="3.45695">
        <ele>35.2</ele>
        <time>2023-08-06T09:05:48Z</time>
      </trkpt>
      <trkpt lat="50.29092" lon="3.45697">
        <ele>35.4</ele>
        <time>2023-08-06T09:05:49Z</time>
      </trkpt>
      <trkpt lat="50.29094" lon="3.45698">
        <ele>35.4</ele>
        <time>2023-08-06T09:05:50Z</time>
      </trkpt>
      <trkpt lat="50.29097" lon="3.457">
        <ele>35.4</ele>
        <time>2023-08-06T09:05:51Z</time>
      </trkpt>
      <trkpt lat="50.29099" lon="3.45702">
        <ele>35.4</ele>
        <time>2023-08-06T09:05:52Z</time>
      </trkpt>
      <trkpt lat="50.29101" lon="3.45705">
        <ele>35.4</ele>
        <time>2023-08-06T09:05:53Z</time>
      </trkpt>
      <trkpt lat="50.29104" lon="3.45707">
        <ele>35.6</ele>
        <time>2023-08-06T09:05:54Z</time>
      </trkpt>
      <trkpt lat="50.29106" lon="3.45709">
        <ele>35.6</ele>
        <time>2023-08-06T09:05:55Z</time>
      </trkpt>
      <trkpt lat="50.29108" lon="3.45711">
        <ele>35.6</ele>
        <time>2023-08-06T09:05:56Z</time>
      </trkpt>
      <trkpt lat="50.29111" lon="3.45714">
        <ele>35.6</ele>
        <time>2023-08-06T09:05:57Z</time>
      </trkpt>
      <trkpt lat="50.29113" lon="3.45716">
        <ele>35.6</ele>
        <time>2023-08-06T09:05:58Z</time>
      </trkpt>
      <trkpt lat="50.29116" lon="3.45718">
        <ele>35.6</ele>
        <time>2023-08-06T09:05:59Z</time>
      </trkpt>
      <trkpt lat="50.29118" lon="3.45721">
        <ele>35.8</ele>
        <time>2023-08-06T09:06:00Z</time>
      </trkpt>
      <trkpt lat="50.2912" lon="3.45723">
        <ele>35.8</ele>
        <time>2023-08-06T09:06:01Z</time>
      </trkpt>
      <trkpt lat="50.29137" lon="3.45738">
        <ele>36.6</ele>
        <time>2023-08-06T09:06:08Z</time>
      </trkpt>
      <trkpt lat="50.29164" lon="3.45762">
        <ele>37.2</ele>
        <time>2023-08-06T09:06:18Z</time>
      </trkpt>
      <trkpt lat="50.29176" lon="3.4577">
        <ele>37.6</ele>
        <time>2023-08-06T09:06:22Z</time>
      </trkpt>
      <trkpt lat="50.29184" lon="3.45776">
        <ele>37.6</ele>
        <time>2023-08-06T09:06:25Z</time>
      </trkpt>
      <trkpt lat="50.29192" lon="3.45784">
        <ele>38</ele>
        <time>2023-08-06T09:06:28Z</time>
      </trkpt>
      <trkpt lat="50.29203" lon="3.45794">
        <ele>38.2</ele>
        <time>2023-08-06T09:06:32Z</time>
      </trkpt>
      <trkpt lat="50.29222" lon="3.45812">
        <ele>38.2</ele>
        <time>2023-08-06T09:06:39Z</time>
      </trkpt>
      <trkpt lat="50.29242" lon="3.45832">
        <ele>38.6</ele>
        <time>2023-08-06T09:06:46Z</time>
      </trkpt>
      <trkpt lat="50.29245" lon="3.45835">
        <ele>38.6</ele>
        <time>2023-08-06T09:06:47Z</time>
      </trkpt>
      <trkpt lat="50.29271" lon="3.45863">
        <ele>38.8</ele>
        <time>2023-08-06T09:06:55Z</time>
      </trkpt>
      <trkpt lat="50.29292" lon="3.4589">
        <ele>39</ele>
        <time>2023-08-06T09:07:02Z</time>
      </trkpt>
      <trkpt lat="50.29295" lon="3.45893">
        <ele>39</ele>
        <time>2023-08-06T09:07:03Z</time>
      </trkpt>
      <trkpt lat="50.29298" lon="3.45896">
        <ele>39.2</ele>
        <time>2023-08-06T09:07:04Z</time>
      </trkpt>
      <trkpt lat="50.293" lon="3.459">
        <ele>39.2</ele>
        <time>2023-08-06T09:07:05Z</time>
      </trkpt>
      <trkpt lat="50.29302" lon="3.45904">
        <ele>39.4</ele>
        <time>2023-08-06T09:07:06Z</time>
      </trkpt>
      <trkpt lat="50.29304" lon="3.45909">
        <ele>39.6</ele>
        <time>2023-08-06T09:07:07Z</time>
      </trkpt>
      <trkpt lat="50.29306" lon="3.45913">
        <ele>39.6</ele>
        <time>2023-08-06T09:07:08Z</time>
      </trkpt>
      <trkpt lat="50.2932" lon="3.45942">
        <ele>39.8</ele>
        <time>2023-08-06T09:07:14Z</time>
      </trkpt>
      <trkpt lat="50.29338" lon="3.45977">
        <ele>39.8</ele>
        <time>2023-08-06T09:07:22Z</time>
      </trkpt>
      <trkpt lat="50.2934" lon="3.45981">
        <ele>39.8</ele>
        <time>2023-08-06T09:07:23Z</time>
      </trkpt>
      <trkpt lat="50.29342" lon="3.45985">
        <ele>39.8</ele>
        <time>2023-08-06T09:07:24Z</time>
      </trkpt>
      <trkpt lat="50.29355" lon="3.46013">
        <ele>40</ele>
        <time>2023-08-06T09:07:30Z</time>
      </trkpt>
      <trkpt lat="50.2936" lon="3.46022">
        <ele>40</ele>
        <time>2023-08-06T09:07:32Z</time>
      </trkpt>
      <trkpt lat="50.29366" lon="3.46035">
        <ele>40.2</ele>
        <time>2023-08-06T09:07:35Z</time>
      </trkpt>
      <trkpt lat="50.29376" lon="3.46051">
        <ele>40.4</ele>
        <time>2023-08-06T09:07:39Z</time>
      </trkpt>
      <trkpt lat="50.294" lon="3.46075">
        <ele>40.6</ele>
        <time>2023-08-06T09:07:47Z</time>
      </trkpt>
      <trkpt lat="50.29428" lon="3.46101">
        <ele>40.6</ele>
        <time>2023-08-06T09:07:56Z</time>
      </trkpt>
      <trkpt lat="50.29431" lon="3.46104">
        <ele>40.6</ele>
        <time>2023-08-06T09:07:57Z</time>
      </trkpt>
      <trkpt lat="50.29433" lon="3.46107">
        <ele>40.6</ele>
        <time>2023-08-06T09:07:58Z</time>
      </trkpt>
      <trkpt lat="50.29439" lon="3.46113">
        <ele>40.6</ele>
        <time>2023-08-06T09:08:00Z</time>
      </trkpt>
      <trkpt lat="50.29442" lon="3.46116">
        <ele>40.8</ele>
        <time>2023-08-06T09:08:01Z</time>
      </trkpt>
      <trkpt lat="50.29444" lon="3.46119">
        <ele>40.8</ele>
        <time>2023-08-06T09:08:02Z</time>
      </trkpt>
      <trkpt lat="50.29447" lon="3.46122">
        <ele>40.8</ele>
        <time>2023-08-06T09:08:03Z</time>
      </trkpt>
      <trkpt lat="50.2945" lon="3.46124">
        <ele>40.8</ele>
        <time>2023-08-06T09:08:04Z</time>
      </trkpt>
      <trkpt lat="50.29453" lon="3.46127">
        <ele>40.8</ele>
        <time>2023-08-06T09:08:05Z</time>
      </trkpt>
      <trkpt lat="50.29456" lon="3.4613">
        <ele>40.8</ele>
        <time>2023-08-06T09:08:06Z</time>
      </trkpt>
      <trkpt lat="50.29459" lon="3.46132">
        <ele>40.8</ele>
        <time>2023-08-06T09:08:07Z</time>
      </trkpt>
      <trkpt lat="50.29461" lon="3.46135">
        <ele>40.8</ele>
        <time>2023-08-06T09:08:08Z</time>
      </trkpt>
      <trkpt lat="50.29464" lon="3.46138">
        <ele>40.8</ele>
        <time>2023-08-06T09:08:09Z</time>
      </trkpt>
      <trkpt lat="50.2947" lon="3.46144">
        <ele>41</ele>
        <time>2023-08-06T09:08:11Z</time>
      </trkpt>
      <trkpt lat="50.29481" lon="3.46155">
        <ele>41.2</ele>
        <time>2023-08-06T09:08:15Z</time>
      </trkpt>
      <trkpt lat="50.29486" lon="3.46161">
        <ele>41.2</ele>
        <time>2023-08-06T09:08:17Z</time>
      </trkpt>
      <trkpt lat="50.29489" lon="3.46164">
        <ele>41.4</ele>
        <time>2023-08-06T09:08:18Z</time>
      </trkpt>
      <trkpt lat="50.29492" lon="3.46166">
        <ele>41.4</ele>
        <time>2023-08-06T09:08:19Z</time>
      </trkpt>
      <trkpt lat="50.29494" lon="3.4617">
        <ele>41.4</ele>
        <time>2023-08-06T09:08:20Z</time>
      </trkpt>
      <trkpt lat="50.29497" lon="3.46173">
        <ele>41.6</ele>
        <time>2023-08-06T09:08:21Z</time>
      </trkpt>
      <trkpt lat="50.29499" lon="3.46176">
        <ele>41.6</ele>
        <time>2023-08-06T09:08:22Z</time>
      </trkpt>
      <trkpt lat="50.29502" lon="3.46179">
        <ele>41.8</ele>
        <time>2023-08-06T09:08:23Z</time>
      </trkpt>
      <trkpt lat="50.29507" lon="3.46185">
        <ele>41.8</ele>
        <time>2023-08-06T09:08:25Z</time>
      </trkpt>
      <trkpt lat="50.29529" lon="3.46211">
        <ele>42.6</ele>
        <time>2023-08-06T09:08:33Z</time>
      </trkpt>
      <trkpt lat="50.29538" lon="3.46221">
        <ele>42.6</ele>
        <time>2023-08-06T09:08:36Z</time>
      </trkpt>
      <trkpt lat="50.29563" lon="3.46253">
        <ele>43.2</ele>
        <time>2023-08-06T09:08:45Z</time>
      </trkpt>
      <trkpt lat="50.29581" lon="3.46281">
        <ele>43.6</ele>
        <time>2023-08-06T09:08:52Z</time>
      </trkpt>
      <trkpt lat="50.29588" lon="3.46292">
        <ele>43.6</ele>
        <time>2023-08-06T09:08:55Z</time>
      </trkpt>
      <trkpt lat="50.29602" lon="3.46308">
        <ele>43.6</ele>
        <time>2023-08-06T09:09:00Z</time>
      </trkpt>
      <trkpt lat="50.29605" lon="3.46312">
        <ele>43.8</ele>
        <time>2023-08-06T09:09:02Z</time>
      </trkpt>
      <trkpt lat="50.29634" lon="3.46351">
        <ele>44.2</ele>
        <time>2023-08-06T09:09:12Z</time>
      </trkpt>
      <trkpt lat="50.29649" lon="3.46373">
        <ele>44.4</ele>
        <time>2023-08-06T09:09:18Z</time>
      </trkpt>
      <trkpt lat="50.29651" lon="3.46376">
        <ele>44.4</ele>
        <time>2023-08-06T09:09:19Z</time>
      </trkpt>
      <trkpt lat="50.29653" lon="3.4638">
        <ele>44.4</ele>
        <time>2023-08-06T09:09:20Z</time>
      </trkpt>
      <trkpt lat="50.29656" lon="3.46385">
        <ele>44.6</ele>
        <time>2023-08-06T09:09:21Z</time>
      </trkpt>
      <trkpt lat="50.29663" lon="3.46397">
        <ele>44.8</ele>
        <time>2023-08-06T09:09:24Z</time>
      </trkpt>
      <trkpt lat="50.29673" lon="3.46415">
        <ele>45</ele>
        <time>2023-08-06T09:09:28Z</time>
      </trkpt>
      <trkpt lat="50.29686" lon="3.46441">
        <ele>45</ele>
        <time>2023-08-06T09:09:34Z</time>
      </trkpt>
      <trkpt lat="50.29688" lon="3.46445">
        <ele>45</ele>
        <time>2023-08-06T09:09:35Z</time>
      </trkpt>
      <trkpt lat="50.2969" lon="3.46449">
        <ele>45.2</ele>
        <time>2023-08-06T09:09:36Z</time>
      </trkpt>
      <trkpt lat="50.29695" lon="3.46458">
        <ele>45.2</ele>
        <time>2023-08-06T09:09:38Z</time>
      </trkpt>
      <trkpt lat="50.29718" lon="3.46505">
        <ele>44.6</ele>
        <time>2023-08-06T09:09:47Z</time>
      </trkpt>
      <trkpt lat="50.29744" lon="3.46567">
        <ele>44</ele>
        <time>2023-08-06T09:09:58Z</time>
      </trkpt>
      <trkpt lat="50.29762" lon="3.46614">
        <ele>44</ele>
        <time>2023-08-06T09:10:06Z</time>
      </trkpt>
      <trkpt lat="50.29764" lon="3.4662">
        <ele>43.8</ele>
        <time>2023-08-06T09:10:07Z</time>
      </trkpt>
      <trkpt lat="50.29766" lon="3.46626">
        <ele>43.8</ele>
        <time>2023-08-06T09:10:08Z</time>
      </trkpt>
      <trkpt lat="50.29768" lon="3.46632">
        <ele>43.8</ele>
        <time>2023-08-06T09:10:09Z</time>
      </trkpt>
      <trkpt lat="50.2979" lon="3.46694">
        <ele>43.4</ele>
        <time>2023-08-06T09:10:18Z</time>
      </trkpt>
      <trkpt lat="50.29812" lon="3.46753">
        <ele>42.6</ele>
        <time>2023-08-06T09:10:26Z</time>
      </trkpt>
      <trkpt lat="50.29836" lon="3.46811">
        <ele>41.4</ele>
        <time>2023-08-06T09:10:34Z</time>
      </trkpt>
      <trkpt lat="50.29841" lon="3.46825">
        <ele>41.2</ele>
        <time>2023-08-06T09:10:36Z</time>
      </trkpt>
      <trkpt lat="50.29845" lon="3.46831">
        <ele>41</ele>
        <time>2023-08-06T09:10:37Z</time>
      </trkpt>
      <trkpt lat="50.29848" lon="3.46838">
        <ele>40.8</ele>
        <time>2023-08-06T09:10:38Z</time>
      </trkpt>
      <trkpt lat="50.29857" lon="3.46859">
        <ele>40.4</ele>
        <time>2023-08-06T09:10:41Z</time>
      </trkpt>
      <trkpt lat="50.2987" lon="3.46888">
        <ele>40.2</ele>
        <time>2023-08-06T09:10:45Z</time>
      </trkpt>
      <trkpt lat="50.29897" lon="3.46954">
        <ele>39.4</ele>
        <time>2023-08-06T09:10:54Z</time>
      </trkpt>
      <trkpt lat="50.299" lon="3.46962">
        <ele>39</ele>
        <time>2023-08-06T09:10:55Z</time>
      </trkpt>
      <trkpt lat="50.29929" lon="3.47035">
        <ele>38.2</ele>
        <time>2023-08-06T09:11:04Z</time>
      </trkpt>
      <trkpt lat="50.29938" lon="3.47058">
        <ele>37.8</ele>
        <time>2023-08-06T09:11:07Z</time>
      </trkpt>
      <trkpt lat="50.29961" lon="3.47111">
        <ele>37.2</ele>
        <time>2023-08-06T09:11:14Z</time>
      </trkpt>
      <trkpt lat="50.29964" lon="3.47118">
        <ele>37.2</ele>
        <time>2023-08-06T09:11:15Z</time>
      </trkpt>
      <trkpt lat="50.29973" lon="3.47141">
        <ele>37.2</ele>
        <time>2023-08-06T09:11:18Z</time>
      </trkpt>
      <trkpt lat="50.29976" lon="3.47148">
        <ele>37.2</ele>
        <time>2023-08-06T09:11:19Z</time>
      </trkpt>
      <trkpt lat="50.29982" lon="3.47163">
        <ele>37.2</ele>
        <time>2023-08-06T09:11:21Z</time>
      </trkpt>
      <trkpt lat="50.29985" lon="3.47171">
        <ele>37.2</ele>
        <time>2023-08-06T09:11:22Z</time>
      </trkpt>
      <trkpt lat="50.29988" lon="3.47186">
        <ele>36.8</ele>
        <time>2023-08-06T09:11:24Z</time>
      </trkpt>
      <trkpt lat="50.29989" lon="3.47193">
        <ele>36.8</ele>
        <time>2023-08-06T09:11:25Z</time>
      </trkpt>
      <trkpt lat="50.2999" lon="3.47201">
        <ele>36.6</ele>
        <time>2023-08-06T09:11:26Z</time>
      </trkpt>
      <trkpt lat="50.29991" lon="3.47209">
        <ele>36.6</ele>
        <time>2023-08-06T09:11:27Z</time>
      </trkpt>
      <trkpt lat="50.29997" lon="3.47243">
        <ele>36.2</ele>
        <time>2023-08-06T09:11:31Z</time>
      </trkpt>
      <trkpt lat="50.29999" lon="3.47259">
        <ele>36.2</ele>
        <time>2023-08-06T09:11:33Z</time>
      </trkpt>
      <trkpt lat="50.30001" lon="3.47275">
        <ele>36.4</ele>
        <time>2023-08-06T09:11:35Z</time>
      </trkpt>
      <trkpt lat="50.30003" lon="3.47297">
        <ele>36.2</ele>
        <time>2023-08-06T09:11:38Z</time>
      </trkpt>
      <trkpt lat="50.30004" lon="3.47305">
        <ele>36.2</ele>
        <time>2023-08-06T09:11:39Z</time>
      </trkpt>
      <trkpt lat="50.30004" lon="3.47312">
        <ele>36.2</ele>
        <time>2023-08-06T09:11:40Z</time>
      </trkpt>
      <trkpt lat="50.30005" lon="3.47319">
        <ele>36.2</ele>
        <time>2023-08-06T09:11:41Z</time>
      </trkpt>
      <trkpt lat="50.30006" lon="3.47325">
        <ele>36.2</ele>
        <time>2023-08-06T09:11:42Z</time>
      </trkpt>
      <trkpt lat="50.30006" lon="3.47332">
        <ele>36.2</ele>
        <time>2023-08-06T09:11:43Z</time>
      </trkpt>
      <trkpt lat="50.30007" lon="3.47339">
        <ele>36</ele>
        <time>2023-08-06T09:11:44Z</time>
      </trkpt>
      <trkpt lat="50.30008" lon="3.47346">
        <ele>35.8</ele>
        <time>2023-08-06T09:11:45Z</time>
      </trkpt>
      <trkpt lat="50.30009" lon="3.47352">
        <ele>35.8</ele>
        <time>2023-08-06T09:11:46Z</time>
      </trkpt>
      <trkpt lat="50.30009" lon="3.47359">
        <ele>35.6</ele>
        <time>2023-08-06T09:11:47Z</time>
      </trkpt>
      <trkpt lat="50.3001" lon="3.47366">
        <ele>35.6</ele>
        <time>2023-08-06T09:11:48Z</time>
      </trkpt>
      <trkpt lat="50.30011" lon="3.47373">
        <ele>35.6</ele>
        <time>2023-08-06T09:11:49Z</time>
      </trkpt>
      <trkpt lat="50.30019" lon="3.47424">
        <ele>34.6</ele>
        <time>2023-08-06T09:11:56Z</time>
      </trkpt>
      <trkpt lat="50.30022" lon="3.47432">
        <ele>34.6</ele>
        <time>2023-08-06T09:11:57Z</time>
      </trkpt>
      <trkpt lat="50.3003" lon="3.47463">
        <ele>34.6</ele>
        <time>2023-08-06T09:12:02Z</time>
      </trkpt>
      <trkpt lat="50.30032" lon="3.4747">
        <ele>34.6</ele>
        <time>2023-08-06T09:12:03Z</time>
      </trkpt>
      <trkpt lat="50.30036" lon="3.47483">
        <ele>34.6</ele>
        <time>2023-08-06T09:12:05Z</time>
      </trkpt>
      <trkpt lat="50.30038" lon="3.47489">
        <ele>34.6</ele>
        <time>2023-08-06T09:12:06Z</time>
      </trkpt>
      <trkpt lat="50.30039" lon="3.47496">
        <ele>34.6</ele>
        <time>2023-08-06T09:12:07Z</time>
      </trkpt>
      <trkpt lat="50.30057" lon="3.47557">
        <ele>35.2</ele>
        <time>2023-08-06T09:12:16Z</time>
      </trkpt>
      <trkpt lat="50.30065" lon="3.47588">
        <ele>35.4</ele>
        <time>2023-08-06T09:12:21Z</time>
      </trkpt>
      <trkpt lat="50.30073" lon="3.47615">
        <ele>35.6</ele>
        <time>2023-08-06T09:12:25Z</time>
      </trkpt>
      <trkpt lat="50.30088" lon="3.47668">
        <ele>35.8</ele>
        <time>2023-08-06T09:12:33Z</time>
      </trkpt>
      <trkpt lat="50.3011" lon="3.47728">
        <ele>36.6</ele>
        <time>2023-08-06T09:12:42Z</time>
      </trkpt>
      <trkpt lat="50.30137" lon="3.47784">
        <ele>36.4</ele>
        <time>2023-08-06T09:12:50Z</time>
      </trkpt>
      <trkpt lat="50.30154" lon="3.47817">
        <ele>35.8</ele>
        <time>2023-08-06T09:12:55Z</time>
      </trkpt>
      <trkpt lat="50.30157" lon="3.47823">
        <ele>35.8</ele>
        <time>2023-08-06T09:12:56Z</time>
      </trkpt>
      <trkpt lat="50.3016" lon="3.4783">
        <ele>35.6</ele>
        <time>2023-08-06T09:12:57Z</time>
      </trkpt>
      <trkpt lat="50.30164" lon="3.47837">
        <ele>35.6</ele>
        <time>2023-08-06T09:12:58Z</time>
      </trkpt>
      <trkpt lat="50.30168" lon="3.47845">
        <ele>35.4</ele>
        <time>2023-08-06T09:12:59Z</time>
      </trkpt>
      <trkpt lat="50.30171" lon="3.47851">
        <ele>35.2</ele>
        <time>2023-08-06T09:13:00Z</time>
      </trkpt>
      <trkpt lat="50.30185" lon="3.47879">
        <ele>34.4</ele>
        <time>2023-08-06T09:13:04Z</time>
      </trkpt>
      <trkpt lat="50.302" lon="3.47908">
        <ele>34</ele>
        <time>2023-08-06T09:13:08Z</time>
      </trkpt>
      <trkpt lat="50.30226" lon="3.47971">
        <ele>33.4</ele>
        <time>2023-08-06T09:13:16Z</time>
      </trkpt>
      <trkpt lat="50.30248" lon="3.48043">
        <ele>32.6</ele>
        <time>2023-08-06T09:13:24Z</time>
      </trkpt>
      <trkpt lat="50.30251" lon="3.48053">
        <ele>32.4</ele>
        <time>2023-08-06T09:13:25Z</time>
      </trkpt>
      <trkpt lat="50.30257" lon="3.48071">
        <ele>32</ele>
        <time>2023-08-06T09:13:27Z</time>
      </trkpt>
      <trkpt lat="50.30265" lon="3.48089">
        <ele>31.8</ele>
        <time>2023-08-06T09:13:29Z</time>
      </trkpt>
      <trkpt lat="50.30283" lon="3.48122">
        <ele>31.2</ele>
        <time>2023-08-06T09:13:33Z</time>
      </trkpt>
      <trkpt lat="50.30297" lon="3.48148">
        <ele>30.4</ele>
        <time>2023-08-06T09:13:36Z</time>
      </trkpt>
      <trkpt lat="50.30304" lon="3.48167">
        <ele>30</ele>
        <time>2023-08-06T09:13:38Z</time>
      </trkpt>
      <trkpt lat="50.30307" lon="3.48186">
        <ele>29.6</ele>
        <time>2023-08-06T09:13:40Z</time>
      </trkpt>
      <trkpt lat="50.30306" lon="3.48194">
        <ele>29.6</ele>
        <time>2023-08-06T09:13:41Z</time>
      </trkpt>
      <trkpt lat="50.30304" lon="3.482">
        <ele>29.4</ele>
        <time>2023-08-06T09:13:42Z</time>
      </trkpt>
      <trkpt lat="50.303" lon="3.48205">
        <ele>29.4</ele>
        <time>2023-08-06T09:13:43Z</time>
      </trkpt>
      <trkpt lat="50.30297" lon="3.48209">
        <ele>29.2</ele>
        <time>2023-08-06T09:13:44Z</time>
      </trkpt>
      <trkpt lat="50.30294" lon="3.48213">
        <ele>29.2</ele>
        <time>2023-08-06T09:13:45Z</time>
      </trkpt>
      <trkpt lat="50.30292" lon="3.48216">
        <ele>29.2</ele>
        <time>2023-08-06T09:13:46Z</time>
      </trkpt>
      <trkpt lat="50.30289" lon="3.4822">
        <ele>29.2</ele>
        <time>2023-08-06T09:13:47Z</time>
      </trkpt>
      <trkpt lat="50.30286" lon="3.48223">
        <ele>29.2</ele>
        <time>2023-08-06T09:13:48Z</time>
      </trkpt>
      <trkpt lat="50.3028" lon="3.4823">
        <ele>29.4</ele>
        <time>2023-08-06T09:13:50Z</time>
      </trkpt>
      <trkpt lat="50.30277" lon="3.48234">
        <ele>29.4</ele>
        <time>2023-08-06T09:13:51Z</time>
      </trkpt>
      <trkpt lat="50.30275" lon="3.48237">
        <ele>29.4</ele>
        <time>2023-08-06T09:13:52Z</time>
      </trkpt>
      <trkpt lat="50.30272" lon="3.48241">
        <ele>29.4</ele>
        <time>2023-08-06T09:13:53Z</time>
      </trkpt>
      <trkpt lat="50.30269" lon="3.48244">
        <ele>29.8</ele>
        <time>2023-08-06T09:13:54Z</time>
      </trkpt>
      <trkpt lat="50.30266" lon="3.48247">
        <ele>30</ele>
        <time>2023-08-06T09:13:55Z</time>
      </trkpt>
      <trkpt lat="50.30263" lon="3.48249">
        <ele>30.2</ele>
        <time>2023-08-06T09:13:56Z</time>
      </trkpt>
      <trkpt lat="50.3026" lon="3.48252">
        <ele>30.4</ele>
        <time>2023-08-06T09:13:57Z</time>
      </trkpt>
      <trkpt lat="50.30257" lon="3.48255">
        <ele>30.4</ele>
        <time>2023-08-06T09:13:58Z</time>
      </trkpt>
      <trkpt lat="50.30248" lon="3.48266">
        <ele>30.4</ele>
        <time>2023-08-06T09:14:01Z</time>
      </trkpt>
      <trkpt lat="50.30236" lon="3.4828">
        <ele>30.8</ele>
        <time>2023-08-06T09:14:05Z</time>
      </trkpt>
      <trkpt lat="50.30228" lon="3.48289">
        <ele>31.8</ele>
        <time>2023-08-06T09:14:08Z</time>
      </trkpt>
      <trkpt lat="50.30225" lon="3.48291">
        <ele>31.8</ele>
        <time>2023-08-06T09:14:09Z</time>
      </trkpt>
      <trkpt lat="50.30222" lon="3.48294">
        <ele>32</ele>
        <time>2023-08-06T09:14:10Z</time>
      </trkpt>
      <trkpt lat="50.30217" lon="3.483">
        <ele>32.2</ele>
        <time>2023-08-06T09:14:12Z</time>
      </trkpt>
      <trkpt lat="50.30214" lon="3.48303">
        <ele>32.4</ele>
        <time>2023-08-06T09:14:13Z</time>
      </trkpt>
      <trkpt lat="50.30211" lon="3.48305">
        <ele>32.4</ele>
        <time>2023-08-06T09:14:14Z</time>
      </trkpt>
      <trkpt lat="50.30209" lon="3.48308">
        <ele>32.6</ele>
        <time>2023-08-06T09:14:15Z</time>
      </trkpt>
      <trkpt lat="50.30206" lon="3.48311">
        <ele>32.6</ele>
        <time>2023-08-06T09:14:16Z</time>
      </trkpt>
      <trkpt lat="50.30203" lon="3.48314">
        <ele>32.8</ele>
        <time>2023-08-06T09:14:17Z</time>
      </trkpt>
      <trkpt lat="50.302" lon="3.48317">
        <ele>33</ele>
        <time>2023-08-06T09:14:18Z</time>
      </trkpt>
      <trkpt lat="50.30197" lon="3.4832">
        <ele>33</ele>
        <time>2023-08-06T09:14:19Z</time>
      </trkpt>
      <trkpt lat="50.30195" lon="3.48322">
        <ele>33</ele>
        <time>2023-08-06T09:14:20Z</time>
      </trkpt>
      <trkpt lat="50.30192" lon="3.48326">
        <ele>33</ele>
        <time>2023-08-06T09:14:21Z</time>
      </trkpt>
      <trkpt lat="50.30192" lon="3.48326">
        <ele>33</ele>
        <time>2023-08-06T09:14:22Z</time>
      </trkpt>
      <trkpt lat="50.30187" lon="3.48331">
        <ele>33</ele>
        <time>2023-08-06T09:14:23Z</time>
      </trkpt>
      <trkpt lat="50.30185" lon="3.48334">
        <ele>33.2</ele>
        <time>2023-08-06T09:14:24Z</time>
      </trkpt>
      <trkpt lat="50.30182" lon="3.48337">
        <ele>33.2</ele>
        <time>2023-08-06T09:14:25Z</time>
      </trkpt>
      <trkpt lat="50.3018" lon="3.48339">
        <ele>33.2</ele>
        <time>2023-08-06T09:14:26Z</time>
      </trkpt>
      <trkpt lat="50.30177" lon="3.48342">
        <ele>33.2</ele>
        <time>2023-08-06T09:14:27Z</time>
      </trkpt>
      <trkpt lat="50.30175" lon="3.48345">
        <ele>33.2</ele>
        <time>2023-08-06T09:14:28Z</time>
      </trkpt>
      <trkpt lat="50.30172" lon="3.48347">
        <ele>33.4</ele>
        <time>2023-08-06T09:14:29Z</time>
      </trkpt>
      <trkpt lat="50.30165" lon="3.48354">
        <ele>33.4</ele>
        <time>2023-08-06T09:14:32Z</time>
      </trkpt>
      <trkpt lat="50.30163" lon="3.48357">
        <ele>33.6</ele>
        <time>2023-08-06T09:14:33Z</time>
      </trkpt>
      <trkpt lat="50.30161" lon="3.48359">
        <ele>33.6</ele>
        <time>2023-08-06T09:14:34Z</time>
      </trkpt>
      <trkpt lat="50.30158" lon="3.48361">
        <ele>33.8</ele>
        <time>2023-08-06T09:14:35Z</time>
      </trkpt>
      <trkpt lat="50.30156" lon="3.48363">
        <ele>34</ele>
        <time>2023-08-06T09:14:36Z</time>
      </trkpt>
      <trkpt lat="50.30153" lon="3.48365">
        <ele>34</ele>
        <time>2023-08-06T09:14:37Z</time>
      </trkpt>
      <trkpt lat="50.30151" lon="3.48367">
        <ele>34.2</ele>
        <time>2023-08-06T09:14:38Z</time>
      </trkpt>
      <trkpt lat="50.30149" lon="3.48369">
        <ele>34.2</ele>
        <time>2023-08-06T09:14:39Z</time>
      </trkpt>
      <trkpt lat="50.30147" lon="3.48371">
        <ele>34.2</ele>
        <time>2023-08-06T09:14:40Z</time>
      </trkpt>
      <trkpt lat="50.30145" lon="3.48373">
        <ele>34.2</ele>
        <time>2023-08-06T09:14:41Z</time>
      </trkpt>
      <trkpt lat="50.30133" lon="3.48385">
        <ele>34.8</ele>
        <time>2023-08-06T09:14:46Z</time>
      </trkpt>
      <trkpt lat="50.30127" lon="3.48391">
        <ele>35.2</ele>
        <time>2023-08-06T09:14:49Z</time>
      </trkpt>
      <trkpt lat="50.30125" lon="3.48393">
        <ele>35.6</ele>
        <time>2023-08-06T09:14:50Z</time>
      </trkpt>
      <trkpt lat="50.30123" lon="3.48395">
        <ele>35.8</ele>
        <time>2023-08-06T09:14:51Z</time>
      </trkpt>
      <trkpt lat="50.30112" lon="3.48404">
        <ele>36</ele>
        <time>2023-08-06T09:14:56Z</time>
      </trkpt>
      <trkpt lat="50.3011" lon="3.48407">
        <ele>36</ele>
        <time>2023-08-06T09:14:57Z</time>
      </trkpt>
      <trkpt lat="50.30108" lon="3.48409">
        <ele>36</ele>
        <time>2023-08-06T09:14:58Z</time>
      </trkpt>
      <trkpt lat="50.30106" lon="3.48412">
        <ele>36.2</ele>
        <time>2023-08-06T09:14:59Z</time>
      </trkpt>
      <trkpt lat="50.30104" lon="3.48414">
        <ele>36</ele>
        <time>2023-08-06T09:15:00Z</time>
      </trkpt>
      <trkpt lat="50.30102" lon="3.48416">
        <ele>36.2</ele>
        <time>2023-08-06T09:15:01Z</time>
      </trkpt>
      <trkpt lat="50.301" lon="3.48418">
        <ele>36.4</ele>
        <time>2023-08-06T09:15:02Z</time>
      </trkpt>
      <trkpt lat="50.30098" lon="3.4842">
        <ele>36.6</ele>
        <time>2023-08-06T09:15:03Z</time>
      </trkpt>
      <trkpt lat="50.30096" lon="3.48422">
        <ele>36.6</ele>
        <time>2023-08-06T09:15:04Z</time>
      </trkpt>
      <trkpt lat="50.30094" lon="3.48423">
        <ele>36.8</ele>
        <time>2023-08-06T09:15:05Z</time>
      </trkpt>
      <trkpt lat="50.30092" lon="3.48425">
        <ele>36.8</ele>
        <time>2023-08-06T09:15:06Z</time>
      </trkpt>
      <trkpt lat="50.3009" lon="3.48427">
        <ele>37</ele>
        <time>2023-08-06T09:15:07Z</time>
      </trkpt>
      <trkpt lat="50.30088" lon="3.48428">
        <ele>37</ele>
        <time>2023-08-06T09:15:08Z</time>
      </trkpt>
      <trkpt lat="50.30086" lon="3.4843">
        <ele>37</ele>
        <time>2023-08-06T09:15:09Z</time>
      </trkpt>
      <trkpt lat="50.30084" lon="3.48432">
        <ele>37.4</ele>
        <time>2023-08-06T09:15:10Z</time>
      </trkpt>
      <trkpt lat="50.30082" lon="3.48433">
        <ele>37.4</ele>
        <time>2023-08-06T09:15:11Z</time>
      </trkpt>
      <trkpt lat="50.3008" lon="3.48435">
        <ele>37.4</ele>
        <time>2023-08-06T09:15:12Z</time>
      </trkpt>
      <trkpt lat="50.30077" lon="3.48436">
        <ele>37.6</ele>
        <time>2023-08-06T09:15:13Z</time>
      </trkpt>
      <trkpt lat="50.30076" lon="3.48437">
        <ele>37.6</ele>
        <time>2023-08-06T09:15:14Z</time>
      </trkpt>
      <trkpt lat="50.30074" lon="3.48439">
        <ele>37.8</ele>
        <time>2023-08-06T09:15:15Z</time>
      </trkpt>
      <trkpt lat="50.30072" lon="3.4844">
        <ele>37.8</ele>
        <time>2023-08-06T09:15:16Z</time>
      </trkpt>
      <trkpt lat="50.3007" lon="3.48441">
        <ele>38</ele>
        <time>2023-08-06T09:15:17Z</time>
      </trkpt>
      <trkpt lat="50.30068" lon="3.48442">
        <ele>38</ele>
        <time>2023-08-06T09:15:18Z</time>
      </trkpt>
      <trkpt lat="50.30066" lon="3.48443">
        <ele>38.4</ele>
        <time>2023-08-06T09:15:19Z</time>
      </trkpt>
      <trkpt lat="50.30064" lon="3.48445">
        <ele>38.6</ele>
        <time>2023-08-06T09:15:20Z</time>
      </trkpt>
      <trkpt lat="50.30062" lon="3.48446">
        <ele>39</ele>
        <time>2023-08-06T09:15:21Z</time>
      </trkpt>
      <trkpt lat="50.30059" lon="3.48447">
        <ele>39</ele>
        <time>2023-08-06T09:15:22Z</time>
      </trkpt>
      <trkpt lat="50.30057" lon="3.48449">
        <ele>39.2</ele>
        <time>2023-08-06T09:15:23Z</time>
      </trkpt>
      <trkpt lat="50.30055" lon="3.4845">
        <ele>39.4</ele>
        <time>2023-08-06T09:15:24Z</time>
      </trkpt>
      <trkpt lat="50.30053" lon="3.48451">
        <ele>39.4</ele>
        <time>2023-08-06T09:15:25Z</time>
      </trkpt>
      <trkpt lat="50.30052" lon="3.48452">
        <ele>39.8</ele>
        <time>2023-08-06T09:15:26Z</time>
      </trkpt>
      <trkpt lat="50.3005" lon="3.48454">
        <ele>40</ele>
        <time>2023-08-06T09:15:27Z</time>
      </trkpt>
      <trkpt lat="50.30048" lon="3.48455">
        <ele>40</ele>
        <time>2023-08-06T09:15:28Z</time>
      </trkpt>
      <trkpt lat="50.30045" lon="3.48457">
        <ele>40.2</ele>
        <time>2023-08-06T09:15:29Z</time>
      </trkpt>
      <trkpt lat="50.30043" lon="3.48458">
        <ele>40.2</ele>
        <time>2023-08-06T09:15:30Z</time>
      </trkpt>
      <trkpt lat="50.30041" lon="3.48459">
        <ele>40.4</ele>
        <time>2023-08-06T09:15:31Z</time>
      </trkpt>
      <trkpt lat="50.30038" lon="3.4846">
        <ele>40.4</ele>
        <time>2023-08-06T09:15:32Z</time>
      </trkpt>
      <trkpt lat="50.30036" lon="3.48461">
        <ele>40.6</ele>
        <time>2023-08-06T09:15:33Z</time>
      </trkpt>
      <trkpt lat="50.30034" lon="3.48462">
        <ele>40.6</ele>
        <time>2023-08-06T09:15:34Z</time>
      </trkpt>
      <trkpt lat="50.30032" lon="3.48465">
        <ele>41</ele>
        <time>2023-08-06T09:15:35Z</time>
      </trkpt>
      <trkpt lat="50.3003" lon="3.48467">
        <ele>41</ele>
        <time>2023-08-06T09:15:36Z</time>
      </trkpt>
      <trkpt lat="50.30028" lon="3.48468">
        <ele>41.2</ele>
        <time>2023-08-06T09:15:37Z</time>
      </trkpt>
      <trkpt lat="50.30026" lon="3.4847">
        <ele>41.2</ele>
        <time>2023-08-06T09:15:38Z</time>
      </trkpt>
      <trkpt lat="50.30024" lon="3.48472">
        <ele>41.2</ele>
        <time>2023-08-06T09:15:39Z</time>
      </trkpt>
      <trkpt lat="50.30022" lon="3.48473">
        <ele>41.4</ele>
        <time>2023-08-06T09:15:40Z</time>
      </trkpt>
      <trkpt lat="50.30021" lon="3.48475">
        <ele>41.6</ele>
        <time>2023-08-06T09:15:41Z</time>
      </trkpt>
      <trkpt lat="50.30019" lon="3.48477">
        <ele>41.8</ele>
        <time>2023-08-06T09:15:42Z</time>
      </trkpt>
      <trkpt lat="50.30017" lon="3.48479">
        <ele>41.8</ele>
        <time>2023-08-06T09:15:43Z</time>
      </trkpt>
      <trkpt lat="50.30015" lon="3.48481">
        <ele>42</ele>
        <time>2023-08-06T09:15:44Z</time>
      </trkpt>
      <trkpt lat="50.30012" lon="3.48483">
        <ele>42.2</ele>
        <time>2023-08-06T09:15:45Z</time>
      </trkpt>
      <trkpt lat="50.30011" lon="3.48486">
        <ele>42.2</ele>
        <time>2023-08-06T09:15:46Z</time>
      </trkpt>
      <trkpt lat="50.3001" lon="3.48489">
        <ele>42.2</ele>
        <time>2023-08-06T09:15:47Z</time>
      </trkpt>
      <trkpt lat="50.30008" lon="3.48492">
        <ele>42.2</ele>
        <time>2023-08-06T09:15:48Z</time>
      </trkpt>
      <trkpt lat="50.30007" lon="3.48495">
        <ele>42.4</ele>
        <time>2023-08-06T09:15:49Z</time>
      </trkpt>
      <trkpt lat="50.30006" lon="3.48498">
        <ele>42.6</ele>
        <time>2023-08-06T09:15:50Z</time>
      </trkpt>
      <trkpt lat="50.30005" lon="3.48501">
        <ele>43</ele>
        <time>2023-08-06T09:15:51Z</time>
      </trkpt>
      <trkpt lat="50.30003" lon="3.48503">
        <ele>43.2</ele>
        <time>2023-08-06T09:15:52Z</time>
      </trkpt>
      <trkpt lat="50.30002" lon="3.48506">
        <ele>43.2</ele>
        <time>2023-08-06T09:15:53Z</time>
      </trkpt>
      <trkpt lat="50.3" lon="3.48508">
        <ele>43.4</ele>
        <time>2023-08-06T09:15:54Z</time>
      </trkpt>
      <trkpt lat="50.29999" lon="3.48511">
        <ele>43.4</ele>
        <time>2023-08-06T09:15:55Z</time>
      </trkpt>
      <trkpt lat="50.29997" lon="3.48514">
        <ele>43.8</ele>
        <time>2023-08-06T09:15:56Z</time>
      </trkpt>
      <trkpt lat="50.29996" lon="3.48517">
        <ele>43.8</ele>
        <time>2023-08-06T09:15:57Z</time>
      </trkpt>
      <trkpt lat="50.29994" lon="3.48519">
        <ele>44.2</ele>
        <time>2023-08-06T09:15:58Z</time>
      </trkpt>
      <trkpt lat="50.29993" lon="3.48521">
        <ele>44.2</ele>
        <time>2023-08-06T09:15:59Z</time>
      </trkpt>
      <trkpt lat="50.29991" lon="3.48524">
        <ele>44.4</ele>
        <time>2023-08-06T09:16:00Z</time>
      </trkpt>
      <trkpt lat="50.2999" lon="3.48527">
        <ele>44.4</ele>
        <time>2023-08-06T09:16:01Z</time>
      </trkpt>
      <trkpt lat="50.29988" lon="3.48529">
        <ele>44.4</ele>
        <time>2023-08-06T09:16:02Z</time>
      </trkpt>
      <trkpt lat="50.29986" lon="3.48532">
        <ele>44.4</ele>
        <time>2023-08-06T09:16:03Z</time>
      </trkpt>
      <trkpt lat="50.29985" lon="3.48534">
        <ele>44.4</ele>
        <time>2023-08-06T09:16:04Z</time>
      </trkpt>
      <trkpt lat="50.29982" lon="3.48536">
        <ele>44.6</ele>
        <time>2023-08-06T09:16:05Z</time>
      </trkpt>
      <trkpt lat="50.2998" lon="3.48538">
        <ele>44.8</ele>
        <time>2023-08-06T09:16:06Z</time>
      </trkpt>
      <trkpt lat="50.29979" lon="3.48541">
        <ele>44.8</ele>
        <time>2023-08-06T09:16:07Z</time>
      </trkpt>
      <trkpt lat="50.29977" lon="3.48543">
        <ele>44.8</ele>
        <time>2023-08-06T09:16:08Z</time>
      </trkpt>
      <trkpt lat="50.29975" lon="3.48546">
        <ele>45</ele>
        <time>2023-08-06T09:16:09Z</time>
      </trkpt>
      <trkpt lat="50.29974" lon="3.48548">
        <ele>45</ele>
        <time>2023-08-06T09:16:10Z</time>
      </trkpt>
      <trkpt lat="50.29972" lon="3.48551">
        <ele>45</ele>
        <time>2023-08-06T09:16:11Z</time>
      </trkpt>
      <trkpt lat="50.29971" lon="3.48554">
        <ele>45</ele>
        <time>2023-08-06T09:16:12Z</time>
      </trkpt>
      <trkpt lat="50.29969" lon="3.48557">
        <ele>45</ele>
        <time>2023-08-06T09:16:13Z</time>
      </trkpt>
      <trkpt lat="50.29968" lon="3.4856">
        <ele>45</ele>
        <time>2023-08-06T09:16:14Z</time>
      </trkpt>
      <trkpt lat="50.29966" lon="3.48562">
        <ele>45</ele>
        <time>2023-08-06T09:16:15Z</time>
      </trkpt>
      <trkpt lat="50.29964" lon="3.48565">
        <ele>45.2</ele>
        <time>2023-08-06T09:16:16Z</time>
      </trkpt>
      <trkpt lat="50.29963" lon="3.48568">
        <ele>45.4</ele>
        <time>2023-08-06T09:16:17Z</time>
      </trkpt>
      <trkpt lat="50.29958" lon="3.48576">
        <ele>45.6</ele>
        <time>2023-08-06T09:16:20Z</time>
      </trkpt>
      <trkpt lat="50.29948" lon="3.48591">
        <ele>46.4</ele>
        <time>2023-08-06T09:16:26Z</time>
      </trkpt>
      <trkpt lat="50.29945" lon="3.48597">
        <ele>46.4</ele>
        <time>2023-08-06T09:16:28Z</time>
      </trkpt>
      <trkpt lat="50.2993" lon="3.48625">
        <ele>47.2</ele>
        <time>2023-08-06T09:16:38Z</time>
      </trkpt>
      <trkpt lat="50.29929" lon="3.48628">
        <ele>47.2</ele>
        <time>2023-08-06T09:16:39Z</time>
      </trkpt>
      <trkpt lat="50.29926" lon="3.48637">
        <ele>47.4</ele>
        <time>2023-08-06T09:16:42Z</time>
      </trkpt>
      <trkpt lat="50.2992" lon="3.48653">
        <ele>47.6</ele>
        <time>2023-08-06T09:16:47Z</time>
      </trkpt>
      <trkpt lat="50.29914" lon="3.48674">
        <ele>48.2</ele>
        <time>2023-08-06T09:16:53Z</time>
      </trkpt>
      <trkpt lat="50.29912" lon="3.48678">
        <ele>48.2</ele>
        <time>2023-08-06T09:16:54Z</time>
      </trkpt>
      <trkpt lat="50.29908" lon="3.48692">
        <ele>48.4</ele>
        <time>2023-08-06T09:16:58Z</time>
      </trkpt>
      <trkpt lat="50.29905" lon="3.48702">
        <ele>48.4</ele>
        <time>2023-08-06T09:17:01Z</time>
      </trkpt>
      <trkpt lat="50.29904" lon="3.48705">
        <ele>48.6</ele>
        <time>2023-08-06T09:17:02Z</time>
      </trkpt>
      <trkpt lat="50.29903" lon="3.48709">
        <ele>48.6</ele>
        <time>2023-08-06T09:17:03Z</time>
      </trkpt>
      <trkpt lat="50.29902" lon="3.48715">
        <ele>48.6</ele>
        <time>2023-08-06T09:17:05Z</time>
      </trkpt>
      <trkpt lat="50.299" lon="3.48718">
        <ele>48.6</ele>
        <time>2023-08-06T09:17:06Z</time>
      </trkpt>
      <trkpt lat="50.29899" lon="3.48722">
        <ele>48.8</ele>
        <time>2023-08-06T09:17:07Z</time>
      </trkpt>
      <trkpt lat="50.29897" lon="3.48733">
        <ele>49</ele>
        <time>2023-08-06T09:17:10Z</time>
      </trkpt>
      <trkpt lat="50.29893" lon="3.48746">
        <ele>49.2</ele>
        <time>2023-08-06T09:17:14Z</time>
      </trkpt>
      <trkpt lat="50.29889" lon="3.48763">
        <ele>49.6</ele>
        <time>2023-08-06T09:17:19Z</time>
      </trkpt>
      <trkpt lat="50.29885" lon="3.48781">
        <ele>49.8</ele>
        <time>2023-08-06T09:17:24Z</time>
      </trkpt>
      <trkpt lat="50.29884" lon="3.48785">
        <ele>50</ele>
        <time>2023-08-06T09:17:25Z</time>
      </trkpt>
      <trkpt lat="50.2988" lon="3.48793">
        <ele>50.4</ele>
        <time>2023-08-06T09:17:28Z</time>
      </trkpt>
      <trkpt lat="50.29875" lon="3.48805">
        <ele>50.4</ele>
        <time>2023-08-06T09:17:32Z</time>
      </trkpt>
      <trkpt lat="50.29873" lon="3.4881">
        <ele>50.4</ele>
        <time>2023-08-06T09:17:34Z</time>
      </trkpt>
      <trkpt lat="50.29861" lon="3.48839">
        <ele>51</ele>
        <time>2023-08-06T09:17:43Z</time>
      </trkpt>
      <trkpt lat="50.29857" lon="3.48848">
        <ele>51.2</ele>
        <time>2023-08-06T09:17:46Z</time>
      </trkpt>
      <trkpt lat="50.29852" lon="3.48856">
        <ele>51.4</ele>
        <time>2023-08-06T09:17:49Z</time>
      </trkpt>
      <trkpt lat="50.29851" lon="3.48859">
        <ele>51.6</ele>
        <time>2023-08-06T09:17:50Z</time>
      </trkpt>
      <trkpt lat="50.2985" lon="3.48862">
        <ele>51.8</ele>
        <time>2023-08-06T09:17:51Z</time>
      </trkpt>
      <trkpt lat="50.29849" lon="3.48864">
        <ele>51.8</ele>
        <time>2023-08-06T09:17:52Z</time>
      </trkpt>
      <trkpt lat="50.29847" lon="3.48867">
        <ele>52</ele>
        <time>2023-08-06T09:17:53Z</time>
      </trkpt>
      <trkpt lat="50.29846" lon="3.4887">
        <ele>52</ele>
        <time>2023-08-06T09:17:54Z</time>
      </trkpt>
      <trkpt lat="50.29843" lon="3.48875">
        <ele>52.4</ele>
        <time>2023-08-06T09:17:56Z</time>
      </trkpt>
      <trkpt lat="50.2984" lon="3.48881">
        <ele>52.8</ele>
        <time>2023-08-06T09:17:58Z</time>
      </trkpt>
      <trkpt lat="50.29838" lon="3.48883">
        <ele>52.8</ele>
        <time>2023-08-06T09:17:59Z</time>
      </trkpt>
      <trkpt lat="50.29825" lon="3.489">
        <ele>52.8</ele>
        <time>2023-08-06T09:18:06Z</time>
      </trkpt>
      <trkpt lat="50.29813" lon="3.48915">
        <ele>53.2</ele>
        <time>2023-08-06T09:18:12Z</time>
      </trkpt>
      <trkpt lat="50.29811" lon="3.48917">
        <ele>53.4</ele>
        <time>2023-08-06T09:18:13Z</time>
      </trkpt>
      <trkpt lat="50.29803" lon="3.48927">
        <ele>54.4</ele>
        <time>2023-08-06T09:18:17Z</time>
      </trkpt>
      <trkpt lat="50.29798" lon="3.48935">
        <ele>54.6</ele>
        <time>2023-08-06T09:18:20Z</time>
      </trkpt>
      <trkpt lat="50.29792" lon="3.48943">
        <ele>55</ele>
        <time>2023-08-06T09:18:23Z</time>
      </trkpt>
      <trkpt lat="50.2979" lon="3.48945">
        <ele>55</ele>
        <time>2023-08-06T09:18:24Z</time>
      </trkpt>
      <trkpt lat="50.29789" lon="3.48947">
        <ele>54.8</ele>
        <time>2023-08-06T09:18:25Z</time>
      </trkpt>
      <trkpt lat="50.29787" lon="3.4895">
        <ele>54.8</ele>
        <time>2023-08-06T09:18:26Z</time>
      </trkpt>
      <trkpt lat="50.29785" lon="3.48952">
        <ele>54.8</ele>
        <time>2023-08-06T09:18:27Z</time>
      </trkpt>
      <trkpt lat="50.29783" lon="3.48954">
        <ele>54.8</ele>
        <time>2023-08-06T09:18:28Z</time>
      </trkpt>
      <trkpt lat="50.29781" lon="3.48957">
        <ele>54.8</ele>
        <time>2023-08-06T09:18:29Z</time>
      </trkpt>
      <trkpt lat="50.2978" lon="3.48959">
        <ele>54.8</ele>
        <time>2023-08-06T09:18:30Z</time>
      </trkpt>
      <trkpt lat="50.29762" lon="3.48981">
        <ele>55</ele>
        <time>2023-08-06T09:18:39Z</time>
      </trkpt>
      <trkpt lat="50.29754" lon="3.4899">
        <ele>55.2</ele>
        <time>2023-08-06T09:18:43Z</time>
      </trkpt>
      <trkpt lat="50.29747" lon="3.49">
        <ele>55.4</ele>
        <time>2023-08-06T09:18:47Z</time>
      </trkpt>
      <trkpt lat="50.29745" lon="3.49002">
        <ele>55.6</ele>
        <time>2023-08-06T09:18:48Z</time>
      </trkpt>
      <trkpt lat="50.29736" lon="3.49015">
        <ele>55.8</ele>
        <time>2023-08-06T09:18:53Z</time>
      </trkpt>
      <trkpt lat="50.29734" lon="3.49017">
        <ele>55.8</ele>
        <time>2023-08-06T09:18:54Z</time>
      </trkpt>
      <trkpt lat="50.29715" lon="3.49037">
        <ele>55.6</ele>
        <time>2023-08-06T09:19:03Z</time>
      </trkpt>
      <trkpt lat="50.29702" lon="3.49046">
        <ele>55.8</ele>
        <time>2023-08-06T09:19:09Z</time>
      </trkpt>
      <trkpt lat="50.29698" lon="3.49048">
        <ele>55.8</ele>
        <time>2023-08-06T09:19:11Z</time>
      </trkpt>
      <trkpt lat="50.29691" lon="3.49052">
        <ele>56.2</ele>
        <time>2023-08-06T09:19:14Z</time>
      </trkpt>
      <trkpt lat="50.29689" lon="3.49054">
        <ele>56.2</ele>
        <time>2023-08-06T09:19:15Z</time>
      </trkpt>
      <trkpt lat="50.29687" lon="3.49055">
        <ele>56.2</ele>
        <time>2023-08-06T09:19:16Z</time>
      </trkpt>
      <trkpt lat="50.29678" lon="3.49059">
        <ele>56.8</ele>
        <time>2023-08-06T09:19:20Z</time>
      </trkpt>
      <trkpt lat="50.29674" lon="3.49062">
        <ele>57</ele>
        <time>2023-08-06T09:19:22Z</time>
      </trkpt>
      <trkpt lat="50.29671" lon="3.49063">
        <ele>57</ele>
        <time>2023-08-06T09:19:23Z</time>
      </trkpt>
      <trkpt lat="50.29665" lon="3.49066">
        <ele>57</ele>
        <time>2023-08-06T09:19:26Z</time>
      </trkpt>
      <trkpt lat="50.29656" lon="3.49071">
        <ele>57.2</ele>
        <time>2023-08-06T09:19:30Z</time>
      </trkpt>
      <trkpt lat="50.29649" lon="3.49075">
        <ele>57.2</ele>
        <time>2023-08-06T09:19:33Z</time>
      </trkpt>
      <trkpt lat="50.29643" lon="3.4908">
        <ele>57.6</ele>
        <time>2023-08-06T09:19:36Z</time>
      </trkpt>
      <trkpt lat="50.29641" lon="3.49082">
        <ele>57.8</ele>
        <time>2023-08-06T09:19:37Z</time>
      </trkpt>
      <trkpt lat="50.29637" lon="3.49086">
        <ele>58</ele>
        <time>2023-08-06T09:19:39Z</time>
      </trkpt>
      <trkpt lat="50.29622" lon="3.49102">
        <ele>58.6</ele>
        <time>2023-08-06T09:19:47Z</time>
      </trkpt>
      <trkpt lat="50.29607" lon="3.49126">
        <ele>59.4</ele>
        <time>2023-08-06T09:19:56Z</time>
      </trkpt>
      <trkpt lat="50.29598" lon="3.49143">
        <ele>59.6</ele>
        <time>2023-08-06T09:20:02Z</time>
      </trkpt>
      <trkpt lat="50.29593" lon="3.49151">
        <ele>59.8</ele>
        <time>2023-08-06T09:20:05Z</time>
      </trkpt>
      <trkpt lat="50.29576" lon="3.49177">
        <ele>60.8</ele>
        <time>2023-08-06T09:20:15Z</time>
      </trkpt>
      <trkpt lat="50.29565" lon="3.49194">
        <ele>61.2</ele>
        <time>2023-08-06T09:20:21Z</time>
      </trkpt>
      <trkpt lat="50.29563" lon="3.49196">
        <ele>61.2</ele>
        <time>2023-08-06T09:20:22Z</time>
      </trkpt>
      <trkpt lat="50.29562" lon="3.49198">
        <ele>61.2</ele>
        <time>2023-08-06T09:20:23Z</time>
      </trkpt>
      <trkpt lat="50.29561" lon="3.492">
        <ele>61.2</ele>
        <time>2023-08-06T09:20:24Z</time>
      </trkpt>
      <trkpt lat="50.2956" lon="3.49202">
        <ele>61.2</ele>
        <time>2023-08-06T09:20:25Z</time>
      </trkpt>
      <trkpt lat="50.2956" lon="3.49203">
        <ele>61.2</ele>
        <time>2023-08-06T09:20:26Z</time>
      </trkpt>
      <trkpt lat="50.2956" lon="3.49203">
        <ele>61.2</ele>
        <time>2023-08-06T09:20:28Z</time>
      </trkpt>
      <trkpt lat="50.29556" lon="3.49209">
        <ele>63</ele>
        <time>2023-08-06T09:22:59Z</time>
      </trkpt>
      <trkpt lat="50.29554" lon="3.49211">
        <ele>62.8</ele>
        <time>2023-08-06T09:23:00Z</time>
      </trkpt>
      <trkpt lat="50.29551" lon="3.49215">
        <ele>62.8</ele>
        <time>2023-08-06T09:23:02Z</time>
      </trkpt>
      <trkpt lat="50.29543" lon="3.49225">
        <ele>62.8</ele>
        <time>2023-08-06T09:23:06Z</time>
      </trkpt>
      <trkpt lat="50.29538" lon="3.49233">
        <ele>62.8</ele>
        <time>2023-08-06T09:23:09Z</time>
      </trkpt>
      <trkpt lat="50.29523" lon="3.4926">
        <ele>62</ele>
        <time>2023-08-06T09:23:18Z</time>
      </trkpt>
      <trkpt lat="50.29522" lon="3.49263">
        <ele>62</ele>
        <time>2023-08-06T09:23:19Z</time>
      </trkpt>
      <trkpt lat="50.29513" lon="3.49288">
        <ele>61.6</ele>
        <time>2023-08-06T09:23:26Z</time>
      </trkpt>
      <trkpt lat="50.29504" lon="3.49328">
        <ele>61.6</ele>
        <time>2023-08-06T09:23:35Z</time>
      </trkpt>
      <trkpt lat="50.29502" lon="3.4936">
        <ele>61.4</ele>
        <time>2023-08-06T09:23:42Z</time>
      </trkpt>
      <trkpt lat="50.29501" lon="3.49411">
        <ele>61.4</ele>
        <time>2023-08-06T09:23:51Z</time>
      </trkpt>
      <trkpt lat="50.29502" lon="3.49465">
        <ele>61.4</ele>
        <time>2023-08-06T09:24:00Z</time>
      </trkpt>
      <trkpt lat="50.29502" lon="3.49483">
        <ele>61.6</ele>
        <time>2023-08-06T09:24:03Z</time>
      </trkpt>
      <trkpt lat="50.29502" lon="3.49489">
        <ele>61.4</ele>
        <time>2023-08-06T09:24:04Z</time>
      </trkpt>
      <trkpt lat="50.29501" lon="3.49494">
        <ele>61.4</ele>
        <time>2023-08-06T09:24:05Z</time>
      </trkpt>
      <trkpt lat="50.29501" lon="3.49499">
        <ele>61.4</ele>
        <time>2023-08-06T09:24:06Z</time>
      </trkpt>
      <trkpt lat="50.29501" lon="3.49505">
        <ele>61.4</ele>
        <time>2023-08-06T09:24:07Z</time>
      </trkpt>
      <trkpt lat="50.295" lon="3.4951">
        <ele>61.4</ele>
        <time>2023-08-06T09:24:08Z</time>
      </trkpt>
      <trkpt lat="50.295" lon="3.49516">
        <ele>61.4</ele>
        <time>2023-08-06T09:24:09Z</time>
      </trkpt>
      <trkpt lat="50.295" lon="3.49521">
        <ele>61.2</ele>
        <time>2023-08-06T09:24:10Z</time>
      </trkpt>
      <trkpt lat="50.295" lon="3.49527">
        <ele>61</ele>
        <time>2023-08-06T09:24:11Z</time>
      </trkpt>
      <trkpt lat="50.29498" lon="3.49561">
        <ele>61.2</ele>
        <time>2023-08-06T09:24:17Z</time>
      </trkpt>
      <trkpt lat="50.29497" lon="3.49578">
        <ele>61.4</ele>
        <time>2023-08-06T09:24:20Z</time>
      </trkpt>
      <trkpt lat="50.29497" lon="3.49583">
        <ele>61.6</ele>
        <time>2023-08-06T09:24:21Z</time>
      </trkpt>
      <trkpt lat="50.29497" lon="3.49589">
        <ele>61.6</ele>
        <time>2023-08-06T09:24:22Z</time>
      </trkpt>
      <trkpt lat="50.29496" lon="3.49594">
        <ele>61.8</ele>
        <time>2023-08-06T09:24:23Z</time>
      </trkpt>
      <trkpt lat="50.29496" lon="3.49599">
        <ele>61.8</ele>
        <time>2023-08-06T09:24:24Z</time>
      </trkpt>
      <trkpt lat="50.29496" lon="3.49604">
        <ele>61.8</ele>
        <time>2023-08-06T09:24:25Z</time>
      </trkpt>
      <trkpt lat="50.29495" lon="3.49608">
        <ele>62</ele>
        <time>2023-08-06T09:24:26Z</time>
      </trkpt>
      <trkpt lat="50.29495" lon="3.49613">
        <ele>62</ele>
        <time>2023-08-06T09:24:27Z</time>
      </trkpt>
      <trkpt lat="50.29495" lon="3.49618">
        <ele>62.2</ele>
        <time>2023-08-06T09:24:28Z</time>
      </trkpt>
      <trkpt lat="50.29494" lon="3.49623">
        <ele>62.2</ele>
        <time>2023-08-06T09:24:29Z</time>
      </trkpt>
      <trkpt lat="50.29494" lon="3.49628">
        <ele>62.4</ele>
        <time>2023-08-06T09:24:30Z</time>
      </trkpt>
      <trkpt lat="50.29494" lon="3.49632">
        <ele>62.4</ele>
        <time>2023-08-06T09:24:31Z</time>
      </trkpt>
      <trkpt lat="50.29494" lon="3.49637">
        <ele>62.6</ele>
        <time>2023-08-06T09:24:32Z</time>
      </trkpt>
      <trkpt lat="50.29493" lon="3.49642">
        <ele>63</ele>
        <time>2023-08-06T09:24:33Z</time>
      </trkpt>
      <trkpt lat="50.29493" lon="3.49647">
        <ele>63</ele>
        <time>2023-08-06T09:24:34Z</time>
      </trkpt>
      <trkpt lat="50.29493" lon="3.49652">
        <ele>63.2</ele>
        <time>2023-08-06T09:24:35Z</time>
      </trkpt>
      <trkpt lat="50.29493" lon="3.49662">
        <ele>63.4</ele>
        <time>2023-08-06T09:24:37Z</time>
      </trkpt>
      <trkpt lat="50.29489" lon="3.49708">
        <ele>63.8</ele>
        <time>2023-08-06T09:24:47Z</time>
      </trkpt>
      <trkpt lat="50.29489" lon="3.49712">
        <ele>64</ele>
        <time>2023-08-06T09:24:48Z</time>
      </trkpt>
      <trkpt lat="50.29488" lon="3.49717">
        <ele>64</ele>
        <time>2023-08-06T09:24:49Z</time>
      </trkpt>
      <trkpt lat="50.29479" lon="3.49767">
        <ele>64.8</ele>
        <time>2023-08-06T09:25:00Z</time>
      </trkpt>
      <trkpt lat="50.29471" lon="3.49792">
        <ele>65.2</ele>
        <time>2023-08-06T09:25:06Z</time>
      </trkpt>
      <trkpt lat="50.29465" lon="3.49805">
        <ele>65.6</ele>
        <time>2023-08-06T09:25:09Z</time>
      </trkpt>
      <trkpt lat="50.29441" lon="3.49846">
        <ele>65.6</ele>
        <time>2023-08-06T09:25:19Z</time>
      </trkpt>
      <trkpt lat="50.2942" lon="3.4988">
        <ele>65.2</ele>
        <time>2023-08-06T09:25:27Z</time>
      </trkpt>
      <trkpt lat="50.29405" lon="3.49913">
        <ele>65.2</ele>
        <time>2023-08-06T09:25:34Z</time>
      </trkpt>
      <trkpt lat="50.29403" lon="3.49918">
        <ele>65.4</ele>
        <time>2023-08-06T09:25:35Z</time>
      </trkpt>
      <trkpt lat="50.29394" lon="3.49939">
        <ele>65</ele>
        <time>2023-08-06T09:25:39Z</time>
      </trkpt>
      <trkpt lat="50.29393" lon="3.49944">
        <ele>65</ele>
        <time>2023-08-06T09:25:40Z</time>
      </trkpt>
      <trkpt lat="50.29378" lon="3.49993">
        <ele>65.4</ele>
        <time>2023-08-06T09:25:49Z</time>
      </trkpt>
      <trkpt lat="50.29366" lon="3.50055">
        <ele>64.6</ele>
        <time>2023-08-06T09:25:59Z</time>
      </trkpt>
      <trkpt lat="50.29354" lon="3.50122">
        <ele>64.8</ele>
        <time>2023-08-06T09:26:09Z</time>
      </trkpt>
      <trkpt lat="50.29341" lon="3.50208">
        <ele>64.8</ele>
        <time>2023-08-06T09:26:22Z</time>
      </trkpt>
      <trkpt lat="50.29335" lon="3.50257">
        <ele>64.8</ele>
        <time>2023-08-06T09:26:29Z</time>
      </trkpt>
      <trkpt lat="50.2933" lon="3.50296">
        <ele>64.6</ele>
        <time>2023-08-06T09:26:34Z</time>
      </trkpt>
      <trkpt lat="50.29325" lon="3.50321">
        <ele>64</ele>
        <time>2023-08-06T09:26:37Z</time>
      </trkpt>
      <trkpt lat="50.2932" lon="3.5034">
        <ele>63.4</ele>
        <time>2023-08-06T09:26:39Z</time>
      </trkpt>
      <trkpt lat="50.29317" lon="3.50349">
        <ele>63</ele>
        <time>2023-08-06T09:26:40Z</time>
      </trkpt>
      <trkpt lat="50.29298" lon="3.50404">
        <ele>61.8</ele>
        <time>2023-08-06T09:26:46Z</time>
      </trkpt>
      <trkpt lat="50.29293" lon="3.50419">
        <ele>61.4</ele>
        <time>2023-08-06T09:26:48Z</time>
      </trkpt>
      <trkpt lat="50.29283" lon="3.50443">
        <ele>61.2</ele>
        <time>2023-08-06T09:26:51Z</time>
      </trkpt>
      <trkpt lat="50.29281" lon="3.50449">
        <ele>61</ele>
        <time>2023-08-06T09:26:52Z</time>
      </trkpt>
      <trkpt lat="50.29277" lon="3.50456">
        <ele>61</ele>
        <time>2023-08-06T09:26:53Z</time>
      </trkpt>
      <trkpt lat="50.29274" lon="3.50463">
        <ele>61</ele>
        <time>2023-08-06T09:26:54Z</time>
      </trkpt>
      <trkpt lat="50.29271" lon="3.5047">
        <ele>60.8</ele>
        <time>2023-08-06T09:26:55Z</time>
      </trkpt>
      <trkpt lat="50.29268" lon="3.50476">
        <ele>60.8</ele>
        <time>2023-08-06T09:26:56Z</time>
      </trkpt>
      <trkpt lat="50.29265" lon="3.50482">
        <ele>60.8</ele>
        <time>2023-08-06T09:26:57Z</time>
      </trkpt>
      <trkpt lat="50.29262" lon="3.50488">
        <ele>60.8</ele>
        <time>2023-08-06T09:26:58Z</time>
      </trkpt>
      <trkpt lat="50.2926" lon="3.50494">
        <ele>60.6</ele>
        <time>2023-08-06T09:26:59Z</time>
      </trkpt>
      <trkpt lat="50.29257" lon="3.50501">
        <ele>60.6</ele>
        <time>2023-08-06T09:27:00Z</time>
      </trkpt>
      <trkpt lat="50.29255" lon="3.50506">
        <ele>60.6</ele>
        <time>2023-08-06T09:27:01Z</time>
      </trkpt>
      <trkpt lat="50.29252" lon="3.50512">
        <ele>60.2</ele>
        <time>2023-08-06T09:27:02Z</time>
      </trkpt>
      <trkpt lat="50.2925" lon="3.50518">
        <ele>60.2</ele>
        <time>2023-08-06T09:27:03Z</time>
      </trkpt>
      <trkpt lat="50.29247" lon="3.50523">
        <ele>60</ele>
        <time>2023-08-06T09:27:04Z</time>
      </trkpt>
      <trkpt lat="50.29244" lon="3.5053">
        <ele>59.8</ele>
        <time>2023-08-06T09:27:05Z</time>
      </trkpt>
      <trkpt lat="50.29241" lon="3.50536">
        <ele>59.8</ele>
        <time>2023-08-06T09:27:06Z</time>
      </trkpt>
      <trkpt lat="50.29239" lon="3.50542">
        <ele>59.8</ele>
        <time>2023-08-06T09:27:07Z</time>
      </trkpt>
      <trkpt lat="50.29217" lon="3.50597">
        <ele>60</ele>
        <time>2023-08-06T09:27:16Z</time>
      </trkpt>
      <trkpt lat="50.29204" lon="3.5066">
        <ele>60.2</ele>
        <time>2023-08-06T09:27:25Z</time>
      </trkpt>
      <trkpt lat="50.29202" lon="3.50674">
        <ele>60.2</ele>
        <time>2023-08-06T09:27:27Z</time>
      </trkpt>
      <trkpt lat="50.292" lon="3.5068">
        <ele>60.2</ele>
        <time>2023-08-06T09:27:28Z</time>
      </trkpt>
      <trkpt lat="50.29199" lon="3.50687">
        <ele>60.4</ele>
        <time>2023-08-06T09:27:29Z</time>
      </trkpt>
      <trkpt lat="50.29197" lon="3.50701">
        <ele>60.4</ele>
        <time>2023-08-06T09:27:31Z</time>
      </trkpt>
      <trkpt lat="50.29197" lon="3.50708">
        <ele>60.4</ele>
        <time>2023-08-06T09:27:32Z</time>
      </trkpt>
      <trkpt lat="50.29196" lon="3.50714">
        <ele>60.4</ele>
        <time>2023-08-06T09:27:33Z</time>
      </trkpt>
      <trkpt lat="50.29195" lon="3.50721">
        <ele>60.4</ele>
        <time>2023-08-06T09:27:34Z</time>
      </trkpt>
      <trkpt lat="50.29194" lon="3.50728">
        <ele>60.4</ele>
        <time>2023-08-06T09:27:35Z</time>
      </trkpt>
      <trkpt lat="50.29192" lon="3.50734">
        <ele>60.4</ele>
        <time>2023-08-06T09:27:36Z</time>
      </trkpt>
      <trkpt lat="50.29191" lon="3.5074">
        <ele>60.6</ele>
        <time>2023-08-06T09:27:37Z</time>
      </trkpt>
      <trkpt lat="50.2919" lon="3.50746">
        <ele>60.6</ele>
        <time>2023-08-06T09:27:38Z</time>
      </trkpt>
      <trkpt lat="50.29189" lon="3.50752">
        <ele>60.8</ele>
        <time>2023-08-06T09:27:39Z</time>
      </trkpt>
      <trkpt lat="50.29188" lon="3.50758">
        <ele>60.8</ele>
        <time>2023-08-06T09:27:40Z</time>
      </trkpt>
      <trkpt lat="50.29186" lon="3.50764">
        <ele>61</ele>
        <time>2023-08-06T09:27:41Z</time>
      </trkpt>
      <trkpt lat="50.29185" lon="3.5077">
        <ele>61</ele>
        <time>2023-08-06T09:27:42Z</time>
      </trkpt>
      <trkpt lat="50.29184" lon="3.50776">
        <ele>61</ele>
        <time>2023-08-06T09:27:43Z</time>
      </trkpt>
      <trkpt lat="50.29183" lon="3.50781">
        <ele>61.2</ele>
        <time>2023-08-06T09:27:44Z</time>
      </trkpt>
      <trkpt lat="50.29181" lon="3.50787">
        <ele>61.2</ele>
        <time>2023-08-06T09:27:45Z</time>
      </trkpt>
      <trkpt lat="50.2918" lon="3.50792">
        <ele>61.2</ele>
        <time>2023-08-06T09:27:46Z</time>
      </trkpt>
      <trkpt lat="50.29179" lon="3.50797">
        <ele>61.2</ele>
        <time>2023-08-06T09:27:47Z</time>
      </trkpt>
      <trkpt lat="50.29178" lon="3.50803">
        <ele>61.2</ele>
        <time>2023-08-06T09:27:48Z</time>
      </trkpt>
      <trkpt lat="50.29177" lon="3.50808">
        <ele>61.2</ele>
        <time>2023-08-06T09:27:49Z</time>
      </trkpt>
      <trkpt lat="50.29176" lon="3.50813">
        <ele>61.4</ele>
        <time>2023-08-06T09:27:50Z</time>
      </trkpt>
      <trkpt lat="50.29175" lon="3.50819">
        <ele>61.4</ele>
        <time>2023-08-06T09:27:51Z</time>
      </trkpt>
      <trkpt lat="50.29174" lon="3.50824">
        <ele>61.6</ele>
        <time>2023-08-06T09:27:52Z</time>
      </trkpt>
      <trkpt lat="50.29173" lon="3.50829">
        <ele>61.6</ele>
        <time>2023-08-06T09:27:53Z</time>
      </trkpt>
      <trkpt lat="50.29172" lon="3.50835">
        <ele>61.6</ele>
        <time>2023-08-06T09:27:54Z</time>
      </trkpt>
      <trkpt lat="50.2917" lon="3.5084">
        <ele>61.6</ele>
        <time>2023-08-06T09:27:55Z</time>
      </trkpt>
      <trkpt lat="50.29169" lon="3.50845">
        <ele>61.6</ele>
        <time>2023-08-06T09:27:56Z</time>
      </trkpt>
      <trkpt lat="50.29168" lon="3.5085">
        <ele>61.8</ele>
        <time>2023-08-06T09:27:57Z</time>
      </trkpt>
      <trkpt lat="50.29167" lon="3.50856">
        <ele>61.8</ele>
        <time>2023-08-06T09:27:58Z</time>
      </trkpt>
      <trkpt lat="50.29166" lon="3.50861">
        <ele>62</ele>
        <time>2023-08-06T09:27:59Z</time>
      </trkpt>
      <trkpt lat="50.29165" lon="3.50866">
        <ele>62.2</ele>
        <time>2023-08-06T09:28:00Z</time>
      </trkpt>
      <trkpt lat="50.2916" lon="3.50879">
        <ele>62.6</ele>
        <time>2023-08-06T09:28:03Z</time>
      </trkpt>
      <trkpt lat="50.29159" lon="3.50883">
        <ele>63</ele>
        <time>2023-08-06T09:28:04Z</time>
      </trkpt>
      <trkpt lat="50.29157" lon="3.50886">
        <ele>63.2</ele>
        <time>2023-08-06T09:28:05Z</time>
      </trkpt>
      <trkpt lat="50.29152" lon="3.50904">
        <ele>63.8</ele>
        <time>2023-08-06T09:28:09Z</time>
      </trkpt>
      <trkpt lat="50.29151" lon="3.50908">
        <ele>64</ele>
        <time>2023-08-06T09:28:10Z</time>
      </trkpt>
      <trkpt lat="50.29149" lon="3.50912">
        <ele>64</ele>
        <time>2023-08-06T09:28:11Z</time>
      </trkpt>
      <trkpt lat="50.29148" lon="3.50916">
        <ele>64</ele>
        <time>2023-08-06T09:28:12Z</time>
      </trkpt>
      <trkpt lat="50.29147" lon="3.5092">
        <ele>64</ele>
        <time>2023-08-06T09:28:13Z</time>
      </trkpt>
      <trkpt lat="50.29146" lon="3.50923">
        <ele>64.2</ele>
        <time>2023-08-06T09:28:14Z</time>
      </trkpt>
      <trkpt lat="50.29144" lon="3.50927">
        <ele>64.4</ele>
        <time>2023-08-06T09:28:15Z</time>
      </trkpt>
      <trkpt lat="50.29143" lon="3.50931">
        <ele>64.4</ele>
        <time>2023-08-06T09:28:16Z</time>
      </trkpt>
      <trkpt lat="50.29143" lon="3.50936">
        <ele>64.6</ele>
        <time>2023-08-06T09:28:17Z</time>
      </trkpt>
      <trkpt lat="50.29142" lon="3.50939">
        <ele>64.6</ele>
        <time>2023-08-06T09:28:18Z</time>
      </trkpt>
      <trkpt lat="50.29141" lon="3.50943">
        <ele>64.6</ele>
        <time>2023-08-06T09:28:19Z</time>
      </trkpt>
      <trkpt lat="50.29139" lon="3.50947">
        <ele>64.8</ele>
        <time>2023-08-06T09:28:20Z</time>
      </trkpt>
      <trkpt lat="50.29139" lon="3.5095">
        <ele>65</ele>
        <time>2023-08-06T09:28:21Z</time>
      </trkpt>
      <trkpt lat="50.29137" lon="3.50954">
        <ele>65.2</ele>
        <time>2023-08-06T09:28:22Z</time>
      </trkpt>
      <trkpt lat="50.29136" lon="3.50957">
        <ele>65.2</ele>
        <time>2023-08-06T09:28:23Z</time>
      </trkpt>
      <trkpt lat="50.29135" lon="3.50961">
        <ele>65.2</ele>
        <time>2023-08-06T09:28:24Z</time>
      </trkpt>
      <trkpt lat="50.29134" lon="3.50964">
        <ele>65.6</ele>
        <time>2023-08-06T09:28:25Z</time>
      </trkpt>
      <trkpt lat="50.29133" lon="3.50968">
        <ele>65.8</ele>
        <time>2023-08-06T09:28:26Z</time>
      </trkpt>
      <trkpt lat="50.29132" lon="3.50971">
        <ele>65.8</ele>
        <time>2023-08-06T09:28:27Z</time>
      </trkpt>
      <trkpt lat="50.29131" lon="3.50974">
        <ele>66</ele>
        <time>2023-08-06T09:28:28Z</time>
      </trkpt>
      <trkpt lat="50.2913" lon="3.50978">
        <ele>65.8</ele>
        <time>2023-08-06T09:28:29Z</time>
      </trkpt>
      <trkpt lat="50.29129" lon="3.50981">
        <ele>66.2</ele>
        <time>2023-08-06T09:28:30Z</time>
      </trkpt>
      <trkpt lat="50.29128" lon="3.50985">
        <ele>66.2</ele>
        <time>2023-08-06T09:28:31Z</time>
      </trkpt>
      <trkpt lat="50.29126" lon="3.50988">
        <ele>66.2</ele>
        <time>2023-08-06T09:28:32Z</time>
      </trkpt>
      <trkpt lat="50.29125" lon="3.50991">
        <ele>66.2</ele>
        <time>2023-08-06T09:28:33Z</time>
      </trkpt>
      <trkpt lat="50.29124" lon="3.50994">
        <ele>66.4</ele>
        <time>2023-08-06T09:28:34Z</time>
      </trkpt>
      <trkpt lat="50.29123" lon="3.50998">
        <ele>66.4</ele>
        <time>2023-08-06T09:28:35Z</time>
      </trkpt>
      <trkpt lat="50.29122" lon="3.51001">
        <ele>66.6</ele>
        <time>2023-08-06T09:28:36Z</time>
      </trkpt>
      <trkpt lat="50.29121" lon="3.51004">
        <ele>66.6</ele>
        <time>2023-08-06T09:28:37Z</time>
      </trkpt>
      <trkpt lat="50.2912" lon="3.51008">
        <ele>66.8</ele>
        <time>2023-08-06T09:28:38Z</time>
      </trkpt>
      <trkpt lat="50.29119" lon="3.51011">
        <ele>66.8</ele>
        <time>2023-08-06T09:28:39Z</time>
      </trkpt>
      <trkpt lat="50.29118" lon="3.51015">
        <ele>66.8</ele>
        <time>2023-08-06T09:28:40Z</time>
      </trkpt>
      <trkpt lat="50.29117" lon="3.51019">
        <ele>66.8</ele>
        <time>2023-08-06T09:28:41Z</time>
      </trkpt>
      <trkpt lat="50.29116" lon="3.51022">
        <ele>67</ele>
        <time>2023-08-06T09:28:42Z</time>
      </trkpt>
      <trkpt lat="50.29116" lon="3.51025">
        <ele>67.2</ele>
        <time>2023-08-06T09:28:43Z</time>
      </trkpt>
      <trkpt lat="50.29115" lon="3.51028">
        <ele>67.2</ele>
        <time>2023-08-06T09:28:44Z</time>
      </trkpt>
      <trkpt lat="50.29114" lon="3.51032">
        <ele>67.4</ele>
        <time>2023-08-06T09:28:45Z</time>
      </trkpt>
      <trkpt lat="50.29113" lon="3.51035">
        <ele>67.4</ele>
        <time>2023-08-06T09:28:46Z</time>
      </trkpt>
      <trkpt lat="50.29113" lon="3.51038">
        <ele>67.6</ele>
        <time>2023-08-06T09:28:47Z</time>
      </trkpt>
      <trkpt lat="50.29111" lon="3.51042">
        <ele>67.6</ele>
        <time>2023-08-06T09:28:48Z</time>
      </trkpt>
      <trkpt lat="50.29111" lon="3.51045">
        <ele>67.8</ele>
        <time>2023-08-06T09:28:49Z</time>
      </trkpt>
      <trkpt lat="50.2911" lon="3.51049">
        <ele>68</ele>
        <time>2023-08-06T09:28:50Z</time>
      </trkpt>
      <trkpt lat="50.29109" lon="3.51053">
        <ele>68</ele>
        <time>2023-08-06T09:28:51Z</time>
      </trkpt>
      <trkpt lat="50.29107" lon="3.51057">
        <ele>68.2</ele>
        <time>2023-08-06T09:28:52Z</time>
      </trkpt>
      <trkpt lat="50.29106" lon="3.5106">
        <ele>68.4</ele>
        <time>2023-08-06T09:28:53Z</time>
      </trkpt>
      <trkpt lat="50.29105" lon="3.51064">
        <ele>68.4</ele>
        <time>2023-08-06T09:28:54Z</time>
      </trkpt>
      <trkpt lat="50.29104" lon="3.51067">
        <ele>68.6</ele>
        <time>2023-08-06T09:28:55Z</time>
      </trkpt>
      <trkpt lat="50.29103" lon="3.51071">
        <ele>68.6</ele>
        <time>2023-08-06T09:28:56Z</time>
      </trkpt>
      <trkpt lat="50.29102" lon="3.51074">
        <ele>68.8</ele>
        <time>2023-08-06T09:28:57Z</time>
      </trkpt>
      <trkpt lat="50.29102" lon="3.51078">
        <ele>68.8</ele>
        <time>2023-08-06T09:28:58Z</time>
      </trkpt>
      <trkpt lat="50.29101" lon="3.51082">
        <ele>69</ele>
        <time>2023-08-06T09:28:59Z</time>
      </trkpt>
      <trkpt lat="50.29099" lon="3.51085">
        <ele>69</ele>
        <time>2023-08-06T09:29:00Z</time>
      </trkpt>
      <trkpt lat="50.29098" lon="3.51089">
        <ele>69.2</ele>
        <time>2023-08-06T09:29:01Z</time>
      </trkpt>
      <trkpt lat="50.29097" lon="3.51092">
        <ele>69.2</ele>
        <time>2023-08-06T09:29:02Z</time>
      </trkpt>
      <trkpt lat="50.29096" lon="3.51096">
        <ele>69.4</ele>
        <time>2023-08-06T09:29:03Z</time>
      </trkpt>
      <trkpt lat="50.29095" lon="3.51099">
        <ele>69.4</ele>
        <time>2023-08-06T09:29:04Z</time>
      </trkpt>
      <trkpt lat="50.29094" lon="3.51103">
        <ele>69.6</ele>
        <time>2023-08-06T09:29:05Z</time>
      </trkpt>
      <trkpt lat="50.29093" lon="3.51106">
        <ele>69.6</ele>
        <time>2023-08-06T09:29:06Z</time>
      </trkpt>
      <trkpt lat="50.29092" lon="3.5111">
        <ele>69.6</ele>
        <time>2023-08-06T09:29:07Z</time>
      </trkpt>
      <trkpt lat="50.29091" lon="3.51114">
        <ele>69.8</ele>
        <time>2023-08-06T09:29:08Z</time>
      </trkpt>
      <trkpt lat="50.2909" lon="3.51118">
        <ele>69.8</ele>
        <time>2023-08-06T09:29:09Z</time>
      </trkpt>
      <trkpt lat="50.29089" lon="3.51121">
        <ele>70</ele>
        <time>2023-08-06T09:29:10Z</time>
      </trkpt>
      <trkpt lat="50.29087" lon="3.51124">
        <ele>70</ele>
        <time>2023-08-06T09:29:11Z</time>
      </trkpt>
      <trkpt lat="50.29086" lon="3.51127">
        <ele>70.2</ele>
        <time>2023-08-06T09:29:12Z</time>
      </trkpt>
      <trkpt lat="50.29084" lon="3.51131">
        <ele>70.2</ele>
        <time>2023-08-06T09:29:13Z</time>
      </trkpt>
      <trkpt lat="50.29083" lon="3.51134">
        <ele>70.2</ele>
        <time>2023-08-06T09:29:14Z</time>
      </trkpt>
      <trkpt lat="50.29079" lon="3.5114">
        <ele>70.4</ele>
        <time>2023-08-06T09:29:16Z</time>
      </trkpt>
      <trkpt lat="50.29074" lon="3.51154">
        <ele>70.8</ele>
        <time>2023-08-06T09:29:20Z</time>
      </trkpt>
      <trkpt lat="50.29066" lon="3.51169">
        <ele>71</ele>
        <time>2023-08-06T09:29:25Z</time>
      </trkpt>
      <trkpt lat="50.29065" lon="3.51173">
        <ele>71</ele>
        <time>2023-08-06T09:29:26Z</time>
      </trkpt>
      <trkpt lat="50.29054" lon="3.51194">
        <ele>71.6</ele>
        <time>2023-08-06T09:29:33Z</time>
      </trkpt>
      <trkpt lat="50.29052" lon="3.51197">
        <ele>71.8</ele>
        <time>2023-08-06T09:29:34Z</time>
      </trkpt>
      <trkpt lat="50.29044" lon="3.51217">
        <ele>72.4</ele>
        <time>2023-08-06T09:29:40Z</time>
      </trkpt>
      <trkpt lat="50.29042" lon="3.51224">
        <ele>72.6</ele>
        <time>2023-08-06T09:29:42Z</time>
      </trkpt>
      <trkpt lat="50.29037" lon="3.51238">
        <ele>73.4</ele>
        <time>2023-08-06T09:29:46Z</time>
      </trkpt>
      <trkpt lat="50.29036" lon="3.51242">
        <ele>73.8</ele>
        <time>2023-08-06T09:29:47Z</time>
      </trkpt>
      <trkpt lat="50.29035" lon="3.51246">
        <ele>73.8</ele>
        <time>2023-08-06T09:29:48Z</time>
      </trkpt>
      <trkpt lat="50.29034" lon="3.5125">
        <ele>74</ele>
        <time>2023-08-06T09:29:49Z</time>
      </trkpt>
      <trkpt lat="50.29033" lon="3.51254">
        <ele>74</ele>
        <time>2023-08-06T09:29:50Z</time>
      </trkpt>
      <trkpt lat="50.29032" lon="3.51258">
        <ele>74.2</ele>
        <time>2023-08-06T09:29:51Z</time>
      </trkpt>
      <trkpt lat="50.29031" lon="3.51262">
        <ele>74.4</ele>
        <time>2023-08-06T09:29:52Z</time>
      </trkpt>
      <trkpt lat="50.2903" lon="3.51266">
        <ele>74.4</ele>
        <time>2023-08-06T09:29:53Z</time>
      </trkpt>
      <trkpt lat="50.29029" lon="3.5127">
        <ele>74.6</ele>
        <time>2023-08-06T09:29:54Z</time>
      </trkpt>
      <trkpt lat="50.29028" lon="3.51273">
        <ele>74.6</ele>
        <time>2023-08-06T09:29:55Z</time>
      </trkpt>
      <trkpt lat="50.29027" lon="3.51278">
        <ele>74.8</ele>
        <time>2023-08-06T09:29:56Z</time>
      </trkpt>
      <trkpt lat="50.29026" lon="3.51282">
        <ele>74.8</ele>
        <time>2023-08-06T09:29:57Z</time>
      </trkpt>
      <trkpt lat="50.29025" lon="3.51285">
        <ele>74.8</ele>
        <time>2023-08-06T09:29:58Z</time>
      </trkpt>
      <trkpt lat="50.29024" lon="3.5129">
        <ele>74.8</ele>
        <time>2023-08-06T09:29:59Z</time>
      </trkpt>
      <trkpt lat="50.29023" lon="3.51294">
        <ele>74.8</ele>
        <time>2023-08-06T09:30:00Z</time>
      </trkpt>
      <trkpt lat="50.29022" lon="3.51298">
        <ele>74.8</ele>
        <time>2023-08-06T09:30:01Z</time>
      </trkpt>
      <trkpt lat="50.29021" lon="3.51303">
        <ele>74.8</ele>
        <time>2023-08-06T09:30:02Z</time>
      </trkpt>
      <trkpt lat="50.2902" lon="3.51307">
        <ele>75</ele>
        <time>2023-08-06T09:30:03Z</time>
      </trkpt>
      <trkpt lat="50.29019" lon="3.51311">
        <ele>75</ele>
        <time>2023-08-06T09:30:04Z</time>
      </trkpt>
      <trkpt lat="50.29018" lon="3.51316">
        <ele>75</ele>
        <time>2023-08-06T09:30:05Z</time>
      </trkpt>
      <trkpt lat="50.29016" lon="3.51321">
        <ele>74.8</ele>
        <time>2023-08-06T09:30:06Z</time>
      </trkpt>
      <trkpt lat="50.29015" lon="3.51325">
        <ele>74.8</ele>
        <time>2023-08-06T09:30:07Z</time>
      </trkpt>
      <trkpt lat="50.2901" lon="3.51346">
        <ele>74.8</ele>
        <time>2023-08-06T09:30:12Z</time>
      </trkpt>
      <trkpt lat="50.29009" lon="3.5135">
        <ele>74.8</ele>
        <time>2023-08-06T09:30:13Z</time>
      </trkpt>
      <trkpt lat="50.29008" lon="3.51353">
        <ele>74.8</ele>
        <time>2023-08-06T09:30:14Z</time>
      </trkpt>
      <trkpt lat="50.29007" lon="3.51356">
        <ele>74.8</ele>
        <time>2023-08-06T09:30:15Z</time>
      </trkpt>
      <trkpt lat="50.29007" lon="3.51359">
        <ele>74.8</ele>
        <time>2023-08-06T09:30:16Z</time>
      </trkpt>
      <trkpt lat="50.29006" lon="3.51362">
        <ele>75</ele>
        <time>2023-08-06T09:30:17Z</time>
      </trkpt>
      <trkpt lat="50.29006" lon="3.51365">
        <ele>75</ele>
        <time>2023-08-06T09:30:18Z</time>
      </trkpt>
      <trkpt lat="50.29005" lon="3.51368">
        <ele>75</ele>
        <time>2023-08-06T09:30:19Z</time>
      </trkpt>
      <trkpt lat="50.29004" lon="3.51371">
        <ele>75</ele>
        <time>2023-08-06T09:30:20Z</time>
      </trkpt>
      <trkpt lat="50.29004" lon="3.51374">
        <ele>75</ele>
        <time>2023-08-06T09:30:21Z</time>
      </trkpt>
      <trkpt lat="50.29003" lon="3.51378">
        <ele>75</ele>
        <time>2023-08-06T09:30:22Z</time>
      </trkpt>
      <trkpt lat="50.29003" lon="3.51393">
        <ele>75.4</ele>
        <time>2023-08-06T09:30:25Z</time>
      </trkpt>
      <trkpt lat="50.29001" lon="3.51415">
        <ele>75.4</ele>
        <time>2023-08-06T09:30:29Z</time>
      </trkpt>
      <trkpt lat="50.28998" lon="3.5144">
        <ele>75.4</ele>
        <time>2023-08-06T09:30:33Z</time>
      </trkpt>
      <trkpt lat="50.28987" lon="3.51483">
        <ele>75.4</ele>
        <time>2023-08-06T09:30:40Z</time>
      </trkpt>
      <trkpt lat="50.28969" lon="3.51539">
        <ele>75.2</ele>
        <time>2023-08-06T09:30:49Z</time>
      </trkpt>
      <trkpt lat="50.28965" lon="3.51558">
        <ele>75</ele>
        <time>2023-08-06T09:30:52Z</time>
      </trkpt>
      <trkpt lat="50.28964" lon="3.51572">
        <ele>74.8</ele>
        <time>2023-08-06T09:30:54Z</time>
      </trkpt>
      <trkpt lat="50.28965" lon="3.5158">
        <ele>74.8</ele>
        <time>2023-08-06T09:30:55Z</time>
      </trkpt>
      <trkpt lat="50.28966" lon="3.51587">
        <ele>74.6</ele>
        <time>2023-08-06T09:30:56Z</time>
      </trkpt>
      <trkpt lat="50.28968" lon="3.51594">
        <ele>74.6</ele>
        <time>2023-08-06T09:30:57Z</time>
      </trkpt>
      <trkpt lat="50.28976" lon="3.51631">
        <ele>74.4</ele>
        <time>2023-08-06T09:31:02Z</time>
      </trkpt>
      <trkpt lat="50.28988" lon="3.51695">
        <ele>74</ele>
        <time>2023-08-06T09:31:10Z</time>
      </trkpt>
      <trkpt lat="50.28991" lon="3.5171">
        <ele>73.6</ele>
        <time>2023-08-06T09:31:12Z</time>
      </trkpt>
      <trkpt lat="50.29003" lon="3.51767">
        <ele>72.8</ele>
        <time>2023-08-06T09:31:18Z</time>
      </trkpt>
      <trkpt lat="50.29005" lon="3.51778">
        <ele>72.6</ele>
        <time>2023-08-06T09:31:19Z</time>
      </trkpt>
      <trkpt lat="50.29018" lon="3.51846">
        <ele>71.4</ele>
        <time>2023-08-06T09:31:25Z</time>
      </trkpt>
      <trkpt lat="50.2902" lon="3.51858">
        <ele>70.8</ele>
        <time>2023-08-06T09:31:26Z</time>
      </trkpt>
      <trkpt lat="50.29023" lon="3.51882">
        <ele>70</ele>
        <time>2023-08-06T09:31:28Z</time>
      </trkpt>
      <trkpt lat="50.29023" lon="3.51895">
        <ele>69.6</ele>
        <time>2023-08-06T09:31:29Z</time>
      </trkpt>
      <trkpt lat="50.29022" lon="3.51908">
        <ele>69.2</ele>
        <time>2023-08-06T09:31:30Z</time>
      </trkpt>
      <trkpt lat="50.2902" lon="3.5192">
        <ele>69</ele>
        <time>2023-08-06T09:31:31Z</time>
      </trkpt>
      <trkpt lat="50.29019" lon="3.51932">
        <ele>68.8</ele>
        <time>2023-08-06T09:31:32Z</time>
      </trkpt>
      <trkpt lat="50.29014" lon="3.51957">
        <ele>68.4</ele>
        <time>2023-08-06T09:31:34Z</time>
      </trkpt>
      <trkpt lat="50.29007" lon="3.51979">
        <ele>67.8</ele>
        <time>2023-08-06T09:31:36Z</time>
      </trkpt>
      <trkpt lat="50.28998" lon="3.52013">
        <ele>67.2</ele>
        <time>2023-08-06T09:31:39Z</time>
      </trkpt>
      <trkpt lat="50.28991" lon="3.52033">
        <ele>67</ele>
        <time>2023-08-06T09:31:41Z</time>
      </trkpt>
      <trkpt lat="50.28988" lon="3.52043">
        <ele>66.8</ele>
        <time>2023-08-06T09:31:42Z</time>
      </trkpt>
      <trkpt lat="50.28985" lon="3.52052">
        <ele>66.8</ele>
        <time>2023-08-06T09:31:43Z</time>
      </trkpt>
      <trkpt lat="50.28982" lon="3.52061">
        <ele>66.4</ele>
        <time>2023-08-06T09:31:44Z</time>
      </trkpt>
      <trkpt lat="50.28979" lon="3.5207">
        <ele>66.2</ele>
        <time>2023-08-06T09:31:45Z</time>
      </trkpt>
      <trkpt lat="50.28976" lon="3.52078">
        <ele>65.8</ele>
        <time>2023-08-06T09:31:46Z</time>
      </trkpt>
      <trkpt lat="50.28973" lon="3.52086">
        <ele>65.8</ele>
        <time>2023-08-06T09:31:47Z</time>
      </trkpt>
      <trkpt lat="50.2897" lon="3.52094">
        <ele>65.8</ele>
        <time>2023-08-06T09:31:48Z</time>
      </trkpt>
      <trkpt lat="50.28968" lon="3.52101">
        <ele>65.8</ele>
        <time>2023-08-06T09:31:49Z</time>
      </trkpt>
      <trkpt lat="50.28966" lon="3.52109">
        <ele>65.8</ele>
        <time>2023-08-06T09:31:50Z</time>
      </trkpt>
      <trkpt lat="50.28964" lon="3.52116">
        <ele>65.8</ele>
        <time>2023-08-06T09:31:51Z</time>
      </trkpt>
      <trkpt lat="50.28963" lon="3.52123">
        <ele>65.8</ele>
        <time>2023-08-06T09:31:52Z</time>
      </trkpt>
      <trkpt lat="50.28961" lon="3.52131">
        <ele>65.8</ele>
        <time>2023-08-06T09:31:53Z</time>
      </trkpt>
      <trkpt lat="50.28959" lon="3.52137">
        <ele>65.8</ele>
        <time>2023-08-06T09:31:54Z</time>
      </trkpt>
      <trkpt lat="50.28955" lon="3.52151">
        <ele>65.8</ele>
        <time>2023-08-06T09:31:56Z</time>
      </trkpt>
      <trkpt lat="50.28953" lon="3.52157">
        <ele>65.8</ele>
        <time>2023-08-06T09:31:57Z</time>
      </trkpt>
      <trkpt lat="50.2895" lon="3.52164">
        <ele>66</ele>
        <time>2023-08-06T09:31:58Z</time>
      </trkpt>
      <trkpt lat="50.28945" lon="3.52176">
        <ele>66</ele>
        <time>2023-08-06T09:32:00Z</time>
      </trkpt>
      <trkpt lat="50.28939" lon="3.52197">
        <ele>66.2</ele>
        <time>2023-08-06T09:32:03Z</time>
      </trkpt>
      <trkpt lat="50.28937" lon="3.52204">
        <ele>66.2</ele>
        <time>2023-08-06T09:32:04Z</time>
      </trkpt>
      <trkpt lat="50.28935" lon="3.52218">
        <ele>66.4</ele>
        <time>2023-08-06T09:32:06Z</time>
      </trkpt>
      <trkpt lat="50.28933" lon="3.52225">
        <ele>66.4</ele>
        <time>2023-08-06T09:32:07Z</time>
      </trkpt>
      <trkpt lat="50.28924" lon="3.52266">
        <ele>66.8</ele>
        <time>2023-08-06T09:32:13Z</time>
      </trkpt>
      <trkpt lat="50.28923" lon="3.52273">
        <ele>66.8</ele>
        <time>2023-08-06T09:32:14Z</time>
      </trkpt>
      <trkpt lat="50.28921" lon="3.5228">
        <ele>66.8</ele>
        <time>2023-08-06T09:32:15Z</time>
      </trkpt>
      <trkpt lat="50.28918" lon="3.523">
        <ele>67</ele>
        <time>2023-08-06T09:32:18Z</time>
      </trkpt>
      <trkpt lat="50.28913" lon="3.52323">
        <ele>67.4</ele>
        <time>2023-08-06T09:32:21Z</time>
      </trkpt>
      <trkpt lat="50.28905" lon="3.52364">
        <ele>67.8</ele>
        <time>2023-08-06T09:32:27Z</time>
      </trkpt>
      <trkpt lat="50.289" lon="3.52404">
        <ele>67.8</ele>
        <time>2023-08-06T09:32:33Z</time>
      </trkpt>
      <trkpt lat="50.28899" lon="3.52411">
        <ele>68</ele>
        <time>2023-08-06T09:32:34Z</time>
      </trkpt>
      <trkpt lat="50.28898" lon="3.52417">
        <ele>68.4</ele>
        <time>2023-08-06T09:32:35Z</time>
      </trkpt>
      <trkpt lat="50.28898" lon="3.52423">
        <ele>68.4</ele>
        <time>2023-08-06T09:32:36Z</time>
      </trkpt>
      <trkpt lat="50.28897" lon="3.5243">
        <ele>68.4</ele>
        <time>2023-08-06T09:32:37Z</time>
      </trkpt>
      <trkpt lat="50.28896" lon="3.52436">
        <ele>68.4</ele>
        <time>2023-08-06T09:32:38Z</time>
      </trkpt>
      <trkpt lat="50.28896" lon="3.52442">
        <ele>68.6</ele>
        <time>2023-08-06T09:32:39Z</time>
      </trkpt>
      <trkpt lat="50.28895" lon="3.52448">
        <ele>68.6</ele>
        <time>2023-08-06T09:32:40Z</time>
      </trkpt>
      <trkpt lat="50.28894" lon="3.52455">
        <ele>68.8</ele>
        <time>2023-08-06T09:32:41Z</time>
      </trkpt>
      <trkpt lat="50.28892" lon="3.52467">
        <ele>68.8</ele>
        <time>2023-08-06T09:32:43Z</time>
      </trkpt>
      <trkpt lat="50.28892" lon="3.52474">
        <ele>68.8</ele>
        <time>2023-08-06T09:32:44Z</time>
      </trkpt>
      <trkpt lat="50.28889" lon="3.52495">
        <ele>69.2</ele>
        <time>2023-08-06T09:32:48Z</time>
      </trkpt>
      <trkpt lat="50.28889" lon="3.525">
        <ele>69.2</ele>
        <time>2023-08-06T09:32:49Z</time>
      </trkpt>
      <trkpt lat="50.28889" lon="3.52505">
        <ele>69.2</ele>
        <time>2023-08-06T09:32:50Z</time>
      </trkpt>
      <trkpt lat="50.28889" lon="3.52511">
        <ele>69.6</ele>
        <time>2023-08-06T09:32:51Z</time>
      </trkpt>
      <trkpt lat="50.28889" lon="3.52516">
        <ele>69.6</ele>
        <time>2023-08-06T09:32:52Z</time>
      </trkpt>
      <trkpt lat="50.28889" lon="3.52521">
        <ele>69.6</ele>
        <time>2023-08-06T09:32:53Z</time>
      </trkpt>
      <trkpt lat="50.28889" lon="3.52526">
        <ele>69.6</ele>
        <time>2023-08-06T09:32:54Z</time>
      </trkpt>
      <trkpt lat="50.28888" lon="3.52531">
        <ele>70</ele>
        <time>2023-08-06T09:32:55Z</time>
      </trkpt>
      <trkpt lat="50.28888" lon="3.52535">
        <ele>70.2</ele>
        <time>2023-08-06T09:32:56Z</time>
      </trkpt>
      <trkpt lat="50.28887" lon="3.52539">
        <ele>70.4</ele>
        <time>2023-08-06T09:32:57Z</time>
      </trkpt>
      <trkpt lat="50.28887" lon="3.52544">
        <ele>70.4</ele>
        <time>2023-08-06T09:32:58Z</time>
      </trkpt>
      <trkpt lat="50.28886" lon="3.52548">
        <ele>70.6</ele>
        <time>2023-08-06T09:32:59Z</time>
      </trkpt>
      <trkpt lat="50.28886" lon="3.52551">
        <ele>70.8</ele>
        <time>2023-08-06T09:33:00Z</time>
      </trkpt>
      <trkpt lat="50.28886" lon="3.52555">
        <ele>70.8</ele>
        <time>2023-08-06T09:33:01Z</time>
      </trkpt>
      <trkpt lat="50.28886" lon="3.52559">
        <ele>71</ele>
        <time>2023-08-06T09:33:02Z</time>
      </trkpt>
      <trkpt lat="50.28885" lon="3.52562">
        <ele>70.8</ele>
        <time>2023-08-06T09:33:03Z</time>
      </trkpt>
      <trkpt lat="50.28885" lon="3.52566">
        <ele>71</ele>
        <time>2023-08-06T09:33:04Z</time>
      </trkpt>
      <trkpt lat="50.28884" lon="3.5257">
        <ele>71</ele>
        <time>2023-08-06T09:33:05Z</time>
      </trkpt>
      <trkpt lat="50.28884" lon="3.52574">
        <ele>71.4</ele>
        <time>2023-08-06T09:33:06Z</time>
      </trkpt>
      <trkpt lat="50.28883" lon="3.52578">
        <ele>71.4</ele>
        <time>2023-08-06T09:33:07Z</time>
      </trkpt>
      <trkpt lat="50.28882" lon="3.52581">
        <ele>71.4</ele>
        <time>2023-08-06T09:33:08Z</time>
      </trkpt>
      <trkpt lat="50.28882" lon="3.52585">
        <ele>71.6</ele>
        <time>2023-08-06T09:33:09Z</time>
      </trkpt>
      <trkpt lat="50.28881" lon="3.52589">
        <ele>71.6</ele>
        <time>2023-08-06T09:33:10Z</time>
      </trkpt>
      <trkpt lat="50.2888" lon="3.52592">
        <ele>71.6</ele>
        <time>2023-08-06T09:33:11Z</time>
      </trkpt>
      <trkpt lat="50.28879" lon="3.52596">
        <ele>71.6</ele>
        <time>2023-08-06T09:33:12Z</time>
      </trkpt>
      <trkpt lat="50.28879" lon="3.52599">
        <ele>71.8</ele>
        <time>2023-08-06T09:33:13Z</time>
      </trkpt>
      <trkpt lat="50.28878" lon="3.52603">
        <ele>71.8</ele>
        <time>2023-08-06T09:33:14Z</time>
      </trkpt>
      <trkpt lat="50.28877" lon="3.52606">
        <ele>72</ele>
        <time>2023-08-06T09:33:15Z</time>
      </trkpt>
      <trkpt lat="50.28876" lon="3.5261">
        <ele>72.4</ele>
        <time>2023-08-06T09:33:16Z</time>
      </trkpt>
      <trkpt lat="50.28875" lon="3.52614">
        <ele>72.4</ele>
        <time>2023-08-06T09:33:17Z</time>
      </trkpt>
      <trkpt lat="50.28874" lon="3.52618">
        <ele>72.6</ele>
        <time>2023-08-06T09:33:18Z</time>
      </trkpt>
      <trkpt lat="50.28873" lon="3.52621">
        <ele>72.8</ele>
        <time>2023-08-06T09:33:19Z</time>
      </trkpt>
      <trkpt lat="50.28873" lon="3.52625">
        <ele>73</ele>
        <time>2023-08-06T09:33:20Z</time>
      </trkpt>
      <trkpt lat="50.28872" lon="3.52629">
        <ele>73</ele>
        <time>2023-08-06T09:33:21Z</time>
      </trkpt>
      <trkpt lat="50.28871" lon="3.52632">
        <ele>73.2</ele>
        <time>2023-08-06T09:33:22Z</time>
      </trkpt>
      <trkpt lat="50.28869" lon="3.52636">
        <ele>73.4</ele>
        <time>2023-08-06T09:33:23Z</time>
      </trkpt>
      <trkpt lat="50.28868" lon="3.5264">
        <ele>73.4</ele>
        <time>2023-08-06T09:33:24Z</time>
      </trkpt>
      <trkpt lat="50.28867" lon="3.52644">
        <ele>73.4</ele>
        <time>2023-08-06T09:33:25Z</time>
      </trkpt>
      <trkpt lat="50.28866" lon="3.52648">
        <ele>73.4</ele>
        <time>2023-08-06T09:33:26Z</time>
      </trkpt>
      <trkpt lat="50.28865" lon="3.52652">
        <ele>73.4</ele>
        <time>2023-08-06T09:33:27Z</time>
      </trkpt>
      <trkpt lat="50.28864" lon="3.52656">
        <ele>73.4</ele>
        <time>2023-08-06T09:33:28Z</time>
      </trkpt>
      <trkpt lat="50.28863" lon="3.5266">
        <ele>73.6</ele>
        <time>2023-08-06T09:33:29Z</time>
      </trkpt>
      <trkpt lat="50.28862" lon="3.52664">
        <ele>73.8</ele>
        <time>2023-08-06T09:33:30Z</time>
      </trkpt>
      <trkpt lat="50.28861" lon="3.52667">
        <ele>73.8</ele>
        <time>2023-08-06T09:33:31Z</time>
      </trkpt>
      <trkpt lat="50.2886" lon="3.52671">
        <ele>74</ele>
        <time>2023-08-06T09:33:32Z</time>
      </trkpt>
      <trkpt lat="50.28859" lon="3.52675">
        <ele>74</ele>
        <time>2023-08-06T09:33:33Z</time>
      </trkpt>
      <trkpt lat="50.28858" lon="3.52679">
        <ele>74.2</ele>
        <time>2023-08-06T09:33:34Z</time>
      </trkpt>
      <trkpt lat="50.28857" lon="3.52683">
        <ele>74.2</ele>
        <time>2023-08-06T09:33:35Z</time>
      </trkpt>
      <trkpt lat="50.28856" lon="3.52686">
        <ele>74.4</ele>
        <time>2023-08-06T09:33:36Z</time>
      </trkpt>
      <trkpt lat="50.28855" lon="3.5269">
        <ele>74.4</ele>
        <time>2023-08-06T09:33:37Z</time>
      </trkpt>
      <trkpt lat="50.28854" lon="3.52694">
        <ele>74.6</ele>
        <time>2023-08-06T09:33:38Z</time>
      </trkpt>
      <trkpt lat="50.28853" lon="3.52698">
        <ele>74.8</ele>
        <time>2023-08-06T09:33:39Z</time>
      </trkpt>
      <trkpt lat="50.28852" lon="3.52701">
        <ele>74.8</ele>
        <time>2023-08-06T09:33:40Z</time>
      </trkpt>
      <trkpt lat="50.28852" lon="3.52705">
        <ele>74.8</ele>
        <time>2023-08-06T09:33:41Z</time>
      </trkpt>
      <trkpt lat="50.28851" lon="3.52709">
        <ele>75</ele>
        <time>2023-08-06T09:33:42Z</time>
      </trkpt>
      <trkpt lat="50.2885" lon="3.52713">
        <ele>75</ele>
        <time>2023-08-06T09:33:43Z</time>
      </trkpt>
      <trkpt lat="50.28849" lon="3.52717">
        <ele>75</ele>
        <time>2023-08-06T09:33:44Z</time>
      </trkpt>
      <trkpt lat="50.28849" lon="3.52721">
        <ele>75</ele>
        <time>2023-08-06T09:33:45Z</time>
      </trkpt>
      <trkpt lat="50.28843" lon="3.52749">
        <ele>75.8</ele>
        <time>2023-08-06T09:33:52Z</time>
      </trkpt>
      <trkpt lat="50.28843" lon="3.52753">
        <ele>75.8</ele>
        <time>2023-08-06T09:33:53Z</time>
      </trkpt>
      <trkpt lat="50.28837" lon="3.52788">
        <ele>76.8</ele>
        <time>2023-08-06T09:34:02Z</time>
      </trkpt>
      <trkpt lat="50.28835" lon="3.52795">
        <ele>76.8</ele>
        <time>2023-08-06T09:34:04Z</time>
      </trkpt>
      <trkpt lat="50.28831" lon="3.52823">
        <ele>77.4</ele>
        <time>2023-08-06T09:34:11Z</time>
      </trkpt>
      <trkpt lat="50.28828" lon="3.52838">
        <ele>77.6</ele>
        <time>2023-08-06T09:34:15Z</time>
      </trkpt>
      <trkpt lat="50.28827" lon="3.52842">
        <ele>77.8</ele>
        <time>2023-08-06T09:34:16Z</time>
      </trkpt>
      <trkpt lat="50.28825" lon="3.52853">
        <ele>78.2</ele>
        <time>2023-08-06T09:34:19Z</time>
      </trkpt>
      <trkpt lat="50.28823" lon="3.52865">
        <ele>78.4</ele>
        <time>2023-08-06T09:34:22Z</time>
      </trkpt>
      <trkpt lat="50.28822" lon="3.52873">
        <ele>78.8</ele>
        <time>2023-08-06T09:34:24Z</time>
      </trkpt>
      <trkpt lat="50.28819" lon="3.52893">
        <ele>79.2</ele>
        <time>2023-08-06T09:34:29Z</time>
      </trkpt>
      <trkpt lat="50.28819" lon="3.52898">
        <ele>79.2</ele>
        <time>2023-08-06T09:34:30Z</time>
      </trkpt>
      <trkpt lat="50.28818" lon="3.52902">
        <ele>79.4</ele>
        <time>2023-08-06T09:34:31Z</time>
      </trkpt>
      <trkpt lat="50.28818" lon="3.52906">
        <ele>79.4</ele>
        <time>2023-08-06T09:34:32Z</time>
      </trkpt>
      <trkpt lat="50.28817" lon="3.52909">
        <ele>79.6</ele>
        <time>2023-08-06T09:34:33Z</time>
      </trkpt>
      <trkpt lat="50.28816" lon="3.52912">
        <ele>79.6</ele>
        <time>2023-08-06T09:34:34Z</time>
      </trkpt>
      <trkpt lat="50.28816" lon="3.52915">
        <ele>79.8</ele>
        <time>2023-08-06T09:34:35Z</time>
      </trkpt>
      <trkpt lat="50.28814" lon="3.52917">
        <ele>80</ele>
        <time>2023-08-06T09:34:36Z</time>
      </trkpt>
      <trkpt lat="50.28812" lon="3.52919">
        <ele>80</ele>
        <time>2023-08-06T09:34:37Z</time>
      </trkpt>
      <trkpt lat="50.28809" lon="3.52921">
        <ele>80.4</ele>
        <time>2023-08-06T09:34:38Z</time>
      </trkpt>
      <trkpt lat="50.28807" lon="3.52923">
        <ele>80.4</ele>
        <time>2023-08-06T09:34:39Z</time>
      </trkpt>
      <trkpt lat="50.28804" lon="3.52925">
        <ele>80.6</ele>
        <time>2023-08-06T09:34:40Z</time>
      </trkpt>
      <trkpt lat="50.288" lon="3.52926">
        <ele>80.6</ele>
        <time>2023-08-06T09:34:41Z</time>
      </trkpt>
      <trkpt lat="50.28797" lon="3.52927">
        <ele>80.6</ele>
        <time>2023-08-06T09:34:42Z</time>
      </trkpt>
      <trkpt lat="50.28794" lon="3.52929">
        <ele>80.6</ele>
        <time>2023-08-06T09:34:43Z</time>
      </trkpt>
      <trkpt lat="50.28791" lon="3.5293">
        <ele>80.8</ele>
        <time>2023-08-06T09:34:44Z</time>
      </trkpt>
      <trkpt lat="50.28787" lon="3.52932">
        <ele>80.8</ele>
        <time>2023-08-06T09:34:45Z</time>
      </trkpt>
      <trkpt lat="50.28784" lon="3.52933">
        <ele>80.8</ele>
        <time>2023-08-06T09:34:46Z</time>
      </trkpt>
      <trkpt lat="50.2878" lon="3.52935">
        <ele>80.8</ele>
        <time>2023-08-06T09:34:47Z</time>
      </trkpt>
      <trkpt lat="50.28777" lon="3.52936">
        <ele>80.8</ele>
        <time>2023-08-06T09:34:48Z</time>
      </trkpt>
      <trkpt lat="50.28773" lon="3.52937">
        <ele>80.6</ele>
        <time>2023-08-06T09:34:49Z</time>
      </trkpt>
      <trkpt lat="50.28757" lon="3.52941">
        <ele>80.2</ele>
        <time>2023-08-06T09:34:53Z</time>
      </trkpt>
      <trkpt lat="50.28752" lon="3.52943">
        <ele>80</ele>
        <time>2023-08-06T09:34:54Z</time>
      </trkpt>
      <trkpt lat="50.28748" lon="3.52945">
        <ele>79.8</ele>
        <time>2023-08-06T09:34:55Z</time>
      </trkpt>
      <trkpt lat="50.28734" lon="3.52952">
        <ele>79.6</ele>
        <time>2023-08-06T09:34:58Z</time>
      </trkpt>
      <trkpt lat="50.28724" lon="3.52956">
        <ele>79.6</ele>
        <time>2023-08-06T09:35:00Z</time>
      </trkpt>
      <trkpt lat="50.28697" lon="3.52966">
        <ele>78.8</ele>
        <time>2023-08-06T09:35:05Z</time>
      </trkpt>
      <trkpt lat="50.28692" lon="3.52967">
        <ele>78.6</ele>
        <time>2023-08-06T09:35:06Z</time>
      </trkpt>
      <trkpt lat="50.28659" lon="3.52982">
        <ele>77.6</ele>
        <time>2023-08-06T09:35:12Z</time>
      </trkpt>
      <trkpt lat="50.28647" lon="3.52988">
        <ele>77</ele>
        <time>2023-08-06T09:35:14Z</time>
      </trkpt>
      <trkpt lat="50.2863" lon="3.52996">
        <ele>76.4</ele>
        <time>2023-08-06T09:35:17Z</time>
      </trkpt>
      <trkpt lat="50.28592" lon="3.53015">
        <ele>75.4</ele>
        <time>2023-08-06T09:35:24Z</time>
      </trkpt>
      <trkpt lat="50.28587" lon="3.53017">
        <ele>75.4</ele>
        <time>2023-08-06T09:35:25Z</time>
      </trkpt>
      <trkpt lat="50.28582" lon="3.5302">
        <ele>75.4</ele>
        <time>2023-08-06T09:35:26Z</time>
      </trkpt>
      <trkpt lat="50.28577" lon="3.53022">
        <ele>75.2</ele>
        <time>2023-08-06T09:35:27Z</time>
      </trkpt>
      <trkpt lat="50.28572" lon="3.53025">
        <ele>75.2</ele>
        <time>2023-08-06T09:35:28Z</time>
      </trkpt>
      <trkpt lat="50.28567" lon="3.53027">
        <ele>74.8</ele>
        <time>2023-08-06T09:35:29Z</time>
      </trkpt>
      <trkpt lat="50.28562" lon="3.53029">
        <ele>74.8</ele>
        <time>2023-08-06T09:35:30Z</time>
      </trkpt>
      <trkpt lat="50.28557" lon="3.53031">
        <ele>74.6</ele>
        <time>2023-08-06T09:35:31Z</time>
      </trkpt>
      <trkpt lat="50.28553" lon="3.53033">
        <ele>74.6</ele>
        <time>2023-08-06T09:35:32Z</time>
      </trkpt>
      <trkpt lat="50.28548" lon="3.53035">
        <ele>74.4</ele>
        <time>2023-08-06T09:35:33Z</time>
      </trkpt>
      <trkpt lat="50.28544" lon="3.53037">
        <ele>74.4</ele>
        <time>2023-08-06T09:35:34Z</time>
      </trkpt>
      <trkpt lat="50.28539" lon="3.5304">
        <ele>74.2</ele>
        <time>2023-08-06T09:35:35Z</time>
      </trkpt>
      <trkpt lat="50.28534" lon="3.53042">
        <ele>74.2</ele>
        <time>2023-08-06T09:35:36Z</time>
      </trkpt>
      <trkpt lat="50.2853" lon="3.53043">
        <ele>74.2</ele>
        <time>2023-08-06T09:35:37Z</time>
      </trkpt>
      <trkpt lat="50.28525" lon="3.53045">
        <ele>74.2</ele>
        <time>2023-08-06T09:35:38Z</time>
      </trkpt>
      <trkpt lat="50.28521" lon="3.53048">
        <ele>74.2</ele>
        <time>2023-08-06T09:35:39Z</time>
      </trkpt>
      <trkpt lat="50.28516" lon="3.5305">
        <ele>74.2</ele>
        <time>2023-08-06T09:35:40Z</time>
      </trkpt>
      <trkpt lat="50.28475" lon="3.5307">
        <ele>74.4</ele>
        <time>2023-08-06T09:35:49Z</time>
      </trkpt>
      <trkpt lat="50.28462" lon="3.53075">
        <ele>74.2</ele>
        <time>2023-08-06T09:35:52Z</time>
      </trkpt>
      <trkpt lat="50.28459" lon="3.53077">
        <ele>74.2</ele>
        <time>2023-08-06T09:35:53Z</time>
      </trkpt>
      <trkpt lat="50.28456" lon="3.53078">
        <ele>74</ele>
        <time>2023-08-06T09:35:54Z</time>
      </trkpt>
      <trkpt lat="50.28454" lon="3.53079">
        <ele>74</ele>
        <time>2023-08-06T09:35:55Z</time>
      </trkpt>
      <trkpt lat="50.28452" lon="3.5308">
        <ele>73.8</ele>
        <time>2023-08-06T09:35:56Z</time>
      </trkpt>
      <trkpt lat="50.28452" lon="3.5308">
        <ele>73.8</ele>
        <time>2023-08-06T09:35:57Z</time>
      </trkpt>
      <trkpt lat="50.28451" lon="3.53081">
        <ele>73.8</ele>
        <time>2023-08-06T09:35:58Z</time>
      </trkpt>
      <trkpt lat="50.2845" lon="3.53081">
        <ele>73.8</ele>
        <time>2023-08-06T09:35:59Z</time>
      </trkpt>
      <trkpt lat="50.28449" lon="3.53081">
        <ele>74</ele>
        <time>2023-08-06T09:36:00Z</time>
      </trkpt>
      <trkpt lat="50.28447" lon="3.53082">
        <ele>74</ele>
        <time>2023-08-06T09:36:02Z</time>
      </trkpt>
      <trkpt lat="50.28447" lon="3.53083">
        <ele>74</ele>
        <time>2023-08-06T09:36:03Z</time>
      </trkpt>
      <trkpt lat="50.28447" lon="3.53083">
        <ele>74</ele>
        <time>2023-08-06T09:36:04Z</time>
      </trkpt>
      <trkpt lat="50.28448" lon="3.53083">
        <ele>74</ele>
        <time>2023-08-06T09:36:05Z</time>
      </trkpt>
      <trkpt lat="50.28448" lon="3.53083">
        <ele>73.8</ele>
        <time>2023-08-06T09:36:07Z</time>
      </trkpt>
      <trkpt lat="50.28442" lon="3.53086">
        <ele>73.8</ele>
        <time>2023-08-06T09:38:12Z</time>
      </trkpt>
      <trkpt lat="50.2844" lon="3.53087">
        <ele>73.8</ele>
        <time>2023-08-06T09:38:13Z</time>
      </trkpt>
      <trkpt lat="50.28423" lon="3.53095">
        <ele>74.2</ele>
        <time>2023-08-06T09:38:20Z</time>
      </trkpt>
      <trkpt lat="50.28414" lon="3.53099">
        <ele>74.2</ele>
        <time>2023-08-06T09:38:23Z</time>
      </trkpt>
      <trkpt lat="50.28405" lon="3.53103">
        <ele>74</ele>
        <time>2023-08-06T09:38:26Z</time>
      </trkpt>
      <trkpt lat="50.28385" lon="3.53115">
        <ele>74</ele>
        <time>2023-08-06T09:38:33Z</time>
      </trkpt>
      <trkpt lat="50.28382" lon="3.53117">
        <ele>74</ele>
        <time>2023-08-06T09:38:34Z</time>
      </trkpt>
      <trkpt lat="50.2838" lon="3.53118">
        <ele>74</ele>
        <time>2023-08-06T09:38:35Z</time>
      </trkpt>
      <trkpt lat="50.28377" lon="3.53119">
        <ele>74</ele>
        <time>2023-08-06T09:38:36Z</time>
      </trkpt>
      <trkpt lat="50.28375" lon="3.5312">
        <ele>74</ele>
        <time>2023-08-06T09:38:37Z</time>
      </trkpt>
      <trkpt lat="50.28372" lon="3.53121">
        <ele>74</ele>
        <time>2023-08-06T09:38:38Z</time>
      </trkpt>
      <trkpt lat="50.28369" lon="3.53121">
        <ele>74</ele>
        <time>2023-08-06T09:38:39Z</time>
      </trkpt>
      <trkpt lat="50.28366" lon="3.53122">
        <ele>74</ele>
        <time>2023-08-06T09:38:40Z</time>
      </trkpt>
      <trkpt lat="50.28364" lon="3.53122">
        <ele>74</ele>
        <time>2023-08-06T09:38:41Z</time>
      </trkpt>
      <trkpt lat="50.28361" lon="3.53123">
        <ele>74</ele>
        <time>2023-08-06T09:38:42Z</time>
      </trkpt>
      <trkpt lat="50.28359" lon="3.53124">
        <ele>74</ele>
        <time>2023-08-06T09:38:43Z</time>
      </trkpt>
      <trkpt lat="50.28346" lon="3.5313">
        <ele>74</ele>
        <time>2023-08-06T09:38:48Z</time>
      </trkpt>
      <trkpt lat="50.28323" lon="3.5314">
        <ele>74.4</ele>
        <time>2023-08-06T09:38:57Z</time>
      </trkpt>
      <trkpt lat="50.28309" lon="3.53145">
        <ele>74.8</ele>
        <time>2023-08-06T09:39:02Z</time>
      </trkpt>
      <trkpt lat="50.28301" lon="3.53148">
        <ele>74.8</ele>
        <time>2023-08-06T09:39:05Z</time>
      </trkpt>
      <trkpt lat="50.28272" lon="3.53158">
        <ele>74.4</ele>
        <time>2023-08-06T09:39:15Z</time>
      </trkpt>
      <trkpt lat="50.28245" lon="3.53167">
        <ele>74.8</ele>
        <time>2023-08-06T09:39:24Z</time>
      </trkpt>
      <trkpt lat="50.28215" lon="3.53177">
        <ele>75</ele>
        <time>2023-08-06T09:39:34Z</time>
      </trkpt>
      <trkpt lat="50.28211" lon="3.53178">
        <ele>75</ele>
        <time>2023-08-06T09:39:35Z</time>
      </trkpt>
      <trkpt lat="50.28181" lon="3.53187">
        <ele>75.4</ele>
        <time>2023-08-06T09:39:45Z</time>
      </trkpt>
      <trkpt lat="50.28178" lon="3.53188">
        <ele>75.4</ele>
        <time>2023-08-06T09:39:46Z</time>
      </trkpt>
      <trkpt lat="50.28142" lon="3.532">
        <ele>75.8</ele>
        <time>2023-08-06T09:39:58Z</time>
      </trkpt>
      <trkpt lat="50.28109" lon="3.53212">
        <ele>76.4</ele>
        <time>2023-08-06T09:40:09Z</time>
      </trkpt>
      <trkpt lat="50.28102" lon="3.53214">
        <ele>76.4</ele>
        <time>2023-08-06T09:40:11Z</time>
      </trkpt>
      <trkpt lat="50.28085" lon="3.53219">
        <ele>76.8</ele>
        <time>2023-08-06T09:40:17Z</time>
      </trkpt>
      <trkpt lat="50.28082" lon="3.5322">
        <ele>77</ele>
        <time>2023-08-06T09:40:18Z</time>
      </trkpt>
      <trkpt lat="50.28079" lon="3.5322">
        <ele>77</ele>
        <time>2023-08-06T09:40:19Z</time>
      </trkpt>
      <trkpt lat="50.28076" lon="3.53221">
        <ele>77.2</ele>
        <time>2023-08-06T09:40:20Z</time>
      </trkpt>
      <trkpt lat="50.28074" lon="3.53222">
        <ele>77.2</ele>
        <time>2023-08-06T09:40:21Z</time>
      </trkpt>
      <trkpt lat="50.28071" lon="3.53223">
        <ele>77.2</ele>
        <time>2023-08-06T09:40:22Z</time>
      </trkpt>
      <trkpt lat="50.28068" lon="3.53223">
        <ele>77.4</ele>
        <time>2023-08-06T09:40:23Z</time>
      </trkpt>
      <trkpt lat="50.28065" lon="3.53224">
        <ele>77.4</ele>
        <time>2023-08-06T09:40:24Z</time>
      </trkpt>
      <trkpt lat="50.28063" lon="3.53225">
        <ele>77.4</ele>
        <time>2023-08-06T09:40:25Z</time>
      </trkpt>
      <trkpt lat="50.2806" lon="3.53226">
        <ele>77.4</ele>
        <time>2023-08-06T09:40:26Z</time>
      </trkpt>
      <trkpt lat="50.28049" lon="3.5323">
        <ele>77.6</ele>
        <time>2023-08-06T09:40:30Z</time>
      </trkpt>
      <trkpt lat="50.2802" lon="3.5324">
        <ele>78</ele>
        <time>2023-08-06T09:40:41Z</time>
      </trkpt>
      <trkpt lat="50.28014" lon="3.53242">
        <ele>78</ele>
        <time>2023-08-06T09:40:43Z</time>
      </trkpt>
      <trkpt lat="50.28012" lon="3.53243">
        <ele>78</ele>
        <time>2023-08-06T09:40:44Z</time>
      </trkpt>
      <trkpt lat="50.28008" lon="3.53246">
        <ele>77.8</ele>
        <time>2023-08-06T09:40:46Z</time>
      </trkpt>
      <trkpt lat="50.28006" lon="3.53248">
        <ele>77.8</ele>
        <time>2023-08-06T09:40:47Z</time>
      </trkpt>
      <trkpt lat="50.28005" lon="3.5325">
        <ele>77.8</ele>
        <time>2023-08-06T09:40:48Z</time>
      </trkpt>
      <trkpt lat="50.28004" lon="3.53252">
        <ele>77.8</ele>
        <time>2023-08-06T09:40:49Z</time>
      </trkpt>
      <trkpt lat="50.28003" lon="3.53253">
        <ele>77.8</ele>
        <time>2023-08-06T09:40:50Z</time>
      </trkpt>
      <trkpt lat="50.28002" lon="3.53254">
        <ele>77.8</ele>
        <time>2023-08-06T09:40:51Z</time>
      </trkpt>
      <trkpt lat="50.28001" lon="3.53254">
        <ele>77.8</ele>
        <time>2023-08-06T09:40:52Z</time>
      </trkpt>
      <trkpt lat="50.28001" lon="3.53254">
        <ele>77.6</ele>
        <time>2023-08-06T09:40:53Z</time>
      </trkpt>
      <trkpt lat="50.28001" lon="3.53254">
        <ele>77.6</ele>
        <time>2023-08-06T09:40:55Z</time>
      </trkpt>
      <trkpt lat="50.27981" lon="3.53258">
        <ele>76.6</ele>
        <time>2023-08-06T09:44:57Z</time>
      </trkpt>
      <trkpt lat="50.27978" lon="3.53258">
        <ele>76.6</ele>
        <time>2023-08-06T09:44:58Z</time>
      </trkpt>
      <trkpt lat="50.27969" lon="3.53261">
        <ele>76.4</ele>
        <time>2023-08-06T09:45:02Z</time>
      </trkpt>
      <trkpt lat="50.27967" lon="3.53262">
        <ele>76.4</ele>
        <time>2023-08-06T09:45:03Z</time>
      </trkpt>
      <trkpt lat="50.27944" lon="3.53271">
        <ele>76.2</ele>
        <time>2023-08-06T09:45:12Z</time>
      </trkpt>
      <trkpt lat="50.27933" lon="3.53275">
        <ele>76</ele>
        <time>2023-08-06T09:45:16Z</time>
      </trkpt>
      <trkpt lat="50.27917" lon="3.53281">
        <ele>75.8</ele>
        <time>2023-08-06T09:45:21Z</time>
      </trkpt>
      <trkpt lat="50.27887" lon="3.53293">
        <ele>75.6</ele>
        <time>2023-08-06T09:45:31Z</time>
      </trkpt>
      <trkpt lat="50.27881" lon="3.53296">
        <ele>75.4</ele>
        <time>2023-08-06T09:45:33Z</time>
      </trkpt>
      <trkpt lat="50.27856" lon="3.53307">
        <ele>75.6</ele>
        <time>2023-08-06T09:45:41Z</time>
      </trkpt>
      <trkpt lat="50.27829" lon="3.53318">
        <ele>75.8</ele>
        <time>2023-08-06T09:45:49Z</time>
      </trkpt>
      <trkpt lat="50.27806" lon="3.53328">
        <ele>75.8</ele>
        <time>2023-08-06T09:45:56Z</time>
      </trkpt>
      <trkpt lat="50.27799" lon="3.5333">
        <ele>75.6</ele>
        <time>2023-08-06T09:45:58Z</time>
      </trkpt>
      <trkpt lat="50.27796" lon="3.53332">
        <ele>75.6</ele>
        <time>2023-08-06T09:45:59Z</time>
      </trkpt>
      <trkpt lat="50.27793" lon="3.53333">
        <ele>75.6</ele>
        <time>2023-08-06T09:46:00Z</time>
      </trkpt>
      <trkpt lat="50.2779" lon="3.53335">
        <ele>75.6</ele>
        <time>2023-08-06T09:46:01Z</time>
      </trkpt>
      <trkpt lat="50.27787" lon="3.53336">
        <ele>75.6</ele>
        <time>2023-08-06T09:46:02Z</time>
      </trkpt>
      <trkpt lat="50.27784" lon="3.53337">
        <ele>75.6</ele>
        <time>2023-08-06T09:46:03Z</time>
      </trkpt>
      <trkpt lat="50.27781" lon="3.53338">
        <ele>75.6</ele>
        <time>2023-08-06T09:46:04Z</time>
      </trkpt>
      <trkpt lat="50.27777" lon="3.53339">
        <ele>75.6</ele>
        <time>2023-08-06T09:46:05Z</time>
      </trkpt>
      <trkpt lat="50.27768" lon="3.53343">
        <ele>75.8</ele>
        <time>2023-08-06T09:46:08Z</time>
      </trkpt>
      <trkpt lat="50.27755" lon="3.53349">
        <ele>76</ele>
        <time>2023-08-06T09:46:12Z</time>
      </trkpt>
      <trkpt lat="50.27737" lon="3.53359">
        <ele>75.8</ele>
        <time>2023-08-06T09:46:18Z</time>
      </trkpt>
      <trkpt lat="50.27727" lon="3.53361">
        <ele>75.6</ele>
        <time>2023-08-06T09:46:21Z</time>
      </trkpt>
      <trkpt lat="50.27724" lon="3.53363">
        <ele>75.6</ele>
        <time>2023-08-06T09:46:22Z</time>
      </trkpt>
      <trkpt lat="50.27722" lon="3.53364">
        <ele>75.6</ele>
        <time>2023-08-06T09:46:23Z</time>
      </trkpt>
      <trkpt lat="50.27719" lon="3.53365">
        <ele>75.6</ele>
        <time>2023-08-06T09:46:24Z</time>
      </trkpt>
      <trkpt lat="50.27716" lon="3.53366">
        <ele>75.8</ele>
        <time>2023-08-06T09:46:25Z</time>
      </trkpt>
      <trkpt lat="50.27713" lon="3.53367">
        <ele>75.8</ele>
        <time>2023-08-06T09:46:26Z</time>
      </trkpt>
      <trkpt lat="50.2771" lon="3.53368">
        <ele>75.8</ele>
        <time>2023-08-06T09:46:27Z</time>
      </trkpt>
      <trkpt lat="50.27707" lon="3.53369">
        <ele>76.2</ele>
        <time>2023-08-06T09:46:28Z</time>
      </trkpt>
      <trkpt lat="50.27705" lon="3.53369">
        <ele>76</ele>
        <time>2023-08-06T09:46:29Z</time>
      </trkpt>
      <trkpt lat="50.27702" lon="3.5337">
        <ele>76</ele>
        <time>2023-08-06T09:46:30Z</time>
      </trkpt>
      <trkpt lat="50.27685" lon="3.53377">
        <ele>76</ele>
        <time>2023-08-06T09:46:36Z</time>
      </trkpt>
      <trkpt lat="50.27676" lon="3.5338">
        <ele>76</ele>
        <time>2023-08-06T09:46:39Z</time>
      </trkpt>
      <trkpt lat="50.27661" lon="3.53385">
        <ele>76.2</ele>
        <time>2023-08-06T09:46:44Z</time>
      </trkpt>
      <trkpt lat="50.27658" lon="3.53386">
        <ele>76.2</ele>
        <time>2023-08-06T09:46:45Z</time>
      </trkpt>
      <trkpt lat="50.27637" lon="3.53399">
        <ele>76.8</ele>
        <time>2023-08-06T09:46:53Z</time>
      </trkpt>
      <trkpt lat="50.27634" lon="3.53402">
        <ele>76.8</ele>
        <time>2023-08-06T09:46:54Z</time>
      </trkpt>
      <trkpt lat="50.27632" lon="3.53404">
        <ele>76.8</ele>
        <time>2023-08-06T09:46:55Z</time>
      </trkpt>
      <trkpt lat="50.27626" lon="3.53405">
        <ele>76.8</ele>
        <time>2023-08-06T09:46:57Z</time>
      </trkpt>
      <trkpt lat="50.27622" lon="3.53405">
        <ele>76.8</ele>
        <time>2023-08-06T09:46:58Z</time>
      </trkpt>
      <trkpt lat="50.27619" lon="3.53405">
        <ele>76.8</ele>
        <time>2023-08-06T09:46:59Z</time>
      </trkpt>
      <trkpt lat="50.27601" lon="3.5341">
        <ele>77</ele>
        <time>2023-08-06T09:47:04Z</time>
      </trkpt>
      <trkpt lat="50.27592" lon="3.53413">
        <ele>77</ele>
        <time>2023-08-06T09:47:06Z</time>
      </trkpt>
      <trkpt lat="50.27575" lon="3.53421">
        <ele>77</ele>
        <time>2023-08-06T09:47:10Z</time>
      </trkpt>
      <trkpt lat="50.2753" lon="3.53437">
        <ele>76.6</ele>
        <time>2023-08-06T09:47:19Z</time>
      </trkpt>
      <trkpt lat="50.27525" lon="3.5344">
        <ele>76.2</ele>
        <time>2023-08-06T09:47:20Z</time>
      </trkpt>
      <trkpt lat="50.275" lon="3.53452">
        <ele>75.6</ele>
        <time>2023-08-06T09:47:25Z</time>
      </trkpt>
      <trkpt lat="50.2749" lon="3.53456">
        <ele>75.2</ele>
        <time>2023-08-06T09:47:27Z</time>
      </trkpt>
      <trkpt lat="50.27454" lon="3.53474">
        <ele>74.4</ele>
        <time>2023-08-06T09:47:34Z</time>
      </trkpt>
      <trkpt lat="50.27438" lon="3.53482">
        <ele>74</ele>
        <time>2023-08-06T09:47:37Z</time>
      </trkpt>
      <trkpt lat="50.27412" lon="3.53496">
        <ele>73.4</ele>
        <time>2023-08-06T09:47:42Z</time>
      </trkpt>
      <trkpt lat="50.2738" lon="3.53513">
        <ele>72.8</ele>
        <time>2023-08-06T09:47:48Z</time>
      </trkpt>
      <trkpt lat="50.27341" lon="3.53531">
        <ele>72.2</ele>
        <time>2023-08-06T09:47:55Z</time>
      </trkpt>
      <trkpt lat="50.2733" lon="3.53535">
        <ele>72</ele>
        <time>2023-08-06T09:47:57Z</time>
      </trkpt>
      <trkpt lat="50.27308" lon="3.53538">
        <ele>71.6</ele>
        <time>2023-08-06T09:48:01Z</time>
      </trkpt>
      <trkpt lat="50.27303" lon="3.53537">
        <ele>71.6</ele>
        <time>2023-08-06T09:48:02Z</time>
      </trkpt>
      <trkpt lat="50.27298" lon="3.53536">
        <ele>71.6</ele>
        <time>2023-08-06T09:48:03Z</time>
      </trkpt>
      <trkpt lat="50.27293" lon="3.53535">
        <ele>71.6</ele>
        <time>2023-08-06T09:48:04Z</time>
      </trkpt>
      <trkpt lat="50.27287" lon="3.53533">
        <ele>71.6</ele>
        <time>2023-08-06T09:48:05Z</time>
      </trkpt>
      <trkpt lat="50.27282" lon="3.53532">
        <ele>71.6</ele>
        <time>2023-08-06T09:48:06Z</time>
      </trkpt>
      <trkpt lat="50.27278" lon="3.53531">
        <ele>71.6</ele>
        <time>2023-08-06T09:48:07Z</time>
      </trkpt>
      <trkpt lat="50.27273" lon="3.53528">
        <ele>71.6</ele>
        <time>2023-08-06T09:48:08Z</time>
      </trkpt>
      <trkpt lat="50.27269" lon="3.53526">
        <ele>71.6</ele>
        <time>2023-08-06T09:48:09Z</time>
      </trkpt>
      <trkpt lat="50.27265" lon="3.53524">
        <ele>71.4</ele>
        <time>2023-08-06T09:48:10Z</time>
      </trkpt>
      <trkpt lat="50.27255" lon="3.53522">
        <ele>71.2</ele>
        <time>2023-08-06T09:48:12Z</time>
      </trkpt>
      <trkpt lat="50.27251" lon="3.53521">
        <ele>71</ele>
        <time>2023-08-06T09:48:13Z</time>
      </trkpt>
      <trkpt lat="50.27218" lon="3.53513">
        <ele>70.4</ele>
        <time>2023-08-06T09:48:19Z</time>
      </trkpt>
      <trkpt lat="50.27205" lon="3.53512">
        <ele>70.2</ele>
        <time>2023-08-06T09:48:21Z</time>
      </trkpt>
      <trkpt lat="50.27192" lon="3.5351">
        <ele>70</ele>
        <time>2023-08-06T09:48:23Z</time>
      </trkpt>
      <trkpt lat="50.27173" lon="3.53509">
        <ele>69.4</ele>
        <time>2023-08-06T09:48:26Z</time>
      </trkpt>
      <trkpt lat="50.2716" lon="3.53507">
        <ele>69.2</ele>
        <time>2023-08-06T09:48:28Z</time>
      </trkpt>
      <trkpt lat="50.27125" lon="3.53505">
        <ele>67.8</ele>
        <time>2023-08-06T09:48:33Z</time>
      </trkpt>
      <trkpt lat="50.27105" lon="3.53502">
        <ele>67</ele>
        <time>2023-08-06T09:48:36Z</time>
      </trkpt>
      <trkpt lat="50.27097" lon="3.53502">
        <ele>66.8</ele>
        <time>2023-08-06T09:48:37Z</time>
      </trkpt>
      <trkpt lat="50.27078" lon="3.535">
        <ele>66</ele>
        <time>2023-08-06T09:48:40Z</time>
      </trkpt>
      <trkpt lat="50.27069" lon="3.535">
        <ele>65.6</ele>
        <time>2023-08-06T09:48:41Z</time>
      </trkpt>
      <trkpt lat="50.27056" lon="3.53498">
        <ele>64.6</ele>
        <time>2023-08-06T09:48:43Z</time>
      </trkpt>
      <trkpt lat="50.27042" lon="3.53497">
        <ele>64</ele>
        <time>2023-08-06T09:48:45Z</time>
      </trkpt>
      <trkpt lat="50.27029" lon="3.53496">
        <ele>63.4</ele>
        <time>2023-08-06T09:48:47Z</time>
      </trkpt>
      <trkpt lat="50.27023" lon="3.53496">
        <ele>63.4</ele>
        <time>2023-08-06T09:48:48Z</time>
      </trkpt>
      <trkpt lat="50.27017" lon="3.53495">
        <ele>63.2</ele>
        <time>2023-08-06T09:48:49Z</time>
      </trkpt>
      <trkpt lat="50.27011" lon="3.53494">
        <ele>63.2</ele>
        <time>2023-08-06T09:48:50Z</time>
      </trkpt>
      <trkpt lat="50.27005" lon="3.53494">
        <ele>63.2</ele>
        <time>2023-08-06T09:48:51Z</time>
      </trkpt>
      <trkpt lat="50.26999" lon="3.53493">
        <ele>63</ele>
        <time>2023-08-06T09:48:52Z</time>
      </trkpt>
      <trkpt lat="50.26993" lon="3.53493">
        <ele>63</ele>
        <time>2023-08-06T09:48:53Z</time>
      </trkpt>
      <trkpt lat="50.26988" lon="3.53492">
        <ele>62.8</ele>
        <time>2023-08-06T09:48:54Z</time>
      </trkpt>
      <trkpt lat="50.26983" lon="3.53492">
        <ele>62.8</ele>
        <time>2023-08-06T09:48:55Z</time>
      </trkpt>
      <trkpt lat="50.26978" lon="3.53491">
        <ele>62.8</ele>
        <time>2023-08-06T09:48:56Z</time>
      </trkpt>
      <trkpt lat="50.26973" lon="3.5349">
        <ele>62.8</ele>
        <time>2023-08-06T09:48:57Z</time>
      </trkpt>
      <trkpt lat="50.26968" lon="3.5349">
        <ele>62.6</ele>
        <time>2023-08-06T09:48:58Z</time>
      </trkpt>
      <trkpt lat="50.26963" lon="3.5349">
        <ele>62.6</ele>
        <time>2023-08-06T09:48:59Z</time>
      </trkpt>
      <trkpt lat="50.26958" lon="3.53489">
        <ele>62.6</ele>
        <time>2023-08-06T09:49:00Z</time>
      </trkpt>
      <trkpt lat="50.26948" lon="3.53489">
        <ele>62.6</ele>
        <time>2023-08-06T09:49:02Z</time>
      </trkpt>
      <trkpt lat="50.2693" lon="3.53487">
        <ele>62.6</ele>
        <time>2023-08-06T09:49:06Z</time>
      </trkpt>
      <trkpt lat="50.26886" lon="3.53482">
        <ele>62.6</ele>
        <time>2023-08-06T09:49:15Z</time>
      </trkpt>
      <trkpt lat="50.26882" lon="3.53482">
        <ele>62.6</ele>
        <time>2023-08-06T09:49:16Z</time>
      </trkpt>
      <trkpt lat="50.26877" lon="3.53481">
        <ele>62.4</ele>
        <time>2023-08-06T09:49:17Z</time>
      </trkpt>
      <trkpt lat="50.26873" lon="3.53481">
        <ele>62.4</ele>
        <time>2023-08-06T09:49:18Z</time>
      </trkpt>
      <trkpt lat="50.26869" lon="3.53481">
        <ele>62.4</ele>
        <time>2023-08-06T09:49:19Z</time>
      </trkpt>
      <trkpt lat="50.26865" lon="3.53481">
        <ele>62.6</ele>
        <time>2023-08-06T09:49:20Z</time>
      </trkpt>
      <trkpt lat="50.2686" lon="3.53481">
        <ele>62.6</ele>
        <time>2023-08-06T09:49:21Z</time>
      </trkpt>
      <trkpt lat="50.26856" lon="3.53481">
        <ele>62.6</ele>
        <time>2023-08-06T09:49:22Z</time>
      </trkpt>
      <trkpt lat="50.26851" lon="3.5348">
        <ele>62.6</ele>
        <time>2023-08-06T09:49:23Z</time>
      </trkpt>
      <trkpt lat="50.26847" lon="3.5348">
        <ele>62.6</ele>
        <time>2023-08-06T09:49:24Z</time>
      </trkpt>
      <trkpt lat="50.26843" lon="3.5348">
        <ele>62.6</ele>
        <time>2023-08-06T09:49:25Z</time>
      </trkpt>
      <trkpt lat="50.2684" lon="3.5348">
        <ele>62.6</ele>
        <time>2023-08-06T09:49:26Z</time>
      </trkpt>
      <trkpt lat="50.26836" lon="3.5348">
        <ele>62.6</ele>
        <time>2023-08-06T09:49:27Z</time>
      </trkpt>
      <trkpt lat="50.26832" lon="3.53479">
        <ele>62.6</ele>
        <time>2023-08-06T09:49:28Z</time>
      </trkpt>
      <trkpt lat="50.26828" lon="3.53478">
        <ele>62.6</ele>
        <time>2023-08-06T09:49:29Z</time>
      </trkpt>
      <trkpt lat="50.26824" lon="3.53478">
        <ele>62.6</ele>
        <time>2023-08-06T09:49:30Z</time>
      </trkpt>
      <trkpt lat="50.2682" lon="3.53478">
        <ele>62.8</ele>
        <time>2023-08-06T09:49:31Z</time>
      </trkpt>
      <trkpt lat="50.26816" lon="3.53477">
        <ele>62.8</ele>
        <time>2023-08-06T09:49:32Z</time>
      </trkpt>
      <trkpt lat="50.26808" lon="3.53477">
        <ele>62.8</ele>
        <time>2023-08-06T09:49:34Z</time>
      </trkpt>
      <trkpt lat="50.26804" lon="3.53477">
        <ele>63</ele>
        <time>2023-08-06T09:49:35Z</time>
      </trkpt>
      <trkpt lat="50.268" lon="3.53476">
        <ele>63</ele>
        <time>2023-08-06T09:49:36Z</time>
      </trkpt>
      <trkpt lat="50.26788" lon="3.53474">
        <ele>63.4</ele>
        <time>2023-08-06T09:49:39Z</time>
      </trkpt>
      <trkpt lat="50.26785" lon="3.53474">
        <ele>63.4</ele>
        <time>2023-08-06T09:49:40Z</time>
      </trkpt>
      <trkpt lat="50.26781" lon="3.53473">
        <ele>63.6</ele>
        <time>2023-08-06T09:49:41Z</time>
      </trkpt>
      <trkpt lat="50.26777" lon="3.53472">
        <ele>63.6</ele>
        <time>2023-08-06T09:49:42Z</time>
      </trkpt>
      <trkpt lat="50.26774" lon="3.53471">
        <ele>63.8</ele>
        <time>2023-08-06T09:49:43Z</time>
      </trkpt>
      <trkpt lat="50.2677" lon="3.53469">
        <ele>63.6</ele>
        <time>2023-08-06T09:49:44Z</time>
      </trkpt>
      <trkpt lat="50.26767" lon="3.53468">
        <ele>63.8</ele>
        <time>2023-08-06T09:49:45Z</time>
      </trkpt>
      <trkpt lat="50.26763" lon="3.53467">
        <ele>63.8</ele>
        <time>2023-08-06T09:49:46Z</time>
      </trkpt>
      <trkpt lat="50.2676" lon="3.53466">
        <ele>64</ele>
        <time>2023-08-06T09:49:47Z</time>
      </trkpt>
      <trkpt lat="50.26756" lon="3.53464">
        <ele>64.2</ele>
        <time>2023-08-06T09:49:48Z</time>
      </trkpt>
      <trkpt lat="50.26753" lon="3.53463">
        <ele>64.2</ele>
        <time>2023-08-06T09:49:49Z</time>
      </trkpt>
      <trkpt lat="50.2675" lon="3.53461">
        <ele>64.2</ele>
        <time>2023-08-06T09:49:50Z</time>
      </trkpt>
      <trkpt lat="50.26747" lon="3.5346">
        <ele>64.6</ele>
        <time>2023-08-06T09:49:51Z</time>
      </trkpt>
      <trkpt lat="50.26744" lon="3.53458">
        <ele>64.6</ele>
        <time>2023-08-06T09:49:52Z</time>
      </trkpt>
      <trkpt lat="50.26741" lon="3.53457">
        <ele>64.8</ele>
        <time>2023-08-06T09:49:53Z</time>
      </trkpt>
      <trkpt lat="50.26738" lon="3.53456">
        <ele>65</ele>
        <time>2023-08-06T09:49:54Z</time>
      </trkpt>
      <trkpt lat="50.26735" lon="3.53455">
        <ele>65.2</ele>
        <time>2023-08-06T09:49:55Z</time>
      </trkpt>
      <trkpt lat="50.26733" lon="3.53453">
        <ele>65.4</ele>
        <time>2023-08-06T09:49:56Z</time>
      </trkpt>
      <trkpt lat="50.2673" lon="3.53452">
        <ele>65.4</ele>
        <time>2023-08-06T09:49:57Z</time>
      </trkpt>
      <trkpt lat="50.26727" lon="3.53451">
        <ele>65.6</ele>
        <time>2023-08-06T09:49:58Z</time>
      </trkpt>
      <trkpt lat="50.26724" lon="3.5345">
        <ele>65.6</ele>
        <time>2023-08-06T09:49:59Z</time>
      </trkpt>
      <trkpt lat="50.26721" lon="3.53449">
        <ele>65.6</ele>
        <time>2023-08-06T09:50:00Z</time>
      </trkpt>
      <trkpt lat="50.26718" lon="3.53448">
        <ele>65.8</ele>
        <time>2023-08-06T09:50:01Z</time>
      </trkpt>
      <trkpt lat="50.26716" lon="3.53447">
        <ele>66</ele>
        <time>2023-08-06T09:50:02Z</time>
      </trkpt>
      <trkpt lat="50.26713" lon="3.53446">
        <ele>66.2</ele>
        <time>2023-08-06T09:50:03Z</time>
      </trkpt>
      <trkpt lat="50.2671" lon="3.53445">
        <ele>66.2</ele>
        <time>2023-08-06T09:50:04Z</time>
      </trkpt>
      <trkpt lat="50.26707" lon="3.53444">
        <ele>66.4</ele>
        <time>2023-08-06T09:50:05Z</time>
      </trkpt>
      <trkpt lat="50.26704" lon="3.53444">
        <ele>66.4</ele>
        <time>2023-08-06T09:50:06Z</time>
      </trkpt>
      <trkpt lat="50.26701" lon="3.53442">
        <ele>66.4</ele>
        <time>2023-08-06T09:50:07Z</time>
      </trkpt>
      <trkpt lat="50.26698" lon="3.53441">
        <ele>66.6</ele>
        <time>2023-08-06T09:50:08Z</time>
      </trkpt>
      <trkpt lat="50.26695" lon="3.5344">
        <ele>66.6</ele>
        <time>2023-08-06T09:50:09Z</time>
      </trkpt>
      <trkpt lat="50.26692" lon="3.53439">
        <ele>67</ele>
        <time>2023-08-06T09:50:10Z</time>
      </trkpt>
      <trkpt lat="50.26689" lon="3.53439">
        <ele>67</ele>
        <time>2023-08-06T09:50:11Z</time>
      </trkpt>
      <trkpt lat="50.26686" lon="3.53438">
        <ele>67.2</ele>
        <time>2023-08-06T09:50:12Z</time>
      </trkpt>
      <trkpt lat="50.26682" lon="3.53437">
        <ele>67.2</ele>
        <time>2023-08-06T09:50:13Z</time>
      </trkpt>
      <trkpt lat="50.26679" lon="3.53435">
        <ele>67.2</ele>
        <time>2023-08-06T09:50:14Z</time>
      </trkpt>
      <trkpt lat="50.26675" lon="3.53434">
        <ele>67.2</ele>
        <time>2023-08-06T09:50:15Z</time>
      </trkpt>
      <trkpt lat="50.26673" lon="3.53433">
        <ele>67.2</ele>
        <time>2023-08-06T09:50:16Z</time>
      </trkpt>
      <trkpt lat="50.26669" lon="3.53433">
        <ele>67.2</ele>
        <time>2023-08-06T09:50:17Z</time>
      </trkpt>
      <trkpt lat="50.26665" lon="3.53432">
        <ele>67.2</ele>
        <time>2023-08-06T09:50:18Z</time>
      </trkpt>
      <trkpt lat="50.26661" lon="3.53431">
        <ele>67.2</ele>
        <time>2023-08-06T09:50:19Z</time>
      </trkpt>
      <trkpt lat="50.26657" lon="3.5343">
        <ele>67.2</ele>
        <time>2023-08-06T09:50:20Z</time>
      </trkpt>
      <trkpt lat="50.26654" lon="3.53429">
        <ele>67.2</ele>
        <time>2023-08-06T09:50:21Z</time>
      </trkpt>
      <trkpt lat="50.2663" lon="3.53423">
        <ele>67</ele>
        <time>2023-08-06T09:50:27Z</time>
      </trkpt>
      <trkpt lat="50.26592" lon="3.53415">
        <ele>67</ele>
        <time>2023-08-06T09:50:36Z</time>
      </trkpt>
      <trkpt lat="50.26572" lon="3.53409">
        <ele>66.8</ele>
        <time>2023-08-06T09:50:41Z</time>
      </trkpt>
      <trkpt lat="50.26568" lon="3.53408">
        <ele>66.8</ele>
        <time>2023-08-06T09:50:42Z</time>
      </trkpt>
      <trkpt lat="50.26564" lon="3.53406">
        <ele>66.8</ele>
        <time>2023-08-06T09:50:43Z</time>
      </trkpt>
      <trkpt lat="50.2656" lon="3.53405">
        <ele>66.8</ele>
        <time>2023-08-06T09:50:44Z</time>
      </trkpt>
      <trkpt lat="50.26556" lon="3.53404">
        <ele>67</ele>
        <time>2023-08-06T09:50:45Z</time>
      </trkpt>
      <trkpt lat="50.26515" lon="3.53393">
        <ele>67.4</ele>
        <time>2023-08-06T09:50:55Z</time>
      </trkpt>
      <trkpt lat="50.26462" lon="3.53378">
        <ele>67.2</ele>
        <time>2023-08-06T09:51:08Z</time>
      </trkpt>
      <trkpt lat="50.26454" lon="3.53376">
        <ele>67.2</ele>
        <time>2023-08-06T09:51:10Z</time>
      </trkpt>
      <trkpt lat="50.2645" lon="3.53375">
        <ele>67.2</ele>
        <time>2023-08-06T09:51:11Z</time>
      </trkpt>
      <trkpt lat="50.26446" lon="3.53374">
        <ele>67.2</ele>
        <time>2023-08-06T09:51:12Z</time>
      </trkpt>
      <trkpt lat="50.26434" lon="3.53371">
        <ele>67.4</ele>
        <time>2023-08-06T09:51:15Z</time>
      </trkpt>
      <trkpt lat="50.2643" lon="3.5337">
        <ele>67.4</ele>
        <time>2023-08-06T09:51:16Z</time>
      </trkpt>
      <trkpt lat="50.26426" lon="3.53369">
        <ele>67.4</ele>
        <time>2023-08-06T09:51:17Z</time>
      </trkpt>
      <trkpt lat="50.26413" lon="3.53368">
        <ele>67.6</ele>
        <time>2023-08-06T09:51:20Z</time>
      </trkpt>
      <trkpt lat="50.26397" lon="3.53363">
        <ele>68</ele>
        <time>2023-08-06T09:51:24Z</time>
      </trkpt>
      <trkpt lat="50.26373" lon="3.53356">
        <ele>68.4</ele>
        <time>2023-08-06T09:51:30Z</time>
      </trkpt>
      <trkpt lat="50.26365" lon="3.53354">
        <ele>68.8</ele>
        <time>2023-08-06T09:51:32Z</time>
      </trkpt>
      <trkpt lat="50.26362" lon="3.53353">
        <ele>68.8</ele>
        <time>2023-08-06T09:51:33Z</time>
      </trkpt>
      <trkpt lat="50.26358" lon="3.53352">
        <ele>68.8</ele>
        <time>2023-08-06T09:51:34Z</time>
      </trkpt>
      <trkpt lat="50.26348" lon="3.53348">
        <ele>69</ele>
        <time>2023-08-06T09:51:37Z</time>
      </trkpt>
      <trkpt lat="50.26345" lon="3.53347">
        <ele>69</ele>
        <time>2023-08-06T09:51:38Z</time>
      </trkpt>
      <trkpt lat="50.26342" lon="3.53346">
        <ele>69</ele>
        <time>2023-08-06T09:51:39Z</time>
      </trkpt>
      <trkpt lat="50.26339" lon="3.53345">
        <ele>69</ele>
        <time>2023-08-06T09:51:40Z</time>
      </trkpt>
      <trkpt lat="50.26336" lon="3.53344">
        <ele>69.2</ele>
        <time>2023-08-06T09:51:41Z</time>
      </trkpt>
      <trkpt lat="50.26332" lon="3.53343">
        <ele>69.4</ele>
        <time>2023-08-06T09:51:42Z</time>
      </trkpt>
      <trkpt lat="50.2633" lon="3.53342">
        <ele>69.4</ele>
        <time>2023-08-06T09:51:43Z</time>
      </trkpt>
      <trkpt lat="50.26326" lon="3.53341">
        <ele>69.6</ele>
        <time>2023-08-06T09:51:44Z</time>
      </trkpt>
      <trkpt lat="50.26323" lon="3.5334">
        <ele>69.6</ele>
        <time>2023-08-06T09:51:45Z</time>
      </trkpt>
      <trkpt lat="50.2632" lon="3.53339">
        <ele>69.6</ele>
        <time>2023-08-06T09:51:46Z</time>
      </trkpt>
      <trkpt lat="50.26317" lon="3.53338">
        <ele>69.6</ele>
        <time>2023-08-06T09:51:47Z</time>
      </trkpt>
      <trkpt lat="50.26314" lon="3.53336">
        <ele>69.6</ele>
        <time>2023-08-06T09:51:48Z</time>
      </trkpt>
      <trkpt lat="50.26312" lon="3.53336">
        <ele>69.6</ele>
        <time>2023-08-06T09:51:49Z</time>
      </trkpt>
      <trkpt lat="50.26309" lon="3.53335">
        <ele>69.8</ele>
        <time>2023-08-06T09:51:50Z</time>
      </trkpt>
      <trkpt lat="50.26306" lon="3.53334">
        <ele>69.8</ele>
        <time>2023-08-06T09:51:51Z</time>
      </trkpt>
      <trkpt lat="50.26303" lon="3.53332">
        <ele>70</ele>
        <time>2023-08-06T09:51:52Z</time>
      </trkpt>
      <trkpt lat="50.263" lon="3.53331">
        <ele>70</ele>
        <time>2023-08-06T09:51:53Z</time>
      </trkpt>
      <trkpt lat="50.26298" lon="3.5333">
        <ele>70</ele>
        <time>2023-08-06T09:51:54Z</time>
      </trkpt>
      <trkpt lat="50.26295" lon="3.53328">
        <ele>70.4</ele>
        <time>2023-08-06T09:51:55Z</time>
      </trkpt>
      <trkpt lat="50.26289" lon="3.53324">
        <ele>70.8</ele>
        <time>2023-08-06T09:51:57Z</time>
      </trkpt>
      <trkpt lat="50.26286" lon="3.53323">
        <ele>70.8</ele>
        <time>2023-08-06T09:51:58Z</time>
      </trkpt>
      <trkpt lat="50.26258" lon="3.53311">
        <ele>71</ele>
        <time>2023-08-06T09:52:07Z</time>
      </trkpt>
      <trkpt lat="50.2624" lon="3.53305">
        <ele>71.8</ele>
        <time>2023-08-06T09:52:13Z</time>
      </trkpt>
      <trkpt lat="50.26231" lon="3.53303">
        <ele>72</ele>
        <time>2023-08-06T09:52:16Z</time>
      </trkpt>
      <trkpt lat="50.26216" lon="3.53299">
        <ele>72.8</ele>
        <time>2023-08-06T09:52:21Z</time>
      </trkpt>
      <trkpt lat="50.26211" lon="3.53299">
        <ele>73</ele>
        <time>2023-08-06T09:52:23Z</time>
      </trkpt>
      <trkpt lat="50.26208" lon="3.53299">
        <ele>73</ele>
        <time>2023-08-06T09:52:24Z</time>
      </trkpt>
      <trkpt lat="50.26205" lon="3.53299">
        <ele>73.2</ele>
        <time>2023-08-06T09:52:25Z</time>
      </trkpt>
      <trkpt lat="50.26202" lon="3.53299">
        <ele>73.2</ele>
        <time>2023-08-06T09:52:26Z</time>
      </trkpt>
      <trkpt lat="50.262" lon="3.53298">
        <ele>73.4</ele>
        <time>2023-08-06T09:52:27Z</time>
      </trkpt>
      <trkpt lat="50.26198" lon="3.53298">
        <ele>73.4</ele>
        <time>2023-08-06T09:52:28Z</time>
      </trkpt>
      <trkpt lat="50.26196" lon="3.53297">
        <ele>73.6</ele>
        <time>2023-08-06T09:52:29Z</time>
      </trkpt>
      <trkpt lat="50.26194" lon="3.53297">
        <ele>73.8</ele>
        <time>2023-08-06T09:52:30Z</time>
      </trkpt>
      <trkpt lat="50.26192" lon="3.53296">
        <ele>73.8</ele>
        <time>2023-08-06T09:52:31Z</time>
      </trkpt>
      <trkpt lat="50.26189" lon="3.53296">
        <ele>74</ele>
        <time>2023-08-06T09:52:32Z</time>
      </trkpt>
      <trkpt lat="50.26187" lon="3.53295">
        <ele>74</ele>
        <time>2023-08-06T09:52:33Z</time>
      </trkpt>
      <trkpt lat="50.26184" lon="3.53295">
        <ele>74.4</ele>
        <time>2023-08-06T09:52:34Z</time>
      </trkpt>
      <trkpt lat="50.26182" lon="3.53294">
        <ele>74.4</ele>
        <time>2023-08-06T09:52:35Z</time>
      </trkpt>
      <trkpt lat="50.26181" lon="3.53294">
        <ele>74.8</ele>
        <time>2023-08-06T09:52:36Z</time>
      </trkpt>
      <trkpt lat="50.26178" lon="3.53293">
        <ele>75</ele>
        <time>2023-08-06T09:52:37Z</time>
      </trkpt>
      <trkpt lat="50.26177" lon="3.53292">
        <ele>75.2</ele>
        <time>2023-08-06T09:52:38Z</time>
      </trkpt>
      <trkpt lat="50.26175" lon="3.53289">
        <ele>75.4</ele>
        <time>2023-08-06T09:52:39Z</time>
      </trkpt>
      <trkpt lat="50.26173" lon="3.53286">
        <ele>75.6</ele>
        <time>2023-08-06T09:52:40Z</time>
      </trkpt>
      <trkpt lat="50.26173" lon="3.53283">
        <ele>75.8</ele>
        <time>2023-08-06T09:52:41Z</time>
      </trkpt>
      <trkpt lat="50.26172" lon="3.53279">
        <ele>76</ele>
        <time>2023-08-06T09:52:42Z</time>
      </trkpt>
      <trkpt lat="50.2617" lon="3.53275">
        <ele>76</ele>
        <time>2023-08-06T09:52:43Z</time>
      </trkpt>
      <trkpt lat="50.26169" lon="3.53272">
        <ele>76</ele>
        <time>2023-08-06T09:52:44Z</time>
      </trkpt>
      <trkpt lat="50.26168" lon="3.53268">
        <ele>76</ele>
        <time>2023-08-06T09:52:45Z</time>
      </trkpt>
      <trkpt lat="50.26167" lon="3.53266">
        <ele>76.2</ele>
        <time>2023-08-06T09:52:46Z</time>
      </trkpt>
      <trkpt lat="50.26166" lon="3.53262">
        <ele>76.2</ele>
        <time>2023-08-06T09:52:47Z</time>
      </trkpt>
      <trkpt lat="50.26165" lon="3.53259">
        <ele>76.2</ele>
        <time>2023-08-06T09:52:48Z</time>
      </trkpt>
      <trkpt lat="50.26165" lon="3.53255">
        <ele>76.2</ele>
        <time>2023-08-06T09:52:49Z</time>
      </trkpt>
      <trkpt lat="50.26164" lon="3.53253">
        <ele>76.4</ele>
        <time>2023-08-06T09:52:50Z</time>
      </trkpt>
      <trkpt lat="50.26163" lon="3.53249">
        <ele>76.4</ele>
        <time>2023-08-06T09:52:51Z</time>
      </trkpt>
      <trkpt lat="50.26162" lon="3.53244">
        <ele>76.6</ele>
        <time>2023-08-06T09:52:52Z</time>
      </trkpt>
      <trkpt lat="50.26162" lon="3.53241">
        <ele>76.6</ele>
        <time>2023-08-06T09:52:53Z</time>
      </trkpt>
      <trkpt lat="50.26161" lon="3.53238">
        <ele>76.6</ele>
        <time>2023-08-06T09:52:54Z</time>
      </trkpt>
      <trkpt lat="50.26161" lon="3.53235">
        <ele>76.6</ele>
        <time>2023-08-06T09:52:55Z</time>
      </trkpt>
      <trkpt lat="50.26161" lon="3.53231">
        <ele>76.6</ele>
        <time>2023-08-06T09:52:56Z</time>
      </trkpt>
      <trkpt lat="50.2616" lon="3.53228">
        <ele>76.6</ele>
        <time>2023-08-06T09:52:57Z</time>
      </trkpt>
      <trkpt lat="50.26159" lon="3.53224">
        <ele>76.6</ele>
        <time>2023-08-06T09:52:58Z</time>
      </trkpt>
      <trkpt lat="50.26158" lon="3.5322">
        <ele>76.8</ele>
        <time>2023-08-06T09:52:59Z</time>
      </trkpt>
      <trkpt lat="50.26158" lon="3.53218">
        <ele>76.8</ele>
        <time>2023-08-06T09:53:00Z</time>
      </trkpt>
      <trkpt lat="50.26155" lon="3.53204">
        <ele>77.2</ele>
        <time>2023-08-06T09:53:04Z</time>
      </trkpt>
      <trkpt lat="50.26153" lon="3.53197">
        <ele>77.4</ele>
        <time>2023-08-06T09:53:06Z</time>
      </trkpt>
      <trkpt lat="50.26147" lon="3.53171">
        <ele>78.6</ele>
        <time>2023-08-06T09:53:13Z</time>
      </trkpt>
      <trkpt lat="50.26143" lon="3.53161">
        <ele>79</ele>
        <time>2023-08-06T09:53:16Z</time>
      </trkpt>
      <trkpt lat="50.26142" lon="3.53157">
        <ele>79</ele>
        <time>2023-08-06T09:53:17Z</time>
      </trkpt>
      <trkpt lat="50.2614" lon="3.53154">
        <ele>79.2</ele>
        <time>2023-08-06T09:53:18Z</time>
      </trkpt>
      <trkpt lat="50.26139" lon="3.5315">
        <ele>79.2</ele>
        <time>2023-08-06T09:53:19Z</time>
      </trkpt>
      <trkpt lat="50.26137" lon="3.53146">
        <ele>79.4</ele>
        <time>2023-08-06T09:53:20Z</time>
      </trkpt>
      <trkpt lat="50.26136" lon="3.53142">
        <ele>79.4</ele>
        <time>2023-08-06T09:53:21Z</time>
      </trkpt>
      <trkpt lat="50.26135" lon="3.53138">
        <ele>79.4</ele>
        <time>2023-08-06T09:53:22Z</time>
      </trkpt>
      <trkpt lat="50.26135" lon="3.53135">
        <ele>79.4</ele>
        <time>2023-08-06T09:53:23Z</time>
      </trkpt>
      <trkpt lat="50.26134" lon="3.53131">
        <ele>79.6</ele>
        <time>2023-08-06T09:53:24Z</time>
      </trkpt>
      <trkpt lat="50.26134" lon="3.53127">
        <ele>79.6</ele>
        <time>2023-08-06T09:53:25Z</time>
      </trkpt>
      <trkpt lat="50.26133" lon="3.53123">
        <ele>79.6</ele>
        <time>2023-08-06T09:53:26Z</time>
      </trkpt>
      <trkpt lat="50.26133" lon="3.5312">
        <ele>79.6</ele>
        <time>2023-08-06T09:53:27Z</time>
      </trkpt>
      <trkpt lat="50.26132" lon="3.53113">
        <ele>79.6</ele>
        <time>2023-08-06T09:53:28Z</time>
      </trkpt>
      <trkpt lat="50.26131" lon="3.5311">
        <ele>79.8</ele>
        <time>2023-08-06T09:53:29Z</time>
      </trkpt>
      <trkpt lat="50.2613" lon="3.53108">
        <ele>79.8</ele>
        <time>2023-08-06T09:53:30Z</time>
      </trkpt>
      <trkpt lat="50.2613" lon="3.53107">
        <ele>79.8</ele>
        <time>2023-08-06T09:53:31Z</time>
      </trkpt>
      <trkpt lat="50.2613" lon="3.53107">
        <ele>79.8</ele>
        <time>2023-08-06T09:53:32Z</time>
      </trkpt>
      <trkpt lat="50.2613" lon="3.53107">
        <ele>79.8</ele>
        <time>2023-08-06T09:53:33Z</time>
      </trkpt>
      <trkpt lat="50.26128" lon="3.53099">
        <ele>79.4</ele>
        <time>2023-08-06T09:53:41Z</time>
      </trkpt>
      <trkpt lat="50.26126" lon="3.53094">
        <ele>79.2</ele>
        <time>2023-08-06T09:53:43Z</time>
      </trkpt>
      <trkpt lat="50.26124" lon="3.53085">
        <ele>79.2</ele>
        <time>2023-08-06T09:53:46Z</time>
      </trkpt>
      <trkpt lat="50.2612" lon="3.53069">
        <ele>79</ele>
        <time>2023-08-06T09:53:50Z</time>
      </trkpt>
      <trkpt lat="50.26119" lon="3.53065">
        <ele>79</ele>
        <time>2023-08-06T09:53:51Z</time>
      </trkpt>
      <trkpt lat="50.26109" lon="3.53031">
        <ele>78.8</ele>
        <time>2023-08-06T09:53:58Z</time>
      </trkpt>
      <trkpt lat="50.26102" lon="3.53006">
        <ele>78.6</ele>
        <time>2023-08-06T09:54:02Z</time>
      </trkpt>
      <trkpt lat="50.26097" lon="3.52988">
        <ele>78.4</ele>
        <time>2023-08-06T09:54:05Z</time>
      </trkpt>
      <trkpt lat="50.26083" lon="3.5294">
        <ele>77.6</ele>
        <time>2023-08-06T09:54:12Z</time>
      </trkpt>
      <trkpt lat="50.26079" lon="3.52927">
        <ele>77.4</ele>
        <time>2023-08-06T09:54:14Z</time>
      </trkpt>
      <trkpt lat="50.26058" lon="3.52858">
        <ele>76.6</ele>
        <time>2023-08-06T09:54:24Z</time>
      </trkpt>
      <trkpt lat="50.26053" lon="3.52845">
        <ele>76.6</ele>
        <time>2023-08-06T09:54:26Z</time>
      </trkpt>
      <trkpt lat="50.26046" lon="3.52817">
        <ele>76.4</ele>
        <time>2023-08-06T09:54:30Z</time>
      </trkpt>
      <trkpt lat="50.26045" lon="3.52812">
        <ele>76.4</ele>
        <time>2023-08-06T09:54:31Z</time>
      </trkpt>
      <trkpt lat="50.26043" lon="3.52806">
        <ele>76.2</ele>
        <time>2023-08-06T09:54:32Z</time>
      </trkpt>
      <trkpt lat="50.26041" lon="3.528">
        <ele>76.2</ele>
        <time>2023-08-06T09:54:33Z</time>
      </trkpt>
      <trkpt lat="50.26039" lon="3.52793">
        <ele>76</ele>
        <time>2023-08-06T09:54:34Z</time>
      </trkpt>
      <trkpt lat="50.26036" lon="3.52786">
        <ele>76</ele>
        <time>2023-08-06T09:54:35Z</time>
      </trkpt>
      <trkpt lat="50.26032" lon="3.52768">
        <ele>76</ele>
        <time>2023-08-06T09:54:38Z</time>
      </trkpt>
      <trkpt lat="50.26027" lon="3.52749">
        <ele>75.8</ele>
        <time>2023-08-06T09:54:41Z</time>
      </trkpt>
      <trkpt lat="50.26026" lon="3.52744">
        <ele>75.8</ele>
        <time>2023-08-06T09:54:42Z</time>
      </trkpt>
      <trkpt lat="50.26024" lon="3.52737">
        <ele>75.8</ele>
        <time>2023-08-06T09:54:43Z</time>
      </trkpt>
      <trkpt lat="50.26024" lon="3.52737">
        <ele>75.8</ele>
        <time>2023-08-06T09:54:44Z</time>
      </trkpt>
      <trkpt lat="50.2602" lon="3.52724">
        <ele>75.8</ele>
        <time>2023-08-06T09:54:45Z</time>
      </trkpt>
      <trkpt lat="50.26017" lon="3.52712">
        <ele>75.8</ele>
        <time>2023-08-06T09:54:47Z</time>
      </trkpt>
      <trkpt lat="50.2601" lon="3.52685">
        <ele>75.8</ele>
        <time>2023-08-06T09:54:51Z</time>
      </trkpt>
      <trkpt lat="50.26009" lon="3.52679">
        <ele>75.8</ele>
        <time>2023-08-06T09:54:52Z</time>
      </trkpt>
      <trkpt lat="50.26006" lon="3.52665">
        <ele>75.8</ele>
        <time>2023-08-06T09:54:54Z</time>
      </trkpt>
      <trkpt lat="50.26" lon="3.52648">
        <ele>75.8</ele>
        <time>2023-08-06T09:54:57Z</time>
      </trkpt>
      <trkpt lat="50.25996" lon="3.52634">
        <ele>75.8</ele>
        <time>2023-08-06T09:54:59Z</time>
      </trkpt>
      <trkpt lat="50.2599" lon="3.52606">
        <ele>75.8</ele>
        <time>2023-08-06T09:55:03Z</time>
      </trkpt>
      <trkpt lat="50.25988" lon="3.52597">
        <ele>75.6</ele>
        <time>2023-08-06T09:55:04Z</time>
      </trkpt>
      <trkpt lat="50.25987" lon="3.5259">
        <ele>75.4</ele>
        <time>2023-08-06T09:55:05Z</time>
      </trkpt>
      <trkpt lat="50.25983" lon="3.52569">
        <ele>74.8</ele>
        <time>2023-08-06T09:55:08Z</time>
      </trkpt>
      <trkpt lat="50.25979" lon="3.52556">
        <ele>74.4</ele>
        <time>2023-08-06T09:55:10Z</time>
      </trkpt>
      <trkpt lat="50.25977" lon="3.52549">
        <ele>74.4</ele>
        <time>2023-08-06T09:55:11Z</time>
      </trkpt>
      <trkpt lat="50.25963" lon="3.525">
        <ele>73.8</ele>
        <time>2023-08-06T09:55:17Z</time>
      </trkpt>
      <trkpt lat="50.25956" lon="3.52474">
        <ele>73.4</ele>
        <time>2023-08-06T09:55:20Z</time>
      </trkpt>
      <trkpt lat="50.25954" lon="3.52465">
        <ele>73.2</ele>
        <time>2023-08-06T09:55:21Z</time>
      </trkpt>
      <trkpt lat="50.25946" lon="3.5244">
        <ele>72.4</ele>
        <time>2023-08-06T09:55:24Z</time>
      </trkpt>
      <trkpt lat="50.25944" lon="3.52433">
        <ele>72.2</ele>
        <time>2023-08-06T09:55:25Z</time>
      </trkpt>
      <trkpt lat="50.25936" lon="3.52401">
        <ele>71.8</ele>
        <time>2023-08-06T09:55:29Z</time>
      </trkpt>
      <trkpt lat="50.25934" lon="3.52395">
        <ele>71.6</ele>
        <time>2023-08-06T09:55:30Z</time>
      </trkpt>
      <trkpt lat="50.25934" lon="3.52395">
        <ele>71.4</ele>
        <time>2023-08-06T09:55:31Z</time>
      </trkpt>
      <trkpt lat="50.2593" lon="3.5238">
        <ele>71.2</ele>
        <time>2023-08-06T09:55:32Z</time>
      </trkpt>
      <trkpt lat="50.25927" lon="3.52371">
        <ele>70.8</ele>
        <time>2023-08-06T09:55:33Z</time>
      </trkpt>
      <trkpt lat="50.25926" lon="3.52365">
        <ele>70.6</ele>
        <time>2023-08-06T09:55:34Z</time>
      </trkpt>
      <trkpt lat="50.2592" lon="3.52351">
        <ele>70</ele>
        <time>2023-08-06T09:55:36Z</time>
      </trkpt>
      <trkpt lat="50.25904" lon="3.52303">
        <ele>69</ele>
        <time>2023-08-06T09:55:42Z</time>
      </trkpt>
      <trkpt lat="50.25899" lon="3.52288">
        <ele>68.8</ele>
        <time>2023-08-06T09:55:44Z</time>
      </trkpt>
      <trkpt lat="50.25889" lon="3.52251">
        <ele>67.8</ele>
        <time>2023-08-06T09:55:48Z</time>
      </trkpt>
      <trkpt lat="50.25876" lon="3.52205">
        <ele>66.8</ele>
        <time>2023-08-06T09:55:53Z</time>
      </trkpt>
      <trkpt lat="50.25867" lon="3.52174">
        <ele>65.6</ele>
        <time>2023-08-06T09:55:56Z</time>
      </trkpt>
      <trkpt lat="50.25859" lon="3.52146">
        <ele>64</ele>
        <time>2023-08-06T09:55:59Z</time>
      </trkpt>
      <trkpt lat="50.25852" lon="3.52123">
        <ele>63.6</ele>
        <time>2023-08-06T09:56:01Z</time>
      </trkpt>
      <trkpt lat="50.25841" lon="3.52083">
        <ele>62.8</ele>
        <time>2023-08-06T09:56:05Z</time>
      </trkpt>
      <trkpt lat="50.25832" lon="3.52052">
        <ele>61.4</ele>
        <time>2023-08-06T09:56:08Z</time>
      </trkpt>
      <trkpt lat="50.25827" lon="3.52029">
        <ele>60.8</ele>
        <time>2023-08-06T09:56:10Z</time>
      </trkpt>
      <trkpt lat="50.25819" lon="3.52001">
        <ele>60.4</ele>
        <time>2023-08-06T09:56:13Z</time>
      </trkpt>
      <trkpt lat="50.25819" lon="3.52001">
        <ele>60.2</ele>
        <time>2023-08-06T09:56:14Z</time>
      </trkpt>
      <trkpt lat="50.25814" lon="3.51983">
        <ele>59.8</ele>
        <time>2023-08-06T09:56:15Z</time>
      </trkpt>
      <trkpt lat="50.25811" lon="3.51972">
        <ele>59.6</ele>
        <time>2023-08-06T09:56:16Z</time>
      </trkpt>
      <trkpt lat="50.25809" lon="3.51965">
        <ele>59.4</ele>
        <time>2023-08-06T09:56:17Z</time>
      </trkpt>
      <trkpt lat="50.25809" lon="3.51965">
        <ele>59.2</ele>
        <time>2023-08-06T09:56:18Z</time>
      </trkpt>
      <trkpt lat="50.25803" lon="3.51948">
        <ele>59</ele>
        <time>2023-08-06T09:56:19Z</time>
      </trkpt>
      <trkpt lat="50.258" lon="3.51937">
        <ele>58.8</ele>
        <time>2023-08-06T09:56:20Z</time>
      </trkpt>
      <trkpt lat="50.25798" lon="3.51929">
        <ele>58.6</ele>
        <time>2023-08-06T09:56:21Z</time>
      </trkpt>
      <trkpt lat="50.25796" lon="3.51921">
        <ele>58.2</ele>
        <time>2023-08-06T09:56:22Z</time>
      </trkpt>
      <trkpt lat="50.25794" lon="3.51912">
        <ele>58.2</ele>
        <time>2023-08-06T09:56:23Z</time>
      </trkpt>
      <trkpt lat="50.25785" lon="3.51882">
        <ele>57.4</ele>
        <time>2023-08-06T09:56:26Z</time>
      </trkpt>
      <trkpt lat="50.2578" lon="3.51862">
        <ele>56.8</ele>
        <time>2023-08-06T09:56:28Z</time>
      </trkpt>
      <trkpt lat="50.25768" lon="3.51822">
        <ele>55.8</ele>
        <time>2023-08-06T09:56:32Z</time>
      </trkpt>
      <trkpt lat="50.25759" lon="3.51788">
        <ele>55</ele>
        <time>2023-08-06T09:56:35Z</time>
      </trkpt>
      <trkpt lat="50.25757" lon="3.51779">
        <ele>54.6</ele>
        <time>2023-08-06T09:56:36Z</time>
      </trkpt>
      <trkpt lat="50.25749" lon="3.51749">
        <ele>53.2</ele>
        <time>2023-08-06T09:56:39Z</time>
      </trkpt>
      <trkpt lat="50.25741" lon="3.51721">
        <ele>52</ele>
        <time>2023-08-06T09:56:42Z</time>
      </trkpt>
      <trkpt lat="50.25739" lon="3.51712">
        <ele>52</ele>
        <time>2023-08-06T09:56:43Z</time>
      </trkpt>
      <trkpt lat="50.25734" lon="3.51693">
        <ele>50.8</ele>
        <time>2023-08-06T09:56:45Z</time>
      </trkpt>
      <trkpt lat="50.25732" lon="3.51687">
        <ele>50.6</ele>
        <time>2023-08-06T09:56:46Z</time>
      </trkpt>
      <trkpt lat="50.25732" lon="3.51687">
        <ele>50</ele>
        <time>2023-08-06T09:56:47Z</time>
      </trkpt>
      <trkpt lat="50.25727" lon="3.51671">
        <ele>50</ele>
        <time>2023-08-06T09:56:48Z</time>
      </trkpt>
      <trkpt lat="50.25725" lon="3.51664">
        <ele>49.4</ele>
        <time>2023-08-06T09:56:49Z</time>
      </trkpt>
      <trkpt lat="50.25723" lon="3.51658">
        <ele>49</ele>
        <time>2023-08-06T09:56:50Z</time>
      </trkpt>
      <trkpt lat="50.25722" lon="3.51654">
        <ele>48.4</ele>
        <time>2023-08-06T09:56:51Z</time>
      </trkpt>
      <trkpt lat="50.25722" lon="3.51654">
        <ele>48</ele>
        <time>2023-08-06T09:56:52Z</time>
      </trkpt>
      <trkpt lat="50.2572" lon="3.51645">
        <ele>47.8</ele>
        <time>2023-08-06T09:56:53Z</time>
      </trkpt>
      <trkpt lat="50.25719" lon="3.51641">
        <ele>47.4</ele>
        <time>2023-08-06T09:56:54Z</time>
      </trkpt>
      <trkpt lat="50.25718" lon="3.51637">
        <ele>47.2</ele>
        <time>2023-08-06T09:56:55Z</time>
      </trkpt>
      <trkpt lat="50.25714" lon="3.51625">
        <ele>46.8</ele>
        <time>2023-08-06T09:56:57Z</time>
      </trkpt>
      <trkpt lat="50.2571" lon="3.51608">
        <ele>46.4</ele>
        <time>2023-08-06T09:56:59Z</time>
      </trkpt>
      <trkpt lat="50.25703" lon="3.51584">
        <ele>46</ele>
        <time>2023-08-06T09:57:02Z</time>
      </trkpt>
      <trkpt lat="50.25699" lon="3.51573">
        <ele>45.8</ele>
        <time>2023-08-06T09:57:03Z</time>
      </trkpt>
      <trkpt lat="50.25697" lon="3.51565">
        <ele>45.6</ele>
        <time>2023-08-06T09:57:04Z</time>
      </trkpt>
      <trkpt lat="50.25685" lon="3.51521">
        <ele>44.4</ele>
        <time>2023-08-06T09:57:08Z</time>
      </trkpt>
      <trkpt lat="50.25679" lon="3.51501">
        <ele>43.6</ele>
        <time>2023-08-06T09:57:11Z</time>
      </trkpt>
      <trkpt lat="50.25673" lon="3.51475">
        <ele>42.8</ele>
        <time>2023-08-06T09:57:12Z</time>
      </trkpt>
      <trkpt lat="50.25668" lon="3.51452">
        <ele>42</ele>
        <time>2023-08-06T09:57:14Z</time>
      </trkpt>
      <trkpt lat="50.25665" lon="3.51439">
        <ele>41.6</ele>
        <time>2023-08-06T09:57:15Z</time>
      </trkpt>
      <trkpt lat="50.25661" lon="3.51424">
        <ele>41.6</ele>
        <time>2023-08-06T09:57:16Z</time>
      </trkpt>
      <trkpt lat="50.25656" lon="3.51399">
        <ele>40.6</ele>
        <time>2023-08-06T09:57:18Z</time>
      </trkpt>
      <trkpt lat="50.25648" lon="3.51364">
        <ele>39.2</ele>
        <time>2023-08-06T09:57:21Z</time>
      </trkpt>
      <trkpt lat="50.25639" lon="3.51329">
        <ele>38</ele>
        <time>2023-08-06T09:57:24Z</time>
      </trkpt>
      <trkpt lat="50.25637" lon="3.51318">
        <ele>37.6</ele>
        <time>2023-08-06T09:57:25Z</time>
      </trkpt>
      <trkpt lat="50.25634" lon="3.51307">
        <ele>37.2</ele>
        <time>2023-08-06T09:57:26Z</time>
      </trkpt>
      <trkpt lat="50.25632" lon="3.51294">
        <ele>37.2</ele>
        <time>2023-08-06T09:57:27Z</time>
      </trkpt>
      <trkpt lat="50.25632" lon="3.51294">
        <ele>36.8</ele>
        <time>2023-08-06T09:57:28Z</time>
      </trkpt>
      <trkpt lat="50.25627" lon="3.51276">
        <ele>36.6</ele>
        <time>2023-08-06T09:57:29Z</time>
      </trkpt>
      <trkpt lat="50.25623" lon="3.51256">
        <ele>35.8</ele>
        <time>2023-08-06T09:57:31Z</time>
      </trkpt>
      <trkpt lat="50.2562" lon="3.51244">
        <ele>35.6</ele>
        <time>2023-08-06T09:57:32Z</time>
      </trkpt>
      <trkpt lat="50.25618" lon="3.51237">
        <ele>35.2</ele>
        <time>2023-08-06T09:57:33Z</time>
      </trkpt>
      <trkpt lat="50.25615" lon="3.51228">
        <ele>35</ele>
        <time>2023-08-06T09:57:34Z</time>
      </trkpt>
      <trkpt lat="50.25613" lon="3.51219">
        <ele>34.8</ele>
        <time>2023-08-06T09:57:35Z</time>
      </trkpt>
      <trkpt lat="50.25609" lon="3.51208">
        <ele>34.6</ele>
        <time>2023-08-06T09:57:36Z</time>
      </trkpt>
      <trkpt lat="50.25606" lon="3.51198">
        <ele>34.4</ele>
        <time>2023-08-06T09:57:37Z</time>
      </trkpt>
      <trkpt lat="50.25603" lon="3.51191">
        <ele>34.2</ele>
        <time>2023-08-06T09:57:38Z</time>
      </trkpt>
      <trkpt lat="50.25603" lon="3.51191">
        <ele>34</ele>
        <time>2023-08-06T09:57:39Z</time>
      </trkpt>
      <trkpt lat="50.25598" lon="3.51175">
        <ele>34</ele>
        <time>2023-08-06T09:57:40Z</time>
      </trkpt>
      <trkpt lat="50.25594" lon="3.51166">
        <ele>33.8</ele>
        <time>2023-08-06T09:57:41Z</time>
      </trkpt>
      <trkpt lat="50.25592" lon="3.5116">
        <ele>33.8</ele>
        <time>2023-08-06T09:57:42Z</time>
      </trkpt>
      <trkpt lat="50.2559" lon="3.51153">
        <ele>33.6</ele>
        <time>2023-08-06T09:57:43Z</time>
      </trkpt>
      <trkpt lat="50.25587" lon="3.51147">
        <ele>33.6</ele>
        <time>2023-08-06T09:57:44Z</time>
      </trkpt>
      <trkpt lat="50.25584" lon="3.51142">
        <ele>33.4</ele>
        <time>2023-08-06T09:57:45Z</time>
      </trkpt>
      <trkpt lat="50.2558" lon="3.51137">
        <ele>33.4</ele>
        <time>2023-08-06T09:57:46Z</time>
      </trkpt>
      <trkpt lat="50.25577" lon="3.51135">
        <ele>33.2</ele>
        <time>2023-08-06T09:57:47Z</time>
      </trkpt>
      <trkpt lat="50.25572" lon="3.51134">
        <ele>33.2</ele>
        <time>2023-08-06T09:57:48Z</time>
      </trkpt>
      <trkpt lat="50.25562" lon="3.51137">
        <ele>33.2</ele>
        <time>2023-08-06T09:57:50Z</time>
      </trkpt>
      <trkpt lat="50.25558" lon="3.51139">
        <ele>33</ele>
        <time>2023-08-06T09:57:51Z</time>
      </trkpt>
      <trkpt lat="50.25558" lon="3.51139">
        <ele>33</ele>
        <time>2023-08-06T09:57:52Z</time>
      </trkpt>
      <trkpt lat="50.25523" lon="3.51164">
        <ele>32.8</ele>
        <time>2023-08-06T09:57:59Z</time>
      </trkpt>
      <trkpt lat="50.25477" lon="3.51196">
        <ele>32.6</ele>
        <time>2023-08-06T09:58:09Z</time>
      </trkpt>
      <trkpt lat="50.25428" lon="3.51232">
        <ele>33.2</ele>
        <time>2023-08-06T09:58:19Z</time>
      </trkpt>
      <trkpt lat="50.25391" lon="3.51255">
        <ele>34</ele>
        <time>2023-08-06T09:58:27Z</time>
      </trkpt>
      <trkpt lat="50.25382" lon="3.51262">
        <ele>34</ele>
        <time>2023-08-06T09:58:29Z</time>
      </trkpt>
      <trkpt lat="50.25378" lon="3.51266">
        <ele>34.2</ele>
        <time>2023-08-06T09:58:30Z</time>
      </trkpt>
      <trkpt lat="50.25373" lon="3.51269">
        <ele>34.2</ele>
        <time>2023-08-06T09:58:31Z</time>
      </trkpt>
      <trkpt lat="50.25369" lon="3.51272">
        <ele>34.2</ele>
        <time>2023-08-06T09:58:32Z</time>
      </trkpt>
      <trkpt lat="50.25364" lon="3.51275">
        <ele>34.2</ele>
        <time>2023-08-06T09:58:33Z</time>
      </trkpt>
      <trkpt lat="50.2535" lon="3.51285">
        <ele>34.2</ele>
        <time>2023-08-06T09:58:36Z</time>
      </trkpt>
      <trkpt lat="50.25338" lon="3.51296">
        <ele>34.6</ele>
        <time>2023-08-06T09:58:39Z</time>
      </trkpt>
      <trkpt lat="50.25331" lon="3.51305">
        <ele>34.8</ele>
        <time>2023-08-06T09:58:41Z</time>
      </trkpt>
      <trkpt lat="50.25327" lon="3.51312">
        <ele>35</ele>
        <time>2023-08-06T09:58:42Z</time>
      </trkpt>
      <trkpt lat="50.25323" lon="3.51322">
        <ele>35.2</ele>
        <time>2023-08-06T09:58:44Z</time>
      </trkpt>
      <trkpt lat="50.25323" lon="3.51322">
        <ele>35.2</ele>
        <time>2023-08-06T09:58:45Z</time>
      </trkpt>
      <trkpt lat="50.25319" lon="3.51333">
        <ele>35.4</ele>
        <time>2023-08-06T09:58:46Z</time>
      </trkpt>
      <trkpt lat="50.25316" lon="3.5134">
        <ele>35.6</ele>
        <time>2023-08-06T09:58:47Z</time>
      </trkpt>
      <trkpt lat="50.25315" lon="3.51345">
        <ele>35.6</ele>
        <time>2023-08-06T09:58:48Z</time>
      </trkpt>
      <trkpt lat="50.25312" lon="3.5135">
        <ele>35.8</ele>
        <time>2023-08-06T09:58:49Z</time>
      </trkpt>
      <trkpt lat="50.2531" lon="3.51357">
        <ele>36</ele>
        <time>2023-08-06T09:58:50Z</time>
      </trkpt>
      <trkpt lat="50.25308" lon="3.5136">
        <ele>36.2</ele>
        <time>2023-08-06T09:58:51Z</time>
      </trkpt>
      <trkpt lat="50.25306" lon="3.51366">
        <ele>36.2</ele>
        <time>2023-08-06T09:58:52Z</time>
      </trkpt>
      <trkpt lat="50.25304" lon="3.51371">
        <ele>36.4</ele>
        <time>2023-08-06T09:58:53Z</time>
      </trkpt>
      <trkpt lat="50.25301" lon="3.51376">
        <ele>36.6</ele>
        <time>2023-08-06T09:58:54Z</time>
      </trkpt>
      <trkpt lat="50.25299" lon="3.51381">
        <ele>36.8</ele>
        <time>2023-08-06T09:58:55Z</time>
      </trkpt>
      <trkpt lat="50.25294" lon="3.51392">
        <ele>37</ele>
        <time>2023-08-06T09:58:57Z</time>
      </trkpt>
      <trkpt lat="50.25291" lon="3.51398">
        <ele>37.2</ele>
        <time>2023-08-06T09:58:58Z</time>
      </trkpt>
      <trkpt lat="50.25288" lon="3.51404">
        <ele>37.2</ele>
        <time>2023-08-06T09:58:59Z</time>
      </trkpt>
      <trkpt lat="50.25285" lon="3.51411">
        <ele>37.2</ele>
        <time>2023-08-06T09:59:00Z</time>
      </trkpt>
      <trkpt lat="50.25282" lon="3.51417">
        <ele>37.2</ele>
        <time>2023-08-06T09:59:01Z</time>
      </trkpt>
      <trkpt lat="50.25279" lon="3.51422">
        <ele>37.4</ele>
        <time>2023-08-06T09:59:02Z</time>
      </trkpt>
      <trkpt lat="50.25276" lon="3.51428">
        <ele>37.4</ele>
        <time>2023-08-06T09:59:03Z</time>
      </trkpt>
      <trkpt lat="50.25273" lon="3.51436">
        <ele>37.4</ele>
        <time>2023-08-06T09:59:04Z</time>
      </trkpt>
      <trkpt lat="50.2527" lon="3.51441">
        <ele>37.4</ele>
        <time>2023-08-06T09:59:05Z</time>
      </trkpt>
      <trkpt lat="50.25267" lon="3.51446">
        <ele>37.4</ele>
        <time>2023-08-06T09:59:06Z</time>
      </trkpt>
      <trkpt lat="50.25265" lon="3.51452">
        <ele>37.4</ele>
        <time>2023-08-06T09:59:07Z</time>
      </trkpt>
      <trkpt lat="50.25262" lon="3.51458">
        <ele>37.4</ele>
        <time>2023-08-06T09:59:08Z</time>
      </trkpt>
      <trkpt lat="50.25239" lon="3.51508">
        <ele>37</ele>
        <time>2023-08-06T09:59:16Z</time>
      </trkpt>
      <trkpt lat="50.25225" lon="3.51538">
        <ele>37</ele>
        <time>2023-08-06T09:59:21Z</time>
      </trkpt>
      <trkpt lat="50.25223" lon="3.51544">
        <ele>37</ele>
        <time>2023-08-06T09:59:22Z</time>
      </trkpt>
      <trkpt lat="50.2522" lon="3.51551">
        <ele>37</ele>
        <time>2023-08-06T09:59:23Z</time>
      </trkpt>
      <trkpt lat="50.25215" lon="3.51563">
        <ele>37</ele>
        <time>2023-08-06T09:59:25Z</time>
      </trkpt>
      <trkpt lat="50.25213" lon="3.51568">
        <ele>37.2</ele>
        <time>2023-08-06T09:59:26Z</time>
      </trkpt>
      <trkpt lat="50.25211" lon="3.51574">
        <ele>37.2</ele>
        <time>2023-08-06T09:59:27Z</time>
      </trkpt>
      <trkpt lat="50.25208" lon="3.5158">
        <ele>37.4</ele>
        <time>2023-08-06T09:59:28Z</time>
      </trkpt>
      <trkpt lat="50.25206" lon="3.51585">
        <ele>37.4</ele>
        <time>2023-08-06T09:59:29Z</time>
      </trkpt>
      <trkpt lat="50.25203" lon="3.5159">
        <ele>37.6</ele>
        <time>2023-08-06T09:59:30Z</time>
      </trkpt>
      <trkpt lat="50.25201" lon="3.51596">
        <ele>37.6</ele>
        <time>2023-08-06T09:59:31Z</time>
      </trkpt>
      <trkpt lat="50.25198" lon="3.51601">
        <ele>37.8</ele>
        <time>2023-08-06T09:59:32Z</time>
      </trkpt>
      <trkpt lat="50.25198" lon="3.51601">
        <ele>37.8</ele>
        <time>2023-08-06T09:59:33Z</time>
      </trkpt>
      <trkpt lat="50.25193" lon="3.51612">
        <ele>37.8</ele>
        <time>2023-08-06T09:59:34Z</time>
      </trkpt>
      <trkpt lat="50.2519" lon="3.51618">
        <ele>38</ele>
        <time>2023-08-06T09:59:35Z</time>
      </trkpt>
      <trkpt lat="50.25188" lon="3.51622">
        <ele>38.2</ele>
        <time>2023-08-06T09:59:36Z</time>
      </trkpt>
      <trkpt lat="50.25185" lon="3.51626">
        <ele>38.4</ele>
        <time>2023-08-06T09:59:37Z</time>
      </trkpt>
      <trkpt lat="50.25182" lon="3.51631">
        <ele>38.4</ele>
        <time>2023-08-06T09:59:38Z</time>
      </trkpt>
      <trkpt lat="50.2518" lon="3.51636">
        <ele>38.6</ele>
        <time>2023-08-06T09:59:39Z</time>
      </trkpt>
      <trkpt lat="50.25177" lon="3.5164">
        <ele>38.8</ele>
        <time>2023-08-06T09:59:40Z</time>
      </trkpt>
      <trkpt lat="50.25175" lon="3.51645">
        <ele>39.2</ele>
        <time>2023-08-06T09:59:41Z</time>
      </trkpt>
      <trkpt lat="50.25166" lon="3.51662">
        <ele>39.8</ele>
        <time>2023-08-06T09:59:44Z</time>
      </trkpt>
      <trkpt lat="50.25155" lon="3.51682">
        <ele>39.8</ele>
        <time>2023-08-06T09:59:48Z</time>
      </trkpt>
      <trkpt lat="50.25152" lon="3.51687">
        <ele>39.8</ele>
        <time>2023-08-06T09:59:49Z</time>
      </trkpt>
      <trkpt lat="50.25149" lon="3.51693">
        <ele>39.8</ele>
        <time>2023-08-06T09:59:50Z</time>
      </trkpt>
      <trkpt lat="50.25146" lon="3.51698">
        <ele>39.8</ele>
        <time>2023-08-06T09:59:51Z</time>
      </trkpt>
      <trkpt lat="50.25143" lon="3.51705">
        <ele>40</ele>
        <time>2023-08-06T09:59:52Z</time>
      </trkpt>
      <trkpt lat="50.25141" lon="3.5171">
        <ele>40</ele>
        <time>2023-08-06T09:59:53Z</time>
      </trkpt>
      <trkpt lat="50.25138" lon="3.51715">
        <ele>40</ele>
        <time>2023-08-06T09:59:54Z</time>
      </trkpt>
      <trkpt lat="50.25115" lon="3.51774">
        <ele>40</ele>
        <time>2023-08-06T10:00:04Z</time>
      </trkpt>
      <trkpt lat="50.25113" lon="3.51779">
        <ele>40</ele>
        <time>2023-08-06T10:00:05Z</time>
      </trkpt>
      <trkpt lat="50.2511" lon="3.51785">
        <ele>40</ele>
        <time>2023-08-06T10:00:06Z</time>
      </trkpt>
      <trkpt lat="50.25108" lon="3.5179">
        <ele>40.2</ele>
        <time>2023-08-06T10:00:07Z</time>
      </trkpt>
      <trkpt lat="50.25106" lon="3.51795">
        <ele>40.2</ele>
        <time>2023-08-06T10:00:08Z</time>
      </trkpt>
      <trkpt lat="50.25103" lon="3.518">
        <ele>40.2</ele>
        <time>2023-08-06T10:00:09Z</time>
      </trkpt>
      <trkpt lat="50.25103" lon="3.518">
        <ele>40.2</ele>
        <time>2023-08-06T10:00:10Z</time>
      </trkpt>
      <trkpt lat="50.25098" lon="3.51811">
        <ele>40.2</ele>
        <time>2023-08-06T10:00:11Z</time>
      </trkpt>
      <trkpt lat="50.25096" lon="3.51816">
        <ele>40.4</ele>
        <time>2023-08-06T10:00:12Z</time>
      </trkpt>
      <trkpt lat="50.25094" lon="3.51821">
        <ele>40.4</ele>
        <time>2023-08-06T10:00:13Z</time>
      </trkpt>
      <trkpt lat="50.25091" lon="3.51826">
        <ele>40.4</ele>
        <time>2023-08-06T10:00:14Z</time>
      </trkpt>
      <trkpt lat="50.25089" lon="3.51831">
        <ele>40.6</ele>
        <time>2023-08-06T10:00:15Z</time>
      </trkpt>
      <trkpt lat="50.25086" lon="3.51836">
        <ele>40.8</ele>
        <time>2023-08-06T10:00:16Z</time>
      </trkpt>
      <trkpt lat="50.25084" lon="3.5184">
        <ele>40.8</ele>
        <time>2023-08-06T10:00:17Z</time>
      </trkpt>
      <trkpt lat="50.25082" lon="3.51844">
        <ele>40.8</ele>
        <time>2023-08-06T10:00:18Z</time>
      </trkpt>
      <trkpt lat="50.25082" lon="3.51844">
        <ele>41</ele>
        <time>2023-08-06T10:00:19Z</time>
      </trkpt>
      <trkpt lat="50.25078" lon="3.51852">
        <ele>41.2</ele>
        <time>2023-08-06T10:00:20Z</time>
      </trkpt>
      <trkpt lat="50.25076" lon="3.51855">
        <ele>41.4</ele>
        <time>2023-08-06T10:00:21Z</time>
      </trkpt>
      <trkpt lat="50.25074" lon="3.5186">
        <ele>41.6</ele>
        <time>2023-08-06T10:00:22Z</time>
      </trkpt>
      <trkpt lat="50.25072" lon="3.51863">
        <ele>41.8</ele>
        <time>2023-08-06T10:00:23Z</time>
      </trkpt>
      <trkpt lat="50.2507" lon="3.51866">
        <ele>41.8</ele>
        <time>2023-08-06T10:00:24Z</time>
      </trkpt>
      <trkpt lat="50.25064" lon="3.51872">
        <ele>42.2</ele>
        <time>2023-08-06T10:00:26Z</time>
      </trkpt>
      <trkpt lat="50.25062" lon="3.51875">
        <ele>42.4</ele>
        <time>2023-08-06T10:00:27Z</time>
      </trkpt>
      <trkpt lat="50.2506" lon="3.51879">
        <ele>42.6</ele>
        <time>2023-08-06T10:00:28Z</time>
      </trkpt>
      <trkpt lat="50.25052" lon="3.51888">
        <ele>43</ele>
        <time>2023-08-06T10:00:31Z</time>
      </trkpt>
      <trkpt lat="50.25049" lon="3.51892">
        <ele>43.2</ele>
        <time>2023-08-06T10:00:32Z</time>
      </trkpt>
      <trkpt lat="50.25047" lon="3.51895">
        <ele>43.2</ele>
        <time>2023-08-06T10:00:33Z</time>
      </trkpt>
      <trkpt lat="50.25044" lon="3.51899">
        <ele>43.4</ele>
        <time>2023-08-06T10:00:34Z</time>
      </trkpt>
      <trkpt lat="50.25041" lon="3.51902">
        <ele>43.4</ele>
        <time>2023-08-06T10:00:35Z</time>
      </trkpt>
      <trkpt lat="50.25038" lon="3.51906">
        <ele>43.6</ele>
        <time>2023-08-06T10:00:36Z</time>
      </trkpt>
      <trkpt lat="50.25035" lon="3.5191">
        <ele>43.6</ele>
        <time>2023-08-06T10:00:37Z</time>
      </trkpt>
      <trkpt lat="50.25033" lon="3.51913">
        <ele>43.8</ele>
        <time>2023-08-06T10:00:38Z</time>
      </trkpt>
      <trkpt lat="50.2503" lon="3.51917">
        <ele>44</ele>
        <time>2023-08-06T10:00:39Z</time>
      </trkpt>
      <trkpt lat="50.25028" lon="3.5192">
        <ele>44</ele>
        <time>2023-08-06T10:00:40Z</time>
      </trkpt>
      <trkpt lat="50.25026" lon="3.51923">
        <ele>44.2</ele>
        <time>2023-08-06T10:00:41Z</time>
      </trkpt>
      <trkpt lat="50.25023" lon="3.51928">
        <ele>44.2</ele>
        <time>2023-08-06T10:00:42Z</time>
      </trkpt>
      <trkpt lat="50.25021" lon="3.5193">
        <ele>44.2</ele>
        <time>2023-08-06T10:00:43Z</time>
      </trkpt>
      <trkpt lat="50.25021" lon="3.5193">
        <ele>44.4</ele>
        <time>2023-08-06T10:00:44Z</time>
      </trkpt>
      <trkpt lat="50.25015" lon="3.51937">
        <ele>44.6</ele>
        <time>2023-08-06T10:00:45Z</time>
      </trkpt>
      <trkpt lat="50.25012" lon="3.51942">
        <ele>44.6</ele>
        <time>2023-08-06T10:00:46Z</time>
      </trkpt>
      <trkpt lat="50.25012" lon="3.51942">
        <ele>44.6</ele>
        <time>2023-08-06T10:00:47Z</time>
      </trkpt>
      <trkpt lat="50.25007" lon="3.51948">
        <ele>44.8</ele>
        <time>2023-08-06T10:00:48Z</time>
      </trkpt>
      <trkpt lat="50.25004" lon="3.51953">
        <ele>44.8</ele>
        <time>2023-08-06T10:00:49Z</time>
      </trkpt>
      <trkpt lat="50.25004" lon="3.51953">
        <ele>44.8</ele>
        <time>2023-08-06T10:00:50Z</time>
      </trkpt>
      <trkpt lat="50.25" lon="3.51959">
        <ele>45</ele>
        <time>2023-08-06T10:00:51Z</time>
      </trkpt>
      <trkpt lat="50.24997" lon="3.51963">
        <ele>45</ele>
        <time>2023-08-06T10:00:52Z</time>
      </trkpt>
      <trkpt lat="50.24994" lon="3.51967">
        <ele>45</ele>
        <time>2023-08-06T10:00:53Z</time>
      </trkpt>
      <trkpt lat="50.24991" lon="3.51972">
        <ele>45.2</ele>
        <time>2023-08-06T10:00:54Z</time>
      </trkpt>
      <trkpt lat="50.24987" lon="3.51976">
        <ele>45.2</ele>
        <time>2023-08-06T10:00:55Z</time>
      </trkpt>
      <trkpt lat="50.24985" lon="3.51979">
        <ele>45.4</ele>
        <time>2023-08-06T10:00:56Z</time>
      </trkpt>
      <trkpt lat="50.24982" lon="3.51984">
        <ele>45.4</ele>
        <time>2023-08-06T10:00:57Z</time>
      </trkpt>
      <trkpt lat="50.24973" lon="3.51997">
        <ele>45.6</ele>
        <time>2023-08-06T10:01:00Z</time>
      </trkpt>
      <trkpt lat="50.24951" lon="3.52039">
        <ele>45.8</ele>
        <time>2023-08-06T10:01:09Z</time>
      </trkpt>
      <trkpt lat="50.24937" lon="3.52088">
        <ele>46</ele>
        <time>2023-08-06T10:01:18Z</time>
      </trkpt>
      <trkpt lat="50.24934" lon="3.52097">
        <ele>46</ele>
        <time>2023-08-06T10:01:20Z</time>
      </trkpt>
      <trkpt lat="50.24933" lon="3.52103">
        <ele>46</ele>
        <time>2023-08-06T10:01:21Z</time>
      </trkpt>
      <trkpt lat="50.24932" lon="3.52108">
        <ele>46</ele>
        <time>2023-08-06T10:01:22Z</time>
      </trkpt>
      <trkpt lat="50.2493" lon="3.52114">
        <ele>46.2</ele>
        <time>2023-08-06T10:01:23Z</time>
      </trkpt>
      <trkpt lat="50.2493" lon="3.52118">
        <ele>46.2</ele>
        <time>2023-08-06T10:01:24Z</time>
      </trkpt>
      <trkpt lat="50.24928" lon="3.52124">
        <ele>46.4</ele>
        <time>2023-08-06T10:01:25Z</time>
      </trkpt>
      <trkpt lat="50.24927" lon="3.5213">
        <ele>46.4</ele>
        <time>2023-08-06T10:01:26Z</time>
      </trkpt>
      <trkpt lat="50.24926" lon="3.52134">
        <ele>46.6</ele>
        <time>2023-08-06T10:01:27Z</time>
      </trkpt>
      <trkpt lat="50.24925" lon="3.52139">
        <ele>46.6</ele>
        <time>2023-08-06T10:01:28Z</time>
      </trkpt>
      <trkpt lat="50.24924" lon="3.52143">
        <ele>46.6</ele>
        <time>2023-08-06T10:01:29Z</time>
      </trkpt>
      <trkpt lat="50.24923" lon="3.52148">
        <ele>46.8</ele>
        <time>2023-08-06T10:01:30Z</time>
      </trkpt>
      <trkpt lat="50.24922" lon="3.52153">
        <ele>46.8</ele>
        <time>2023-08-06T10:01:31Z</time>
      </trkpt>
      <trkpt lat="50.2492" lon="3.52159">
        <ele>46.8</ele>
        <time>2023-08-06T10:01:32Z</time>
      </trkpt>
      <trkpt lat="50.24919" lon="3.52164">
        <ele>47</ele>
        <time>2023-08-06T10:01:33Z</time>
      </trkpt>
      <trkpt lat="50.24918" lon="3.52167">
        <ele>47.2</ele>
        <time>2023-08-06T10:01:34Z</time>
      </trkpt>
      <trkpt lat="50.24918" lon="3.52167">
        <ele>47.2</ele>
        <time>2023-08-06T10:01:35Z</time>
      </trkpt>
      <trkpt lat="50.24915" lon="3.52176">
        <ele>47.2</ele>
        <time>2023-08-06T10:01:36Z</time>
      </trkpt>
      <trkpt lat="50.24914" lon="3.52181">
        <ele>47.4</ele>
        <time>2023-08-06T10:01:37Z</time>
      </trkpt>
      <trkpt lat="50.24914" lon="3.52181">
        <ele>47.4</ele>
        <time>2023-08-06T10:01:38Z</time>
      </trkpt>
      <trkpt lat="50.24912" lon="3.52189">
        <ele>47.6</ele>
        <time>2023-08-06T10:01:39Z</time>
      </trkpt>
      <trkpt lat="50.24909" lon="3.522">
        <ele>47.8</ele>
        <time>2023-08-06T10:01:41Z</time>
      </trkpt>
      <trkpt lat="50.24906" lon="3.52208">
        <ele>48.2</ele>
        <time>2023-08-06T10:01:43Z</time>
      </trkpt>
      <trkpt lat="50.249" lon="3.52229">
        <ele>48.6</ele>
        <time>2023-08-06T10:01:49Z</time>
      </trkpt>
      <trkpt lat="50.24894" lon="3.52252">
        <ele>48.8</ele>
        <time>2023-08-06T10:01:53Z</time>
      </trkpt>
      <trkpt lat="50.24889" lon="3.52272">
        <ele>49.2</ele>
        <time>2023-08-06T10:01:57Z</time>
      </trkpt>
      <trkpt lat="50.24877" lon="3.52317">
        <ele>49.6</ele>
        <time>2023-08-06T10:02:06Z</time>
      </trkpt>
      <trkpt lat="50.24865" lon="3.52358">
        <ele>49.8</ele>
        <time>2023-08-06T10:02:14Z</time>
      </trkpt>
      <trkpt lat="50.24862" lon="3.52367">
        <ele>49.8</ele>
        <time>2023-08-06T10:02:16Z</time>
      </trkpt>
      <trkpt lat="50.24854" lon="3.52386">
        <ele>50</ele>
        <time>2023-08-06T10:02:20Z</time>
      </trkpt>
      <trkpt lat="50.24853" lon="3.52391">
        <ele>50</ele>
        <time>2023-08-06T10:02:21Z</time>
      </trkpt>
      <trkpt lat="50.24847" lon="3.52406">
        <ele>50</ele>
        <time>2023-08-06T10:02:24Z</time>
      </trkpt>
      <trkpt lat="50.24845" lon="3.52412">
        <ele>50</ele>
        <time>2023-08-06T10:02:25Z</time>
      </trkpt>
      <trkpt lat="50.24841" lon="3.52421">
        <ele>50.2</ele>
        <time>2023-08-06T10:02:27Z</time>
      </trkpt>
      <trkpt lat="50.24827" lon="3.52455">
        <ele>50.6</ele>
        <time>2023-08-06T10:02:34Z</time>
      </trkpt>
      <trkpt lat="50.24825" lon="3.5246">
        <ele>50.6</ele>
        <time>2023-08-06T10:02:35Z</time>
      </trkpt>
      <trkpt lat="50.24816" lon="3.52478">
        <ele>50.8</ele>
        <time>2023-08-06T10:02:39Z</time>
      </trkpt>
      <trkpt lat="50.24812" lon="3.52487">
        <ele>50.8</ele>
        <time>2023-08-06T10:02:41Z</time>
      </trkpt>
      <trkpt lat="50.24805" lon="3.52498">
        <ele>50.8</ele>
        <time>2023-08-06T10:02:43Z</time>
      </trkpt>
      <trkpt lat="50.2479" lon="3.5251">
        <ele>51</ele>
        <time>2023-08-06T10:02:47Z</time>
      </trkpt>
      <trkpt lat="50.24784" lon="3.52497">
        <ele>51</ele>
        <time>2023-08-06T10:02:50Z</time>
      </trkpt>
      <trkpt lat="50.24782" lon="3.52494">
        <ele>51</ele>
        <time>2023-08-06T10:02:51Z</time>
      </trkpt>
      <trkpt lat="50.2478" lon="3.5249">
        <ele>51</ele>
        <time>2023-08-06T10:02:52Z</time>
      </trkpt>
      <trkpt lat="50.24774" lon="3.5248">
        <ele>51</ele>
        <time>2023-08-06T10:02:55Z</time>
      </trkpt>
      <trkpt lat="50.24772" lon="3.52477">
        <ele>51</ele>
        <time>2023-08-06T10:02:56Z</time>
      </trkpt>
      <trkpt lat="50.2477" lon="3.52473">
        <ele>51.2</ele>
        <time>2023-08-06T10:02:57Z</time>
      </trkpt>
      <trkpt lat="50.24767" lon="3.52471">
        <ele>51.2</ele>
        <time>2023-08-06T10:02:58Z</time>
      </trkpt>
      <trkpt lat="50.24765" lon="3.52468">
        <ele>51.4</ele>
        <time>2023-08-06T10:02:59Z</time>
      </trkpt>
      <trkpt lat="50.24763" lon="3.52465">
        <ele>51.4</ele>
        <time>2023-08-06T10:03:00Z</time>
      </trkpt>
      <trkpt lat="50.24757" lon="3.52457">
        <ele>51.8</ele>
        <time>2023-08-06T10:03:03Z</time>
      </trkpt>
      <trkpt lat="50.24754" lon="3.52454">
        <ele>52</ele>
        <time>2023-08-06T10:03:04Z</time>
      </trkpt>
      <trkpt lat="50.24745" lon="3.52443">
        <ele>52.4</ele>
        <time>2023-08-06T10:03:08Z</time>
      </trkpt>
      <trkpt lat="50.24741" lon="3.52439">
        <ele>52.6</ele>
        <time>2023-08-06T10:03:10Z</time>
      </trkpt>
      <trkpt lat="50.24733" lon="3.52431">
        <ele>53</ele>
        <time>2023-08-06T10:03:13Z</time>
      </trkpt>
      <trkpt lat="50.2473" lon="3.52427">
        <ele>53.4</ele>
        <time>2023-08-06T10:03:15Z</time>
      </trkpt>
      <trkpt lat="50.24728" lon="3.52424">
        <ele>53.6</ele>
        <time>2023-08-06T10:03:16Z</time>
      </trkpt>
      <trkpt lat="50.24725" lon="3.52422">
        <ele>53.6</ele>
        <time>2023-08-06T10:03:17Z</time>
      </trkpt>
      <trkpt lat="50.24719" lon="3.52415">
        <ele>54</ele>
        <time>2023-08-06T10:03:20Z</time>
      </trkpt>
      <trkpt lat="50.24717" lon="3.52413">
        <ele>54</ele>
        <time>2023-08-06T10:03:21Z</time>
      </trkpt>
      <trkpt lat="50.24714" lon="3.5241">
        <ele>54.2</ele>
        <time>2023-08-06T10:03:22Z</time>
      </trkpt>
      <trkpt lat="50.24712" lon="3.52408">
        <ele>54.2</ele>
        <time>2023-08-06T10:03:23Z</time>
      </trkpt>
      <trkpt lat="50.2471" lon="3.52405">
        <ele>54.4</ele>
        <time>2023-08-06T10:03:24Z</time>
      </trkpt>
      <trkpt lat="50.24708" lon="3.52403">
        <ele>54.4</ele>
        <time>2023-08-06T10:03:25Z</time>
      </trkpt>
      <trkpt lat="50.24705" lon="3.524">
        <ele>54.6</ele>
        <time>2023-08-06T10:03:26Z</time>
      </trkpt>
      <trkpt lat="50.24703" lon="3.52398">
        <ele>54.6</ele>
        <time>2023-08-06T10:03:27Z</time>
      </trkpt>
      <trkpt lat="50.24701" lon="3.52395">
        <ele>54.8</ele>
        <time>2023-08-06T10:03:28Z</time>
      </trkpt>
      <trkpt lat="50.24699" lon="3.52393">
        <ele>54.8</ele>
        <time>2023-08-06T10:03:29Z</time>
      </trkpt>
      <trkpt lat="50.24697" lon="3.52391">
        <ele>55</ele>
        <time>2023-08-06T10:03:30Z</time>
      </trkpt>
      <trkpt lat="50.24695" lon="3.52388">
        <ele>55</ele>
        <time>2023-08-06T10:03:31Z</time>
      </trkpt>
      <trkpt lat="50.24692" lon="3.52386">
        <ele>55</ele>
        <time>2023-08-06T10:03:32Z</time>
      </trkpt>
      <trkpt lat="50.2469" lon="3.52384">
        <ele>55</ele>
        <time>2023-08-06T10:03:33Z</time>
      </trkpt>
      <trkpt lat="50.24688" lon="3.52382">
        <ele>55.2</ele>
        <time>2023-08-06T10:03:34Z</time>
      </trkpt>
      <trkpt lat="50.24686" lon="3.52379">
        <ele>55.4</ele>
        <time>2023-08-06T10:03:35Z</time>
      </trkpt>
      <trkpt lat="50.24683" lon="3.52377">
        <ele>55.4</ele>
        <time>2023-08-06T10:03:36Z</time>
      </trkpt>
      <trkpt lat="50.24681" lon="3.52374">
        <ele>55.6</ele>
        <time>2023-08-06T10:03:37Z</time>
      </trkpt>
      <trkpt lat="50.24679" lon="3.52372">
        <ele>55.6</ele>
        <time>2023-08-06T10:03:38Z</time>
      </trkpt>
      <trkpt lat="50.24677" lon="3.5237">
        <ele>55.8</ele>
        <time>2023-08-06T10:03:39Z</time>
      </trkpt>
      <trkpt lat="50.24675" lon="3.52367">
        <ele>56</ele>
        <time>2023-08-06T10:03:40Z</time>
      </trkpt>
      <trkpt lat="50.24672" lon="3.52365">
        <ele>56.2</ele>
        <time>2023-08-06T10:03:41Z</time>
      </trkpt>
      <trkpt lat="50.2467" lon="3.52363">
        <ele>56.2</ele>
        <time>2023-08-06T10:03:42Z</time>
      </trkpt>
      <trkpt lat="50.24668" lon="3.52361">
        <ele>56.4</ele>
        <time>2023-08-06T10:03:43Z</time>
      </trkpt>
      <trkpt lat="50.24665" lon="3.52359">
        <ele>56.4</ele>
        <time>2023-08-06T10:03:44Z</time>
      </trkpt>
      <trkpt lat="50.24663" lon="3.52356">
        <ele>56.4</ele>
        <time>2023-08-06T10:03:45Z</time>
      </trkpt>
      <trkpt lat="50.24661" lon="3.52354">
        <ele>56.6</ele>
        <time>2023-08-06T10:03:46Z</time>
      </trkpt>
      <trkpt lat="50.24659" lon="3.52352">
        <ele>56.6</ele>
        <time>2023-08-06T10:03:47Z</time>
      </trkpt>
      <trkpt lat="50.24657" lon="3.5235">
        <ele>56.8</ele>
        <time>2023-08-06T10:03:48Z</time>
      </trkpt>
      <trkpt lat="50.24654" lon="3.52348">
        <ele>56.8</ele>
        <time>2023-08-06T10:03:49Z</time>
      </trkpt>
      <trkpt lat="50.24652" lon="3.52346">
        <ele>57</ele>
        <time>2023-08-06T10:03:50Z</time>
      </trkpt>
      <trkpt lat="50.24649" lon="3.52343">
        <ele>57</ele>
        <time>2023-08-06T10:03:51Z</time>
      </trkpt>
      <trkpt lat="50.24647" lon="3.52342">
        <ele>57.2</ele>
        <time>2023-08-06T10:03:52Z</time>
      </trkpt>
      <trkpt lat="50.24645" lon="3.5234">
        <ele>57.4</ele>
        <time>2023-08-06T10:03:53Z</time>
      </trkpt>
      <trkpt lat="50.24642" lon="3.52338">
        <ele>57.6</ele>
        <time>2023-08-06T10:03:54Z</time>
      </trkpt>
      <trkpt lat="50.2464" lon="3.52336">
        <ele>57.8</ele>
        <time>2023-08-06T10:03:55Z</time>
      </trkpt>
      <trkpt lat="50.24638" lon="3.52334">
        <ele>57.8</ele>
        <time>2023-08-06T10:03:56Z</time>
      </trkpt>
      <trkpt lat="50.24636" lon="3.52331">
        <ele>58</ele>
        <time>2023-08-06T10:03:57Z</time>
      </trkpt>
      <trkpt lat="50.24634" lon="3.52329">
        <ele>58</ele>
        <time>2023-08-06T10:03:58Z</time>
      </trkpt>
      <trkpt lat="50.24631" lon="3.52326">
        <ele>58.2</ele>
        <time>2023-08-06T10:03:59Z</time>
      </trkpt>
      <trkpt lat="50.24629" lon="3.52324">
        <ele>58.2</ele>
        <time>2023-08-06T10:04:00Z</time>
      </trkpt>
      <trkpt lat="50.24627" lon="3.52321">
        <ele>58.4</ele>
        <time>2023-08-06T10:04:01Z</time>
      </trkpt>
      <trkpt lat="50.24624" lon="3.52319">
        <ele>58.4</ele>
        <time>2023-08-06T10:04:02Z</time>
      </trkpt>
      <trkpt lat="50.24624" lon="3.52319">
        <ele>58.4</ele>
        <time>2023-08-06T10:04:03Z</time>
      </trkpt>
      <trkpt lat="50.2462" lon="3.52314">
        <ele>58.6</ele>
        <time>2023-08-06T10:04:04Z</time>
      </trkpt>
      <trkpt lat="50.24617" lon="3.52312">
        <ele>58.6</ele>
        <time>2023-08-06T10:04:05Z</time>
      </trkpt>
      <trkpt lat="50.24615" lon="3.52309">
        <ele>58.6</ele>
        <time>2023-08-06T10:04:06Z</time>
      </trkpt>
      <trkpt lat="50.24613" lon="3.52307">
        <ele>58.8</ele>
        <time>2023-08-06T10:04:07Z</time>
      </trkpt>
      <trkpt lat="50.24611" lon="3.52305">
        <ele>58.8</ele>
        <time>2023-08-06T10:04:08Z</time>
      </trkpt>
      <trkpt lat="50.24608" lon="3.52303">
        <ele>59.2</ele>
        <time>2023-08-06T10:04:09Z</time>
      </trkpt>
      <trkpt lat="50.24606" lon="3.52301">
        <ele>59.2</ele>
        <time>2023-08-06T10:04:10Z</time>
      </trkpt>
      <trkpt lat="50.24604" lon="3.52298">
        <ele>59.4</ele>
        <time>2023-08-06T10:04:11Z</time>
      </trkpt>
      <trkpt lat="50.24601" lon="3.52296">
        <ele>59.4</ele>
        <time>2023-08-06T10:04:12Z</time>
      </trkpt>
      <trkpt lat="50.24599" lon="3.52293">
        <ele>59.6</ele>
        <time>2023-08-06T10:04:13Z</time>
      </trkpt>
      <trkpt lat="50.24597" lon="3.5229">
        <ele>59.8</ele>
        <time>2023-08-06T10:04:14Z</time>
      </trkpt>
      <trkpt lat="50.24594" lon="3.52288">
        <ele>60</ele>
        <time>2023-08-06T10:04:15Z</time>
      </trkpt>
      <trkpt lat="50.24592" lon="3.52285">
        <ele>60.2</ele>
        <time>2023-08-06T10:04:16Z</time>
      </trkpt>
      <trkpt lat="50.2459" lon="3.52283">
        <ele>60.4</ele>
        <time>2023-08-06T10:04:17Z</time>
      </trkpt>
      <trkpt lat="50.24588" lon="3.5228">
        <ele>60.6</ele>
        <time>2023-08-06T10:04:18Z</time>
      </trkpt>
      <trkpt lat="50.24585" lon="3.52278">
        <ele>60.6</ele>
        <time>2023-08-06T10:04:19Z</time>
      </trkpt>
      <trkpt lat="50.24583" lon="3.52276">
        <ele>60.8</ele>
        <time>2023-08-06T10:04:20Z</time>
      </trkpt>
      <trkpt lat="50.24581" lon="3.52273">
        <ele>60.8</ele>
        <time>2023-08-06T10:04:21Z</time>
      </trkpt>
      <trkpt lat="50.24579" lon="3.52271">
        <ele>61</ele>
        <time>2023-08-06T10:04:22Z</time>
      </trkpt>
      <trkpt lat="50.24577" lon="3.52268">
        <ele>61.2</ele>
        <time>2023-08-06T10:04:23Z</time>
      </trkpt>
      <trkpt lat="50.24574" lon="3.52266">
        <ele>61.2</ele>
        <time>2023-08-06T10:04:24Z</time>
      </trkpt>
      <trkpt lat="50.24572" lon="3.52263">
        <ele>61.4</ele>
        <time>2023-08-06T10:04:25Z</time>
      </trkpt>
      <trkpt lat="50.2457" lon="3.52261">
        <ele>61.4</ele>
        <time>2023-08-06T10:04:26Z</time>
      </trkpt>
      <trkpt lat="50.24568" lon="3.52258">
        <ele>61.4</ele>
        <time>2023-08-06T10:04:27Z</time>
      </trkpt>
      <trkpt lat="50.24566" lon="3.52255">
        <ele>61.6</ele>
        <time>2023-08-06T10:04:28Z</time>
      </trkpt>
      <trkpt lat="50.24564" lon="3.52253">
        <ele>61.8</ele>
        <time>2023-08-06T10:04:29Z</time>
      </trkpt>
      <trkpt lat="50.24562" lon="3.5225">
        <ele>61.8</ele>
        <time>2023-08-06T10:04:30Z</time>
      </trkpt>
      <trkpt lat="50.2456" lon="3.52247">
        <ele>62</ele>
        <time>2023-08-06T10:04:31Z</time>
      </trkpt>
      <trkpt lat="50.24557" lon="3.52245">
        <ele>62.2</ele>
        <time>2023-08-06T10:04:32Z</time>
      </trkpt>
      <trkpt lat="50.24555" lon="3.52243">
        <ele>62.2</ele>
        <time>2023-08-06T10:04:33Z</time>
      </trkpt>
      <trkpt lat="50.24553" lon="3.5224">
        <ele>62.2</ele>
        <time>2023-08-06T10:04:34Z</time>
      </trkpt>
      <trkpt lat="50.24551" lon="3.52238">
        <ele>62.2</ele>
        <time>2023-08-06T10:04:35Z</time>
      </trkpt>
      <trkpt lat="50.24549" lon="3.52235">
        <ele>62.4</ele>
        <time>2023-08-06T10:04:36Z</time>
      </trkpt>
      <trkpt lat="50.24546" lon="3.52233">
        <ele>62.4</ele>
        <time>2023-08-06T10:04:37Z</time>
      </trkpt>
      <trkpt lat="50.24544" lon="3.52231">
        <ele>62.6</ele>
        <time>2023-08-06T10:04:38Z</time>
      </trkpt>
      <trkpt lat="50.24542" lon="3.52228">
        <ele>62.6</ele>
        <time>2023-08-06T10:04:39Z</time>
      </trkpt>
      <trkpt lat="50.2454" lon="3.52226">
        <ele>62.6</ele>
        <time>2023-08-06T10:04:40Z</time>
      </trkpt>
      <trkpt lat="50.24538" lon="3.52223">
        <ele>62.8</ele>
        <time>2023-08-06T10:04:41Z</time>
      </trkpt>
      <trkpt lat="50.24536" lon="3.5222">
        <ele>62.8</ele>
        <time>2023-08-06T10:04:42Z</time>
      </trkpt>
      <trkpt lat="50.24534" lon="3.52217">
        <ele>63</ele>
        <time>2023-08-06T10:04:43Z</time>
      </trkpt>
      <trkpt lat="50.24532" lon="3.52214">
        <ele>63</ele>
        <time>2023-08-06T10:04:44Z</time>
      </trkpt>
      <trkpt lat="50.2453" lon="3.52212">
        <ele>63</ele>
        <time>2023-08-06T10:04:45Z</time>
      </trkpt>
      <trkpt lat="50.24527" lon="3.52209">
        <ele>63.2</ele>
        <time>2023-08-06T10:04:46Z</time>
      </trkpt>
      <trkpt lat="50.24525" lon="3.52207">
        <ele>63.2</ele>
        <time>2023-08-06T10:04:47Z</time>
      </trkpt>
      <trkpt lat="50.24525" lon="3.52207">
        <ele>63.2</ele>
        <time>2023-08-06T10:04:48Z</time>
      </trkpt>
      <trkpt lat="50.24521" lon="3.52203">
        <ele>63.4</ele>
        <time>2023-08-06T10:04:49Z</time>
      </trkpt>
      <trkpt lat="50.24519" lon="3.522">
        <ele>63.6</ele>
        <time>2023-08-06T10:04:50Z</time>
      </trkpt>
      <trkpt lat="50.24516" lon="3.52197">
        <ele>63.8</ele>
        <time>2023-08-06T10:04:51Z</time>
      </trkpt>
      <trkpt lat="50.24515" lon="3.52195">
        <ele>64</ele>
        <time>2023-08-06T10:04:52Z</time>
      </trkpt>
      <trkpt lat="50.24513" lon="3.52192">
        <ele>64.2</ele>
        <time>2023-08-06T10:04:53Z</time>
      </trkpt>
      <trkpt lat="50.24511" lon="3.5219">
        <ele>64.2</ele>
        <time>2023-08-06T10:04:54Z</time>
      </trkpt>
      <trkpt lat="50.24509" lon="3.52188">
        <ele>64.4</ele>
        <time>2023-08-06T10:04:55Z</time>
      </trkpt>
      <trkpt lat="50.24506" lon="3.52185">
        <ele>64.4</ele>
        <time>2023-08-06T10:04:56Z</time>
      </trkpt>
      <trkpt lat="50.24505" lon="3.52183">
        <ele>64.6</ele>
        <time>2023-08-06T10:04:57Z</time>
      </trkpt>
      <trkpt lat="50.24503" lon="3.52181">
        <ele>64.6</ele>
        <time>2023-08-06T10:04:58Z</time>
      </trkpt>
      <trkpt lat="50.24501" lon="3.52178">
        <ele>64.8</ele>
        <time>2023-08-06T10:04:59Z</time>
      </trkpt>
      <trkpt lat="50.24498" lon="3.52176">
        <ele>64.8</ele>
        <time>2023-08-06T10:05:00Z</time>
      </trkpt>
      <trkpt lat="50.24496" lon="3.52173">
        <ele>65</ele>
        <time>2023-08-06T10:05:01Z</time>
      </trkpt>
      <trkpt lat="50.24494" lon="3.52171">
        <ele>65.2</ele>
        <time>2023-08-06T10:05:02Z</time>
      </trkpt>
      <trkpt lat="50.24494" lon="3.52171">
        <ele>65.4</ele>
        <time>2023-08-06T10:05:03Z</time>
      </trkpt>
      <trkpt lat="50.2449" lon="3.52166">
        <ele>65.6</ele>
        <time>2023-08-06T10:05:04Z</time>
      </trkpt>
      <trkpt lat="50.24488" lon="3.52163">
        <ele>65.6</ele>
        <time>2023-08-06T10:05:05Z</time>
      </trkpt>
      <trkpt lat="50.24486" lon="3.52161">
        <ele>65.8</ele>
        <time>2023-08-06T10:05:06Z</time>
      </trkpt>
      <trkpt lat="50.24483" lon="3.52158">
        <ele>65.8</ele>
        <time>2023-08-06T10:05:07Z</time>
      </trkpt>
      <trkpt lat="50.24481" lon="3.52155">
        <ele>66</ele>
        <time>2023-08-06T10:05:08Z</time>
      </trkpt>
      <trkpt lat="50.24479" lon="3.52152">
        <ele>66</ele>
        <time>2023-08-06T10:05:09Z</time>
      </trkpt>
      <trkpt lat="50.24477" lon="3.5215">
        <ele>66.2</ele>
        <time>2023-08-06T10:05:10Z</time>
      </trkpt>
      <trkpt lat="50.24474" lon="3.52148">
        <ele>66.2</ele>
        <time>2023-08-06T10:05:11Z</time>
      </trkpt>
      <trkpt lat="50.24472" lon="3.52145">
        <ele>66.2</ele>
        <time>2023-08-06T10:05:12Z</time>
      </trkpt>
      <trkpt lat="50.2447" lon="3.52142">
        <ele>66.2</ele>
        <time>2023-08-06T10:05:13Z</time>
      </trkpt>
      <trkpt lat="50.24467" lon="3.5214">
        <ele>66.4</ele>
        <time>2023-08-06T10:05:14Z</time>
      </trkpt>
      <trkpt lat="50.24465" lon="3.52137">
        <ele>66.6</ele>
        <time>2023-08-06T10:05:15Z</time>
      </trkpt>
      <trkpt lat="50.24462" lon="3.52134">
        <ele>66.6</ele>
        <time>2023-08-06T10:05:16Z</time>
      </trkpt>
      <trkpt lat="50.2446" lon="3.52131">
        <ele>66.6</ele>
        <time>2023-08-06T10:05:17Z</time>
      </trkpt>
      <trkpt lat="50.24457" lon="3.52127">
        <ele>66.8</ele>
        <time>2023-08-06T10:05:18Z</time>
      </trkpt>
      <trkpt lat="50.24455" lon="3.52124">
        <ele>66.8</ele>
        <time>2023-08-06T10:05:19Z</time>
      </trkpt>
      <trkpt lat="50.24455" lon="3.52124">
        <ele>67</ele>
        <time>2023-08-06T10:05:20Z</time>
      </trkpt>
      <trkpt lat="50.24449" lon="3.52118">
        <ele>67</ele>
        <time>2023-08-06T10:05:21Z</time>
      </trkpt>
      <trkpt lat="50.24446" lon="3.52114">
        <ele>67</ele>
        <time>2023-08-06T10:05:22Z</time>
      </trkpt>
      <trkpt lat="50.24443" lon="3.5211">
        <ele>67</ele>
        <time>2023-08-06T10:05:23Z</time>
      </trkpt>
      <trkpt lat="50.2444" lon="3.52106">
        <ele>67.2</ele>
        <time>2023-08-06T10:05:24Z</time>
      </trkpt>
      <trkpt lat="50.24414" lon="3.5208">
        <ele>67</ele>
        <time>2023-08-06T10:05:31Z</time>
      </trkpt>
      <trkpt lat="50.24375" lon="3.52035">
        <ele>66.4</ele>
        <time>2023-08-06T10:05:41Z</time>
      </trkpt>
      <trkpt lat="50.24363" lon="3.52023">
        <ele>66.2</ele>
        <time>2023-08-06T10:05:44Z</time>
      </trkpt>
      <trkpt lat="50.24344" lon="3.51998">
        <ele>65.8</ele>
        <time>2023-08-06T10:05:49Z</time>
      </trkpt>
      <trkpt lat="50.24317" lon="3.51956">
        <ele>64.6</ele>
        <time>2023-08-06T10:05:56Z</time>
      </trkpt>
      <trkpt lat="50.24313" lon="3.5195">
        <ele>64.4</ele>
        <time>2023-08-06T10:05:57Z</time>
      </trkpt>
      <trkpt lat="50.24293" lon="3.51922">
        <ele>63.8</ele>
        <time>2023-08-06T10:06:02Z</time>
      </trkpt>
      <trkpt lat="50.2429" lon="3.51916">
        <ele>63.6</ele>
        <time>2023-08-06T10:06:03Z</time>
      </trkpt>
      <trkpt lat="50.24279" lon="3.51898">
        <ele>63.4</ele>
        <time>2023-08-06T10:06:06Z</time>
      </trkpt>
      <trkpt lat="50.24276" lon="3.51893">
        <ele>63.4</ele>
        <time>2023-08-06T10:06:07Z</time>
      </trkpt>
      <trkpt lat="50.24271" lon="3.51888">
        <ele>63.2</ele>
        <time>2023-08-06T10:06:08Z</time>
      </trkpt>
      <trkpt lat="50.24259" lon="3.51872">
        <ele>63</ele>
        <time>2023-08-06T10:06:11Z</time>
      </trkpt>
      <trkpt lat="50.24231" lon="3.51841">
        <ele>62.4</ele>
        <time>2023-08-06T10:06:17Z</time>
      </trkpt>
      <trkpt lat="50.24226" lon="3.51836">
        <ele>62.4</ele>
        <time>2023-08-06T10:06:18Z</time>
      </trkpt>
      <trkpt lat="50.24221" lon="3.51831">
        <ele>62.4</ele>
        <time>2023-08-06T10:06:19Z</time>
      </trkpt>
      <trkpt lat="50.24205" lon="3.51818">
        <ele>62</ele>
        <time>2023-08-06T10:06:22Z</time>
      </trkpt>
      <trkpt lat="50.242" lon="3.51815">
        <ele>62</ele>
        <time>2023-08-06T10:06:23Z</time>
      </trkpt>
      <trkpt lat="50.2418" lon="3.51805">
        <ele>61.8</ele>
        <time>2023-08-06T10:06:27Z</time>
      </trkpt>
      <trkpt lat="50.24175" lon="3.51804">
        <ele>61.8</ele>
        <time>2023-08-06T10:06:28Z</time>
      </trkpt>
      <trkpt lat="50.2417" lon="3.51803">
        <ele>61.8</ele>
        <time>2023-08-06T10:06:29Z</time>
      </trkpt>
      <trkpt lat="50.24166" lon="3.51804">
        <ele>61.8</ele>
        <time>2023-08-06T10:06:30Z</time>
      </trkpt>
      <trkpt lat="50.24161" lon="3.51804">
        <ele>61.6</ele>
        <time>2023-08-06T10:06:31Z</time>
      </trkpt>
      <trkpt lat="50.24157" lon="3.51804">
        <ele>61.6</ele>
        <time>2023-08-06T10:06:32Z</time>
      </trkpt>
      <trkpt lat="50.24153" lon="3.51805">
        <ele>61.6</ele>
        <time>2023-08-06T10:06:33Z</time>
      </trkpt>
      <trkpt lat="50.24149" lon="3.51806">
        <ele>61.6</ele>
        <time>2023-08-06T10:06:34Z</time>
      </trkpt>
      <trkpt lat="50.24141" lon="3.51809">
        <ele>61.6</ele>
        <time>2023-08-06T10:06:36Z</time>
      </trkpt>
      <trkpt lat="50.24138" lon="3.51811">
        <ele>61.6</ele>
        <time>2023-08-06T10:06:37Z</time>
      </trkpt>
      <trkpt lat="50.24134" lon="3.51812">
        <ele>61.6</ele>
        <time>2023-08-06T10:06:38Z</time>
      </trkpt>
      <trkpt lat="50.2413" lon="3.51814">
        <ele>61.6</ele>
        <time>2023-08-06T10:06:39Z</time>
      </trkpt>
      <trkpt lat="50.24126" lon="3.51816">
        <ele>61.8</ele>
        <time>2023-08-06T10:06:40Z</time>
      </trkpt>
      <trkpt lat="50.24123" lon="3.51818">
        <ele>61.8</ele>
        <time>2023-08-06T10:06:41Z</time>
      </trkpt>
      <trkpt lat="50.2412" lon="3.5182">
        <ele>61.8</ele>
        <time>2023-08-06T10:06:42Z</time>
      </trkpt>
      <trkpt lat="50.24116" lon="3.51822">
        <ele>62</ele>
        <time>2023-08-06T10:06:43Z</time>
      </trkpt>
      <trkpt lat="50.24113" lon="3.51824">
        <ele>62</ele>
        <time>2023-08-06T10:06:44Z</time>
      </trkpt>
      <trkpt lat="50.24109" lon="3.51826">
        <ele>62</ele>
        <time>2023-08-06T10:06:45Z</time>
      </trkpt>
      <trkpt lat="50.24106" lon="3.51829">
        <ele>62</ele>
        <time>2023-08-06T10:06:46Z</time>
      </trkpt>
      <trkpt lat="50.24102" lon="3.51832">
        <ele>62.2</ele>
        <time>2023-08-06T10:06:47Z</time>
      </trkpt>
      <trkpt lat="50.241" lon="3.51834">
        <ele>62.2</ele>
        <time>2023-08-06T10:06:48Z</time>
      </trkpt>
      <trkpt lat="50.24097" lon="3.51836">
        <ele>62.2</ele>
        <time>2023-08-06T10:06:49Z</time>
      </trkpt>
      <trkpt lat="50.24094" lon="3.51838">
        <ele>62.4</ele>
        <time>2023-08-06T10:06:50Z</time>
      </trkpt>
      <trkpt lat="50.24094" lon="3.51838">
        <ele>62.4</ele>
        <time>2023-08-06T10:06:51Z</time>
      </trkpt>
      <trkpt lat="50.24082" lon="3.51845">
        <ele>63</ele>
        <time>2023-08-06T10:06:54Z</time>
      </trkpt>
      <trkpt lat="50.24079" lon="3.51847">
        <ele>63.2</ele>
        <time>2023-08-06T10:06:55Z</time>
      </trkpt>
      <trkpt lat="50.24076" lon="3.51848">
        <ele>63.4</ele>
        <time>2023-08-06T10:06:56Z</time>
      </trkpt>
      <trkpt lat="50.24073" lon="3.5185">
        <ele>63.4</ele>
        <time>2023-08-06T10:06:57Z</time>
      </trkpt>
      <trkpt lat="50.2407" lon="3.51852">
        <ele>63.6</ele>
        <time>2023-08-06T10:06:58Z</time>
      </trkpt>
      <trkpt lat="50.24067" lon="3.51853">
        <ele>63.8</ele>
        <time>2023-08-06T10:06:59Z</time>
      </trkpt>
      <trkpt lat="50.24064" lon="3.51854">
        <ele>64</ele>
        <time>2023-08-06T10:07:00Z</time>
      </trkpt>
      <trkpt lat="50.24061" lon="3.51854">
        <ele>64</ele>
        <time>2023-08-06T10:07:01Z</time>
      </trkpt>
      <trkpt lat="50.24059" lon="3.51855">
        <ele>64.2</ele>
        <time>2023-08-06T10:07:02Z</time>
      </trkpt>
      <trkpt lat="50.24057" lon="3.51856">
        <ele>64.4</ele>
        <time>2023-08-06T10:07:03Z</time>
      </trkpt>
      <trkpt lat="50.24055" lon="3.51857">
        <ele>64.4</ele>
        <time>2023-08-06T10:07:04Z</time>
      </trkpt>
      <trkpt lat="50.24052" lon="3.51859">
        <ele>64.6</ele>
        <time>2023-08-06T10:07:05Z</time>
      </trkpt>
      <trkpt lat="50.24052" lon="3.51859">
        <ele>64.6</ele>
        <time>2023-08-06T10:07:06Z</time>
      </trkpt>
      <trkpt lat="50.24046" lon="3.5186">
        <ele>64.6</ele>
        <time>2023-08-06T10:07:07Z</time>
      </trkpt>
      <trkpt lat="50.24044" lon="3.51861">
        <ele>64.6</ele>
        <time>2023-08-06T10:07:08Z</time>
      </trkpt>
      <trkpt lat="50.24041" lon="3.51861">
        <ele>64.6</ele>
        <time>2023-08-06T10:07:09Z</time>
      </trkpt>
      <trkpt lat="50.24039" lon="3.51861">
        <ele>64.8</ele>
        <time>2023-08-06T10:07:10Z</time>
      </trkpt>
      <trkpt lat="50.24036" lon="3.51862">
        <ele>64.8</ele>
        <time>2023-08-06T10:07:11Z</time>
      </trkpt>
      <trkpt lat="50.24033" lon="3.51864">
        <ele>65</ele>
        <time>2023-08-06T10:07:12Z</time>
      </trkpt>
      <trkpt lat="50.24031" lon="3.51864">
        <ele>65.2</ele>
        <time>2023-08-06T10:07:13Z</time>
      </trkpt>
      <trkpt lat="50.24029" lon="3.51864">
        <ele>65.6</ele>
        <time>2023-08-06T10:07:14Z</time>
      </trkpt>
      <trkpt lat="50.24027" lon="3.51864">
        <ele>65.8</ele>
        <time>2023-08-06T10:07:15Z</time>
      </trkpt>
      <trkpt lat="50.24025" lon="3.51865">
        <ele>65.8</ele>
        <time>2023-08-06T10:07:16Z</time>
      </trkpt>
      <trkpt lat="50.24023" lon="3.51865">
        <ele>66</ele>
        <time>2023-08-06T10:07:17Z</time>
      </trkpt>
      <trkpt lat="50.24021" lon="3.51865">
        <ele>66</ele>
        <time>2023-08-06T10:07:18Z</time>
      </trkpt>
      <trkpt lat="50.24019" lon="3.51865">
        <ele>66.2</ele>
        <time>2023-08-06T10:07:19Z</time>
      </trkpt>
      <trkpt lat="50.24016" lon="3.51866">
        <ele>66.4</ele>
        <time>2023-08-06T10:07:20Z</time>
      </trkpt>
      <trkpt lat="50.24014" lon="3.51867">
        <ele>66.4</ele>
        <time>2023-08-06T10:07:21Z</time>
      </trkpt>
      <trkpt lat="50.24012" lon="3.51867">
        <ele>66.4</ele>
        <time>2023-08-06T10:07:22Z</time>
      </trkpt>
      <trkpt lat="50.2401" lon="3.51868">
        <ele>66.6</ele>
        <time>2023-08-06T10:07:23Z</time>
      </trkpt>
      <trkpt lat="50.24008" lon="3.51868">
        <ele>66.8</ele>
        <time>2023-08-06T10:07:24Z</time>
      </trkpt>
      <trkpt lat="50.24006" lon="3.51867">
        <ele>66.8</ele>
        <time>2023-08-06T10:07:25Z</time>
      </trkpt>
      <trkpt lat="50.24004" lon="3.51867">
        <ele>67</ele>
        <time>2023-08-06T10:07:26Z</time>
      </trkpt>
      <trkpt lat="50.24002" lon="3.51867">
        <ele>67.2</ele>
        <time>2023-08-06T10:07:27Z</time>
      </trkpt>
      <trkpt lat="50.23999" lon="3.51867">
        <ele>67.2</ele>
        <time>2023-08-06T10:07:28Z</time>
      </trkpt>
      <trkpt lat="50.23997" lon="3.51867">
        <ele>67.4</ele>
        <time>2023-08-06T10:07:29Z</time>
      </trkpt>
      <trkpt lat="50.23995" lon="3.51867">
        <ele>67.4</ele>
        <time>2023-08-06T10:07:30Z</time>
      </trkpt>
      <trkpt lat="50.23992" lon="3.51866">
        <ele>67.6</ele>
        <time>2023-08-06T10:07:31Z</time>
      </trkpt>
      <trkpt lat="50.2399" lon="3.51867">
        <ele>67.8</ele>
        <time>2023-08-06T10:07:32Z</time>
      </trkpt>
      <trkpt lat="50.23988" lon="3.51867">
        <ele>67.8</ele>
        <time>2023-08-06T10:07:33Z</time>
      </trkpt>
      <trkpt lat="50.23986" lon="3.51867">
        <ele>67.8</ele>
        <time>2023-08-06T10:07:34Z</time>
      </trkpt>
      <trkpt lat="50.23984" lon="3.51868">
        <ele>68</ele>
        <time>2023-08-06T10:07:35Z</time>
      </trkpt>
      <trkpt lat="50.23982" lon="3.51868">
        <ele>68</ele>
        <time>2023-08-06T10:07:36Z</time>
      </trkpt>
      <trkpt lat="50.23979" lon="3.51867">
        <ele>68.2</ele>
        <time>2023-08-06T10:07:37Z</time>
      </trkpt>
      <trkpt lat="50.23977" lon="3.51867">
        <ele>68.4</ele>
        <time>2023-08-06T10:07:38Z</time>
      </trkpt>
      <trkpt lat="50.23977" lon="3.51867">
        <ele>68.6</ele>
        <time>2023-08-06T10:07:39Z</time>
      </trkpt>
      <trkpt lat="50.23973" lon="3.51866">
        <ele>68.6</ele>
        <time>2023-08-06T10:07:40Z</time>
      </trkpt>
      <trkpt lat="50.23971" lon="3.51865">
        <ele>68.6</ele>
        <time>2023-08-06T10:07:41Z</time>
      </trkpt>
      <trkpt lat="50.23969" lon="3.51865">
        <ele>68.8</ele>
        <time>2023-08-06T10:07:42Z</time>
      </trkpt>
      <trkpt lat="50.23966" lon="3.51864">
        <ele>68.8</ele>
        <time>2023-08-06T10:07:43Z</time>
      </trkpt>
      <trkpt lat="50.23964" lon="3.51864">
        <ele>69</ele>
        <time>2023-08-06T10:07:44Z</time>
      </trkpt>
      <trkpt lat="50.23962" lon="3.51864">
        <ele>69</ele>
        <time>2023-08-06T10:07:45Z</time>
      </trkpt>
      <trkpt lat="50.2396" lon="3.51863">
        <ele>69.2</ele>
        <time>2023-08-06T10:07:46Z</time>
      </trkpt>
      <trkpt lat="50.23957" lon="3.51863">
        <ele>69.2</ele>
        <time>2023-08-06T10:07:47Z</time>
      </trkpt>
      <trkpt lat="50.23955" lon="3.51862">
        <ele>69.4</ele>
        <time>2023-08-06T10:07:48Z</time>
      </trkpt>
      <trkpt lat="50.23953" lon="3.51862">
        <ele>69.4</ele>
        <time>2023-08-06T10:07:49Z</time>
      </trkpt>
      <trkpt lat="50.23951" lon="3.51862">
        <ele>69.6</ele>
        <time>2023-08-06T10:07:50Z</time>
      </trkpt>
      <trkpt lat="50.23948" lon="3.51862">
        <ele>69.8</ele>
        <time>2023-08-06T10:07:51Z</time>
      </trkpt>
      <trkpt lat="50.23946" lon="3.51862">
        <ele>69.8</ele>
        <time>2023-08-06T10:07:52Z</time>
      </trkpt>
      <trkpt lat="50.23944" lon="3.51861">
        <ele>70</ele>
        <time>2023-08-06T10:07:53Z</time>
      </trkpt>
      <trkpt lat="50.23941" lon="3.51861">
        <ele>70.2</ele>
        <time>2023-08-06T10:07:54Z</time>
      </trkpt>
      <trkpt lat="50.23939" lon="3.5186">
        <ele>70.4</ele>
        <time>2023-08-06T10:07:55Z</time>
      </trkpt>
      <trkpt lat="50.23937" lon="3.51859">
        <ele>70.4</ele>
        <time>2023-08-06T10:07:56Z</time>
      </trkpt>
      <trkpt lat="50.23934" lon="3.51859">
        <ele>70.4</ele>
        <time>2023-08-06T10:07:57Z</time>
      </trkpt>
      <trkpt lat="50.23932" lon="3.51859">
        <ele>70.6</ele>
        <time>2023-08-06T10:07:58Z</time>
      </trkpt>
      <trkpt lat="50.2393" lon="3.51858">
        <ele>70.8</ele>
        <time>2023-08-06T10:07:59Z</time>
      </trkpt>
      <trkpt lat="50.23927" lon="3.51858">
        <ele>71</ele>
        <time>2023-08-06T10:08:00Z</time>
      </trkpt>
      <trkpt lat="50.23924" lon="3.51857">
        <ele>71</ele>
        <time>2023-08-06T10:08:01Z</time>
      </trkpt>
      <trkpt lat="50.23921" lon="3.51856">
        <ele>71</ele>
        <time>2023-08-06T10:08:02Z</time>
      </trkpt>
      <trkpt lat="50.23918" lon="3.51855">
        <ele>71.2</ele>
        <time>2023-08-06T10:08:03Z</time>
      </trkpt>
      <trkpt lat="50.23915" lon="3.51855">
        <ele>71.2</ele>
        <time>2023-08-06T10:08:04Z</time>
      </trkpt>
      <trkpt lat="50.23911" lon="3.51854">
        <ele>71.4</ele>
        <time>2023-08-06T10:08:05Z</time>
      </trkpt>
      <trkpt lat="50.23908" lon="3.51853">
        <ele>71.4</ele>
        <time>2023-08-06T10:08:06Z</time>
      </trkpt>
      <trkpt lat="50.23905" lon="3.51851">
        <ele>71.4</ele>
        <time>2023-08-06T10:08:07Z</time>
      </trkpt>
      <trkpt lat="50.23902" lon="3.5185">
        <ele>71.4</ele>
        <time>2023-08-06T10:08:08Z</time>
      </trkpt>
      <trkpt lat="50.23899" lon="3.51848">
        <ele>71.4</ele>
        <time>2023-08-06T10:08:09Z</time>
      </trkpt>
      <trkpt lat="50.23896" lon="3.51846">
        <ele>71.4</ele>
        <time>2023-08-06T10:08:10Z</time>
      </trkpt>
      <trkpt lat="50.23893" lon="3.51844">
        <ele>71.4</ele>
        <time>2023-08-06T10:08:11Z</time>
      </trkpt>
      <trkpt lat="50.2389" lon="3.51842">
        <ele>71.4</ele>
        <time>2023-08-06T10:08:12Z</time>
      </trkpt>
      <trkpt lat="50.23888" lon="3.5184">
        <ele>71.4</ele>
        <time>2023-08-06T10:08:13Z</time>
      </trkpt>
      <trkpt lat="50.23885" lon="3.51837">
        <ele>71.4</ele>
        <time>2023-08-06T10:08:14Z</time>
      </trkpt>
      <trkpt lat="50.23875" lon="3.51827">
        <ele>71.6</ele>
        <time>2023-08-06T10:08:18Z</time>
      </trkpt>
      <trkpt lat="50.23872" lon="3.51825">
        <ele>71.6</ele>
        <time>2023-08-06T10:08:19Z</time>
      </trkpt>
      <trkpt lat="50.2387" lon="3.51823">
        <ele>71.6</ele>
        <time>2023-08-06T10:08:20Z</time>
      </trkpt>
      <trkpt lat="50.23866" lon="3.51821">
        <ele>71.6</ele>
        <time>2023-08-06T10:08:21Z</time>
      </trkpt>
      <trkpt lat="50.23864" lon="3.51819">
        <ele>71.6</ele>
        <time>2023-08-06T10:08:22Z</time>
      </trkpt>
      <trkpt lat="50.23861" lon="3.51817">
        <ele>71.6</ele>
        <time>2023-08-06T10:08:23Z</time>
      </trkpt>
      <trkpt lat="50.23845" lon="3.51813">
        <ele>71.6</ele>
        <time>2023-08-06T10:08:28Z</time>
      </trkpt>
      <trkpt lat="50.23822" lon="3.51822">
        <ele>71.8</ele>
        <time>2023-08-06T10:08:35Z</time>
      </trkpt>
      <trkpt lat="50.23816" lon="3.51827">
        <ele>72</ele>
        <time>2023-08-06T10:08:37Z</time>
      </trkpt>
      <trkpt lat="50.23794" lon="3.51848">
        <ele>72.2</ele>
        <time>2023-08-06T10:08:44Z</time>
      </trkpt>
      <trkpt lat="50.23786" lon="3.51857">
        <ele>72.4</ele>
        <time>2023-08-06T10:08:47Z</time>
      </trkpt>
      <trkpt lat="50.23783" lon="3.5186">
        <ele>72.4</ele>
        <time>2023-08-06T10:08:48Z</time>
      </trkpt>
      <trkpt lat="50.23775" lon="3.51868">
        <ele>72.8</ele>
        <time>2023-08-06T10:08:51Z</time>
      </trkpt>
      <trkpt lat="50.23772" lon="3.51871">
        <ele>73</ele>
        <time>2023-08-06T10:08:52Z</time>
      </trkpt>
      <trkpt lat="50.23769" lon="3.51874">
        <ele>73.2</ele>
        <time>2023-08-06T10:08:53Z</time>
      </trkpt>
      <trkpt lat="50.23742" lon="3.51893">
        <ele>73.4</ele>
        <time>2023-08-06T10:09:01Z</time>
      </trkpt>
      <trkpt lat="50.2371" lon="3.5191">
        <ele>73.8</ele>
        <time>2023-08-06T10:09:09Z</time>
      </trkpt>
      <trkpt lat="50.23668" lon="3.51932">
        <ele>73.6</ele>
        <time>2023-08-06T10:09:18Z</time>
      </trkpt>
      <trkpt lat="50.23663" lon="3.51934">
        <ele>73.4</ele>
        <time>2023-08-06T10:09:19Z</time>
      </trkpt>
      <trkpt lat="50.23624" lon="3.51947">
        <ele>72.8</ele>
        <time>2023-08-06T10:09:27Z</time>
      </trkpt>
      <trkpt lat="50.23566" lon="3.51963">
        <ele>72.2</ele>
        <time>2023-08-06T10:09:38Z</time>
      </trkpt>
      <trkpt lat="50.2355" lon="3.51969">
        <ele>72</ele>
        <time>2023-08-06T10:09:41Z</time>
      </trkpt>
      <trkpt lat="50.23502" lon="3.51984">
        <ele>71.4</ele>
        <time>2023-08-06T10:09:50Z</time>
      </trkpt>
      <trkpt lat="50.23487" lon="3.51989">
        <ele>71.2</ele>
        <time>2023-08-06T10:09:53Z</time>
      </trkpt>
      <trkpt lat="50.23482" lon="3.51991">
        <ele>71.2</ele>
        <time>2023-08-06T10:09:54Z</time>
      </trkpt>
      <trkpt lat="50.23472" lon="3.51995">
        <ele>71.2</ele>
        <time>2023-08-06T10:09:56Z</time>
      </trkpt>
      <trkpt lat="50.23467" lon="3.51997">
        <ele>71.2</ele>
        <time>2023-08-06T10:09:57Z</time>
      </trkpt>
      <trkpt lat="50.23462" lon="3.52">
        <ele>71.2</ele>
        <time>2023-08-06T10:09:58Z</time>
      </trkpt>
      <trkpt lat="50.23458" lon="3.52001">
        <ele>71.2</ele>
        <time>2023-08-06T10:09:59Z</time>
      </trkpt>
      <trkpt lat="50.23453" lon="3.52003">
        <ele>71.2</ele>
        <time>2023-08-06T10:10:00Z</time>
      </trkpt>
      <trkpt lat="50.23447" lon="3.52006">
        <ele>71.2</ele>
        <time>2023-08-06T10:10:01Z</time>
      </trkpt>
      <trkpt lat="50.23391" lon="3.5203">
        <ele>71.4</ele>
        <time>2023-08-06T10:10:12Z</time>
      </trkpt>
      <trkpt lat="50.23387" lon="3.52031">
        <ele>71.4</ele>
        <time>2023-08-06T10:10:13Z</time>
      </trkpt>
      <trkpt lat="50.23366" lon="3.52039">
        <ele>71.2</ele>
        <time>2023-08-06T10:10:17Z</time>
      </trkpt>
      <trkpt lat="50.23362" lon="3.52041">
        <ele>71.2</ele>
        <time>2023-08-06T10:10:18Z</time>
      </trkpt>
      <trkpt lat="50.23357" lon="3.52043">
        <ele>71</ele>
        <time>2023-08-06T10:10:19Z</time>
      </trkpt>
      <trkpt lat="50.23351" lon="3.52045">
        <ele>70.8</ele>
        <time>2023-08-06T10:10:20Z</time>
      </trkpt>
      <trkpt lat="50.23347" lon="3.52047">
        <ele>70.8</ele>
        <time>2023-08-06T10:10:21Z</time>
      </trkpt>
      <trkpt lat="50.23343" lon="3.52049">
        <ele>70.8</ele>
        <time>2023-08-06T10:10:22Z</time>
      </trkpt>
      <trkpt lat="50.23338" lon="3.52051">
        <ele>70.6</ele>
        <time>2023-08-06T10:10:23Z</time>
      </trkpt>
      <trkpt lat="50.23333" lon="3.52053">
        <ele>70.4</ele>
        <time>2023-08-06T10:10:24Z</time>
      </trkpt>
      <trkpt lat="50.23327" lon="3.52055">
        <ele>70.6</ele>
        <time>2023-08-06T10:10:25Z</time>
      </trkpt>
      <trkpt lat="50.23289" lon="3.5207">
        <ele>70.8</ele>
        <time>2023-08-06T10:10:33Z</time>
      </trkpt>
      <trkpt lat="50.2326" lon="3.52081">
        <ele>71</ele>
        <time>2023-08-06T10:10:39Z</time>
      </trkpt>
      <trkpt lat="50.23256" lon="3.52083">
        <ele>71</ele>
        <time>2023-08-06T10:10:40Z</time>
      </trkpt>
      <trkpt lat="50.23251" lon="3.52084">
        <ele>71</ele>
        <time>2023-08-06T10:10:41Z</time>
      </trkpt>
      <trkpt lat="50.23248" lon="3.52086">
        <ele>71</ele>
        <time>2023-08-06T10:10:42Z</time>
      </trkpt>
      <trkpt lat="50.23244" lon="3.52087">
        <ele>71</ele>
        <time>2023-08-06T10:10:43Z</time>
      </trkpt>
      <trkpt lat="50.23239" lon="3.52089">
        <ele>71</ele>
        <time>2023-08-06T10:10:44Z</time>
      </trkpt>
      <trkpt lat="50.23235" lon="3.5209">
        <ele>71</ele>
        <time>2023-08-06T10:10:45Z</time>
      </trkpt>
      <trkpt lat="50.23232" lon="3.52091">
        <ele>71</ele>
        <time>2023-08-06T10:10:46Z</time>
      </trkpt>
      <trkpt lat="50.23228" lon="3.52091">
        <ele>70.8</ele>
        <time>2023-08-06T10:10:47Z</time>
      </trkpt>
      <trkpt lat="50.23223" lon="3.52093">
        <ele>70.8</ele>
        <time>2023-08-06T10:10:48Z</time>
      </trkpt>
      <trkpt lat="50.23219" lon="3.52094">
        <ele>70.8</ele>
        <time>2023-08-06T10:10:49Z</time>
      </trkpt>
      <trkpt lat="50.23215" lon="3.52095">
        <ele>70.8</ele>
        <time>2023-08-06T10:10:50Z</time>
      </trkpt>
      <trkpt lat="50.23212" lon="3.52096">
        <ele>71</ele>
        <time>2023-08-06T10:10:51Z</time>
      </trkpt>
      <trkpt lat="50.23208" lon="3.52097">
        <ele>71</ele>
        <time>2023-08-06T10:10:52Z</time>
      </trkpt>
      <trkpt lat="50.23204" lon="3.52099">
        <ele>71</ele>
        <time>2023-08-06T10:10:53Z</time>
      </trkpt>
      <trkpt lat="50.232" lon="3.521">
        <ele>71.2</ele>
        <time>2023-08-06T10:10:54Z</time>
      </trkpt>
      <trkpt lat="50.23197" lon="3.52101">
        <ele>71.2</ele>
        <time>2023-08-06T10:10:55Z</time>
      </trkpt>
      <trkpt lat="50.23193" lon="3.52103">
        <ele>71.2</ele>
        <time>2023-08-06T10:10:56Z</time>
      </trkpt>
      <trkpt lat="50.2319" lon="3.52104">
        <ele>71.2</ele>
        <time>2023-08-06T10:10:57Z</time>
      </trkpt>
      <trkpt lat="50.23185" lon="3.52105">
        <ele>71.4</ele>
        <time>2023-08-06T10:10:58Z</time>
      </trkpt>
      <trkpt lat="50.23182" lon="3.52106">
        <ele>71.8</ele>
        <time>2023-08-06T10:10:59Z</time>
      </trkpt>
      <trkpt lat="50.23178" lon="3.52107">
        <ele>71.8</ele>
        <time>2023-08-06T10:11:00Z</time>
      </trkpt>
      <trkpt lat="50.23176" lon="3.52108">
        <ele>71.8</ele>
        <time>2023-08-06T10:11:01Z</time>
      </trkpt>
      <trkpt lat="50.23171" lon="3.52109">
        <ele>71.8</ele>
        <time>2023-08-06T10:11:02Z</time>
      </trkpt>
      <trkpt lat="50.23168" lon="3.5211">
        <ele>71.8</ele>
        <time>2023-08-06T10:11:03Z</time>
      </trkpt>
      <trkpt lat="50.23164" lon="3.52112">
        <ele>72</ele>
        <time>2023-08-06T10:11:04Z</time>
      </trkpt>
      <trkpt lat="50.23161" lon="3.52113">
        <ele>72</ele>
        <time>2023-08-06T10:11:05Z</time>
      </trkpt>
      <trkpt lat="50.23149" lon="3.52116">
        <ele>72</ele>
        <time>2023-08-06T10:11:08Z</time>
      </trkpt>
      <trkpt lat="50.23122" lon="3.52122">
        <ele>72.2</ele>
        <time>2023-08-06T10:11:16Z</time>
      </trkpt>
      <trkpt lat="50.23118" lon="3.52123">
        <ele>72.2</ele>
        <time>2023-08-06T10:11:17Z</time>
      </trkpt>
      <trkpt lat="50.23115" lon="3.52123">
        <ele>72.2</ele>
        <time>2023-08-06T10:11:18Z</time>
      </trkpt>
      <trkpt lat="50.23112" lon="3.52124">
        <ele>72.2</ele>
        <time>2023-08-06T10:11:19Z</time>
      </trkpt>
      <trkpt lat="50.2311" lon="3.52124">
        <ele>72.2</ele>
        <time>2023-08-06T10:11:20Z</time>
      </trkpt>
      <trkpt lat="50.23107" lon="3.52125">
        <ele>72.2</ele>
        <time>2023-08-06T10:11:21Z</time>
      </trkpt>
      <trkpt lat="50.23104" lon="3.52125">
        <ele>72.2</ele>
        <time>2023-08-06T10:11:22Z</time>
      </trkpt>
      <trkpt lat="50.23101" lon="3.52126">
        <ele>72.2</ele>
        <time>2023-08-06T10:11:23Z</time>
      </trkpt>
      <trkpt lat="50.23099" lon="3.52126">
        <ele>72.2</ele>
        <time>2023-08-06T10:11:24Z</time>
      </trkpt>
      <trkpt lat="50.23096" lon="3.52127">
        <ele>72.4</ele>
        <time>2023-08-06T10:11:25Z</time>
      </trkpt>
      <trkpt lat="50.23093" lon="3.52128">
        <ele>72.4</ele>
        <time>2023-08-06T10:11:26Z</time>
      </trkpt>
      <trkpt lat="50.2309" lon="3.52129">
        <ele>72.6</ele>
        <time>2023-08-06T10:11:27Z</time>
      </trkpt>
      <trkpt lat="50.23081" lon="3.52133">
        <ele>73</ele>
        <time>2023-08-06T10:11:30Z</time>
      </trkpt>
      <trkpt lat="50.23076" lon="3.52137">
        <ele>73.4</ele>
        <time>2023-08-06T10:11:32Z</time>
      </trkpt>
      <trkpt lat="50.23057" lon="3.52149">
        <ele>74</ele>
        <time>2023-08-06T10:11:39Z</time>
      </trkpt>
      <trkpt lat="50.23041" lon="3.5216">
        <ele>74.6</ele>
        <time>2023-08-06T10:11:45Z</time>
      </trkpt>
      <trkpt lat="50.23027" lon="3.5217">
        <ele>74.8</ele>
        <time>2023-08-06T10:11:50Z</time>
      </trkpt>
      <trkpt lat="50.23025" lon="3.52172">
        <ele>74.8</ele>
        <time>2023-08-06T10:11:51Z</time>
      </trkpt>
      <trkpt lat="50.23023" lon="3.52174">
        <ele>74.8</ele>
        <time>2023-08-06T10:11:52Z</time>
      </trkpt>
      <trkpt lat="50.23017" lon="3.52177">
        <ele>74.8</ele>
        <time>2023-08-06T10:11:54Z</time>
      </trkpt>
      <trkpt lat="50.23015" lon="3.52179">
        <ele>74.6</ele>
        <time>2023-08-06T10:11:55Z</time>
      </trkpt>
      <trkpt lat="50.23012" lon="3.52181">
        <ele>74.6</ele>
        <time>2023-08-06T10:11:56Z</time>
      </trkpt>
      <trkpt lat="50.2301" lon="3.52182">
        <ele>74.6</ele>
        <time>2023-08-06T10:11:57Z</time>
      </trkpt>
      <trkpt lat="50.23005" lon="3.52187">
        <ele>74.6</ele>
        <time>2023-08-06T10:11:59Z</time>
      </trkpt>
      <trkpt lat="50.23002" lon="3.52189">
        <ele>74.8</ele>
        <time>2023-08-06T10:12:00Z</time>
      </trkpt>
      <trkpt lat="50.23" lon="3.5219">
        <ele>74.8</ele>
        <time>2023-08-06T10:12:01Z</time>
      </trkpt>
      <trkpt lat="50.22998" lon="3.52192">
        <ele>74.8</ele>
        <time>2023-08-06T10:12:02Z</time>
      </trkpt>
      <trkpt lat="50.2299" lon="3.52198">
        <ele>75</ele>
        <time>2023-08-06T10:12:05Z</time>
      </trkpt>
      <trkpt lat="50.22988" lon="3.52199">
        <ele>75.2</ele>
        <time>2023-08-06T10:12:06Z</time>
      </trkpt>
      <trkpt lat="50.22971" lon="3.52211">
        <ele>75.8</ele>
        <time>2023-08-06T10:12:13Z</time>
      </trkpt>
      <trkpt lat="50.22954" lon="3.52223">
        <ele>76</ele>
        <time>2023-08-06T10:12:20Z</time>
      </trkpt>
      <trkpt lat="50.22949" lon="3.52227">
        <ele>76.2</ele>
        <time>2023-08-06T10:12:22Z</time>
      </trkpt>
      <trkpt lat="50.22947" lon="3.52229">
        <ele>76.4</ele>
        <time>2023-08-06T10:12:23Z</time>
      </trkpt>
      <trkpt lat="50.22918" lon="3.52249">
        <ele>76.6</ele>
        <time>2023-08-06T10:12:35Z</time>
      </trkpt>
      <trkpt lat="50.22897" lon="3.52261">
        <ele>77</ele>
        <time>2023-08-06T10:12:43Z</time>
      </trkpt>
      <trkpt lat="50.22889" lon="3.52267">
        <ele>77.2</ele>
        <time>2023-08-06T10:12:46Z</time>
      </trkpt>
      <trkpt lat="50.22861" lon="3.52285">
        <ele>77.6</ele>
        <time>2023-08-06T10:12:57Z</time>
      </trkpt>
      <trkpt lat="50.2285" lon="3.52292">
        <ele>78</ele>
        <time>2023-08-06T10:13:01Z</time>
      </trkpt>
      <trkpt lat="50.22836" lon="3.52301">
        <ele>78.2</ele>
        <time>2023-08-06T10:13:06Z</time>
      </trkpt>
      <trkpt lat="50.2281" lon="3.52317">
        <ele>78.4</ele>
        <time>2023-08-06T10:13:15Z</time>
      </trkpt>
      <trkpt lat="50.22778" lon="3.52332">
        <ele>78.4</ele>
        <time>2023-08-06T10:13:25Z</time>
      </trkpt>
      <trkpt lat="50.22754" lon="3.52343">
        <ele>78.2</ele>
        <time>2023-08-06T10:13:32Z</time>
      </trkpt>
      <trkpt lat="50.22719" lon="3.52359">
        <ele>78</ele>
        <time>2023-08-06T10:13:42Z</time>
      </trkpt>
      <trkpt lat="50.2268" lon="3.52379">
        <ele>77.6</ele>
        <time>2023-08-06T10:13:52Z</time>
      </trkpt>
      <trkpt lat="50.22639" lon="3.52402">
        <ele>78</ele>
        <time>2023-08-06T10:14:02Z</time>
      </trkpt>
      <trkpt lat="50.22606" lon="3.52421">
        <ele>76.8</ele>
        <time>2023-08-06T10:14:10Z</time>
      </trkpt>
      <trkpt lat="50.22602" lon="3.52423">
        <ele>76.8</ele>
        <time>2023-08-06T10:14:11Z</time>
      </trkpt>
      <trkpt lat="50.22598" lon="3.52424">
        <ele>76.8</ele>
        <time>2023-08-06T10:14:12Z</time>
      </trkpt>
      <trkpt lat="50.22595" lon="3.52426">
        <ele>76.8</ele>
        <time>2023-08-06T10:14:13Z</time>
      </trkpt>
      <trkpt lat="50.22591" lon="3.52428">
        <ele>76.8</ele>
        <time>2023-08-06T10:14:14Z</time>
      </trkpt>
      <trkpt lat="50.22587" lon="3.5243">
        <ele>76.6</ele>
        <time>2023-08-06T10:14:15Z</time>
      </trkpt>
      <trkpt lat="50.22582" lon="3.52433">
        <ele>76.6</ele>
        <time>2023-08-06T10:14:16Z</time>
      </trkpt>
      <trkpt lat="50.22579" lon="3.52435">
        <ele>76.4</ele>
        <time>2023-08-06T10:14:17Z</time>
      </trkpt>
      <trkpt lat="50.22576" lon="3.52437">
        <ele>76.4</ele>
        <time>2023-08-06T10:14:18Z</time>
      </trkpt>
      <trkpt lat="50.22572" lon="3.5244">
        <ele>76.2</ele>
        <time>2023-08-06T10:14:19Z</time>
      </trkpt>
      <trkpt lat="50.22568" lon="3.52443">
        <ele>76.2</ele>
        <time>2023-08-06T10:14:20Z</time>
      </trkpt>
      <trkpt lat="50.22548" lon="3.52462">
        <ele>75.8</ele>
        <time>2023-08-06T10:14:26Z</time>
      </trkpt>
      <trkpt lat="50.22521" lon="3.52499">
        <ele>76.2</ele>
        <time>2023-08-06T10:14:35Z</time>
      </trkpt>
      <trkpt lat="50.22515" lon="3.52508">
        <ele>76.2</ele>
        <time>2023-08-06T10:14:37Z</time>
      </trkpt>
      <trkpt lat="50.22487" lon="3.52549">
        <ele>75.8</ele>
        <time>2023-08-06T10:14:46Z</time>
      </trkpt>
      <trkpt lat="50.2246" lon="3.5259">
        <ele>77.2</ele>
        <time>2023-08-06T10:14:55Z</time>
      </trkpt>
      <trkpt lat="50.22444" lon="3.52614">
        <ele>77.4</ele>
        <time>2023-08-06T10:15:00Z</time>
      </trkpt>
      <trkpt lat="50.22435" lon="3.52627">
        <ele>77.4</ele>
        <time>2023-08-06T10:15:03Z</time>
      </trkpt>
      <trkpt lat="50.22411" lon="3.52646">
        <ele>77.6</ele>
        <time>2023-08-06T10:15:09Z</time>
      </trkpt>
      <trkpt lat="50.22408" lon="3.52647">
        <ele>77.8</ele>
        <time>2023-08-06T10:15:10Z</time>
      </trkpt>
      <trkpt lat="50.22404" lon="3.52649">
        <ele>77.8</ele>
        <time>2023-08-06T10:15:11Z</time>
      </trkpt>
      <trkpt lat="50.224" lon="3.5265">
        <ele>77.8</ele>
        <time>2023-08-06T10:15:12Z</time>
      </trkpt>
      <trkpt lat="50.22396" lon="3.52651">
        <ele>77.8</ele>
        <time>2023-08-06T10:15:13Z</time>
      </trkpt>
      <trkpt lat="50.22391" lon="3.52652">
        <ele>78</ele>
        <time>2023-08-06T10:15:14Z</time>
      </trkpt>
      <trkpt lat="50.22383" lon="3.52652">
        <ele>78</ele>
        <time>2023-08-06T10:15:16Z</time>
      </trkpt>
      <trkpt lat="50.22379" lon="3.5265">
        <ele>78</ele>
        <time>2023-08-06T10:15:17Z</time>
      </trkpt>
      <trkpt lat="50.22374" lon="3.52647">
        <ele>78</ele>
        <time>2023-08-06T10:15:18Z</time>
      </trkpt>
      <trkpt lat="50.22366" lon="3.52643">
        <ele>78</ele>
        <time>2023-08-06T10:15:20Z</time>
      </trkpt>
      <trkpt lat="50.22354" lon="3.52638">
        <ele>78</ele>
        <time>2023-08-06T10:15:23Z</time>
      </trkpt>
      <trkpt lat="50.22311" lon="3.52625">
        <ele>78</ele>
        <time>2023-08-06T10:15:33Z</time>
      </trkpt>
      <trkpt lat="50.22287" lon="3.52622">
        <ele>77.4</ele>
        <time>2023-08-06T10:15:39Z</time>
      </trkpt>
      <trkpt lat="50.22283" lon="3.52622">
        <ele>77.4</ele>
        <time>2023-08-06T10:15:40Z</time>
      </trkpt>
      <trkpt lat="50.22279" lon="3.52622">
        <ele>77.4</ele>
        <time>2023-08-06T10:15:41Z</time>
      </trkpt>
      <trkpt lat="50.22275" lon="3.52621">
        <ele>77.4</ele>
        <time>2023-08-06T10:15:42Z</time>
      </trkpt>
      <trkpt lat="50.2227" lon="3.52621">
        <ele>77.4</ele>
        <time>2023-08-06T10:15:43Z</time>
      </trkpt>
      <trkpt lat="50.22233" lon="3.52619">
        <ele>77.6</ele>
        <time>2023-08-06T10:15:52Z</time>
      </trkpt>
      <trkpt lat="50.22194" lon="3.5262">
        <ele>78</ele>
        <time>2023-08-06T10:16:01Z</time>
      </trkpt>
      <trkpt lat="50.2218" lon="3.52622">
        <ele>78</ele>
        <time>2023-08-06T10:16:04Z</time>
      </trkpt>
      <trkpt lat="50.22169" lon="3.52623">
        <ele>77.8</ele>
        <time>2023-08-06T10:16:07Z</time>
      </trkpt>
      <trkpt lat="50.22148" lon="3.52627">
        <ele>77.6</ele>
        <time>2023-08-06T10:16:12Z</time>
      </trkpt>
      <trkpt lat="50.22091" lon="3.52634">
        <ele>77.8</ele>
        <time>2023-08-06T10:16:25Z</time>
      </trkpt>
      <trkpt lat="50.22079" lon="3.52635">
        <ele>78</ele>
        <time>2023-08-06T10:16:28Z</time>
      </trkpt>
      <trkpt lat="50.22075" lon="3.52636">
        <ele>78</ele>
        <time>2023-08-06T10:16:29Z</time>
      </trkpt>
      <trkpt lat="50.22071" lon="3.52637">
        <ele>78.2</ele>
        <time>2023-08-06T10:16:30Z</time>
      </trkpt>
      <trkpt lat="50.22067" lon="3.52637">
        <ele>78.2</ele>
        <time>2023-08-06T10:16:31Z</time>
      </trkpt>
      <trkpt lat="50.22046" lon="3.5264">
        <ele>78.4</ele>
        <time>2023-08-06T10:16:36Z</time>
      </trkpt>
      <trkpt lat="50.22043" lon="3.52641">
        <ele>78.4</ele>
        <time>2023-08-06T10:16:37Z</time>
      </trkpt>
      <trkpt lat="50.22039" lon="3.52641">
        <ele>78.4</ele>
        <time>2023-08-06T10:16:38Z</time>
      </trkpt>
      <trkpt lat="50.22035" lon="3.52642">
        <ele>78.4</ele>
        <time>2023-08-06T10:16:39Z</time>
      </trkpt>
      <trkpt lat="50.22031" lon="3.52642">
        <ele>78.6</ele>
        <time>2023-08-06T10:16:40Z</time>
      </trkpt>
      <trkpt lat="50.22027" lon="3.52643">
        <ele>78.6</ele>
        <time>2023-08-06T10:16:41Z</time>
      </trkpt>
      <trkpt lat="50.22023" lon="3.52644">
        <ele>78.8</ele>
        <time>2023-08-06T10:16:42Z</time>
      </trkpt>
      <trkpt lat="50.22019" lon="3.52644">
        <ele>78.8</ele>
        <time>2023-08-06T10:16:43Z</time>
      </trkpt>
      <trkpt lat="50.22016" lon="3.52644">
        <ele>78.8</ele>
        <time>2023-08-06T10:16:44Z</time>
      </trkpt>
      <trkpt lat="50.22012" lon="3.52644">
        <ele>79</ele>
        <time>2023-08-06T10:16:45Z</time>
      </trkpt>
      <trkpt lat="50.22009" lon="3.52645">
        <ele>79</ele>
        <time>2023-08-06T10:16:46Z</time>
      </trkpt>
      <trkpt lat="50.22005" lon="3.52645">
        <ele>79.2</ele>
        <time>2023-08-06T10:16:47Z</time>
      </trkpt>
      <trkpt lat="50.22002" lon="3.52645">
        <ele>79.2</ele>
        <time>2023-08-06T10:16:48Z</time>
      </trkpt>
      <trkpt lat="50.21998" lon="3.52645">
        <ele>79.2</ele>
        <time>2023-08-06T10:16:49Z</time>
      </trkpt>
      <trkpt lat="50.21995" lon="3.52645">
        <ele>79.2</ele>
        <time>2023-08-06T10:16:50Z</time>
      </trkpt>
      <trkpt lat="50.21992" lon="3.52645">
        <ele>79.4</ele>
        <time>2023-08-06T10:16:51Z</time>
      </trkpt>
      <trkpt lat="50.21988" lon="3.52645">
        <ele>79.6</ele>
        <time>2023-08-06T10:16:52Z</time>
      </trkpt>
      <trkpt lat="50.21985" lon="3.52644">
        <ele>79.8</ele>
        <time>2023-08-06T10:16:53Z</time>
      </trkpt>
      <trkpt lat="50.21982" lon="3.52644">
        <ele>80</ele>
        <time>2023-08-06T10:16:54Z</time>
      </trkpt>
      <trkpt lat="50.21971" lon="3.52644">
        <ele>80.2</ele>
        <time>2023-08-06T10:16:57Z</time>
      </trkpt>
      <trkpt lat="50.21935" lon="3.5264">
        <ele>80.8</ele>
        <time>2023-08-06T10:17:07Z</time>
      </trkpt>
      <trkpt lat="50.21913" lon="3.52641">
        <ele>81.6</ele>
        <time>2023-08-06T10:17:13Z</time>
      </trkpt>
      <trkpt lat="50.21907" lon="3.5264">
        <ele>82</ele>
        <time>2023-08-06T10:17:15Z</time>
      </trkpt>
      <trkpt lat="50.21875" lon="3.5264">
        <ele>82.2</ele>
        <time>2023-08-06T10:17:24Z</time>
      </trkpt>
      <trkpt lat="50.21843" lon="3.52644">
        <ele>82.6</ele>
        <time>2023-08-06T10:17:33Z</time>
      </trkpt>
      <trkpt lat="50.21829" lon="3.52648">
        <ele>83</ele>
        <time>2023-08-06T10:17:37Z</time>
      </trkpt>
      <trkpt lat="50.21815" lon="3.52654">
        <ele>83</ele>
        <time>2023-08-06T10:17:41Z</time>
      </trkpt>
      <trkpt lat="50.21778" lon="3.52665">
        <ele>82.8</ele>
        <time>2023-08-06T10:17:51Z</time>
      </trkpt>
      <trkpt lat="50.21743" lon="3.52682">
        <ele>83</ele>
        <time>2023-08-06T10:18:00Z</time>
      </trkpt>
      <trkpt lat="50.21728" lon="3.5269">
        <ele>83</ele>
        <time>2023-08-06T10:18:04Z</time>
      </trkpt>
      <trkpt lat="50.21725" lon="3.52692">
        <ele>83</ele>
        <time>2023-08-06T10:18:05Z</time>
      </trkpt>
      <trkpt lat="50.21721" lon="3.52694">
        <ele>83.2</ele>
        <time>2023-08-06T10:18:06Z</time>
      </trkpt>
      <trkpt lat="50.21718" lon="3.52696">
        <ele>83.2</ele>
        <time>2023-08-06T10:18:07Z</time>
      </trkpt>
      <trkpt lat="50.2171" lon="3.52699">
        <ele>83.2</ele>
        <time>2023-08-06T10:18:09Z</time>
      </trkpt>
      <trkpt lat="50.21702" lon="3.52704">
        <ele>83.2</ele>
        <time>2023-08-06T10:18:11Z</time>
      </trkpt>
      <trkpt lat="50.21677" lon="3.52717">
        <ele>83</ele>
        <time>2023-08-06T10:18:18Z</time>
      </trkpt>
      <trkpt lat="50.21673" lon="3.52719">
        <ele>82.8</ele>
        <time>2023-08-06T10:18:19Z</time>
      </trkpt>
      <trkpt lat="50.2167" lon="3.52721">
        <ele>82.8</ele>
        <time>2023-08-06T10:18:20Z</time>
      </trkpt>
      <trkpt lat="50.21667" lon="3.52722">
        <ele>83</ele>
        <time>2023-08-06T10:18:21Z</time>
      </trkpt>
      <trkpt lat="50.21664" lon="3.52724">
        <ele>82.8</ele>
        <time>2023-08-06T10:18:22Z</time>
      </trkpt>
      <trkpt lat="50.21661" lon="3.52726">
        <ele>82.8</ele>
        <time>2023-08-06T10:18:23Z</time>
      </trkpt>
      <trkpt lat="50.21657" lon="3.52727">
        <ele>82.8</ele>
        <time>2023-08-06T10:18:24Z</time>
      </trkpt>
      <trkpt lat="50.21654" lon="3.52729">
        <ele>82.8</ele>
        <time>2023-08-06T10:18:25Z</time>
      </trkpt>
      <trkpt lat="50.21651" lon="3.52731">
        <ele>82.8</ele>
        <time>2023-08-06T10:18:26Z</time>
      </trkpt>
      <trkpt lat="50.21643" lon="3.52735">
        <ele>82.6</ele>
        <time>2023-08-06T10:18:28Z</time>
      </trkpt>
      <trkpt lat="50.21611" lon="3.52753">
        <ele>82.2</ele>
        <time>2023-08-06T10:18:36Z</time>
      </trkpt>
      <trkpt lat="50.21583" lon="3.52767">
        <ele>82.2</ele>
        <time>2023-08-06T10:18:43Z</time>
      </trkpt>
      <trkpt lat="50.2158" lon="3.52769">
        <ele>82.2</ele>
        <time>2023-08-06T10:18:44Z</time>
      </trkpt>
      <trkpt lat="50.21577" lon="3.52771">
        <ele>82.2</ele>
        <time>2023-08-06T10:18:45Z</time>
      </trkpt>
      <trkpt lat="50.21573" lon="3.52772">
        <ele>82.2</ele>
        <time>2023-08-06T10:18:46Z</time>
      </trkpt>
      <trkpt lat="50.2157" lon="3.52773">
        <ele>82.2</ele>
        <time>2023-08-06T10:18:47Z</time>
      </trkpt>
      <trkpt lat="50.21568" lon="3.52774">
        <ele>82.2</ele>
        <time>2023-08-06T10:18:48Z</time>
      </trkpt>
      <trkpt lat="50.21565" lon="3.52775">
        <ele>81.8</ele>
        <time>2023-08-06T10:18:49Z</time>
      </trkpt>
      <trkpt lat="50.21562" lon="3.52776">
        <ele>81.8</ele>
        <time>2023-08-06T10:18:50Z</time>
      </trkpt>
      <trkpt lat="50.2156" lon="3.52776">
        <ele>81.8</ele>
        <time>2023-08-06T10:18:51Z</time>
      </trkpt>
      <trkpt lat="50.21557" lon="3.52774">
        <ele>81.8</ele>
        <time>2023-08-06T10:18:52Z</time>
      </trkpt>
      <trkpt lat="50.21554" lon="3.52771">
        <ele>82</ele>
        <time>2023-08-06T10:18:53Z</time>
      </trkpt>
      <trkpt lat="50.21552" lon="3.52768">
        <ele>81.8</ele>
        <time>2023-08-06T10:18:54Z</time>
      </trkpt>
      <trkpt lat="50.21549" lon="3.52764">
        <ele>81.8</ele>
        <time>2023-08-06T10:18:55Z</time>
      </trkpt>
      <trkpt lat="50.21546" lon="3.5276">
        <ele>81.8</ele>
        <time>2023-08-06T10:18:56Z</time>
      </trkpt>
      <trkpt lat="50.21543" lon="3.52755">
        <ele>81.8</ele>
        <time>2023-08-06T10:18:57Z</time>
      </trkpt>
      <trkpt lat="50.2154" lon="3.52751">
        <ele>81.8</ele>
        <time>2023-08-06T10:18:58Z</time>
      </trkpt>
      <trkpt lat="50.21535" lon="3.52742">
        <ele>82</ele>
        <time>2023-08-06T10:19:00Z</time>
      </trkpt>
      <trkpt lat="50.21532" lon="3.52737">
        <ele>82</ele>
        <time>2023-08-06T10:19:01Z</time>
      </trkpt>
      <trkpt lat="50.21495" lon="3.52689">
        <ele>82</ele>
        <time>2023-08-06T10:19:12Z</time>
      </trkpt>
      <trkpt lat="50.21479" lon="3.5267">
        <ele>81.6</ele>
        <time>2023-08-06T10:19:16Z</time>
      </trkpt>
      <trkpt lat="50.21457" lon="3.52645">
        <ele>81</ele>
        <time>2023-08-06T10:19:21Z</time>
      </trkpt>
      <trkpt lat="50.21435" lon="3.52617">
        <ele>80.4</ele>
        <time>2023-08-06T10:19:26Z</time>
      </trkpt>
      <trkpt lat="50.21426" lon="3.52606">
        <ele>80.2</ele>
        <time>2023-08-06T10:19:28Z</time>
      </trkpt>
      <trkpt lat="50.21393" lon="3.52559">
        <ele>79.4</ele>
        <time>2023-08-06T10:19:36Z</time>
      </trkpt>
      <trkpt lat="50.21389" lon="3.52553">
        <ele>79.2</ele>
        <time>2023-08-06T10:19:37Z</time>
      </trkpt>
      <trkpt lat="50.21386" lon="3.52547">
        <ele>79.2</ele>
        <time>2023-08-06T10:19:38Z</time>
      </trkpt>
      <trkpt lat="50.21381" lon="3.52542">
        <ele>79.2</ele>
        <time>2023-08-06T10:19:39Z</time>
      </trkpt>
      <trkpt lat="50.21356" lon="3.52509">
        <ele>78.4</ele>
        <time>2023-08-06T10:19:45Z</time>
      </trkpt>
      <trkpt lat="50.21346" lon="3.52496">
        <ele>78.4</ele>
        <time>2023-08-06T10:19:47Z</time>
      </trkpt>
      <trkpt lat="50.21327" lon="3.52467">
        <ele>77.8</ele>
        <time>2023-08-06T10:19:52Z</time>
      </trkpt>
      <trkpt lat="50.21325" lon="3.5246">
        <ele>77.8</ele>
        <time>2023-08-06T10:19:53Z</time>
      </trkpt>
      <trkpt lat="50.21322" lon="3.52454">
        <ele>77.8</ele>
        <time>2023-08-06T10:19:54Z</time>
      </trkpt>
      <trkpt lat="50.2132" lon="3.52447">
        <ele>77.6</ele>
        <time>2023-08-06T10:19:55Z</time>
      </trkpt>
      <trkpt lat="50.21317" lon="3.52441">
        <ele>77.6</ele>
        <time>2023-08-06T10:19:56Z</time>
      </trkpt>
      <trkpt lat="50.21314" lon="3.52435">
        <ele>77.4</ele>
        <time>2023-08-06T10:19:57Z</time>
      </trkpt>
      <trkpt lat="50.21311" lon="3.5243">
        <ele>77.2</ele>
        <time>2023-08-06T10:19:58Z</time>
      </trkpt>
      <trkpt lat="50.21302" lon="3.52423">
        <ele>77</ele>
        <time>2023-08-06T10:20:00Z</time>
      </trkpt>
      <trkpt lat="50.21298" lon="3.52422">
        <ele>76.8</ele>
        <time>2023-08-06T10:20:01Z</time>
      </trkpt>
      <trkpt lat="50.21293" lon="3.52422">
        <ele>76.6</ele>
        <time>2023-08-06T10:20:02Z</time>
      </trkpt>
      <trkpt lat="50.21288" lon="3.52423">
        <ele>76.4</ele>
        <time>2023-08-06T10:20:03Z</time>
      </trkpt>
      <trkpt lat="50.21283" lon="3.52423">
        <ele>76.4</ele>
        <time>2023-08-06T10:20:04Z</time>
      </trkpt>
      <trkpt lat="50.21267" lon="3.52424">
        <ele>76</ele>
        <time>2023-08-06T10:20:07Z</time>
      </trkpt>
      <trkpt lat="50.21256" lon="3.52425">
        <ele>75.8</ele>
        <time>2023-08-06T10:20:09Z</time>
      </trkpt>
      <trkpt lat="50.21251" lon="3.52425">
        <ele>75.8</ele>
        <time>2023-08-06T10:20:10Z</time>
      </trkpt>
      <trkpt lat="50.21237" lon="3.52419">
        <ele>75.6</ele>
        <time>2023-08-06T10:20:13Z</time>
      </trkpt>
      <trkpt lat="50.21227" lon="3.52412">
        <ele>75.6</ele>
        <time>2023-08-06T10:20:15Z</time>
      </trkpt>
      <trkpt lat="50.21201" lon="3.52388">
        <ele>75</ele>
        <time>2023-08-06T10:20:20Z</time>
      </trkpt>
      <trkpt lat="50.21196" lon="3.52383">
        <ele>75</ele>
        <time>2023-08-06T10:20:21Z</time>
      </trkpt>
      <trkpt lat="50.21171" lon="3.5236">
        <ele>74</ele>
        <time>2023-08-06T10:20:25Z</time>
      </trkpt>
      <trkpt lat="50.21158" lon="3.52346">
        <ele>73.4</ele>
        <time>2023-08-06T10:20:27Z</time>
      </trkpt>
      <trkpt lat="50.21146" lon="3.52332">
        <ele>73</ele>
        <time>2023-08-06T10:20:29Z</time>
      </trkpt>
      <trkpt lat="50.21129" lon="3.52308">
        <ele>71.6</ele>
        <time>2023-08-06T10:20:32Z</time>
      </trkpt>
      <trkpt lat="50.21124" lon="3.52299">
        <ele>71.2</ele>
        <time>2023-08-06T10:20:33Z</time>
      </trkpt>
      <trkpt lat="50.2112" lon="3.5229">
        <ele>70.8</ele>
        <time>2023-08-06T10:20:34Z</time>
      </trkpt>
      <trkpt lat="50.21117" lon="3.52281">
        <ele>70.4</ele>
        <time>2023-08-06T10:20:35Z</time>
      </trkpt>
      <trkpt lat="50.21113" lon="3.52273">
        <ele>70.2</ele>
        <time>2023-08-06T10:20:36Z</time>
      </trkpt>
      <trkpt lat="50.21111" lon="3.52265">
        <ele>69.8</ele>
        <time>2023-08-06T10:20:37Z</time>
      </trkpt>
      <trkpt lat="50.21109" lon="3.52257">
        <ele>69.4</ele>
        <time>2023-08-06T10:20:38Z</time>
      </trkpt>
      <trkpt lat="50.21107" lon="3.5225">
        <ele>69.2</ele>
        <time>2023-08-06T10:20:39Z</time>
      </trkpt>
      <trkpt lat="50.21105" lon="3.52243">
        <ele>69</ele>
        <time>2023-08-06T10:20:40Z</time>
      </trkpt>
      <trkpt lat="50.21104" lon="3.52236">
        <ele>69</ele>
        <time>2023-08-06T10:20:41Z</time>
      </trkpt>
      <trkpt lat="50.21093" lon="3.52186">
        <ele>68.6</ele>
        <time>2023-08-06T10:20:47Z</time>
      </trkpt>
      <trkpt lat="50.2109" lon="3.52168">
        <ele>68.2</ele>
        <time>2023-08-06T10:20:49Z</time>
      </trkpt>
      <trkpt lat="50.21075" lon="3.52107">
        <ele>67.6</ele>
        <time>2023-08-06T10:20:56Z</time>
      </trkpt>
      <trkpt lat="50.21065" lon="3.52076">
        <ele>67.4</ele>
        <time>2023-08-06T10:21:00Z</time>
      </trkpt>
      <trkpt lat="50.21057" lon="3.52063">
        <ele>67.4</ele>
        <time>2023-08-06T10:21:02Z</time>
      </trkpt>
      <trkpt lat="50.21047" lon="3.52054">
        <ele>67.4</ele>
        <time>2023-08-06T10:21:04Z</time>
      </trkpt>
      <trkpt lat="50.21042" lon="3.52051">
        <ele>67.4</ele>
        <time>2023-08-06T10:21:05Z</time>
      </trkpt>
      <trkpt lat="50.21037" lon="3.52048">
        <ele>67.4</ele>
        <time>2023-08-06T10:21:06Z</time>
      </trkpt>
      <trkpt lat="50.21032" lon="3.52046">
        <ele>67.4</ele>
        <time>2023-08-06T10:21:07Z</time>
      </trkpt>
      <trkpt lat="50.21027" lon="3.52044">
        <ele>67.4</ele>
        <time>2023-08-06T10:21:08Z</time>
      </trkpt>
      <trkpt lat="50.21021" lon="3.52042">
        <ele>67.4</ele>
        <time>2023-08-06T10:21:09Z</time>
      </trkpt>
      <trkpt lat="50.21" lon="3.52034">
        <ele>67.6</ele>
        <time>2023-08-06T10:21:13Z</time>
      </trkpt>
      <trkpt lat="50.20985" lon="3.52024">
        <ele>68.2</ele>
        <time>2023-08-06T10:21:16Z</time>
      </trkpt>
      <trkpt lat="50.20971" lon="3.5201">
        <ele>68.6</ele>
        <time>2023-08-06T10:21:19Z</time>
      </trkpt>
      <trkpt lat="50.20929" lon="3.51966">
        <ele>68.8</ele>
        <time>2023-08-06T10:21:28Z</time>
      </trkpt>
      <trkpt lat="50.20919" lon="3.51957">
        <ele>69</ele>
        <time>2023-08-06T10:21:30Z</time>
      </trkpt>
      <trkpt lat="50.2089" lon="3.51931">
        <ele>69.2</ele>
        <time>2023-08-06T10:21:36Z</time>
      </trkpt>
      <trkpt lat="50.2088" lon="3.51922">
        <ele>69.4</ele>
        <time>2023-08-06T10:21:38Z</time>
      </trkpt>
      <trkpt lat="50.20876" lon="3.51918">
        <ele>69.4</ele>
        <time>2023-08-06T10:21:39Z</time>
      </trkpt>
      <trkpt lat="50.20871" lon="3.51914">
        <ele>69.6</ele>
        <time>2023-08-06T10:21:40Z</time>
      </trkpt>
      <trkpt lat="50.20868" lon="3.51911">
        <ele>69.6</ele>
        <time>2023-08-06T10:21:41Z</time>
      </trkpt>
      <trkpt lat="50.20862" lon="3.51907">
        <ele>69.6</ele>
        <time>2023-08-06T10:21:42Z</time>
      </trkpt>
      <trkpt lat="50.20858" lon="3.51903">
        <ele>69.8</ele>
        <time>2023-08-06T10:21:43Z</time>
      </trkpt>
      <trkpt lat="50.20853" lon="3.51899">
        <ele>69.8</ele>
        <time>2023-08-06T10:21:44Z</time>
      </trkpt>
      <trkpt lat="50.20849" lon="3.51896">
        <ele>69.8</ele>
        <time>2023-08-06T10:21:45Z</time>
      </trkpt>
      <trkpt lat="50.20844" lon="3.51892">
        <ele>70</ele>
        <time>2023-08-06T10:21:46Z</time>
      </trkpt>
      <trkpt lat="50.2084" lon="3.51889">
        <ele>70</ele>
        <time>2023-08-06T10:21:47Z</time>
      </trkpt>
      <trkpt lat="50.20835" lon="3.51885">
        <ele>70.2</ele>
        <time>2023-08-06T10:21:48Z</time>
      </trkpt>
      <trkpt lat="50.20826" lon="3.51878">
        <ele>70.2</ele>
        <time>2023-08-06T10:21:50Z</time>
      </trkpt>
      <trkpt lat="50.20822" lon="3.51874">
        <ele>70.2</ele>
        <time>2023-08-06T10:21:51Z</time>
      </trkpt>
      <trkpt lat="50.20818" lon="3.51869">
        <ele>70.4</ele>
        <time>2023-08-06T10:21:52Z</time>
      </trkpt>
      <trkpt lat="50.20814" lon="3.51865">
        <ele>70.4</ele>
        <time>2023-08-06T10:21:53Z</time>
      </trkpt>
      <trkpt lat="50.2081" lon="3.51861">
        <ele>70.4</ele>
        <time>2023-08-06T10:21:54Z</time>
      </trkpt>
      <trkpt lat="50.20806" lon="3.51856">
        <ele>70.4</ele>
        <time>2023-08-06T10:21:55Z</time>
      </trkpt>
      <trkpt lat="50.20794" lon="3.51842">
        <ele>70.6</ele>
        <time>2023-08-06T10:21:58Z</time>
      </trkpt>
      <trkpt lat="50.20783" lon="3.5183">
        <ele>70.8</ele>
        <time>2023-08-06T10:22:01Z</time>
      </trkpt>
      <trkpt lat="50.2078" lon="3.51826">
        <ele>70.8</ele>
        <time>2023-08-06T10:22:02Z</time>
      </trkpt>
      <trkpt lat="50.20776" lon="3.51822">
        <ele>70.8</ele>
        <time>2023-08-06T10:22:03Z</time>
      </trkpt>
      <trkpt lat="50.20773" lon="3.51818">
        <ele>71</ele>
        <time>2023-08-06T10:22:04Z</time>
      </trkpt>
      <trkpt lat="50.2077" lon="3.51814">
        <ele>71.2</ele>
        <time>2023-08-06T10:22:05Z</time>
      </trkpt>
      <trkpt lat="50.20766" lon="3.5181">
        <ele>71.2</ele>
        <time>2023-08-06T10:22:06Z</time>
      </trkpt>
      <trkpt lat="50.20763" lon="3.51806">
        <ele>71.4</ele>
        <time>2023-08-06T10:22:07Z</time>
      </trkpt>
      <trkpt lat="50.2076" lon="3.51802">
        <ele>71.4</ele>
        <time>2023-08-06T10:22:08Z</time>
      </trkpt>
      <trkpt lat="50.20756" lon="3.51798">
        <ele>71.6</ele>
        <time>2023-08-06T10:22:09Z</time>
      </trkpt>
      <trkpt lat="50.20753" lon="3.51794">
        <ele>71.8</ele>
        <time>2023-08-06T10:22:10Z</time>
      </trkpt>
      <trkpt lat="50.20746" lon="3.51786">
        <ele>71.8</ele>
        <time>2023-08-06T10:22:12Z</time>
      </trkpt>
      <trkpt lat="50.20737" lon="3.51775">
        <ele>72</ele>
        <time>2023-08-06T10:22:15Z</time>
      </trkpt>
      <trkpt lat="50.20731" lon="3.51767">
        <ele>72.2</ele>
        <time>2023-08-06T10:22:17Z</time>
      </trkpt>
      <trkpt lat="50.20728" lon="3.51764">
        <ele>72.2</ele>
        <time>2023-08-06T10:22:18Z</time>
      </trkpt>
      <trkpt lat="50.20725" lon="3.5176">
        <ele>72.4</ele>
        <time>2023-08-06T10:22:19Z</time>
      </trkpt>
      <trkpt lat="50.20723" lon="3.51757">
        <ele>72.6</ele>
        <time>2023-08-06T10:22:20Z</time>
      </trkpt>
      <trkpt lat="50.2072" lon="3.51753">
        <ele>72.8</ele>
        <time>2023-08-06T10:22:21Z</time>
      </trkpt>
      <trkpt lat="50.20717" lon="3.5175">
        <ele>72.8</ele>
        <time>2023-08-06T10:22:22Z</time>
      </trkpt>
      <trkpt lat="50.20715" lon="3.51747">
        <ele>73</ele>
        <time>2023-08-06T10:22:23Z</time>
      </trkpt>
      <trkpt lat="50.20712" lon="3.51743">
        <ele>73</ele>
        <time>2023-08-06T10:22:24Z</time>
      </trkpt>
      <trkpt lat="50.2071" lon="3.5174">
        <ele>73.2</ele>
        <time>2023-08-06T10:22:25Z</time>
      </trkpt>
      <trkpt lat="50.20707" lon="3.51737">
        <ele>73.4</ele>
        <time>2023-08-06T10:22:26Z</time>
      </trkpt>
      <trkpt lat="50.20705" lon="3.51734">
        <ele>73.6</ele>
        <time>2023-08-06T10:22:27Z</time>
      </trkpt>
      <trkpt lat="50.20702" lon="3.5173">
        <ele>73.8</ele>
        <time>2023-08-06T10:22:28Z</time>
      </trkpt>
      <trkpt lat="50.207" lon="3.51727">
        <ele>74</ele>
        <time>2023-08-06T10:22:29Z</time>
      </trkpt>
      <trkpt lat="50.20697" lon="3.51724">
        <ele>74.2</ele>
        <time>2023-08-06T10:22:30Z</time>
      </trkpt>
      <trkpt lat="50.20695" lon="3.5172">
        <ele>74.2</ele>
        <time>2023-08-06T10:22:31Z</time>
      </trkpt>
      <trkpt lat="50.20693" lon="3.51717">
        <ele>74.6</ele>
        <time>2023-08-06T10:22:32Z</time>
      </trkpt>
      <trkpt lat="50.20691" lon="3.51714">
        <ele>74.8</ele>
        <time>2023-08-06T10:22:33Z</time>
      </trkpt>
      <trkpt lat="50.20688" lon="3.5171">
        <ele>75</ele>
        <time>2023-08-06T10:22:34Z</time>
      </trkpt>
      <trkpt lat="50.20686" lon="3.51707">
        <ele>75.2</ele>
        <time>2023-08-06T10:22:35Z</time>
      </trkpt>
      <trkpt lat="50.20683" lon="3.51704">
        <ele>75.4</ele>
        <time>2023-08-06T10:22:36Z</time>
      </trkpt>
      <trkpt lat="50.20681" lon="3.517">
        <ele>75.6</ele>
        <time>2023-08-06T10:22:37Z</time>
      </trkpt>
      <trkpt lat="50.20679" lon="3.51697">
        <ele>75.8</ele>
        <time>2023-08-06T10:22:38Z</time>
      </trkpt>
      <trkpt lat="50.20676" lon="3.51694">
        <ele>76</ele>
        <time>2023-08-06T10:22:39Z</time>
      </trkpt>
      <trkpt lat="50.20674" lon="3.5169">
        <ele>76.2</ele>
        <time>2023-08-06T10:22:40Z</time>
      </trkpt>
      <trkpt lat="50.20672" lon="3.51687">
        <ele>76.2</ele>
        <time>2023-08-06T10:22:41Z</time>
      </trkpt>
      <trkpt lat="50.2067" lon="3.51684">
        <ele>76.4</ele>
        <time>2023-08-06T10:22:42Z</time>
      </trkpt>
      <trkpt lat="50.20667" lon="3.51679">
        <ele>76.8</ele>
        <time>2023-08-06T10:22:43Z</time>
      </trkpt>
      <trkpt lat="50.20665" lon="3.51675">
        <ele>77.2</ele>
        <time>2023-08-06T10:22:44Z</time>
      </trkpt>
      <trkpt lat="50.20662" lon="3.51671">
        <ele>77.2</ele>
        <time>2023-08-06T10:22:45Z</time>
      </trkpt>
      <trkpt lat="50.2066" lon="3.51668">
        <ele>77.6</ele>
        <time>2023-08-06T10:22:46Z</time>
      </trkpt>
      <trkpt lat="50.20658" lon="3.51665">
        <ele>77.6</ele>
        <time>2023-08-06T10:22:47Z</time>
      </trkpt>
      <trkpt lat="50.20655" lon="3.5166">
        <ele>78</ele>
        <time>2023-08-06T10:22:48Z</time>
      </trkpt>
      <trkpt lat="50.20652" lon="3.51656">
        <ele>78</ele>
        <time>2023-08-06T10:22:49Z</time>
      </trkpt>
      <trkpt lat="50.2065" lon="3.51653">
        <ele>78.2</ele>
        <time>2023-08-06T10:22:50Z</time>
      </trkpt>
      <trkpt lat="50.20648" lon="3.5165">
        <ele>78.2</ele>
        <time>2023-08-06T10:22:51Z</time>
      </trkpt>
      <trkpt lat="50.20645" lon="3.51645">
        <ele>78.4</ele>
        <time>2023-08-06T10:22:52Z</time>
      </trkpt>
      <trkpt lat="50.20642" lon="3.51641">
        <ele>78.6</ele>
        <time>2023-08-06T10:22:53Z</time>
      </trkpt>
      <trkpt lat="50.20639" lon="3.51637">
        <ele>78.8</ele>
        <time>2023-08-06T10:22:54Z</time>
      </trkpt>
      <trkpt lat="50.20636" lon="3.51633">
        <ele>78.8</ele>
        <time>2023-08-06T10:22:55Z</time>
      </trkpt>
      <trkpt lat="50.20633" lon="3.51629">
        <ele>78.8</ele>
        <time>2023-08-06T10:22:56Z</time>
      </trkpt>
      <trkpt lat="50.2063" lon="3.51625">
        <ele>79</ele>
        <time>2023-08-06T10:22:57Z</time>
      </trkpt>
      <trkpt lat="50.20627" lon="3.51621">
        <ele>79</ele>
        <time>2023-08-06T10:22:58Z</time>
      </trkpt>
      <trkpt lat="50.20625" lon="3.51617">
        <ele>79</ele>
        <time>2023-08-06T10:22:59Z</time>
      </trkpt>
      <trkpt lat="50.20622" lon="3.51612">
        <ele>79.2</ele>
        <time>2023-08-06T10:23:00Z</time>
      </trkpt>
      <trkpt lat="50.2062" lon="3.51609">
        <ele>79.2</ele>
        <time>2023-08-06T10:23:01Z</time>
      </trkpt>
      <trkpt lat="50.20616" lon="3.51604">
        <ele>79.4</ele>
        <time>2023-08-06T10:23:02Z</time>
      </trkpt>
      <trkpt lat="50.20613" lon="3.516">
        <ele>79.4</ele>
        <time>2023-08-06T10:23:03Z</time>
      </trkpt>
      <trkpt lat="50.2061" lon="3.51596">
        <ele>79.4</ele>
        <time>2023-08-06T10:23:04Z</time>
      </trkpt>
      <trkpt lat="50.20607" lon="3.51592">
        <ele>79.6</ele>
        <time>2023-08-06T10:23:05Z</time>
      </trkpt>
      <trkpt lat="50.20604" lon="3.51588">
        <ele>79.6</ele>
        <time>2023-08-06T10:23:06Z</time>
      </trkpt>
      <trkpt lat="50.20601" lon="3.51584">
        <ele>79.8</ele>
        <time>2023-08-06T10:23:07Z</time>
      </trkpt>
      <trkpt lat="50.20598" lon="3.5158">
        <ele>79.8</ele>
        <time>2023-08-06T10:23:08Z</time>
      </trkpt>
      <trkpt lat="50.20596" lon="3.51576">
        <ele>79.8</ele>
        <time>2023-08-06T10:23:09Z</time>
      </trkpt>
      <trkpt lat="50.20593" lon="3.51572">
        <ele>79.8</ele>
        <time>2023-08-06T10:23:10Z</time>
      </trkpt>
      <trkpt lat="50.20589" lon="3.51567">
        <ele>79.8</ele>
        <time>2023-08-06T10:23:11Z</time>
      </trkpt>
      <trkpt lat="50.20587" lon="3.51564">
        <ele>79.8</ele>
        <time>2023-08-06T10:23:12Z</time>
      </trkpt>
      <trkpt lat="50.20584" lon="3.5156">
        <ele>79.8</ele>
        <time>2023-08-06T10:23:13Z</time>
      </trkpt>
      <trkpt lat="50.20581" lon="3.51556">
        <ele>79.8</ele>
        <time>2023-08-06T10:23:14Z</time>
      </trkpt>
      <trkpt lat="50.20579" lon="3.51553">
        <ele>79.8</ele>
        <time>2023-08-06T10:23:15Z</time>
      </trkpt>
      <trkpt lat="50.20549" lon="3.51513">
        <ele>80.6</ele>
        <time>2023-08-06T10:23:25Z</time>
      </trkpt>
      <trkpt lat="50.20531" lon="3.51488">
        <ele>80.6</ele>
        <time>2023-08-06T10:23:31Z</time>
      </trkpt>
      <trkpt lat="50.20515" lon="3.51468">
        <ele>80.8</ele>
        <time>2023-08-06T10:23:36Z</time>
      </trkpt>
      <trkpt lat="50.20504" lon="3.51451">
        <ele>81</ele>
        <time>2023-08-06T10:23:40Z</time>
      </trkpt>
      <trkpt lat="50.20501" lon="3.51447">
        <ele>81</ele>
        <time>2023-08-06T10:23:41Z</time>
      </trkpt>
      <trkpt lat="50.20499" lon="3.51444">
        <ele>81</ele>
        <time>2023-08-06T10:23:42Z</time>
      </trkpt>
      <trkpt lat="50.20496" lon="3.51441">
        <ele>81.2</ele>
        <time>2023-08-06T10:23:43Z</time>
      </trkpt>
      <trkpt lat="50.20493" lon="3.51437">
        <ele>81.2</ele>
        <time>2023-08-06T10:23:44Z</time>
      </trkpt>
      <trkpt lat="50.20491" lon="3.51433">
        <ele>81.4</ele>
        <time>2023-08-06T10:23:45Z</time>
      </trkpt>
      <trkpt lat="50.20482" lon="3.51422">
        <ele>81.8</ele>
        <time>2023-08-06T10:23:48Z</time>
      </trkpt>
      <trkpt lat="50.20479" lon="3.51418">
        <ele>81.8</ele>
        <time>2023-08-06T10:23:49Z</time>
      </trkpt>
      <trkpt lat="50.20476" lon="3.51414">
        <ele>81.8</ele>
        <time>2023-08-06T10:23:50Z</time>
      </trkpt>
      <trkpt lat="50.20474" lon="3.5141">
        <ele>81.8</ele>
        <time>2023-08-06T10:23:51Z</time>
      </trkpt>
      <trkpt lat="50.20471" lon="3.51407">
        <ele>82</ele>
        <time>2023-08-06T10:23:52Z</time>
      </trkpt>
      <trkpt lat="50.20469" lon="3.51403">
        <ele>82</ele>
        <time>2023-08-06T10:23:53Z</time>
      </trkpt>
      <trkpt lat="50.20458" lon="3.51388">
        <ele>82.2</ele>
        <time>2023-08-06T10:23:57Z</time>
      </trkpt>
      <trkpt lat="50.20448" lon="3.51376">
        <ele>82.6</ele>
        <time>2023-08-06T10:24:01Z</time>
      </trkpt>
      <trkpt lat="50.20446" lon="3.51373">
        <ele>82.8</ele>
        <time>2023-08-06T10:24:02Z</time>
      </trkpt>
      <trkpt lat="50.20444" lon="3.5137">
        <ele>83</ele>
        <time>2023-08-06T10:24:03Z</time>
      </trkpt>
      <trkpt lat="50.20441" lon="3.51366">
        <ele>83</ele>
        <time>2023-08-06T10:24:04Z</time>
      </trkpt>
      <trkpt lat="50.20438" lon="3.51362">
        <ele>83.2</ele>
        <time>2023-08-06T10:24:05Z</time>
      </trkpt>
      <trkpt lat="50.20437" lon="3.5136">
        <ele>83.4</ele>
        <time>2023-08-06T10:24:06Z</time>
      </trkpt>
      <trkpt lat="50.20434" lon="3.51356">
        <ele>83.4</ele>
        <time>2023-08-06T10:24:07Z</time>
      </trkpt>
      <trkpt lat="50.20419" lon="3.51336">
        <ele>83.8</ele>
        <time>2023-08-06T10:24:13Z</time>
      </trkpt>
      <trkpt lat="50.20412" lon="3.51326">
        <ele>84</ele>
        <time>2023-08-06T10:24:16Z</time>
      </trkpt>
      <trkpt lat="50.20382" lon="3.51286">
        <ele>84.8</ele>
        <time>2023-08-06T10:24:27Z</time>
      </trkpt>
      <trkpt lat="50.2038" lon="3.51283">
        <ele>85</ele>
        <time>2023-08-06T10:24:28Z</time>
      </trkpt>
      <trkpt lat="50.20361" lon="3.51258">
        <ele>85.2</ele>
        <time>2023-08-06T10:24:35Z</time>
      </trkpt>
      <trkpt lat="50.20353" lon="3.51247">
        <ele>85.6</ele>
        <time>2023-08-06T10:24:38Z</time>
      </trkpt>
      <trkpt lat="50.20342" lon="3.51233">
        <ele>86</ele>
        <time>2023-08-06T10:24:42Z</time>
      </trkpt>
      <trkpt lat="50.20331" lon="3.5122">
        <ele>86.2</ele>
        <time>2023-08-06T10:24:46Z</time>
      </trkpt>
      <trkpt lat="50.20304" lon="3.51182">
        <ele>86.8</ele>
        <time>2023-08-06T10:24:56Z</time>
      </trkpt>
      <trkpt lat="50.20298" lon="3.51176">
        <ele>86.8</ele>
        <time>2023-08-06T10:24:58Z</time>
      </trkpt>
      <trkpt lat="50.20267" lon="3.51136">
        <ele>87</ele>
        <time>2023-08-06T10:25:08Z</time>
      </trkpt>
      <trkpt lat="50.20238" lon="3.51105">
        <ele>87</ele>
        <time>2023-08-06T10:25:16Z</time>
      </trkpt>
      <trkpt lat="50.20195" lon="3.51066">
        <ele>87</ele>
        <time>2023-08-06T10:25:27Z</time>
      </trkpt>
      <trkpt lat="50.20177" lon="3.5105">
        <ele>86.8</ele>
        <time>2023-08-06T10:25:32Z</time>
      </trkpt>
      <trkpt lat="50.20174" lon="3.51047">
        <ele>86.8</ele>
        <time>2023-08-06T10:25:33Z</time>
      </trkpt>
      <trkpt lat="50.2017" lon="3.51044">
        <ele>86.8</ele>
        <time>2023-08-06T10:25:34Z</time>
      </trkpt>
      <trkpt lat="50.20167" lon="3.51041">
        <ele>86.8</ele>
        <time>2023-08-06T10:25:35Z</time>
      </trkpt>
      <trkpt lat="50.20165" lon="3.51039">
        <ele>86.8</ele>
        <time>2023-08-06T10:25:36Z</time>
      </trkpt>
      <trkpt lat="50.20162" lon="3.51036">
        <ele>86.8</ele>
        <time>2023-08-06T10:25:37Z</time>
      </trkpt>
      <trkpt lat="50.20159" lon="3.51034">
        <ele>86.8</ele>
        <time>2023-08-06T10:25:38Z</time>
      </trkpt>
      <trkpt lat="50.20157" lon="3.51032">
        <ele>86.8</ele>
        <time>2023-08-06T10:25:39Z</time>
      </trkpt>
      <trkpt lat="50.20154" lon="3.51029">
        <ele>86.8</ele>
        <time>2023-08-06T10:25:40Z</time>
      </trkpt>
      <trkpt lat="50.20152" lon="3.51027">
        <ele>86.8</ele>
        <time>2023-08-06T10:25:41Z</time>
      </trkpt>
      <trkpt lat="50.2015" lon="3.51024">
        <ele>86.8</ele>
        <time>2023-08-06T10:25:42Z</time>
      </trkpt>
      <trkpt lat="50.20148" lon="3.51022">
        <ele>86.8</ele>
        <time>2023-08-06T10:25:43Z</time>
      </trkpt>
      <trkpt lat="50.20148" lon="3.51022">
        <ele>86.8</ele>
        <time>2023-08-06T10:25:44Z</time>
      </trkpt>
      <trkpt lat="50.20143" lon="3.51019">
        <ele>86.8</ele>
        <time>2023-08-06T10:25:45Z</time>
      </trkpt>
      <trkpt lat="50.20141" lon="3.51019">
        <ele>86.8</ele>
        <time>2023-08-06T10:25:46Z</time>
      </trkpt>
      <trkpt lat="50.2014" lon="3.5102">
        <ele>86.8</ele>
        <time>2023-08-06T10:25:47Z</time>
      </trkpt>
      <trkpt lat="50.20141" lon="3.51023">
        <ele>86.8</ele>
        <time>2023-08-06T10:25:48Z</time>
      </trkpt>
      <trkpt lat="50.20143" lon="3.51025">
        <ele>86.8</ele>
        <time>2023-08-06T10:25:49Z</time>
      </trkpt>
      <trkpt lat="50.2016" lon="3.51039">
        <ele>86.6</ele>
        <time>2023-08-06T10:25:55Z</time>
      </trkpt>
      <trkpt lat="50.20166" lon="3.51044">
        <ele>86.6</ele>
        <time>2023-08-06T10:25:57Z</time>
      </trkpt>
      <trkpt lat="50.20169" lon="3.51046">
        <ele>86.6</ele>
        <time>2023-08-06T10:25:58Z</time>
      </trkpt>
      <trkpt lat="50.20172" lon="3.51046">
        <ele>86.6</ele>
        <time>2023-08-06T10:25:59Z</time>
      </trkpt>
      <trkpt lat="50.20174" lon="3.51044">
        <ele>86.6</ele>
        <time>2023-08-06T10:26:00Z</time>
      </trkpt>
      <trkpt lat="50.20174" lon="3.51042">
        <ele>86.6</ele>
        <time>2023-08-06T10:26:01Z</time>
      </trkpt>
      <trkpt lat="50.20174" lon="3.5104">
        <ele>86.4</ele>
        <time>2023-08-06T10:26:02Z</time>
      </trkpt>
      <trkpt lat="50.20174" lon="3.5104">
        <ele>86.4</ele>
        <time>2023-08-06T10:26:03Z</time>
      </trkpt>
      <trkpt lat="50.20174" lon="3.5104">
        <ele>86.2</ele>
        <time>2023-08-06T10:26:05Z</time>
      </trkpt>
      <trkpt lat="50.20169" lon="3.5104">
        <ele>86.4</ele>
        <time>2023-08-06T10:26:36Z</time>
      </trkpt>
      <trkpt lat="50.20168" lon="3.51039">
        <ele>86.4</ele>
        <time>2023-08-06T10:26:37Z</time>
      </trkpt>
      <trkpt lat="50.20166" lon="3.51037">
        <ele>86.4</ele>
        <time>2023-08-06T10:26:38Z</time>
      </trkpt>
      <trkpt lat="50.20163" lon="3.51035">
        <ele>86.4</ele>
        <time>2023-08-06T10:26:39Z</time>
      </trkpt>
      <trkpt lat="50.20148" lon="3.51023">
        <ele>86.6</ele>
        <time>2023-08-06T10:26:44Z</time>
      </trkpt>
      <trkpt lat="50.20133" lon="3.51007">
        <ele>86.8</ele>
        <time>2023-08-06T10:26:49Z</time>
      </trkpt>
      <trkpt lat="50.20126" lon="3.51001">
        <ele>86.8</ele>
        <time>2023-08-06T10:26:51Z</time>
      </trkpt>
      <trkpt lat="50.20095" lon="3.50966">
        <ele>87.4</ele>
        <time>2023-08-06T10:27:00Z</time>
      </trkpt>
      <trkpt lat="50.20068" lon="3.50931">
        <ele>87.8</ele>
        <time>2023-08-06T10:27:08Z</time>
      </trkpt>
      <trkpt lat="50.20059" lon="3.50919">
        <ele>87.8</ele>
        <time>2023-08-06T10:27:11Z</time>
      </trkpt>
      <trkpt lat="50.20038" lon="3.50885">
        <ele>87.8</ele>
        <time>2023-08-06T10:27:18Z</time>
      </trkpt>
      <trkpt lat="50.20033" lon="3.50877">
        <ele>88</ele>
        <time>2023-08-06T10:27:20Z</time>
      </trkpt>
      <trkpt lat="50.2003" lon="3.50872">
        <ele>88</ele>
        <time>2023-08-06T10:27:21Z</time>
      </trkpt>
      <trkpt lat="50.20003" lon="3.50829">
        <ele>88.2</ele>
        <time>2023-08-06T10:27:30Z</time>
      </trkpt>
      <trkpt lat="50.19997" lon="3.50818">
        <ele>88.2</ele>
        <time>2023-08-06T10:27:32Z</time>
      </trkpt>
      <trkpt lat="50.19995" lon="3.50814">
        <ele>88.2</ele>
        <time>2023-08-06T10:27:33Z</time>
      </trkpt>
      <trkpt lat="50.19992" lon="3.50809">
        <ele>88.2</ele>
        <time>2023-08-06T10:27:34Z</time>
      </trkpt>
      <trkpt lat="50.19989" lon="3.50805">
        <ele>88.2</ele>
        <time>2023-08-06T10:27:35Z</time>
      </trkpt>
      <trkpt lat="50.19981" lon="3.5079">
        <ele>88.2</ele>
        <time>2023-08-06T10:27:38Z</time>
      </trkpt>
      <trkpt lat="50.19975" lon="3.5078">
        <ele>88.4</ele>
        <time>2023-08-06T10:27:40Z</time>
      </trkpt>
      <trkpt lat="50.19948" lon="3.5073">
        <ele>88.6</ele>
        <time>2023-08-06T10:27:50Z</time>
      </trkpt>
      <trkpt lat="50.19946" lon="3.50725">
        <ele>88.6</ele>
        <time>2023-08-06T10:27:51Z</time>
      </trkpt>
      <trkpt lat="50.19942" lon="3.50719">
        <ele>88.6</ele>
        <time>2023-08-06T10:27:52Z</time>
      </trkpt>
      <trkpt lat="50.19925" lon="3.50685">
        <ele>88.4</ele>
        <time>2023-08-06T10:27:59Z</time>
      </trkpt>
      <trkpt lat="50.19919" lon="3.50676">
        <ele>88.6</ele>
        <time>2023-08-06T10:28:01Z</time>
      </trkpt>
      <trkpt lat="50.19916" lon="3.50671">
        <ele>88.6</ele>
        <time>2023-08-06T10:28:02Z</time>
      </trkpt>
      <trkpt lat="50.19914" lon="3.50667">
        <ele>88.8</ele>
        <time>2023-08-06T10:28:03Z</time>
      </trkpt>
      <trkpt lat="50.19911" lon="3.50663">
        <ele>88.8</ele>
        <time>2023-08-06T10:28:04Z</time>
      </trkpt>
      <trkpt lat="50.19908" lon="3.50659">
        <ele>88.8</ele>
        <time>2023-08-06T10:28:05Z</time>
      </trkpt>
      <trkpt lat="50.19905" lon="3.50655">
        <ele>88.8</ele>
        <time>2023-08-06T10:28:06Z</time>
      </trkpt>
      <trkpt lat="50.19902" lon="3.5065">
        <ele>88.8</ele>
        <time>2023-08-06T10:28:07Z</time>
      </trkpt>
      <trkpt lat="50.19894" lon="3.50638">
        <ele>88.6</ele>
        <time>2023-08-06T10:28:10Z</time>
      </trkpt>
      <trkpt lat="50.19867" lon="3.5061">
        <ele>88.6</ele>
        <time>2023-08-06T10:28:18Z</time>
      </trkpt>
      <trkpt lat="50.19844" lon="3.50587">
        <ele>89</ele>
        <time>2023-08-06T10:28:25Z</time>
      </trkpt>
      <trkpt lat="50.19841" lon="3.50583">
        <ele>89</ele>
        <time>2023-08-06T10:28:26Z</time>
      </trkpt>
      <trkpt lat="50.19838" lon="3.50581">
        <ele>89</ele>
        <time>2023-08-06T10:28:27Z</time>
      </trkpt>
      <trkpt lat="50.19836" lon="3.50578">
        <ele>89.2</ele>
        <time>2023-08-06T10:28:28Z</time>
      </trkpt>
      <trkpt lat="50.19832" lon="3.50575">
        <ele>89.2</ele>
        <time>2023-08-06T10:28:29Z</time>
      </trkpt>
      <trkpt lat="50.1983" lon="3.50572">
        <ele>89.2</ele>
        <time>2023-08-06T10:28:30Z</time>
      </trkpt>
      <trkpt lat="50.19827" lon="3.5057">
        <ele>89.4</ele>
        <time>2023-08-06T10:28:31Z</time>
      </trkpt>
      <trkpt lat="50.19825" lon="3.50568">
        <ele>89.4</ele>
        <time>2023-08-06T10:28:32Z</time>
      </trkpt>
      <trkpt lat="50.19822" lon="3.50565">
        <ele>89.6</ele>
        <time>2023-08-06T10:28:33Z</time>
      </trkpt>
      <trkpt lat="50.19818" lon="3.50562">
        <ele>89.6</ele>
        <time>2023-08-06T10:28:34Z</time>
      </trkpt>
      <trkpt lat="50.19816" lon="3.5056">
        <ele>89.8</ele>
        <time>2023-08-06T10:28:35Z</time>
      </trkpt>
      <trkpt lat="50.19813" lon="3.50558">
        <ele>89.8</ele>
        <time>2023-08-06T10:28:36Z</time>
      </trkpt>
      <trkpt lat="50.19811" lon="3.50555">
        <ele>90</ele>
        <time>2023-08-06T10:28:37Z</time>
      </trkpt>
      <trkpt lat="50.19808" lon="3.50552">
        <ele>90.2</ele>
        <time>2023-08-06T10:28:38Z</time>
      </trkpt>
      <trkpt lat="50.19801" lon="3.50544">
        <ele>90.6</ele>
        <time>2023-08-06T10:28:41Z</time>
      </trkpt>
      <trkpt lat="50.19799" lon="3.50542">
        <ele>90.8</ele>
        <time>2023-08-06T10:28:42Z</time>
      </trkpt>
      <trkpt lat="50.19796" lon="3.5054">
        <ele>90.8</ele>
        <time>2023-08-06T10:28:43Z</time>
      </trkpt>
      <trkpt lat="50.19793" lon="3.50539">
        <ele>91</ele>
        <time>2023-08-06T10:28:44Z</time>
      </trkpt>
      <trkpt lat="50.1979" lon="3.50539">
        <ele>91.2</ele>
        <time>2023-08-06T10:28:45Z</time>
      </trkpt>
      <trkpt lat="50.19788" lon="3.50539">
        <ele>91.4</ele>
        <time>2023-08-06T10:28:46Z</time>
      </trkpt>
      <trkpt lat="50.19786" lon="3.50541">
        <ele>91.4</ele>
        <time>2023-08-06T10:28:47Z</time>
      </trkpt>
      <trkpt lat="50.19783" lon="3.50543">
        <ele>91.6</ele>
        <time>2023-08-06T10:28:48Z</time>
      </trkpt>
      <trkpt lat="50.19782" lon="3.50546">
        <ele>91.6</ele>
        <time>2023-08-06T10:28:49Z</time>
      </trkpt>
      <trkpt lat="50.19781" lon="3.50549">
        <ele>91.8</ele>
        <time>2023-08-06T10:28:50Z</time>
      </trkpt>
      <trkpt lat="50.1978" lon="3.50552">
        <ele>91.8</ele>
        <time>2023-08-06T10:28:51Z</time>
      </trkpt>
      <trkpt lat="50.19779" lon="3.50555">
        <ele>91.8</ele>
        <time>2023-08-06T10:28:52Z</time>
      </trkpt>
      <trkpt lat="50.19777" lon="3.5056">
        <ele>91.8</ele>
        <time>2023-08-06T10:28:53Z</time>
      </trkpt>
      <trkpt lat="50.19776" lon="3.50563">
        <ele>92</ele>
        <time>2023-08-06T10:28:54Z</time>
      </trkpt>
      <trkpt lat="50.19776" lon="3.50566">
        <ele>92</ele>
        <time>2023-08-06T10:28:55Z</time>
      </trkpt>
      <trkpt lat="50.19775" lon="3.5057">
        <ele>92</ele>
        <time>2023-08-06T10:28:56Z</time>
      </trkpt>
      <trkpt lat="50.19774" lon="3.50573">
        <ele>92</ele>
        <time>2023-08-06T10:28:57Z</time>
      </trkpt>
      <trkpt lat="50.19773" lon="3.50577">
        <ele>92</ele>
        <time>2023-08-06T10:28:58Z</time>
      </trkpt>
      <trkpt lat="50.19765" lon="3.50602">
        <ele>92.2</ele>
        <time>2023-08-06T10:29:04Z</time>
      </trkpt>
      <trkpt lat="50.19764" lon="3.50606">
        <ele>92.2</ele>
        <time>2023-08-06T10:29:05Z</time>
      </trkpt>
      <trkpt lat="50.19763" lon="3.50611">
        <ele>92.2</ele>
        <time>2023-08-06T10:29:06Z</time>
      </trkpt>
      <trkpt lat="50.19754" lon="3.50637">
        <ele>92.2</ele>
        <time>2023-08-06T10:29:11Z</time>
      </trkpt>
      <trkpt lat="50.19752" lon="3.50643">
        <ele>92</ele>
        <time>2023-08-06T10:29:12Z</time>
      </trkpt>
      <trkpt lat="50.19737" lon="3.50685">
        <ele>91.8</ele>
        <time>2023-08-06T10:29:20Z</time>
      </trkpt>
      <trkpt lat="50.19735" lon="3.50688">
        <ele>91.8</ele>
        <time>2023-08-06T10:29:21Z</time>
      </trkpt>
      <trkpt lat="50.19732" lon="3.50691">
        <ele>91.8</ele>
        <time>2023-08-06T10:29:22Z</time>
      </trkpt>
      <trkpt lat="50.19728" lon="3.50693">
        <ele>91.8</ele>
        <time>2023-08-06T10:29:23Z</time>
      </trkpt>
      <trkpt lat="50.19725" lon="3.50693">
        <ele>91.8</ele>
        <time>2023-08-06T10:29:24Z</time>
      </trkpt>
      <trkpt lat="50.19721" lon="3.50693">
        <ele>91.8</ele>
        <time>2023-08-06T10:29:25Z</time>
      </trkpt>
      <trkpt lat="50.19717" lon="3.5069">
        <ele>91.8</ele>
        <time>2023-08-06T10:29:26Z</time>
      </trkpt>
      <trkpt lat="50.19714" lon="3.50687">
        <ele>91.8</ele>
        <time>2023-08-06T10:29:27Z</time>
      </trkpt>
      <trkpt lat="50.19711" lon="3.50685">
        <ele>91.8</ele>
        <time>2023-08-06T10:29:28Z</time>
      </trkpt>
      <trkpt lat="50.19708" lon="3.50681">
        <ele>91.8</ele>
        <time>2023-08-06T10:29:29Z</time>
      </trkpt>
      <trkpt lat="50.19685" lon="3.50662">
        <ele>92.4</ele>
        <time>2023-08-06T10:29:36Z</time>
      </trkpt>
      <trkpt lat="50.1967" lon="3.5065">
        <ele>93</ele>
        <time>2023-08-06T10:29:41Z</time>
      </trkpt>
      <trkpt lat="50.19654" lon="3.50636">
        <ele>93.6</ele>
        <time>2023-08-06T10:29:46Z</time>
      </trkpt>
      <trkpt lat="50.19646" lon="3.5063">
        <ele>93.8</ele>
        <time>2023-08-06T10:29:49Z</time>
      </trkpt>
      <trkpt lat="50.19643" lon="3.50628">
        <ele>93.8</ele>
        <time>2023-08-06T10:29:50Z</time>
      </trkpt>
      <trkpt lat="50.1964" lon="3.50626">
        <ele>93.8</ele>
        <time>2023-08-06T10:29:51Z</time>
      </trkpt>
      <trkpt lat="50.19638" lon="3.50624">
        <ele>93.8</ele>
        <time>2023-08-06T10:29:52Z</time>
      </trkpt>
      <trkpt lat="50.19635" lon="3.50621">
        <ele>93.8</ele>
        <time>2023-08-06T10:29:53Z</time>
      </trkpt>
      <trkpt lat="50.19632" lon="3.5062">
        <ele>93.8</ele>
        <time>2023-08-06T10:29:54Z</time>
      </trkpt>
      <trkpt lat="50.1963" lon="3.50618">
        <ele>93.8</ele>
        <time>2023-08-06T10:29:55Z</time>
      </trkpt>
      <trkpt lat="50.19627" lon="3.50615">
        <ele>93.8</ele>
        <time>2023-08-06T10:29:56Z</time>
      </trkpt>
      <trkpt lat="50.19625" lon="3.50614">
        <ele>93.8</ele>
        <time>2023-08-06T10:29:57Z</time>
      </trkpt>
      <trkpt lat="50.19623" lon="3.50613">
        <ele>93.8</ele>
        <time>2023-08-06T10:29:58Z</time>
      </trkpt>
      <trkpt lat="50.19622" lon="3.50611">
        <ele>93.8</ele>
        <time>2023-08-06T10:29:59Z</time>
      </trkpt>
      <trkpt lat="50.19621" lon="3.5061">
        <ele>93.8</ele>
        <time>2023-08-06T10:30:00Z</time>
      </trkpt>
      <trkpt lat="50.19621" lon="3.5061">
        <ele>93.8</ele>
        <time>2023-08-06T10:30:01Z</time>
      </trkpt>
      <trkpt lat="50.19621" lon="3.5061">
        <ele>93.8</ele>
        <time>2023-08-06T10:30:03Z</time>
      </trkpt>
      <trkpt lat="50.19621" lon="3.50618">
        <ele>91</ele>
        <time>2023-08-06T11:01:57Z</time>
      </trkpt>
      <trkpt lat="50.19622" lon="3.5062">
        <ele>91</ele>
        <time>2023-08-06T11:01:58Z</time>
      </trkpt>
      <trkpt lat="50.19624" lon="3.5062">
        <ele>91</ele>
        <time>2023-08-06T11:01:59Z</time>
      </trkpt>
      <trkpt lat="50.19625" lon="3.50621">
        <ele>91</ele>
        <time>2023-08-06T11:02:00Z</time>
      </trkpt>
      <trkpt lat="50.19636" lon="3.50631">
        <ele>91</ele>
        <time>2023-08-06T11:02:06Z</time>
      </trkpt>
      <trkpt lat="50.19643" lon="3.50639">
        <ele>90.8</ele>
        <time>2023-08-06T11:02:11Z</time>
      </trkpt>
      <trkpt lat="50.19645" lon="3.5064">
        <ele>90.8</ele>
        <time>2023-08-06T11:02:12Z</time>
      </trkpt>
      <trkpt lat="50.19646" lon="3.50641">
        <ele>90.8</ele>
        <time>2023-08-06T11:02:13Z</time>
      </trkpt>
      <trkpt lat="50.19647" lon="3.50642">
        <ele>90.8</ele>
        <time>2023-08-06T11:02:14Z</time>
      </trkpt>
      <trkpt lat="50.19648" lon="3.50642">
        <ele>90.6</ele>
        <time>2023-08-06T11:02:15Z</time>
      </trkpt>
      <trkpt lat="50.19648" lon="3.50642">
        <ele>90.6</ele>
        <time>2023-08-06T11:02:17Z</time>
      </trkpt>
      <trkpt lat="50.1965" lon="3.50643">
        <ele>91</ele>
        <time>2023-08-06T11:02:31Z</time>
      </trkpt>
      <trkpt lat="50.19655" lon="3.50647">
        <ele>90.2</ele>
        <time>2023-08-06T11:02:34Z</time>
      </trkpt>
      <trkpt lat="50.19662" lon="3.50651">
        <ele>89.6</ele>
        <time>2023-08-06T11:02:37Z</time>
      </trkpt>
      <trkpt lat="50.19671" lon="3.50659">
        <ele>89.2</ele>
        <time>2023-08-06T11:02:41Z</time>
      </trkpt>
      <trkpt lat="50.19685" lon="3.5067">
        <ele>89.2</ele>
        <time>2023-08-06T11:02:46Z</time>
      </trkpt>
      <trkpt lat="50.19688" lon="3.50673">
        <ele>89.2</ele>
        <time>2023-08-06T11:02:47Z</time>
      </trkpt>
      <trkpt lat="50.19717" lon="3.50694">
        <ele>89.8</ele>
        <time>2023-08-06T11:02:55Z</time>
      </trkpt>
      <trkpt lat="50.19726" lon="3.50695">
        <ele>89.6</ele>
        <time>2023-08-06T11:02:57Z</time>
      </trkpt>
      <trkpt lat="50.1973" lon="3.50694">
        <ele>89.6</ele>
        <time>2023-08-06T11:02:58Z</time>
      </trkpt>
      <trkpt lat="50.19734" lon="3.50691">
        <ele>89.6</ele>
        <time>2023-08-06T11:02:59Z</time>
      </trkpt>
      <trkpt lat="50.19737" lon="3.50687">
        <ele>89.4</ele>
        <time>2023-08-06T11:03:00Z</time>
      </trkpt>
      <trkpt lat="50.1974" lon="3.50683">
        <ele>89.4</ele>
        <time>2023-08-06T11:03:01Z</time>
      </trkpt>
      <trkpt lat="50.19743" lon="3.5068">
        <ele>89.4</ele>
        <time>2023-08-06T11:03:02Z</time>
      </trkpt>
      <trkpt lat="50.19745" lon="3.50676">
        <ele>89.4</ele>
        <time>2023-08-06T11:03:03Z</time>
      </trkpt>
      <trkpt lat="50.19747" lon="3.50672">
        <ele>89.2</ele>
        <time>2023-08-06T11:03:04Z</time>
      </trkpt>
      <trkpt lat="50.19749" lon="3.50668">
        <ele>89.2</ele>
        <time>2023-08-06T11:03:05Z</time>
      </trkpt>
      <trkpt lat="50.19751" lon="3.50659">
        <ele>89.2</ele>
        <time>2023-08-06T11:03:07Z</time>
      </trkpt>
      <trkpt lat="50.19753" lon="3.50655">
        <ele>89.2</ele>
        <time>2023-08-06T11:03:08Z</time>
      </trkpt>
      <trkpt lat="50.19754" lon="3.50651">
        <ele>89.2</ele>
        <time>2023-08-06T11:03:09Z</time>
      </trkpt>
      <trkpt lat="50.19755" lon="3.50647">
        <ele>89.2</ele>
        <time>2023-08-06T11:03:10Z</time>
      </trkpt>
      <trkpt lat="50.19757" lon="3.50643">
        <ele>89.2</ele>
        <time>2023-08-06T11:03:11Z</time>
      </trkpt>
      <trkpt lat="50.19758" lon="3.50639">
        <ele>89.2</ele>
        <time>2023-08-06T11:03:12Z</time>
      </trkpt>
      <trkpt lat="50.1976" lon="3.50635">
        <ele>89.2</ele>
        <time>2023-08-06T11:03:13Z</time>
      </trkpt>
      <trkpt lat="50.19761" lon="3.50631">
        <ele>89.2</ele>
        <time>2023-08-06T11:03:14Z</time>
      </trkpt>
      <trkpt lat="50.19763" lon="3.50627">
        <ele>89.2</ele>
        <time>2023-08-06T11:03:15Z</time>
      </trkpt>
      <trkpt lat="50.19769" lon="3.50605">
        <ele>89.2</ele>
        <time>2023-08-06T11:03:20Z</time>
      </trkpt>
      <trkpt lat="50.19782" lon="3.50565">
        <ele>89.6</ele>
        <time>2023-08-06T11:03:29Z</time>
      </trkpt>
      <trkpt lat="50.19787" lon="3.50549">
        <ele>89.6</ele>
        <time>2023-08-06T11:03:33Z</time>
      </trkpt>
      <trkpt lat="50.19788" lon="3.50545">
        <ele>89.6</ele>
        <time>2023-08-06T11:03:34Z</time>
      </trkpt>
      <trkpt lat="50.19788" lon="3.50541">
        <ele>89.4</ele>
        <time>2023-08-06T11:03:35Z</time>
      </trkpt>
      <trkpt lat="50.19788" lon="3.50536">
        <ele>89.4</ele>
        <time>2023-08-06T11:03:36Z</time>
      </trkpt>
      <trkpt lat="50.19786" lon="3.50531">
        <ele>89.4</ele>
        <time>2023-08-06T11:03:37Z</time>
      </trkpt>
      <trkpt lat="50.19779" lon="3.50523">
        <ele>89.2</ele>
        <time>2023-08-06T11:03:40Z</time>
      </trkpt>
      <trkpt lat="50.19776" lon="3.5052">
        <ele>89.2</ele>
        <time>2023-08-06T11:03:41Z</time>
      </trkpt>
      <trkpt lat="50.19761" lon="3.50504">
        <ele>89.4</ele>
        <time>2023-08-06T11:03:47Z</time>
      </trkpt>
      <trkpt lat="50.19758" lon="3.50501">
        <ele>89.4</ele>
        <time>2023-08-06T11:03:48Z</time>
      </trkpt>
      <trkpt lat="50.19753" lon="3.50497">
        <ele>89.8</ele>
        <time>2023-08-06T11:03:50Z</time>
      </trkpt>
      <trkpt lat="50.19735" lon="3.50479">
        <ele>90.6</ele>
        <time>2023-08-06T11:03:57Z</time>
      </trkpt>
      <trkpt lat="50.19733" lon="3.50476">
        <ele>90.6</ele>
        <time>2023-08-06T11:03:58Z</time>
      </trkpt>
      <trkpt lat="50.19711" lon="3.50454">
        <ele>91.6</ele>
        <time>2023-08-06T11:04:06Z</time>
      </trkpt>
      <trkpt lat="50.19699" lon="3.50442">
        <ele>91.8</ele>
        <time>2023-08-06T11:04:11Z</time>
      </trkpt>
      <trkpt lat="50.19685" lon="3.50428">
        <ele>92.6</ele>
        <time>2023-08-06T11:04:16Z</time>
      </trkpt>
      <trkpt lat="50.19673" lon="3.50417">
        <ele>93.2</ele>
        <time>2023-08-06T11:04:20Z</time>
      </trkpt>
      <trkpt lat="50.19671" lon="3.50414">
        <ele>93.2</ele>
        <time>2023-08-06T11:04:21Z</time>
      </trkpt>
      <trkpt lat="50.19668" lon="3.50411">
        <ele>93.4</ele>
        <time>2023-08-06T11:04:22Z</time>
      </trkpt>
      <trkpt lat="50.19666" lon="3.50408">
        <ele>93.4</ele>
        <time>2023-08-06T11:04:23Z</time>
      </trkpt>
      <trkpt lat="50.19662" lon="3.50404">
        <ele>93.6</ele>
        <time>2023-08-06T11:04:24Z</time>
      </trkpt>
      <trkpt lat="50.1966" lon="3.50402">
        <ele>93.8</ele>
        <time>2023-08-06T11:04:25Z</time>
      </trkpt>
      <trkpt lat="50.19657" lon="3.50399">
        <ele>93.8</ele>
        <time>2023-08-06T11:04:26Z</time>
      </trkpt>
      <trkpt lat="50.19654" lon="3.50396">
        <ele>94</ele>
        <time>2023-08-06T11:04:27Z</time>
      </trkpt>
      <trkpt lat="50.19651" lon="3.50393">
        <ele>94</ele>
        <time>2023-08-06T11:04:28Z</time>
      </trkpt>
      <trkpt lat="50.19648" lon="3.50389">
        <ele>94</ele>
        <time>2023-08-06T11:04:29Z</time>
      </trkpt>
      <trkpt lat="50.19646" lon="3.50385">
        <ele>94</ele>
        <time>2023-08-06T11:04:30Z</time>
      </trkpt>
      <trkpt lat="50.19643" lon="3.50382">
        <ele>94</ele>
        <time>2023-08-06T11:04:31Z</time>
      </trkpt>
      <trkpt lat="50.1964" lon="3.50379">
        <ele>94</ele>
        <time>2023-08-06T11:04:32Z</time>
      </trkpt>
      <trkpt lat="50.19637" lon="3.50376">
        <ele>94</ele>
        <time>2023-08-06T11:04:33Z</time>
      </trkpt>
      <trkpt lat="50.19634" lon="3.50372">
        <ele>94</ele>
        <time>2023-08-06T11:04:34Z</time>
      </trkpt>
      <trkpt lat="50.1963" lon="3.50367">
        <ele>94</ele>
        <time>2023-08-06T11:04:35Z</time>
      </trkpt>
      <trkpt lat="50.19621" lon="3.50357">
        <ele>93.8</ele>
        <time>2023-08-06T11:04:38Z</time>
      </trkpt>
      <trkpt lat="50.19581" lon="3.50304">
        <ele>93.2</ele>
        <time>2023-08-06T11:04:49Z</time>
      </trkpt>
      <trkpt lat="50.19569" lon="3.50288">
        <ele>92.6</ele>
        <time>2023-08-06T11:04:52Z</time>
      </trkpt>
      <trkpt lat="50.19544" lon="3.50252">
        <ele>91.6</ele>
        <time>2023-08-06T11:04:58Z</time>
      </trkpt>
      <trkpt lat="50.19541" lon="3.50247">
        <ele>91.4</ele>
        <time>2023-08-06T11:04:59Z</time>
      </trkpt>
      <trkpt lat="50.19511" lon="3.50203">
        <ele>90.2</ele>
        <time>2023-08-06T11:05:06Z</time>
      </trkpt>
      <trkpt lat="50.19494" lon="3.50183">
        <ele>89.6</ele>
        <time>2023-08-06T11:05:10Z</time>
      </trkpt>
      <trkpt lat="50.19484" lon="3.50176">
        <ele>89.4</ele>
        <time>2023-08-06T11:05:12Z</time>
      </trkpt>
      <trkpt lat="50.19479" lon="3.50173">
        <ele>89.2</ele>
        <time>2023-08-06T11:05:13Z</time>
      </trkpt>
      <trkpt lat="50.19457" lon="3.50165">
        <ele>88.8</ele>
        <time>2023-08-06T11:05:17Z</time>
      </trkpt>
      <trkpt lat="50.19449" lon="3.50161">
        <ele>88.6</ele>
        <time>2023-08-06T11:05:19Z</time>
      </trkpt>
      <trkpt lat="50.19445" lon="3.50155">
        <ele>88.4</ele>
        <time>2023-08-06T11:05:20Z</time>
      </trkpt>
      <trkpt lat="50.19443" lon="3.50148">
        <ele>88.2</ele>
        <time>2023-08-06T11:05:21Z</time>
      </trkpt>
      <trkpt lat="50.19442" lon="3.50141">
        <ele>88.2</ele>
        <time>2023-08-06T11:05:22Z</time>
      </trkpt>
      <trkpt lat="50.19441" lon="3.50135">
        <ele>88.2</ele>
        <time>2023-08-06T11:05:23Z</time>
      </trkpt>
      <trkpt lat="50.19439" lon="3.50127">
        <ele>88</ele>
        <time>2023-08-06T11:05:24Z</time>
      </trkpt>
      <trkpt lat="50.19432" lon="3.50083">
        <ele>87</ele>
        <time>2023-08-06T11:05:29Z</time>
      </trkpt>
      <trkpt lat="50.19432" lon="3.50075">
        <ele>86.8</ele>
        <time>2023-08-06T11:05:30Z</time>
      </trkpt>
      <trkpt lat="50.19431" lon="3.50069">
        <ele>86.8</ele>
        <time>2023-08-06T11:05:31Z</time>
      </trkpt>
      <trkpt lat="50.19431" lon="3.50064">
        <ele>86.6</ele>
        <time>2023-08-06T11:05:32Z</time>
      </trkpt>
      <trkpt lat="50.1943" lon="3.50059">
        <ele>86.2</ele>
        <time>2023-08-06T11:05:33Z</time>
      </trkpt>
      <trkpt lat="50.19429" lon="3.50053">
        <ele>86</ele>
        <time>2023-08-06T11:05:34Z</time>
      </trkpt>
      <trkpt lat="50.19426" lon="3.5005">
        <ele>85.6</ele>
        <time>2023-08-06T11:05:35Z</time>
      </trkpt>
      <trkpt lat="50.19423" lon="3.50047">
        <ele>85.4</ele>
        <time>2023-08-06T11:05:36Z</time>
      </trkpt>
      <trkpt lat="50.19419" lon="3.50045">
        <ele>85</ele>
        <time>2023-08-06T11:05:37Z</time>
      </trkpt>
      <trkpt lat="50.19416" lon="3.50044">
        <ele>84.8</ele>
        <time>2023-08-06T11:05:38Z</time>
      </trkpt>
      <trkpt lat="50.1941" lon="3.50043">
        <ele>84.6</ele>
        <time>2023-08-06T11:05:39Z</time>
      </trkpt>
      <trkpt lat="50.19395" lon="3.50036">
        <ele>83.8</ele>
        <time>2023-08-06T11:05:42Z</time>
      </trkpt>
      <trkpt lat="50.19389" lon="3.50032">
        <ele>83.4</ele>
        <time>2023-08-06T11:05:43Z</time>
      </trkpt>
      <trkpt lat="50.19374" lon="3.50019">
        <ele>82.6</ele>
        <time>2023-08-06T11:05:46Z</time>
      </trkpt>
      <trkpt lat="50.19369" lon="3.50014">
        <ele>82.4</ele>
        <time>2023-08-06T11:05:47Z</time>
      </trkpt>
      <trkpt lat="50.19363" lon="3.50008">
        <ele>82.4</ele>
        <time>2023-08-06T11:05:48Z</time>
      </trkpt>
      <trkpt lat="50.19343" lon="3.49989">
        <ele>81.2</ele>
        <time>2023-08-06T11:05:52Z</time>
      </trkpt>
      <trkpt lat="50.19321" lon="3.49968">
        <ele>80.2</ele>
        <time>2023-08-06T11:05:56Z</time>
      </trkpt>
      <trkpt lat="50.1929" lon="3.49946">
        <ele>78.8</ele>
        <time>2023-08-06T11:06:01Z</time>
      </trkpt>
      <trkpt lat="50.19275" lon="3.49937">
        <ele>78.2</ele>
        <time>2023-08-06T11:06:03Z</time>
      </trkpt>
      <trkpt lat="50.19263" lon="3.49929">
        <ele>77.6</ele>
        <time>2023-08-06T11:06:05Z</time>
      </trkpt>
      <trkpt lat="50.19231" lon="3.49909">
        <ele>76.4</ele>
        <time>2023-08-06T11:06:10Z</time>
      </trkpt>
      <trkpt lat="50.19209" lon="3.49896">
        <ele>75.4</ele>
        <time>2023-08-06T11:06:13Z</time>
      </trkpt>
      <trkpt lat="50.19203" lon="3.49892">
        <ele>75</ele>
        <time>2023-08-06T11:06:14Z</time>
      </trkpt>
      <trkpt lat="50.19177" lon="3.49879">
        <ele>73.8</ele>
        <time>2023-08-06T11:06:18Z</time>
      </trkpt>
      <trkpt lat="50.19157" lon="3.49872">
        <ele>72.4</ele>
        <time>2023-08-06T11:06:21Z</time>
      </trkpt>
      <trkpt lat="50.19137" lon="3.49867">
        <ele>71.2</ele>
        <time>2023-08-06T11:06:24Z</time>
      </trkpt>
      <trkpt lat="50.19108" lon="3.49865">
        <ele>70.4</ele>
        <time>2023-08-06T11:06:28Z</time>
      </trkpt>
      <trkpt lat="50.19103" lon="3.49865">
        <ele>70</ele>
        <time>2023-08-06T11:06:29Z</time>
      </trkpt>
      <trkpt lat="50.19072" lon="3.49866">
        <ele>68.8</ele>
        <time>2023-08-06T11:06:33Z</time>
      </trkpt>
      <trkpt lat="50.19056" lon="3.49866">
        <ele>68</ele>
        <time>2023-08-06T11:06:35Z</time>
      </trkpt>
      <trkpt lat="50.19048" lon="3.49866">
        <ele>67.8</ele>
        <time>2023-08-06T11:06:36Z</time>
      </trkpt>
      <trkpt lat="50.19033" lon="3.49864">
        <ele>67</ele>
        <time>2023-08-06T11:06:38Z</time>
      </trkpt>
      <trkpt lat="50.19025" lon="3.49865">
        <ele>66.6</ele>
        <time>2023-08-06T11:06:39Z</time>
      </trkpt>
      <trkpt lat="50.19016" lon="3.49865">
        <ele>66.2</ele>
        <time>2023-08-06T11:06:40Z</time>
      </trkpt>
      <trkpt lat="50.19001" lon="3.49866">
        <ele>65.2</ele>
        <time>2023-08-06T11:06:42Z</time>
      </trkpt>
      <trkpt lat="50.18988" lon="3.49867">
        <ele>64.8</ele>
        <time>2023-08-06T11:06:44Z</time>
      </trkpt>
      <trkpt lat="50.1898" lon="3.49867">
        <ele>64.6</ele>
        <time>2023-08-06T11:06:45Z</time>
      </trkpt>
      <trkpt lat="50.18973" lon="3.49868">
        <ele>64.2</ele>
        <time>2023-08-06T11:06:46Z</time>
      </trkpt>
      <trkpt lat="50.18967" lon="3.49868">
        <ele>63.6</ele>
        <time>2023-08-06T11:06:47Z</time>
      </trkpt>
      <trkpt lat="50.18962" lon="3.49869">
        <ele>63.4</ele>
        <time>2023-08-06T11:06:48Z</time>
      </trkpt>
      <trkpt lat="50.18956" lon="3.4987">
        <ele>62.8</ele>
        <time>2023-08-06T11:06:49Z</time>
      </trkpt>
      <trkpt lat="50.18949" lon="3.49872">
        <ele>62.6</ele>
        <time>2023-08-06T11:06:50Z</time>
      </trkpt>
      <trkpt lat="50.18943" lon="3.49874">
        <ele>62</ele>
        <time>2023-08-06T11:06:51Z</time>
      </trkpt>
      <trkpt lat="50.18937" lon="3.49876">
        <ele>61.8</ele>
        <time>2023-08-06T11:06:52Z</time>
      </trkpt>
      <trkpt lat="50.18932" lon="3.49878">
        <ele>61</ele>
        <time>2023-08-06T11:06:53Z</time>
      </trkpt>
      <trkpt lat="50.18926" lon="3.49879">
        <ele>60.8</ele>
        <time>2023-08-06T11:06:54Z</time>
      </trkpt>
      <trkpt lat="50.1892" lon="3.49878">
        <ele>60.2</ele>
        <time>2023-08-06T11:06:55Z</time>
      </trkpt>
      <trkpt lat="50.18914" lon="3.49878">
        <ele>59.6</ele>
        <time>2023-08-06T11:06:56Z</time>
      </trkpt>
      <trkpt lat="50.18908" lon="3.49877">
        <ele>59.6</ele>
        <time>2023-08-06T11:06:57Z</time>
      </trkpt>
      <trkpt lat="50.18902" lon="3.49876">
        <ele>59</ele>
        <time>2023-08-06T11:06:58Z</time>
      </trkpt>
      <trkpt lat="50.18884" lon="3.49876">
        <ele>58</ele>
        <time>2023-08-06T11:07:01Z</time>
      </trkpt>
      <trkpt lat="50.18867" lon="3.49879">
        <ele>56.6</ele>
        <time>2023-08-06T11:07:04Z</time>
      </trkpt>
      <trkpt lat="50.18863" lon="3.49881">
        <ele>55.8</ele>
        <time>2023-08-06T11:07:05Z</time>
      </trkpt>
      <trkpt lat="50.18859" lon="3.49881">
        <ele>55.6</ele>
        <time>2023-08-06T11:07:06Z</time>
      </trkpt>
      <trkpt lat="50.18855" lon="3.49881">
        <ele>55.2</ele>
        <time>2023-08-06T11:07:07Z</time>
      </trkpt>
      <trkpt lat="50.18853" lon="3.49879">
        <ele>55</ele>
        <time>2023-08-06T11:07:08Z</time>
      </trkpt>
      <trkpt lat="50.1885" lon="3.49875">
        <ele>54.6</ele>
        <time>2023-08-06T11:07:09Z</time>
      </trkpt>
      <trkpt lat="50.18848" lon="3.49872">
        <ele>54.4</ele>
        <time>2023-08-06T11:07:10Z</time>
      </trkpt>
      <trkpt lat="50.18848" lon="3.49868">
        <ele>53.8</ele>
        <time>2023-08-06T11:07:11Z</time>
      </trkpt>
      <trkpt lat="50.18847" lon="3.49865">
        <ele>53.4</ele>
        <time>2023-08-06T11:07:12Z</time>
      </trkpt>
      <trkpt lat="50.18847" lon="3.4986">
        <ele>53.2</ele>
        <time>2023-08-06T11:07:13Z</time>
      </trkpt>
      <trkpt lat="50.18846" lon="3.49857">
        <ele>53</ele>
        <time>2023-08-06T11:07:14Z</time>
      </trkpt>
      <trkpt lat="50.18845" lon="3.49854">
        <ele>52.8</ele>
        <time>2023-08-06T11:07:15Z</time>
      </trkpt>
      <trkpt lat="50.18844" lon="3.49851">
        <ele>52.8</ele>
        <time>2023-08-06T11:07:16Z</time>
      </trkpt>
      <trkpt lat="50.18844" lon="3.49844">
        <ele>52.8</ele>
        <time>2023-08-06T11:07:18Z</time>
      </trkpt>
      <trkpt lat="50.18844" lon="3.49841">
        <ele>52.8</ele>
        <time>2023-08-06T11:07:19Z</time>
      </trkpt>
      <trkpt lat="50.18844" lon="3.49838">
        <ele>52.8</ele>
        <time>2023-08-06T11:07:20Z</time>
      </trkpt>
      <trkpt lat="50.18844" lon="3.49835">
        <ele>52.8</ele>
        <time>2023-08-06T11:07:21Z</time>
      </trkpt>
      <trkpt lat="50.18844" lon="3.49831">
        <ele>52.8</ele>
        <time>2023-08-06T11:07:22Z</time>
      </trkpt>
      <trkpt lat="50.18841" lon="3.49813">
        <ele>53.4</ele>
        <time>2023-08-06T11:07:27Z</time>
      </trkpt>
      <trkpt lat="50.18838" lon="3.49802">
        <ele>53.8</ele>
        <time>2023-08-06T11:07:30Z</time>
      </trkpt>
      <trkpt lat="50.18833" lon="3.49779">
        <ele>54.6</ele>
        <time>2023-08-06T11:07:35Z</time>
      </trkpt>
      <trkpt lat="50.1883" lon="3.49758">
        <ele>54.8</ele>
        <time>2023-08-06T11:07:40Z</time>
      </trkpt>
      <trkpt lat="50.18829" lon="3.49749">
        <ele>54.8</ele>
        <time>2023-08-06T11:07:42Z</time>
      </trkpt>
      <trkpt lat="50.18825" lon="3.49731">
        <ele>55</ele>
        <time>2023-08-06T11:07:46Z</time>
      </trkpt>
      <trkpt lat="50.18818" lon="3.49698">
        <ele>55.4</ele>
        <time>2023-08-06T11:07:53Z</time>
      </trkpt>
      <trkpt lat="50.18815" lon="3.4967">
        <ele>55.6</ele>
        <time>2023-08-06T11:07:59Z</time>
      </trkpt>
      <trkpt lat="50.18813" lon="3.49661">
        <ele>55.6</ele>
        <time>2023-08-06T11:08:01Z</time>
      </trkpt>
      <trkpt lat="50.1881" lon="3.49649">
        <ele>55.8</ele>
        <time>2023-08-06T11:08:04Z</time>
      </trkpt>
      <trkpt lat="50.18809" lon="3.49647">
        <ele>55.8</ele>
        <time>2023-08-06T11:08:05Z</time>
      </trkpt>
      <trkpt lat="50.18806" lon="3.49645">
        <ele>55.8</ele>
        <time>2023-08-06T11:08:06Z</time>
      </trkpt>
      <trkpt lat="50.18803" lon="3.49644">
        <ele>55.8</ele>
        <time>2023-08-06T11:08:07Z</time>
      </trkpt>
      <trkpt lat="50.18793" lon="3.49649">
        <ele>55.8</ele>
        <time>2023-08-06T11:08:10Z</time>
      </trkpt>
      <trkpt lat="50.18789" lon="3.4965">
        <ele>55.6</ele>
        <time>2023-08-06T11:08:11Z</time>
      </trkpt>
      <trkpt lat="50.18786" lon="3.49652">
        <ele>55.6</ele>
        <time>2023-08-06T11:08:12Z</time>
      </trkpt>
      <trkpt lat="50.18772" lon="3.49657">
        <ele>54.4</ele>
        <time>2023-08-06T11:08:16Z</time>
      </trkpt>
      <trkpt lat="50.18756" lon="3.49664">
        <ele>53.4</ele>
        <time>2023-08-06T11:08:20Z</time>
      </trkpt>
      <trkpt lat="50.18752" lon="3.49666">
        <ele>53.2</ele>
        <time>2023-08-06T11:08:21Z</time>
      </trkpt>
      <trkpt lat="50.18749" lon="3.49669">
        <ele>52.8</ele>
        <time>2023-08-06T11:08:22Z</time>
      </trkpt>
      <trkpt lat="50.18745" lon="3.49671">
        <ele>52.2</ele>
        <time>2023-08-06T11:08:23Z</time>
      </trkpt>
      <trkpt lat="50.18742" lon="3.49672">
        <ele>51.6</ele>
        <time>2023-08-06T11:08:24Z</time>
      </trkpt>
      <trkpt lat="50.18737" lon="3.49675">
        <ele>51</ele>
        <time>2023-08-06T11:08:25Z</time>
      </trkpt>
      <trkpt lat="50.1873" lon="3.49678">
        <ele>50</ele>
        <time>2023-08-06T11:08:27Z</time>
      </trkpt>
      <trkpt lat="50.18723" lon="3.4968">
        <ele>49.2</ele>
        <time>2023-08-06T11:08:29Z</time>
      </trkpt>
      <trkpt lat="50.1872" lon="3.4968">
        <ele>48.8</ele>
        <time>2023-08-06T11:08:30Z</time>
      </trkpt>
      <trkpt lat="50.18717" lon="3.4968">
        <ele>48.2</ele>
        <time>2023-08-06T11:08:31Z</time>
      </trkpt>
      <trkpt lat="50.18714" lon="3.49679">
        <ele>47.8</ele>
        <time>2023-08-06T11:08:32Z</time>
      </trkpt>
      <trkpt lat="50.18712" lon="3.49677">
        <ele>47.6</ele>
        <time>2023-08-06T11:08:33Z</time>
      </trkpt>
      <trkpt lat="50.1871" lon="3.49676">
        <ele>47.2</ele>
        <time>2023-08-06T11:08:34Z</time>
      </trkpt>
      <trkpt lat="50.18708" lon="3.49674">
        <ele>47</ele>
        <time>2023-08-06T11:08:35Z</time>
      </trkpt>
      <trkpt lat="50.18706" lon="3.49672">
        <ele>46.8</ele>
        <time>2023-08-06T11:08:36Z</time>
      </trkpt>
      <trkpt lat="50.18704" lon="3.4967">
        <ele>46.6</ele>
        <time>2023-08-06T11:08:37Z</time>
      </trkpt>
      <trkpt lat="50.18699" lon="3.49666">
        <ele>46.4</ele>
        <time>2023-08-06T11:08:39Z</time>
      </trkpt>
      <trkpt lat="50.18697" lon="3.49662">
        <ele>46.2</ele>
        <time>2023-08-06T11:08:40Z</time>
      </trkpt>
      <trkpt lat="50.18697" lon="3.49658">
        <ele>46.2</ele>
        <time>2023-08-06T11:08:41Z</time>
      </trkpt>
      <trkpt lat="50.18696" lon="3.49655">
        <ele>46.2</ele>
        <time>2023-08-06T11:08:42Z</time>
      </trkpt>
      <trkpt lat="50.18696" lon="3.49651">
        <ele>46.2</ele>
        <time>2023-08-06T11:08:43Z</time>
      </trkpt>
      <trkpt lat="50.18696" lon="3.49647">
        <ele>46</ele>
        <time>2023-08-06T11:08:44Z</time>
      </trkpt>
      <trkpt lat="50.18694" lon="3.49641">
        <ele>46</ele>
        <time>2023-08-06T11:08:46Z</time>
      </trkpt>
      <trkpt lat="50.18693" lon="3.49639">
        <ele>46</ele>
        <time>2023-08-06T11:08:47Z</time>
      </trkpt>
      <trkpt lat="50.18692" lon="3.49635">
        <ele>46</ele>
        <time>2023-08-06T11:08:48Z</time>
      </trkpt>
      <trkpt lat="50.1869" lon="3.49632">
        <ele>46</ele>
        <time>2023-08-06T11:08:49Z</time>
      </trkpt>
      <trkpt lat="50.18689" lon="3.49629">
        <ele>46</ele>
        <time>2023-08-06T11:08:50Z</time>
      </trkpt>
      <trkpt lat="50.18679" lon="3.4961">
        <ele>45.6</ele>
        <time>2023-08-06T11:08:55Z</time>
      </trkpt>
      <trkpt lat="50.18671" lon="3.49583">
        <ele>45.2</ele>
        <time>2023-08-06T11:09:00Z</time>
      </trkpt>
      <trkpt lat="50.18662" lon="3.49551">
        <ele>45</ele>
        <time>2023-08-06T11:09:05Z</time>
      </trkpt>
      <trkpt lat="50.18644" lon="3.49511">
        <ele>44.6</ele>
        <time>2023-08-06T11:09:12Z</time>
      </trkpt>
      <trkpt lat="50.18633" lon="3.49489">
        <ele>44.6</ele>
        <time>2023-08-06T11:09:16Z</time>
      </trkpt>
      <trkpt lat="50.1863" lon="3.49483">
        <ele>44.4</ele>
        <time>2023-08-06T11:09:17Z</time>
      </trkpt>
      <trkpt lat="50.18623" lon="3.49472">
        <ele>44.2</ele>
        <time>2023-08-06T11:09:19Z</time>
      </trkpt>
      <trkpt lat="50.18597" lon="3.49429">
        <ele>43.6</ele>
        <time>2023-08-06T11:09:27Z</time>
      </trkpt>
      <trkpt lat="50.18594" lon="3.49423">
        <ele>43.6</ele>
        <time>2023-08-06T11:09:28Z</time>
      </trkpt>
      <trkpt lat="50.18591" lon="3.49418">
        <ele>43.6</ele>
        <time>2023-08-06T11:09:29Z</time>
      </trkpt>
      <trkpt lat="50.18583" lon="3.49409">
        <ele>43.6</ele>
        <time>2023-08-06T11:09:31Z</time>
      </trkpt>
      <trkpt lat="50.18579" lon="3.49405">
        <ele>43.6</ele>
        <time>2023-08-06T11:09:32Z</time>
      </trkpt>
      <trkpt lat="50.18575" lon="3.49401">
        <ele>43.6</ele>
        <time>2023-08-06T11:09:33Z</time>
      </trkpt>
      <trkpt lat="50.18571" lon="3.49398">
        <ele>43.6</ele>
        <time>2023-08-06T11:09:34Z</time>
      </trkpt>
      <trkpt lat="50.18553" lon="3.49388">
        <ele>43.2</ele>
        <time>2023-08-06T11:09:38Z</time>
      </trkpt>
      <trkpt lat="50.18541" lon="3.49383">
        <ele>43</ele>
        <time>2023-08-06T11:09:41Z</time>
      </trkpt>
      <trkpt lat="50.18523" lon="3.49383">
        <ele>42.8</ele>
        <time>2023-08-06T11:09:45Z</time>
      </trkpt>
      <trkpt lat="50.18519" lon="3.49383">
        <ele>42.8</ele>
        <time>2023-08-06T11:09:46Z</time>
      </trkpt>
      <trkpt lat="50.18514" lon="3.49383">
        <ele>42.8</ele>
        <time>2023-08-06T11:09:47Z</time>
      </trkpt>
      <trkpt lat="50.18512" lon="3.4938">
        <ele>42.8</ele>
        <time>2023-08-06T11:09:48Z</time>
      </trkpt>
      <trkpt lat="50.1851" lon="3.49376">
        <ele>42.8</ele>
        <time>2023-08-06T11:09:49Z</time>
      </trkpt>
      <trkpt lat="50.18511" lon="3.49353">
        <ele>42.8</ele>
        <time>2023-08-06T11:09:53Z</time>
      </trkpt>
      <trkpt lat="50.18515" lon="3.49305">
        <ele>42.6</ele>
        <time>2023-08-06T11:10:01Z</time>
      </trkpt>
      <trkpt lat="50.18518" lon="3.49274">
        <ele>42.4</ele>
        <time>2023-08-06T11:10:06Z</time>
      </trkpt>
      <trkpt lat="50.18519" lon="3.49268">
        <ele>42.4</ele>
        <time>2023-08-06T11:10:07Z</time>
      </trkpt>
      <trkpt lat="50.1852" lon="3.49261">
        <ele>42.6</ele>
        <time>2023-08-06T11:10:08Z</time>
      </trkpt>
      <trkpt lat="50.1852" lon="3.49255">
        <ele>42.6</ele>
        <time>2023-08-06T11:10:09Z</time>
      </trkpt>
      <trkpt lat="50.1852" lon="3.49235">
        <ele>42.6</ele>
        <time>2023-08-06T11:10:12Z</time>
      </trkpt>
      <trkpt lat="50.1852" lon="3.49229">
        <ele>42.6</ele>
        <time>2023-08-06T11:10:13Z</time>
      </trkpt>
      <trkpt lat="50.18519" lon="3.49224">
        <ele>42.6</ele>
        <time>2023-08-06T11:10:14Z</time>
      </trkpt>
      <trkpt lat="50.18521" lon="3.49211">
        <ele>42.6</ele>
        <time>2023-08-06T11:10:16Z</time>
      </trkpt>
      <trkpt lat="50.18524" lon="3.492">
        <ele>42.4</ele>
        <time>2023-08-06T11:10:18Z</time>
      </trkpt>
      <trkpt lat="50.18533" lon="3.49171">
        <ele>42.2</ele>
        <time>2023-08-06T11:10:23Z</time>
      </trkpt>
      <trkpt lat="50.18539" lon="3.49155">
        <ele>42.2</ele>
        <time>2023-08-06T11:10:26Z</time>
      </trkpt>
      <trkpt lat="50.18541" lon="3.49149">
        <ele>42.2</ele>
        <time>2023-08-06T11:10:27Z</time>
      </trkpt>
      <trkpt lat="50.18543" lon="3.49144">
        <ele>42.2</ele>
        <time>2023-08-06T11:10:28Z</time>
      </trkpt>
      <trkpt lat="50.18545" lon="3.49139">
        <ele>42.2</ele>
        <time>2023-08-06T11:10:29Z</time>
      </trkpt>
      <trkpt lat="50.18547" lon="3.49134">
        <ele>42.2</ele>
        <time>2023-08-06T11:10:30Z</time>
      </trkpt>
      <trkpt lat="50.1857" lon="3.49089">
        <ele>42.2</ele>
        <time>2023-08-06T11:10:39Z</time>
      </trkpt>
      <trkpt lat="50.18576" lon="3.4908">
        <ele>42.4</ele>
        <time>2023-08-06T11:10:41Z</time>
      </trkpt>
      <trkpt lat="50.18578" lon="3.49076">
        <ele>42.6</ele>
        <time>2023-08-06T11:10:42Z</time>
      </trkpt>
      <trkpt lat="50.1858" lon="3.49071">
        <ele>42.6</ele>
        <time>2023-08-06T11:10:43Z</time>
      </trkpt>
      <trkpt lat="50.18583" lon="3.49067">
        <ele>42.8</ele>
        <time>2023-08-06T11:10:44Z</time>
      </trkpt>
      <trkpt lat="50.18586" lon="3.49063">
        <ele>43</ele>
        <time>2023-08-06T11:10:45Z</time>
      </trkpt>
      <trkpt lat="50.18588" lon="3.49058">
        <ele>43.2</ele>
        <time>2023-08-06T11:10:46Z</time>
      </trkpt>
      <trkpt lat="50.18591" lon="3.49054">
        <ele>43.2</ele>
        <time>2023-08-06T11:10:47Z</time>
      </trkpt>
      <trkpt lat="50.18593" lon="3.49049">
        <ele>43.2</ele>
        <time>2023-08-06T11:10:48Z</time>
      </trkpt>
      <trkpt lat="50.18618" lon="3.49003">
        <ele>43.2</ele>
        <time>2023-08-06T11:10:58Z</time>
      </trkpt>
      <trkpt lat="50.18651" lon="3.48945">
        <ele>43.6</ele>
        <time>2023-08-06T11:11:10Z</time>
      </trkpt>
      <trkpt lat="50.18665" lon="3.48921">
        <ele>43.8</ele>
        <time>2023-08-06T11:11:15Z</time>
      </trkpt>
      <trkpt lat="50.18667" lon="3.48917">
        <ele>43.8</ele>
        <time>2023-08-06T11:11:16Z</time>
      </trkpt>
      <trkpt lat="50.18669" lon="3.48913">
        <ele>43.8</ele>
        <time>2023-08-06T11:11:17Z</time>
      </trkpt>
      <trkpt lat="50.18675" lon="3.48903">
        <ele>43.6</ele>
        <time>2023-08-06T11:11:19Z</time>
      </trkpt>
      <trkpt lat="50.18698" lon="3.4886">
        <ele>44</ele>
        <time>2023-08-06T11:11:28Z</time>
      </trkpt>
      <trkpt lat="50.18701" lon="3.48854">
        <ele>44.2</ele>
        <time>2023-08-06T11:11:29Z</time>
      </trkpt>
      <trkpt lat="50.1872" lon="3.488">
        <ele>44.6</ele>
        <time>2023-08-06T11:11:38Z</time>
      </trkpt>
      <trkpt lat="50.18726" lon="3.4878">
        <ele>45.2</ele>
        <time>2023-08-06T11:11:41Z</time>
      </trkpt>
      <trkpt lat="50.18734" lon="3.48752">
        <ele>45.4</ele>
        <time>2023-08-06T11:11:45Z</time>
      </trkpt>
      <trkpt lat="50.18746" lon="3.48712">
        <ele>45.4</ele>
        <time>2023-08-06T11:11:51Z</time>
      </trkpt>
      <trkpt lat="50.18748" lon="3.48707">
        <ele>45.4</ele>
        <time>2023-08-06T11:11:52Z</time>
      </trkpt>
      <trkpt lat="50.1875" lon="3.48701">
        <ele>45.4</ele>
        <time>2023-08-06T11:11:53Z</time>
      </trkpt>
      <trkpt lat="50.18752" lon="3.48695">
        <ele>45.4</ele>
        <time>2023-08-06T11:11:54Z</time>
      </trkpt>
      <trkpt lat="50.18753" lon="3.48691">
        <ele>45.4</ele>
        <time>2023-08-06T11:11:55Z</time>
      </trkpt>
      <trkpt lat="50.18756" lon="3.48686">
        <ele>45.4</ele>
        <time>2023-08-06T11:11:56Z</time>
      </trkpt>
      <trkpt lat="50.18758" lon="3.4868">
        <ele>45.4</ele>
        <time>2023-08-06T11:11:57Z</time>
      </trkpt>
      <trkpt lat="50.1876" lon="3.48675">
        <ele>45.4</ele>
        <time>2023-08-06T11:11:58Z</time>
      </trkpt>
      <trkpt lat="50.18762" lon="3.4867">
        <ele>45.2</ele>
        <time>2023-08-06T11:11:59Z</time>
      </trkpt>
      <trkpt lat="50.18765" lon="3.48664">
        <ele>45.2</ele>
        <time>2023-08-06T11:12:00Z</time>
      </trkpt>
      <trkpt lat="50.18767" lon="3.48658">
        <ele>45</ele>
        <time>2023-08-06T11:12:01Z</time>
      </trkpt>
      <trkpt lat="50.18776" lon="3.48642">
        <ele>44.8</ele>
        <time>2023-08-06T11:12:04Z</time>
      </trkpt>
      <trkpt lat="50.18792" lon="3.4862">
        <ele>44.6</ele>
        <time>2023-08-06T11:12:09Z</time>
      </trkpt>
      <trkpt lat="50.18802" lon="3.48606">
        <ele>44.6</ele>
        <time>2023-08-06T11:12:12Z</time>
      </trkpt>
      <trkpt lat="50.18805" lon="3.48601">
        <ele>44.6</ele>
        <time>2023-08-06T11:12:13Z</time>
      </trkpt>
      <trkpt lat="50.18809" lon="3.48596">
        <ele>44.6</ele>
        <time>2023-08-06T11:12:14Z</time>
      </trkpt>
      <trkpt lat="50.18811" lon="3.48592">
        <ele>44.6</ele>
        <time>2023-08-06T11:12:15Z</time>
      </trkpt>
      <trkpt lat="50.18822" lon="3.48578">
        <ele>44.8</ele>
        <time>2023-08-06T11:12:18Z</time>
      </trkpt>
      <trkpt lat="50.18842" lon="3.48549">
        <ele>45</ele>
        <time>2023-08-06T11:12:24Z</time>
      </trkpt>
      <trkpt lat="50.18846" lon="3.48544">
        <ele>45</ele>
        <time>2023-08-06T11:12:25Z</time>
      </trkpt>
      <trkpt lat="50.18888" lon="3.48512">
        <ele>44.2</ele>
        <time>2023-08-06T11:12:35Z</time>
      </trkpt>
      <trkpt lat="50.18891" lon="3.4851">
        <ele>44.2</ele>
        <time>2023-08-06T11:12:36Z</time>
      </trkpt>
      <trkpt lat="50.18896" lon="3.48506">
        <ele>44.2</ele>
        <time>2023-08-06T11:12:37Z</time>
      </trkpt>
      <trkpt lat="50.18898" lon="3.48504">
        <ele>44.2</ele>
        <time>2023-08-06T11:12:38Z</time>
      </trkpt>
      <trkpt lat="50.18902" lon="3.48501">
        <ele>44.2</ele>
        <time>2023-08-06T11:12:39Z</time>
      </trkpt>
      <trkpt lat="50.18905" lon="3.48498">
        <ele>44.2</ele>
        <time>2023-08-06T11:12:40Z</time>
      </trkpt>
      <trkpt lat="50.18909" lon="3.48495">
        <ele>44.2</ele>
        <time>2023-08-06T11:12:41Z</time>
      </trkpt>
      <trkpt lat="50.18936" lon="3.48475">
        <ele>44.4</ele>
        <time>2023-08-06T11:12:48Z</time>
      </trkpt>
      <trkpt lat="50.18967" lon="3.48453">
        <ele>44.6</ele>
        <time>2023-08-06T11:12:55Z</time>
      </trkpt>
      <trkpt lat="50.18997" lon="3.48428">
        <ele>43.8</ele>
        <time>2023-08-06T11:13:02Z</time>
      </trkpt>
      <trkpt lat="50.1901" lon="3.48418">
        <ele>43.4</ele>
        <time>2023-08-06T11:13:05Z</time>
      </trkpt>
      <trkpt lat="50.19029" lon="3.484">
        <ele>42.8</ele>
        <time>2023-08-06T11:13:09Z</time>
      </trkpt>
      <trkpt lat="50.19052" lon="3.4838">
        <ele>42.6</ele>
        <time>2023-08-06T11:13:14Z</time>
      </trkpt>
      <trkpt lat="50.1906" lon="3.48371">
        <ele>42.4</ele>
        <time>2023-08-06T11:13:16Z</time>
      </trkpt>
      <trkpt lat="50.19064" lon="3.48367">
        <ele>42.2</ele>
        <time>2023-08-06T11:13:17Z</time>
      </trkpt>
      <trkpt lat="50.19067" lon="3.48363">
        <ele>42</ele>
        <time>2023-08-06T11:13:18Z</time>
      </trkpt>
      <trkpt lat="50.1907" lon="3.48358">
        <ele>41.8</ele>
        <time>2023-08-06T11:13:19Z</time>
      </trkpt>
      <trkpt lat="50.19072" lon="3.48355">
        <ele>41.6</ele>
        <time>2023-08-06T11:13:20Z</time>
      </trkpt>
      <trkpt lat="50.19073" lon="3.48348">
        <ele>41.6</ele>
        <time>2023-08-06T11:13:21Z</time>
      </trkpt>
      <trkpt lat="50.19073" lon="3.48341">
        <ele>41.4</ele>
        <time>2023-08-06T11:13:22Z</time>
      </trkpt>
      <trkpt lat="50.19071" lon="3.48336">
        <ele>41.4</ele>
        <time>2023-08-06T11:13:23Z</time>
      </trkpt>
      <trkpt lat="50.19066" lon="3.48325">
        <ele>41.2</ele>
        <time>2023-08-06T11:13:25Z</time>
      </trkpt>
      <trkpt lat="50.19064" lon="3.48319">
        <ele>41</ele>
        <time>2023-08-06T11:13:26Z</time>
      </trkpt>
      <trkpt lat="50.19053" lon="3.48291">
        <ele>41</ele>
        <time>2023-08-06T11:13:31Z</time>
      </trkpt>
      <trkpt lat="50.19046" lon="3.48274">
        <ele>40.6</ele>
        <time>2023-08-06T11:13:34Z</time>
      </trkpt>
      <trkpt lat="50.19041" lon="3.48262">
        <ele>40.4</ele>
        <time>2023-08-06T11:13:36Z</time>
      </trkpt>
      <trkpt lat="50.1903" lon="3.48242">
        <ele>40</ele>
        <time>2023-08-06T11:13:40Z</time>
      </trkpt>
      <trkpt lat="50.19027" lon="3.48237">
        <ele>40</ele>
        <time>2023-08-06T11:13:41Z</time>
      </trkpt>
      <trkpt lat="50.18999" lon="3.48205">
        <ele>39.6</ele>
        <time>2023-08-06T11:13:48Z</time>
      </trkpt>
      <trkpt lat="50.18995" lon="3.482">
        <ele>39.6</ele>
        <time>2023-08-06T11:13:49Z</time>
      </trkpt>
      <trkpt lat="50.18984" lon="3.48186">
        <ele>39.6</ele>
        <time>2023-08-06T11:13:52Z</time>
      </trkpt>
      <trkpt lat="50.18976" lon="3.48177">
        <ele>39.6</ele>
        <time>2023-08-06T11:13:54Z</time>
      </trkpt>
      <trkpt lat="50.18972" lon="3.48172">
        <ele>39.6</ele>
        <time>2023-08-06T11:13:55Z</time>
      </trkpt>
      <trkpt lat="50.18965" lon="3.48163">
        <ele>39.8</ele>
        <time>2023-08-06T11:13:57Z</time>
      </trkpt>
      <trkpt lat="50.18961" lon="3.48159">
        <ele>39.8</ele>
        <time>2023-08-06T11:13:58Z</time>
      </trkpt>
      <trkpt lat="50.18957" lon="3.48154">
        <ele>39.8</ele>
        <time>2023-08-06T11:13:59Z</time>
      </trkpt>
      <trkpt lat="50.18938" lon="3.48133">
        <ele>40</ele>
        <time>2023-08-06T11:14:04Z</time>
      </trkpt>
      <trkpt lat="50.1892" lon="3.48109">
        <ele>40</ele>
        <time>2023-08-06T11:14:09Z</time>
      </trkpt>
      <trkpt lat="50.18919" lon="3.48104">
        <ele>40.2</ele>
        <time>2023-08-06T11:14:10Z</time>
      </trkpt>
      <trkpt lat="50.18917" lon="3.48098">
        <ele>40.2</ele>
        <time>2023-08-06T11:14:11Z</time>
      </trkpt>
      <trkpt lat="50.18915" lon="3.48092">
        <ele>40.2</ele>
        <time>2023-08-06T11:14:12Z</time>
      </trkpt>
      <trkpt lat="50.18913" lon="3.48086">
        <ele>40.2</ele>
        <time>2023-08-06T11:14:13Z</time>
      </trkpt>
      <trkpt lat="50.18911" lon="3.4808">
        <ele>40.2</ele>
        <time>2023-08-06T11:14:14Z</time>
      </trkpt>
      <trkpt lat="50.18909" lon="3.48075">
        <ele>40.2</ele>
        <time>2023-08-06T11:14:15Z</time>
      </trkpt>
      <trkpt lat="50.18907" lon="3.48067">
        <ele>40.2</ele>
        <time>2023-08-06T11:14:16Z</time>
      </trkpt>
      <trkpt lat="50.18905" lon="3.48062">
        <ele>40.2</ele>
        <time>2023-08-06T11:14:17Z</time>
      </trkpt>
      <trkpt lat="50.18904" lon="3.48057">
        <ele>40.2</ele>
        <time>2023-08-06T11:14:18Z</time>
      </trkpt>
      <trkpt lat="50.18902" lon="3.48051">
        <ele>40.2</ele>
        <time>2023-08-06T11:14:19Z</time>
      </trkpt>
      <trkpt lat="50.18901" lon="3.48044">
        <ele>40.2</ele>
        <time>2023-08-06T11:14:20Z</time>
      </trkpt>
      <trkpt lat="50.18899" lon="3.48038">
        <ele>40.4</ele>
        <time>2023-08-06T11:14:21Z</time>
      </trkpt>
      <trkpt lat="50.18898" lon="3.48032">
        <ele>40.4</ele>
        <time>2023-08-06T11:14:22Z</time>
      </trkpt>
      <trkpt lat="50.18896" lon="3.48027">
        <ele>40.4</ele>
        <time>2023-08-06T11:14:23Z</time>
      </trkpt>
      <trkpt lat="50.18893" lon="3.48016">
        <ele>40.6</ele>
        <time>2023-08-06T11:14:25Z</time>
      </trkpt>
      <trkpt lat="50.18892" lon="3.4801">
        <ele>40.6</ele>
        <time>2023-08-06T11:14:26Z</time>
      </trkpt>
      <trkpt lat="50.18891" lon="3.48005">
        <ele>40.6</ele>
        <time>2023-08-06T11:14:27Z</time>
      </trkpt>
      <trkpt lat="50.18888" lon="3.47994">
        <ele>40.6</ele>
        <time>2023-08-06T11:14:29Z</time>
      </trkpt>
      <trkpt lat="50.18887" lon="3.47989">
        <ele>40.8</ele>
        <time>2023-08-06T11:14:30Z</time>
      </trkpt>
      <trkpt lat="50.18885" lon="3.47984">
        <ele>40.8</ele>
        <time>2023-08-06T11:14:31Z</time>
      </trkpt>
      <trkpt lat="50.18884" lon="3.47979">
        <ele>40.8</ele>
        <time>2023-08-06T11:14:32Z</time>
      </trkpt>
      <trkpt lat="50.18883" lon="3.47974">
        <ele>41</ele>
        <time>2023-08-06T11:14:33Z</time>
      </trkpt>
      <trkpt lat="50.18881" lon="3.47969">
        <ele>41</ele>
        <time>2023-08-06T11:14:34Z</time>
      </trkpt>
      <trkpt lat="50.1888" lon="3.47964">
        <ele>41</ele>
        <time>2023-08-06T11:14:35Z</time>
      </trkpt>
      <trkpt lat="50.18873" lon="3.47945">
        <ele>41.2</ele>
        <time>2023-08-06T11:14:39Z</time>
      </trkpt>
      <trkpt lat="50.1887" lon="3.47935">
        <ele>41.4</ele>
        <time>2023-08-06T11:14:41Z</time>
      </trkpt>
      <trkpt lat="50.18852" lon="3.47894">
        <ele>41.6</ele>
        <time>2023-08-06T11:14:50Z</time>
      </trkpt>
      <trkpt lat="50.1885" lon="3.4789">
        <ele>41.6</ele>
        <time>2023-08-06T11:14:51Z</time>
      </trkpt>
      <trkpt lat="50.18849" lon="3.47885">
        <ele>41.8</ele>
        <time>2023-08-06T11:14:52Z</time>
      </trkpt>
      <trkpt lat="50.18847" lon="3.47881">
        <ele>42</ele>
        <time>2023-08-06T11:14:53Z</time>
      </trkpt>
      <trkpt lat="50.18846" lon="3.47877">
        <ele>42</ele>
        <time>2023-08-06T11:14:54Z</time>
      </trkpt>
      <trkpt lat="50.18845" lon="3.47873">
        <ele>42.4</ele>
        <time>2023-08-06T11:14:55Z</time>
      </trkpt>
      <trkpt lat="50.18843" lon="3.47869">
        <ele>42.6</ele>
        <time>2023-08-06T11:14:56Z</time>
      </trkpt>
      <trkpt lat="50.18842" lon="3.47865">
        <ele>42.8</ele>
        <time>2023-08-06T11:14:57Z</time>
      </trkpt>
      <trkpt lat="50.1884" lon="3.47862">
        <ele>43</ele>
        <time>2023-08-06T11:14:58Z</time>
      </trkpt>
      <trkpt lat="50.18839" lon="3.47858">
        <ele>43</ele>
        <time>2023-08-06T11:14:59Z</time>
      </trkpt>
      <trkpt lat="50.18838" lon="3.47854">
        <ele>43.2</ele>
        <time>2023-08-06T11:15:00Z</time>
      </trkpt>
      <trkpt lat="50.18837" lon="3.47851">
        <ele>43.2</ele>
        <time>2023-08-06T11:15:01Z</time>
      </trkpt>
      <trkpt lat="50.18835" lon="3.47847">
        <ele>43.2</ele>
        <time>2023-08-06T11:15:02Z</time>
      </trkpt>
      <trkpt lat="50.18834" lon="3.47843">
        <ele>43.4</ele>
        <time>2023-08-06T11:15:03Z</time>
      </trkpt>
      <trkpt lat="50.18833" lon="3.4784">
        <ele>43.4</ele>
        <time>2023-08-06T11:15:04Z</time>
      </trkpt>
      <trkpt lat="50.18832" lon="3.47836">
        <ele>43.6</ele>
        <time>2023-08-06T11:15:05Z</time>
      </trkpt>
      <trkpt lat="50.1883" lon="3.47833">
        <ele>44</ele>
        <time>2023-08-06T11:15:06Z</time>
      </trkpt>
      <trkpt lat="50.18827" lon="3.47825">
        <ele>44.6</ele>
        <time>2023-08-06T11:15:08Z</time>
      </trkpt>
      <trkpt lat="50.18825" lon="3.47821">
        <ele>44.6</ele>
        <time>2023-08-06T11:15:09Z</time>
      </trkpt>
      <trkpt lat="50.18824" lon="3.47818">
        <ele>44.8</ele>
        <time>2023-08-06T11:15:10Z</time>
      </trkpt>
      <trkpt lat="50.18823" lon="3.47815">
        <ele>44.8</ele>
        <time>2023-08-06T11:15:11Z</time>
      </trkpt>
      <trkpt lat="50.18822" lon="3.47811">
        <ele>45</ele>
        <time>2023-08-06T11:15:12Z</time>
      </trkpt>
      <trkpt lat="50.18821" lon="3.47807">
        <ele>45</ele>
        <time>2023-08-06T11:15:13Z</time>
      </trkpt>
      <trkpt lat="50.1882" lon="3.47804">
        <ele>45.2</ele>
        <time>2023-08-06T11:15:14Z</time>
      </trkpt>
      <trkpt lat="50.18819" lon="3.478">
        <ele>45.4</ele>
        <time>2023-08-06T11:15:15Z</time>
      </trkpt>
      <trkpt lat="50.18817" lon="3.47797">
        <ele>45.4</ele>
        <time>2023-08-06T11:15:16Z</time>
      </trkpt>
      <trkpt lat="50.18816" lon="3.47794">
        <ele>45.6</ele>
        <time>2023-08-06T11:15:17Z</time>
      </trkpt>
      <trkpt lat="50.18815" lon="3.47791">
        <ele>45.6</ele>
        <time>2023-08-06T11:15:18Z</time>
      </trkpt>
      <trkpt lat="50.18814" lon="3.47788">
        <ele>45.8</ele>
        <time>2023-08-06T11:15:19Z</time>
      </trkpt>
      <trkpt lat="50.18813" lon="3.47785">
        <ele>45.8</ele>
        <time>2023-08-06T11:15:20Z</time>
      </trkpt>
      <trkpt lat="50.18812" lon="3.47782">
        <ele>46</ele>
        <time>2023-08-06T11:15:21Z</time>
      </trkpt>
      <trkpt lat="50.1881" lon="3.47778">
        <ele>46</ele>
        <time>2023-08-06T11:15:22Z</time>
      </trkpt>
      <trkpt lat="50.18809" lon="3.47775">
        <ele>46.2</ele>
        <time>2023-08-06T11:15:23Z</time>
      </trkpt>
      <trkpt lat="50.18808" lon="3.47772">
        <ele>46.4</ele>
        <time>2023-08-06T11:15:24Z</time>
      </trkpt>
      <trkpt lat="50.18807" lon="3.47769">
        <ele>46.6</ele>
        <time>2023-08-06T11:15:25Z</time>
      </trkpt>
      <trkpt lat="50.18806" lon="3.47766">
        <ele>46.8</ele>
        <time>2023-08-06T11:15:26Z</time>
      </trkpt>
      <trkpt lat="50.18805" lon="3.47762">
        <ele>46.8</ele>
        <time>2023-08-06T11:15:27Z</time>
      </trkpt>
      <trkpt lat="50.18804" lon="3.47759">
        <ele>47.2</ele>
        <time>2023-08-06T11:15:28Z</time>
      </trkpt>
      <trkpt lat="50.18803" lon="3.47756">
        <ele>47.4</ele>
        <time>2023-08-06T11:15:29Z</time>
      </trkpt>
      <trkpt lat="50.18801" lon="3.47753">
        <ele>47.6</ele>
        <time>2023-08-06T11:15:30Z</time>
      </trkpt>
      <trkpt lat="50.188" lon="3.4775">
        <ele>47.6</ele>
        <time>2023-08-06T11:15:31Z</time>
      </trkpt>
      <trkpt lat="50.18799" lon="3.47747">
        <ele>47.8</ele>
        <time>2023-08-06T11:15:32Z</time>
      </trkpt>
      <trkpt lat="50.18798" lon="3.47744">
        <ele>47.8</ele>
        <time>2023-08-06T11:15:33Z</time>
      </trkpt>
      <trkpt lat="50.18797" lon="3.47741">
        <ele>47.8</ele>
        <time>2023-08-06T11:15:34Z</time>
      </trkpt>
      <trkpt lat="50.18796" lon="3.47737">
        <ele>48</ele>
        <time>2023-08-06T11:15:35Z</time>
      </trkpt>
      <trkpt lat="50.18795" lon="3.47735">
        <ele>48.2</ele>
        <time>2023-08-06T11:15:36Z</time>
      </trkpt>
      <trkpt lat="50.18793" lon="3.47732">
        <ele>48.2</ele>
        <time>2023-08-06T11:15:37Z</time>
      </trkpt>
      <trkpt lat="50.18792" lon="3.47729">
        <ele>48.2</ele>
        <time>2023-08-06T11:15:38Z</time>
      </trkpt>
      <trkpt lat="50.18791" lon="3.47726">
        <ele>48.2</ele>
        <time>2023-08-06T11:15:39Z</time>
      </trkpt>
      <trkpt lat="50.1879" lon="3.47722">
        <ele>48.4</ele>
        <time>2023-08-06T11:15:40Z</time>
      </trkpt>
      <trkpt lat="50.18789" lon="3.4772">
        <ele>48.6</ele>
        <time>2023-08-06T11:15:41Z</time>
      </trkpt>
      <trkpt lat="50.18788" lon="3.47717">
        <ele>48.8</ele>
        <time>2023-08-06T11:15:42Z</time>
      </trkpt>
      <trkpt lat="50.18787" lon="3.47714">
        <ele>48.8</ele>
        <time>2023-08-06T11:15:43Z</time>
      </trkpt>
      <trkpt lat="50.18786" lon="3.47712">
        <ele>49</ele>
        <time>2023-08-06T11:15:44Z</time>
      </trkpt>
      <trkpt lat="50.18785" lon="3.47709">
        <ele>49</ele>
        <time>2023-08-06T11:15:45Z</time>
      </trkpt>
      <trkpt lat="50.18783" lon="3.47707">
        <ele>49.2</ele>
        <time>2023-08-06T11:15:46Z</time>
      </trkpt>
      <trkpt lat="50.18782" lon="3.47705">
        <ele>49.2</ele>
        <time>2023-08-06T11:15:47Z</time>
      </trkpt>
      <trkpt lat="50.1878" lon="3.47703">
        <ele>49.6</ele>
        <time>2023-08-06T11:15:48Z</time>
      </trkpt>
      <trkpt lat="50.18779" lon="3.47701">
        <ele>49.6</ele>
        <time>2023-08-06T11:15:49Z</time>
      </trkpt>
      <trkpt lat="50.18777" lon="3.47698">
        <ele>50</ele>
        <time>2023-08-06T11:15:50Z</time>
      </trkpt>
      <trkpt lat="50.18776" lon="3.47696">
        <ele>50.2</ele>
        <time>2023-08-06T11:15:51Z</time>
      </trkpt>
      <trkpt lat="50.18775" lon="3.47694">
        <ele>50.4</ele>
        <time>2023-08-06T11:15:52Z</time>
      </trkpt>
      <trkpt lat="50.18773" lon="3.47692">
        <ele>50.6</ele>
        <time>2023-08-06T11:15:53Z</time>
      </trkpt>
      <trkpt lat="50.18772" lon="3.4769">
        <ele>50.6</ele>
        <time>2023-08-06T11:15:54Z</time>
      </trkpt>
      <trkpt lat="50.1877" lon="3.47687">
        <ele>50.8</ele>
        <time>2023-08-06T11:15:55Z</time>
      </trkpt>
      <trkpt lat="50.18769" lon="3.47685">
        <ele>50.8</ele>
        <time>2023-08-06T11:15:56Z</time>
      </trkpt>
      <trkpt lat="50.18767" lon="3.47683">
        <ele>51</ele>
        <time>2023-08-06T11:15:57Z</time>
      </trkpt>
      <trkpt lat="50.18766" lon="3.47681">
        <ele>51</ele>
        <time>2023-08-06T11:15:58Z</time>
      </trkpt>
      <trkpt lat="50.18764" lon="3.47679">
        <ele>51.2</ele>
        <time>2023-08-06T11:15:59Z</time>
      </trkpt>
      <trkpt lat="50.18762" lon="3.47677">
        <ele>51.2</ele>
        <time>2023-08-06T11:16:00Z</time>
      </trkpt>
      <trkpt lat="50.18761" lon="3.47675">
        <ele>51.4</ele>
        <time>2023-08-06T11:16:01Z</time>
      </trkpt>
      <trkpt lat="50.18759" lon="3.47673">
        <ele>51.6</ele>
        <time>2023-08-06T11:16:02Z</time>
      </trkpt>
      <trkpt lat="50.18757" lon="3.4767">
        <ele>51.8</ele>
        <time>2023-08-06T11:16:03Z</time>
      </trkpt>
      <trkpt lat="50.18756" lon="3.47668">
        <ele>52</ele>
        <time>2023-08-06T11:16:04Z</time>
      </trkpt>
      <trkpt lat="50.18754" lon="3.47666">
        <ele>52.2</ele>
        <time>2023-08-06T11:16:05Z</time>
      </trkpt>
      <trkpt lat="50.18752" lon="3.47664">
        <ele>52.2</ele>
        <time>2023-08-06T11:16:06Z</time>
      </trkpt>
      <trkpt lat="50.1875" lon="3.47662">
        <ele>52.4</ele>
        <time>2023-08-06T11:16:07Z</time>
      </trkpt>
      <trkpt lat="50.18748" lon="3.4766">
        <ele>52.4</ele>
        <time>2023-08-06T11:16:08Z</time>
      </trkpt>
      <trkpt lat="50.18747" lon="3.47658">
        <ele>52.4</ele>
        <time>2023-08-06T11:16:09Z</time>
      </trkpt>
      <trkpt lat="50.18746" lon="3.47656">
        <ele>52.4</ele>
        <time>2023-08-06T11:16:10Z</time>
      </trkpt>
      <trkpt lat="50.18744" lon="3.47653">
        <ele>52.8</ele>
        <time>2023-08-06T11:16:11Z</time>
      </trkpt>
      <trkpt lat="50.18742" lon="3.47651">
        <ele>53</ele>
        <time>2023-08-06T11:16:12Z</time>
      </trkpt>
      <trkpt lat="50.1874" lon="3.47649">
        <ele>53.2</ele>
        <time>2023-08-06T11:16:13Z</time>
      </trkpt>
      <trkpt lat="50.18739" lon="3.47647">
        <ele>53.4</ele>
        <time>2023-08-06T11:16:14Z</time>
      </trkpt>
      <trkpt lat="50.18737" lon="3.47646">
        <ele>53.4</ele>
        <time>2023-08-06T11:16:15Z</time>
      </trkpt>
      <trkpt lat="50.18735" lon="3.47643">
        <ele>53.4</ele>
        <time>2023-08-06T11:16:16Z</time>
      </trkpt>
      <trkpt lat="50.18733" lon="3.47641">
        <ele>53.4</ele>
        <time>2023-08-06T11:16:17Z</time>
      </trkpt>
      <trkpt lat="50.18731" lon="3.47639">
        <ele>53.4</ele>
        <time>2023-08-06T11:16:18Z</time>
      </trkpt>
      <trkpt lat="50.1873" lon="3.47637">
        <ele>53.6</ele>
        <time>2023-08-06T11:16:19Z</time>
      </trkpt>
      <trkpt lat="50.18729" lon="3.47635">
        <ele>53.8</ele>
        <time>2023-08-06T11:16:20Z</time>
      </trkpt>
      <trkpt lat="50.18727" lon="3.47632">
        <ele>53.6</ele>
        <time>2023-08-06T11:16:21Z</time>
      </trkpt>
      <trkpt lat="50.18726" lon="3.4763">
        <ele>53.8</ele>
        <time>2023-08-06T11:16:22Z</time>
      </trkpt>
      <trkpt lat="50.18724" lon="3.47628">
        <ele>53.8</ele>
        <time>2023-08-06T11:16:23Z</time>
      </trkpt>
      <trkpt lat="50.18722" lon="3.47627">
        <ele>53.8</ele>
        <time>2023-08-06T11:16:24Z</time>
      </trkpt>
      <trkpt lat="50.1872" lon="3.47625">
        <ele>54</ele>
        <time>2023-08-06T11:16:25Z</time>
      </trkpt>
      <trkpt lat="50.18718" lon="3.47623">
        <ele>54</ele>
        <time>2023-08-06T11:16:26Z</time>
      </trkpt>
      <trkpt lat="50.18717" lon="3.4762">
        <ele>54.2</ele>
        <time>2023-08-06T11:16:27Z</time>
      </trkpt>
      <trkpt lat="50.18716" lon="3.47618">
        <ele>54.2</ele>
        <time>2023-08-06T11:16:28Z</time>
      </trkpt>
      <trkpt lat="50.18714" lon="3.47616">
        <ele>54.6</ele>
        <time>2023-08-06T11:16:29Z</time>
      </trkpt>
      <trkpt lat="50.18712" lon="3.47614">
        <ele>54.8</ele>
        <time>2023-08-06T11:16:30Z</time>
      </trkpt>
      <trkpt lat="50.18711" lon="3.47612">
        <ele>54.8</ele>
        <time>2023-08-06T11:16:31Z</time>
      </trkpt>
      <trkpt lat="50.18709" lon="3.4761">
        <ele>55</ele>
        <time>2023-08-06T11:16:32Z</time>
      </trkpt>
      <trkpt lat="50.18708" lon="3.47608">
        <ele>55</ele>
        <time>2023-08-06T11:16:33Z</time>
      </trkpt>
      <trkpt lat="50.18706" lon="3.47605">
        <ele>55</ele>
        <time>2023-08-06T11:16:34Z</time>
      </trkpt>
      <trkpt lat="50.18704" lon="3.47603">
        <ele>55</ele>
        <time>2023-08-06T11:16:35Z</time>
      </trkpt>
      <trkpt lat="50.18703" lon="3.47601">
        <ele>55.2</ele>
        <time>2023-08-06T11:16:36Z</time>
      </trkpt>
      <trkpt lat="50.18701" lon="3.47598">
        <ele>55.2</ele>
        <time>2023-08-06T11:16:37Z</time>
      </trkpt>
      <trkpt lat="50.187" lon="3.47596">
        <ele>55.4</ele>
        <time>2023-08-06T11:16:38Z</time>
      </trkpt>
      <trkpt lat="50.18699" lon="3.47594">
        <ele>55.4</ele>
        <time>2023-08-06T11:16:39Z</time>
      </trkpt>
      <trkpt lat="50.18697" lon="3.47592">
        <ele>55.4</ele>
        <time>2023-08-06T11:16:40Z</time>
      </trkpt>
      <trkpt lat="50.18695" lon="3.4759">
        <ele>55.6</ele>
        <time>2023-08-06T11:16:41Z</time>
      </trkpt>
      <trkpt lat="50.18693" lon="3.47588">
        <ele>55.6</ele>
        <time>2023-08-06T11:16:42Z</time>
      </trkpt>
      <trkpt lat="50.18692" lon="3.47586">
        <ele>55.8</ele>
        <time>2023-08-06T11:16:43Z</time>
      </trkpt>
      <trkpt lat="50.1869" lon="3.47583">
        <ele>55.8</ele>
        <time>2023-08-06T11:16:44Z</time>
      </trkpt>
      <trkpt lat="50.18689" lon="3.47581">
        <ele>56</ele>
        <time>2023-08-06T11:16:45Z</time>
      </trkpt>
      <trkpt lat="50.18679" lon="3.47567">
        <ele>56.8</ele>
        <time>2023-08-06T11:16:51Z</time>
      </trkpt>
      <trkpt lat="50.18678" lon="3.47564">
        <ele>57</ele>
        <time>2023-08-06T11:16:52Z</time>
      </trkpt>
      <trkpt lat="50.18677" lon="3.47561">
        <ele>57.2</ele>
        <time>2023-08-06T11:16:53Z</time>
      </trkpt>
      <trkpt lat="50.18675" lon="3.47558">
        <ele>57.4</ele>
        <time>2023-08-06T11:16:54Z</time>
      </trkpt>
      <trkpt lat="50.18675" lon="3.47555">
        <ele>57.6</ele>
        <time>2023-08-06T11:16:55Z</time>
      </trkpt>
      <trkpt lat="50.18674" lon="3.47552">
        <ele>57.6</ele>
        <time>2023-08-06T11:16:56Z</time>
      </trkpt>
      <trkpt lat="50.18673" lon="3.47549">
        <ele>57.8</ele>
        <time>2023-08-06T11:16:57Z</time>
      </trkpt>
      <trkpt lat="50.18672" lon="3.47546">
        <ele>57.8</ele>
        <time>2023-08-06T11:16:58Z</time>
      </trkpt>
      <trkpt lat="50.18671" lon="3.47543">
        <ele>58</ele>
        <time>2023-08-06T11:16:59Z</time>
      </trkpt>
      <trkpt lat="50.1867" lon="3.4754">
        <ele>58</ele>
        <time>2023-08-06T11:17:00Z</time>
      </trkpt>
      <trkpt lat="50.18669" lon="3.47537">
        <ele>58.2</ele>
        <time>2023-08-06T11:17:01Z</time>
      </trkpt>
      <trkpt lat="50.18669" lon="3.47535">
        <ele>58.4</ele>
        <time>2023-08-06T11:17:02Z</time>
      </trkpt>
      <trkpt lat="50.18668" lon="3.47532">
        <ele>58.4</ele>
        <time>2023-08-06T11:17:03Z</time>
      </trkpt>
      <trkpt lat="50.18667" lon="3.4753">
        <ele>58.4</ele>
        <time>2023-08-06T11:17:04Z</time>
      </trkpt>
      <trkpt lat="50.18665" lon="3.47528">
        <ele>58.6</ele>
        <time>2023-08-06T11:17:05Z</time>
      </trkpt>
      <trkpt lat="50.18664" lon="3.47527">
        <ele>58.6</ele>
        <time>2023-08-06T11:17:06Z</time>
      </trkpt>
      <trkpt lat="50.18662" lon="3.47526">
        <ele>58.6</ele>
        <time>2023-08-06T11:17:07Z</time>
      </trkpt>
      <trkpt lat="50.1866" lon="3.47524">
        <ele>58.6</ele>
        <time>2023-08-06T11:17:08Z</time>
      </trkpt>
      <trkpt lat="50.18659" lon="3.47522">
        <ele>58.6</ele>
        <time>2023-08-06T11:17:09Z</time>
      </trkpt>
      <trkpt lat="50.18657" lon="3.4752">
        <ele>58.6</ele>
        <time>2023-08-06T11:17:10Z</time>
      </trkpt>
      <trkpt lat="50.18655" lon="3.47517">
        <ele>58.8</ele>
        <time>2023-08-06T11:17:11Z</time>
      </trkpt>
      <trkpt lat="50.18653" lon="3.47515">
        <ele>58.8</ele>
        <time>2023-08-06T11:17:12Z</time>
      </trkpt>
      <trkpt lat="50.18651" lon="3.47512">
        <ele>59</ele>
        <time>2023-08-06T11:17:13Z</time>
      </trkpt>
      <trkpt lat="50.1865" lon="3.47509">
        <ele>59.2</ele>
        <time>2023-08-06T11:17:14Z</time>
      </trkpt>
      <trkpt lat="50.18648" lon="3.47506">
        <ele>59.4</ele>
        <time>2023-08-06T11:17:15Z</time>
      </trkpt>
      <trkpt lat="50.18638" lon="3.47489">
        <ele>60</ele>
        <time>2023-08-06T11:17:22Z</time>
      </trkpt>
      <trkpt lat="50.18637" lon="3.47486">
        <ele>60</ele>
        <time>2023-08-06T11:17:23Z</time>
      </trkpt>
      <trkpt lat="50.18636" lon="3.47484">
        <ele>60.2</ele>
        <time>2023-08-06T11:17:24Z</time>
      </trkpt>
      <trkpt lat="50.18635" lon="3.47481">
        <ele>60.2</ele>
        <time>2023-08-06T11:17:25Z</time>
      </trkpt>
      <trkpt lat="50.18634" lon="3.47479">
        <ele>60.2</ele>
        <time>2023-08-06T11:17:26Z</time>
      </trkpt>
      <trkpt lat="50.18633" lon="3.47477">
        <ele>60.4</ele>
        <time>2023-08-06T11:17:27Z</time>
      </trkpt>
      <trkpt lat="50.18632" lon="3.47475">
        <ele>60.4</ele>
        <time>2023-08-06T11:17:28Z</time>
      </trkpt>
      <trkpt lat="50.18631" lon="3.47473">
        <ele>60.4</ele>
        <time>2023-08-06T11:17:29Z</time>
      </trkpt>
      <trkpt lat="50.1863" lon="3.4747">
        <ele>60.4</ele>
        <time>2023-08-06T11:17:30Z</time>
      </trkpt>
      <trkpt lat="50.18625" lon="3.47458">
        <ele>61</ele>
        <time>2023-08-06T11:17:35Z</time>
      </trkpt>
      <trkpt lat="50.1862" lon="3.47449">
        <ele>61.8</ele>
        <time>2023-08-06T11:17:39Z</time>
      </trkpt>
      <trkpt lat="50.18618" lon="3.47447">
        <ele>62</ele>
        <time>2023-08-06T11:17:40Z</time>
      </trkpt>
      <trkpt lat="50.18617" lon="3.47444">
        <ele>62</ele>
        <time>2023-08-06T11:17:41Z</time>
      </trkpt>
      <trkpt lat="50.18616" lon="3.47442">
        <ele>62.2</ele>
        <time>2023-08-06T11:17:42Z</time>
      </trkpt>
      <trkpt lat="50.18615" lon="3.47441">
        <ele>62.4</ele>
        <time>2023-08-06T11:17:43Z</time>
      </trkpt>
      <trkpt lat="50.18614" lon="3.47439">
        <ele>62.4</ele>
        <time>2023-08-06T11:17:44Z</time>
      </trkpt>
      <trkpt lat="50.18613" lon="3.47437">
        <ele>62.6</ele>
        <time>2023-08-06T11:17:45Z</time>
      </trkpt>
      <trkpt lat="50.18612" lon="3.47435">
        <ele>62.6</ele>
        <time>2023-08-06T11:17:46Z</time>
      </trkpt>
      <trkpt lat="50.18611" lon="3.47433">
        <ele>62.8</ele>
        <time>2023-08-06T11:17:47Z</time>
      </trkpt>
      <trkpt lat="50.1861" lon="3.47431">
        <ele>62.8</ele>
        <time>2023-08-06T11:17:48Z</time>
      </trkpt>
      <trkpt lat="50.18609" lon="3.47429">
        <ele>63.2</ele>
        <time>2023-08-06T11:17:49Z</time>
      </trkpt>
      <trkpt lat="50.18607" lon="3.47426">
        <ele>63.4</ele>
        <time>2023-08-06T11:17:50Z</time>
      </trkpt>
      <trkpt lat="50.18606" lon="3.47424">
        <ele>63.4</ele>
        <time>2023-08-06T11:17:51Z</time>
      </trkpt>
      <trkpt lat="50.18604" lon="3.47422">
        <ele>63.6</ele>
        <time>2023-08-06T11:17:52Z</time>
      </trkpt>
      <trkpt lat="50.18603" lon="3.4742">
        <ele>63.6</ele>
        <time>2023-08-06T11:17:53Z</time>
      </trkpt>
      <trkpt lat="50.18602" lon="3.47418">
        <ele>63.8</ele>
        <time>2023-08-06T11:17:54Z</time>
      </trkpt>
      <trkpt lat="50.186" lon="3.47416">
        <ele>63.8</ele>
        <time>2023-08-06T11:17:55Z</time>
      </trkpt>
      <trkpt lat="50.18599" lon="3.47414">
        <ele>63.8</ele>
        <time>2023-08-06T11:17:56Z</time>
      </trkpt>
      <trkpt lat="50.18598" lon="3.47412">
        <ele>63.8</ele>
        <time>2023-08-06T11:17:57Z</time>
      </trkpt>
      <trkpt lat="50.18597" lon="3.4741">
        <ele>63.8</ele>
        <time>2023-08-06T11:17:58Z</time>
      </trkpt>
      <trkpt lat="50.18595" lon="3.47408">
        <ele>64</ele>
        <time>2023-08-06T11:17:59Z</time>
      </trkpt>
      <trkpt lat="50.18594" lon="3.47406">
        <ele>64.2</ele>
        <time>2023-08-06T11:18:00Z</time>
      </trkpt>
      <trkpt lat="50.18592" lon="3.47404">
        <ele>64.6</ele>
        <time>2023-08-06T11:18:01Z</time>
      </trkpt>
      <trkpt lat="50.18591" lon="3.47402">
        <ele>64.6</ele>
        <time>2023-08-06T11:18:02Z</time>
      </trkpt>
      <trkpt lat="50.1859" lon="3.474">
        <ele>64.8</ele>
        <time>2023-08-06T11:18:03Z</time>
      </trkpt>
      <trkpt lat="50.18589" lon="3.47398">
        <ele>64.8</ele>
        <time>2023-08-06T11:18:04Z</time>
      </trkpt>
      <trkpt lat="50.18588" lon="3.47396">
        <ele>65</ele>
        <time>2023-08-06T11:18:05Z</time>
      </trkpt>
      <trkpt lat="50.18586" lon="3.47394">
        <ele>65</ele>
        <time>2023-08-06T11:18:06Z</time>
      </trkpt>
      <trkpt lat="50.18585" lon="3.47392">
        <ele>65</ele>
        <time>2023-08-06T11:18:07Z</time>
      </trkpt>
      <trkpt lat="50.18584" lon="3.4739">
        <ele>65</ele>
        <time>2023-08-06T11:18:08Z</time>
      </trkpt>
      <trkpt lat="50.18582" lon="3.47389">
        <ele>65</ele>
        <time>2023-08-06T11:18:09Z</time>
      </trkpt>
      <trkpt lat="50.18581" lon="3.47386">
        <ele>65.2</ele>
        <time>2023-08-06T11:18:10Z</time>
      </trkpt>
      <trkpt lat="50.1858" lon="3.47385">
        <ele>65.2</ele>
        <time>2023-08-06T11:18:11Z</time>
      </trkpt>
      <trkpt lat="50.18579" lon="3.47383">
        <ele>65.2</ele>
        <time>2023-08-06T11:18:12Z</time>
      </trkpt>
      <trkpt lat="50.18577" lon="3.47381">
        <ele>65.2</ele>
        <time>2023-08-06T11:18:13Z</time>
      </trkpt>
      <trkpt lat="50.18576" lon="3.47379">
        <ele>65.4</ele>
        <time>2023-08-06T11:18:14Z</time>
      </trkpt>
      <trkpt lat="50.18574" lon="3.47377">
        <ele>65.6</ele>
        <time>2023-08-06T11:18:15Z</time>
      </trkpt>
      <trkpt lat="50.18573" lon="3.47374">
        <ele>65.8</ele>
        <time>2023-08-06T11:18:16Z</time>
      </trkpt>
      <trkpt lat="50.18571" lon="3.47372">
        <ele>66</ele>
        <time>2023-08-06T11:18:17Z</time>
      </trkpt>
      <trkpt lat="50.18569" lon="3.47369">
        <ele>66.4</ele>
        <time>2023-08-06T11:18:19Z</time>
      </trkpt>
      <trkpt lat="50.18566" lon="3.47365">
        <ele>66.6</ele>
        <time>2023-08-06T11:18:21Z</time>
      </trkpt>
      <trkpt lat="50.18565" lon="3.47363">
        <ele>66.6</ele>
        <time>2023-08-06T11:18:22Z</time>
      </trkpt>
      <trkpt lat="50.18564" lon="3.47361">
        <ele>66.8</ele>
        <time>2023-08-06T11:18:23Z</time>
      </trkpt>
      <trkpt lat="50.18562" lon="3.47359">
        <ele>67</ele>
        <time>2023-08-06T11:18:24Z</time>
      </trkpt>
      <trkpt lat="50.18561" lon="3.47357">
        <ele>67</ele>
        <time>2023-08-06T11:18:25Z</time>
      </trkpt>
      <trkpt lat="50.18559" lon="3.47355">
        <ele>67</ele>
        <time>2023-08-06T11:18:26Z</time>
      </trkpt>
      <trkpt lat="50.18558" lon="3.47353">
        <ele>67.2</ele>
        <time>2023-08-06T11:18:27Z</time>
      </trkpt>
      <trkpt lat="50.18557" lon="3.47351">
        <ele>67.2</ele>
        <time>2023-08-06T11:18:28Z</time>
      </trkpt>
      <trkpt lat="50.18556" lon="3.47349">
        <ele>67.2</ele>
        <time>2023-08-06T11:18:29Z</time>
      </trkpt>
      <trkpt lat="50.18555" lon="3.47348">
        <ele>67.4</ele>
        <time>2023-08-06T11:18:30Z</time>
      </trkpt>
      <trkpt lat="50.18553" lon="3.47346">
        <ele>67.4</ele>
        <time>2023-08-06T11:18:31Z</time>
      </trkpt>
      <trkpt lat="50.18552" lon="3.47344">
        <ele>67.4</ele>
        <time>2023-08-06T11:18:32Z</time>
      </trkpt>
      <trkpt lat="50.18551" lon="3.47343">
        <ele>67.6</ele>
        <time>2023-08-06T11:18:33Z</time>
      </trkpt>
      <trkpt lat="50.1855" lon="3.47341">
        <ele>67.8</ele>
        <time>2023-08-06T11:18:34Z</time>
      </trkpt>
      <trkpt lat="50.18549" lon="3.47339">
        <ele>67.8</ele>
        <time>2023-08-06T11:18:35Z</time>
      </trkpt>
      <trkpt lat="50.18547" lon="3.47337">
        <ele>68</ele>
        <time>2023-08-06T11:18:36Z</time>
      </trkpt>
      <trkpt lat="50.18546" lon="3.47336">
        <ele>68</ele>
        <time>2023-08-06T11:18:37Z</time>
      </trkpt>
      <trkpt lat="50.18544" lon="3.47334">
        <ele>68.2</ele>
        <time>2023-08-06T11:18:38Z</time>
      </trkpt>
      <trkpt lat="50.18543" lon="3.47333">
        <ele>68.4</ele>
        <time>2023-08-06T11:18:39Z</time>
      </trkpt>
      <trkpt lat="50.18541" lon="3.47331">
        <ele>68.6</ele>
        <time>2023-08-06T11:18:40Z</time>
      </trkpt>
      <trkpt lat="50.1854" lon="3.47329">
        <ele>68.6</ele>
        <time>2023-08-06T11:18:41Z</time>
      </trkpt>
      <trkpt lat="50.18539" lon="3.47327">
        <ele>68.8</ele>
        <time>2023-08-06T11:18:42Z</time>
      </trkpt>
      <trkpt lat="50.18537" lon="3.47325">
        <ele>68.8</ele>
        <time>2023-08-06T11:18:43Z</time>
      </trkpt>
      <trkpt lat="50.18536" lon="3.47323">
        <ele>68.8</ele>
        <time>2023-08-06T11:18:44Z</time>
      </trkpt>
      <trkpt lat="50.18535" lon="3.47322">
        <ele>68.8</ele>
        <time>2023-08-06T11:18:45Z</time>
      </trkpt>
      <trkpt lat="50.18534" lon="3.4732">
        <ele>69</ele>
        <time>2023-08-06T11:18:46Z</time>
      </trkpt>
      <trkpt lat="50.18533" lon="3.47318">
        <ele>69.2</ele>
        <time>2023-08-06T11:18:47Z</time>
      </trkpt>
      <trkpt lat="50.18531" lon="3.47316">
        <ele>69.2</ele>
        <time>2023-08-06T11:18:48Z</time>
      </trkpt>
      <trkpt lat="50.1853" lon="3.47315">
        <ele>69.4</ele>
        <time>2023-08-06T11:18:49Z</time>
      </trkpt>
      <trkpt lat="50.18529" lon="3.47314">
        <ele>69.4</ele>
        <time>2023-08-06T11:18:50Z</time>
      </trkpt>
      <trkpt lat="50.18528" lon="3.47312">
        <ele>69.6</ele>
        <time>2023-08-06T11:18:51Z</time>
      </trkpt>
      <trkpt lat="50.18527" lon="3.47311">
        <ele>69.6</ele>
        <time>2023-08-06T11:18:52Z</time>
      </trkpt>
      <trkpt lat="50.18526" lon="3.47309">
        <ele>69.8</ele>
        <time>2023-08-06T11:18:53Z</time>
      </trkpt>
      <trkpt lat="50.18525" lon="3.47308">
        <ele>70</ele>
        <time>2023-08-06T11:18:54Z</time>
      </trkpt>
      <trkpt lat="50.18523" lon="3.47306">
        <ele>70</ele>
        <time>2023-08-06T11:18:55Z</time>
      </trkpt>
      <trkpt lat="50.18522" lon="3.47305">
        <ele>70.2</ele>
        <time>2023-08-06T11:18:56Z</time>
      </trkpt>
      <trkpt lat="50.18521" lon="3.47303">
        <ele>70.4</ele>
        <time>2023-08-06T11:18:57Z</time>
      </trkpt>
      <trkpt lat="50.1852" lon="3.47302">
        <ele>70.8</ele>
        <time>2023-08-06T11:18:58Z</time>
      </trkpt>
      <trkpt lat="50.18519" lon="3.473">
        <ele>71</ele>
        <time>2023-08-06T11:18:59Z</time>
      </trkpt>
      <trkpt lat="50.18518" lon="3.47299">
        <ele>71</ele>
        <time>2023-08-06T11:19:00Z</time>
      </trkpt>
      <trkpt lat="50.18517" lon="3.47298">
        <ele>71.2</ele>
        <time>2023-08-06T11:19:01Z</time>
      </trkpt>
      <trkpt lat="50.18516" lon="3.47296">
        <ele>71.2</ele>
        <time>2023-08-06T11:19:02Z</time>
      </trkpt>
      <trkpt lat="50.18515" lon="3.47295">
        <ele>71.4</ele>
        <time>2023-08-06T11:19:03Z</time>
      </trkpt>
      <trkpt lat="50.18513" lon="3.47293">
        <ele>71.4</ele>
        <time>2023-08-06T11:19:04Z</time>
      </trkpt>
      <trkpt lat="50.18512" lon="3.47291">
        <ele>71.6</ele>
        <time>2023-08-06T11:19:05Z</time>
      </trkpt>
      <trkpt lat="50.18511" lon="3.4729">
        <ele>71.6</ele>
        <time>2023-08-06T11:19:06Z</time>
      </trkpt>
      <trkpt lat="50.1851" lon="3.47289">
        <ele>71.8</ele>
        <time>2023-08-06T11:19:07Z</time>
      </trkpt>
      <trkpt lat="50.18509" lon="3.47287">
        <ele>71.8</ele>
        <time>2023-08-06T11:19:08Z</time>
      </trkpt>
      <trkpt lat="50.18507" lon="3.47286">
        <ele>72</ele>
        <time>2023-08-06T11:19:09Z</time>
      </trkpt>
      <trkpt lat="50.18506" lon="3.47284">
        <ele>72</ele>
        <time>2023-08-06T11:19:10Z</time>
      </trkpt>
      <trkpt lat="50.18505" lon="3.47283">
        <ele>72.2</ele>
        <time>2023-08-06T11:19:11Z</time>
      </trkpt>
      <trkpt lat="50.18503" lon="3.47281">
        <ele>72</ele>
        <time>2023-08-06T11:19:12Z</time>
      </trkpt>
      <trkpt lat="50.18502" lon="3.4728">
        <ele>72</ele>
        <time>2023-08-06T11:19:13Z</time>
      </trkpt>
      <trkpt lat="50.18502" lon="3.47278">
        <ele>72</ele>
        <time>2023-08-06T11:19:14Z</time>
      </trkpt>
      <trkpt lat="50.18501" lon="3.47277">
        <ele>72</ele>
        <time>2023-08-06T11:19:15Z</time>
      </trkpt>
      <trkpt lat="50.185" lon="3.47275">
        <ele>72.2</ele>
        <time>2023-08-06T11:19:16Z</time>
      </trkpt>
      <trkpt lat="50.18498" lon="3.47274">
        <ele>72.4</ele>
        <time>2023-08-06T11:19:17Z</time>
      </trkpt>
      <trkpt lat="50.18497" lon="3.47272">
        <ele>72.4</ele>
        <time>2023-08-06T11:19:18Z</time>
      </trkpt>
      <trkpt lat="50.18496" lon="3.4727">
        <ele>72.6</ele>
        <time>2023-08-06T11:19:19Z</time>
      </trkpt>
      <trkpt lat="50.18495" lon="3.47268">
        <ele>72.8</ele>
        <time>2023-08-06T11:19:20Z</time>
      </trkpt>
      <trkpt lat="50.18494" lon="3.47267">
        <ele>72.8</ele>
        <time>2023-08-06T11:19:21Z</time>
      </trkpt>
      <trkpt lat="50.18493" lon="3.47265">
        <ele>73</ele>
        <time>2023-08-06T11:19:22Z</time>
      </trkpt>
      <trkpt lat="50.18491" lon="3.47264">
        <ele>73</ele>
        <time>2023-08-06T11:19:23Z</time>
      </trkpt>
      <trkpt lat="50.1849" lon="3.47263">
        <ele>73</ele>
        <time>2023-08-06T11:19:24Z</time>
      </trkpt>
      <trkpt lat="50.18489" lon="3.47261">
        <ele>73.4</ele>
        <time>2023-08-06T11:19:25Z</time>
      </trkpt>
      <trkpt lat="50.18488" lon="3.4726">
        <ele>73.4</ele>
        <time>2023-08-06T11:19:26Z</time>
      </trkpt>
      <trkpt lat="50.18486" lon="3.47259">
        <ele>73.6</ele>
        <time>2023-08-06T11:19:27Z</time>
      </trkpt>
      <trkpt lat="50.18485" lon="3.47258">
        <ele>73.6</ele>
        <time>2023-08-06T11:19:28Z</time>
      </trkpt>
      <trkpt lat="50.18484" lon="3.47257">
        <ele>73.8</ele>
        <time>2023-08-06T11:19:29Z</time>
      </trkpt>
      <trkpt lat="50.18482" lon="3.47255">
        <ele>74</ele>
        <time>2023-08-06T11:19:30Z</time>
      </trkpt>
      <trkpt lat="50.18481" lon="3.47253">
        <ele>74.2</ele>
        <time>2023-08-06T11:19:31Z</time>
      </trkpt>
      <trkpt lat="50.1848" lon="3.47251">
        <ele>74.4</ele>
        <time>2023-08-06T11:19:32Z</time>
      </trkpt>
      <trkpt lat="50.18479" lon="3.4725">
        <ele>74.4</ele>
        <time>2023-08-06T11:19:33Z</time>
      </trkpt>
      <trkpt lat="50.18478" lon="3.47248">
        <ele>74.6</ele>
        <time>2023-08-06T11:19:34Z</time>
      </trkpt>
      <trkpt lat="50.18476" lon="3.47247">
        <ele>74.6</ele>
        <time>2023-08-06T11:19:35Z</time>
      </trkpt>
      <trkpt lat="50.18475" lon="3.47245">
        <ele>74.8</ele>
        <time>2023-08-06T11:19:36Z</time>
      </trkpt>
      <trkpt lat="50.18474" lon="3.47244">
        <ele>75</ele>
        <time>2023-08-06T11:19:37Z</time>
      </trkpt>
      <trkpt lat="50.18473" lon="3.47242">
        <ele>75</ele>
        <time>2023-08-06T11:19:38Z</time>
      </trkpt>
      <trkpt lat="50.18472" lon="3.47241">
        <ele>75</ele>
        <time>2023-08-06T11:19:39Z</time>
      </trkpt>
      <trkpt lat="50.18471" lon="3.47239">
        <ele>75.2</ele>
        <time>2023-08-06T11:19:40Z</time>
      </trkpt>
      <trkpt lat="50.1847" lon="3.47237">
        <ele>75.4</ele>
        <time>2023-08-06T11:19:41Z</time>
      </trkpt>
      <trkpt lat="50.18469" lon="3.47236">
        <ele>75.6</ele>
        <time>2023-08-06T11:19:42Z</time>
      </trkpt>
      <trkpt lat="50.18468" lon="3.47234">
        <ele>75.6</ele>
        <time>2023-08-06T11:19:43Z</time>
      </trkpt>
      <trkpt lat="50.18466" lon="3.47233">
        <ele>75.6</ele>
        <time>2023-08-06T11:19:44Z</time>
      </trkpt>
      <trkpt lat="50.18465" lon="3.47231">
        <ele>75.8</ele>
        <time>2023-08-06T11:19:45Z</time>
      </trkpt>
      <trkpt lat="50.18464" lon="3.4723">
        <ele>75.8</ele>
        <time>2023-08-06T11:19:46Z</time>
      </trkpt>
      <trkpt lat="50.18463" lon="3.47229">
        <ele>76</ele>
        <time>2023-08-06T11:19:47Z</time>
      </trkpt>
      <trkpt lat="50.18461" lon="3.47228">
        <ele>76</ele>
        <time>2023-08-06T11:19:48Z</time>
      </trkpt>
      <trkpt lat="50.1846" lon="3.47227">
        <ele>76.2</ele>
        <time>2023-08-06T11:19:49Z</time>
      </trkpt>
      <trkpt lat="50.18458" lon="3.47225">
        <ele>76.2</ele>
        <time>2023-08-06T11:19:50Z</time>
      </trkpt>
      <trkpt lat="50.18457" lon="3.47224">
        <ele>76.4</ele>
        <time>2023-08-06T11:19:51Z</time>
      </trkpt>
      <trkpt lat="50.18456" lon="3.47223">
        <ele>76.6</ele>
        <time>2023-08-06T11:19:52Z</time>
      </trkpt>
      <trkpt lat="50.18454" lon="3.47221">
        <ele>76.6</ele>
        <time>2023-08-06T11:19:53Z</time>
      </trkpt>
      <trkpt lat="50.18453" lon="3.4722">
        <ele>76.6</ele>
        <time>2023-08-06T11:19:54Z</time>
      </trkpt>
      <trkpt lat="50.18452" lon="3.47218">
        <ele>76.8</ele>
        <time>2023-08-06T11:19:55Z</time>
      </trkpt>
      <trkpt lat="50.1845" lon="3.47217">
        <ele>76.8</ele>
        <time>2023-08-06T11:19:56Z</time>
      </trkpt>
      <trkpt lat="50.18449" lon="3.47216">
        <ele>76.8</ele>
        <time>2023-08-06T11:19:57Z</time>
      </trkpt>
      <trkpt lat="50.18447" lon="3.47214">
        <ele>76.8</ele>
        <time>2023-08-06T11:19:58Z</time>
      </trkpt>
      <trkpt lat="50.18445" lon="3.47212">
        <ele>77.2</ele>
        <time>2023-08-06T11:19:59Z</time>
      </trkpt>
      <trkpt lat="50.18444" lon="3.47211">
        <ele>77.2</ele>
        <time>2023-08-06T11:20:00Z</time>
      </trkpt>
      <trkpt lat="50.18443" lon="3.4721">
        <ele>77.4</ele>
        <time>2023-08-06T11:20:01Z</time>
      </trkpt>
      <trkpt lat="50.18441" lon="3.47208">
        <ele>77.4</ele>
        <time>2023-08-06T11:20:02Z</time>
      </trkpt>
      <trkpt lat="50.1844" lon="3.47207">
        <ele>77.6</ele>
        <time>2023-08-06T11:20:03Z</time>
      </trkpt>
      <trkpt lat="50.18439" lon="3.47205">
        <ele>77.6</ele>
        <time>2023-08-06T11:20:04Z</time>
      </trkpt>
      <trkpt lat="50.18438" lon="3.47204">
        <ele>77.6</ele>
        <time>2023-08-06T11:20:05Z</time>
      </trkpt>
      <trkpt lat="50.18436" lon="3.47203">
        <ele>77.8</ele>
        <time>2023-08-06T11:20:06Z</time>
      </trkpt>
      <trkpt lat="50.18435" lon="3.47202">
        <ele>77.8</ele>
        <time>2023-08-06T11:20:07Z</time>
      </trkpt>
      <trkpt lat="50.18433" lon="3.472">
        <ele>78</ele>
        <time>2023-08-06T11:20:08Z</time>
      </trkpt>
      <trkpt lat="50.18428" lon="3.47196">
        <ele>78</ele>
        <time>2023-08-06T11:20:11Z</time>
      </trkpt>
      <trkpt lat="50.18415" lon="3.47185">
        <ele>78.4</ele>
        <time>2023-08-06T11:20:19Z</time>
      </trkpt>
      <trkpt lat="50.18402" lon="3.47176">
        <ele>79</ele>
        <time>2023-08-06T11:20:26Z</time>
      </trkpt>
      <trkpt lat="50.18399" lon="3.47172">
        <ele>79</ele>
        <time>2023-08-06T11:20:28Z</time>
      </trkpt>
      <trkpt lat="50.18394" lon="3.47169">
        <ele>79</ele>
        <time>2023-08-06T11:20:31Z</time>
      </trkpt>
      <trkpt lat="50.18385" lon="3.47162">
        <ele>79.4</ele>
        <time>2023-08-06T11:20:36Z</time>
      </trkpt>
      <trkpt lat="50.1837" lon="3.47151">
        <ele>79.8</ele>
        <time>2023-08-06T11:20:44Z</time>
      </trkpt>
      <trkpt lat="50.18367" lon="3.47146">
        <ele>80</ele>
        <time>2023-08-06T11:20:46Z</time>
      </trkpt>
      <trkpt lat="50.18362" lon="3.47138">
        <ele>80.4</ele>
        <time>2023-08-06T11:20:50Z</time>
      </trkpt>
      <trkpt lat="50.18361" lon="3.47137">
        <ele>80.4</ele>
        <time>2023-08-06T11:20:51Z</time>
      </trkpt>
      <trkpt lat="50.18361" lon="3.47137">
        <ele>80.6</ele>
        <time>2023-08-06T11:20:52Z</time>
      </trkpt>
      <trkpt lat="50.1836" lon="3.47137">
        <ele>80.8</ele>
        <time>2023-08-06T11:20:54Z</time>
      </trkpt>
      <trkpt lat="50.18354" lon="3.47136">
        <ele>84.6</ele>
        <time>2023-08-06T11:23:11Z</time>
      </trkpt>
      <trkpt lat="50.1835" lon="3.47136">
        <ele>84.4</ele>
        <time>2023-08-06T11:23:13Z</time>
      </trkpt>
      <trkpt lat="50.18349" lon="3.47135">
        <ele>84.4</ele>
        <time>2023-08-06T11:23:14Z</time>
      </trkpt>
      <trkpt lat="50.18347" lon="3.47133">
        <ele>84.4</ele>
        <time>2023-08-06T11:23:15Z</time>
      </trkpt>
      <trkpt lat="50.18345" lon="3.47132">
        <ele>84.4</ele>
        <time>2023-08-06T11:23:16Z</time>
      </trkpt>
      <trkpt lat="50.18329" lon="3.47121">
        <ele>84.2</ele>
        <time>2023-08-06T11:23:25Z</time>
      </trkpt>
      <trkpt lat="50.18305" lon="3.47104">
        <ele>84.6</ele>
        <time>2023-08-06T11:23:36Z</time>
      </trkpt>
      <trkpt lat="50.18279" lon="3.47084">
        <ele>84</ele>
        <time>2023-08-06T11:23:46Z</time>
      </trkpt>
      <trkpt lat="50.18256" lon="3.47067">
        <ele>84</ele>
        <time>2023-08-06T11:23:54Z</time>
      </trkpt>
      <trkpt lat="50.18228" lon="3.47045">
        <ele>83.6</ele>
        <time>2023-08-06T11:24:03Z</time>
      </trkpt>
      <trkpt lat="50.18225" lon="3.47043">
        <ele>83.4</ele>
        <time>2023-08-06T11:24:04Z</time>
      </trkpt>
      <trkpt lat="50.18189" lon="3.47013">
        <ele>82.8</ele>
        <time>2023-08-06T11:24:15Z</time>
      </trkpt>
      <trkpt lat="50.18182" lon="3.47007">
        <ele>82.4</ele>
        <time>2023-08-06T11:24:17Z</time>
      </trkpt>
      <trkpt lat="50.18155" lon="3.46983">
        <ele>82.6</ele>
        <time>2023-08-06T11:24:25Z</time>
      </trkpt>
      <trkpt lat="50.18139" lon="3.46965">
        <ele>82.8</ele>
        <time>2023-08-06T11:24:30Z</time>
      </trkpt>
      <trkpt lat="50.18126" lon="3.4695">
        <ele>82.8</ele>
        <time>2023-08-06T11:24:34Z</time>
      </trkpt>
      <trkpt lat="50.18106" lon="3.46922">
        <ele>82.8</ele>
        <time>2023-08-06T11:24:41Z</time>
      </trkpt>
      <trkpt lat="50.18101" lon="3.46915">
        <ele>82.8</ele>
        <time>2023-08-06T11:24:43Z</time>
      </trkpt>
      <trkpt lat="50.18099" lon="3.46912">
        <ele>83</ele>
        <time>2023-08-06T11:24:44Z</time>
      </trkpt>
      <trkpt lat="50.18096" lon="3.46908">
        <ele>83</ele>
        <time>2023-08-06T11:24:45Z</time>
      </trkpt>
      <trkpt lat="50.18094" lon="3.46904">
        <ele>83</ele>
        <time>2023-08-06T11:24:46Z</time>
      </trkpt>
      <trkpt lat="50.18091" lon="3.46901">
        <ele>83</ele>
        <time>2023-08-06T11:24:47Z</time>
      </trkpt>
      <trkpt lat="50.18088" lon="3.46897">
        <ele>83.2</ele>
        <time>2023-08-06T11:24:48Z</time>
      </trkpt>
      <trkpt lat="50.18085" lon="3.46893">
        <ele>83.4</ele>
        <time>2023-08-06T11:24:49Z</time>
      </trkpt>
      <trkpt lat="50.1808" lon="3.46886">
        <ele>83.4</ele>
        <time>2023-08-06T11:24:51Z</time>
      </trkpt>
      <trkpt lat="50.18077" lon="3.46882">
        <ele>83.6</ele>
        <time>2023-08-06T11:24:52Z</time>
      </trkpt>
      <trkpt lat="50.18074" lon="3.46877">
        <ele>83.6</ele>
        <time>2023-08-06T11:24:53Z</time>
      </trkpt>
      <trkpt lat="50.18072" lon="3.46873">
        <ele>83.8</ele>
        <time>2023-08-06T11:24:54Z</time>
      </trkpt>
      <trkpt lat="50.1807" lon="3.4687">
        <ele>83.8</ele>
        <time>2023-08-06T11:24:55Z</time>
      </trkpt>
      <trkpt lat="50.18067" lon="3.46867">
        <ele>83.8</ele>
        <time>2023-08-06T11:24:56Z</time>
      </trkpt>
      <trkpt lat="50.18062" lon="3.46859">
        <ele>83.8</ele>
        <time>2023-08-06T11:24:58Z</time>
      </trkpt>
      <trkpt lat="50.18059" lon="3.46856">
        <ele>83.8</ele>
        <time>2023-08-06T11:24:59Z</time>
      </trkpt>
      <trkpt lat="50.18057" lon="3.46853">
        <ele>83.8</ele>
        <time>2023-08-06T11:25:00Z</time>
      </trkpt>
      <trkpt lat="50.18055" lon="3.46849">
        <ele>83.6</ele>
        <time>2023-08-06T11:25:01Z</time>
      </trkpt>
      <trkpt lat="50.18052" lon="3.46845">
        <ele>83.4</ele>
        <time>2023-08-06T11:25:02Z</time>
      </trkpt>
      <trkpt lat="50.18044" lon="3.46833">
        <ele>82.4</ele>
        <time>2023-08-06T11:25:05Z</time>
      </trkpt>
      <trkpt lat="50.18026" lon="3.46806">
        <ele>82.2</ele>
        <time>2023-08-06T11:25:12Z</time>
      </trkpt>
      <trkpt lat="50.1801" lon="3.46782">
        <ele>82.6</ele>
        <time>2023-08-06T11:25:18Z</time>
      </trkpt>
      <trkpt lat="50.18005" lon="3.46776">
        <ele>82.8</ele>
        <time>2023-08-06T11:25:20Z</time>
      </trkpt>
      <trkpt lat="50.18005" lon="3.46776">
        <ele>82.8</ele>
        <time>2023-08-06T11:25:21Z</time>
      </trkpt>
      <trkpt lat="50.17972" lon="3.4673">
        <ele>83</ele>
        <time>2023-08-06T11:25:32Z</time>
      </trkpt>
      <trkpt lat="50.1797" lon="3.46726">
        <ele>83</ele>
        <time>2023-08-06T11:25:33Z</time>
      </trkpt>
      <trkpt lat="50.17967" lon="3.46722">
        <ele>83.2</ele>
        <time>2023-08-06T11:25:34Z</time>
      </trkpt>
      <trkpt lat="50.17961" lon="3.46715">
        <ele>83.4</ele>
        <time>2023-08-06T11:25:36Z</time>
      </trkpt>
      <trkpt lat="50.17958" lon="3.4671">
        <ele>83.6</ele>
        <time>2023-08-06T11:25:37Z</time>
      </trkpt>
      <trkpt lat="50.17944" lon="3.46694">
        <ele>83.8</ele>
        <time>2023-08-06T11:25:42Z</time>
      </trkpt>
      <trkpt lat="50.17937" lon="3.46688">
        <ele>84</ele>
        <time>2023-08-06T11:25:44Z</time>
      </trkpt>
      <trkpt lat="50.17909" lon="3.46667">
        <ele>84</ele>
        <time>2023-08-06T11:25:51Z</time>
      </trkpt>
      <trkpt lat="50.17871" lon="3.46638">
        <ele>83.4</ele>
        <time>2023-08-06T11:26:01Z</time>
      </trkpt>
      <trkpt lat="50.17834" lon="3.46611">
        <ele>83.6</ele>
        <time>2023-08-06T11:26:10Z</time>
      </trkpt>
      <trkpt lat="50.17819" lon="3.466">
        <ele>83.6</ele>
        <time>2023-08-06T11:26:14Z</time>
      </trkpt>
      <trkpt lat="50.17815" lon="3.46598">
        <ele>83.6</ele>
        <time>2023-08-06T11:26:15Z</time>
      </trkpt>
      <trkpt lat="50.17811" lon="3.46595">
        <ele>83.6</ele>
        <time>2023-08-06T11:26:16Z</time>
      </trkpt>
      <trkpt lat="50.17808" lon="3.46593">
        <ele>83.4</ele>
        <time>2023-08-06T11:26:17Z</time>
      </trkpt>
      <trkpt lat="50.17805" lon="3.4659">
        <ele>83.4</ele>
        <time>2023-08-06T11:26:18Z</time>
      </trkpt>
      <trkpt lat="50.17801" lon="3.46588">
        <ele>83.4</ele>
        <time>2023-08-06T11:26:19Z</time>
      </trkpt>
      <trkpt lat="50.17798" lon="3.46586">
        <ele>83.6</ele>
        <time>2023-08-06T11:26:20Z</time>
      </trkpt>
      <trkpt lat="50.17794" lon="3.46583">
        <ele>83.6</ele>
        <time>2023-08-06T11:26:21Z</time>
      </trkpt>
      <trkpt lat="50.17791" lon="3.46581">
        <ele>83.6</ele>
        <time>2023-08-06T11:26:22Z</time>
      </trkpt>
      <trkpt lat="50.17788" lon="3.46579">
        <ele>83.8</ele>
        <time>2023-08-06T11:26:23Z</time>
      </trkpt>
      <trkpt lat="50.17784" lon="3.46577">
        <ele>84</ele>
        <time>2023-08-06T11:26:24Z</time>
      </trkpt>
      <trkpt lat="50.17781" lon="3.46575">
        <ele>84</ele>
        <time>2023-08-06T11:26:25Z</time>
      </trkpt>
      <trkpt lat="50.17777" lon="3.46572">
        <ele>84.2</ele>
        <time>2023-08-06T11:26:26Z</time>
      </trkpt>
      <trkpt lat="50.17775" lon="3.4657">
        <ele>84.4</ele>
        <time>2023-08-06T11:26:27Z</time>
      </trkpt>
      <trkpt lat="50.17772" lon="3.46568">
        <ele>84.4</ele>
        <time>2023-08-06T11:26:28Z</time>
      </trkpt>
      <trkpt lat="50.17768" lon="3.46566">
        <ele>84.4</ele>
        <time>2023-08-06T11:26:29Z</time>
      </trkpt>
      <trkpt lat="50.17765" lon="3.46564">
        <ele>84.6</ele>
        <time>2023-08-06T11:26:30Z</time>
      </trkpt>
      <trkpt lat="50.17762" lon="3.46562">
        <ele>84.6</ele>
        <time>2023-08-06T11:26:31Z</time>
      </trkpt>
      <trkpt lat="50.17759" lon="3.46559">
        <ele>84.6</ele>
        <time>2023-08-06T11:26:32Z</time>
      </trkpt>
      <trkpt lat="50.17753" lon="3.46555">
        <ele>84.6</ele>
        <time>2023-08-06T11:26:34Z</time>
      </trkpt>
      <trkpt lat="50.17749" lon="3.46553">
        <ele>84.6</ele>
        <time>2023-08-06T11:26:35Z</time>
      </trkpt>
      <trkpt lat="50.17746" lon="3.4655">
        <ele>84.8</ele>
        <time>2023-08-06T11:26:36Z</time>
      </trkpt>
      <trkpt lat="50.17743" lon="3.46548">
        <ele>84.8</ele>
        <time>2023-08-06T11:26:37Z</time>
      </trkpt>
      <trkpt lat="50.1773" lon="3.46539">
        <ele>85.2</ele>
        <time>2023-08-06T11:26:41Z</time>
      </trkpt>
      <trkpt lat="50.17724" lon="3.46535">
        <ele>85.4</ele>
        <time>2023-08-06T11:26:43Z</time>
      </trkpt>
      <trkpt lat="50.17692" lon="3.46515">
        <ele>85</ele>
        <time>2023-08-06T11:26:52Z</time>
      </trkpt>
      <trkpt lat="50.17677" lon="3.46507">
        <ele>84.8</ele>
        <time>2023-08-06T11:26:56Z</time>
      </trkpt>
      <trkpt lat="50.17658" lon="3.46495">
        <ele>84.8</ele>
        <time>2023-08-06T11:27:01Z</time>
      </trkpt>
      <trkpt lat="50.17626" lon="3.46474">
        <ele>84.2</ele>
        <time>2023-08-06T11:27:09Z</time>
      </trkpt>
      <trkpt lat="50.17607" lon="3.46461">
        <ele>83.8</ele>
        <time>2023-08-06T11:27:14Z</time>
      </trkpt>
      <trkpt lat="50.1759" lon="3.46449">
        <ele>83</ele>
        <time>2023-08-06T11:27:18Z</time>
      </trkpt>
      <trkpt lat="50.17578" lon="3.46441">
        <ele>82.6</ele>
        <time>2023-08-06T11:27:21Z</time>
      </trkpt>
      <trkpt lat="50.17559" lon="3.46422">
        <ele>82.2</ele>
        <time>2023-08-06T11:27:26Z</time>
      </trkpt>
      <trkpt lat="50.17555" lon="3.46418">
        <ele>82.2</ele>
        <time>2023-08-06T11:27:27Z</time>
      </trkpt>
      <trkpt lat="50.17549" lon="3.46411">
        <ele>82.2</ele>
        <time>2023-08-06T11:27:29Z</time>
      </trkpt>
      <trkpt lat="50.17539" lon="3.464">
        <ele>82</ele>
        <time>2023-08-06T11:27:32Z</time>
      </trkpt>
      <trkpt lat="50.17536" lon="3.46398">
        <ele>82</ele>
        <time>2023-08-06T11:27:33Z</time>
      </trkpt>
      <trkpt lat="50.17533" lon="3.46397">
        <ele>82</ele>
        <time>2023-08-06T11:27:34Z</time>
      </trkpt>
      <trkpt lat="50.1753" lon="3.46396">
        <ele>81.8</ele>
        <time>2023-08-06T11:27:35Z</time>
      </trkpt>
      <trkpt lat="50.17527" lon="3.46396">
        <ele>81.8</ele>
        <time>2023-08-06T11:27:36Z</time>
      </trkpt>
      <trkpt lat="50.17521" lon="3.46394">
        <ele>81.8</ele>
        <time>2023-08-06T11:27:38Z</time>
      </trkpt>
      <trkpt lat="50.17518" lon="3.46391">
        <ele>81.8</ele>
        <time>2023-08-06T11:27:39Z</time>
      </trkpt>
      <trkpt lat="50.17518" lon="3.46391">
        <ele>81.8</ele>
        <time>2023-08-06T11:27:40Z</time>
      </trkpt>
      <trkpt lat="50.17515" lon="3.46384">
        <ele>82</ele>
        <time>2023-08-06T11:27:41Z</time>
      </trkpt>
      <trkpt lat="50.17513" lon="3.4638">
        <ele>82</ele>
        <time>2023-08-06T11:27:42Z</time>
      </trkpt>
      <trkpt lat="50.17512" lon="3.46377">
        <ele>82</ele>
        <time>2023-08-06T11:27:43Z</time>
      </trkpt>
      <trkpt lat="50.17511" lon="3.46373">
        <ele>82.2</ele>
        <time>2023-08-06T11:27:44Z</time>
      </trkpt>
      <trkpt lat="50.1751" lon="3.46368">
        <ele>82.2</ele>
        <time>2023-08-06T11:27:45Z</time>
      </trkpt>
      <trkpt lat="50.17508" lon="3.46365">
        <ele>82.4</ele>
        <time>2023-08-06T11:27:46Z</time>
      </trkpt>
      <trkpt lat="50.17507" lon="3.46361">
        <ele>82.6</ele>
        <time>2023-08-06T11:27:47Z</time>
      </trkpt>
      <trkpt lat="50.17506" lon="3.46358">
        <ele>82.6</ele>
        <time>2023-08-06T11:27:48Z</time>
      </trkpt>
      <trkpt lat="50.17504" lon="3.46354">
        <ele>82.6</ele>
        <time>2023-08-06T11:27:49Z</time>
      </trkpt>
      <trkpt lat="50.17502" lon="3.4635">
        <ele>82.6</ele>
        <time>2023-08-06T11:27:50Z</time>
      </trkpt>
      <trkpt lat="50.17495" lon="3.4633">
        <ele>83.2</ele>
        <time>2023-08-06T11:27:55Z</time>
      </trkpt>
      <trkpt lat="50.17488" lon="3.46311">
        <ele>83.8</ele>
        <time>2023-08-06T11:28:00Z</time>
      </trkpt>
      <trkpt lat="50.1748" lon="3.4629">
        <ele>84</ele>
        <time>2023-08-06T11:28:05Z</time>
      </trkpt>
      <trkpt lat="50.17465" lon="3.46254">
        <ele>84.4</ele>
        <time>2023-08-06T11:28:13Z</time>
      </trkpt>
      <trkpt lat="50.17453" lon="3.46227">
        <ele>85</ele>
        <time>2023-08-06T11:28:19Z</time>
      </trkpt>
      <trkpt lat="50.17446" lon="3.46208">
        <ele>85.2</ele>
        <time>2023-08-06T11:28:23Z</time>
      </trkpt>
      <trkpt lat="50.17427" lon="3.46174">
        <ele>86</ele>
        <time>2023-08-06T11:28:31Z</time>
      </trkpt>
      <trkpt lat="50.17422" lon="3.46166">
        <ele>86</ele>
        <time>2023-08-06T11:28:33Z</time>
      </trkpt>
      <trkpt lat="50.17401" lon="3.46139">
        <ele>86.6</ele>
        <time>2023-08-06T11:28:41Z</time>
      </trkpt>
      <trkpt lat="50.17395" lon="3.46131">
        <ele>87</ele>
        <time>2023-08-06T11:28:43Z</time>
      </trkpt>
      <trkpt lat="50.17391" lon="3.46127">
        <ele>87</ele>
        <time>2023-08-06T11:28:44Z</time>
      </trkpt>
      <trkpt lat="50.17362" lon="3.46101">
        <ele>87.6</ele>
        <time>2023-08-06T11:28:53Z</time>
      </trkpt>
      <trkpt lat="50.17328" lon="3.4608">
        <ele>88</ele>
        <time>2023-08-06T11:29:02Z</time>
      </trkpt>
      <trkpt lat="50.17305" lon="3.4607">
        <ele>88</ele>
        <time>2023-08-06T11:29:08Z</time>
      </trkpt>
      <trkpt lat="50.17292" lon="3.46066">
        <ele>88</ele>
        <time>2023-08-06T11:29:11Z</time>
      </trkpt>
      <trkpt lat="50.17256" lon="3.46051">
        <ele>88.6</ele>
        <time>2023-08-06T11:29:20Z</time>
      </trkpt>
      <trkpt lat="50.17239" lon="3.46044">
        <ele>89</ele>
        <time>2023-08-06T11:29:24Z</time>
      </trkpt>
      <trkpt lat="50.17218" lon="3.46036">
        <ele>89.8</ele>
        <time>2023-08-06T11:29:29Z</time>
      </trkpt>
      <trkpt lat="50.17205" lon="3.46031">
        <ele>90.2</ele>
        <time>2023-08-06T11:29:32Z</time>
      </trkpt>
      <trkpt lat="50.17181" lon="3.46022">
        <ele>91</ele>
        <time>2023-08-06T11:29:38Z</time>
      </trkpt>
      <trkpt lat="50.17176" lon="3.4602">
        <ele>91</ele>
        <time>2023-08-06T11:29:39Z</time>
      </trkpt>
      <trkpt lat="50.17173" lon="3.46019">
        <ele>91.2</ele>
        <time>2023-08-06T11:29:40Z</time>
      </trkpt>
      <trkpt lat="50.17169" lon="3.46017">
        <ele>91.4</ele>
        <time>2023-08-06T11:29:41Z</time>
      </trkpt>
      <trkpt lat="50.17164" lon="3.46015">
        <ele>91.6</ele>
        <time>2023-08-06T11:29:42Z</time>
      </trkpt>
      <trkpt lat="50.1716" lon="3.46013">
        <ele>91.6</ele>
        <time>2023-08-06T11:29:43Z</time>
      </trkpt>
      <trkpt lat="50.17156" lon="3.46012">
        <ele>91.8</ele>
        <time>2023-08-06T11:29:44Z</time>
      </trkpt>
      <trkpt lat="50.17152" lon="3.4601">
        <ele>92</ele>
        <time>2023-08-06T11:29:45Z</time>
      </trkpt>
      <trkpt lat="50.17148" lon="3.46008">
        <ele>92</ele>
        <time>2023-08-06T11:29:46Z</time>
      </trkpt>
      <trkpt lat="50.17144" lon="3.46007">
        <ele>92.2</ele>
        <time>2023-08-06T11:29:47Z</time>
      </trkpt>
      <trkpt lat="50.1714" lon="3.46005">
        <ele>92.2</ele>
        <time>2023-08-06T11:29:48Z</time>
      </trkpt>
      <trkpt lat="50.17136" lon="3.46003">
        <ele>92.4</ele>
        <time>2023-08-06T11:29:49Z</time>
      </trkpt>
      <trkpt lat="50.17132" lon="3.46001">
        <ele>92.4</ele>
        <time>2023-08-06T11:29:50Z</time>
      </trkpt>
      <trkpt lat="50.17127" lon="3.46">
        <ele>92.4</ele>
        <time>2023-08-06T11:29:51Z</time>
      </trkpt>
      <trkpt lat="50.17124" lon="3.45999">
        <ele>92.4</ele>
        <time>2023-08-06T11:29:52Z</time>
      </trkpt>
      <trkpt lat="50.1712" lon="3.45997">
        <ele>92.6</ele>
        <time>2023-08-06T11:29:53Z</time>
      </trkpt>
      <trkpt lat="50.17116" lon="3.45996">
        <ele>92.6</ele>
        <time>2023-08-06T11:29:54Z</time>
      </trkpt>
      <trkpt lat="50.17111" lon="3.45994">
        <ele>92.6</ele>
        <time>2023-08-06T11:29:55Z</time>
      </trkpt>
      <trkpt lat="50.17108" lon="3.45993">
        <ele>92.6</ele>
        <time>2023-08-06T11:29:56Z</time>
      </trkpt>
      <trkpt lat="50.17104" lon="3.45991">
        <ele>92.8</ele>
        <time>2023-08-06T11:29:57Z</time>
      </trkpt>
      <trkpt lat="50.171" lon="3.4599">
        <ele>92.8</ele>
        <time>2023-08-06T11:29:58Z</time>
      </trkpt>
      <trkpt lat="50.17097" lon="3.45989">
        <ele>92.8</ele>
        <time>2023-08-06T11:29:59Z</time>
      </trkpt>
      <trkpt lat="50.17093" lon="3.45987">
        <ele>92.8</ele>
        <time>2023-08-06T11:30:00Z</time>
      </trkpt>
      <trkpt lat="50.17089" lon="3.45986">
        <ele>92.8</ele>
        <time>2023-08-06T11:30:01Z</time>
      </trkpt>
      <trkpt lat="50.17085" lon="3.45985">
        <ele>92.8</ele>
        <time>2023-08-06T11:30:02Z</time>
      </trkpt>
      <trkpt lat="50.17081" lon="3.45985">
        <ele>93</ele>
        <time>2023-08-06T11:30:03Z</time>
      </trkpt>
      <trkpt lat="50.17078" lon="3.45984">
        <ele>93</ele>
        <time>2023-08-06T11:30:04Z</time>
      </trkpt>
      <trkpt lat="50.1707" lon="3.45985">
        <ele>93</ele>
        <time>2023-08-06T11:30:06Z</time>
      </trkpt>
      <trkpt lat="50.17067" lon="3.45985">
        <ele>93</ele>
        <time>2023-08-06T11:30:07Z</time>
      </trkpt>
      <trkpt lat="50.17063" lon="3.45985">
        <ele>93</ele>
        <time>2023-08-06T11:30:08Z</time>
      </trkpt>
      <trkpt lat="50.17059" lon="3.45985">
        <ele>93</ele>
        <time>2023-08-06T11:30:09Z</time>
      </trkpt>
      <trkpt lat="50.17056" lon="3.45986">
        <ele>93.2</ele>
        <time>2023-08-06T11:30:10Z</time>
      </trkpt>
      <trkpt lat="50.17053" lon="3.45987">
        <ele>93.2</ele>
        <time>2023-08-06T11:30:11Z</time>
      </trkpt>
      <trkpt lat="50.17045" lon="3.4599">
        <ele>93.2</ele>
        <time>2023-08-06T11:30:13Z</time>
      </trkpt>
      <trkpt lat="50.17038" lon="3.45993">
        <ele>93.4</ele>
        <time>2023-08-06T11:30:15Z</time>
      </trkpt>
      <trkpt lat="50.17001" lon="3.46008">
        <ele>94</ele>
        <time>2023-08-06T11:30:25Z</time>
      </trkpt>
      <trkpt lat="50.16989" lon="3.46013">
        <ele>94.4</ele>
        <time>2023-08-06T11:30:28Z</time>
      </trkpt>
      <trkpt lat="50.16968" lon="3.46018">
        <ele>95</ele>
        <time>2023-08-06T11:30:34Z</time>
      </trkpt>
      <trkpt lat="50.16946" lon="3.4601">
        <ele>95.4</ele>
        <time>2023-08-06T11:30:40Z</time>
      </trkpt>
      <trkpt lat="50.16929" lon="3.45987">
        <ele>95.6</ele>
        <time>2023-08-06T11:30:46Z</time>
      </trkpt>
      <trkpt lat="50.16921" lon="3.45952">
        <ele>96</ele>
        <time>2023-08-06T11:30:52Z</time>
      </trkpt>
      <trkpt lat="50.16919" lon="3.45888">
        <ele>96.2</ele>
        <time>2023-08-06T11:31:02Z</time>
      </trkpt>
      <trkpt lat="50.16919" lon="3.45854">
        <ele>96</ele>
        <time>2023-08-06T11:31:07Z</time>
      </trkpt>
      <trkpt lat="50.1692" lon="3.45848">
        <ele>96</ele>
        <time>2023-08-06T11:31:08Z</time>
      </trkpt>
      <trkpt lat="50.16923" lon="3.45841">
        <ele>96</ele>
        <time>2023-08-06T11:31:09Z</time>
      </trkpt>
      <trkpt lat="50.16926" lon="3.45838">
        <ele>96</ele>
        <time>2023-08-06T11:31:10Z</time>
      </trkpt>
      <trkpt lat="50.16929" lon="3.45834">
        <ele>96</ele>
        <time>2023-08-06T11:31:11Z</time>
      </trkpt>
      <trkpt lat="50.16932" lon="3.45831">
        <ele>96</ele>
        <time>2023-08-06T11:31:12Z</time>
      </trkpt>
      <trkpt lat="50.16936" lon="3.45828">
        <ele>96</ele>
        <time>2023-08-06T11:31:13Z</time>
      </trkpt>
      <trkpt lat="50.16939" lon="3.45825">
        <ele>96</ele>
        <time>2023-08-06T11:31:14Z</time>
      </trkpt>
      <trkpt lat="50.16944" lon="3.45822">
        <ele>96</ele>
        <time>2023-08-06T11:31:15Z</time>
      </trkpt>
      <trkpt lat="50.16963" lon="3.45809">
        <ele>96.2</ele>
        <time>2023-08-06T11:31:20Z</time>
      </trkpt>
      <trkpt lat="50.1697" lon="3.45804">
        <ele>96.2</ele>
        <time>2023-08-06T11:31:22Z</time>
      </trkpt>
      <trkpt lat="50.16978" lon="3.45799">
        <ele>96.2</ele>
        <time>2023-08-06T11:31:24Z</time>
      </trkpt>
      <trkpt lat="50.1699" lon="3.45792">
        <ele>96</ele>
        <time>2023-08-06T11:31:27Z</time>
      </trkpt>
      <trkpt lat="50.17004" lon="3.45785">
        <ele>95.2</ele>
        <time>2023-08-06T11:31:30Z</time>
      </trkpt>
      <trkpt lat="50.17008" lon="3.45782">
        <ele>95.2</ele>
        <time>2023-08-06T11:31:31Z</time>
      </trkpt>
      <trkpt lat="50.17018" lon="3.45777">
        <ele>94.6</ele>
        <time>2023-08-06T11:31:33Z</time>
      </trkpt>
      <trkpt lat="50.17025" lon="3.4577">
        <ele>94</ele>
        <time>2023-08-06T11:31:35Z</time>
      </trkpt>
      <trkpt lat="50.17029" lon="3.45767">
        <ele>93.8</ele>
        <time>2023-08-06T11:31:36Z</time>
      </trkpt>
      <trkpt lat="50.17046" lon="3.45749">
        <ele>93</ele>
        <time>2023-08-06T11:31:40Z</time>
      </trkpt>
      <trkpt lat="50.17065" lon="3.45732">
        <ele>92.2</ele>
        <time>2023-08-06T11:31:44Z</time>
      </trkpt>
      <trkpt lat="50.17077" lon="3.4572">
        <ele>91.8</ele>
        <time>2023-08-06T11:31:47Z</time>
      </trkpt>
      <trkpt lat="50.1709" lon="3.45707">
        <ele>90.8</ele>
        <time>2023-08-06T11:31:50Z</time>
      </trkpt>
      <trkpt lat="50.17108" lon="3.45687">
        <ele>90.4</ele>
        <time>2023-08-06T11:31:54Z</time>
      </trkpt>
      <trkpt lat="50.1712" lon="3.45672">
        <ele>89.8</ele>
        <time>2023-08-06T11:31:57Z</time>
      </trkpt>
      <trkpt lat="50.17124" lon="3.45667">
        <ele>89.6</ele>
        <time>2023-08-06T11:31:58Z</time>
      </trkpt>
      <trkpt lat="50.17134" lon="3.4565">
        <ele>88.6</ele>
        <time>2023-08-06T11:32:01Z</time>
      </trkpt>
      <trkpt lat="50.17137" lon="3.45645">
        <ele>88.6</ele>
        <time>2023-08-06T11:32:02Z</time>
      </trkpt>
      <trkpt lat="50.17144" lon="3.45636">
        <ele>88.2</ele>
        <time>2023-08-06T11:32:04Z</time>
      </trkpt>
      <trkpt lat="50.17147" lon="3.4563">
        <ele>88.2</ele>
        <time>2023-08-06T11:32:05Z</time>
      </trkpt>
      <trkpt lat="50.1715" lon="3.45625">
        <ele>88</ele>
        <time>2023-08-06T11:32:06Z</time>
      </trkpt>
      <trkpt lat="50.17156" lon="3.45614">
        <ele>87.6</ele>
        <time>2023-08-06T11:32:08Z</time>
      </trkpt>
      <trkpt lat="50.17176" lon="3.45581">
        <ele>86.8</ele>
        <time>2023-08-06T11:32:14Z</time>
      </trkpt>
      <trkpt lat="50.1718" lon="3.45575">
        <ele>86.6</ele>
        <time>2023-08-06T11:32:15Z</time>
      </trkpt>
      <trkpt lat="50.17193" lon="3.45551">
        <ele>85.4</ele>
        <time>2023-08-06T11:32:19Z</time>
      </trkpt>
      <trkpt lat="50.17204" lon="3.45534">
        <ele>84.6</ele>
        <time>2023-08-06T11:32:22Z</time>
      </trkpt>
      <trkpt lat="50.17208" lon="3.45528">
        <ele>84.6</ele>
        <time>2023-08-06T11:32:23Z</time>
      </trkpt>
      <trkpt lat="50.17215" lon="3.45516">
        <ele>84.2</ele>
        <time>2023-08-06T11:32:25Z</time>
      </trkpt>
      <trkpt lat="50.17233" lon="3.45487">
        <ele>83.2</ele>
        <time>2023-08-06T11:32:30Z</time>
      </trkpt>
      <trkpt lat="50.17237" lon="3.45482">
        <ele>83.2</ele>
        <time>2023-08-06T11:32:31Z</time>
      </trkpt>
      <trkpt lat="50.1724" lon="3.45476">
        <ele>82.8</ele>
        <time>2023-08-06T11:32:32Z</time>
      </trkpt>
      <trkpt lat="50.17258" lon="3.45447">
        <ele>82.2</ele>
        <time>2023-08-06T11:32:37Z</time>
      </trkpt>
      <trkpt lat="50.17276" lon="3.45417">
        <ele>81.6</ele>
        <time>2023-08-06T11:32:42Z</time>
      </trkpt>
      <trkpt lat="50.1729" lon="3.45393">
        <ele>81</ele>
        <time>2023-08-06T11:32:46Z</time>
      </trkpt>
      <trkpt lat="50.17303" lon="3.45371">
        <ele>80.8</ele>
        <time>2023-08-06T11:32:50Z</time>
      </trkpt>
      <trkpt lat="50.17306" lon="3.45366">
        <ele>80.6</ele>
        <time>2023-08-06T11:32:51Z</time>
      </trkpt>
      <trkpt lat="50.1731" lon="3.4536">
        <ele>80.6</ele>
        <time>2023-08-06T11:32:52Z</time>
      </trkpt>
      <trkpt lat="50.17313" lon="3.45355">
        <ele>80.6</ele>
        <time>2023-08-06T11:32:53Z</time>
      </trkpt>
      <trkpt lat="50.17319" lon="3.45345">
        <ele>80</ele>
        <time>2023-08-06T11:32:55Z</time>
      </trkpt>
      <trkpt lat="50.17322" lon="3.4534">
        <ele>80.2</ele>
        <time>2023-08-06T11:32:56Z</time>
      </trkpt>
      <trkpt lat="50.17325" lon="3.45335">
        <ele>80.2</ele>
        <time>2023-08-06T11:32:57Z</time>
      </trkpt>
      <trkpt lat="50.17328" lon="3.4533">
        <ele>80</ele>
        <time>2023-08-06T11:32:59Z</time>
      </trkpt>
      <trkpt lat="50.17331" lon="3.45325">
        <ele>79.8</ele>
        <time>2023-08-06T11:33:00Z</time>
      </trkpt>
      <trkpt lat="50.17333" lon="3.45321">
        <ele>79.6</ele>
        <time>2023-08-06T11:33:01Z</time>
      </trkpt>
      <trkpt lat="50.1734" lon="3.45311">
        <ele>79.4</ele>
        <time>2023-08-06T11:33:02Z</time>
      </trkpt>
      <trkpt lat="50.1734" lon="3.45311">
        <ele>79.4</ele>
        <time>2023-08-06T11:33:03Z</time>
      </trkpt>
      <trkpt lat="50.1737" lon="3.45263">
        <ele>79.4</ele>
        <time>2023-08-06T11:33:12Z</time>
      </trkpt>
      <trkpt lat="50.17379" lon="3.45249">
        <ele>78.8</ele>
        <time>2023-08-06T11:33:15Z</time>
      </trkpt>
      <trkpt lat="50.17381" lon="3.45244">
        <ele>78.8</ele>
        <time>2023-08-06T11:33:16Z</time>
      </trkpt>
      <trkpt lat="50.17397" lon="3.45218">
        <ele>78.4</ele>
        <time>2023-08-06T11:33:21Z</time>
      </trkpt>
      <trkpt lat="50.17403" lon="3.45207">
        <ele>78.2</ele>
        <time>2023-08-06T11:33:23Z</time>
      </trkpt>
      <trkpt lat="50.17405" lon="3.45203">
        <ele>78.2</ele>
        <time>2023-08-06T11:33:24Z</time>
      </trkpt>
      <trkpt lat="50.17417" lon="3.45184">
        <ele>77.8</ele>
        <time>2023-08-06T11:33:28Z</time>
      </trkpt>
      <trkpt lat="50.1742" lon="3.45178">
        <ele>77.6</ele>
        <time>2023-08-06T11:33:29Z</time>
      </trkpt>
      <trkpt lat="50.1745" lon="3.45128">
        <ele>78.2</ele>
        <time>2023-08-06T11:33:39Z</time>
      </trkpt>
      <trkpt lat="50.17484" lon="3.45073">
        <ele>77.2</ele>
        <time>2023-08-06T11:33:50Z</time>
      </trkpt>
      <trkpt lat="50.17522" lon="3.45011">
        <ele>77.6</ele>
        <time>2023-08-06T11:34:02Z</time>
      </trkpt>
      <trkpt lat="50.17535" lon="3.44991">
        <ele>77</ele>
        <time>2023-08-06T11:34:06Z</time>
      </trkpt>
      <trkpt lat="50.17541" lon="3.44982">
        <ele>76.6</ele>
        <time>2023-08-06T11:34:08Z</time>
      </trkpt>
      <trkpt lat="50.17544" lon="3.44977">
        <ele>76.6</ele>
        <time>2023-08-06T11:34:09Z</time>
      </trkpt>
      <trkpt lat="50.17546" lon="3.44972">
        <ele>76.4</ele>
        <time>2023-08-06T11:34:10Z</time>
      </trkpt>
      <trkpt lat="50.17549" lon="3.44968">
        <ele>76.4</ele>
        <time>2023-08-06T11:34:11Z</time>
      </trkpt>
      <trkpt lat="50.17551" lon="3.44963">
        <ele>76.6</ele>
        <time>2023-08-06T11:34:12Z</time>
      </trkpt>
      <trkpt lat="50.17554" lon="3.44959">
        <ele>76.4</ele>
        <time>2023-08-06T11:34:13Z</time>
      </trkpt>
      <trkpt lat="50.17557" lon="3.44955">
        <ele>76.2</ele>
        <time>2023-08-06T11:34:14Z</time>
      </trkpt>
      <trkpt lat="50.17559" lon="3.44951">
        <ele>76</ele>
        <time>2023-08-06T11:34:15Z</time>
      </trkpt>
      <trkpt lat="50.17562" lon="3.44946">
        <ele>76</ele>
        <time>2023-08-06T11:34:16Z</time>
      </trkpt>
      <trkpt lat="50.17565" lon="3.44942">
        <ele>76.2</ele>
        <time>2023-08-06T11:34:17Z</time>
      </trkpt>
      <trkpt lat="50.17567" lon="3.44938">
        <ele>76.4</ele>
        <time>2023-08-06T11:34:18Z</time>
      </trkpt>
      <trkpt lat="50.1757" lon="3.44935">
        <ele>76.4</ele>
        <time>2023-08-06T11:34:19Z</time>
      </trkpt>
      <trkpt lat="50.17572" lon="3.4493">
        <ele>76.4</ele>
        <time>2023-08-06T11:34:20Z</time>
      </trkpt>
      <trkpt lat="50.17574" lon="3.44926">
        <ele>76.4</ele>
        <time>2023-08-06T11:34:21Z</time>
      </trkpt>
      <trkpt lat="50.17576" lon="3.44923">
        <ele>76.4</ele>
        <time>2023-08-06T11:34:22Z</time>
      </trkpt>
      <trkpt lat="50.17579" lon="3.44919">
        <ele>76.4</ele>
        <time>2023-08-06T11:34:23Z</time>
      </trkpt>
      <trkpt lat="50.17581" lon="3.44916">
        <ele>76.4</ele>
        <time>2023-08-06T11:34:24Z</time>
      </trkpt>
      <trkpt lat="50.17583" lon="3.44912">
        <ele>76.4</ele>
        <time>2023-08-06T11:34:25Z</time>
      </trkpt>
      <trkpt lat="50.17585" lon="3.44909">
        <ele>76.6</ele>
        <time>2023-08-06T11:34:26Z</time>
      </trkpt>
      <trkpt lat="50.17587" lon="3.44906">
        <ele>76.6</ele>
        <time>2023-08-06T11:34:27Z</time>
      </trkpt>
      <trkpt lat="50.1759" lon="3.44903">
        <ele>76.6</ele>
        <time>2023-08-06T11:34:28Z</time>
      </trkpt>
      <trkpt lat="50.17592" lon="3.44899">
        <ele>76.8</ele>
        <time>2023-08-06T11:34:29Z</time>
      </trkpt>
      <trkpt lat="50.17594" lon="3.44896">
        <ele>77</ele>
        <time>2023-08-06T11:34:30Z</time>
      </trkpt>
      <trkpt lat="50.17596" lon="3.44893">
        <ele>77</ele>
        <time>2023-08-06T11:34:31Z</time>
      </trkpt>
      <trkpt lat="50.17598" lon="3.4489">
        <ele>77</ele>
        <time>2023-08-06T11:34:32Z</time>
      </trkpt>
      <trkpt lat="50.176" lon="3.44886">
        <ele>77.2</ele>
        <time>2023-08-06T11:34:33Z</time>
      </trkpt>
      <trkpt lat="50.17602" lon="3.44883">
        <ele>77.2</ele>
        <time>2023-08-06T11:34:34Z</time>
      </trkpt>
      <trkpt lat="50.17604" lon="3.4488">
        <ele>77</ele>
        <time>2023-08-06T11:34:35Z</time>
      </trkpt>
      <trkpt lat="50.17606" lon="3.44877">
        <ele>77</ele>
        <time>2023-08-06T11:34:36Z</time>
      </trkpt>
      <trkpt lat="50.17608" lon="3.44874">
        <ele>77</ele>
        <time>2023-08-06T11:34:37Z</time>
      </trkpt>
      <trkpt lat="50.1761" lon="3.44871">
        <ele>77</ele>
        <time>2023-08-06T11:34:38Z</time>
      </trkpt>
      <trkpt lat="50.17612" lon="3.44868">
        <ele>76.8</ele>
        <time>2023-08-06T11:34:39Z</time>
      </trkpt>
      <trkpt lat="50.17614" lon="3.44865">
        <ele>76.8</ele>
        <time>2023-08-06T11:34:40Z</time>
      </trkpt>
      <trkpt lat="50.17616" lon="3.44862">
        <ele>76.8</ele>
        <time>2023-08-06T11:34:41Z</time>
      </trkpt>
      <trkpt lat="50.17618" lon="3.44859">
        <ele>76.6</ele>
        <time>2023-08-06T11:34:42Z</time>
      </trkpt>
      <trkpt lat="50.1762" lon="3.44856">
        <ele>76.6</ele>
        <time>2023-08-06T11:34:43Z</time>
      </trkpt>
      <trkpt lat="50.17622" lon="3.44853">
        <ele>76.4</ele>
        <time>2023-08-06T11:34:44Z</time>
      </trkpt>
      <trkpt lat="50.17624" lon="3.4485">
        <ele>76.4</ele>
        <time>2023-08-06T11:34:45Z</time>
      </trkpt>
      <trkpt lat="50.17628" lon="3.44844">
        <ele>76.8</ele>
        <time>2023-08-06T11:34:47Z</time>
      </trkpt>
      <trkpt lat="50.17642" lon="3.44822">
        <ele>77.8</ele>
        <time>2023-08-06T11:34:54Z</time>
      </trkpt>
      <trkpt lat="50.17646" lon="3.44815">
        <ele>77.8</ele>
        <time>2023-08-06T11:34:56Z</time>
      </trkpt>
      <trkpt lat="50.17666" lon="3.44784">
        <ele>77.8</ele>
        <time>2023-08-06T11:35:06Z</time>
      </trkpt>
      <trkpt lat="50.17678" lon="3.44767">
        <ele>78</ele>
        <time>2023-08-06T11:35:12Z</time>
      </trkpt>
      <trkpt lat="50.1768" lon="3.44764">
        <ele>78.2</ele>
        <time>2023-08-06T11:35:13Z</time>
      </trkpt>
      <trkpt lat="50.17682" lon="3.4476">
        <ele>78.2</ele>
        <time>2023-08-06T11:35:14Z</time>
      </trkpt>
      <trkpt lat="50.17686" lon="3.44754">
        <ele>78.4</ele>
        <time>2023-08-06T11:35:16Z</time>
      </trkpt>
      <trkpt lat="50.17688" lon="3.44751">
        <ele>78.6</ele>
        <time>2023-08-06T11:35:17Z</time>
      </trkpt>
      <trkpt lat="50.17692" lon="3.44745">
        <ele>78.8</ele>
        <time>2023-08-06T11:35:19Z</time>
      </trkpt>
      <trkpt lat="50.177" lon="3.44733">
        <ele>79</ele>
        <time>2023-08-06T11:35:23Z</time>
      </trkpt>
      <trkpt lat="50.17719" lon="3.44705">
        <ele>79.4</ele>
        <time>2023-08-06T11:35:32Z</time>
      </trkpt>
      <trkpt lat="50.17723" lon="3.44698">
        <ele>79.2</ele>
        <time>2023-08-06T11:35:34Z</time>
      </trkpt>
      <trkpt lat="50.17737" lon="3.44677">
        <ele>79.2</ele>
        <time>2023-08-06T11:35:41Z</time>
      </trkpt>
      <trkpt lat="50.17754" lon="3.44651">
        <ele>79.4</ele>
        <time>2023-08-06T11:35:49Z</time>
      </trkpt>
      <trkpt lat="50.17767" lon="3.44629">
        <ele>79.8</ele>
        <time>2023-08-06T11:35:55Z</time>
      </trkpt>
      <trkpt lat="50.17777" lon="3.44614">
        <ele>79.8</ele>
        <time>2023-08-06T11:35:59Z</time>
      </trkpt>
      <trkpt lat="50.17798" lon="3.4458">
        <ele>79.4</ele>
        <time>2023-08-06T11:36:08Z</time>
      </trkpt>
      <trkpt lat="50.1782" lon="3.44544">
        <ele>78.8</ele>
        <time>2023-08-06T11:36:17Z</time>
      </trkpt>
      <trkpt lat="50.17822" lon="3.4454">
        <ele>78.6</ele>
        <time>2023-08-06T11:36:18Z</time>
      </trkpt>
      <trkpt lat="50.17851" lon="3.44493">
        <ele>77.8</ele>
        <time>2023-08-06T11:36:30Z</time>
      </trkpt>
      <trkpt lat="50.17857" lon="3.44485">
        <ele>77.6</ele>
        <time>2023-08-06T11:36:32Z</time>
      </trkpt>
      <trkpt lat="50.17878" lon="3.44451">
        <ele>77</ele>
        <time>2023-08-06T11:36:40Z</time>
      </trkpt>
      <trkpt lat="50.17892" lon="3.44429">
        <ele>76.6</ele>
        <time>2023-08-06T11:36:45Z</time>
      </trkpt>
      <trkpt lat="50.17905" lon="3.44408">
        <ele>76.6</ele>
        <time>2023-08-06T11:36:50Z</time>
      </trkpt>
      <trkpt lat="50.17936" lon="3.4436">
        <ele>76</ele>
        <time>2023-08-06T11:37:01Z</time>
      </trkpt>
      <trkpt lat="50.17949" lon="3.4434">
        <ele>76.4</ele>
        <time>2023-08-06T11:37:06Z</time>
      </trkpt>
      <trkpt lat="50.17957" lon="3.44328">
        <ele>76.2</ele>
        <time>2023-08-06T11:37:09Z</time>
      </trkpt>
      <trkpt lat="50.1796" lon="3.44323">
        <ele>76.2</ele>
        <time>2023-08-06T11:37:10Z</time>
      </trkpt>
      <trkpt lat="50.17966" lon="3.44315">
        <ele>76.2</ele>
        <time>2023-08-06T11:37:12Z</time>
      </trkpt>
      <trkpt lat="50.17971" lon="3.44307">
        <ele>76.2</ele>
        <time>2023-08-06T11:37:14Z</time>
      </trkpt>
      <trkpt lat="50.17982" lon="3.44291">
        <ele>76</ele>
        <time>2023-08-06T11:37:18Z</time>
      </trkpt>
      <trkpt lat="50.17999" lon="3.44264">
        <ele>75.6</ele>
        <time>2023-08-06T11:37:24Z</time>
      </trkpt>
      <trkpt lat="50.18022" lon="3.4423">
        <ele>74.4</ele>
        <time>2023-08-06T11:37:32Z</time>
      </trkpt>
      <trkpt lat="50.18032" lon="3.44213">
        <ele>74.4</ele>
        <time>2023-08-06T11:37:36Z</time>
      </trkpt>
      <trkpt lat="50.18035" lon="3.44209">
        <ele>74.4</ele>
        <time>2023-08-06T11:37:37Z</time>
      </trkpt>
      <trkpt lat="50.18039" lon="3.44204">
        <ele>74.6</ele>
        <time>2023-08-06T11:37:38Z</time>
      </trkpt>
      <trkpt lat="50.18044" lon="3.44196">
        <ele>74</ele>
        <time>2023-08-06T11:37:40Z</time>
      </trkpt>
      <trkpt lat="50.18073" lon="3.44152">
        <ele>73.8</ele>
        <time>2023-08-06T11:37:50Z</time>
      </trkpt>
      <trkpt lat="50.18087" lon="3.44129">
        <ele>73.4</ele>
        <time>2023-08-06T11:37:55Z</time>
      </trkpt>
      <trkpt lat="50.18106" lon="3.44098">
        <ele>72.8</ele>
        <time>2023-08-06T11:38:01Z</time>
      </trkpt>
      <trkpt lat="50.18118" lon="3.44074">
        <ele>72.6</ele>
        <time>2023-08-06T11:38:05Z</time>
      </trkpt>
      <trkpt lat="50.18125" lon="3.44057">
        <ele>72.6</ele>
        <time>2023-08-06T11:38:08Z</time>
      </trkpt>
      <trkpt lat="50.18137" lon="3.44034">
        <ele>72</ele>
        <time>2023-08-06T11:38:12Z</time>
      </trkpt>
      <trkpt lat="50.18154" lon="3.43998">
        <ele>72.2</ele>
        <time>2023-08-06T11:38:18Z</time>
      </trkpt>
      <trkpt lat="50.18177" lon="3.43949">
        <ele>71</ele>
        <time>2023-08-06T11:38:26Z</time>
      </trkpt>
      <trkpt lat="50.1818" lon="3.43943">
        <ele>71</ele>
        <time>2023-08-06T11:38:27Z</time>
      </trkpt>
      <trkpt lat="50.18191" lon="3.4392">
        <ele>70.6</ele>
        <time>2023-08-06T11:38:31Z</time>
      </trkpt>
      <trkpt lat="50.18196" lon="3.43909">
        <ele>70.4</ele>
        <time>2023-08-06T11:38:33Z</time>
      </trkpt>
      <trkpt lat="50.18199" lon="3.43904">
        <ele>70.4</ele>
        <time>2023-08-06T11:38:34Z</time>
      </trkpt>
      <trkpt lat="50.18202" lon="3.43898">
        <ele>70.4</ele>
        <time>2023-08-06T11:38:35Z</time>
      </trkpt>
      <trkpt lat="50.18204" lon="3.43894">
        <ele>70.4</ele>
        <time>2023-08-06T11:38:36Z</time>
      </trkpt>
      <trkpt lat="50.18206" lon="3.43889">
        <ele>70.2</ele>
        <time>2023-08-06T11:38:37Z</time>
      </trkpt>
      <trkpt lat="50.18207" lon="3.43885">
        <ele>70.2</ele>
        <time>2023-08-06T11:38:38Z</time>
      </trkpt>
      <trkpt lat="50.18209" lon="3.4388">
        <ele>70</ele>
        <time>2023-08-06T11:38:39Z</time>
      </trkpt>
      <trkpt lat="50.18209" lon="3.43875">
        <ele>69.4</ele>
        <time>2023-08-06T11:38:40Z</time>
      </trkpt>
      <trkpt lat="50.18208" lon="3.43871">
        <ele>69.4</ele>
        <time>2023-08-06T11:38:41Z</time>
      </trkpt>
      <trkpt lat="50.18199" lon="3.43863">
        <ele>69.2</ele>
        <time>2023-08-06T11:38:44Z</time>
      </trkpt>
      <trkpt lat="50.18195" lon="3.43862">
        <ele>69</ele>
        <time>2023-08-06T11:38:45Z</time>
      </trkpt>
      <trkpt lat="50.18191" lon="3.43861">
        <ele>68.8</ele>
        <time>2023-08-06T11:38:46Z</time>
      </trkpt>
      <trkpt lat="50.18172" lon="3.43853">
        <ele>68.8</ele>
        <time>2023-08-06T11:38:51Z</time>
      </trkpt>
      <trkpt lat="50.18129" lon="3.43837">
        <ele>68.4</ele>
        <time>2023-08-06T11:39:01Z</time>
      </trkpt>
      <trkpt lat="50.18126" lon="3.43836">
        <ele>68.4</ele>
        <time>2023-08-06T11:39:02Z</time>
      </trkpt>
      <trkpt lat="50.18123" lon="3.43835">
        <ele>68.4</ele>
        <time>2023-08-06T11:39:03Z</time>
      </trkpt>
      <trkpt lat="50.1812" lon="3.43834">
        <ele>68.4</ele>
        <time>2023-08-06T11:39:04Z</time>
      </trkpt>
      <trkpt lat="50.18118" lon="3.43833">
        <ele>68.4</ele>
        <time>2023-08-06T11:39:05Z</time>
      </trkpt>
      <trkpt lat="50.18116" lon="3.43833">
        <ele>68.4</ele>
        <time>2023-08-06T11:39:06Z</time>
      </trkpt>
      <trkpt lat="50.18113" lon="3.43832">
        <ele>68.4</ele>
        <time>2023-08-06T11:39:07Z</time>
      </trkpt>
      <trkpt lat="50.18097" lon="3.43828">
        <ele>68.4</ele>
        <time>2023-08-06T11:39:12Z</time>
      </trkpt>
      <trkpt lat="50.18082" lon="3.43822">
        <ele>68.2</ele>
        <time>2023-08-06T11:39:16Z</time>
      </trkpt>
      <trkpt lat="50.18069" lon="3.43817">
        <ele>68</ele>
        <time>2023-08-06T11:39:19Z</time>
      </trkpt>
      <trkpt lat="50.18065" lon="3.43816">
        <ele>68</ele>
        <time>2023-08-06T11:39:20Z</time>
      </trkpt>
      <trkpt lat="50.18035" lon="3.43804">
        <ele>67</ele>
        <time>2023-08-06T11:39:28Z</time>
      </trkpt>
      <trkpt lat="50.18032" lon="3.43803">
        <ele>67</ele>
        <time>2023-08-06T11:39:29Z</time>
      </trkpt>
      <trkpt lat="50.18029" lon="3.43802">
        <ele>66.8</ele>
        <time>2023-08-06T11:39:30Z</time>
      </trkpt>
      <trkpt lat="50.18026" lon="3.438">
        <ele>66.8</ele>
        <time>2023-08-06T11:39:31Z</time>
      </trkpt>
      <trkpt lat="50.18013" lon="3.43793">
        <ele>66.8</ele>
        <time>2023-08-06T11:39:35Z</time>
      </trkpt>
      <trkpt lat="50.17986" lon="3.43776">
        <ele>67</ele>
        <time>2023-08-06T11:39:43Z</time>
      </trkpt>
      <trkpt lat="50.17954" lon="3.43757">
        <ele>67.2</ele>
        <time>2023-08-06T11:39:52Z</time>
      </trkpt>
      <trkpt lat="50.17928" lon="3.43742">
        <ele>67.4</ele>
        <time>2023-08-06T11:39:59Z</time>
      </trkpt>
      <trkpt lat="50.17908" lon="3.43729">
        <ele>68</ele>
        <time>2023-08-06T11:40:05Z</time>
      </trkpt>
      <trkpt lat="50.17905" lon="3.43727">
        <ele>68.2</ele>
        <time>2023-08-06T11:40:06Z</time>
      </trkpt>
      <trkpt lat="50.17901" lon="3.43725">
        <ele>68.4</ele>
        <time>2023-08-06T11:40:07Z</time>
      </trkpt>
      <trkpt lat="50.17898" lon="3.43723">
        <ele>68.4</ele>
        <time>2023-08-06T11:40:08Z</time>
      </trkpt>
      <trkpt lat="50.17895" lon="3.43721">
        <ele>68.6</ele>
        <time>2023-08-06T11:40:09Z</time>
      </trkpt>
      <trkpt lat="50.17893" lon="3.43719">
        <ele>68.6</ele>
        <time>2023-08-06T11:40:10Z</time>
      </trkpt>
      <trkpt lat="50.1789" lon="3.43717">
        <ele>69</ele>
        <time>2023-08-06T11:40:11Z</time>
      </trkpt>
      <trkpt lat="50.17887" lon="3.43715">
        <ele>69</ele>
        <time>2023-08-06T11:40:12Z</time>
      </trkpt>
      <trkpt lat="50.17884" lon="3.43713">
        <ele>69.2</ele>
        <time>2023-08-06T11:40:13Z</time>
      </trkpt>
      <trkpt lat="50.17881" lon="3.43712">
        <ele>69.4</ele>
        <time>2023-08-06T11:40:14Z</time>
      </trkpt>
      <trkpt lat="50.17878" lon="3.4371">
        <ele>69.4</ele>
        <time>2023-08-06T11:40:15Z</time>
      </trkpt>
      <trkpt lat="50.17875" lon="3.43708">
        <ele>69.4</ele>
        <time>2023-08-06T11:40:16Z</time>
      </trkpt>
      <trkpt lat="50.17873" lon="3.43706">
        <ele>69.6</ele>
        <time>2023-08-06T11:40:17Z</time>
      </trkpt>
      <trkpt lat="50.17861" lon="3.43699">
        <ele>69.8</ele>
        <time>2023-08-06T11:40:21Z</time>
      </trkpt>
      <trkpt lat="50.17856" lon="3.43696">
        <ele>70</ele>
        <time>2023-08-06T11:40:23Z</time>
      </trkpt>
      <trkpt lat="50.17854" lon="3.43694">
        <ele>70</ele>
        <time>2023-08-06T11:40:24Z</time>
      </trkpt>
      <trkpt lat="50.17851" lon="3.43692">
        <ele>70.2</ele>
        <time>2023-08-06T11:40:25Z</time>
      </trkpt>
      <trkpt lat="50.17849" lon="3.4369">
        <ele>70</ele>
        <time>2023-08-06T11:40:26Z</time>
      </trkpt>
      <trkpt lat="50.17846" lon="3.43688">
        <ele>70.2</ele>
        <time>2023-08-06T11:40:27Z</time>
      </trkpt>
      <trkpt lat="50.17843" lon="3.43686">
        <ele>70.2</ele>
        <time>2023-08-06T11:40:28Z</time>
      </trkpt>
      <trkpt lat="50.17841" lon="3.43684">
        <ele>70.2</ele>
        <time>2023-08-06T11:40:29Z</time>
      </trkpt>
      <trkpt lat="50.17839" lon="3.43682">
        <ele>70.2</ele>
        <time>2023-08-06T11:40:30Z</time>
      </trkpt>
      <trkpt lat="50.17837" lon="3.4368">
        <ele>70.2</ele>
        <time>2023-08-06T11:40:31Z</time>
      </trkpt>
      <trkpt lat="50.1783" lon="3.43675">
        <ele>70.4</ele>
        <time>2023-08-06T11:40:34Z</time>
      </trkpt>
      <trkpt lat="50.17827" lon="3.43673">
        <ele>70.6</ele>
        <time>2023-08-06T11:40:35Z</time>
      </trkpt>
      <trkpt lat="50.17822" lon="3.43668">
        <ele>70.8</ele>
        <time>2023-08-06T11:40:37Z</time>
      </trkpt>
      <trkpt lat="50.17817" lon="3.43664">
        <ele>71</ele>
        <time>2023-08-06T11:40:39Z</time>
      </trkpt>
      <trkpt lat="50.178" lon="3.43649">
        <ele>71.8</ele>
        <time>2023-08-06T11:40:46Z</time>
      </trkpt>
      <trkpt lat="50.17778" lon="3.43632">
        <ele>72</ele>
        <time>2023-08-06T11:40:54Z</time>
      </trkpt>
      <trkpt lat="50.17775" lon="3.43629">
        <ele>72</ele>
        <time>2023-08-06T11:40:55Z</time>
      </trkpt>
      <trkpt lat="50.17745" lon="3.43602">
        <ele>72.4</ele>
        <time>2023-08-06T11:41:05Z</time>
      </trkpt>
      <trkpt lat="50.17722" lon="3.43584">
        <ele>71.6</ele>
        <time>2023-08-06T11:41:12Z</time>
      </trkpt>
      <trkpt lat="50.17687" lon="3.4356">
        <ele>71.8</ele>
        <time>2023-08-06T11:41:21Z</time>
      </trkpt>
      <trkpt lat="50.17683" lon="3.43558">
        <ele>71.8</ele>
        <time>2023-08-06T11:41:22Z</time>
      </trkpt>
      <trkpt lat="50.17655" lon="3.43542">
        <ele>70.8</ele>
        <time>2023-08-06T11:41:29Z</time>
      </trkpt>
      <trkpt lat="50.17645" lon="3.43538">
        <ele>70.4</ele>
        <time>2023-08-06T11:41:31Z</time>
      </trkpt>
      <trkpt lat="50.17602" lon="3.43521">
        <ele>70</ele>
        <time>2023-08-06T11:41:41Z</time>
      </trkpt>
      <trkpt lat="50.17594" lon="3.43518">
        <ele>69.8</ele>
        <time>2023-08-06T11:41:43Z</time>
      </trkpt>
      <trkpt lat="50.17583" lon="3.43513">
        <ele>69.8</ele>
        <time>2023-08-06T11:41:45Z</time>
      </trkpt>
      <trkpt lat="50.17559" lon="3.43503">
        <ele>69</ele>
        <time>2023-08-06T11:41:50Z</time>
      </trkpt>
      <trkpt lat="50.17535" lon="3.43493">
        <ele>68.6</ele>
        <time>2023-08-06T11:41:55Z</time>
      </trkpt>
      <trkpt lat="50.17522" lon="3.43488">
        <ele>68.6</ele>
        <time>2023-08-06T11:41:58Z</time>
      </trkpt>
      <trkpt lat="50.17518" lon="3.43487">
        <ele>68.6</ele>
        <time>2023-08-06T11:41:59Z</time>
      </trkpt>
      <trkpt lat="50.17514" lon="3.43485">
        <ele>68.6</ele>
        <time>2023-08-06T11:42:00Z</time>
      </trkpt>
      <trkpt lat="50.17509" lon="3.43483">
        <ele>68.6</ele>
        <time>2023-08-06T11:42:01Z</time>
      </trkpt>
      <trkpt lat="50.17505" lon="3.43482">
        <ele>68.6</ele>
        <time>2023-08-06T11:42:02Z</time>
      </trkpt>
      <trkpt lat="50.17478" lon="3.43471">
        <ele>67.8</ele>
        <time>2023-08-06T11:42:08Z</time>
      </trkpt>
      <trkpt lat="50.17473" lon="3.4347">
        <ele>67.6</ele>
        <time>2023-08-06T11:42:09Z</time>
      </trkpt>
      <trkpt lat="50.17436" lon="3.43456">
        <ele>67</ele>
        <time>2023-08-06T11:42:16Z</time>
      </trkpt>
      <trkpt lat="50.17381" lon="3.43439">
        <ele>66.4</ele>
        <time>2023-08-06T11:42:26Z</time>
      </trkpt>
      <trkpt lat="50.17364" lon="3.43434">
        <ele>66</ele>
        <time>2023-08-06T11:42:29Z</time>
      </trkpt>
      <trkpt lat="50.1736" lon="3.43432">
        <ele>66</ele>
        <time>2023-08-06T11:42:30Z</time>
      </trkpt>
      <trkpt lat="50.1735" lon="3.43429">
        <ele>65.8</ele>
        <time>2023-08-06T11:42:32Z</time>
      </trkpt>
      <trkpt lat="50.17344" lon="3.43427">
        <ele>65.8</ele>
        <time>2023-08-06T11:42:33Z</time>
      </trkpt>
      <trkpt lat="50.17338" lon="3.43426">
        <ele>65.8</ele>
        <time>2023-08-06T11:42:34Z</time>
      </trkpt>
      <trkpt lat="50.17335" lon="3.43425">
        <ele>65.8</ele>
        <time>2023-08-06T11:42:35Z</time>
      </trkpt>
      <trkpt lat="50.17324" lon="3.43422">
        <ele>65.8</ele>
        <time>2023-08-06T11:42:37Z</time>
      </trkpt>
      <trkpt lat="50.1732" lon="3.4342">
        <ele>65.6</ele>
        <time>2023-08-06T11:42:38Z</time>
      </trkpt>
      <trkpt lat="50.17314" lon="3.43418">
        <ele>65.6</ele>
        <time>2023-08-06T11:42:39Z</time>
      </trkpt>
      <trkpt lat="50.1731" lon="3.43416">
        <ele>65.6</ele>
        <time>2023-08-06T11:42:40Z</time>
      </trkpt>
      <trkpt lat="50.17299" lon="3.43414">
        <ele>65.2</ele>
        <time>2023-08-06T11:42:42Z</time>
      </trkpt>
      <trkpt lat="50.17271" lon="3.43409">
        <ele>64.2</ele>
        <time>2023-08-06T11:42:47Z</time>
      </trkpt>
      <trkpt lat="50.17223" lon="3.43404">
        <ele>63.2</ele>
        <time>2023-08-06T11:42:55Z</time>
      </trkpt>
      <trkpt lat="50.17205" lon="3.43398">
        <ele>62.8</ele>
        <time>2023-08-06T11:42:58Z</time>
      </trkpt>
      <trkpt lat="50.17187" lon="3.4339">
        <ele>62</ele>
        <time>2023-08-06T11:43:01Z</time>
      </trkpt>
      <trkpt lat="50.17175" lon="3.43385">
        <ele>61.8</ele>
        <time>2023-08-06T11:43:03Z</time>
      </trkpt>
      <trkpt lat="50.17123" lon="3.43363">
        <ele>61</ele>
        <time>2023-08-06T11:43:12Z</time>
      </trkpt>
      <trkpt lat="50.17113" lon="3.43359">
        <ele>60.8</ele>
        <time>2023-08-06T11:43:14Z</time>
      </trkpt>
      <trkpt lat="50.17087" lon="3.43349">
        <ele>60.4</ele>
        <time>2023-08-06T11:43:19Z</time>
      </trkpt>
      <trkpt lat="50.1708" lon="3.43346">
        <ele>60.4</ele>
        <time>2023-08-06T11:43:20Z</time>
      </trkpt>
      <trkpt lat="50.1704" lon="3.43329">
        <ele>60.4</ele>
        <time>2023-08-06T11:43:27Z</time>
      </trkpt>
      <trkpt lat="50.17024" lon="3.43322">
        <ele>60.4</ele>
        <time>2023-08-06T11:43:30Z</time>
      </trkpt>
      <trkpt lat="50.17007" lon="3.43315">
        <ele>59.6</ele>
        <time>2023-08-06T11:43:33Z</time>
      </trkpt>
      <trkpt lat="50.16989" lon="3.43309">
        <ele>59.2</ele>
        <time>2023-08-06T11:43:36Z</time>
      </trkpt>
      <trkpt lat="50.16986" lon="3.43307">
        <ele>59</ele>
        <time>2023-08-06T11:43:37Z</time>
      </trkpt>
      <trkpt lat="50.16981" lon="3.43306">
        <ele>59</ele>
        <time>2023-08-06T11:43:38Z</time>
      </trkpt>
      <trkpt lat="50.16976" lon="3.43304">
        <ele>59</ele>
        <time>2023-08-06T11:43:39Z</time>
      </trkpt>
      <trkpt lat="50.16972" lon="3.43303">
        <ele>59</ele>
        <time>2023-08-06T11:43:40Z</time>
      </trkpt>
      <trkpt lat="50.16967" lon="3.433">
        <ele>59.2</ele>
        <time>2023-08-06T11:43:41Z</time>
      </trkpt>
      <trkpt lat="50.16964" lon="3.43298">
        <ele>59.2</ele>
        <time>2023-08-06T11:43:42Z</time>
      </trkpt>
      <trkpt lat="50.16956" lon="3.43293">
        <ele>59.2</ele>
        <time>2023-08-06T11:43:44Z</time>
      </trkpt>
      <trkpt lat="50.16952" lon="3.43291">
        <ele>59.2</ele>
        <time>2023-08-06T11:43:45Z</time>
      </trkpt>
      <trkpt lat="50.16948" lon="3.43287">
        <ele>59.2</ele>
        <time>2023-08-06T11:43:46Z</time>
      </trkpt>
      <trkpt lat="50.16945" lon="3.43284">
        <ele>59</ele>
        <time>2023-08-06T11:43:47Z</time>
      </trkpt>
      <trkpt lat="50.16941" lon="3.43281">
        <ele>59</ele>
        <time>2023-08-06T11:43:48Z</time>
      </trkpt>
      <trkpt lat="50.16938" lon="3.43278">
        <ele>59.2</ele>
        <time>2023-08-06T11:43:49Z</time>
      </trkpt>
      <trkpt lat="50.16934" lon="3.43274">
        <ele>59.4</ele>
        <time>2023-08-06T11:43:50Z</time>
      </trkpt>
      <trkpt lat="50.16931" lon="3.43272">
        <ele>59.4</ele>
        <time>2023-08-06T11:43:51Z</time>
      </trkpt>
      <trkpt lat="50.16927" lon="3.43269">
        <ele>59.4</ele>
        <time>2023-08-06T11:43:52Z</time>
      </trkpt>
      <trkpt lat="50.16924" lon="3.43266">
        <ele>59.4</ele>
        <time>2023-08-06T11:43:53Z</time>
      </trkpt>
      <trkpt lat="50.16921" lon="3.43263">
        <ele>59.4</ele>
        <time>2023-08-06T11:43:54Z</time>
      </trkpt>
      <trkpt lat="50.16917" lon="3.43259">
        <ele>59.4</ele>
        <time>2023-08-06T11:43:55Z</time>
      </trkpt>
      <trkpt lat="50.16914" lon="3.43257">
        <ele>59.4</ele>
        <time>2023-08-06T11:43:56Z</time>
      </trkpt>
      <trkpt lat="50.16911" lon="3.43254">
        <ele>59.4</ele>
        <time>2023-08-06T11:43:57Z</time>
      </trkpt>
      <trkpt lat="50.16907" lon="3.43251">
        <ele>59.6</ele>
        <time>2023-08-06T11:43:58Z</time>
      </trkpt>
      <trkpt lat="50.16905" lon="3.43249">
        <ele>59.6</ele>
        <time>2023-08-06T11:43:59Z</time>
      </trkpt>
      <trkpt lat="50.16902" lon="3.43247">
        <ele>59.6</ele>
        <time>2023-08-06T11:44:00Z</time>
      </trkpt>
      <trkpt lat="50.16899" lon="3.43245">
        <ele>59.6</ele>
        <time>2023-08-06T11:44:01Z</time>
      </trkpt>
      <trkpt lat="50.16896" lon="3.43242">
        <ele>59.6</ele>
        <time>2023-08-06T11:44:02Z</time>
      </trkpt>
      <trkpt lat="50.16893" lon="3.4324">
        <ele>59.6</ele>
        <time>2023-08-06T11:44:03Z</time>
      </trkpt>
      <trkpt lat="50.1689" lon="3.43238">
        <ele>59.6</ele>
        <time>2023-08-06T11:44:04Z</time>
      </trkpt>
      <trkpt lat="50.16887" lon="3.43235">
        <ele>59.6</ele>
        <time>2023-08-06T11:44:05Z</time>
      </trkpt>
      <trkpt lat="50.16885" lon="3.43233">
        <ele>59.6</ele>
        <time>2023-08-06T11:44:06Z</time>
      </trkpt>
      <trkpt lat="50.16883" lon="3.43231">
        <ele>59.8</ele>
        <time>2023-08-06T11:44:07Z</time>
      </trkpt>
      <trkpt lat="50.16879" lon="3.43229">
        <ele>59.8</ele>
        <time>2023-08-06T11:44:08Z</time>
      </trkpt>
      <trkpt lat="50.16876" lon="3.43227">
        <ele>59.8</ele>
        <time>2023-08-06T11:44:09Z</time>
      </trkpt>
      <trkpt lat="50.16873" lon="3.43225">
        <ele>60</ele>
        <time>2023-08-06T11:44:10Z</time>
      </trkpt>
      <trkpt lat="50.16871" lon="3.43223">
        <ele>60.2</ele>
        <time>2023-08-06T11:44:11Z</time>
      </trkpt>
      <trkpt lat="50.16869" lon="3.43222">
        <ele>60.6</ele>
        <time>2023-08-06T11:44:12Z</time>
      </trkpt>
      <trkpt lat="50.16866" lon="3.4322">
        <ele>60.6</ele>
        <time>2023-08-06T11:44:13Z</time>
      </trkpt>
      <trkpt lat="50.16864" lon="3.43218">
        <ele>60.8</ele>
        <time>2023-08-06T11:44:14Z</time>
      </trkpt>
      <trkpt lat="50.16862" lon="3.43217">
        <ele>60.8</ele>
        <time>2023-08-06T11:44:15Z</time>
      </trkpt>
      <trkpt lat="50.1686" lon="3.43215">
        <ele>61</ele>
        <time>2023-08-06T11:44:16Z</time>
      </trkpt>
      <trkpt lat="50.16858" lon="3.43214">
        <ele>61</ele>
        <time>2023-08-06T11:44:17Z</time>
      </trkpt>
      <trkpt lat="50.16856" lon="3.43212">
        <ele>61</ele>
        <time>2023-08-06T11:44:18Z</time>
      </trkpt>
      <trkpt lat="50.16853" lon="3.4321">
        <ele>61</ele>
        <time>2023-08-06T11:44:19Z</time>
      </trkpt>
      <trkpt lat="50.16851" lon="3.43209">
        <ele>61</ele>
        <time>2023-08-06T11:44:20Z</time>
      </trkpt>
      <trkpt lat="50.16849" lon="3.43207">
        <ele>61.2</ele>
        <time>2023-08-06T11:44:21Z</time>
      </trkpt>
      <trkpt lat="50.16847" lon="3.43206">
        <ele>61.2</ele>
        <time>2023-08-06T11:44:22Z</time>
      </trkpt>
      <trkpt lat="50.16845" lon="3.43204">
        <ele>61.4</ele>
        <time>2023-08-06T11:44:23Z</time>
      </trkpt>
      <trkpt lat="50.16843" lon="3.43203">
        <ele>61.4</ele>
        <time>2023-08-06T11:44:24Z</time>
      </trkpt>
      <trkpt lat="50.16842" lon="3.43201">
        <ele>61.4</ele>
        <time>2023-08-06T11:44:25Z</time>
      </trkpt>
      <trkpt lat="50.1684" lon="3.43199">
        <ele>61.4</ele>
        <time>2023-08-06T11:44:26Z</time>
      </trkpt>
      <trkpt lat="50.16836" lon="3.43196">
        <ele>61.4</ele>
        <time>2023-08-06T11:44:28Z</time>
      </trkpt>
      <trkpt lat="50.16832" lon="3.43193">
        <ele>61.6</ele>
        <time>2023-08-06T11:44:30Z</time>
      </trkpt>
      <trkpt lat="50.1683" lon="3.43192">
        <ele>61.6</ele>
        <time>2023-08-06T11:44:31Z</time>
      </trkpt>
      <trkpt lat="50.16829" lon="3.4319">
        <ele>61.8</ele>
        <time>2023-08-06T11:44:32Z</time>
      </trkpt>
      <trkpt lat="50.16827" lon="3.43188">
        <ele>61.8</ele>
        <time>2023-08-06T11:44:33Z</time>
      </trkpt>
      <trkpt lat="50.16825" lon="3.43188">
        <ele>62</ele>
        <time>2023-08-06T11:44:34Z</time>
      </trkpt>
      <trkpt lat="50.16824" lon="3.43187">
        <ele>62</ele>
        <time>2023-08-06T11:44:35Z</time>
      </trkpt>
      <trkpt lat="50.16822" lon="3.43186">
        <ele>62</ele>
        <time>2023-08-06T11:44:36Z</time>
      </trkpt>
      <trkpt lat="50.1682" lon="3.43185">
        <ele>62</ele>
        <time>2023-08-06T11:44:37Z</time>
      </trkpt>
      <trkpt lat="50.16819" lon="3.43184">
        <ele>62.2</ele>
        <time>2023-08-06T11:44:38Z</time>
      </trkpt>
      <trkpt lat="50.16817" lon="3.43183">
        <ele>62.4</ele>
        <time>2023-08-06T11:44:39Z</time>
      </trkpt>
      <trkpt lat="50.16816" lon="3.43182">
        <ele>62.6</ele>
        <time>2023-08-06T11:44:40Z</time>
      </trkpt>
      <trkpt lat="50.16814" lon="3.43182">
        <ele>62.8</ele>
        <time>2023-08-06T11:44:41Z</time>
      </trkpt>
      <trkpt lat="50.1681" lon="3.4318">
        <ele>63</ele>
        <time>2023-08-06T11:44:43Z</time>
      </trkpt>
      <trkpt lat="50.16794" lon="3.43177">
        <ele>63.6</ele>
        <time>2023-08-06T11:44:52Z</time>
      </trkpt>
      <trkpt lat="50.16791" lon="3.43177">
        <ele>64</ele>
        <time>2023-08-06T11:44:53Z</time>
      </trkpt>
      <trkpt lat="50.16778" lon="3.43178">
        <ele>64.6</ele>
        <time>2023-08-06T11:45:00Z</time>
      </trkpt>
      <trkpt lat="50.16776" lon="3.43178">
        <ele>64.6</ele>
        <time>2023-08-06T11:45:01Z</time>
      </trkpt>
      <trkpt lat="50.16775" lon="3.43179">
        <ele>64.6</ele>
        <time>2023-08-06T11:45:02Z</time>
      </trkpt>
      <trkpt lat="50.16773" lon="3.43179">
        <ele>64.6</ele>
        <time>2023-08-06T11:45:03Z</time>
      </trkpt>
      <trkpt lat="50.16771" lon="3.43179">
        <ele>64.6</ele>
        <time>2023-08-06T11:45:04Z</time>
      </trkpt>
      <trkpt lat="50.16763" lon="3.4318">
        <ele>64.6</ele>
        <time>2023-08-06T11:45:08Z</time>
      </trkpt>
      <trkpt lat="50.16753" lon="3.43182">
        <ele>64.6</ele>
        <time>2023-08-06T11:45:13Z</time>
      </trkpt>
      <trkpt lat="50.16745" lon="3.43182">
        <ele>65.8</ele>
        <time>2023-08-06T11:45:17Z</time>
      </trkpt>
      <trkpt lat="50.16738" lon="3.43184">
        <ele>67</ele>
        <time>2023-08-06T11:45:21Z</time>
      </trkpt>
      <trkpt lat="50.16734" lon="3.43184">
        <ele>67.2</ele>
        <time>2023-08-06T11:45:23Z</time>
      </trkpt>
      <trkpt lat="50.16733" lon="3.43184">
        <ele>67.4</ele>
        <time>2023-08-06T11:45:24Z</time>
      </trkpt>
      <trkpt lat="50.16731" lon="3.43184">
        <ele>67.4</ele>
        <time>2023-08-06T11:45:25Z</time>
      </trkpt>
      <trkpt lat="50.16729" lon="3.43184">
        <ele>67.6</ele>
        <time>2023-08-06T11:45:26Z</time>
      </trkpt>
      <trkpt lat="50.16727" lon="3.43184">
        <ele>68</ele>
        <time>2023-08-06T11:45:27Z</time>
      </trkpt>
      <trkpt lat="50.16725" lon="3.43184">
        <ele>68.2</ele>
        <time>2023-08-06T11:45:28Z</time>
      </trkpt>
      <trkpt lat="50.16724" lon="3.43184">
        <ele>68.4</ele>
        <time>2023-08-06T11:45:29Z</time>
      </trkpt>
      <trkpt lat="50.16722" lon="3.43185">
        <ele>68.6</ele>
        <time>2023-08-06T11:45:30Z</time>
      </trkpt>
      <trkpt lat="50.1672" lon="3.43186">
        <ele>68.8</ele>
        <time>2023-08-06T11:45:31Z</time>
      </trkpt>
      <trkpt lat="50.16719" lon="3.43188">
        <ele>68.8</ele>
        <time>2023-08-06T11:45:32Z</time>
      </trkpt>
      <trkpt lat="50.16717" lon="3.43189">
        <ele>69</ele>
        <time>2023-08-06T11:45:33Z</time>
      </trkpt>
      <trkpt lat="50.16716" lon="3.43191">
        <ele>69.4</ele>
        <time>2023-08-06T11:45:34Z</time>
      </trkpt>
      <trkpt lat="50.16714" lon="3.43192">
        <ele>69.4</ele>
        <time>2023-08-06T11:45:35Z</time>
      </trkpt>
      <trkpt lat="50.16712" lon="3.43194">
        <ele>69.6</ele>
        <time>2023-08-06T11:45:36Z</time>
      </trkpt>
      <trkpt lat="50.1671" lon="3.43195">
        <ele>69.6</ele>
        <time>2023-08-06T11:45:37Z</time>
      </trkpt>
      <trkpt lat="50.16709" lon="3.43196">
        <ele>69.6</ele>
        <time>2023-08-06T11:45:38Z</time>
      </trkpt>
      <trkpt lat="50.16707" lon="3.43197">
        <ele>69.6</ele>
        <time>2023-08-06T11:45:39Z</time>
      </trkpt>
      <trkpt lat="50.16705" lon="3.43197">
        <ele>69.6</ele>
        <time>2023-08-06T11:45:40Z</time>
      </trkpt>
      <trkpt lat="50.16703" lon="3.43197">
        <ele>69.8</ele>
        <time>2023-08-06T11:45:41Z</time>
      </trkpt>
      <trkpt lat="50.16701" lon="3.43196">
        <ele>69.8</ele>
        <time>2023-08-06T11:45:42Z</time>
      </trkpt>
      <trkpt lat="50.16699" lon="3.43196">
        <ele>70</ele>
        <time>2023-08-06T11:45:43Z</time>
      </trkpt>
      <trkpt lat="50.16697" lon="3.43194">
        <ele>70</ele>
        <time>2023-08-06T11:45:44Z</time>
      </trkpt>
      <trkpt lat="50.16696" lon="3.43193">
        <ele>70</ele>
        <time>2023-08-06T11:45:45Z</time>
      </trkpt>
      <trkpt lat="50.16694" lon="3.43191">
        <ele>70</ele>
        <time>2023-08-06T11:45:46Z</time>
      </trkpt>
      <trkpt lat="50.16692" lon="3.4319">
        <ele>70</ele>
        <time>2023-08-06T11:45:47Z</time>
      </trkpt>
      <trkpt lat="50.1669" lon="3.4319">
        <ele>70.2</ele>
        <time>2023-08-06T11:45:48Z</time>
      </trkpt>
      <trkpt lat="50.16687" lon="3.43188">
        <ele>70.2</ele>
        <time>2023-08-06T11:45:49Z</time>
      </trkpt>
      <trkpt lat="50.16685" lon="3.43187">
        <ele>70.4</ele>
        <time>2023-08-06T11:45:50Z</time>
      </trkpt>
      <trkpt lat="50.16684" lon="3.43186">
        <ele>70.4</ele>
        <time>2023-08-06T11:45:51Z</time>
      </trkpt>
      <trkpt lat="50.16682" lon="3.43185">
        <ele>70.6</ele>
        <time>2023-08-06T11:45:52Z</time>
      </trkpt>
      <trkpt lat="50.1668" lon="3.43183">
        <ele>70.6</ele>
        <time>2023-08-06T11:45:53Z</time>
      </trkpt>
      <trkpt lat="50.16678" lon="3.43181">
        <ele>70.6</ele>
        <time>2023-08-06T11:45:54Z</time>
      </trkpt>
      <trkpt lat="50.16676" lon="3.43179">
        <ele>70.6</ele>
        <time>2023-08-06T11:45:55Z</time>
      </trkpt>
      <trkpt lat="50.16674" lon="3.43177">
        <ele>70.8</ele>
        <time>2023-08-06T11:45:56Z</time>
      </trkpt>
      <trkpt lat="50.16668" lon="3.4317">
        <ele>71</ele>
        <time>2023-08-06T11:45:59Z</time>
      </trkpt>
      <trkpt lat="50.16664" lon="3.43166">
        <ele>71.4</ele>
        <time>2023-08-06T11:46:01Z</time>
      </trkpt>
      <trkpt lat="50.16656" lon="3.43156">
        <ele>72.4</ele>
        <time>2023-08-06T11:46:05Z</time>
      </trkpt>
      <trkpt lat="50.16652" lon="3.43151">
        <ele>72.8</ele>
        <time>2023-08-06T11:46:07Z</time>
      </trkpt>
      <trkpt lat="50.16649" lon="3.43148">
        <ele>72.8</ele>
        <time>2023-08-06T11:46:08Z</time>
      </trkpt>
      <trkpt lat="50.16647" lon="3.43145">
        <ele>73</ele>
        <time>2023-08-06T11:46:09Z</time>
      </trkpt>
      <trkpt lat="50.16644" lon="3.43141">
        <ele>73</ele>
        <time>2023-08-06T11:46:10Z</time>
      </trkpt>
      <trkpt lat="50.16641" lon="3.43138">
        <ele>73</ele>
        <time>2023-08-06T11:46:11Z</time>
      </trkpt>
      <trkpt lat="50.16639" lon="3.43136">
        <ele>73</ele>
        <time>2023-08-06T11:46:12Z</time>
      </trkpt>
      <trkpt lat="50.16636" lon="3.43132">
        <ele>73</ele>
        <time>2023-08-06T11:46:13Z</time>
      </trkpt>
      <trkpt lat="50.16633" lon="3.4313">
        <ele>73</ele>
        <time>2023-08-06T11:46:14Z</time>
      </trkpt>
      <trkpt lat="50.1663" lon="3.43126">
        <ele>73</ele>
        <time>2023-08-06T11:46:15Z</time>
      </trkpt>
      <trkpt lat="50.16628" lon="3.43123">
        <ele>73</ele>
        <time>2023-08-06T11:46:16Z</time>
      </trkpt>
      <trkpt lat="50.16625" lon="3.4312">
        <ele>72.8</ele>
        <time>2023-08-06T11:46:17Z</time>
      </trkpt>
      <trkpt lat="50.16622" lon="3.43116">
        <ele>72.8</ele>
        <time>2023-08-06T11:46:18Z</time>
      </trkpt>
      <trkpt lat="50.16619" lon="3.43112">
        <ele>72.8</ele>
        <time>2023-08-06T11:46:19Z</time>
      </trkpt>
      <trkpt lat="50.16615" lon="3.43108">
        <ele>72.8</ele>
        <time>2023-08-06T11:46:20Z</time>
      </trkpt>
      <trkpt lat="50.16607" lon="3.431">
        <ele>72.6</ele>
        <time>2023-08-06T11:46:22Z</time>
      </trkpt>
      <trkpt lat="50.1659" lon="3.43082">
        <ele>72</ele>
        <time>2023-08-06T11:46:26Z</time>
      </trkpt>
      <trkpt lat="50.1658" lon="3.43074">
        <ele>71.4</ele>
        <time>2023-08-06T11:46:28Z</time>
      </trkpt>
      <trkpt lat="50.16575" lon="3.4307">
        <ele>71.4</ele>
        <time>2023-08-06T11:46:29Z</time>
      </trkpt>
      <trkpt lat="50.16571" lon="3.43066">
        <ele>71.2</ele>
        <time>2023-08-06T11:46:30Z</time>
      </trkpt>
      <trkpt lat="50.16567" lon="3.43062">
        <ele>70.8</ele>
        <time>2023-08-06T11:46:31Z</time>
      </trkpt>
      <trkpt lat="50.1655" lon="3.43048">
        <ele>70.2</ele>
        <time>2023-08-06T11:46:34Z</time>
      </trkpt>
      <trkpt lat="50.16542" lon="3.43043">
        <ele>69.8</ele>
        <time>2023-08-06T11:46:36Z</time>
      </trkpt>
      <trkpt lat="50.16531" lon="3.43043">
        <ele>69</ele>
        <time>2023-08-06T11:46:38Z</time>
      </trkpt>
      <trkpt lat="50.16526" lon="3.43047">
        <ele>68.8</ele>
        <time>2023-08-06T11:46:39Z</time>
      </trkpt>
      <trkpt lat="50.16523" lon="3.43052">
        <ele>68.4</ele>
        <time>2023-08-06T11:46:40Z</time>
      </trkpt>
      <trkpt lat="50.16518" lon="3.43066">
        <ele>67.6</ele>
        <time>2023-08-06T11:46:42Z</time>
      </trkpt>
      <trkpt lat="50.16517" lon="3.43072">
        <ele>67.4</ele>
        <time>2023-08-06T11:46:43Z</time>
      </trkpt>
      <trkpt lat="50.16515" lon="3.43077">
        <ele>67.2</ele>
        <time>2023-08-06T11:46:44Z</time>
      </trkpt>
      <trkpt lat="50.16514" lon="3.43082">
        <ele>67</ele>
        <time>2023-08-06T11:46:45Z</time>
      </trkpt>
      <trkpt lat="50.16512" lon="3.43087">
        <ele>67</ele>
        <time>2023-08-06T11:46:46Z</time>
      </trkpt>
      <trkpt lat="50.16511" lon="3.43092">
        <ele>67</ele>
        <time>2023-08-06T11:46:47Z</time>
      </trkpt>
      <trkpt lat="50.1651" lon="3.43097">
        <ele>67</ele>
        <time>2023-08-06T11:46:48Z</time>
      </trkpt>
      <trkpt lat="50.16508" lon="3.43107">
        <ele>67</ele>
        <time>2023-08-06T11:46:50Z</time>
      </trkpt>
      <trkpt lat="50.165" lon="3.43138">
        <ele>67.6</ele>
        <time>2023-08-06T11:46:56Z</time>
      </trkpt>
      <trkpt lat="50.1649" lon="3.43174">
        <ele>68.2</ele>
        <time>2023-08-06T11:47:03Z</time>
      </trkpt>
      <trkpt lat="50.16484" lon="3.43192">
        <ele>68.8</ele>
        <time>2023-08-06T11:47:07Z</time>
      </trkpt>
      <trkpt lat="50.16482" lon="3.43197">
        <ele>68.8</ele>
        <time>2023-08-06T11:47:08Z</time>
      </trkpt>
      <trkpt lat="50.16481" lon="3.43201">
        <ele>69</ele>
        <time>2023-08-06T11:47:09Z</time>
      </trkpt>
      <trkpt lat="50.1648" lon="3.43206">
        <ele>69.2</ele>
        <time>2023-08-06T11:47:10Z</time>
      </trkpt>
      <trkpt lat="50.16478" lon="3.4321">
        <ele>69.2</ele>
        <time>2023-08-06T11:47:11Z</time>
      </trkpt>
      <trkpt lat="50.16476" lon="3.43213">
        <ele>69.4</ele>
        <time>2023-08-06T11:47:12Z</time>
      </trkpt>
      <trkpt lat="50.16474" lon="3.43218">
        <ele>69.6</ele>
        <time>2023-08-06T11:47:13Z</time>
      </trkpt>
      <trkpt lat="50.16472" lon="3.43222">
        <ele>69.8</ele>
        <time>2023-08-06T11:47:14Z</time>
      </trkpt>
      <trkpt lat="50.16468" lon="3.43231">
        <ele>70.2</ele>
        <time>2023-08-06T11:47:16Z</time>
      </trkpt>
      <trkpt lat="50.16463" lon="3.43244">
        <ele>70.2</ele>
        <time>2023-08-06T11:47:19Z</time>
      </trkpt>
      <trkpt lat="50.16456" lon="3.43261">
        <ele>70.8</ele>
        <time>2023-08-06T11:47:23Z</time>
      </trkpt>
      <trkpt lat="50.16454" lon="3.43266">
        <ele>71</ele>
        <time>2023-08-06T11:47:24Z</time>
      </trkpt>
      <trkpt lat="50.16453" lon="3.4327">
        <ele>71.2</ele>
        <time>2023-08-06T11:47:25Z</time>
      </trkpt>
      <trkpt lat="50.16451" lon="3.43275">
        <ele>71.4</ele>
        <time>2023-08-06T11:47:26Z</time>
      </trkpt>
      <trkpt lat="50.1645" lon="3.4328">
        <ele>71.6</ele>
        <time>2023-08-06T11:47:27Z</time>
      </trkpt>
      <trkpt lat="50.16448" lon="3.43285">
        <ele>71.8</ele>
        <time>2023-08-06T11:47:28Z</time>
      </trkpt>
      <trkpt lat="50.16447" lon="3.4329">
        <ele>72</ele>
        <time>2023-08-06T11:47:29Z</time>
      </trkpt>
      <trkpt lat="50.16446" lon="3.43295">
        <ele>72.4</ele>
        <time>2023-08-06T11:47:30Z</time>
      </trkpt>
      <trkpt lat="50.16444" lon="3.43299">
        <ele>72.6</ele>
        <time>2023-08-06T11:47:31Z</time>
      </trkpt>
      <trkpt lat="50.16442" lon="3.43304">
        <ele>72.6</ele>
        <time>2023-08-06T11:47:32Z</time>
      </trkpt>
      <trkpt lat="50.16441" lon="3.43308">
        <ele>72.8</ele>
        <time>2023-08-06T11:47:33Z</time>
      </trkpt>
      <trkpt lat="50.16439" lon="3.43313">
        <ele>72.8</ele>
        <time>2023-08-06T11:47:34Z</time>
      </trkpt>
      <trkpt lat="50.16438" lon="3.43318">
        <ele>73</ele>
        <time>2023-08-06T11:47:35Z</time>
      </trkpt>
      <trkpt lat="50.16436" lon="3.43322">
        <ele>73</ele>
        <time>2023-08-06T11:47:36Z</time>
      </trkpt>
      <trkpt lat="50.16435" lon="3.43327">
        <ele>73.2</ele>
        <time>2023-08-06T11:47:37Z</time>
      </trkpt>
      <trkpt lat="50.16433" lon="3.43331">
        <ele>73.2</ele>
        <time>2023-08-06T11:47:38Z</time>
      </trkpt>
      <trkpt lat="50.16432" lon="3.43335">
        <ele>73.6</ele>
        <time>2023-08-06T11:47:39Z</time>
      </trkpt>
      <trkpt lat="50.1643" lon="3.43339">
        <ele>73.6</ele>
        <time>2023-08-06T11:47:40Z</time>
      </trkpt>
      <trkpt lat="50.16428" lon="3.43344">
        <ele>73.8</ele>
        <time>2023-08-06T11:47:41Z</time>
      </trkpt>
      <trkpt lat="50.16427" lon="3.43348">
        <ele>74</ele>
        <time>2023-08-06T11:47:42Z</time>
      </trkpt>
      <trkpt lat="50.16426" lon="3.43352">
        <ele>74</ele>
        <time>2023-08-06T11:47:43Z</time>
      </trkpt>
      <trkpt lat="50.16424" lon="3.43357">
        <ele>74.2</ele>
        <time>2023-08-06T11:47:44Z</time>
      </trkpt>
      <trkpt lat="50.16423" lon="3.43361">
        <ele>74.2</ele>
        <time>2023-08-06T11:47:45Z</time>
      </trkpt>
      <trkpt lat="50.16421" lon="3.43365">
        <ele>74.4</ele>
        <time>2023-08-06T11:47:46Z</time>
      </trkpt>
      <trkpt lat="50.16419" lon="3.4337">
        <ele>74.4</ele>
        <time>2023-08-06T11:47:47Z</time>
      </trkpt>
      <trkpt lat="50.16417" lon="3.43375">
        <ele>74.6</ele>
        <time>2023-08-06T11:47:48Z</time>
      </trkpt>
      <trkpt lat="50.16416" lon="3.4338">
        <ele>74.8</ele>
        <time>2023-08-06T11:47:49Z</time>
      </trkpt>
      <trkpt lat="50.16414" lon="3.43385">
        <ele>75</ele>
        <time>2023-08-06T11:47:50Z</time>
      </trkpt>
      <trkpt lat="50.16412" lon="3.43389">
        <ele>75.2</ele>
        <time>2023-08-06T11:47:51Z</time>
      </trkpt>
      <trkpt lat="50.16411" lon="3.43393">
        <ele>75.4</ele>
        <time>2023-08-06T11:47:52Z</time>
      </trkpt>
      <trkpt lat="50.16409" lon="3.43398">
        <ele>75.4</ele>
        <time>2023-08-06T11:47:53Z</time>
      </trkpt>
      <trkpt lat="50.16406" lon="3.43403">
        <ele>75.4</ele>
        <time>2023-08-06T11:47:54Z</time>
      </trkpt>
      <trkpt lat="50.16404" lon="3.43407">
        <ele>75.6</ele>
        <time>2023-08-06T11:47:55Z</time>
      </trkpt>
      <trkpt lat="50.16402" lon="3.43412">
        <ele>75.6</ele>
        <time>2023-08-06T11:47:56Z</time>
      </trkpt>
      <trkpt lat="50.164" lon="3.43417">
        <ele>75.6</ele>
        <time>2023-08-06T11:47:57Z</time>
      </trkpt>
      <trkpt lat="50.16397" lon="3.43422">
        <ele>75.6</ele>
        <time>2023-08-06T11:47:58Z</time>
      </trkpt>
      <trkpt lat="50.16395" lon="3.43427">
        <ele>75.6</ele>
        <time>2023-08-06T11:47:59Z</time>
      </trkpt>
      <trkpt lat="50.16392" lon="3.43434">
        <ele>75.6</ele>
        <time>2023-08-06T11:48:00Z</time>
      </trkpt>
      <trkpt lat="50.1639" lon="3.43438">
        <ele>75.6</ele>
        <time>2023-08-06T11:48:01Z</time>
      </trkpt>
      <trkpt lat="50.16387" lon="3.43444">
        <ele>75.6</ele>
        <time>2023-08-06T11:48:02Z</time>
      </trkpt>
      <trkpt lat="50.16384" lon="3.4345">
        <ele>75.6</ele>
        <time>2023-08-06T11:48:03Z</time>
      </trkpt>
      <trkpt lat="50.16382" lon="3.43456">
        <ele>75.8</ele>
        <time>2023-08-06T11:48:04Z</time>
      </trkpt>
      <trkpt lat="50.16379" lon="3.43463">
        <ele>75.8</ele>
        <time>2023-08-06T11:48:05Z</time>
      </trkpt>
      <trkpt lat="50.16377" lon="3.43468">
        <ele>75.8</ele>
        <time>2023-08-06T11:48:06Z</time>
      </trkpt>
      <trkpt lat="50.16362" lon="3.43501">
        <ele>75.8</ele>
        <time>2023-08-06T11:48:11Z</time>
      </trkpt>
      <trkpt lat="50.16328" lon="3.4357">
        <ele>75.8</ele>
        <time>2023-08-06T11:48:22Z</time>
      </trkpt>
      <trkpt lat="50.16313" lon="3.43602">
        <ele>76</ele>
        <time>2023-08-06T11:48:27Z</time>
      </trkpt>
      <trkpt lat="50.16307" lon="3.43614">
        <ele>76.4</ele>
        <time>2023-08-06T11:48:29Z</time>
      </trkpt>
      <trkpt lat="50.16288" lon="3.4365">
        <ele>77</ele>
        <time>2023-08-06T11:48:35Z</time>
      </trkpt>
      <trkpt lat="50.16261" lon="3.43703">
        <ele>77.4</ele>
        <time>2023-08-06T11:48:43Z</time>
      </trkpt>
      <trkpt lat="50.16248" lon="3.43727">
        <ele>77.6</ele>
        <time>2023-08-06T11:48:47Z</time>
      </trkpt>
      <trkpt lat="50.16245" lon="3.43732">
        <ele>77.8</ele>
        <time>2023-08-06T11:48:48Z</time>
      </trkpt>
      <trkpt lat="50.16226" lon="3.43766">
        <ele>78</ele>
        <time>2023-08-06T11:48:54Z</time>
      </trkpt>
      <trkpt lat="50.16219" lon="3.43778">
        <ele>78</ele>
        <time>2023-08-06T11:48:56Z</time>
      </trkpt>
      <trkpt lat="50.16203" lon="3.43807">
        <ele>78.4</ele>
        <time>2023-08-06T11:49:01Z</time>
      </trkpt>
      <trkpt lat="50.1619" lon="3.43829">
        <ele>78.8</ele>
        <time>2023-08-06T11:49:05Z</time>
      </trkpt>
      <trkpt lat="50.16187" lon="3.43835">
        <ele>79</ele>
        <time>2023-08-06T11:49:06Z</time>
      </trkpt>
      <trkpt lat="50.16184" lon="3.43839">
        <ele>79.2</ele>
        <time>2023-08-06T11:49:07Z</time>
      </trkpt>
      <trkpt lat="50.16181" lon="3.43844">
        <ele>79.2</ele>
        <time>2023-08-06T11:49:08Z</time>
      </trkpt>
      <trkpt lat="50.16178" lon="3.43849">
        <ele>79.4</ele>
        <time>2023-08-06T11:49:09Z</time>
      </trkpt>
      <trkpt lat="50.16175" lon="3.43854">
        <ele>79.4</ele>
        <time>2023-08-06T11:49:10Z</time>
      </trkpt>
      <trkpt lat="50.16172" lon="3.43858">
        <ele>79.2</ele>
        <time>2023-08-06T11:49:11Z</time>
      </trkpt>
      <trkpt lat="50.1617" lon="3.43863">
        <ele>79.4</ele>
        <time>2023-08-06T11:49:12Z</time>
      </trkpt>
      <trkpt lat="50.16168" lon="3.43866">
        <ele>79.6</ele>
        <time>2023-08-06T11:49:13Z</time>
      </trkpt>
      <trkpt lat="50.16165" lon="3.43872">
        <ele>79.6</ele>
        <time>2023-08-06T11:49:14Z</time>
      </trkpt>
      <trkpt lat="50.16163" lon="3.43876">
        <ele>79.8</ele>
        <time>2023-08-06T11:49:15Z</time>
      </trkpt>
      <trkpt lat="50.16158" lon="3.43883">
        <ele>80</ele>
        <time>2023-08-06T11:49:17Z</time>
      </trkpt>
      <trkpt lat="50.16156" lon="3.43887">
        <ele>80.2</ele>
        <time>2023-08-06T11:49:18Z</time>
      </trkpt>
      <trkpt lat="50.16154" lon="3.43891">
        <ele>80.2</ele>
        <time>2023-08-06T11:49:19Z</time>
      </trkpt>
      <trkpt lat="50.16152" lon="3.43895">
        <ele>80.4</ele>
        <time>2023-08-06T11:49:20Z</time>
      </trkpt>
      <trkpt lat="50.16149" lon="3.43898">
        <ele>80.4</ele>
        <time>2023-08-06T11:49:21Z</time>
      </trkpt>
      <trkpt lat="50.16148" lon="3.43901">
        <ele>80.4</ele>
        <time>2023-08-06T11:49:22Z</time>
      </trkpt>
      <trkpt lat="50.16146" lon="3.43905">
        <ele>80.6</ele>
        <time>2023-08-06T11:49:23Z</time>
      </trkpt>
      <trkpt lat="50.16143" lon="3.4391">
        <ele>80.6</ele>
        <time>2023-08-06T11:49:24Z</time>
      </trkpt>
      <trkpt lat="50.16142" lon="3.43913">
        <ele>80.6</ele>
        <time>2023-08-06T11:49:25Z</time>
      </trkpt>
      <trkpt lat="50.16139" lon="3.43917">
        <ele>81</ele>
        <time>2023-08-06T11:49:26Z</time>
      </trkpt>
      <trkpt lat="50.16138" lon="3.43921">
        <ele>81</ele>
        <time>2023-08-06T11:49:27Z</time>
      </trkpt>
      <trkpt lat="50.16135" lon="3.43924">
        <ele>81.4</ele>
        <time>2023-08-06T11:49:28Z</time>
      </trkpt>
      <trkpt lat="50.16133" lon="3.43927">
        <ele>81.4</ele>
        <time>2023-08-06T11:49:29Z</time>
      </trkpt>
      <trkpt lat="50.16129" lon="3.43935">
        <ele>81.6</ele>
        <time>2023-08-06T11:49:31Z</time>
      </trkpt>
      <trkpt lat="50.16127" lon="3.43939">
        <ele>81.8</ele>
        <time>2023-08-06T11:49:32Z</time>
      </trkpt>
      <trkpt lat="50.16125" lon="3.43943">
        <ele>82</ele>
        <time>2023-08-06T11:49:33Z</time>
      </trkpt>
      <trkpt lat="50.16123" lon="3.43947">
        <ele>82</ele>
        <time>2023-08-06T11:49:34Z</time>
      </trkpt>
      <trkpt lat="50.16121" lon="3.4395">
        <ele>82.2</ele>
        <time>2023-08-06T11:49:35Z</time>
      </trkpt>
      <trkpt lat="50.16119" lon="3.43954">
        <ele>82.2</ele>
        <time>2023-08-06T11:49:36Z</time>
      </trkpt>
      <trkpt lat="50.16117" lon="3.43957">
        <ele>82.6</ele>
        <time>2023-08-06T11:49:37Z</time>
      </trkpt>
      <trkpt lat="50.16115" lon="3.43961">
        <ele>82.8</ele>
        <time>2023-08-06T11:49:38Z</time>
      </trkpt>
      <trkpt lat="50.16113" lon="3.43965">
        <ele>82.8</ele>
        <time>2023-08-06T11:49:39Z</time>
      </trkpt>
      <trkpt lat="50.1611" lon="3.43969">
        <ele>83</ele>
        <time>2023-08-06T11:49:40Z</time>
      </trkpt>
      <trkpt lat="50.16108" lon="3.43972">
        <ele>83.2</ele>
        <time>2023-08-06T11:49:41Z</time>
      </trkpt>
      <trkpt lat="50.16106" lon="3.43976">
        <ele>83.2</ele>
        <time>2023-08-06T11:49:42Z</time>
      </trkpt>
      <trkpt lat="50.16104" lon="3.43979">
        <ele>83.4</ele>
        <time>2023-08-06T11:49:43Z</time>
      </trkpt>
      <trkpt lat="50.16101" lon="3.43983">
        <ele>83.8</ele>
        <time>2023-08-06T11:49:44Z</time>
      </trkpt>
      <trkpt lat="50.16099" lon="3.43987">
        <ele>84</ele>
        <time>2023-08-06T11:49:45Z</time>
      </trkpt>
      <trkpt lat="50.16096" lon="3.4399">
        <ele>84.2</ele>
        <time>2023-08-06T11:49:46Z</time>
      </trkpt>
      <trkpt lat="50.16094" lon="3.43993">
        <ele>84.6</ele>
        <time>2023-08-06T11:49:47Z</time>
      </trkpt>
      <trkpt lat="50.16091" lon="3.43998">
        <ele>84.8</ele>
        <time>2023-08-06T11:49:48Z</time>
      </trkpt>
      <trkpt lat="50.16089" lon="3.44002">
        <ele>85.2</ele>
        <time>2023-08-06T11:49:49Z</time>
      </trkpt>
      <trkpt lat="50.16086" lon="3.44006">
        <ele>85.2</ele>
        <time>2023-08-06T11:49:50Z</time>
      </trkpt>
      <trkpt lat="50.16083" lon="3.4401">
        <ele>85.4</ele>
        <time>2023-08-06T11:49:51Z</time>
      </trkpt>
      <trkpt lat="50.16081" lon="3.44014">
        <ele>85.4</ele>
        <time>2023-08-06T11:49:52Z</time>
      </trkpt>
      <trkpt lat="50.16078" lon="3.44019">
        <ele>85.6</ele>
        <time>2023-08-06T11:49:53Z</time>
      </trkpt>
      <trkpt lat="50.16075" lon="3.44023">
        <ele>85.8</ele>
        <time>2023-08-06T11:49:54Z</time>
      </trkpt>
      <trkpt lat="50.16073" lon="3.44028">
        <ele>85.8</ele>
        <time>2023-08-06T11:49:55Z</time>
      </trkpt>
      <trkpt lat="50.1607" lon="3.44031">
        <ele>86</ele>
        <time>2023-08-06T11:49:56Z</time>
      </trkpt>
      <trkpt lat="50.16066" lon="3.44037">
        <ele>86</ele>
        <time>2023-08-06T11:49:57Z</time>
      </trkpt>
      <trkpt lat="50.16062" lon="3.44041">
        <ele>86</ele>
        <time>2023-08-06T11:49:58Z</time>
      </trkpt>
      <trkpt lat="50.16059" lon="3.44046">
        <ele>86</ele>
        <time>2023-08-06T11:49:59Z</time>
      </trkpt>
      <trkpt lat="50.16055" lon="3.44051">
        <ele>85.8</ele>
        <time>2023-08-06T11:50:00Z</time>
      </trkpt>
      <trkpt lat="50.16051" lon="3.44055">
        <ele>85.6</ele>
        <time>2023-08-06T11:50:01Z</time>
      </trkpt>
      <trkpt lat="50.16047" lon="3.4406">
        <ele>85.6</ele>
        <time>2023-08-06T11:50:02Z</time>
      </trkpt>
      <trkpt lat="50.16043" lon="3.44065">
        <ele>85.4</ele>
        <time>2023-08-06T11:50:03Z</time>
      </trkpt>
      <trkpt lat="50.16039" lon="3.4407">
        <ele>85.4</ele>
        <time>2023-08-06T11:50:04Z</time>
      </trkpt>
      <trkpt lat="50.16035" lon="3.44075">
        <ele>85.2</ele>
        <time>2023-08-06T11:50:05Z</time>
      </trkpt>
      <trkpt lat="50.16031" lon="3.4408">
        <ele>85</ele>
        <time>2023-08-06T11:50:06Z</time>
      </trkpt>
      <trkpt lat="50.16026" lon="3.44086">
        <ele>84.8</ele>
        <time>2023-08-06T11:50:07Z</time>
      </trkpt>
      <trkpt lat="50.16013" lon="3.44103">
        <ele>84.4</ele>
        <time>2023-08-06T11:50:10Z</time>
      </trkpt>
      <trkpt lat="50.16002" lon="3.44116">
        <ele>84</ele>
        <time>2023-08-06T11:50:12Z</time>
      </trkpt>
      <trkpt lat="50.15981" lon="3.44142">
        <ele>82.8</ele>
        <time>2023-08-06T11:50:16Z</time>
      </trkpt>
      <trkpt lat="50.1597" lon="3.44155">
        <ele>82.4</ele>
        <time>2023-08-06T11:50:18Z</time>
      </trkpt>
      <trkpt lat="50.15952" lon="3.44171">
        <ele>81.8</ele>
        <time>2023-08-06T11:50:21Z</time>
      </trkpt>
      <trkpt lat="50.15934" lon="3.44182">
        <ele>81</ele>
        <time>2023-08-06T11:50:24Z</time>
      </trkpt>
      <trkpt lat="50.15928" lon="3.44186">
        <ele>80.8</ele>
        <time>2023-08-06T11:50:25Z</time>
      </trkpt>
      <trkpt lat="50.1591" lon="3.44201">
        <ele>80.2</ele>
        <time>2023-08-06T11:50:28Z</time>
      </trkpt>
      <trkpt lat="50.15905" lon="3.44207">
        <ele>80</ele>
        <time>2023-08-06T11:50:29Z</time>
      </trkpt>
      <trkpt lat="50.159" lon="3.44212">
        <ele>80</ele>
        <time>2023-08-06T11:50:30Z</time>
      </trkpt>
      <trkpt lat="50.15896" lon="3.44218">
        <ele>79.8</ele>
        <time>2023-08-06T11:50:31Z</time>
      </trkpt>
      <trkpt lat="50.15892" lon="3.44224">
        <ele>79.6</ele>
        <time>2023-08-06T11:50:32Z</time>
      </trkpt>
      <trkpt lat="50.15888" lon="3.4423">
        <ele>79.6</ele>
        <time>2023-08-06T11:50:33Z</time>
      </trkpt>
      <trkpt lat="50.15885" lon="3.44235">
        <ele>79.6</ele>
        <time>2023-08-06T11:50:34Z</time>
      </trkpt>
      <trkpt lat="50.15882" lon="3.44241">
        <ele>79.6</ele>
        <time>2023-08-06T11:50:35Z</time>
      </trkpt>
      <trkpt lat="50.15879" lon="3.44246">
        <ele>79.6</ele>
        <time>2023-08-06T11:50:36Z</time>
      </trkpt>
      <trkpt lat="50.15876" lon="3.44251">
        <ele>79.6</ele>
        <time>2023-08-06T11:50:37Z</time>
      </trkpt>
      <trkpt lat="50.15873" lon="3.44255">
        <ele>79.6</ele>
        <time>2023-08-06T11:50:38Z</time>
      </trkpt>
      <trkpt lat="50.15869" lon="3.4426">
        <ele>79.8</ele>
        <time>2023-08-06T11:50:39Z</time>
      </trkpt>
      <trkpt lat="50.1586" lon="3.44275">
        <ele>80.2</ele>
        <time>2023-08-06T11:50:42Z</time>
      </trkpt>
      <trkpt lat="50.15836" lon="3.44315">
        <ele>80.4</ele>
        <time>2023-08-06T11:50:50Z</time>
      </trkpt>
      <trkpt lat="50.15831" lon="3.44324">
        <ele>80.6</ele>
        <time>2023-08-06T11:50:52Z</time>
      </trkpt>
      <trkpt lat="50.15828" lon="3.44329">
        <ele>80.6</ele>
        <time>2023-08-06T11:50:53Z</time>
      </trkpt>
      <trkpt lat="50.15826" lon="3.44334">
        <ele>80.4</ele>
        <time>2023-08-06T11:50:54Z</time>
      </trkpt>
      <trkpt lat="50.15824" lon="3.44338">
        <ele>80.4</ele>
        <time>2023-08-06T11:50:55Z</time>
      </trkpt>
      <trkpt lat="50.15823" lon="3.44343">
        <ele>80.4</ele>
        <time>2023-08-06T11:50:56Z</time>
      </trkpt>
      <trkpt lat="50.15821" lon="3.44346">
        <ele>80.6</ele>
        <time>2023-08-06T11:50:57Z</time>
      </trkpt>
      <trkpt lat="50.15819" lon="3.44351">
        <ele>80.8</ele>
        <time>2023-08-06T11:50:58Z</time>
      </trkpt>
      <trkpt lat="50.15818" lon="3.44355">
        <ele>81</ele>
        <time>2023-08-06T11:50:59Z</time>
      </trkpt>
      <trkpt lat="50.15817" lon="3.44358">
        <ele>81.2</ele>
        <time>2023-08-06T11:51:00Z</time>
      </trkpt>
      <trkpt lat="50.15814" lon="3.44365">
        <ele>81.4</ele>
        <time>2023-08-06T11:51:02Z</time>
      </trkpt>
      <trkpt lat="50.15813" lon="3.44369">
        <ele>81.6</ele>
        <time>2023-08-06T11:51:03Z</time>
      </trkpt>
      <trkpt lat="50.15812" lon="3.44372">
        <ele>81.8</ele>
        <time>2023-08-06T11:51:04Z</time>
      </trkpt>
      <trkpt lat="50.15811" lon="3.44376">
        <ele>81.8</ele>
        <time>2023-08-06T11:51:05Z</time>
      </trkpt>
      <trkpt lat="50.1581" lon="3.44379">
        <ele>82.2</ele>
        <time>2023-08-06T11:51:06Z</time>
      </trkpt>
      <trkpt lat="50.15809" lon="3.44382">
        <ele>82.6</ele>
        <time>2023-08-06T11:51:07Z</time>
      </trkpt>
      <trkpt lat="50.15807" lon="3.44385">
        <ele>82.8</ele>
        <time>2023-08-06T11:51:08Z</time>
      </trkpt>
      <trkpt lat="50.15806" lon="3.44388">
        <ele>83.2</ele>
        <time>2023-08-06T11:51:09Z</time>
      </trkpt>
      <trkpt lat="50.15805" lon="3.44391">
        <ele>83.4</ele>
        <time>2023-08-06T11:51:10Z</time>
      </trkpt>
      <trkpt lat="50.15804" lon="3.44394">
        <ele>83.4</ele>
        <time>2023-08-06T11:51:11Z</time>
      </trkpt>
      <trkpt lat="50.15802" lon="3.44398">
        <ele>83.6</ele>
        <time>2023-08-06T11:51:12Z</time>
      </trkpt>
      <trkpt lat="50.15801" lon="3.44402">
        <ele>83.8</ele>
        <time>2023-08-06T11:51:13Z</time>
      </trkpt>
      <trkpt lat="50.158" lon="3.44405">
        <ele>84</ele>
        <time>2023-08-06T11:51:14Z</time>
      </trkpt>
      <trkpt lat="50.15799" lon="3.44408">
        <ele>84</ele>
        <time>2023-08-06T11:51:15Z</time>
      </trkpt>
      <trkpt lat="50.15798" lon="3.44411">
        <ele>84.2</ele>
        <time>2023-08-06T11:51:16Z</time>
      </trkpt>
      <trkpt lat="50.15796" lon="3.44415">
        <ele>84.2</ele>
        <time>2023-08-06T11:51:17Z</time>
      </trkpt>
      <trkpt lat="50.15795" lon="3.44418">
        <ele>84.4</ele>
        <time>2023-08-06T11:51:18Z</time>
      </trkpt>
      <trkpt lat="50.15794" lon="3.44421">
        <ele>84.4</ele>
        <time>2023-08-06T11:51:19Z</time>
      </trkpt>
      <trkpt lat="50.15793" lon="3.44423">
        <ele>84.6</ele>
        <time>2023-08-06T11:51:20Z</time>
      </trkpt>
      <trkpt lat="50.15792" lon="3.44427">
        <ele>84.8</ele>
        <time>2023-08-06T11:51:21Z</time>
      </trkpt>
      <trkpt lat="50.1579" lon="3.44431">
        <ele>84.8</ele>
        <time>2023-08-06T11:51:22Z</time>
      </trkpt>
      <trkpt lat="50.15789" lon="3.44433">
        <ele>85</ele>
        <time>2023-08-06T11:51:23Z</time>
      </trkpt>
      <trkpt lat="50.15788" lon="3.44436">
        <ele>85.2</ele>
        <time>2023-08-06T11:51:24Z</time>
      </trkpt>
      <trkpt lat="50.15787" lon="3.4444">
        <ele>85.4</ele>
        <time>2023-08-06T11:51:25Z</time>
      </trkpt>
      <trkpt lat="50.15786" lon="3.44443">
        <ele>85.6</ele>
        <time>2023-08-06T11:51:26Z</time>
      </trkpt>
      <trkpt lat="50.15784" lon="3.44446">
        <ele>86.2</ele>
        <time>2023-08-06T11:51:27Z</time>
      </trkpt>
      <trkpt lat="50.15783" lon="3.44449">
        <ele>86.4</ele>
        <time>2023-08-06T11:51:28Z</time>
      </trkpt>
      <trkpt lat="50.15782" lon="3.44452">
        <ele>86.6</ele>
        <time>2023-08-06T11:51:29Z</time>
      </trkpt>
      <trkpt lat="50.15781" lon="3.44455">
        <ele>86.8</ele>
        <time>2023-08-06T11:51:30Z</time>
      </trkpt>
      <trkpt lat="50.1578" lon="3.44457">
        <ele>87</ele>
        <time>2023-08-06T11:51:31Z</time>
      </trkpt>
      <trkpt lat="50.15779" lon="3.4446">
        <ele>87.2</ele>
        <time>2023-08-06T11:51:32Z</time>
      </trkpt>
      <trkpt lat="50.15778" lon="3.44464">
        <ele>87.2</ele>
        <time>2023-08-06T11:51:33Z</time>
      </trkpt>
      <trkpt lat="50.15777" lon="3.44467">
        <ele>87.4</ele>
        <time>2023-08-06T11:51:34Z</time>
      </trkpt>
      <trkpt lat="50.15776" lon="3.4447">
        <ele>87.4</ele>
        <time>2023-08-06T11:51:35Z</time>
      </trkpt>
      <trkpt lat="50.15775" lon="3.44473">
        <ele>87.6</ele>
        <time>2023-08-06T11:51:36Z</time>
      </trkpt>
      <trkpt lat="50.15774" lon="3.44476">
        <ele>87.6</ele>
        <time>2023-08-06T11:51:37Z</time>
      </trkpt>
      <trkpt lat="50.15773" lon="3.44479">
        <ele>87.8</ele>
        <time>2023-08-06T11:51:38Z</time>
      </trkpt>
      <trkpt lat="50.15772" lon="3.44481">
        <ele>88</ele>
        <time>2023-08-06T11:51:39Z</time>
      </trkpt>
      <trkpt lat="50.15771" lon="3.44484">
        <ele>88</ele>
        <time>2023-08-06T11:51:40Z</time>
      </trkpt>
      <trkpt lat="50.1577" lon="3.44486">
        <ele>88.2</ele>
        <time>2023-08-06T11:51:41Z</time>
      </trkpt>
      <trkpt lat="50.15769" lon="3.44489">
        <ele>88.4</ele>
        <time>2023-08-06T11:51:42Z</time>
      </trkpt>
      <trkpt lat="50.15768" lon="3.44492">
        <ele>88.6</ele>
        <time>2023-08-06T11:51:43Z</time>
      </trkpt>
      <trkpt lat="50.15767" lon="3.44494">
        <ele>88.8</ele>
        <time>2023-08-06T11:51:44Z</time>
      </trkpt>
      <trkpt lat="50.15766" lon="3.44498">
        <ele>89.2</ele>
        <time>2023-08-06T11:51:45Z</time>
      </trkpt>
      <trkpt lat="50.15765" lon="3.44501">
        <ele>89.4</ele>
        <time>2023-08-06T11:51:46Z</time>
      </trkpt>
      <trkpt lat="50.15764" lon="3.44504">
        <ele>89.6</ele>
        <time>2023-08-06T11:51:47Z</time>
      </trkpt>
      <trkpt lat="50.15763" lon="3.44506">
        <ele>89.8</ele>
        <time>2023-08-06T11:51:48Z</time>
      </trkpt>
      <trkpt lat="50.15761" lon="3.4451">
        <ele>90</ele>
        <time>2023-08-06T11:51:49Z</time>
      </trkpt>
      <trkpt lat="50.1576" lon="3.44512">
        <ele>90</ele>
        <time>2023-08-06T11:51:50Z</time>
      </trkpt>
      <trkpt lat="50.15759" lon="3.44515">
        <ele>90</ele>
        <time>2023-08-06T11:51:51Z</time>
      </trkpt>
      <trkpt lat="50.15758" lon="3.44518">
        <ele>90.2</ele>
        <time>2023-08-06T11:51:52Z</time>
      </trkpt>
      <trkpt lat="50.15757" lon="3.4452">
        <ele>90.2</ele>
        <time>2023-08-06T11:51:53Z</time>
      </trkpt>
      <trkpt lat="50.15756" lon="3.44523">
        <ele>90.2</ele>
        <time>2023-08-06T11:51:54Z</time>
      </trkpt>
      <trkpt lat="50.15755" lon="3.44527">
        <ele>90.4</ele>
        <time>2023-08-06T11:51:55Z</time>
      </trkpt>
      <trkpt lat="50.15754" lon="3.4453">
        <ele>90.6</ele>
        <time>2023-08-06T11:51:56Z</time>
      </trkpt>
      <trkpt lat="50.15753" lon="3.44533">
        <ele>90.6</ele>
        <time>2023-08-06T11:51:57Z</time>
      </trkpt>
      <trkpt lat="50.15753" lon="3.44536">
        <ele>90.8</ele>
        <time>2023-08-06T11:51:58Z</time>
      </trkpt>
      <trkpt lat="50.15751" lon="3.44539">
        <ele>91</ele>
        <time>2023-08-06T11:51:59Z</time>
      </trkpt>
      <trkpt lat="50.1575" lon="3.44542">
        <ele>91</ele>
        <time>2023-08-06T11:52:00Z</time>
      </trkpt>
      <trkpt lat="50.15749" lon="3.44545">
        <ele>91.2</ele>
        <time>2023-08-06T11:52:01Z</time>
      </trkpt>
      <trkpt lat="50.15748" lon="3.44548">
        <ele>91.2</ele>
        <time>2023-08-06T11:52:02Z</time>
      </trkpt>
      <trkpt lat="50.15747" lon="3.44551">
        <ele>91.4</ele>
        <time>2023-08-06T11:52:03Z</time>
      </trkpt>
      <trkpt lat="50.15747" lon="3.44555">
        <ele>91.6</ele>
        <time>2023-08-06T11:52:04Z</time>
      </trkpt>
      <trkpt lat="50.15746" lon="3.44558">
        <ele>91.6</ele>
        <time>2023-08-06T11:52:05Z</time>
      </trkpt>
      <trkpt lat="50.15745" lon="3.44562">
        <ele>91.6</ele>
        <time>2023-08-06T11:52:06Z</time>
      </trkpt>
      <trkpt lat="50.15744" lon="3.44566">
        <ele>91.6</ele>
        <time>2023-08-06T11:52:07Z</time>
      </trkpt>
      <trkpt lat="50.15743" lon="3.4457">
        <ele>91.8</ele>
        <time>2023-08-06T11:52:08Z</time>
      </trkpt>
      <trkpt lat="50.15742" lon="3.44574">
        <ele>91.8</ele>
        <time>2023-08-06T11:52:09Z</time>
      </trkpt>
      <trkpt lat="50.15741" lon="3.44578">
        <ele>92</ele>
        <time>2023-08-06T11:52:10Z</time>
      </trkpt>
      <trkpt lat="50.1574" lon="3.44582">
        <ele>92.2</ele>
        <time>2023-08-06T11:52:11Z</time>
      </trkpt>
      <trkpt lat="50.15739" lon="3.44586">
        <ele>92.2</ele>
        <time>2023-08-06T11:52:12Z</time>
      </trkpt>
      <trkpt lat="50.15738" lon="3.4459">
        <ele>92.4</ele>
        <time>2023-08-06T11:52:13Z</time>
      </trkpt>
      <trkpt lat="50.15737" lon="3.44594">
        <ele>92.4</ele>
        <time>2023-08-06T11:52:14Z</time>
      </trkpt>
      <trkpt lat="50.15736" lon="3.44599">
        <ele>92.6</ele>
        <time>2023-08-06T11:52:15Z</time>
      </trkpt>
      <trkpt lat="50.15734" lon="3.44603">
        <ele>92.6</ele>
        <time>2023-08-06T11:52:16Z</time>
      </trkpt>
      <trkpt lat="50.15734" lon="3.44608">
        <ele>92.8</ele>
        <time>2023-08-06T11:52:17Z</time>
      </trkpt>
      <trkpt lat="50.15733" lon="3.44612">
        <ele>92.8</ele>
        <time>2023-08-06T11:52:18Z</time>
      </trkpt>
      <trkpt lat="50.15732" lon="3.44617">
        <ele>92.8</ele>
        <time>2023-08-06T11:52:19Z</time>
      </trkpt>
      <trkpt lat="50.15731" lon="3.44622">
        <ele>92.6</ele>
        <time>2023-08-06T11:52:20Z</time>
      </trkpt>
      <trkpt lat="50.15731" lon="3.44628">
        <ele>92.6</ele>
        <time>2023-08-06T11:52:21Z</time>
      </trkpt>
      <trkpt lat="50.1573" lon="3.44633">
        <ele>92.6</ele>
        <time>2023-08-06T11:52:22Z</time>
      </trkpt>
      <trkpt lat="50.15726" lon="3.4466">
        <ele>92.4</ele>
        <time>2023-08-06T11:52:27Z</time>
      </trkpt>
      <trkpt lat="50.15721" lon="3.44704">
        <ele>92.4</ele>
        <time>2023-08-06T11:52:35Z</time>
      </trkpt>
      <trkpt lat="50.15716" lon="3.44767">
        <ele>92.2</ele>
        <time>2023-08-06T11:52:45Z</time>
      </trkpt>
      <trkpt lat="50.15713" lon="3.44811">
        <ele>92.2</ele>
        <time>2023-08-06T11:52:52Z</time>
      </trkpt>
      <trkpt lat="50.15712" lon="3.44823">
        <ele>92.2</ele>
        <time>2023-08-06T11:52:54Z</time>
      </trkpt>
      <trkpt lat="50.15709" lon="3.44882">
        <ele>92.2</ele>
        <time>2023-08-06T11:53:03Z</time>
      </trkpt>
      <trkpt lat="50.15703" lon="3.44968">
        <ele>92.4</ele>
        <time>2023-08-06T11:53:16Z</time>
      </trkpt>
      <trkpt lat="50.15701" lon="3.44994">
        <ele>92</ele>
        <time>2023-08-06T11:53:20Z</time>
      </trkpt>
      <trkpt lat="50.15701" lon="3.45">
        <ele>92</ele>
        <time>2023-08-06T11:53:21Z</time>
      </trkpt>
      <trkpt lat="50.157" lon="3.45007">
        <ele>92</ele>
        <time>2023-08-06T11:53:22Z</time>
      </trkpt>
      <trkpt lat="50.15698" lon="3.45026">
        <ele>92.4</ele>
        <time>2023-08-06T11:53:25Z</time>
      </trkpt>
      <trkpt lat="50.15686" lon="3.45099">
        <ele>93</ele>
        <time>2023-08-06T11:53:36Z</time>
      </trkpt>
      <trkpt lat="50.15682" lon="3.45119">
        <ele>93.4</ele>
        <time>2023-08-06T11:53:39Z</time>
      </trkpt>
      <trkpt lat="50.15672" lon="3.45156">
        <ele>93.6</ele>
        <time>2023-08-06T11:53:45Z</time>
      </trkpt>
      <trkpt lat="50.1567" lon="3.45162">
        <ele>93.8</ele>
        <time>2023-08-06T11:53:46Z</time>
      </trkpt>
      <trkpt lat="50.15669" lon="3.45168">
        <ele>93.8</ele>
        <time>2023-08-06T11:53:47Z</time>
      </trkpt>
      <trkpt lat="50.15667" lon="3.45175">
        <ele>94</ele>
        <time>2023-08-06T11:53:48Z</time>
      </trkpt>
      <trkpt lat="50.15664" lon="3.45187">
        <ele>93.8</ele>
        <time>2023-08-06T11:53:50Z</time>
      </trkpt>
      <trkpt lat="50.15647" lon="3.45247">
        <ele>93.8</ele>
        <time>2023-08-06T11:53:59Z</time>
      </trkpt>
      <trkpt lat="50.15631" lon="3.45309">
        <ele>94.2</ele>
        <time>2023-08-06T11:54:08Z</time>
      </trkpt>
      <trkpt lat="50.15625" lon="3.45345">
        <ele>94.4</ele>
        <time>2023-08-06T11:54:13Z</time>
      </trkpt>
      <trkpt lat="50.15619" lon="3.45382">
        <ele>94.6</ele>
        <time>2023-08-06T11:54:18Z</time>
      </trkpt>
      <trkpt lat="50.15613" lon="3.45418">
        <ele>95.2</ele>
        <time>2023-08-06T11:54:23Z</time>
      </trkpt>
      <trkpt lat="50.15607" lon="3.45446">
        <ele>95.4</ele>
        <time>2023-08-06T11:54:27Z</time>
      </trkpt>
      <trkpt lat="50.15603" lon="3.4546">
        <ele>95.4</ele>
        <time>2023-08-06T11:54:29Z</time>
      </trkpt>
      <trkpt lat="50.15596" lon="3.45493">
        <ele>95.6</ele>
        <time>2023-08-06T11:54:34Z</time>
      </trkpt>
      <trkpt lat="50.15594" lon="3.45499">
        <ele>95.6</ele>
        <time>2023-08-06T11:54:35Z</time>
      </trkpt>
      <trkpt lat="50.15592" lon="3.45506">
        <ele>95.6</ele>
        <time>2023-08-06T11:54:36Z</time>
      </trkpt>
      <trkpt lat="50.1559" lon="3.45511">
        <ele>95.6</ele>
        <time>2023-08-06T11:54:37Z</time>
      </trkpt>
      <trkpt lat="50.15587" lon="3.45517">
        <ele>95.6</ele>
        <time>2023-08-06T11:54:38Z</time>
      </trkpt>
      <trkpt lat="50.15569" lon="3.45559">
        <ele>96</ele>
        <time>2023-08-06T11:54:45Z</time>
      </trkpt>
      <trkpt lat="50.15564" lon="3.45571">
        <ele>96.4</ele>
        <time>2023-08-06T11:54:47Z</time>
      </trkpt>
      <trkpt lat="50.15543" lon="3.45619">
        <ele>97.4</ele>
        <time>2023-08-06T11:54:55Z</time>
      </trkpt>
      <trkpt lat="50.1554" lon="3.45624">
        <ele>97.4</ele>
        <time>2023-08-06T11:54:56Z</time>
      </trkpt>
      <trkpt lat="50.15511" lon="3.45684">
        <ele>97.2</ele>
        <time>2023-08-06T11:55:06Z</time>
      </trkpt>
      <trkpt lat="50.15485" lon="3.45731">
        <ele>97.2</ele>
        <time>2023-08-06T11:55:14Z</time>
      </trkpt>
      <trkpt lat="50.15483" lon="3.45735">
        <ele>97.2</ele>
        <time>2023-08-06T11:55:15Z</time>
      </trkpt>
      <trkpt lat="50.15481" lon="3.4574">
        <ele>97.2</ele>
        <time>2023-08-06T11:55:16Z</time>
      </trkpt>
      <trkpt lat="50.15479" lon="3.45746">
        <ele>97.2</ele>
        <time>2023-08-06T11:55:17Z</time>
      </trkpt>
      <trkpt lat="50.15477" lon="3.45751">
        <ele>97.4</ele>
        <time>2023-08-06T11:55:18Z</time>
      </trkpt>
      <trkpt lat="50.15476" lon="3.45757">
        <ele>97.6</ele>
        <time>2023-08-06T11:55:19Z</time>
      </trkpt>
      <trkpt lat="50.15476" lon="3.45762">
        <ele>97.6</ele>
        <time>2023-08-06T11:55:20Z</time>
      </trkpt>
      <trkpt lat="50.15476" lon="3.45768">
        <ele>97.6</ele>
        <time>2023-08-06T11:55:21Z</time>
      </trkpt>
      <trkpt lat="50.15476" lon="3.45776">
        <ele>97.8</ele>
        <time>2023-08-06T11:55:22Z</time>
      </trkpt>
      <trkpt lat="50.15479" lon="3.45794">
        <ele>97.8</ele>
        <time>2023-08-06T11:55:25Z</time>
      </trkpt>
      <trkpt lat="50.15487" lon="3.45853">
        <ele>97.8</ele>
        <time>2023-08-06T11:55:33Z</time>
      </trkpt>
      <trkpt lat="50.15489" lon="3.45874">
        <ele>97.8</ele>
        <time>2023-08-06T11:55:36Z</time>
      </trkpt>
      <trkpt lat="50.15493" lon="3.45901">
        <ele>98.4</ele>
        <time>2023-08-06T11:55:40Z</time>
      </trkpt>
      <trkpt lat="50.15496" lon="3.45916">
        <ele>98.6</ele>
        <time>2023-08-06T11:55:42Z</time>
      </trkpt>
      <trkpt lat="50.155" lon="3.4594">
        <ele>99</ele>
        <time>2023-08-06T11:55:45Z</time>
      </trkpt>
      <trkpt lat="50.1551" lon="3.46009">
        <ele>99.2</ele>
        <time>2023-08-06T11:55:54Z</time>
      </trkpt>
      <trkpt lat="50.15514" lon="3.46046">
        <ele>99.2</ele>
        <time>2023-08-06T11:55:59Z</time>
      </trkpt>
      <trkpt lat="50.15515" lon="3.46054">
        <ele>99.2</ele>
        <time>2023-08-06T11:56:00Z</time>
      </trkpt>
      <trkpt lat="50.1552" lon="3.46103">
        <ele>99.6</ele>
        <time>2023-08-06T11:56:06Z</time>
      </trkpt>
      <trkpt lat="50.15521" lon="3.4612">
        <ele>99.6</ele>
        <time>2023-08-06T11:56:08Z</time>
      </trkpt>
      <trkpt lat="50.15522" lon="3.46137">
        <ele>99.6</ele>
        <time>2023-08-06T11:56:10Z</time>
      </trkpt>
      <trkpt lat="50.15524" lon="3.46162">
        <ele>99.6</ele>
        <time>2023-08-06T11:56:13Z</time>
      </trkpt>
      <trkpt lat="50.15525" lon="3.4617">
        <ele>99.6</ele>
        <time>2023-08-06T11:56:14Z</time>
      </trkpt>
      <trkpt lat="50.15527" lon="3.46196">
        <ele>99.6</ele>
        <time>2023-08-06T11:56:17Z</time>
      </trkpt>
      <trkpt lat="50.15525" lon="3.46212">
        <ele>99.4</ele>
        <time>2023-08-06T11:56:19Z</time>
      </trkpt>
      <trkpt lat="50.15523" lon="3.46219">
        <ele>99.4</ele>
        <time>2023-08-06T11:56:20Z</time>
      </trkpt>
      <trkpt lat="50.15521" lon="3.46229">
        <ele>99.4</ele>
        <time>2023-08-06T11:56:21Z</time>
      </trkpt>
      <trkpt lat="50.15512" lon="3.46254">
        <ele>99.2</ele>
        <time>2023-08-06T11:56:24Z</time>
      </trkpt>
      <trkpt lat="50.15504" lon="3.46281">
        <ele>98.8</ele>
        <time>2023-08-06T11:56:27Z</time>
      </trkpt>
      <trkpt lat="50.15501" lon="3.4629">
        <ele>98.4</ele>
        <time>2023-08-06T11:56:28Z</time>
      </trkpt>
      <trkpt lat="50.15488" lon="3.46326">
        <ele>98</ele>
        <time>2023-08-06T11:56:32Z</time>
      </trkpt>
      <trkpt lat="50.15485" lon="3.46332">
        <ele>98</ele>
        <time>2023-08-06T11:56:33Z</time>
      </trkpt>
      <trkpt lat="50.15482" lon="3.46336">
        <ele>97.8</ele>
        <time>2023-08-06T11:56:34Z</time>
      </trkpt>
      <trkpt lat="50.15479" lon="3.4634">
        <ele>97.8</ele>
        <time>2023-08-06T11:56:35Z</time>
      </trkpt>
      <trkpt lat="50.15478" lon="3.46344">
        <ele>97.8</ele>
        <time>2023-08-06T11:56:36Z</time>
      </trkpt>
      <trkpt lat="50.15476" lon="3.46347">
        <ele>97.6</ele>
        <time>2023-08-06T11:56:37Z</time>
      </trkpt>
      <trkpt lat="50.15475" lon="3.4635">
        <ele>97.2</ele>
        <time>2023-08-06T11:56:38Z</time>
      </trkpt>
      <trkpt lat="50.15474" lon="3.46353">
        <ele>97.2</ele>
        <time>2023-08-06T11:56:39Z</time>
      </trkpt>
      <trkpt lat="50.15473" lon="3.46355">
        <ele>97</ele>
        <time>2023-08-06T11:56:40Z</time>
      </trkpt>
      <trkpt lat="50.15473" lon="3.46355">
        <ele>97</ele>
        <time>2023-08-06T11:56:41Z</time>
      </trkpt>
      <trkpt lat="50.15473" lon="3.46355">
        <ele>96.8</ele>
        <time>2023-08-06T11:56:42Z</time>
      </trkpt>
      <trkpt lat="50.15473" lon="3.46355">
        <ele>96.8</ele>
        <time>2023-08-06T11:56:44Z</time>
      </trkpt>
      <trkpt lat="50.1547" lon="3.4636">
        <ele>95.8</ele>
        <time>2023-08-06T12:00:27Z</time>
      </trkpt>
      <trkpt lat="50.15469" lon="3.46362">
        <ele>95.8</ele>
        <time>2023-08-06T12:00:28Z</time>
      </trkpt>
      <trkpt lat="50.15468" lon="3.46366">
        <ele>95.8</ele>
        <time>2023-08-06T12:00:29Z</time>
      </trkpt>
      <trkpt lat="50.15457" lon="3.46379">
        <ele>96</ele>
        <time>2023-08-06T12:00:33Z</time>
      </trkpt>
      <trkpt lat="50.15454" lon="3.46383">
        <ele>96</ele>
        <time>2023-08-06T12:00:34Z</time>
      </trkpt>
      <trkpt lat="50.15436" lon="3.46415">
        <ele>95.4</ele>
        <time>2023-08-06T12:00:40Z</time>
      </trkpt>
      <trkpt lat="50.15421" lon="3.46441">
        <ele>94.6</ele>
        <time>2023-08-06T12:00:44Z</time>
      </trkpt>
      <trkpt lat="50.15417" lon="3.46447">
        <ele>94.6</ele>
        <time>2023-08-06T12:00:45Z</time>
      </trkpt>
      <trkpt lat="50.15403" lon="3.46466">
        <ele>93.8</ele>
        <time>2023-08-06T12:00:48Z</time>
      </trkpt>
      <trkpt lat="50.15399" lon="3.46472">
        <ele>93.4</ele>
        <time>2023-08-06T12:00:49Z</time>
      </trkpt>
      <trkpt lat="50.15389" lon="3.46485">
        <ele>93</ele>
        <time>2023-08-06T12:00:51Z</time>
      </trkpt>
      <trkpt lat="50.15368" lon="3.46508">
        <ele>92.2</ele>
        <time>2023-08-06T12:00:55Z</time>
      </trkpt>
      <trkpt lat="50.15353" lon="3.46529">
        <ele>91.4</ele>
        <time>2023-08-06T12:00:58Z</time>
      </trkpt>
      <trkpt lat="50.15343" lon="3.46546">
        <ele>91</ele>
        <time>2023-08-06T12:01:00Z</time>
      </trkpt>
      <trkpt lat="50.15326" lon="3.46581">
        <ele>90</ele>
        <time>2023-08-06T12:01:04Z</time>
      </trkpt>
      <trkpt lat="50.15322" lon="3.4659">
        <ele>89.8</ele>
        <time>2023-08-06T12:01:05Z</time>
      </trkpt>
      <trkpt lat="50.15314" lon="3.46605">
        <ele>89.2</ele>
        <time>2023-08-06T12:01:07Z</time>
      </trkpt>
      <trkpt lat="50.15311" lon="3.46611">
        <ele>89.2</ele>
        <time>2023-08-06T12:01:08Z</time>
      </trkpt>
      <trkpt lat="50.15307" lon="3.46617">
        <ele>88.8</ele>
        <time>2023-08-06T12:01:09Z</time>
      </trkpt>
      <trkpt lat="50.15304" lon="3.46623">
        <ele>88.6</ele>
        <time>2023-08-06T12:01:10Z</time>
      </trkpt>
      <trkpt lat="50.15301" lon="3.46629">
        <ele>88.2</ele>
        <time>2023-08-06T12:01:11Z</time>
      </trkpt>
      <trkpt lat="50.15298" lon="3.46635">
        <ele>87.6</ele>
        <time>2023-08-06T12:01:12Z</time>
      </trkpt>
      <trkpt lat="50.15292" lon="3.46649">
        <ele>87.2</ele>
        <time>2023-08-06T12:01:14Z</time>
      </trkpt>
      <trkpt lat="50.15289" lon="3.46656">
        <ele>87</ele>
        <time>2023-08-06T12:01:15Z</time>
      </trkpt>
      <trkpt lat="50.15283" lon="3.46672">
        <ele>86.6</ele>
        <time>2023-08-06T12:01:18Z</time>
      </trkpt>
      <trkpt lat="50.15269" lon="3.46706">
        <ele>86.4</ele>
        <time>2023-08-06T12:01:21Z</time>
      </trkpt>
      <trkpt lat="50.15252" lon="3.46756">
        <ele>86.2</ele>
        <time>2023-08-06T12:01:26Z</time>
      </trkpt>
      <trkpt lat="50.1525" lon="3.46765">
        <ele>85.8</ele>
        <time>2023-08-06T12:01:27Z</time>
      </trkpt>
      <trkpt lat="50.15248" lon="3.46771">
        <ele>85.4</ele>
        <time>2023-08-06T12:01:28Z</time>
      </trkpt>
      <trkpt lat="50.15247" lon="3.46777">
        <ele>85.4</ele>
        <time>2023-08-06T12:01:29Z</time>
      </trkpt>
      <trkpt lat="50.15246" lon="3.46784">
        <ele>84.8</ele>
        <time>2023-08-06T12:01:30Z</time>
      </trkpt>
      <trkpt lat="50.15246" lon="3.46791">
        <ele>84.6</ele>
        <time>2023-08-06T12:01:31Z</time>
      </trkpt>
      <trkpt lat="50.15245" lon="3.46798">
        <ele>84</ele>
        <time>2023-08-06T12:01:32Z</time>
      </trkpt>
      <trkpt lat="50.15244" lon="3.46808">
        <ele>83.6</ele>
        <time>2023-08-06T12:01:33Z</time>
      </trkpt>
      <trkpt lat="50.15242" lon="3.46817">
        <ele>83</ele>
        <time>2023-08-06T12:01:34Z</time>
      </trkpt>
      <trkpt lat="50.1524" lon="3.46826">
        <ele>82.4</ele>
        <time>2023-08-06T12:01:35Z</time>
      </trkpt>
      <trkpt lat="50.15234" lon="3.46846">
        <ele>81.8</ele>
        <time>2023-08-06T12:01:37Z</time>
      </trkpt>
      <trkpt lat="50.15229" lon="3.46855">
        <ele>81.6</ele>
        <time>2023-08-06T12:01:38Z</time>
      </trkpt>
      <trkpt lat="50.15224" lon="3.46864">
        <ele>81</ele>
        <time>2023-08-06T12:01:39Z</time>
      </trkpt>
      <trkpt lat="50.15213" lon="3.46881">
        <ele>80</ele>
        <time>2023-08-06T12:01:41Z</time>
      </trkpt>
      <trkpt lat="50.15208" lon="3.4689">
        <ele>79.8</ele>
        <time>2023-08-06T12:01:42Z</time>
      </trkpt>
      <trkpt lat="50.15198" lon="3.46907">
        <ele>78.6</ele>
        <time>2023-08-06T12:01:44Z</time>
      </trkpt>
      <trkpt lat="50.15176" lon="3.46948">
        <ele>77.6</ele>
        <time>2023-08-06T12:01:49Z</time>
      </trkpt>
      <trkpt lat="50.1517" lon="3.46957">
        <ele>77.4</ele>
        <time>2023-08-06T12:01:50Z</time>
      </trkpt>
      <trkpt lat="50.15166" lon="3.46965">
        <ele>77.4</ele>
        <time>2023-08-06T12:01:51Z</time>
      </trkpt>
      <trkpt lat="50.15162" lon="3.46973">
        <ele>77.4</ele>
        <time>2023-08-06T12:01:52Z</time>
      </trkpt>
      <trkpt lat="50.15158" lon="3.46981">
        <ele>77.4</ele>
        <time>2023-08-06T12:01:53Z</time>
      </trkpt>
      <trkpt lat="50.15154" lon="3.46988">
        <ele>77.4</ele>
        <time>2023-08-06T12:01:54Z</time>
      </trkpt>
      <trkpt lat="50.1515" lon="3.46995">
        <ele>77.4</ele>
        <time>2023-08-06T12:01:55Z</time>
      </trkpt>
      <trkpt lat="50.1515" lon="3.46995">
        <ele>77.4</ele>
        <time>2023-08-06T12:01:56Z</time>
      </trkpt>
      <trkpt lat="50.15144" lon="3.47008">
        <ele>77.4</ele>
        <time>2023-08-06T12:01:57Z</time>
      </trkpt>
      <trkpt lat="50.1514" lon="3.47016">
        <ele>77.6</ele>
        <time>2023-08-06T12:01:58Z</time>
      </trkpt>
      <trkpt lat="50.15138" lon="3.47021">
        <ele>77.6</ele>
        <time>2023-08-06T12:01:59Z</time>
      </trkpt>
      <trkpt lat="50.15134" lon="3.47028">
        <ele>77.6</ele>
        <time>2023-08-06T12:02:00Z</time>
      </trkpt>
      <trkpt lat="50.15132" lon="3.47034">
        <ele>77.6</ele>
        <time>2023-08-06T12:02:01Z</time>
      </trkpt>
      <trkpt lat="50.15129" lon="3.4704">
        <ele>77.6</ele>
        <time>2023-08-06T12:02:02Z</time>
      </trkpt>
      <trkpt lat="50.15127" lon="3.47044">
        <ele>77.6</ele>
        <time>2023-08-06T12:02:03Z</time>
      </trkpt>
      <trkpt lat="50.15124" lon="3.4705">
        <ele>77.6</ele>
        <time>2023-08-06T12:02:04Z</time>
      </trkpt>
      <trkpt lat="50.15122" lon="3.47054">
        <ele>77.6</ele>
        <time>2023-08-06T12:02:05Z</time>
      </trkpt>
      <trkpt lat="50.1512" lon="3.47059">
        <ele>77.8</ele>
        <time>2023-08-06T12:02:06Z</time>
      </trkpt>
      <trkpt lat="50.15117" lon="3.47062">
        <ele>77.8</ele>
        <time>2023-08-06T12:02:07Z</time>
      </trkpt>
      <trkpt lat="50.15114" lon="3.47065">
        <ele>78</ele>
        <time>2023-08-06T12:02:08Z</time>
      </trkpt>
      <trkpt lat="50.15111" lon="3.47067">
        <ele>78.2</ele>
        <time>2023-08-06T12:02:09Z</time>
      </trkpt>
      <trkpt lat="50.15107" lon="3.47069">
        <ele>78.2</ele>
        <time>2023-08-06T12:02:10Z</time>
      </trkpt>
      <trkpt lat="50.15103" lon="3.47069">
        <ele>78.4</ele>
        <time>2023-08-06T12:02:11Z</time>
      </trkpt>
      <trkpt lat="50.151" lon="3.4707">
        <ele>78.4</ele>
        <time>2023-08-06T12:02:12Z</time>
      </trkpt>
      <trkpt lat="50.151" lon="3.4707">
        <ele>78.6</ele>
        <time>2023-08-06T12:02:13Z</time>
      </trkpt>
      <trkpt lat="50.15093" lon="3.47072">
        <ele>78.6</ele>
        <time>2023-08-06T12:02:14Z</time>
      </trkpt>
      <trkpt lat="50.15091" lon="3.47073">
        <ele>78.6</ele>
        <time>2023-08-06T12:02:15Z</time>
      </trkpt>
      <trkpt lat="50.15091" lon="3.47073">
        <ele>78.8</ele>
        <time>2023-08-06T12:02:16Z</time>
      </trkpt>
      <trkpt lat="50.15087" lon="3.47074">
        <ele>78.8</ele>
        <time>2023-08-06T12:02:17Z</time>
      </trkpt>
      <trkpt lat="50.15081" lon="3.47075">
        <ele>78.6</ele>
        <time>2023-08-06T12:02:18Z</time>
      </trkpt>
      <trkpt lat="50.15079" lon="3.47076">
        <ele>78.6</ele>
        <time>2023-08-06T12:02:19Z</time>
      </trkpt>
      <trkpt lat="50.15076" lon="3.47077">
        <ele>78.6</ele>
        <time>2023-08-06T12:02:20Z</time>
      </trkpt>
      <trkpt lat="50.15072" lon="3.47078">
        <ele>79</ele>
        <time>2023-08-06T12:02:21Z</time>
      </trkpt>
      <trkpt lat="50.15069" lon="3.47079">
        <ele>79</ele>
        <time>2023-08-06T12:02:22Z</time>
      </trkpt>
      <trkpt lat="50.15066" lon="3.4708">
        <ele>79.2</ele>
        <time>2023-08-06T12:02:23Z</time>
      </trkpt>
      <trkpt lat="50.15063" lon="3.47081">
        <ele>79.4</ele>
        <time>2023-08-06T12:02:24Z</time>
      </trkpt>
      <trkpt lat="50.1506" lon="3.47083">
        <ele>79.4</ele>
        <time>2023-08-06T12:02:25Z</time>
      </trkpt>
      <trkpt lat="50.15058" lon="3.47084">
        <ele>79.8</ele>
        <time>2023-08-06T12:02:26Z</time>
      </trkpt>
      <trkpt lat="50.15055" lon="3.47086">
        <ele>79.8</ele>
        <time>2023-08-06T12:02:27Z</time>
      </trkpt>
      <trkpt lat="50.15053" lon="3.47088">
        <ele>79.8</ele>
        <time>2023-08-06T12:02:28Z</time>
      </trkpt>
      <trkpt lat="50.15053" lon="3.47088">
        <ele>80</ele>
        <time>2023-08-06T12:02:29Z</time>
      </trkpt>
      <trkpt lat="50.15048" lon="3.47092">
        <ele>80</ele>
        <time>2023-08-06T12:02:30Z</time>
      </trkpt>
      <trkpt lat="50.15046" lon="3.47094">
        <ele>80.2</ele>
        <time>2023-08-06T12:02:31Z</time>
      </trkpt>
      <trkpt lat="50.15041" lon="3.47099">
        <ele>80.6</ele>
        <time>2023-08-06T12:02:33Z</time>
      </trkpt>
      <trkpt lat="50.15025" lon="3.47117">
        <ele>81</ele>
        <time>2023-08-06T12:02:40Z</time>
      </trkpt>
      <trkpt lat="50.15023" lon="3.47119">
        <ele>81</ele>
        <time>2023-08-06T12:02:41Z</time>
      </trkpt>
      <trkpt lat="50.1502" lon="3.47122">
        <ele>81</ele>
        <time>2023-08-06T12:02:42Z</time>
      </trkpt>
      <trkpt lat="50.15016" lon="3.47126">
        <ele>81</ele>
        <time>2023-08-06T12:02:44Z</time>
      </trkpt>
      <trkpt lat="50.15016" lon="3.47126">
        <ele>81</ele>
        <time>2023-08-06T12:02:45Z</time>
      </trkpt>
      <trkpt lat="50.15012" lon="3.4713">
        <ele>81</ele>
        <time>2023-08-06T12:02:46Z</time>
      </trkpt>
      <trkpt lat="50.15009" lon="3.47132">
        <ele>81.2</ele>
        <time>2023-08-06T12:02:48Z</time>
      </trkpt>
      <trkpt lat="50.15004" lon="3.47137">
        <ele>81.2</ele>
        <time>2023-08-06T12:02:49Z</time>
      </trkpt>
      <trkpt lat="50.14999" lon="3.47141">
        <ele>81.4</ele>
        <time>2023-08-06T12:02:51Z</time>
      </trkpt>
      <trkpt lat="50.14996" lon="3.47143">
        <ele>81.8</ele>
        <time>2023-08-06T12:02:52Z</time>
      </trkpt>
      <trkpt lat="50.14978" lon="3.47159">
        <ele>82.6</ele>
        <time>2023-08-06T12:02:59Z</time>
      </trkpt>
      <trkpt lat="50.14976" lon="3.47161">
        <ele>82.6</ele>
        <time>2023-08-06T12:03:00Z</time>
      </trkpt>
      <trkpt lat="50.1497" lon="3.47164">
        <ele>82.8</ele>
        <time>2023-08-06T12:03:02Z</time>
      </trkpt>
      <trkpt lat="50.14945" lon="3.47176">
        <ele>82.6</ele>
        <time>2023-08-06T12:03:10Z</time>
      </trkpt>
      <trkpt lat="50.14911" lon="3.47194">
        <ele>82.6</ele>
        <time>2023-08-06T12:03:19Z</time>
      </trkpt>
      <trkpt lat="50.14893" lon="3.4721">
        <ele>82.6</ele>
        <time>2023-08-06T12:03:24Z</time>
      </trkpt>
      <trkpt lat="50.14886" lon="3.47218">
        <ele>82.6</ele>
        <time>2023-08-06T12:03:26Z</time>
      </trkpt>
      <trkpt lat="50.14849" lon="3.47263">
        <ele>82.4</ele>
        <time>2023-08-06T12:03:36Z</time>
      </trkpt>
      <trkpt lat="50.1481" lon="3.47314">
        <ele>81.8</ele>
        <time>2023-08-06T12:03:46Z</time>
      </trkpt>
      <trkpt lat="50.14806" lon="3.47319">
        <ele>81.2</ele>
        <time>2023-08-06T12:03:47Z</time>
      </trkpt>
      <trkpt lat="50.14799" lon="3.47329">
        <ele>81.2</ele>
        <time>2023-08-06T12:03:49Z</time>
      </trkpt>
      <trkpt lat="50.14779" lon="3.47354">
        <ele>81</ele>
        <time>2023-08-06T12:03:54Z</time>
      </trkpt>
      <trkpt lat="50.14735" lon="3.474">
        <ele>80.4</ele>
        <time>2023-08-06T12:04:03Z</time>
      </trkpt>
      <trkpt lat="50.14731" lon="3.47404">
        <ele>80</ele>
        <time>2023-08-06T12:04:04Z</time>
      </trkpt>
      <trkpt lat="50.14712" lon="3.47421">
        <ele>79.4</ele>
        <time>2023-08-06T12:04:07Z</time>
      </trkpt>
      <trkpt lat="50.14706" lon="3.47426">
        <ele>79.2</ele>
        <time>2023-08-06T12:04:08Z</time>
      </trkpt>
      <trkpt lat="50.14694" lon="3.47436">
        <ele>78.6</ele>
        <time>2023-08-06T12:04:10Z</time>
      </trkpt>
      <trkpt lat="50.14674" lon="3.47447">
        <ele>78</ele>
        <time>2023-08-06T12:04:13Z</time>
      </trkpt>
      <trkpt lat="50.14662" lon="3.47454">
        <ele>77.6</ele>
        <time>2023-08-06T12:04:15Z</time>
      </trkpt>
      <trkpt lat="50.14631" lon="3.47475">
        <ele>77</ele>
        <time>2023-08-06T12:04:20Z</time>
      </trkpt>
      <trkpt lat="50.14625" lon="3.47481">
        <ele>76.8</ele>
        <time>2023-08-06T12:04:21Z</time>
      </trkpt>
      <trkpt lat="50.14621" lon="3.47486">
        <ele>77</ele>
        <time>2023-08-06T12:04:22Z</time>
      </trkpt>
      <trkpt lat="50.14617" lon="3.47492">
        <ele>77</ele>
        <time>2023-08-06T12:04:23Z</time>
      </trkpt>
      <trkpt lat="50.14617" lon="3.47492">
        <ele>77.2</ele>
        <time>2023-08-06T12:04:24Z</time>
      </trkpt>
      <trkpt lat="50.1461" lon="3.47502">
        <ele>77.2</ele>
        <time>2023-08-06T12:04:25Z</time>
      </trkpt>
      <trkpt lat="50.14608" lon="3.47506">
        <ele>77.2</ele>
        <time>2023-08-06T12:04:26Z</time>
      </trkpt>
      <trkpt lat="50.14605" lon="3.4751">
        <ele>77.2</ele>
        <time>2023-08-06T12:04:27Z</time>
      </trkpt>
      <trkpt lat="50.14602" lon="3.47515">
        <ele>77.2</ele>
        <time>2023-08-06T12:04:28Z</time>
      </trkpt>
      <trkpt lat="50.146" lon="3.4752">
        <ele>77.2</ele>
        <time>2023-08-06T12:04:29Z</time>
      </trkpt>
      <trkpt lat="50.14597" lon="3.47525">
        <ele>77.4</ele>
        <time>2023-08-06T12:04:30Z</time>
      </trkpt>
      <trkpt lat="50.14592" lon="3.47533">
        <ele>77.4</ele>
        <time>2023-08-06T12:04:32Z</time>
      </trkpt>
      <trkpt lat="50.14589" lon="3.47538">
        <ele>77.4</ele>
        <time>2023-08-06T12:04:33Z</time>
      </trkpt>
      <trkpt lat="50.14586" lon="3.47542">
        <ele>77.6</ele>
        <time>2023-08-06T12:04:34Z</time>
      </trkpt>
      <trkpt lat="50.14572" lon="3.47566">
        <ele>77.8</ele>
        <time>2023-08-06T12:04:39Z</time>
      </trkpt>
      <trkpt lat="50.1456" lon="3.47587">
        <ele>77.8</ele>
        <time>2023-08-06T12:04:43Z</time>
      </trkpt>
      <trkpt lat="50.14556" lon="3.47594">
        <ele>77.8</ele>
        <time>2023-08-06T12:04:44Z</time>
      </trkpt>
      <trkpt lat="50.14553" lon="3.476">
        <ele>77.8</ele>
        <time>2023-08-06T12:04:45Z</time>
      </trkpt>
      <trkpt lat="50.14537" lon="3.47626">
        <ele>77.6</ele>
        <time>2023-08-06T12:04:50Z</time>
      </trkpt>
      <trkpt lat="50.14531" lon="3.47635">
        <ele>77.4</ele>
        <time>2023-08-06T12:04:52Z</time>
      </trkpt>
      <trkpt lat="50.14527" lon="3.47641">
        <ele>77.4</ele>
        <time>2023-08-06T12:04:53Z</time>
      </trkpt>
      <trkpt lat="50.14523" lon="3.47646">
        <ele>77.2</ele>
        <time>2023-08-06T12:04:54Z</time>
      </trkpt>
      <trkpt lat="50.1452" lon="3.47651">
        <ele>77</ele>
        <time>2023-08-06T12:04:55Z</time>
      </trkpt>
      <trkpt lat="50.14517" lon="3.47655">
        <ele>76.8</ele>
        <time>2023-08-06T12:04:56Z</time>
      </trkpt>
      <trkpt lat="50.14514" lon="3.4766">
        <ele>76.6</ele>
        <time>2023-08-06T12:04:57Z</time>
      </trkpt>
      <trkpt lat="50.14511" lon="3.47664">
        <ele>76.4</ele>
        <time>2023-08-06T12:04:58Z</time>
      </trkpt>
      <trkpt lat="50.14508" lon="3.47669">
        <ele>76.4</ele>
        <time>2023-08-06T12:04:59Z</time>
      </trkpt>
      <trkpt lat="50.14504" lon="3.47674">
        <ele>76.4</ele>
        <time>2023-08-06T12:05:00Z</time>
      </trkpt>
      <trkpt lat="50.14501" lon="3.47678">
        <ele>76.4</ele>
        <time>2023-08-06T12:05:01Z</time>
      </trkpt>
      <trkpt lat="50.14498" lon="3.47682">
        <ele>76.4</ele>
        <time>2023-08-06T12:05:02Z</time>
      </trkpt>
      <trkpt lat="50.14495" lon="3.47686">
        <ele>76.6</ele>
        <time>2023-08-06T12:05:03Z</time>
      </trkpt>
      <trkpt lat="50.14492" lon="3.4769">
        <ele>76.6</ele>
        <time>2023-08-06T12:05:04Z</time>
      </trkpt>
      <trkpt lat="50.14492" lon="3.4769">
        <ele>76.6</ele>
        <time>2023-08-06T12:05:05Z</time>
      </trkpt>
      <trkpt lat="50.14485" lon="3.47701">
        <ele>76.6</ele>
        <time>2023-08-06T12:05:07Z</time>
      </trkpt>
      <trkpt lat="50.14482" lon="3.47705">
        <ele>76.8</ele>
        <time>2023-08-06T12:05:08Z</time>
      </trkpt>
      <trkpt lat="50.14479" lon="3.4771">
        <ele>77</ele>
        <time>2023-08-06T12:05:09Z</time>
      </trkpt>
      <trkpt lat="50.14476" lon="3.47713">
        <ele>77.2</ele>
        <time>2023-08-06T12:05:10Z</time>
      </trkpt>
      <trkpt lat="50.14474" lon="3.47717">
        <ele>77.4</ele>
        <time>2023-08-06T12:05:11Z</time>
      </trkpt>
      <trkpt lat="50.14471" lon="3.47721">
        <ele>77.4</ele>
        <time>2023-08-06T12:05:12Z</time>
      </trkpt>
      <trkpt lat="50.14469" lon="3.47725">
        <ele>77.6</ele>
        <time>2023-08-06T12:05:13Z</time>
      </trkpt>
      <trkpt lat="50.14466" lon="3.47729">
        <ele>77.8</ele>
        <time>2023-08-06T12:05:14Z</time>
      </trkpt>
      <trkpt lat="50.14463" lon="3.47732">
        <ele>77.8</ele>
        <time>2023-08-06T12:05:15Z</time>
      </trkpt>
      <trkpt lat="50.14461" lon="3.47736">
        <ele>78</ele>
        <time>2023-08-06T12:05:16Z</time>
      </trkpt>
      <trkpt lat="50.14458" lon="3.4774">
        <ele>78.2</ele>
        <time>2023-08-06T12:05:17Z</time>
      </trkpt>
      <trkpt lat="50.14455" lon="3.47743">
        <ele>78.4</ele>
        <time>2023-08-06T12:05:18Z</time>
      </trkpt>
      <trkpt lat="50.14453" lon="3.47747">
        <ele>78.8</ele>
        <time>2023-08-06T12:05:19Z</time>
      </trkpt>
      <trkpt lat="50.14451" lon="3.47751">
        <ele>79</ele>
        <time>2023-08-06T12:05:20Z</time>
      </trkpt>
      <trkpt lat="50.14443" lon="3.47762">
        <ele>79.8</ele>
        <time>2023-08-06T12:05:23Z</time>
      </trkpt>
      <trkpt lat="50.14437" lon="3.47769">
        <ele>80.4</ele>
        <time>2023-08-06T12:05:25Z</time>
      </trkpt>
      <trkpt lat="50.14435" lon="3.47772">
        <ele>80.6</ele>
        <time>2023-08-06T12:05:26Z</time>
      </trkpt>
      <trkpt lat="50.14431" lon="3.47776">
        <ele>80.6</ele>
        <time>2023-08-06T12:05:27Z</time>
      </trkpt>
      <trkpt lat="50.14428" lon="3.4778">
        <ele>80.8</ele>
        <time>2023-08-06T12:05:28Z</time>
      </trkpt>
      <trkpt lat="50.14425" lon="3.47783">
        <ele>80.8</ele>
        <time>2023-08-06T12:05:29Z</time>
      </trkpt>
      <trkpt lat="50.14422" lon="3.47786">
        <ele>80.8</ele>
        <time>2023-08-06T12:05:30Z</time>
      </trkpt>
      <trkpt lat="50.14419" lon="3.47789">
        <ele>80.8</ele>
        <time>2023-08-06T12:05:31Z</time>
      </trkpt>
      <trkpt lat="50.14416" lon="3.47792">
        <ele>81</ele>
        <time>2023-08-06T12:05:32Z</time>
      </trkpt>
      <trkpt lat="50.14413" lon="3.47795">
        <ele>81</ele>
        <time>2023-08-06T12:05:33Z</time>
      </trkpt>
      <trkpt lat="50.1441" lon="3.47797">
        <ele>81.2</ele>
        <time>2023-08-06T12:05:34Z</time>
      </trkpt>
      <trkpt lat="50.14406" lon="3.478">
        <ele>81.4</ele>
        <time>2023-08-06T12:05:35Z</time>
      </trkpt>
      <trkpt lat="50.14403" lon="3.47802">
        <ele>81.6</ele>
        <time>2023-08-06T12:05:36Z</time>
      </trkpt>
      <trkpt lat="50.144" lon="3.47805">
        <ele>81.8</ele>
        <time>2023-08-06T12:05:37Z</time>
      </trkpt>
      <trkpt lat="50.14396" lon="3.47808">
        <ele>82</ele>
        <time>2023-08-06T12:05:38Z</time>
      </trkpt>
      <trkpt lat="50.14393" lon="3.47811">
        <ele>82.2</ele>
        <time>2023-08-06T12:05:39Z</time>
      </trkpt>
      <trkpt lat="50.1439" lon="3.47814">
        <ele>82.4</ele>
        <time>2023-08-06T12:05:40Z</time>
      </trkpt>
      <trkpt lat="50.14387" lon="3.47817">
        <ele>82.4</ele>
        <time>2023-08-06T12:05:41Z</time>
      </trkpt>
      <trkpt lat="50.14383" lon="3.4782">
        <ele>82.4</ele>
        <time>2023-08-06T12:05:42Z</time>
      </trkpt>
      <trkpt lat="50.1438" lon="3.47822">
        <ele>82.4</ele>
        <time>2023-08-06T12:05:43Z</time>
      </trkpt>
      <trkpt lat="50.1438" lon="3.47822">
        <ele>82.4</ele>
        <time>2023-08-06T12:05:44Z</time>
      </trkpt>
      <trkpt lat="50.14374" lon="3.47827">
        <ele>82.4</ele>
        <time>2023-08-06T12:05:45Z</time>
      </trkpt>
      <trkpt lat="50.14371" lon="3.47829">
        <ele>82.6</ele>
        <time>2023-08-06T12:05:46Z</time>
      </trkpt>
      <trkpt lat="50.14367" lon="3.47833">
        <ele>82.6</ele>
        <time>2023-08-06T12:05:47Z</time>
      </trkpt>
      <trkpt lat="50.14364" lon="3.47836">
        <ele>82.8</ele>
        <time>2023-08-06T12:05:48Z</time>
      </trkpt>
      <trkpt lat="50.1436" lon="3.47839">
        <ele>83</ele>
        <time>2023-08-06T12:05:49Z</time>
      </trkpt>
      <trkpt lat="50.14357" lon="3.47841">
        <ele>83.4</ele>
        <time>2023-08-06T12:05:50Z</time>
      </trkpt>
      <trkpt lat="50.14354" lon="3.47844">
        <ele>83.6</ele>
        <time>2023-08-06T12:05:51Z</time>
      </trkpt>
      <trkpt lat="50.14351" lon="3.47846">
        <ele>83.8</ele>
        <time>2023-08-06T12:05:52Z</time>
      </trkpt>
      <trkpt lat="50.14348" lon="3.47849">
        <ele>84</ele>
        <time>2023-08-06T12:05:53Z</time>
      </trkpt>
      <trkpt lat="50.14345" lon="3.47851">
        <ele>84.2</ele>
        <time>2023-08-06T12:05:54Z</time>
      </trkpt>
      <trkpt lat="50.14341" lon="3.47854">
        <ele>84.2</ele>
        <time>2023-08-06T12:05:55Z</time>
      </trkpt>
      <trkpt lat="50.14338" lon="3.47857">
        <ele>84.2</ele>
        <time>2023-08-06T12:05:56Z</time>
      </trkpt>
      <trkpt lat="50.14336" lon="3.47858">
        <ele>84.4</ele>
        <time>2023-08-06T12:05:57Z</time>
      </trkpt>
      <trkpt lat="50.14333" lon="3.47861">
        <ele>84.8</ele>
        <time>2023-08-06T12:05:58Z</time>
      </trkpt>
      <trkpt lat="50.1433" lon="3.47864">
        <ele>84.6</ele>
        <time>2023-08-06T12:05:59Z</time>
      </trkpt>
      <trkpt lat="50.14327" lon="3.47866">
        <ele>84.6</ele>
        <time>2023-08-06T12:06:00Z</time>
      </trkpt>
      <trkpt lat="50.14324" lon="3.47868">
        <ele>85</ele>
        <time>2023-08-06T12:06:01Z</time>
      </trkpt>
      <trkpt lat="50.14322" lon="3.47871">
        <ele>85</ele>
        <time>2023-08-06T12:06:02Z</time>
      </trkpt>
      <trkpt lat="50.14319" lon="3.47873">
        <ele>85.2</ele>
        <time>2023-08-06T12:06:03Z</time>
      </trkpt>
      <trkpt lat="50.14317" lon="3.47876">
        <ele>85.4</ele>
        <time>2023-08-06T12:06:04Z</time>
      </trkpt>
      <trkpt lat="50.14314" lon="3.47879">
        <ele>85.4</ele>
        <time>2023-08-06T12:06:05Z</time>
      </trkpt>
      <trkpt lat="50.14311" lon="3.47881">
        <ele>85.6</ele>
        <time>2023-08-06T12:06:06Z</time>
      </trkpt>
      <trkpt lat="50.14309" lon="3.47883">
        <ele>85.6</ele>
        <time>2023-08-06T12:06:07Z</time>
      </trkpt>
      <trkpt lat="50.14306" lon="3.47885">
        <ele>85.6</ele>
        <time>2023-08-06T12:06:08Z</time>
      </trkpt>
      <trkpt lat="50.14303" lon="3.47888">
        <ele>85.6</ele>
        <time>2023-08-06T12:06:09Z</time>
      </trkpt>
      <trkpt lat="50.143" lon="3.4789">
        <ele>85.8</ele>
        <time>2023-08-06T12:06:10Z</time>
      </trkpt>
      <trkpt lat="50.14297" lon="3.47893">
        <ele>85.8</ele>
        <time>2023-08-06T12:06:11Z</time>
      </trkpt>
      <trkpt lat="50.14294" lon="3.47895">
        <ele>85.8</ele>
        <time>2023-08-06T12:06:12Z</time>
      </trkpt>
      <trkpt lat="50.14291" lon="3.47897">
        <ele>85.6</ele>
        <time>2023-08-06T12:06:13Z</time>
      </trkpt>
      <trkpt lat="50.14288" lon="3.479">
        <ele>85.6</ele>
        <time>2023-08-06T12:06:14Z</time>
      </trkpt>
      <trkpt lat="50.14284" lon="3.47903">
        <ele>85.6</ele>
        <time>2023-08-06T12:06:15Z</time>
      </trkpt>
      <trkpt lat="50.14281" lon="3.47905">
        <ele>85.6</ele>
        <time>2023-08-06T12:06:16Z</time>
      </trkpt>
      <trkpt lat="50.14278" lon="3.47907">
        <ele>85.6</ele>
        <time>2023-08-06T12:06:17Z</time>
      </trkpt>
      <trkpt lat="50.14276" lon="3.47909">
        <ele>86</ele>
        <time>2023-08-06T12:06:18Z</time>
      </trkpt>
      <trkpt lat="50.14266" lon="3.47916">
        <ele>86</ele>
        <time>2023-08-06T12:06:21Z</time>
      </trkpt>
      <trkpt lat="50.14231" lon="3.47939">
        <ele>85.8</ele>
        <time>2023-08-06T12:06:30Z</time>
      </trkpt>
      <trkpt lat="50.14201" lon="3.47962">
        <ele>85.2</ele>
        <time>2023-08-06T12:06:38Z</time>
      </trkpt>
      <trkpt lat="50.14168" lon="3.47991">
        <ele>85</ele>
        <time>2023-08-06T12:06:46Z</time>
      </trkpt>
      <trkpt lat="50.1416" lon="3.47999">
        <ele>85</ele>
        <time>2023-08-06T12:06:48Z</time>
      </trkpt>
      <trkpt lat="50.14151" lon="3.48004">
        <ele>85</ele>
        <time>2023-08-06T12:06:50Z</time>
      </trkpt>
      <trkpt lat="50.14137" lon="3.48008">
        <ele>85</ele>
        <time>2023-08-06T12:06:53Z</time>
      </trkpt>
      <trkpt lat="50.14113" lon="3.48008">
        <ele>85.2</ele>
        <time>2023-08-06T12:06:58Z</time>
      </trkpt>
      <trkpt lat="50.14113" lon="3.48008">
        <ele>85.2</ele>
        <time>2023-08-06T12:06:59Z</time>
      </trkpt>
      <trkpt lat="50.14104" lon="3.48007">
        <ele>85.4</ele>
        <time>2023-08-06T12:07:00Z</time>
      </trkpt>
      <trkpt lat="50.14099" lon="3.48006">
        <ele>85.4</ele>
        <time>2023-08-06T12:07:01Z</time>
      </trkpt>
      <trkpt lat="50.14095" lon="3.48005">
        <ele>85.4</ele>
        <time>2023-08-06T12:07:02Z</time>
      </trkpt>
      <trkpt lat="50.14078" lon="3.47996">
        <ele>85.2</ele>
        <time>2023-08-06T12:07:06Z</time>
      </trkpt>
      <trkpt lat="50.14074" lon="3.47993">
        <ele>85.2</ele>
        <time>2023-08-06T12:07:07Z</time>
      </trkpt>
      <trkpt lat="50.1407" lon="3.4799">
        <ele>85</ele>
        <time>2023-08-06T12:07:08Z</time>
      </trkpt>
      <trkpt lat="50.14066" lon="3.47987">
        <ele>85</ele>
        <time>2023-08-06T12:07:09Z</time>
      </trkpt>
      <trkpt lat="50.14062" lon="3.47985">
        <ele>85</ele>
        <time>2023-08-06T12:07:10Z</time>
      </trkpt>
      <trkpt lat="50.14058" lon="3.47982">
        <ele>85</ele>
        <time>2023-08-06T12:07:11Z</time>
      </trkpt>
      <trkpt lat="50.14054" lon="3.47979">
        <ele>85</ele>
        <time>2023-08-06T12:07:12Z</time>
      </trkpt>
      <trkpt lat="50.1405" lon="3.47977">
        <ele>85</ele>
        <time>2023-08-06T12:07:13Z</time>
      </trkpt>
      <trkpt lat="50.14035" lon="3.47966">
        <ele>85.2</ele>
        <time>2023-08-06T12:07:17Z</time>
      </trkpt>
      <trkpt lat="50.14031" lon="3.47964">
        <ele>85.2</ele>
        <time>2023-08-06T12:07:18Z</time>
      </trkpt>
      <trkpt lat="50.14027" lon="3.47961">
        <ele>85.6</ele>
        <time>2023-08-06T12:07:19Z</time>
      </trkpt>
      <trkpt lat="50.14023" lon="3.47959">
        <ele>86</ele>
        <time>2023-08-06T12:07:20Z</time>
      </trkpt>
      <trkpt lat="50.1402" lon="3.47956">
        <ele>86.4</ele>
        <time>2023-08-06T12:07:21Z</time>
      </trkpt>
      <trkpt lat="50.14016" lon="3.47953">
        <ele>86.4</ele>
        <time>2023-08-06T12:07:22Z</time>
      </trkpt>
      <trkpt lat="50.14013" lon="3.47951">
        <ele>86.4</ele>
        <time>2023-08-06T12:07:23Z</time>
      </trkpt>
      <trkpt lat="50.14009" lon="3.47949">
        <ele>86.6</ele>
        <time>2023-08-06T12:07:24Z</time>
      </trkpt>
      <trkpt lat="50.14006" lon="3.47947">
        <ele>86.6</ele>
        <time>2023-08-06T12:07:25Z</time>
      </trkpt>
      <trkpt lat="50.14003" lon="3.47944">
        <ele>86.6</ele>
        <time>2023-08-06T12:07:26Z</time>
      </trkpt>
      <trkpt lat="50.13999" lon="3.47942">
        <ele>86.6</ele>
        <time>2023-08-06T12:07:27Z</time>
      </trkpt>
      <trkpt lat="50.13996" lon="3.4794">
        <ele>87</ele>
        <time>2023-08-06T12:07:28Z</time>
      </trkpt>
      <trkpt lat="50.13993" lon="3.47937">
        <ele>87</ele>
        <time>2023-08-06T12:07:29Z</time>
      </trkpt>
      <trkpt lat="50.1399" lon="3.47935">
        <ele>87.2</ele>
        <time>2023-08-06T12:07:30Z</time>
      </trkpt>
      <trkpt lat="50.13986" lon="3.47933">
        <ele>87.4</ele>
        <time>2023-08-06T12:07:31Z</time>
      </trkpt>
      <trkpt lat="50.13984" lon="3.47931">
        <ele>87.4</ele>
        <time>2023-08-06T12:07:32Z</time>
      </trkpt>
      <trkpt lat="50.13982" lon="3.47928">
        <ele>87.6</ele>
        <time>2023-08-06T12:07:33Z</time>
      </trkpt>
      <trkpt lat="50.13979" lon="3.47926">
        <ele>87.8</ele>
        <time>2023-08-06T12:07:34Z</time>
      </trkpt>
      <trkpt lat="50.13977" lon="3.47924">
        <ele>88.2</ele>
        <time>2023-08-06T12:07:35Z</time>
      </trkpt>
      <trkpt lat="50.13974" lon="3.47921">
        <ele>88.4</ele>
        <time>2023-08-06T12:07:36Z</time>
      </trkpt>
      <trkpt lat="50.13972" lon="3.47919">
        <ele>88.6</ele>
        <time>2023-08-06T12:07:37Z</time>
      </trkpt>
      <trkpt lat="50.1397" lon="3.47917">
        <ele>88.8</ele>
        <time>2023-08-06T12:07:38Z</time>
      </trkpt>
      <trkpt lat="50.13968" lon="3.47915">
        <ele>89</ele>
        <time>2023-08-06T12:07:39Z</time>
      </trkpt>
      <trkpt lat="50.13966" lon="3.47912">
        <ele>89</ele>
        <time>2023-08-06T12:07:40Z</time>
      </trkpt>
      <trkpt lat="50.13964" lon="3.4791">
        <ele>89</ele>
        <time>2023-08-06T12:07:41Z</time>
      </trkpt>
      <trkpt lat="50.13961" lon="3.47908">
        <ele>89.2</ele>
        <time>2023-08-06T12:07:42Z</time>
      </trkpt>
      <trkpt lat="50.13959" lon="3.47905">
        <ele>89.2</ele>
        <time>2023-08-06T12:07:43Z</time>
      </trkpt>
      <trkpt lat="50.13956" lon="3.47903">
        <ele>89.2</ele>
        <time>2023-08-06T12:07:44Z</time>
      </trkpt>
      <trkpt lat="50.13954" lon="3.47901">
        <ele>89.4</ele>
        <time>2023-08-06T12:07:45Z</time>
      </trkpt>
      <trkpt lat="50.13952" lon="3.47898">
        <ele>89.4</ele>
        <time>2023-08-06T12:07:46Z</time>
      </trkpt>
      <trkpt lat="50.13949" lon="3.47895">
        <ele>89.4</ele>
        <time>2023-08-06T12:07:47Z</time>
      </trkpt>
      <trkpt lat="50.13947" lon="3.47893">
        <ele>89.4</ele>
        <time>2023-08-06T12:07:48Z</time>
      </trkpt>
      <trkpt lat="50.13945" lon="3.4789">
        <ele>89.4</ele>
        <time>2023-08-06T12:07:49Z</time>
      </trkpt>
      <trkpt lat="50.13943" lon="3.47888">
        <ele>89.4</ele>
        <time>2023-08-06T12:07:50Z</time>
      </trkpt>
      <trkpt lat="50.13941" lon="3.47886">
        <ele>89.6</ele>
        <time>2023-08-06T12:07:51Z</time>
      </trkpt>
      <trkpt lat="50.13938" lon="3.47883">
        <ele>89.6</ele>
        <time>2023-08-06T12:07:52Z</time>
      </trkpt>
      <trkpt lat="50.13936" lon="3.47881">
        <ele>89.8</ele>
        <time>2023-08-06T12:07:53Z</time>
      </trkpt>
      <trkpt lat="50.13934" lon="3.47878">
        <ele>90</ele>
        <time>2023-08-06T12:07:54Z</time>
      </trkpt>
      <trkpt lat="50.13931" lon="3.47876">
        <ele>90</ele>
        <time>2023-08-06T12:07:55Z</time>
      </trkpt>
      <trkpt lat="50.13929" lon="3.47873">
        <ele>90.2</ele>
        <time>2023-08-06T12:07:56Z</time>
      </trkpt>
      <trkpt lat="50.13926" lon="3.4787">
        <ele>90.2</ele>
        <time>2023-08-06T12:07:57Z</time>
      </trkpt>
      <trkpt lat="50.13924" lon="3.47869">
        <ele>90.4</ele>
        <time>2023-08-06T12:07:58Z</time>
      </trkpt>
      <trkpt lat="50.13921" lon="3.47867">
        <ele>90.6</ele>
        <time>2023-08-06T12:07:59Z</time>
      </trkpt>
      <trkpt lat="50.13919" lon="3.47864">
        <ele>90.8</ele>
        <time>2023-08-06T12:08:00Z</time>
      </trkpt>
      <trkpt lat="50.13917" lon="3.47862">
        <ele>90.8</ele>
        <time>2023-08-06T12:08:01Z</time>
      </trkpt>
      <trkpt lat="50.13914" lon="3.4786">
        <ele>90.8</ele>
        <time>2023-08-06T12:08:02Z</time>
      </trkpt>
      <trkpt lat="50.13912" lon="3.47859">
        <ele>91.2</ele>
        <time>2023-08-06T12:08:03Z</time>
      </trkpt>
      <trkpt lat="50.13909" lon="3.47857">
        <ele>91.2</ele>
        <time>2023-08-06T12:08:04Z</time>
      </trkpt>
      <trkpt lat="50.13907" lon="3.47856">
        <ele>91.4</ele>
        <time>2023-08-06T12:08:05Z</time>
      </trkpt>
      <trkpt lat="50.13904" lon="3.47855">
        <ele>91.4</ele>
        <time>2023-08-06T12:08:06Z</time>
      </trkpt>
      <trkpt lat="50.13902" lon="3.47855">
        <ele>91.4</ele>
        <time>2023-08-06T12:08:07Z</time>
      </trkpt>
      <trkpt lat="50.13898" lon="3.47854">
        <ele>91.6</ele>
        <time>2023-08-06T12:08:08Z</time>
      </trkpt>
      <trkpt lat="50.13896" lon="3.47854">
        <ele>91.8</ele>
        <time>2023-08-06T12:08:09Z</time>
      </trkpt>
      <trkpt lat="50.13893" lon="3.47853">
        <ele>91.8</ele>
        <time>2023-08-06T12:08:10Z</time>
      </trkpt>
      <trkpt lat="50.1389" lon="3.47852">
        <ele>91.8</ele>
        <time>2023-08-06T12:08:11Z</time>
      </trkpt>
      <trkpt lat="50.13887" lon="3.47852">
        <ele>92</ele>
        <time>2023-08-06T12:08:12Z</time>
      </trkpt>
      <trkpt lat="50.13884" lon="3.47851">
        <ele>92</ele>
        <time>2023-08-06T12:08:13Z</time>
      </trkpt>
      <trkpt lat="50.13881" lon="3.4785">
        <ele>92.2</ele>
        <time>2023-08-06T12:08:14Z</time>
      </trkpt>
      <trkpt lat="50.13878" lon="3.4785">
        <ele>92.2</ele>
        <time>2023-08-06T12:08:15Z</time>
      </trkpt>
      <trkpt lat="50.13874" lon="3.4785">
        <ele>92.2</ele>
        <time>2023-08-06T12:08:16Z</time>
      </trkpt>
      <trkpt lat="50.13871" lon="3.47849">
        <ele>92.2</ele>
        <time>2023-08-06T12:08:17Z</time>
      </trkpt>
      <trkpt lat="50.13867" lon="3.47848">
        <ele>92.2</ele>
        <time>2023-08-06T12:08:18Z</time>
      </trkpt>
      <trkpt lat="50.13864" lon="3.47847">
        <ele>92.2</ele>
        <time>2023-08-06T12:08:19Z</time>
      </trkpt>
      <trkpt lat="50.1386" lon="3.47846">
        <ele>92.2</ele>
        <time>2023-08-06T12:08:20Z</time>
      </trkpt>
      <trkpt lat="50.13845" lon="3.47844">
        <ele>92.2</ele>
        <time>2023-08-06T12:08:24Z</time>
      </trkpt>
      <trkpt lat="50.13804" lon="3.47838">
        <ele>92.8</ele>
        <time>2023-08-06T12:08:34Z</time>
      </trkpt>
      <trkpt lat="50.1378" lon="3.47833">
        <ele>92.2</ele>
        <time>2023-08-06T12:08:40Z</time>
      </trkpt>
      <trkpt lat="50.13776" lon="3.47832">
        <ele>92.2</ele>
        <time>2023-08-06T12:08:41Z</time>
      </trkpt>
      <trkpt lat="50.13768" lon="3.4783">
        <ele>92.2</ele>
        <time>2023-08-06T12:08:43Z</time>
      </trkpt>
      <trkpt lat="50.13731" lon="3.47826">
        <ele>92</ele>
        <time>2023-08-06T12:08:52Z</time>
      </trkpt>
      <trkpt lat="50.13715" lon="3.47827">
        <ele>91.8</ele>
        <time>2023-08-06T12:08:56Z</time>
      </trkpt>
      <trkpt lat="50.13707" lon="3.47828">
        <ele>91.8</ele>
        <time>2023-08-06T12:08:58Z</time>
      </trkpt>
      <trkpt lat="50.13703" lon="3.47829">
        <ele>91.8</ele>
        <time>2023-08-06T12:08:59Z</time>
      </trkpt>
      <trkpt lat="50.13695" lon="3.47829">
        <ele>91.8</ele>
        <time>2023-08-06T12:09:01Z</time>
      </trkpt>
      <trkpt lat="50.13692" lon="3.47829">
        <ele>91.8</ele>
        <time>2023-08-06T12:09:02Z</time>
      </trkpt>
      <trkpt lat="50.13687" lon="3.4783">
        <ele>91.8</ele>
        <time>2023-08-06T12:09:03Z</time>
      </trkpt>
      <trkpt lat="50.13679" lon="3.4783">
        <ele>91.8</ele>
        <time>2023-08-06T12:09:05Z</time>
      </trkpt>
      <trkpt lat="50.13667" lon="3.47831">
        <ele>91.8</ele>
        <time>2023-08-06T12:09:08Z</time>
      </trkpt>
      <trkpt lat="50.13663" lon="3.47832">
        <ele>92</ele>
        <time>2023-08-06T12:09:09Z</time>
      </trkpt>
      <trkpt lat="50.1366" lon="3.47832">
        <ele>92.2</ele>
        <time>2023-08-06T12:09:10Z</time>
      </trkpt>
      <trkpt lat="50.13632" lon="3.47831">
        <ele>92.2</ele>
        <time>2023-08-06T12:09:17Z</time>
      </trkpt>
      <trkpt lat="50.13628" lon="3.4783">
        <ele>92</ele>
        <time>2023-08-06T12:09:18Z</time>
      </trkpt>
      <trkpt lat="50.13605" lon="3.47819">
        <ele>91.4</ele>
        <time>2023-08-06T12:09:24Z</time>
      </trkpt>
      <trkpt lat="50.13586" lon="3.47808">
        <ele>90.8</ele>
        <time>2023-08-06T12:09:29Z</time>
      </trkpt>
      <trkpt lat="50.13564" lon="3.47796">
        <ele>90.8</ele>
        <time>2023-08-06T12:09:35Z</time>
      </trkpt>
      <trkpt lat="50.13541" lon="3.47788">
        <ele>90.8</ele>
        <time>2023-08-06T12:09:41Z</time>
      </trkpt>
      <trkpt lat="50.13536" lon="3.47787">
        <ele>91</ele>
        <time>2023-08-06T12:09:42Z</time>
      </trkpt>
      <trkpt lat="50.13533" lon="3.47786">
        <ele>91</ele>
        <time>2023-08-06T12:09:43Z</time>
      </trkpt>
      <trkpt lat="50.1353" lon="3.47785">
        <ele>91</ele>
        <time>2023-08-06T12:09:44Z</time>
      </trkpt>
      <trkpt lat="50.13526" lon="3.47784">
        <ele>91</ele>
        <time>2023-08-06T12:09:45Z</time>
      </trkpt>
      <trkpt lat="50.13503" lon="3.47779">
        <ele>91</ele>
        <time>2023-08-06T12:09:51Z</time>
      </trkpt>
      <trkpt lat="50.13472" lon="3.47785">
        <ele>90.8</ele>
        <time>2023-08-06T12:09:59Z</time>
      </trkpt>
      <trkpt lat="50.13433" lon="3.47798">
        <ele>90.8</ele>
        <time>2023-08-06T12:10:09Z</time>
      </trkpt>
      <trkpt lat="50.13407" lon="3.47806">
        <ele>91.4</ele>
        <time>2023-08-06T12:10:16Z</time>
      </trkpt>
      <trkpt lat="50.13395" lon="3.4781">
        <ele>91.6</ele>
        <time>2023-08-06T12:10:19Z</time>
      </trkpt>
      <trkpt lat="50.13392" lon="3.47812">
        <ele>91.6</ele>
        <time>2023-08-06T12:10:20Z</time>
      </trkpt>
      <trkpt lat="50.13389" lon="3.47813">
        <ele>91.6</ele>
        <time>2023-08-06T12:10:21Z</time>
      </trkpt>
      <trkpt lat="50.13385" lon="3.47814">
        <ele>91.6</ele>
        <time>2023-08-06T12:10:22Z</time>
      </trkpt>
      <trkpt lat="50.13381" lon="3.47815">
        <ele>91.6</ele>
        <time>2023-08-06T12:10:23Z</time>
      </trkpt>
      <trkpt lat="50.13378" lon="3.47816">
        <ele>92</ele>
        <time>2023-08-06T12:10:24Z</time>
      </trkpt>
      <trkpt lat="50.13374" lon="3.47817">
        <ele>92</ele>
        <time>2023-08-06T12:10:25Z</time>
      </trkpt>
      <trkpt lat="50.13371" lon="3.47818">
        <ele>92</ele>
        <time>2023-08-06T12:10:26Z</time>
      </trkpt>
      <trkpt lat="50.13367" lon="3.47819">
        <ele>92.2</ele>
        <time>2023-08-06T12:10:27Z</time>
      </trkpt>
      <trkpt lat="50.13364" lon="3.4782">
        <ele>92.4</ele>
        <time>2023-08-06T12:10:28Z</time>
      </trkpt>
      <trkpt lat="50.1336" lon="3.4782">
        <ele>92.4</ele>
        <time>2023-08-06T12:10:29Z</time>
      </trkpt>
      <trkpt lat="50.13357" lon="3.47821">
        <ele>92.6</ele>
        <time>2023-08-06T12:10:30Z</time>
      </trkpt>
      <trkpt lat="50.13353" lon="3.47822">
        <ele>92.6</ele>
        <time>2023-08-06T12:10:31Z</time>
      </trkpt>
      <trkpt lat="50.1335" lon="3.47822">
        <ele>92.6</ele>
        <time>2023-08-06T12:10:32Z</time>
      </trkpt>
      <trkpt lat="50.13332" lon="3.47824">
        <ele>93</ele>
        <time>2023-08-06T12:10:37Z</time>
      </trkpt>
      <trkpt lat="50.13328" lon="3.47824">
        <ele>93</ele>
        <time>2023-08-06T12:10:38Z</time>
      </trkpt>
      <trkpt lat="50.13308" lon="3.47823">
        <ele>93.6</ele>
        <time>2023-08-06T12:10:44Z</time>
      </trkpt>
      <trkpt lat="50.13305" lon="3.47823">
        <ele>93.8</ele>
        <time>2023-08-06T12:10:45Z</time>
      </trkpt>
      <trkpt lat="50.13301" lon="3.47822">
        <ele>94</ele>
        <time>2023-08-06T12:10:46Z</time>
      </trkpt>
      <trkpt lat="50.13298" lon="3.47822">
        <ele>94.2</ele>
        <time>2023-08-06T12:10:47Z</time>
      </trkpt>
      <trkpt lat="50.13289" lon="3.47821">
        <ele>94.4</ele>
        <time>2023-08-06T12:10:50Z</time>
      </trkpt>
      <trkpt lat="50.13285" lon="3.4782">
        <ele>94.6</ele>
        <time>2023-08-06T12:10:51Z</time>
      </trkpt>
      <trkpt lat="50.13283" lon="3.4782">
        <ele>94.6</ele>
        <time>2023-08-06T12:10:52Z</time>
      </trkpt>
      <trkpt lat="50.1328" lon="3.4782">
        <ele>94.6</ele>
        <time>2023-08-06T12:10:53Z</time>
      </trkpt>
      <trkpt lat="50.13277" lon="3.4782">
        <ele>94.8</ele>
        <time>2023-08-06T12:10:54Z</time>
      </trkpt>
      <trkpt lat="50.13273" lon="3.4782">
        <ele>94.8</ele>
        <time>2023-08-06T12:10:55Z</time>
      </trkpt>
      <trkpt lat="50.1327" lon="3.47819">
        <ele>94.8</ele>
        <time>2023-08-06T12:10:56Z</time>
      </trkpt>
      <trkpt lat="50.13267" lon="3.47819">
        <ele>94.8</ele>
        <time>2023-08-06T12:10:57Z</time>
      </trkpt>
      <trkpt lat="50.13264" lon="3.47819">
        <ele>94.8</ele>
        <time>2023-08-06T12:10:58Z</time>
      </trkpt>
      <trkpt lat="50.13254" lon="3.47817">
        <ele>94.8</ele>
        <time>2023-08-06T12:11:01Z</time>
      </trkpt>
      <trkpt lat="50.13238" lon="3.47814">
        <ele>95.2</ele>
        <time>2023-08-06T12:11:06Z</time>
      </trkpt>
      <trkpt lat="50.13228" lon="3.47811">
        <ele>95.2</ele>
        <time>2023-08-06T12:11:09Z</time>
      </trkpt>
      <trkpt lat="50.13225" lon="3.4781">
        <ele>95.4</ele>
        <time>2023-08-06T12:11:10Z</time>
      </trkpt>
      <trkpt lat="50.13222" lon="3.4781">
        <ele>95.4</ele>
        <time>2023-08-06T12:11:11Z</time>
      </trkpt>
      <trkpt lat="50.13213" lon="3.47806">
        <ele>96</ele>
        <time>2023-08-06T12:11:14Z</time>
      </trkpt>
      <trkpt lat="50.13202" lon="3.47801">
        <ele>96.2</ele>
        <time>2023-08-06T12:11:18Z</time>
      </trkpt>
      <trkpt lat="50.13199" lon="3.478">
        <ele>96.2</ele>
        <time>2023-08-06T12:11:19Z</time>
      </trkpt>
      <trkpt lat="50.13197" lon="3.47799">
        <ele>96.2</ele>
        <time>2023-08-06T12:11:20Z</time>
      </trkpt>
      <trkpt lat="50.13194" lon="3.47797">
        <ele>96.2</ele>
        <time>2023-08-06T12:11:21Z</time>
      </trkpt>
      <trkpt lat="50.13191" lon="3.47795">
        <ele>96.2</ele>
        <time>2023-08-06T12:11:22Z</time>
      </trkpt>
      <trkpt lat="50.13189" lon="3.47794">
        <ele>96.2</ele>
        <time>2023-08-06T12:11:23Z</time>
      </trkpt>
      <trkpt lat="50.13186" lon="3.47792">
        <ele>96.2</ele>
        <time>2023-08-06T12:11:24Z</time>
      </trkpt>
      <trkpt lat="50.13183" lon="3.4779">
        <ele>96</ele>
        <time>2023-08-06T12:11:25Z</time>
      </trkpt>
      <trkpt lat="50.13176" lon="3.47785">
        <ele>96</ele>
        <time>2023-08-06T12:11:28Z</time>
      </trkpt>
      <trkpt lat="50.13173" lon="3.47783">
        <ele>96</ele>
        <time>2023-08-06T12:11:29Z</time>
      </trkpt>
      <trkpt lat="50.13171" lon="3.47781">
        <ele>96</ele>
        <time>2023-08-06T12:11:30Z</time>
      </trkpt>
      <trkpt lat="50.13168" lon="3.4778">
        <ele>96</ele>
        <time>2023-08-06T12:11:31Z</time>
      </trkpt>
      <trkpt lat="50.13166" lon="3.47778">
        <ele>96.2</ele>
        <time>2023-08-06T12:11:32Z</time>
      </trkpt>
      <trkpt lat="50.13161" lon="3.47775">
        <ele>96.2</ele>
        <time>2023-08-06T12:11:34Z</time>
      </trkpt>
      <trkpt lat="50.13159" lon="3.47773">
        <ele>96.2</ele>
        <time>2023-08-06T12:11:35Z</time>
      </trkpt>
      <trkpt lat="50.13149" lon="3.47766">
        <ele>97.2</ele>
        <time>2023-08-06T12:11:39Z</time>
      </trkpt>
      <trkpt lat="50.13134" lon="3.47755">
        <ele>97.6</ele>
        <time>2023-08-06T12:11:45Z</time>
      </trkpt>
      <trkpt lat="50.13121" lon="3.47745">
        <ele>98.2</ele>
        <time>2023-08-06T12:11:50Z</time>
      </trkpt>
      <trkpt lat="50.13113" lon="3.4774">
        <ele>98.8</ele>
        <time>2023-08-06T12:11:53Z</time>
      </trkpt>
      <trkpt lat="50.13103" lon="3.47735">
        <ele>99</ele>
        <time>2023-08-06T12:11:57Z</time>
      </trkpt>
      <trkpt lat="50.13101" lon="3.47734">
        <ele>99.2</ele>
        <time>2023-08-06T12:11:58Z</time>
      </trkpt>
      <trkpt lat="50.13098" lon="3.47733">
        <ele>99.4</ele>
        <time>2023-08-06T12:11:59Z</time>
      </trkpt>
      <trkpt lat="50.13095" lon="3.47732">
        <ele>99.4</ele>
        <time>2023-08-06T12:12:00Z</time>
      </trkpt>
      <trkpt lat="50.13092" lon="3.4773">
        <ele>99.4</ele>
        <time>2023-08-06T12:12:01Z</time>
      </trkpt>
      <trkpt lat="50.1309" lon="3.47729">
        <ele>99.8</ele>
        <time>2023-08-06T12:12:02Z</time>
      </trkpt>
      <trkpt lat="50.13087" lon="3.47727">
        <ele>99.8</ele>
        <time>2023-08-06T12:12:03Z</time>
      </trkpt>
      <trkpt lat="50.13085" lon="3.47726">
        <ele>99.8</ele>
        <time>2023-08-06T12:12:04Z</time>
      </trkpt>
      <trkpt lat="50.13082" lon="3.47724">
        <ele>100</ele>
        <time>2023-08-06T12:12:05Z</time>
      </trkpt>
      <trkpt lat="50.13079" lon="3.47722">
        <ele>100</ele>
        <time>2023-08-06T12:12:06Z</time>
      </trkpt>
      <trkpt lat="50.13077" lon="3.47721">
        <ele>100</ele>
        <time>2023-08-06T12:12:07Z</time>
      </trkpt>
      <trkpt lat="50.13074" lon="3.47719">
        <ele>100</ele>
        <time>2023-08-06T12:12:08Z</time>
      </trkpt>
      <trkpt lat="50.13071" lon="3.47717">
        <ele>100</ele>
        <time>2023-08-06T12:12:09Z</time>
      </trkpt>
      <trkpt lat="50.13068" lon="3.47715">
        <ele>100</ele>
        <time>2023-08-06T12:12:10Z</time>
      </trkpt>
      <trkpt lat="50.13065" lon="3.47713">
        <ele>100</ele>
        <time>2023-08-06T12:12:11Z</time>
      </trkpt>
      <trkpt lat="50.13062" lon="3.47711">
        <ele>100</ele>
        <time>2023-08-06T12:12:12Z</time>
      </trkpt>
      <trkpt lat="50.13039" lon="3.47698">
        <ele>100.2</ele>
        <time>2023-08-06T12:12:19Z</time>
      </trkpt>
      <trkpt lat="50.13033" lon="3.47694">
        <ele>100.4</ele>
        <time>2023-08-06T12:12:21Z</time>
      </trkpt>
      <trkpt lat="50.13013" lon="3.47684">
        <ele>101</ele>
        <time>2023-08-06T12:12:26Z</time>
      </trkpt>
      <trkpt lat="50.13009" lon="3.47682">
        <ele>101</ele>
        <time>2023-08-06T12:12:27Z</time>
      </trkpt>
      <trkpt lat="50.12982" lon="3.47676">
        <ele>100.6</ele>
        <time>2023-08-06T12:12:33Z</time>
      </trkpt>
      <trkpt lat="50.12938" lon="3.47669">
        <ele>99.4</ele>
        <time>2023-08-06T12:12:42Z</time>
      </trkpt>
      <trkpt lat="50.12933" lon="3.47668">
        <ele>99.4</ele>
        <time>2023-08-06T12:12:43Z</time>
      </trkpt>
      <trkpt lat="50.12879" lon="3.47659">
        <ele>98.2</ele>
        <time>2023-08-06T12:12:54Z</time>
      </trkpt>
      <trkpt lat="50.12855" lon="3.47655">
        <ele>97.6</ele>
        <time>2023-08-06T12:12:59Z</time>
      </trkpt>
      <trkpt lat="50.12851" lon="3.47654">
        <ele>97.6</ele>
        <time>2023-08-06T12:13:00Z</time>
      </trkpt>
      <trkpt lat="50.12847" lon="3.47653">
        <ele>97.4</ele>
        <time>2023-08-06T12:13:01Z</time>
      </trkpt>
      <trkpt lat="50.12842" lon="3.47652">
        <ele>97.4</ele>
        <time>2023-08-06T12:13:02Z</time>
      </trkpt>
      <trkpt lat="50.12838" lon="3.47651">
        <ele>97.2</ele>
        <time>2023-08-06T12:13:03Z</time>
      </trkpt>
      <trkpt lat="50.12834" lon="3.4765">
        <ele>97.4</ele>
        <time>2023-08-06T12:13:04Z</time>
      </trkpt>
      <trkpt lat="50.1283" lon="3.47648">
        <ele>97.4</ele>
        <time>2023-08-06T12:13:05Z</time>
      </trkpt>
      <trkpt lat="50.12826" lon="3.47647">
        <ele>97.4</ele>
        <time>2023-08-06T12:13:06Z</time>
      </trkpt>
      <trkpt lat="50.12822" lon="3.47646">
        <ele>97.4</ele>
        <time>2023-08-06T12:13:07Z</time>
      </trkpt>
      <trkpt lat="50.12818" lon="3.47646">
        <ele>97.6</ele>
        <time>2023-08-06T12:13:08Z</time>
      </trkpt>
      <trkpt lat="50.12814" lon="3.47645">
        <ele>97.6</ele>
        <time>2023-08-06T12:13:09Z</time>
      </trkpt>
      <trkpt lat="50.12811" lon="3.47644">
        <ele>97.4</ele>
        <time>2023-08-06T12:13:10Z</time>
      </trkpt>
      <trkpt lat="50.12807" lon="3.47643">
        <ele>97.4</ele>
        <time>2023-08-06T12:13:11Z</time>
      </trkpt>
      <trkpt lat="50.12804" lon="3.47642">
        <ele>97.2</ele>
        <time>2023-08-06T12:13:12Z</time>
      </trkpt>
      <trkpt lat="50.12801" lon="3.47642">
        <ele>97</ele>
        <time>2023-08-06T12:13:13Z</time>
      </trkpt>
      <trkpt lat="50.12795" lon="3.4764">
        <ele>97</ele>
        <time>2023-08-06T12:13:15Z</time>
      </trkpt>
      <trkpt lat="50.12792" lon="3.4764">
        <ele>97</ele>
        <time>2023-08-06T12:13:16Z</time>
      </trkpt>
      <trkpt lat="50.1279" lon="3.47639">
        <ele>96.8</ele>
        <time>2023-08-06T12:13:17Z</time>
      </trkpt>
      <trkpt lat="50.12787" lon="3.47639">
        <ele>96.8</ele>
        <time>2023-08-06T12:13:18Z</time>
      </trkpt>
      <trkpt lat="50.12785" lon="3.47638">
        <ele>96.6</ele>
        <time>2023-08-06T12:13:19Z</time>
      </trkpt>
      <trkpt lat="50.12782" lon="3.47637">
        <ele>96.6</ele>
        <time>2023-08-06T12:13:20Z</time>
      </trkpt>
      <trkpt lat="50.1278" lon="3.47636">
        <ele>96.6</ele>
        <time>2023-08-06T12:13:21Z</time>
      </trkpt>
      <trkpt lat="50.12777" lon="3.47636">
        <ele>96.4</ele>
        <time>2023-08-06T12:13:22Z</time>
      </trkpt>
      <trkpt lat="50.12774" lon="3.47635">
        <ele>96.6</ele>
        <time>2023-08-06T12:13:23Z</time>
      </trkpt>
      <trkpt lat="50.12771" lon="3.47634">
        <ele>96.6</ele>
        <time>2023-08-06T12:13:24Z</time>
      </trkpt>
      <trkpt lat="50.12768" lon="3.47633">
        <ele>96.6</ele>
        <time>2023-08-06T12:13:25Z</time>
      </trkpt>
      <trkpt lat="50.12755" lon="3.4763">
        <ele>96.6</ele>
        <time>2023-08-06T12:13:29Z</time>
      </trkpt>
      <trkpt lat="50.12721" lon="3.47627">
        <ele>97.2</ele>
        <time>2023-08-06T12:13:38Z</time>
      </trkpt>
      <trkpt lat="50.12691" lon="3.47634">
        <ele>96.4</ele>
        <time>2023-08-06T12:13:46Z</time>
      </trkpt>
      <trkpt lat="50.12666" lon="3.4764">
        <ele>96.6</ele>
        <time>2023-08-06T12:13:53Z</time>
      </trkpt>
      <trkpt lat="50.12662" lon="3.4764">
        <ele>96.8</ele>
        <time>2023-08-06T12:13:54Z</time>
      </trkpt>
      <trkpt lat="50.12658" lon="3.47641">
        <ele>96.8</ele>
        <time>2023-08-06T12:13:55Z</time>
      </trkpt>
      <trkpt lat="50.12655" lon="3.47642">
        <ele>97</ele>
        <time>2023-08-06T12:13:56Z</time>
      </trkpt>
      <trkpt lat="50.12622" lon="3.47651">
        <ele>98</ele>
        <time>2023-08-06T12:14:05Z</time>
      </trkpt>
      <trkpt lat="50.12618" lon="3.47652">
        <ele>98.2</ele>
        <time>2023-08-06T12:14:06Z</time>
      </trkpt>
      <trkpt lat="50.12585" lon="3.47658">
        <ele>97.8</ele>
        <time>2023-08-06T12:14:14Z</time>
      </trkpt>
      <trkpt lat="50.12553" lon="3.47663">
        <ele>97.6</ele>
        <time>2023-08-06T12:14:21Z</time>
      </trkpt>
      <trkpt lat="50.12502" lon="3.47668">
        <ele>97.4</ele>
        <time>2023-08-06T12:14:32Z</time>
      </trkpt>
      <trkpt lat="50.12466" lon="3.47674">
        <ele>96.8</ele>
        <time>2023-08-06T12:14:39Z</time>
      </trkpt>
      <trkpt lat="50.12455" lon="3.47676">
        <ele>96.4</ele>
        <time>2023-08-06T12:14:41Z</time>
      </trkpt>
      <trkpt lat="50.12409" lon="3.47681">
        <ele>96.6</ele>
        <time>2023-08-06T12:14:49Z</time>
      </trkpt>
      <trkpt lat="50.12398" lon="3.47682">
        <ele>95.8</ele>
        <time>2023-08-06T12:14:51Z</time>
      </trkpt>
      <trkpt lat="50.12392" lon="3.47682">
        <ele>95.6</ele>
        <time>2023-08-06T12:14:52Z</time>
      </trkpt>
      <trkpt lat="50.12387" lon="3.47683">
        <ele>95.4</ele>
        <time>2023-08-06T12:14:53Z</time>
      </trkpt>
      <trkpt lat="50.1236" lon="3.47685">
        <ele>95.2</ele>
        <time>2023-08-06T12:14:58Z</time>
      </trkpt>
      <trkpt lat="50.12355" lon="3.47684">
        <ele>95</ele>
        <time>2023-08-06T12:14:59Z</time>
      </trkpt>
      <trkpt lat="50.12349" lon="3.47685">
        <ele>95</ele>
        <time>2023-08-06T12:15:00Z</time>
      </trkpt>
      <trkpt lat="50.12344" lon="3.47685">
        <ele>94.8</ele>
        <time>2023-08-06T12:15:01Z</time>
      </trkpt>
      <trkpt lat="50.12339" lon="3.47686">
        <ele>94.8</ele>
        <time>2023-08-06T12:15:02Z</time>
      </trkpt>
      <trkpt lat="50.12334" lon="3.47686">
        <ele>94.6</ele>
        <time>2023-08-06T12:15:03Z</time>
      </trkpt>
      <trkpt lat="50.12329" lon="3.47686">
        <ele>94.6</ele>
        <time>2023-08-06T12:15:04Z</time>
      </trkpt>
      <trkpt lat="50.12323" lon="3.47687">
        <ele>94.4</ele>
        <time>2023-08-06T12:15:05Z</time>
      </trkpt>
      <trkpt lat="50.12318" lon="3.47688">
        <ele>94.4</ele>
        <time>2023-08-06T12:15:06Z</time>
      </trkpt>
      <trkpt lat="50.12314" lon="3.47689">
        <ele>94.2</ele>
        <time>2023-08-06T12:15:07Z</time>
      </trkpt>
      <trkpt lat="50.1231" lon="3.47689">
        <ele>94</ele>
        <time>2023-08-06T12:15:08Z</time>
      </trkpt>
      <trkpt lat="50.12305" lon="3.47689">
        <ele>94</ele>
        <time>2023-08-06T12:15:09Z</time>
      </trkpt>
      <trkpt lat="50.12299" lon="3.4769">
        <ele>93.8</ele>
        <time>2023-08-06T12:15:10Z</time>
      </trkpt>
      <trkpt lat="50.12294" lon="3.4769">
        <ele>93.4</ele>
        <time>2023-08-06T12:15:11Z</time>
      </trkpt>
      <trkpt lat="50.12285" lon="3.47692">
        <ele>93</ele>
        <time>2023-08-06T12:15:13Z</time>
      </trkpt>
      <trkpt lat="50.12281" lon="3.47693">
        <ele>93</ele>
        <time>2023-08-06T12:15:14Z</time>
      </trkpt>
      <trkpt lat="50.1227" lon="3.47695">
        <ele>92.6</ele>
        <time>2023-08-06T12:15:16Z</time>
      </trkpt>
      <trkpt lat="50.12266" lon="3.47696">
        <ele>92.4</ele>
        <time>2023-08-06T12:15:17Z</time>
      </trkpt>
      <trkpt lat="50.1221" lon="3.4771">
        <ele>92.8</ele>
        <time>2023-08-06T12:15:28Z</time>
      </trkpt>
      <trkpt lat="50.12192" lon="3.47714">
        <ele>92</ele>
        <time>2023-08-06T12:15:31Z</time>
      </trkpt>
      <trkpt lat="50.12176" lon="3.47719">
        <ele>90.6</ele>
        <time>2023-08-06T12:15:34Z</time>
      </trkpt>
      <trkpt lat="50.12155" lon="3.47724">
        <ele>90</ele>
        <time>2023-08-06T12:15:37Z</time>
      </trkpt>
      <trkpt lat="50.12149" lon="3.47726">
        <ele>89.6</ele>
        <time>2023-08-06T12:15:38Z</time>
      </trkpt>
      <trkpt lat="50.12118" lon="3.47734">
        <ele>88.4</ele>
        <time>2023-08-06T12:15:43Z</time>
      </trkpt>
      <trkpt lat="50.12095" lon="3.47742">
        <ele>87.8</ele>
        <time>2023-08-06T12:15:47Z</time>
      </trkpt>
      <trkpt lat="50.12089" lon="3.47744">
        <ele>87.8</ele>
        <time>2023-08-06T12:15:48Z</time>
      </trkpt>
      <trkpt lat="50.12084" lon="3.47746">
        <ele>87.8</ele>
        <time>2023-08-06T12:15:49Z</time>
      </trkpt>
      <trkpt lat="50.12078" lon="3.47748">
        <ele>87.4</ele>
        <time>2023-08-06T12:15:50Z</time>
      </trkpt>
      <trkpt lat="50.12074" lon="3.4775">
        <ele>87.4</ele>
        <time>2023-08-06T12:15:51Z</time>
      </trkpt>
      <trkpt lat="50.12069" lon="3.47752">
        <ele>87.4</ele>
        <time>2023-08-06T12:15:52Z</time>
      </trkpt>
      <trkpt lat="50.12063" lon="3.47754">
        <ele>87.4</ele>
        <time>2023-08-06T12:15:53Z</time>
      </trkpt>
      <trkpt lat="50.12058" lon="3.47755">
        <ele>87.4</ele>
        <time>2023-08-06T12:15:54Z</time>
      </trkpt>
      <trkpt lat="50.12054" lon="3.47757">
        <ele>87.4</ele>
        <time>2023-08-06T12:15:55Z</time>
      </trkpt>
      <trkpt lat="50.1205" lon="3.47758">
        <ele>87.4</ele>
        <time>2023-08-06T12:15:56Z</time>
      </trkpt>
      <trkpt lat="50.12021" lon="3.47768">
        <ele>87.4</ele>
        <time>2023-08-06T12:16:02Z</time>
      </trkpt>
      <trkpt lat="50.12016" lon="3.47769">
        <ele>87.4</ele>
        <time>2023-08-06T12:16:03Z</time>
      </trkpt>
      <trkpt lat="50.11972" lon="3.47784">
        <ele>87.4</ele>
        <time>2023-08-06T12:16:12Z</time>
      </trkpt>
      <trkpt lat="50.11967" lon="3.47785">
        <ele>87.4</ele>
        <time>2023-08-06T12:16:13Z</time>
      </trkpt>
      <trkpt lat="50.11961" lon="3.47785">
        <ele>87.2</ele>
        <time>2023-08-06T12:16:14Z</time>
      </trkpt>
      <trkpt lat="50.11948" lon="3.47784">
        <ele>87.4</ele>
        <time>2023-08-06T12:16:17Z</time>
      </trkpt>
      <trkpt lat="50.11943" lon="3.47784">
        <ele>87.4</ele>
        <time>2023-08-06T12:16:18Z</time>
      </trkpt>
      <trkpt lat="50.11938" lon="3.47782">
        <ele>87.8</ele>
        <time>2023-08-06T12:16:19Z</time>
      </trkpt>
      <trkpt lat="50.11933" lon="3.47781">
        <ele>87.8</ele>
        <time>2023-08-06T12:16:20Z</time>
      </trkpt>
      <trkpt lat="50.11929" lon="3.47779">
        <ele>88.4</ele>
        <time>2023-08-06T12:16:21Z</time>
      </trkpt>
      <trkpt lat="50.11924" lon="3.47778">
        <ele>88.4</ele>
        <time>2023-08-06T12:16:22Z</time>
      </trkpt>
      <trkpt lat="50.11921" lon="3.47776">
        <ele>88.4</ele>
        <time>2023-08-06T12:16:23Z</time>
      </trkpt>
      <trkpt lat="50.11916" lon="3.47775">
        <ele>88.4</ele>
        <time>2023-08-06T12:16:24Z</time>
      </trkpt>
      <trkpt lat="50.11907" lon="3.47771">
        <ele>88.4</ele>
        <time>2023-08-06T12:16:26Z</time>
      </trkpt>
      <trkpt lat="50.11902" lon="3.47769">
        <ele>88.4</ele>
        <time>2023-08-06T12:16:27Z</time>
      </trkpt>
      <trkpt lat="50.11899" lon="3.47768">
        <ele>88.4</ele>
        <time>2023-08-06T12:16:28Z</time>
      </trkpt>
      <trkpt lat="50.11896" lon="3.47768">
        <ele>88.4</ele>
        <time>2023-08-06T12:16:29Z</time>
      </trkpt>
      <trkpt lat="50.11891" lon="3.47767">
        <ele>88.4</ele>
        <time>2023-08-06T12:16:30Z</time>
      </trkpt>
      <trkpt lat="50.11888" lon="3.47766">
        <ele>88.4</ele>
        <time>2023-08-06T12:16:31Z</time>
      </trkpt>
      <trkpt lat="50.11884" lon="3.47765">
        <ele>88.6</ele>
        <time>2023-08-06T12:16:32Z</time>
      </trkpt>
      <trkpt lat="50.11882" lon="3.47764">
        <ele>88.6</ele>
        <time>2023-08-06T12:16:33Z</time>
      </trkpt>
      <trkpt lat="50.1188" lon="3.47763">
        <ele>88.6</ele>
        <time>2023-08-06T12:16:34Z</time>
      </trkpt>
      <trkpt lat="50.11878" lon="3.47762">
        <ele>88.8</ele>
        <time>2023-08-06T12:16:35Z</time>
      </trkpt>
      <trkpt lat="50.11878" lon="3.47761">
        <ele>89</ele>
        <time>2023-08-06T12:16:36Z</time>
      </trkpt>
      <trkpt lat="50.11878" lon="3.47759">
        <ele>89.2</ele>
        <time>2023-08-06T12:16:37Z</time>
      </trkpt>
      <trkpt lat="50.11879" lon="3.47758">
        <ele>89.2</ele>
        <time>2023-08-06T12:16:38Z</time>
      </trkpt>
      <trkpt lat="50.11879" lon="3.47757">
        <ele>89.2</ele>
        <time>2023-08-06T12:16:39Z</time>
      </trkpt>
      <trkpt lat="50.1188" lon="3.47752">
        <ele>89.6</ele>
        <time>2023-08-06T12:16:41Z</time>
      </trkpt>
      <trkpt lat="50.11879" lon="3.47749">
        <ele>90</ele>
        <time>2023-08-06T12:16:43Z</time>
      </trkpt>
      <trkpt lat="50.11878" lon="3.47748">
        <ele>90.2</ele>
        <time>2023-08-06T12:16:44Z</time>
      </trkpt>
      <trkpt lat="50.11876" lon="3.47748">
        <ele>90.4</ele>
        <time>2023-08-06T12:16:45Z</time>
      </trkpt>
      <trkpt lat="50.11871" lon="3.47749">
        <ele>90.4</ele>
        <time>2023-08-06T12:16:47Z</time>
      </trkpt>
      <trkpt lat="50.11869" lon="3.47751">
        <ele>90.6</ele>
        <time>2023-08-06T12:16:48Z</time>
      </trkpt>
      <trkpt lat="50.11861" lon="3.47753">
        <ele>90.6</ele>
        <time>2023-08-06T12:16:51Z</time>
      </trkpt>
      <trkpt lat="50.11858" lon="3.47753">
        <ele>90.6</ele>
        <time>2023-08-06T12:16:52Z</time>
      </trkpt>
      <trkpt lat="50.11855" lon="3.47752">
        <ele>90.8</ele>
        <time>2023-08-06T12:16:53Z</time>
      </trkpt>
      <trkpt lat="50.11852" lon="3.47752">
        <ele>90.8</ele>
        <time>2023-08-06T12:16:54Z</time>
      </trkpt>
      <trkpt lat="50.1185" lon="3.47751">
        <ele>91</ele>
        <time>2023-08-06T12:16:55Z</time>
      </trkpt>
      <trkpt lat="50.11838" lon="3.47748">
        <ele>91.6</ele>
        <time>2023-08-06T12:16:59Z</time>
      </trkpt>
      <trkpt lat="50.1183" lon="3.47745">
        <ele>92.2</ele>
        <time>2023-08-06T12:17:02Z</time>
      </trkpt>
      <trkpt lat="50.11827" lon="3.47744">
        <ele>92.2</ele>
        <time>2023-08-06T12:17:03Z</time>
      </trkpt>
      <trkpt lat="50.11825" lon="3.47744">
        <ele>92.2</ele>
        <time>2023-08-06T12:17:04Z</time>
      </trkpt>
      <trkpt lat="50.11823" lon="3.47743">
        <ele>92.4</ele>
        <time>2023-08-06T12:17:05Z</time>
      </trkpt>
      <trkpt lat="50.1182" lon="3.47742">
        <ele>92.4</ele>
        <time>2023-08-06T12:17:06Z</time>
      </trkpt>
      <trkpt lat="50.11817" lon="3.47741">
        <ele>92.4</ele>
        <time>2023-08-06T12:17:07Z</time>
      </trkpt>
      <trkpt lat="50.11814" lon="3.4774">
        <ele>92.4</ele>
        <time>2023-08-06T12:17:08Z</time>
      </trkpt>
      <trkpt lat="50.11812" lon="3.4774">
        <ele>92.2</ele>
        <time>2023-08-06T12:17:09Z</time>
      </trkpt>
      <trkpt lat="50.11809" lon="3.47739">
        <ele>92.2</ele>
        <time>2023-08-06T12:17:10Z</time>
      </trkpt>
      <trkpt lat="50.11807" lon="3.47739">
        <ele>92.4</ele>
        <time>2023-08-06T12:17:11Z</time>
      </trkpt>
      <trkpt lat="50.11805" lon="3.47738">
        <ele>92.6</ele>
        <time>2023-08-06T12:17:12Z</time>
      </trkpt>
      <trkpt lat="50.11801" lon="3.47738">
        <ele>92.6</ele>
        <time>2023-08-06T12:17:13Z</time>
      </trkpt>
      <trkpt lat="50.11799" lon="3.47737">
        <ele>92.8</ele>
        <time>2023-08-06T12:17:14Z</time>
      </trkpt>
      <trkpt lat="50.11776" lon="3.47734">
        <ele>94</ele>
        <time>2023-08-06T12:17:23Z</time>
      </trkpt>
      <trkpt lat="50.11768" lon="3.47735">
        <ele>94.2</ele>
        <time>2023-08-06T12:17:26Z</time>
      </trkpt>
      <trkpt lat="50.11766" lon="3.47735">
        <ele>94.2</ele>
        <time>2023-08-06T12:17:27Z</time>
      </trkpt>
      <trkpt lat="50.11763" lon="3.47735">
        <ele>94.4</ele>
        <time>2023-08-06T12:17:28Z</time>
      </trkpt>
      <trkpt lat="50.11761" lon="3.47735">
        <ele>94.6</ele>
        <time>2023-08-06T12:17:29Z</time>
      </trkpt>
      <trkpt lat="50.11758" lon="3.47735">
        <ele>94.8</ele>
        <time>2023-08-06T12:17:30Z</time>
      </trkpt>
      <trkpt lat="50.11756" lon="3.47734">
        <ele>95</ele>
        <time>2023-08-06T12:17:31Z</time>
      </trkpt>
      <trkpt lat="50.11754" lon="3.47734">
        <ele>95</ele>
        <time>2023-08-06T12:17:32Z</time>
      </trkpt>
      <trkpt lat="50.11751" lon="3.47733">
        <ele>95</ele>
        <time>2023-08-06T12:17:33Z</time>
      </trkpt>
      <trkpt lat="50.11748" lon="3.47733">
        <ele>95</ele>
        <time>2023-08-06T12:17:34Z</time>
      </trkpt>
      <trkpt lat="50.11746" lon="3.47733">
        <ele>95.2</ele>
        <time>2023-08-06T12:17:35Z</time>
      </trkpt>
      <trkpt lat="50.11744" lon="3.47733">
        <ele>95.4</ele>
        <time>2023-08-06T12:17:36Z</time>
      </trkpt>
      <trkpt lat="50.11741" lon="3.47733">
        <ele>95.6</ele>
        <time>2023-08-06T12:17:37Z</time>
      </trkpt>
      <trkpt lat="50.11738" lon="3.47733">
        <ele>95.4</ele>
        <time>2023-08-06T12:17:38Z</time>
      </trkpt>
      <trkpt lat="50.11735" lon="3.47733">
        <ele>95.6</ele>
        <time>2023-08-06T12:17:39Z</time>
      </trkpt>
      <trkpt lat="50.11733" lon="3.47733">
        <ele>95.6</ele>
        <time>2023-08-06T12:17:40Z</time>
      </trkpt>
      <trkpt lat="50.11731" lon="3.47734">
        <ele>95.6</ele>
        <time>2023-08-06T12:17:41Z</time>
      </trkpt>
      <trkpt lat="50.11728" lon="3.47734">
        <ele>95.6</ele>
        <time>2023-08-06T12:17:42Z</time>
      </trkpt>
      <trkpt lat="50.11725" lon="3.47734">
        <ele>95.6</ele>
        <time>2023-08-06T12:17:43Z</time>
      </trkpt>
      <trkpt lat="50.11722" lon="3.47734">
        <ele>95.8</ele>
        <time>2023-08-06T12:17:44Z</time>
      </trkpt>
      <trkpt lat="50.11719" lon="3.47735">
        <ele>95.8</ele>
        <time>2023-08-06T12:17:45Z</time>
      </trkpt>
      <trkpt lat="50.11712" lon="3.47736">
        <ele>96</ele>
        <time>2023-08-06T12:17:48Z</time>
      </trkpt>
      <trkpt lat="50.11709" lon="3.47736">
        <ele>96</ele>
        <time>2023-08-06T12:17:49Z</time>
      </trkpt>
      <trkpt lat="50.11684" lon="3.47738">
        <ele>96.8</ele>
        <time>2023-08-06T12:17:59Z</time>
      </trkpt>
      <trkpt lat="50.11673" lon="3.47738">
        <ele>97</ele>
        <time>2023-08-06T12:18:03Z</time>
      </trkpt>
      <trkpt lat="50.11653" lon="3.47738">
        <ele>97.4</ele>
        <time>2023-08-06T12:18:10Z</time>
      </trkpt>
      <trkpt lat="50.11651" lon="3.47738">
        <ele>97.4</ele>
        <time>2023-08-06T12:18:11Z</time>
      </trkpt>
      <trkpt lat="50.11634" lon="3.47738">
        <ele>98</ele>
        <time>2023-08-06T12:18:17Z</time>
      </trkpt>
      <trkpt lat="50.11632" lon="3.47738">
        <ele>98.2</ele>
        <time>2023-08-06T12:18:18Z</time>
      </trkpt>
      <trkpt lat="50.11602" lon="3.47739">
        <ele>98.8</ele>
        <time>2023-08-06T12:18:29Z</time>
      </trkpt>
      <trkpt lat="50.11588" lon="3.47739">
        <ele>99</ele>
        <time>2023-08-06T12:18:34Z</time>
      </trkpt>
      <trkpt lat="50.11581" lon="3.47739">
        <ele>99.2</ele>
        <time>2023-08-06T12:18:37Z</time>
      </trkpt>
      <trkpt lat="50.11564" lon="3.47738">
        <ele>99.4</ele>
        <time>2023-08-06T12:18:43Z</time>
      </trkpt>
      <trkpt lat="50.11546" lon="3.47735">
        <ele>99.8</ele>
        <time>2023-08-06T12:18:49Z</time>
      </trkpt>
      <trkpt lat="50.11524" lon="3.47732">
        <ele>100</ele>
        <time>2023-08-06T12:18:57Z</time>
      </trkpt>
      <trkpt lat="50.11519" lon="3.47731">
        <ele>100.2</ele>
        <time>2023-08-06T12:18:59Z</time>
      </trkpt>
      <trkpt lat="50.11517" lon="3.47731">
        <ele>100.2</ele>
        <time>2023-08-06T12:19:00Z</time>
      </trkpt>
      <trkpt lat="50.11489" lon="3.47726">
        <ele>100.8</ele>
        <time>2023-08-06T12:19:10Z</time>
      </trkpt>
      <trkpt lat="50.11483" lon="3.47725">
        <ele>101</ele>
        <time>2023-08-06T12:19:12Z</time>
      </trkpt>
      <trkpt lat="50.11461" lon="3.47722">
        <ele>102.4</ele>
        <time>2023-08-06T12:19:20Z</time>
      </trkpt>
      <trkpt lat="50.11455" lon="3.47721">
        <ele>102.6</ele>
        <time>2023-08-06T12:19:22Z</time>
      </trkpt>
      <trkpt lat="50.11446" lon="3.4772">
        <ele>103</ele>
        <time>2023-08-06T12:19:25Z</time>
      </trkpt>
      <trkpt lat="50.11441" lon="3.47719">
        <ele>103.4</ele>
        <time>2023-08-06T12:19:27Z</time>
      </trkpt>
      <trkpt lat="50.11438" lon="3.47719">
        <ele>103.8</ele>
        <time>2023-08-06T12:19:28Z</time>
      </trkpt>
      <trkpt lat="50.11435" lon="3.47718">
        <ele>104</ele>
        <time>2023-08-06T12:19:29Z</time>
      </trkpt>
      <trkpt lat="50.11432" lon="3.47717">
        <ele>104</ele>
        <time>2023-08-06T12:19:30Z</time>
      </trkpt>
      <trkpt lat="50.1143" lon="3.47717">
        <ele>104</ele>
        <time>2023-08-06T12:19:31Z</time>
      </trkpt>
      <trkpt lat="50.11427" lon="3.47716">
        <ele>104.2</ele>
        <time>2023-08-06T12:19:32Z</time>
      </trkpt>
      <trkpt lat="50.11424" lon="3.47716">
        <ele>104.2</ele>
        <time>2023-08-06T12:19:33Z</time>
      </trkpt>
      <trkpt lat="50.11421" lon="3.47715">
        <ele>104.2</ele>
        <time>2023-08-06T12:19:34Z</time>
      </trkpt>
      <trkpt lat="50.11418" lon="3.47714">
        <ele>104.4</ele>
        <time>2023-08-06T12:19:35Z</time>
      </trkpt>
      <trkpt lat="50.11415" lon="3.47714">
        <ele>104.4</ele>
        <time>2023-08-06T12:19:36Z</time>
      </trkpt>
      <trkpt lat="50.11413" lon="3.47713">
        <ele>104.4</ele>
        <time>2023-08-06T12:19:37Z</time>
      </trkpt>
      <trkpt lat="50.1141" lon="3.47712">
        <ele>104.6</ele>
        <time>2023-08-06T12:19:38Z</time>
      </trkpt>
      <trkpt lat="50.11407" lon="3.47711">
        <ele>104.6</ele>
        <time>2023-08-06T12:19:39Z</time>
      </trkpt>
      <trkpt lat="50.11404" lon="3.4771">
        <ele>104.8</ele>
        <time>2023-08-06T12:19:40Z</time>
      </trkpt>
      <trkpt lat="50.11401" lon="3.47709">
        <ele>104.8</ele>
        <time>2023-08-06T12:19:41Z</time>
      </trkpt>
      <trkpt lat="50.11399" lon="3.47708">
        <ele>104.8</ele>
        <time>2023-08-06T12:19:42Z</time>
      </trkpt>
      <trkpt lat="50.11396" lon="3.47708">
        <ele>104.8</ele>
        <time>2023-08-06T12:19:43Z</time>
      </trkpt>
      <trkpt lat="50.11393" lon="3.47707">
        <ele>104.8</ele>
        <time>2023-08-06T12:19:44Z</time>
      </trkpt>
      <trkpt lat="50.1139" lon="3.47706">
        <ele>104.8</ele>
        <time>2023-08-06T12:19:45Z</time>
      </trkpt>
      <trkpt lat="50.11388" lon="3.47706">
        <ele>104.8</ele>
        <time>2023-08-06T12:19:46Z</time>
      </trkpt>
      <trkpt lat="50.11385" lon="3.47706">
        <ele>104.8</ele>
        <time>2023-08-06T12:19:47Z</time>
      </trkpt>
      <trkpt lat="50.11383" lon="3.47705">
        <ele>104.8</ele>
        <time>2023-08-06T12:19:48Z</time>
      </trkpt>
      <trkpt lat="50.1138" lon="3.47704">
        <ele>105</ele>
        <time>2023-08-06T12:19:49Z</time>
      </trkpt>
      <trkpt lat="50.11361" lon="3.47699">
        <ele>105.6</ele>
        <time>2023-08-06T12:19:56Z</time>
      </trkpt>
      <trkpt lat="50.1135" lon="3.47696">
        <ele>106</ele>
        <time>2023-08-06T12:20:00Z</time>
      </trkpt>
      <trkpt lat="50.11331" lon="3.47691">
        <ele>106.6</ele>
        <time>2023-08-06T12:20:07Z</time>
      </trkpt>
      <trkpt lat="50.11325" lon="3.47689">
        <ele>106.6</ele>
        <time>2023-08-06T12:20:09Z</time>
      </trkpt>
      <trkpt lat="50.11312" lon="3.47686">
        <ele>106.6</ele>
        <time>2023-08-06T12:20:14Z</time>
      </trkpt>
      <trkpt lat="50.11304" lon="3.47684">
        <ele>106.6</ele>
        <time>2023-08-06T12:20:17Z</time>
      </trkpt>
      <trkpt lat="50.11296" lon="3.47682">
        <ele>106.8</ele>
        <time>2023-08-06T12:20:20Z</time>
      </trkpt>
      <trkpt lat="50.11289" lon="3.4768">
        <ele>107</ele>
        <time>2023-08-06T12:20:23Z</time>
      </trkpt>
      <trkpt lat="50.11284" lon="3.47679">
        <ele>107.2</ele>
        <time>2023-08-06T12:20:25Z</time>
      </trkpt>
      <trkpt lat="50.11281" lon="3.47678">
        <ele>107.4</ele>
        <time>2023-08-06T12:20:26Z</time>
      </trkpt>
      <trkpt lat="50.11279" lon="3.47678">
        <ele>107.4</ele>
        <time>2023-08-06T12:20:27Z</time>
      </trkpt>
      <trkpt lat="50.11277" lon="3.47677">
        <ele>107.8</ele>
        <time>2023-08-06T12:20:28Z</time>
      </trkpt>
      <trkpt lat="50.11274" lon="3.47677">
        <ele>107.8</ele>
        <time>2023-08-06T12:20:29Z</time>
      </trkpt>
      <trkpt lat="50.11272" lon="3.47678">
        <ele>108</ele>
        <time>2023-08-06T12:20:30Z</time>
      </trkpt>
      <trkpt lat="50.1127" lon="3.47678">
        <ele>108.2</ele>
        <time>2023-08-06T12:20:31Z</time>
      </trkpt>
      <trkpt lat="50.11267" lon="3.47678">
        <ele>108.6</ele>
        <time>2023-08-06T12:20:32Z</time>
      </trkpt>
      <trkpt lat="50.11263" lon="3.47679">
        <ele>108.8</ele>
        <time>2023-08-06T12:20:34Z</time>
      </trkpt>
      <trkpt lat="50.11257" lon="3.47679">
        <ele>109.4</ele>
        <time>2023-08-06T12:20:37Z</time>
      </trkpt>
      <trkpt lat="50.11254" lon="3.4768">
        <ele>109.6</ele>
        <time>2023-08-06T12:20:38Z</time>
      </trkpt>
      <trkpt lat="50.11252" lon="3.47681">
        <ele>109.6</ele>
        <time>2023-08-06T12:20:39Z</time>
      </trkpt>
      <trkpt lat="50.1125" lon="3.47682">
        <ele>109.6</ele>
        <time>2023-08-06T12:20:40Z</time>
      </trkpt>
      <trkpt lat="50.11248" lon="3.47684">
        <ele>109.8</ele>
        <time>2023-08-06T12:20:41Z</time>
      </trkpt>
      <trkpt lat="50.11246" lon="3.47685">
        <ele>110</ele>
        <time>2023-08-06T12:20:42Z</time>
      </trkpt>
      <trkpt lat="50.11244" lon="3.47687">
        <ele>110</ele>
        <time>2023-08-06T12:20:43Z</time>
      </trkpt>
      <trkpt lat="50.11242" lon="3.47688">
        <ele>110.2</ele>
        <time>2023-08-06T12:20:44Z</time>
      </trkpt>
      <trkpt lat="50.1124" lon="3.4769">
        <ele>110.2</ele>
        <time>2023-08-06T12:20:45Z</time>
      </trkpt>
      <trkpt lat="50.11238" lon="3.47692">
        <ele>110.4</ele>
        <time>2023-08-06T12:20:46Z</time>
      </trkpt>
      <trkpt lat="50.11236" lon="3.47694">
        <ele>110.4</ele>
        <time>2023-08-06T12:20:47Z</time>
      </trkpt>
      <trkpt lat="50.11234" lon="3.47696">
        <ele>110.6</ele>
        <time>2023-08-06T12:20:48Z</time>
      </trkpt>
      <trkpt lat="50.11232" lon="3.47698">
        <ele>110.6</ele>
        <time>2023-08-06T12:20:49Z</time>
      </trkpt>
      <trkpt lat="50.1123" lon="3.477">
        <ele>110.8</ele>
        <time>2023-08-06T12:20:50Z</time>
      </trkpt>
      <trkpt lat="50.11228" lon="3.47702">
        <ele>110.8</ele>
        <time>2023-08-06T12:20:51Z</time>
      </trkpt>
      <trkpt lat="50.11225" lon="3.47704">
        <ele>110.8</ele>
        <time>2023-08-06T12:20:52Z</time>
      </trkpt>
      <trkpt lat="50.11223" lon="3.47706">
        <ele>110.8</ele>
        <time>2023-08-06T12:20:53Z</time>
      </trkpt>
      <trkpt lat="50.11221" lon="3.47708">
        <ele>111</ele>
        <time>2023-08-06T12:20:54Z</time>
      </trkpt>
      <trkpt lat="50.11219" lon="3.4771">
        <ele>111</ele>
        <time>2023-08-06T12:20:55Z</time>
      </trkpt>
      <trkpt lat="50.11217" lon="3.47712">
        <ele>111.2</ele>
        <time>2023-08-06T12:20:56Z</time>
      </trkpt>
      <trkpt lat="50.11216" lon="3.47714">
        <ele>111.4</ele>
        <time>2023-08-06T12:20:57Z</time>
      </trkpt>
      <trkpt lat="50.11214" lon="3.47715">
        <ele>111.6</ele>
        <time>2023-08-06T12:20:58Z</time>
      </trkpt>
      <trkpt lat="50.11212" lon="3.47717">
        <ele>111.8</ele>
        <time>2023-08-06T12:20:59Z</time>
      </trkpt>
      <trkpt lat="50.1121" lon="3.47718">
        <ele>112</ele>
        <time>2023-08-06T12:21:00Z</time>
      </trkpt>
      <trkpt lat="50.11209" lon="3.47719">
        <ele>112.2</ele>
        <time>2023-08-06T12:21:01Z</time>
      </trkpt>
      <trkpt lat="50.11206" lon="3.47721">
        <ele>112.2</ele>
        <time>2023-08-06T12:21:02Z</time>
      </trkpt>
      <trkpt lat="50.11204" lon="3.47723">
        <ele>112.4</ele>
        <time>2023-08-06T12:21:03Z</time>
      </trkpt>
      <trkpt lat="50.11202" lon="3.47725">
        <ele>112.6</ele>
        <time>2023-08-06T12:21:04Z</time>
      </trkpt>
      <trkpt lat="50.112" lon="3.47726">
        <ele>112.6</ele>
        <time>2023-08-06T12:21:05Z</time>
      </trkpt>
      <trkpt lat="50.11198" lon="3.47727">
        <ele>112.8</ele>
        <time>2023-08-06T12:21:06Z</time>
      </trkpt>
      <trkpt lat="50.11195" lon="3.47728">
        <ele>112.8</ele>
        <time>2023-08-06T12:21:07Z</time>
      </trkpt>
      <trkpt lat="50.11193" lon="3.47729">
        <ele>112.8</ele>
        <time>2023-08-06T12:21:08Z</time>
      </trkpt>
      <trkpt lat="50.11191" lon="3.4773">
        <ele>112.6</ele>
        <time>2023-08-06T12:21:09Z</time>
      </trkpt>
      <trkpt lat="50.1119" lon="3.47731">
        <ele>112.6</ele>
        <time>2023-08-06T12:21:10Z</time>
      </trkpt>
      <trkpt lat="50.11187" lon="3.47732">
        <ele>112.8</ele>
        <time>2023-08-06T12:21:11Z</time>
      </trkpt>
      <trkpt lat="50.11185" lon="3.47733">
        <ele>112.8</ele>
        <time>2023-08-06T12:21:12Z</time>
      </trkpt>
      <trkpt lat="50.11182" lon="3.47733">
        <ele>113.2</ele>
        <time>2023-08-06T12:21:13Z</time>
      </trkpt>
      <trkpt lat="50.1118" lon="3.47734">
        <ele>113.4</ele>
        <time>2023-08-06T12:21:14Z</time>
      </trkpt>
      <trkpt lat="50.11178" lon="3.47734">
        <ele>113.4</ele>
        <time>2023-08-06T12:21:15Z</time>
      </trkpt>
      <trkpt lat="50.11175" lon="3.47735">
        <ele>113.4</ele>
        <time>2023-08-06T12:21:16Z</time>
      </trkpt>
      <trkpt lat="50.11172" lon="3.47735">
        <ele>113.6</ele>
        <time>2023-08-06T12:21:17Z</time>
      </trkpt>
      <trkpt lat="50.1117" lon="3.47736">
        <ele>113.8</ele>
        <time>2023-08-06T12:21:18Z</time>
      </trkpt>
      <trkpt lat="50.11168" lon="3.47736">
        <ele>113.8</ele>
        <time>2023-08-06T12:21:19Z</time>
      </trkpt>
      <trkpt lat="50.11153" lon="3.47737">
        <ele>114.4</ele>
        <time>2023-08-06T12:21:25Z</time>
      </trkpt>
      <trkpt lat="50.1115" lon="3.47736">
        <ele>114.4</ele>
        <time>2023-08-06T12:21:26Z</time>
      </trkpt>
      <trkpt lat="50.11125" lon="3.47732">
        <ele>115</ele>
        <time>2023-08-06T12:21:35Z</time>
      </trkpt>
      <trkpt lat="50.11102" lon="3.47727">
        <ele>115.2</ele>
        <time>2023-08-06T12:21:42Z</time>
      </trkpt>
      <trkpt lat="50.11091" lon="3.47721">
        <ele>115</ele>
        <time>2023-08-06T12:21:46Z</time>
      </trkpt>
      <trkpt lat="50.11089" lon="3.47719">
        <ele>115</ele>
        <time>2023-08-06T12:21:47Z</time>
      </trkpt>
      <trkpt lat="50.11087" lon="3.47716">
        <ele>114.8</ele>
        <time>2023-08-06T12:21:48Z</time>
      </trkpt>
      <trkpt lat="50.11084" lon="3.47713">
        <ele>114.8</ele>
        <time>2023-08-06T12:21:49Z</time>
      </trkpt>
      <trkpt lat="50.11069" lon="3.47694">
        <ele>114.6</ele>
        <time>2023-08-06T12:21:55Z</time>
      </trkpt>
      <trkpt lat="50.11062" lon="3.47681">
        <ele>114.6</ele>
        <time>2023-08-06T12:21:59Z</time>
      </trkpt>
      <trkpt lat="50.11061" lon="3.47677">
        <ele>114.6</ele>
        <time>2023-08-06T12:22:00Z</time>
      </trkpt>
      <trkpt lat="50.11061" lon="3.47674">
        <ele>114.6</ele>
        <time>2023-08-06T12:22:01Z</time>
      </trkpt>
      <trkpt lat="50.11061" lon="3.4767">
        <ele>114.8</ele>
        <time>2023-08-06T12:22:02Z</time>
      </trkpt>
      <trkpt lat="50.11061" lon="3.47666">
        <ele>114.8</ele>
        <time>2023-08-06T12:22:03Z</time>
      </trkpt>
      <trkpt lat="50.11061" lon="3.47663">
        <ele>114.8</ele>
        <time>2023-08-06T12:22:04Z</time>
      </trkpt>
      <trkpt lat="50.11061" lon="3.4766">
        <ele>114.8</ele>
        <time>2023-08-06T12:22:05Z</time>
      </trkpt>
      <trkpt lat="50.11061" lon="3.47659">
        <ele>114.8</ele>
        <time>2023-08-06T12:22:06Z</time>
      </trkpt>
      <trkpt lat="50.11061" lon="3.47658">
        <ele>115</ele>
        <time>2023-08-06T12:22:07Z</time>
      </trkpt>
      <trkpt lat="50.11061" lon="3.47656">
        <ele>115</ele>
        <time>2023-08-06T12:22:08Z</time>
      </trkpt>
      <trkpt lat="50.1106" lon="3.47656">
        <ele>115</ele>
        <time>2023-08-06T12:22:09Z</time>
      </trkpt>
      <trkpt lat="50.1106" lon="3.47656">
        <ele>115.2</ele>
        <time>2023-08-06T12:22:10Z</time>
      </trkpt>
      <trkpt lat="50.1106" lon="3.47656">
        <ele>115.4</ele>
        <time>2023-08-06T12:22:11Z</time>
      </trkpt>
      <trkpt lat="50.1106" lon="3.47656">
        <ele>115.4</ele>
        <time>2023-08-06T12:22:12Z</time>
      </trkpt>
      <trkpt lat="50.1106" lon="3.4766">
        <ele>114.6</ele>
        <time>2023-08-06T12:27:22Z</time>
      </trkpt>
      <trkpt lat="50.11061" lon="3.47664">
        <ele>114.6</ele>
        <time>2023-08-06T12:27:23Z</time>
      </trkpt>
      <trkpt lat="50.1106" lon="3.47668">
        <ele>114.6</ele>
        <time>2023-08-06T12:27:24Z</time>
      </trkpt>
      <trkpt lat="50.11056" lon="3.47674">
        <ele>114.4</ele>
        <time>2023-08-06T12:27:26Z</time>
      </trkpt>
      <trkpt lat="50.11054" lon="3.47675">
        <ele>114.2</ele>
        <time>2023-08-06T12:27:27Z</time>
      </trkpt>
      <trkpt lat="50.11051" lon="3.47674">
        <ele>114</ele>
        <time>2023-08-06T12:27:28Z</time>
      </trkpt>
      <trkpt lat="50.11049" lon="3.47673">
        <ele>114</ele>
        <time>2023-08-06T12:27:29Z</time>
      </trkpt>
      <trkpt lat="50.11047" lon="3.47672">
        <ele>113.8</ele>
        <time>2023-08-06T12:27:30Z</time>
      </trkpt>
      <trkpt lat="50.11045" lon="3.47669">
        <ele>113.8</ele>
        <time>2023-08-06T12:27:31Z</time>
      </trkpt>
      <trkpt lat="50.11041" lon="3.47664">
        <ele>113.6</ele>
        <time>2023-08-06T12:27:33Z</time>
      </trkpt>
      <trkpt lat="50.11025" lon="3.47642">
        <ele>113.6</ele>
        <time>2023-08-06T12:27:41Z</time>
      </trkpt>
      <trkpt lat="50.11014" lon="3.47619">
        <ele>113.6</ele>
        <time>2023-08-06T12:27:48Z</time>
      </trkpt>
      <trkpt lat="50.11013" lon="3.47617">
        <ele>113.6</ele>
        <time>2023-08-06T12:27:49Z</time>
      </trkpt>
      <trkpt lat="50.11012" lon="3.47615">
        <ele>113.4</ele>
        <time>2023-08-06T12:27:50Z</time>
      </trkpt>
      <trkpt lat="50.11012" lon="3.47615">
        <ele>113.4</ele>
        <time>2023-08-06T12:27:51Z</time>
      </trkpt>
      <trkpt lat="50.11012" lon="3.47615">
        <ele>113.4</ele>
        <time>2023-08-06T12:27:53Z</time>
      </trkpt>
      <trkpt lat="50.11009" lon="3.4761">
        <ele>112.4</ele>
        <time>2023-08-06T12:29:31Z</time>
      </trkpt>
      <trkpt lat="50.11008" lon="3.47608">
        <ele>112.4</ele>
        <time>2023-08-06T12:29:32Z</time>
      </trkpt>
      <trkpt lat="50.11006" lon="3.47604">
        <ele>112.4</ele>
        <time>2023-08-06T12:29:33Z</time>
      </trkpt>
      <trkpt lat="50.10996" lon="3.47582">
        <ele>112.2</ele>
        <time>2023-08-06T12:29:39Z</time>
      </trkpt>
      <trkpt lat="50.10991" lon="3.47567">
        <ele>112</ele>
        <time>2023-08-06T12:29:42Z</time>
      </trkpt>
      <trkpt lat="50.10983" lon="3.47547">
        <ele>111.8</ele>
        <time>2023-08-06T12:29:46Z</time>
      </trkpt>
      <trkpt lat="50.10973" lon="3.47499">
        <ele>111.4</ele>
        <time>2023-08-06T12:29:53Z</time>
      </trkpt>
      <trkpt lat="50.10972" lon="3.47492">
        <ele>111.2</ele>
        <time>2023-08-06T12:29:54Z</time>
      </trkpt>
      <trkpt lat="50.10968" lon="3.47423">
        <ele>110.2</ele>
        <time>2023-08-06T12:30:03Z</time>
      </trkpt>
      <trkpt lat="50.10967" lon="3.47365">
        <ele>109.2</ele>
        <time>2023-08-06T12:30:10Z</time>
      </trkpt>
      <trkpt lat="50.10967" lon="3.47357">
        <ele>109.2</ele>
        <time>2023-08-06T12:30:11Z</time>
      </trkpt>
      <trkpt lat="50.10965" lon="3.4731">
        <ele>108.2</ele>
        <time>2023-08-06T12:30:16Z</time>
      </trkpt>
      <trkpt lat="50.10963" lon="3.47291">
        <ele>107.6</ele>
        <time>2023-08-06T12:30:18Z</time>
      </trkpt>
      <trkpt lat="50.1096" lon="3.47282">
        <ele>107.4</ele>
        <time>2023-08-06T12:30:19Z</time>
      </trkpt>
      <trkpt lat="50.10957" lon="3.47274">
        <ele>107.2</ele>
        <time>2023-08-06T12:30:20Z</time>
      </trkpt>
      <trkpt lat="50.10953" lon="3.47266">
        <ele>107</ele>
        <time>2023-08-06T12:30:21Z</time>
      </trkpt>
      <trkpt lat="50.10932" lon="3.47229">
        <ele>106</ele>
        <time>2023-08-06T12:30:26Z</time>
      </trkpt>
      <trkpt lat="50.10928" lon="3.47221">
        <ele>106</ele>
        <time>2023-08-06T12:30:27Z</time>
      </trkpt>
      <trkpt lat="50.10913" lon="3.47188">
        <ele>104.6</ele>
        <time>2023-08-06T12:30:31Z</time>
      </trkpt>
      <trkpt lat="50.1091" lon="3.47179">
        <ele>104.4</ele>
        <time>2023-08-06T12:30:32Z</time>
      </trkpt>
      <trkpt lat="50.10906" lon="3.4717">
        <ele>103.8</ele>
        <time>2023-08-06T12:30:33Z</time>
      </trkpt>
      <trkpt lat="50.10902" lon="3.47162">
        <ele>103.6</ele>
        <time>2023-08-06T12:30:34Z</time>
      </trkpt>
      <trkpt lat="50.10897" lon="3.47155">
        <ele>103.2</ele>
        <time>2023-08-06T12:30:35Z</time>
      </trkpt>
      <trkpt lat="50.10892" lon="3.47148">
        <ele>102.8</ele>
        <time>2023-08-06T12:30:36Z</time>
      </trkpt>
      <trkpt lat="50.10886" lon="3.47142">
        <ele>102.6</ele>
        <time>2023-08-06T12:30:37Z</time>
      </trkpt>
      <trkpt lat="50.10862" lon="3.47117">
        <ele>101.6</ele>
        <time>2023-08-06T12:30:41Z</time>
      </trkpt>
      <trkpt lat="50.10843" lon="3.47099">
        <ele>100.8</ele>
        <time>2023-08-06T12:30:44Z</time>
      </trkpt>
      <trkpt lat="50.10837" lon="3.47094">
        <ele>100.6</ele>
        <time>2023-08-06T12:30:45Z</time>
      </trkpt>
      <trkpt lat="50.1083" lon="3.47089">
        <ele>100.4</ele>
        <time>2023-08-06T12:30:46Z</time>
      </trkpt>
      <trkpt lat="50.10808" lon="3.47082">
        <ele>99.8</ele>
        <time>2023-08-06T12:30:49Z</time>
      </trkpt>
      <trkpt lat="50.10793" lon="3.4708">
        <ele>99.4</ele>
        <time>2023-08-06T12:30:51Z</time>
      </trkpt>
      <trkpt lat="50.10764" lon="3.47081">
        <ele>98.4</ele>
        <time>2023-08-06T12:30:55Z</time>
      </trkpt>
      <trkpt lat="50.10757" lon="3.47081">
        <ele>98</ele>
        <time>2023-08-06T12:30:56Z</time>
      </trkpt>
      <trkpt lat="50.10716" lon="3.4708">
        <ele>96.8</ele>
        <time>2023-08-06T12:31:02Z</time>
      </trkpt>
      <trkpt lat="50.1071" lon="3.4708">
        <ele>96.6</ele>
        <time>2023-08-06T12:31:03Z</time>
      </trkpt>
      <trkpt lat="50.10704" lon="3.47079">
        <ele>96.4</ele>
        <time>2023-08-06T12:31:04Z</time>
      </trkpt>
      <trkpt lat="50.10698" lon="3.47077">
        <ele>96.2</ele>
        <time>2023-08-06T12:31:05Z</time>
      </trkpt>
      <trkpt lat="50.10692" lon="3.47075">
        <ele>96.2</ele>
        <time>2023-08-06T12:31:06Z</time>
      </trkpt>
      <trkpt lat="50.1068" lon="3.4707">
        <ele>95.8</ele>
        <time>2023-08-06T12:31:08Z</time>
      </trkpt>
      <trkpt lat="50.10674" lon="3.47067">
        <ele>95.6</ele>
        <time>2023-08-06T12:31:09Z</time>
      </trkpt>
      <trkpt lat="50.10668" lon="3.47063">
        <ele>95.4</ele>
        <time>2023-08-06T12:31:10Z</time>
      </trkpt>
      <trkpt lat="50.10645" lon="3.47049">
        <ele>94.4</ele>
        <time>2023-08-06T12:31:14Z</time>
      </trkpt>
      <trkpt lat="50.10639" lon="3.47046">
        <ele>94.4</ele>
        <time>2023-08-06T12:31:15Z</time>
      </trkpt>
      <trkpt lat="50.106" lon="3.47021">
        <ele>94</ele>
        <time>2023-08-06T12:31:22Z</time>
      </trkpt>
      <trkpt lat="50.10594" lon="3.47018">
        <ele>93.8</ele>
        <time>2023-08-06T12:31:23Z</time>
      </trkpt>
      <trkpt lat="50.10575" lon="3.47009">
        <ele>93.6</ele>
        <time>2023-08-06T12:31:26Z</time>
      </trkpt>
      <trkpt lat="50.10565" lon="3.47008">
        <ele>93.6</ele>
        <time>2023-08-06T12:31:28Z</time>
      </trkpt>
      <trkpt lat="50.10552" lon="3.47009">
        <ele>93.4</ele>
        <time>2023-08-06T12:31:30Z</time>
      </trkpt>
      <trkpt lat="50.10535" lon="3.47014">
        <ele>93.2</ele>
        <time>2023-08-06T12:31:33Z</time>
      </trkpt>
      <trkpt lat="50.10518" lon="3.47023">
        <ele>93</ele>
        <time>2023-08-06T12:31:36Z</time>
      </trkpt>
      <trkpt lat="50.10502" lon="3.47033">
        <ele>93</ele>
        <time>2023-08-06T12:31:39Z</time>
      </trkpt>
      <trkpt lat="50.10497" lon="3.47036">
        <ele>93</ele>
        <time>2023-08-06T12:31:40Z</time>
      </trkpt>
      <trkpt lat="50.10487" lon="3.47043">
        <ele>93.2</ele>
        <time>2023-08-06T12:31:42Z</time>
      </trkpt>
      <trkpt lat="50.10483" lon="3.47046">
        <ele>93.2</ele>
        <time>2023-08-06T12:31:43Z</time>
      </trkpt>
      <trkpt lat="50.10478" lon="3.47048">
        <ele>93.2</ele>
        <time>2023-08-06T12:31:44Z</time>
      </trkpt>
      <trkpt lat="50.10474" lon="3.47048">
        <ele>93.2</ele>
        <time>2023-08-06T12:31:45Z</time>
      </trkpt>
      <trkpt lat="50.10469" lon="3.47046">
        <ele>93.2</ele>
        <time>2023-08-06T12:31:46Z</time>
      </trkpt>
      <trkpt lat="50.10464" lon="3.47043">
        <ele>93.2</ele>
        <time>2023-08-06T12:31:47Z</time>
      </trkpt>
      <trkpt lat="50.10461" lon="3.47039">
        <ele>93.2</ele>
        <time>2023-08-06T12:31:48Z</time>
      </trkpt>
      <trkpt lat="50.10457" lon="3.47034">
        <ele>93.2</ele>
        <time>2023-08-06T12:31:49Z</time>
      </trkpt>
      <trkpt lat="50.10453" lon="3.4703">
        <ele>93.2</ele>
        <time>2023-08-06T12:31:50Z</time>
      </trkpt>
      <trkpt lat="50.1045" lon="3.47026">
        <ele>93.2</ele>
        <time>2023-08-06T12:31:51Z</time>
      </trkpt>
      <trkpt lat="50.10446" lon="3.47022">
        <ele>93.4</ele>
        <time>2023-08-06T12:31:52Z</time>
      </trkpt>
      <trkpt lat="50.10443" lon="3.47018">
        <ele>93.4</ele>
        <time>2023-08-06T12:31:53Z</time>
      </trkpt>
      <trkpt lat="50.10439" lon="3.47014">
        <ele>93.4</ele>
        <time>2023-08-06T12:31:54Z</time>
      </trkpt>
      <trkpt lat="50.10436" lon="3.4701">
        <ele>93.6</ele>
        <time>2023-08-06T12:31:55Z</time>
      </trkpt>
      <trkpt lat="50.10432" lon="3.47007">
        <ele>94</ele>
        <time>2023-08-06T12:31:56Z</time>
      </trkpt>
      <trkpt lat="50.10428" lon="3.47003">
        <ele>94</ele>
        <time>2023-08-06T12:31:57Z</time>
      </trkpt>
      <trkpt lat="50.10425" lon="3.47">
        <ele>94</ele>
        <time>2023-08-06T12:31:58Z</time>
      </trkpt>
      <trkpt lat="50.10417" lon="3.46992">
        <ele>94.2</ele>
        <time>2023-08-06T12:32:00Z</time>
      </trkpt>
      <trkpt lat="50.10407" lon="3.4698">
        <ele>94.4</ele>
        <time>2023-08-06T12:32:03Z</time>
      </trkpt>
      <trkpt lat="50.10404" lon="3.46976">
        <ele>94.4</ele>
        <time>2023-08-06T12:32:04Z</time>
      </trkpt>
      <trkpt lat="50.104" lon="3.46972">
        <ele>94.4</ele>
        <time>2023-08-06T12:32:05Z</time>
      </trkpt>
      <trkpt lat="50.10398" lon="3.46967">
        <ele>94.4</ele>
        <time>2023-08-06T12:32:06Z</time>
      </trkpt>
      <trkpt lat="50.10396" lon="3.46962">
        <ele>94.4</ele>
        <time>2023-08-06T12:32:07Z</time>
      </trkpt>
      <trkpt lat="50.10393" lon="3.46956">
        <ele>94.4</ele>
        <time>2023-08-06T12:32:08Z</time>
      </trkpt>
      <trkpt lat="50.10391" lon="3.46951">
        <ele>94.4</ele>
        <time>2023-08-06T12:32:09Z</time>
      </trkpt>
      <trkpt lat="50.10389" lon="3.46945">
        <ele>94.6</ele>
        <time>2023-08-06T12:32:10Z</time>
      </trkpt>
      <trkpt lat="50.10388" lon="3.46939">
        <ele>94.6</ele>
        <time>2023-08-06T12:32:11Z</time>
      </trkpt>
      <trkpt lat="50.10386" lon="3.46934">
        <ele>94.8</ele>
        <time>2023-08-06T12:32:12Z</time>
      </trkpt>
      <trkpt lat="50.10384" lon="3.46928">
        <ele>94.8</ele>
        <time>2023-08-06T12:32:13Z</time>
      </trkpt>
      <trkpt lat="50.10382" lon="3.46923">
        <ele>95</ele>
        <time>2023-08-06T12:32:14Z</time>
      </trkpt>
      <trkpt lat="50.10369" lon="3.46902">
        <ele>95.4</ele>
        <time>2023-08-06T12:32:19Z</time>
      </trkpt>
      <trkpt lat="50.10366" lon="3.46899">
        <ele>95.6</ele>
        <time>2023-08-06T12:32:20Z</time>
      </trkpt>
      <trkpt lat="50.10362" lon="3.46896">
        <ele>95.6</ele>
        <time>2023-08-06T12:32:21Z</time>
      </trkpt>
      <trkpt lat="50.10344" lon="3.46884">
        <ele>96</ele>
        <time>2023-08-06T12:32:26Z</time>
      </trkpt>
      <trkpt lat="50.10324" lon="3.46874">
        <ele>96.6</ele>
        <time>2023-08-06T12:32:31Z</time>
      </trkpt>
      <trkpt lat="50.10308" lon="3.46869">
        <ele>96.8</ele>
        <time>2023-08-06T12:32:35Z</time>
      </trkpt>
      <trkpt lat="50.10285" lon="3.46861">
        <ele>97.6</ele>
        <time>2023-08-06T12:32:41Z</time>
      </trkpt>
      <trkpt lat="50.10273" lon="3.46858">
        <ele>97.8</ele>
        <time>2023-08-06T12:32:44Z</time>
      </trkpt>
      <trkpt lat="50.10269" lon="3.46857">
        <ele>97.8</ele>
        <time>2023-08-06T12:32:45Z</time>
      </trkpt>
      <trkpt lat="50.10266" lon="3.46856">
        <ele>97.8</ele>
        <time>2023-08-06T12:32:46Z</time>
      </trkpt>
      <trkpt lat="50.10247" lon="3.46851">
        <ele>98.4</ele>
        <time>2023-08-06T12:32:51Z</time>
      </trkpt>
      <trkpt lat="50.10244" lon="3.46849">
        <ele>98.4</ele>
        <time>2023-08-06T12:32:52Z</time>
      </trkpt>
      <trkpt lat="50.1024" lon="3.46847">
        <ele>98.4</ele>
        <time>2023-08-06T12:32:53Z</time>
      </trkpt>
      <trkpt lat="50.10237" lon="3.46845">
        <ele>98.6</ele>
        <time>2023-08-06T12:32:54Z</time>
      </trkpt>
      <trkpt lat="50.10233" lon="3.46843">
        <ele>98.6</ele>
        <time>2023-08-06T12:32:55Z</time>
      </trkpt>
      <trkpt lat="50.1023" lon="3.4684">
        <ele>98.8</ele>
        <time>2023-08-06T12:32:56Z</time>
      </trkpt>
      <trkpt lat="50.10228" lon="3.46838">
        <ele>98.8</ele>
        <time>2023-08-06T12:32:57Z</time>
      </trkpt>
      <trkpt lat="50.10222" lon="3.46832">
        <ele>99</ele>
        <time>2023-08-06T12:32:59Z</time>
      </trkpt>
      <trkpt lat="50.10218" lon="3.46827">
        <ele>99.2</ele>
        <time>2023-08-06T12:33:01Z</time>
      </trkpt>
      <trkpt lat="50.10215" lon="3.46824">
        <ele>99.4</ele>
        <time>2023-08-06T12:33:02Z</time>
      </trkpt>
      <trkpt lat="50.10212" lon="3.46821">
        <ele>99.4</ele>
        <time>2023-08-06T12:33:03Z</time>
      </trkpt>
      <trkpt lat="50.1021" lon="3.46818">
        <ele>99.6</ele>
        <time>2023-08-06T12:33:04Z</time>
      </trkpt>
      <trkpt lat="50.10208" lon="3.46814">
        <ele>99.6</ele>
        <time>2023-08-06T12:33:05Z</time>
      </trkpt>
      <trkpt lat="50.10205" lon="3.46811">
        <ele>99.8</ele>
        <time>2023-08-06T12:33:06Z</time>
      </trkpt>
      <trkpt lat="50.10203" lon="3.46807">
        <ele>99.8</ele>
        <time>2023-08-06T12:33:07Z</time>
      </trkpt>
      <trkpt lat="50.10179" lon="3.46782">
        <ele>100.2</ele>
        <time>2023-08-06T12:33:16Z</time>
      </trkpt>
      <trkpt lat="50.10153" lon="3.46767">
        <ele>100.6</ele>
        <time>2023-08-06T12:33:24Z</time>
      </trkpt>
      <trkpt lat="50.1014" lon="3.4676">
        <ele>100.8</ele>
        <time>2023-08-06T12:33:28Z</time>
      </trkpt>
      <trkpt lat="50.10121" lon="3.46749">
        <ele>101.2</ele>
        <time>2023-08-06T12:33:34Z</time>
      </trkpt>
      <trkpt lat="50.10107" lon="3.46742">
        <ele>101.6</ele>
        <time>2023-08-06T12:33:38Z</time>
      </trkpt>
      <trkpt lat="50.10104" lon="3.46741">
        <ele>101.8</ele>
        <time>2023-08-06T12:33:39Z</time>
      </trkpt>
      <trkpt lat="50.10101" lon="3.46739">
        <ele>101.8</ele>
        <time>2023-08-06T12:33:40Z</time>
      </trkpt>
      <trkpt lat="50.10094" lon="3.46735">
        <ele>102</ele>
        <time>2023-08-06T12:33:42Z</time>
      </trkpt>
      <trkpt lat="50.10075" lon="3.46724">
        <ele>102.6</ele>
        <time>2023-08-06T12:33:48Z</time>
      </trkpt>
      <trkpt lat="50.10072" lon="3.46723">
        <ele>102.6</ele>
        <time>2023-08-06T12:33:49Z</time>
      </trkpt>
      <trkpt lat="50.10046" lon="3.46713">
        <ele>103.4</ele>
        <time>2023-08-06T12:33:57Z</time>
      </trkpt>
      <trkpt lat="50.10039" lon="3.46712">
        <ele>103.6</ele>
        <time>2023-08-06T12:33:59Z</time>
      </trkpt>
      <trkpt lat="50.10018" lon="3.46705">
        <ele>104</ele>
        <time>2023-08-06T12:34:05Z</time>
      </trkpt>
      <trkpt lat="50.09983" lon="3.46694">
        <ele>104.2</ele>
        <time>2023-08-06T12:34:14Z</time>
      </trkpt>
      <trkpt lat="50.09936" lon="3.46677">
        <ele>104.4</ele>
        <time>2023-08-06T12:34:25Z</time>
      </trkpt>
      <trkpt lat="50.09905" lon="3.46665">
        <ele>104.8</ele>
        <time>2023-08-06T12:34:32Z</time>
      </trkpt>
      <trkpt lat="50.09896" lon="3.46662">
        <ele>105</ele>
        <time>2023-08-06T12:34:34Z</time>
      </trkpt>
      <trkpt lat="50.09892" lon="3.4666">
        <ele>105</ele>
        <time>2023-08-06T12:34:35Z</time>
      </trkpt>
      <trkpt lat="50.09875" lon="3.46653">
        <ele>105</ele>
        <time>2023-08-06T12:34:39Z</time>
      </trkpt>
      <trkpt lat="50.09871" lon="3.46651">
        <ele>105</ele>
        <time>2023-08-06T12:34:40Z</time>
      </trkpt>
      <trkpt lat="50.09867" lon="3.4665">
        <ele>105</ele>
        <time>2023-08-06T12:34:41Z</time>
      </trkpt>
      <trkpt lat="50.09863" lon="3.46649">
        <ele>105.2</ele>
        <time>2023-08-06T12:34:42Z</time>
      </trkpt>
      <trkpt lat="50.09858" lon="3.46648">
        <ele>105.2</ele>
        <time>2023-08-06T12:34:43Z</time>
      </trkpt>
      <trkpt lat="50.09854" lon="3.46646">
        <ele>105.2</ele>
        <time>2023-08-06T12:34:44Z</time>
      </trkpt>
      <trkpt lat="50.09851" lon="3.46645">
        <ele>105.2</ele>
        <time>2023-08-06T12:34:45Z</time>
      </trkpt>
      <trkpt lat="50.09823" lon="3.46639">
        <ele>105.2</ele>
        <time>2023-08-06T12:34:51Z</time>
      </trkpt>
      <trkpt lat="50.09818" lon="3.46637">
        <ele>105.4</ele>
        <time>2023-08-06T12:34:52Z</time>
      </trkpt>
      <trkpt lat="50.09787" lon="3.4663">
        <ele>105</ele>
        <time>2023-08-06T12:34:58Z</time>
      </trkpt>
      <trkpt lat="50.09768" lon="3.46627">
        <ele>104.8</ele>
        <time>2023-08-06T12:35:01Z</time>
      </trkpt>
      <trkpt lat="50.09749" lon="3.4662">
        <ele>104.8</ele>
        <time>2023-08-06T12:35:04Z</time>
      </trkpt>
      <trkpt lat="50.09743" lon="3.46616">
        <ele>104.8</ele>
        <time>2023-08-06T12:35:05Z</time>
      </trkpt>
      <trkpt lat="50.09738" lon="3.46611">
        <ele>104.6</ele>
        <time>2023-08-06T12:35:06Z</time>
      </trkpt>
      <trkpt lat="50.09734" lon="3.46604">
        <ele>104.6</ele>
        <time>2023-08-06T12:35:07Z</time>
      </trkpt>
      <trkpt lat="50.0973" lon="3.46598">
        <ele>104.4</ele>
        <time>2023-08-06T12:35:08Z</time>
      </trkpt>
      <trkpt lat="50.09726" lon="3.46588">
        <ele>104.4</ele>
        <time>2023-08-06T12:35:09Z</time>
      </trkpt>
      <trkpt lat="50.09723" lon="3.46579">
        <ele>104.2</ele>
        <time>2023-08-06T12:35:10Z</time>
      </trkpt>
      <trkpt lat="50.09721" lon="3.4657">
        <ele>104.2</ele>
        <time>2023-08-06T12:35:11Z</time>
      </trkpt>
      <trkpt lat="50.0972" lon="3.46563">
        <ele>104.2</ele>
        <time>2023-08-06T12:35:12Z</time>
      </trkpt>
      <trkpt lat="50.0972" lon="3.46554">
        <ele>104</ele>
        <time>2023-08-06T12:35:13Z</time>
      </trkpt>
      <trkpt lat="50.0972" lon="3.46534">
        <ele>103.8</ele>
        <time>2023-08-06T12:35:15Z</time>
      </trkpt>
      <trkpt lat="50.09721" lon="3.46525">
        <ele>103.6</ele>
        <time>2023-08-06T12:35:16Z</time>
      </trkpt>
      <trkpt lat="50.09722" lon="3.46515">
        <ele>103.6</ele>
        <time>2023-08-06T12:35:17Z</time>
      </trkpt>
      <trkpt lat="50.09722" lon="3.46506">
        <ele>103.4</ele>
        <time>2023-08-06T12:35:18Z</time>
      </trkpt>
      <trkpt lat="50.09722" lon="3.46497">
        <ele>103.2</ele>
        <time>2023-08-06T12:35:19Z</time>
      </trkpt>
      <trkpt lat="50.09721" lon="3.46453">
        <ele>102.6</ele>
        <time>2023-08-06T12:35:24Z</time>
      </trkpt>
      <trkpt lat="50.0972" lon="3.46444">
        <ele>102.6</ele>
        <time>2023-08-06T12:35:25Z</time>
      </trkpt>
      <trkpt lat="50.09718" lon="3.46436">
        <ele>102.6</ele>
        <time>2023-08-06T12:35:26Z</time>
      </trkpt>
      <trkpt lat="50.09718" lon="3.46428">
        <ele>102.6</ele>
        <time>2023-08-06T12:35:27Z</time>
      </trkpt>
      <trkpt lat="50.09717" lon="3.4642">
        <ele>102.4</ele>
        <time>2023-08-06T12:35:28Z</time>
      </trkpt>
      <trkpt lat="50.09716" lon="3.46412">
        <ele>102.4</ele>
        <time>2023-08-06T12:35:29Z</time>
      </trkpt>
      <trkpt lat="50.09715" lon="3.46404">
        <ele>102.2</ele>
        <time>2023-08-06T12:35:30Z</time>
      </trkpt>
      <trkpt lat="50.09714" lon="3.46396">
        <ele>102.2</ele>
        <time>2023-08-06T12:35:31Z</time>
      </trkpt>
      <trkpt lat="50.09713" lon="3.4639">
        <ele>102.2</ele>
        <time>2023-08-06T12:35:32Z</time>
      </trkpt>
      <trkpt lat="50.09712" lon="3.46381">
        <ele>102.2</ele>
        <time>2023-08-06T12:35:33Z</time>
      </trkpt>
      <trkpt lat="50.09711" lon="3.46374">
        <ele>102.2</ele>
        <time>2023-08-06T12:35:34Z</time>
      </trkpt>
      <trkpt lat="50.0971" lon="3.46366">
        <ele>102</ele>
        <time>2023-08-06T12:35:35Z</time>
      </trkpt>
      <trkpt lat="50.09708" lon="3.46359">
        <ele>102</ele>
        <time>2023-08-06T12:35:36Z</time>
      </trkpt>
      <trkpt lat="50.09707" lon="3.46353">
        <ele>102</ele>
        <time>2023-08-06T12:35:37Z</time>
      </trkpt>
      <trkpt lat="50.09706" lon="3.46344">
        <ele>102</ele>
        <time>2023-08-06T12:35:38Z</time>
      </trkpt>
      <trkpt lat="50.09705" lon="3.46337">
        <ele>102</ele>
        <time>2023-08-06T12:35:39Z</time>
      </trkpt>
      <trkpt lat="50.09704" lon="3.4633">
        <ele>102</ele>
        <time>2023-08-06T12:35:40Z</time>
      </trkpt>
      <trkpt lat="50.09703" lon="3.46324">
        <ele>102</ele>
        <time>2023-08-06T12:35:41Z</time>
      </trkpt>
      <trkpt lat="50.09701" lon="3.46316">
        <ele>102</ele>
        <time>2023-08-06T12:35:42Z</time>
      </trkpt>
      <trkpt lat="50.097" lon="3.46309">
        <ele>102</ele>
        <time>2023-08-06T12:35:43Z</time>
      </trkpt>
      <trkpt lat="50.09699" lon="3.46303">
        <ele>102</ele>
        <time>2023-08-06T12:35:44Z</time>
      </trkpt>
      <trkpt lat="50.09698" lon="3.46296">
        <ele>102</ele>
        <time>2023-08-06T12:35:45Z</time>
      </trkpt>
      <trkpt lat="50.09697" lon="3.46291">
        <ele>102</ele>
        <time>2023-08-06T12:35:46Z</time>
      </trkpt>
      <trkpt lat="50.09695" lon="3.46283">
        <ele>102</ele>
        <time>2023-08-06T12:35:47Z</time>
      </trkpt>
      <trkpt lat="50.09694" lon="3.46276">
        <ele>102</ele>
        <time>2023-08-06T12:35:48Z</time>
      </trkpt>
      <trkpt lat="50.09692" lon="3.4627">
        <ele>102</ele>
        <time>2023-08-06T12:35:49Z</time>
      </trkpt>
      <trkpt lat="50.09691" lon="3.46263">
        <ele>102</ele>
        <time>2023-08-06T12:35:50Z</time>
      </trkpt>
      <trkpt lat="50.0969" lon="3.46258">
        <ele>102</ele>
        <time>2023-08-06T12:35:51Z</time>
      </trkpt>
      <trkpt lat="50.09689" lon="3.46251">
        <ele>102</ele>
        <time>2023-08-06T12:35:52Z</time>
      </trkpt>
      <trkpt lat="50.09688" lon="3.46245">
        <ele>101.8</ele>
        <time>2023-08-06T12:35:53Z</time>
      </trkpt>
      <trkpt lat="50.09687" lon="3.46238">
        <ele>101.8</ele>
        <time>2023-08-06T12:35:54Z</time>
      </trkpt>
      <trkpt lat="50.09686" lon="3.46233">
        <ele>101.8</ele>
        <time>2023-08-06T12:35:55Z</time>
      </trkpt>
      <trkpt lat="50.09684" lon="3.46225">
        <ele>101.6</ele>
        <time>2023-08-06T12:35:56Z</time>
      </trkpt>
      <trkpt lat="50.09682" lon="3.46219">
        <ele>101.6</ele>
        <time>2023-08-06T12:35:57Z</time>
      </trkpt>
      <trkpt lat="50.09672" lon="3.46168">
        <ele>101.2</ele>
        <time>2023-08-06T12:36:05Z</time>
      </trkpt>
      <trkpt lat="50.09671" lon="3.46161">
        <ele>101.2</ele>
        <time>2023-08-06T12:36:06Z</time>
      </trkpt>
      <trkpt lat="50.0967" lon="3.46156">
        <ele>101.2</ele>
        <time>2023-08-06T12:36:07Z</time>
      </trkpt>
      <trkpt lat="50.09668" lon="3.4615">
        <ele>101.2</ele>
        <time>2023-08-06T12:36:08Z</time>
      </trkpt>
      <trkpt lat="50.09667" lon="3.46144">
        <ele>101.2</ele>
        <time>2023-08-06T12:36:09Z</time>
      </trkpt>
      <trkpt lat="50.09666" lon="3.46139">
        <ele>101.2</ele>
        <time>2023-08-06T12:36:10Z</time>
      </trkpt>
      <trkpt lat="50.09664" lon="3.46132">
        <ele>101.2</ele>
        <time>2023-08-06T12:36:11Z</time>
      </trkpt>
      <trkpt lat="50.09663" lon="3.46127">
        <ele>101.2</ele>
        <time>2023-08-06T12:36:12Z</time>
      </trkpt>
      <trkpt lat="50.09661" lon="3.46123">
        <ele>101.2</ele>
        <time>2023-08-06T12:36:13Z</time>
      </trkpt>
      <trkpt lat="50.0966" lon="3.46117">
        <ele>101.2</ele>
        <time>2023-08-06T12:36:14Z</time>
      </trkpt>
      <trkpt lat="50.09658" lon="3.4611">
        <ele>101.2</ele>
        <time>2023-08-06T12:36:15Z</time>
      </trkpt>
      <trkpt lat="50.09656" lon="3.46105">
        <ele>101.4</ele>
        <time>2023-08-06T12:36:16Z</time>
      </trkpt>
      <trkpt lat="50.09655" lon="3.46099">
        <ele>101.4</ele>
        <time>2023-08-06T12:36:17Z</time>
      </trkpt>
      <trkpt lat="50.09653" lon="3.46094">
        <ele>101.4</ele>
        <time>2023-08-06T12:36:18Z</time>
      </trkpt>
      <trkpt lat="50.09652" lon="3.4609">
        <ele>101.6</ele>
        <time>2023-08-06T12:36:19Z</time>
      </trkpt>
      <trkpt lat="50.0965" lon="3.46084">
        <ele>101.6</ele>
        <time>2023-08-06T12:36:20Z</time>
      </trkpt>
      <trkpt lat="50.09648" lon="3.46078">
        <ele>101.8</ele>
        <time>2023-08-06T12:36:21Z</time>
      </trkpt>
      <trkpt lat="50.09646" lon="3.46073">
        <ele>101.8</ele>
        <time>2023-08-06T12:36:22Z</time>
      </trkpt>
      <trkpt lat="50.09645" lon="3.46069">
        <ele>101.8</ele>
        <time>2023-08-06T12:36:23Z</time>
      </trkpt>
      <trkpt lat="50.09644" lon="3.46063">
        <ele>101.8</ele>
        <time>2023-08-06T12:36:24Z</time>
      </trkpt>
      <trkpt lat="50.09642" lon="3.46058">
        <ele>101.8</ele>
        <time>2023-08-06T12:36:25Z</time>
      </trkpt>
      <trkpt lat="50.09641" lon="3.46053">
        <ele>102</ele>
        <time>2023-08-06T12:36:26Z</time>
      </trkpt>
      <trkpt lat="50.09639" lon="3.46048">
        <ele>102</ele>
        <time>2023-08-06T12:36:27Z</time>
      </trkpt>
      <trkpt lat="50.09638" lon="3.46044">
        <ele>102</ele>
        <time>2023-08-06T12:36:28Z</time>
      </trkpt>
      <trkpt lat="50.09636" lon="3.46038">
        <ele>102</ele>
        <time>2023-08-06T12:36:29Z</time>
      </trkpt>
      <trkpt lat="50.09635" lon="3.46033">
        <ele>102</ele>
        <time>2023-08-06T12:36:30Z</time>
      </trkpt>
      <trkpt lat="50.09634" lon="3.46028">
        <ele>102</ele>
        <time>2023-08-06T12:36:31Z</time>
      </trkpt>
      <trkpt lat="50.09632" lon="3.46024">
        <ele>102</ele>
        <time>2023-08-06T12:36:32Z</time>
      </trkpt>
      <trkpt lat="50.0962" lon="3.45978">
        <ele>102</ele>
        <time>2023-08-06T12:36:41Z</time>
      </trkpt>
      <trkpt lat="50.09615" lon="3.45954">
        <ele>102</ele>
        <time>2023-08-06T12:36:46Z</time>
      </trkpt>
      <trkpt lat="50.09613" lon="3.45944">
        <ele>102</ele>
        <time>2023-08-06T12:36:48Z</time>
      </trkpt>
      <trkpt lat="50.09612" lon="3.4594">
        <ele>102</ele>
        <time>2023-08-06T12:36:49Z</time>
      </trkpt>
      <trkpt lat="50.09611" lon="3.45935">
        <ele>102</ele>
        <time>2023-08-06T12:36:50Z</time>
      </trkpt>
      <trkpt lat="50.0961" lon="3.4593">
        <ele>102</ele>
        <time>2023-08-06T12:36:51Z</time>
      </trkpt>
      <trkpt lat="50.0961" lon="3.45925">
        <ele>102</ele>
        <time>2023-08-06T12:36:52Z</time>
      </trkpt>
      <trkpt lat="50.09609" lon="3.45921">
        <ele>102.2</ele>
        <time>2023-08-06T12:36:53Z</time>
      </trkpt>
      <trkpt lat="50.09608" lon="3.45916">
        <ele>102.2</ele>
        <time>2023-08-06T12:36:54Z</time>
      </trkpt>
      <trkpt lat="50.09608" lon="3.45912">
        <ele>102.2</ele>
        <time>2023-08-06T12:36:55Z</time>
      </trkpt>
      <trkpt lat="50.09608" lon="3.45907">
        <ele>102.2</ele>
        <time>2023-08-06T12:36:56Z</time>
      </trkpt>
      <trkpt lat="50.09607" lon="3.45903">
        <ele>102.2</ele>
        <time>2023-08-06T12:36:57Z</time>
      </trkpt>
      <trkpt lat="50.09607" lon="3.45899">
        <ele>102.4</ele>
        <time>2023-08-06T12:36:58Z</time>
      </trkpt>
      <trkpt lat="50.09606" lon="3.45894">
        <ele>102.4</ele>
        <time>2023-08-06T12:36:59Z</time>
      </trkpt>
      <trkpt lat="50.09605" lon="3.45881">
        <ele>102.4</ele>
        <time>2023-08-06T12:37:02Z</time>
      </trkpt>
      <trkpt lat="50.09604" lon="3.45877">
        <ele>102.4</ele>
        <time>2023-08-06T12:37:03Z</time>
      </trkpt>
      <trkpt lat="50.09603" lon="3.45869">
        <ele>102.6</ele>
        <time>2023-08-06T12:37:05Z</time>
      </trkpt>
      <trkpt lat="50.09603" lon="3.45865">
        <ele>102.6</ele>
        <time>2023-08-06T12:37:06Z</time>
      </trkpt>
      <trkpt lat="50.09603" lon="3.45861">
        <ele>102.6</ele>
        <time>2023-08-06T12:37:07Z</time>
      </trkpt>
      <trkpt lat="50.09602" lon="3.45856">
        <ele>102.6</ele>
        <time>2023-08-06T12:37:08Z</time>
      </trkpt>
      <trkpt lat="50.09602" lon="3.45853">
        <ele>102.6</ele>
        <time>2023-08-06T12:37:09Z</time>
      </trkpt>
      <trkpt lat="50.09602" lon="3.45849">
        <ele>102.6</ele>
        <time>2023-08-06T12:37:10Z</time>
      </trkpt>
      <trkpt lat="50.09601" lon="3.45844">
        <ele>102.4</ele>
        <time>2023-08-06T12:37:11Z</time>
      </trkpt>
      <trkpt lat="50.09601" lon="3.4584">
        <ele>102.4</ele>
        <time>2023-08-06T12:37:12Z</time>
      </trkpt>
      <trkpt lat="50.09596" lon="3.45794">
        <ele>102.6</ele>
        <time>2023-08-06T12:37:23Z</time>
      </trkpt>
      <trkpt lat="50.09595" lon="3.45786">
        <ele>102.8</ele>
        <time>2023-08-06T12:37:25Z</time>
      </trkpt>
      <trkpt lat="50.09594" lon="3.45782">
        <ele>102.8</ele>
        <time>2023-08-06T12:37:26Z</time>
      </trkpt>
      <trkpt lat="50.09593" lon="3.45778">
        <ele>103</ele>
        <time>2023-08-06T12:37:27Z</time>
      </trkpt>
      <trkpt lat="50.09593" lon="3.45774">
        <ele>103</ele>
        <time>2023-08-06T12:37:28Z</time>
      </trkpt>
      <trkpt lat="50.09592" lon="3.4577">
        <ele>103</ele>
        <time>2023-08-06T12:37:29Z</time>
      </trkpt>
      <trkpt lat="50.09591" lon="3.45762">
        <ele>103.2</ele>
        <time>2023-08-06T12:37:31Z</time>
      </trkpt>
      <trkpt lat="50.0959" lon="3.45754">
        <ele>103.4</ele>
        <time>2023-08-06T12:37:33Z</time>
      </trkpt>
      <trkpt lat="50.0959" lon="3.4575">
        <ele>103.6</ele>
        <time>2023-08-06T12:37:34Z</time>
      </trkpt>
      <trkpt lat="50.09589" lon="3.45742">
        <ele>103.8</ele>
        <time>2023-08-06T12:37:36Z</time>
      </trkpt>
      <trkpt lat="50.09587" lon="3.45731">
        <ele>104</ele>
        <time>2023-08-06T12:37:39Z</time>
      </trkpt>
      <trkpt lat="50.09585" lon="3.45711">
        <ele>104.6</ele>
        <time>2023-08-06T12:37:44Z</time>
      </trkpt>
      <trkpt lat="50.09582" lon="3.45687">
        <ele>104.8</ele>
        <time>2023-08-06T12:37:50Z</time>
      </trkpt>
      <trkpt lat="50.09577" lon="3.45659">
        <ele>105.6</ele>
        <time>2023-08-06T12:37:57Z</time>
      </trkpt>
      <trkpt lat="50.09576" lon="3.45655">
        <ele>105.8</ele>
        <time>2023-08-06T12:37:58Z</time>
      </trkpt>
      <trkpt lat="50.09568" lon="3.4562">
        <ele>106.8</ele>
        <time>2023-08-06T12:38:07Z</time>
      </trkpt>
      <trkpt lat="50.09566" lon="3.45612">
        <ele>107</ele>
        <time>2023-08-06T12:38:09Z</time>
      </trkpt>
      <trkpt lat="50.09561" lon="3.45593">
        <ele>107.4</ele>
        <time>2023-08-06T12:38:14Z</time>
      </trkpt>
      <trkpt lat="50.09559" lon="3.45589">
        <ele>107.6</ele>
        <time>2023-08-06T12:38:15Z</time>
      </trkpt>
      <trkpt lat="50.09558" lon="3.45586">
        <ele>107.6</ele>
        <time>2023-08-06T12:38:16Z</time>
      </trkpt>
      <trkpt lat="50.09557" lon="3.45582">
        <ele>107.6</ele>
        <time>2023-08-06T12:38:17Z</time>
      </trkpt>
      <trkpt lat="50.09555" lon="3.45577">
        <ele>107.8</ele>
        <time>2023-08-06T12:38:18Z</time>
      </trkpt>
      <trkpt lat="50.09554" lon="3.45574">
        <ele>107.8</ele>
        <time>2023-08-06T12:38:19Z</time>
      </trkpt>
      <trkpt lat="50.09552" lon="3.45569">
        <ele>107.8</ele>
        <time>2023-08-06T12:38:20Z</time>
      </trkpt>
      <trkpt lat="50.09551" lon="3.45565">
        <ele>108</ele>
        <time>2023-08-06T12:38:21Z</time>
      </trkpt>
      <trkpt lat="50.09544" lon="3.45545">
        <ele>108.2</ele>
        <time>2023-08-06T12:38:26Z</time>
      </trkpt>
      <trkpt lat="50.09531" lon="3.45509">
        <ele>108.8</ele>
        <time>2023-08-06T12:38:34Z</time>
      </trkpt>
      <trkpt lat="50.09524" lon="3.45486">
        <ele>108.8</ele>
        <time>2023-08-06T12:38:38Z</time>
      </trkpt>
      <trkpt lat="50.09519" lon="3.45468">
        <ele>109</ele>
        <time>2023-08-06T12:38:41Z</time>
      </trkpt>
      <trkpt lat="50.09505" lon="3.45411">
        <ele>108.6</ele>
        <time>2023-08-06T12:38:50Z</time>
      </trkpt>
      <trkpt lat="50.09499" lon="3.4538">
        <ele>108.4</ele>
        <time>2023-08-06T12:38:55Z</time>
      </trkpt>
      <trkpt lat="50.09497" lon="3.45374">
        <ele>108.4</ele>
        <time>2023-08-06T12:38:56Z</time>
      </trkpt>
      <trkpt lat="50.09496" lon="3.45368">
        <ele>108.4</ele>
        <time>2023-08-06T12:38:57Z</time>
      </trkpt>
      <trkpt lat="50.09494" lon="3.45362">
        <ele>108.4</ele>
        <time>2023-08-06T12:38:58Z</time>
      </trkpt>
      <trkpt lat="50.09489" lon="3.45337">
        <ele>107.4</ele>
        <time>2023-08-06T12:39:02Z</time>
      </trkpt>
      <trkpt lat="50.09482" lon="3.45317">
        <ele>107.2</ele>
        <time>2023-08-06T12:39:05Z</time>
      </trkpt>
      <trkpt lat="50.09479" lon="3.45311">
        <ele>107</ele>
        <time>2023-08-06T12:39:06Z</time>
      </trkpt>
      <trkpt lat="50.09465" lon="3.45289">
        <ele>106.4</ele>
        <time>2023-08-06T12:39:10Z</time>
      </trkpt>
      <trkpt lat="50.0945" lon="3.45267">
        <ele>106.2</ele>
        <time>2023-08-06T12:39:14Z</time>
      </trkpt>
      <trkpt lat="50.09411" lon="3.45218">
        <ele>105.6</ele>
        <time>2023-08-06T12:39:24Z</time>
      </trkpt>
      <trkpt lat="50.09408" lon="3.45214">
        <ele>105.4</ele>
        <time>2023-08-06T12:39:25Z</time>
      </trkpt>
      <trkpt lat="50.09379" lon="3.45162">
        <ele>104.6</ele>
        <time>2023-08-06T12:39:33Z</time>
      </trkpt>
      <trkpt lat="50.09366" lon="3.4513">
        <ele>104.6</ele>
        <time>2023-08-06T12:39:38Z</time>
      </trkpt>
      <trkpt lat="50.09361" lon="3.45117">
        <ele>104.4</ele>
        <time>2023-08-06T12:39:40Z</time>
      </trkpt>
      <trkpt lat="50.09358" lon="3.4511">
        <ele>104.4</ele>
        <time>2023-08-06T12:39:41Z</time>
      </trkpt>
      <trkpt lat="50.09355" lon="3.45104">
        <ele>104.4</ele>
        <time>2023-08-06T12:39:42Z</time>
      </trkpt>
      <trkpt lat="50.09353" lon="3.45098">
        <ele>104.4</ele>
        <time>2023-08-06T12:39:43Z</time>
      </trkpt>
      <trkpt lat="50.09345" lon="3.45079">
        <ele>104</ele>
        <time>2023-08-06T12:39:46Z</time>
      </trkpt>
      <trkpt lat="50.09342" lon="3.45074">
        <ele>103.8</ele>
        <time>2023-08-06T12:39:47Z</time>
      </trkpt>
      <trkpt lat="50.09336" lon="3.45065">
        <ele>103.6</ele>
        <time>2023-08-06T12:39:49Z</time>
      </trkpt>
      <trkpt lat="50.09332" lon="3.45058">
        <ele>103.6</ele>
        <time>2023-08-06T12:39:50Z</time>
      </trkpt>
      <trkpt lat="50.09311" lon="3.45025">
        <ele>103.4</ele>
        <time>2023-08-06T12:39:56Z</time>
      </trkpt>
      <trkpt lat="50.09299" lon="3.45008">
        <ele>103.2</ele>
        <time>2023-08-06T12:39:59Z</time>
      </trkpt>
      <trkpt lat="50.09263" lon="3.44952">
        <ele>102.8</ele>
        <time>2023-08-06T12:40:09Z</time>
      </trkpt>
      <trkpt lat="50.0926" lon="3.44947">
        <ele>102.8</ele>
        <time>2023-08-06T12:40:10Z</time>
      </trkpt>
      <trkpt lat="50.09258" lon="3.44941">
        <ele>102.8</ele>
        <time>2023-08-06T12:40:11Z</time>
      </trkpt>
      <trkpt lat="50.09256" lon="3.44936">
        <ele>102.8</ele>
        <time>2023-08-06T12:40:12Z</time>
      </trkpt>
      <trkpt lat="50.09254" lon="3.4493">
        <ele>103</ele>
        <time>2023-08-06T12:40:13Z</time>
      </trkpt>
      <trkpt lat="50.09252" lon="3.44924">
        <ele>103</ele>
        <time>2023-08-06T12:40:14Z</time>
      </trkpt>
      <trkpt lat="50.0925" lon="3.44918">
        <ele>103.2</ele>
        <time>2023-08-06T12:40:15Z</time>
      </trkpt>
      <trkpt lat="50.09248" lon="3.44912">
        <ele>103.2</ele>
        <time>2023-08-06T12:40:16Z</time>
      </trkpt>
      <trkpt lat="50.09245" lon="3.44906">
        <ele>103.4</ele>
        <time>2023-08-06T12:40:17Z</time>
      </trkpt>
      <trkpt lat="50.09243" lon="3.449">
        <ele>103.6</ele>
        <time>2023-08-06T12:40:18Z</time>
      </trkpt>
      <trkpt lat="50.09239" lon="3.44894">
        <ele>103.6</ele>
        <time>2023-08-06T12:40:19Z</time>
      </trkpt>
      <trkpt lat="50.09229" lon="3.44878">
        <ele>103.6</ele>
        <time>2023-08-06T12:40:22Z</time>
      </trkpt>
      <trkpt lat="50.09205" lon="3.44847">
        <ele>103.6</ele>
        <time>2023-08-06T12:40:28Z</time>
      </trkpt>
      <trkpt lat="50.09201" lon="3.44844">
        <ele>103.4</ele>
        <time>2023-08-06T12:40:29Z</time>
      </trkpt>
      <trkpt lat="50.09197" lon="3.44842">
        <ele>103.4</ele>
        <time>2023-08-06T12:40:30Z</time>
      </trkpt>
      <trkpt lat="50.09191" lon="3.4484">
        <ele>103.2</ele>
        <time>2023-08-06T12:40:31Z</time>
      </trkpt>
      <trkpt lat="50.09186" lon="3.44839">
        <ele>103</ele>
        <time>2023-08-06T12:40:32Z</time>
      </trkpt>
      <trkpt lat="50.09182" lon="3.44838">
        <ele>103</ele>
        <time>2023-08-06T12:40:33Z</time>
      </trkpt>
      <trkpt lat="50.09177" lon="3.44838">
        <ele>103</ele>
        <time>2023-08-06T12:40:34Z</time>
      </trkpt>
      <trkpt lat="50.09173" lon="3.44837">
        <ele>102.8</ele>
        <time>2023-08-06T12:40:35Z</time>
      </trkpt>
      <trkpt lat="50.09168" lon="3.44837">
        <ele>102.6</ele>
        <time>2023-08-06T12:40:36Z</time>
      </trkpt>
      <trkpt lat="50.09164" lon="3.44836">
        <ele>102.6</ele>
        <time>2023-08-06T12:40:37Z</time>
      </trkpt>
      <trkpt lat="50.0916" lon="3.44836">
        <ele>102.6</ele>
        <time>2023-08-06T12:40:38Z</time>
      </trkpt>
      <trkpt lat="50.09155" lon="3.44836">
        <ele>102.4</ele>
        <time>2023-08-06T12:40:39Z</time>
      </trkpt>
      <trkpt lat="50.09152" lon="3.44835">
        <ele>102.4</ele>
        <time>2023-08-06T12:40:40Z</time>
      </trkpt>
      <trkpt lat="50.09147" lon="3.44835">
        <ele>102.4</ele>
        <time>2023-08-06T12:40:41Z</time>
      </trkpt>
      <trkpt lat="50.09143" lon="3.44834">
        <ele>102.4</ele>
        <time>2023-08-06T12:40:42Z</time>
      </trkpt>
      <trkpt lat="50.09139" lon="3.44833">
        <ele>102.4</ele>
        <time>2023-08-06T12:40:43Z</time>
      </trkpt>
      <trkpt lat="50.09135" lon="3.44832">
        <ele>102.4</ele>
        <time>2023-08-06T12:40:44Z</time>
      </trkpt>
      <trkpt lat="50.0913" lon="3.4483">
        <ele>102.4</ele>
        <time>2023-08-06T12:40:45Z</time>
      </trkpt>
      <trkpt lat="50.09108" lon="3.44825">
        <ele>102.8</ele>
        <time>2023-08-06T12:40:50Z</time>
      </trkpt>
      <trkpt lat="50.09069" lon="3.44813">
        <ele>103.8</ele>
        <time>2023-08-06T12:40:59Z</time>
      </trkpt>
      <trkpt lat="50.09061" lon="3.4481">
        <ele>104</ele>
        <time>2023-08-06T12:41:01Z</time>
      </trkpt>
      <trkpt lat="50.09057" lon="3.44809">
        <ele>104</ele>
        <time>2023-08-06T12:41:02Z</time>
      </trkpt>
      <trkpt lat="50.09053" lon="3.44809">
        <ele>103.8</ele>
        <time>2023-08-06T12:41:03Z</time>
      </trkpt>
      <trkpt lat="50.09045" lon="3.44808">
        <ele>104</ele>
        <time>2023-08-06T12:41:05Z</time>
      </trkpt>
      <trkpt lat="50.09016" lon="3.44801">
        <ele>104.2</ele>
        <time>2023-08-06T12:41:11Z</time>
      </trkpt>
      <trkpt lat="50.09006" lon="3.448">
        <ele>104.2</ele>
        <time>2023-08-06T12:41:13Z</time>
      </trkpt>
      <trkpt lat="50.09001" lon="3.44801">
        <ele>104.2</ele>
        <time>2023-08-06T12:41:14Z</time>
      </trkpt>
      <trkpt lat="50.08965" lon="3.448">
        <ele>104</ele>
        <time>2023-08-06T12:41:21Z</time>
      </trkpt>
      <trkpt lat="50.08921" lon="3.448">
        <ele>103.8</ele>
        <time>2023-08-06T12:41:29Z</time>
      </trkpt>
      <trkpt lat="50.08915" lon="3.448">
        <ele>103.8</ele>
        <time>2023-08-06T12:41:30Z</time>
      </trkpt>
      <trkpt lat="50.08889" lon="3.44799">
        <ele>103.6</ele>
        <time>2023-08-06T12:41:35Z</time>
      </trkpt>
      <trkpt lat="50.08884" lon="3.44799">
        <ele>103.8</ele>
        <time>2023-08-06T12:41:36Z</time>
      </trkpt>
      <trkpt lat="50.08879" lon="3.44799">
        <ele>103.8</ele>
        <time>2023-08-06T12:41:37Z</time>
      </trkpt>
      <trkpt lat="50.08874" lon="3.44799">
        <ele>103.8</ele>
        <time>2023-08-06T12:41:38Z</time>
      </trkpt>
      <trkpt lat="50.08869" lon="3.44798">
        <ele>103.8</ele>
        <time>2023-08-06T12:41:39Z</time>
      </trkpt>
      <trkpt lat="50.08864" lon="3.44798">
        <ele>103.8</ele>
        <time>2023-08-06T12:41:40Z</time>
      </trkpt>
      <trkpt lat="50.08859" lon="3.44798">
        <ele>103.8</ele>
        <time>2023-08-06T12:41:41Z</time>
      </trkpt>
      <trkpt lat="50.08854" lon="3.44798">
        <ele>103.8</ele>
        <time>2023-08-06T12:41:42Z</time>
      </trkpt>
      <trkpt lat="50.08849" lon="3.44798">
        <ele>103.8</ele>
        <time>2023-08-06T12:41:43Z</time>
      </trkpt>
      <trkpt lat="50.08845" lon="3.44798">
        <ele>103.8</ele>
        <time>2023-08-06T12:41:44Z</time>
      </trkpt>
      <trkpt lat="50.08798" lon="3.44797">
        <ele>103.8</ele>
        <time>2023-08-06T12:41:53Z</time>
      </trkpt>
      <trkpt lat="50.08749" lon="3.44795">
        <ele>103.8</ele>
        <time>2023-08-06T12:42:02Z</time>
      </trkpt>
      <trkpt lat="50.08706" lon="3.44792">
        <ele>103.8</ele>
        <time>2023-08-06T12:42:10Z</time>
      </trkpt>
      <trkpt lat="50.08701" lon="3.44792">
        <ele>103.8</ele>
        <time>2023-08-06T12:42:11Z</time>
      </trkpt>
      <trkpt lat="50.08696" lon="3.44791">
        <ele>103.8</ele>
        <time>2023-08-06T12:42:12Z</time>
      </trkpt>
      <trkpt lat="50.08692" lon="3.44791">
        <ele>103.8</ele>
        <time>2023-08-06T12:42:13Z</time>
      </trkpt>
      <trkpt lat="50.08686" lon="3.44791">
        <ele>103.8</ele>
        <time>2023-08-06T12:42:14Z</time>
      </trkpt>
      <trkpt lat="50.08681" lon="3.44791">
        <ele>104</ele>
        <time>2023-08-06T12:42:15Z</time>
      </trkpt>
      <trkpt lat="50.08677" lon="3.4479">
        <ele>104</ele>
        <time>2023-08-06T12:42:16Z</time>
      </trkpt>
      <trkpt lat="50.08673" lon="3.4479">
        <ele>104</ele>
        <time>2023-08-06T12:42:17Z</time>
      </trkpt>
      <trkpt lat="50.0867" lon="3.4479">
        <ele>104</ele>
        <time>2023-08-06T12:42:18Z</time>
      </trkpt>
      <trkpt lat="50.08666" lon="3.4479">
        <ele>104.2</ele>
        <time>2023-08-06T12:42:19Z</time>
      </trkpt>
      <trkpt lat="50.08662" lon="3.4479">
        <ele>104.2</ele>
        <time>2023-08-06T12:42:20Z</time>
      </trkpt>
      <trkpt lat="50.08659" lon="3.44789">
        <ele>104.4</ele>
        <time>2023-08-06T12:42:21Z</time>
      </trkpt>
      <trkpt lat="50.08647" lon="3.44788">
        <ele>104.6</ele>
        <time>2023-08-06T12:42:24Z</time>
      </trkpt>
      <trkpt lat="50.08643" lon="3.44787">
        <ele>104.6</ele>
        <time>2023-08-06T12:42:25Z</time>
      </trkpt>
      <trkpt lat="50.0864" lon="3.44787">
        <ele>104.6</ele>
        <time>2023-08-06T12:42:26Z</time>
      </trkpt>
      <trkpt lat="50.08636" lon="3.44786">
        <ele>104.8</ele>
        <time>2023-08-06T12:42:27Z</time>
      </trkpt>
      <trkpt lat="50.08632" lon="3.44786">
        <ele>104.8</ele>
        <time>2023-08-06T12:42:28Z</time>
      </trkpt>
      <trkpt lat="50.08628" lon="3.44786">
        <ele>104.8</ele>
        <time>2023-08-06T12:42:29Z</time>
      </trkpt>
      <trkpt lat="50.08624" lon="3.44786">
        <ele>105</ele>
        <time>2023-08-06T12:42:30Z</time>
      </trkpt>
      <trkpt lat="50.08613" lon="3.44784">
        <ele>105.2</ele>
        <time>2023-08-06T12:42:33Z</time>
      </trkpt>
      <trkpt lat="50.08603" lon="3.44782">
        <ele>105.6</ele>
        <time>2023-08-06T12:42:36Z</time>
      </trkpt>
      <trkpt lat="50.08578" lon="3.44779">
        <ele>106.2</ele>
        <time>2023-08-06T12:42:42Z</time>
      </trkpt>
      <trkpt lat="50.08566" lon="3.44779">
        <ele>106.4</ele>
        <time>2023-08-06T12:42:45Z</time>
      </trkpt>
      <trkpt lat="50.0856" lon="3.44778">
        <ele>106.6</ele>
        <time>2023-08-06T12:42:47Z</time>
      </trkpt>
      <trkpt lat="50.08557" lon="3.44778">
        <ele>106.4</ele>
        <time>2023-08-06T12:42:48Z</time>
      </trkpt>
      <trkpt lat="50.08555" lon="3.44778">
        <ele>106.6</ele>
        <time>2023-08-06T12:42:49Z</time>
      </trkpt>
      <trkpt lat="50.08553" lon="3.44778">
        <ele>106.6</ele>
        <time>2023-08-06T12:42:50Z</time>
      </trkpt>
      <trkpt lat="50.08551" lon="3.44778">
        <ele>106.6</ele>
        <time>2023-08-06T12:42:51Z</time>
      </trkpt>
      <trkpt lat="50.08549" lon="3.44778">
        <ele>106.4</ele>
        <time>2023-08-06T12:42:52Z</time>
      </trkpt>
      <trkpt lat="50.08547" lon="3.44778">
        <ele>106.4</ele>
        <time>2023-08-06T12:42:53Z</time>
      </trkpt>
      <trkpt lat="50.08545" lon="3.44778">
        <ele>106.6</ele>
        <time>2023-08-06T12:42:54Z</time>
      </trkpt>
      <trkpt lat="50.08537" lon="3.44779">
        <ele>106.6</ele>
        <time>2023-08-06T12:42:57Z</time>
      </trkpt>
      <trkpt lat="50.08513" lon="3.44782">
        <ele>106.4</ele>
        <time>2023-08-06T12:43:03Z</time>
      </trkpt>
      <trkpt lat="50.08494" lon="3.44785">
        <ele>106.2</ele>
        <time>2023-08-06T12:43:07Z</time>
      </trkpt>
      <trkpt lat="50.08484" lon="3.44787">
        <ele>106</ele>
        <time>2023-08-06T12:43:09Z</time>
      </trkpt>
      <trkpt lat="50.08432" lon="3.44796">
        <ele>105.8</ele>
        <time>2023-08-06T12:43:19Z</time>
      </trkpt>
      <trkpt lat="50.08388" lon="3.44804">
        <ele>105.8</ele>
        <time>2023-08-06T12:43:27Z</time>
      </trkpt>
      <trkpt lat="50.08378" lon="3.44804">
        <ele>105.8</ele>
        <time>2023-08-06T12:43:29Z</time>
      </trkpt>
      <trkpt lat="50.08373" lon="3.44803">
        <ele>105.8</ele>
        <time>2023-08-06T12:43:30Z</time>
      </trkpt>
      <trkpt lat="50.08368" lon="3.44802">
        <ele>105.6</ele>
        <time>2023-08-06T12:43:31Z</time>
      </trkpt>
      <trkpt lat="50.08364" lon="3.44801">
        <ele>105.6</ele>
        <time>2023-08-06T12:43:32Z</time>
      </trkpt>
      <trkpt lat="50.08359" lon="3.44801">
        <ele>105.6</ele>
        <time>2023-08-06T12:43:33Z</time>
      </trkpt>
      <trkpt lat="50.08354" lon="3.44802">
        <ele>105.6</ele>
        <time>2023-08-06T12:43:34Z</time>
      </trkpt>
      <trkpt lat="50.0835" lon="3.44805">
        <ele>105.6</ele>
        <time>2023-08-06T12:43:35Z</time>
      </trkpt>
      <trkpt lat="50.08345" lon="3.44807">
        <ele>105.6</ele>
        <time>2023-08-06T12:43:36Z</time>
      </trkpt>
      <trkpt lat="50.08341" lon="3.4481">
        <ele>105.4</ele>
        <time>2023-08-06T12:43:37Z</time>
      </trkpt>
      <trkpt lat="50.08337" lon="3.44813">
        <ele>105.4</ele>
        <time>2023-08-06T12:43:38Z</time>
      </trkpt>
      <trkpt lat="50.08333" lon="3.44816">
        <ele>105.4</ele>
        <time>2023-08-06T12:43:39Z</time>
      </trkpt>
      <trkpt lat="50.0833" lon="3.4482">
        <ele>105.4</ele>
        <time>2023-08-06T12:43:40Z</time>
      </trkpt>
      <trkpt lat="50.08327" lon="3.44824">
        <ele>105.4</ele>
        <time>2023-08-06T12:43:41Z</time>
      </trkpt>
      <trkpt lat="50.08324" lon="3.44831">
        <ele>105.4</ele>
        <time>2023-08-06T12:43:42Z</time>
      </trkpt>
      <trkpt lat="50.08321" lon="3.44838">
        <ele>105.4</ele>
        <time>2023-08-06T12:43:43Z</time>
      </trkpt>
      <trkpt lat="50.0831" lon="3.4487">
        <ele>105.2</ele>
        <time>2023-08-06T12:43:48Z</time>
      </trkpt>
      <trkpt lat="50.08304" lon="3.44886">
        <ele>105.4</ele>
        <time>2023-08-06T12:43:51Z</time>
      </trkpt>
      <trkpt lat="50.08303" lon="3.44892">
        <ele>105.2</ele>
        <time>2023-08-06T12:43:52Z</time>
      </trkpt>
      <trkpt lat="50.08302" lon="3.44897">
        <ele>105.4</ele>
        <time>2023-08-06T12:43:53Z</time>
      </trkpt>
      <trkpt lat="50.08299" lon="3.44906">
        <ele>105.6</ele>
        <time>2023-08-06T12:43:55Z</time>
      </trkpt>
      <trkpt lat="50.08297" lon="3.44912">
        <ele>105.6</ele>
        <time>2023-08-06T12:43:56Z</time>
      </trkpt>
      <trkpt lat="50.08296" lon="3.44916">
        <ele>105.8</ele>
        <time>2023-08-06T12:43:57Z</time>
      </trkpt>
      <trkpt lat="50.08295" lon="3.44921">
        <ele>106.2</ele>
        <time>2023-08-06T12:43:58Z</time>
      </trkpt>
      <trkpt lat="50.08294" lon="3.44925">
        <ele>106.2</ele>
        <time>2023-08-06T12:43:59Z</time>
      </trkpt>
      <trkpt lat="50.08292" lon="3.4493">
        <ele>106.4</ele>
        <time>2023-08-06T12:44:00Z</time>
      </trkpt>
      <trkpt lat="50.08291" lon="3.44934">
        <ele>106.6</ele>
        <time>2023-08-06T12:44:01Z</time>
      </trkpt>
      <trkpt lat="50.0829" lon="3.44939">
        <ele>106.8</ele>
        <time>2023-08-06T12:44:02Z</time>
      </trkpt>
      <trkpt lat="50.08289" lon="3.44943">
        <ele>106.8</ele>
        <time>2023-08-06T12:44:03Z</time>
      </trkpt>
      <trkpt lat="50.08288" lon="3.44948">
        <ele>107.2</ele>
        <time>2023-08-06T12:44:04Z</time>
      </trkpt>
      <trkpt lat="50.08287" lon="3.44951">
        <ele>107.4</ele>
        <time>2023-08-06T12:44:05Z</time>
      </trkpt>
      <trkpt lat="50.08286" lon="3.44955">
        <ele>107.6</ele>
        <time>2023-08-06T12:44:06Z</time>
      </trkpt>
      <trkpt lat="50.08286" lon="3.44959">
        <ele>108</ele>
        <time>2023-08-06T12:44:07Z</time>
      </trkpt>
      <trkpt lat="50.08286" lon="3.44964">
        <ele>108.2</ele>
        <time>2023-08-06T12:44:08Z</time>
      </trkpt>
      <trkpt lat="50.08285" lon="3.44968">
        <ele>108.4</ele>
        <time>2023-08-06T12:44:09Z</time>
      </trkpt>
      <trkpt lat="50.08284" lon="3.44972">
        <ele>108.4</ele>
        <time>2023-08-06T12:44:10Z</time>
      </trkpt>
      <trkpt lat="50.08283" lon="3.44975">
        <ele>108.6</ele>
        <time>2023-08-06T12:44:11Z</time>
      </trkpt>
      <trkpt lat="50.08282" lon="3.44979">
        <ele>108.8</ele>
        <time>2023-08-06T12:44:12Z</time>
      </trkpt>
      <trkpt lat="50.08282" lon="3.44982">
        <ele>109</ele>
        <time>2023-08-06T12:44:13Z</time>
      </trkpt>
      <trkpt lat="50.08281" lon="3.44986">
        <ele>109.2</ele>
        <time>2023-08-06T12:44:14Z</time>
      </trkpt>
      <trkpt lat="50.0828" lon="3.4499">
        <ele>109.4</ele>
        <time>2023-08-06T12:44:15Z</time>
      </trkpt>
      <trkpt lat="50.08279" lon="3.44993">
        <ele>109.6</ele>
        <time>2023-08-06T12:44:16Z</time>
      </trkpt>
      <trkpt lat="50.08279" lon="3.44997">
        <ele>109.8</ele>
        <time>2023-08-06T12:44:17Z</time>
      </trkpt>
      <trkpt lat="50.08278" lon="3.45">
        <ele>110</ele>
        <time>2023-08-06T12:44:18Z</time>
      </trkpt>
      <trkpt lat="50.08277" lon="3.45003">
        <ele>110.2</ele>
        <time>2023-08-06T12:44:19Z</time>
      </trkpt>
      <trkpt lat="50.08276" lon="3.45008">
        <ele>110.4</ele>
        <time>2023-08-06T12:44:20Z</time>
      </trkpt>
      <trkpt lat="50.08276" lon="3.45012">
        <ele>110.6</ele>
        <time>2023-08-06T12:44:21Z</time>
      </trkpt>
      <trkpt lat="50.08275" lon="3.45016">
        <ele>110.8</ele>
        <time>2023-08-06T12:44:22Z</time>
      </trkpt>
      <trkpt lat="50.08274" lon="3.45019">
        <ele>111</ele>
        <time>2023-08-06T12:44:23Z</time>
      </trkpt>
      <trkpt lat="50.08274" lon="3.45024">
        <ele>111</ele>
        <time>2023-08-06T12:44:24Z</time>
      </trkpt>
      <trkpt lat="50.08273" lon="3.45028">
        <ele>111.2</ele>
        <time>2023-08-06T12:44:25Z</time>
      </trkpt>
      <trkpt lat="50.08272" lon="3.45032">
        <ele>111.4</ele>
        <time>2023-08-06T12:44:26Z</time>
      </trkpt>
      <trkpt lat="50.08271" lon="3.45037">
        <ele>111.4</ele>
        <time>2023-08-06T12:44:27Z</time>
      </trkpt>
      <trkpt lat="50.08271" lon="3.4504">
        <ele>111.6</ele>
        <time>2023-08-06T12:44:28Z</time>
      </trkpt>
      <trkpt lat="50.0827" lon="3.45045">
        <ele>111.6</ele>
        <time>2023-08-06T12:44:29Z</time>
      </trkpt>
      <trkpt lat="50.0827" lon="3.45049">
        <ele>111.8</ele>
        <time>2023-08-06T12:44:30Z</time>
      </trkpt>
      <trkpt lat="50.08269" lon="3.45053">
        <ele>111.8</ele>
        <time>2023-08-06T12:44:31Z</time>
      </trkpt>
      <trkpt lat="50.08268" lon="3.45057">
        <ele>112</ele>
        <time>2023-08-06T12:44:32Z</time>
      </trkpt>
      <trkpt lat="50.08267" lon="3.45061">
        <ele>112</ele>
        <time>2023-08-06T12:44:33Z</time>
      </trkpt>
      <trkpt lat="50.08266" lon="3.45065">
        <ele>112.2</ele>
        <time>2023-08-06T12:44:34Z</time>
      </trkpt>
      <trkpt lat="50.08266" lon="3.45069">
        <ele>112.4</ele>
        <time>2023-08-06T12:44:35Z</time>
      </trkpt>
      <trkpt lat="50.08266" lon="3.45073">
        <ele>112.6</ele>
        <time>2023-08-06T12:44:36Z</time>
      </trkpt>
      <trkpt lat="50.08265" lon="3.45078">
        <ele>112.6</ele>
        <time>2023-08-06T12:44:37Z</time>
      </trkpt>
      <trkpt lat="50.08264" lon="3.45082">
        <ele>112.8</ele>
        <time>2023-08-06T12:44:38Z</time>
      </trkpt>
      <trkpt lat="50.08264" lon="3.45086">
        <ele>113</ele>
        <time>2023-08-06T12:44:39Z</time>
      </trkpt>
      <trkpt lat="50.08263" lon="3.45089">
        <ele>113</ele>
        <time>2023-08-06T12:44:40Z</time>
      </trkpt>
      <trkpt lat="50.08263" lon="3.45093">
        <ele>113.2</ele>
        <time>2023-08-06T12:44:41Z</time>
      </trkpt>
      <trkpt lat="50.08262" lon="3.45097">
        <ele>113.4</ele>
        <time>2023-08-06T12:44:42Z</time>
      </trkpt>
      <trkpt lat="50.08261" lon="3.45101">
        <ele>113.4</ele>
        <time>2023-08-06T12:44:43Z</time>
      </trkpt>
      <trkpt lat="50.0826" lon="3.45105">
        <ele>113.6</ele>
        <time>2023-08-06T12:44:44Z</time>
      </trkpt>
      <trkpt lat="50.0826" lon="3.45109">
        <ele>113.6</ele>
        <time>2023-08-06T12:44:45Z</time>
      </trkpt>
      <trkpt lat="50.0826" lon="3.45113">
        <ele>114</ele>
        <time>2023-08-06T12:44:46Z</time>
      </trkpt>
      <trkpt lat="50.08259" lon="3.45117">
        <ele>114</ele>
        <time>2023-08-06T12:44:47Z</time>
      </trkpt>
      <trkpt lat="50.08258" lon="3.45121">
        <ele>114.4</ele>
        <time>2023-08-06T12:44:48Z</time>
      </trkpt>
      <trkpt lat="50.08258" lon="3.45125">
        <ele>114.4</ele>
        <time>2023-08-06T12:44:49Z</time>
      </trkpt>
      <trkpt lat="50.08257" lon="3.45129">
        <ele>114.6</ele>
        <time>2023-08-06T12:44:50Z</time>
      </trkpt>
      <trkpt lat="50.08257" lon="3.45132">
        <ele>114.8</ele>
        <time>2023-08-06T12:44:51Z</time>
      </trkpt>
      <trkpt lat="50.08256" lon="3.45136">
        <ele>114.8</ele>
        <time>2023-08-06T12:44:52Z</time>
      </trkpt>
      <trkpt lat="50.08255" lon="3.4514">
        <ele>115</ele>
        <time>2023-08-06T12:44:53Z</time>
      </trkpt>
      <trkpt lat="50.08255" lon="3.45144">
        <ele>115</ele>
        <time>2023-08-06T12:44:54Z</time>
      </trkpt>
      <trkpt lat="50.08254" lon="3.45148">
        <ele>115.2</ele>
        <time>2023-08-06T12:44:55Z</time>
      </trkpt>
      <trkpt lat="50.08253" lon="3.45152">
        <ele>115.2</ele>
        <time>2023-08-06T12:44:56Z</time>
      </trkpt>
      <trkpt lat="50.08253" lon="3.45156">
        <ele>115.2</ele>
        <time>2023-08-06T12:44:57Z</time>
      </trkpt>
      <trkpt lat="50.08252" lon="3.4516">
        <ele>115.4</ele>
        <time>2023-08-06T12:44:58Z</time>
      </trkpt>
      <trkpt lat="50.08251" lon="3.45164">
        <ele>115.4</ele>
        <time>2023-08-06T12:44:59Z</time>
      </trkpt>
      <trkpt lat="50.08251" lon="3.45167">
        <ele>115.6</ele>
        <time>2023-08-06T12:45:00Z</time>
      </trkpt>
      <trkpt lat="50.0825" lon="3.45171">
        <ele>115.6</ele>
        <time>2023-08-06T12:45:01Z</time>
      </trkpt>
      <trkpt lat="50.08249" lon="3.45175">
        <ele>115.8</ele>
        <time>2023-08-06T12:45:02Z</time>
      </trkpt>
      <trkpt lat="50.08248" lon="3.45178">
        <ele>115.8</ele>
        <time>2023-08-06T12:45:03Z</time>
      </trkpt>
      <trkpt lat="50.08247" lon="3.45186">
        <ele>115.8</ele>
        <time>2023-08-06T12:45:04Z</time>
      </trkpt>
      <trkpt lat="50.08247" lon="3.45186">
        <ele>116</ele>
        <time>2023-08-06T12:45:05Z</time>
      </trkpt>
      <trkpt lat="50.08245" lon="3.45194">
        <ele>116</ele>
        <time>2023-08-06T12:45:06Z</time>
      </trkpt>
      <trkpt lat="50.08244" lon="3.45198">
        <ele>116</ele>
        <time>2023-08-06T12:45:07Z</time>
      </trkpt>
      <trkpt lat="50.08244" lon="3.45202">
        <ele>116.2</ele>
        <time>2023-08-06T12:45:08Z</time>
      </trkpt>
      <trkpt lat="50.08243" lon="3.45206">
        <ele>116.4</ele>
        <time>2023-08-06T12:45:09Z</time>
      </trkpt>
      <trkpt lat="50.08242" lon="3.45209">
        <ele>116.6</ele>
        <time>2023-08-06T12:45:10Z</time>
      </trkpt>
      <trkpt lat="50.08242" lon="3.45209">
        <ele>116.6</ele>
        <time>2023-08-06T12:45:11Z</time>
      </trkpt>
      <trkpt lat="50.0824" lon="3.45217">
        <ele>116.8</ele>
        <time>2023-08-06T12:45:12Z</time>
      </trkpt>
      <trkpt lat="50.08239" lon="3.4522">
        <ele>116.8</ele>
        <time>2023-08-06T12:45:13Z</time>
      </trkpt>
      <trkpt lat="50.08239" lon="3.4522">
        <ele>116.8</ele>
        <time>2023-08-06T12:45:14Z</time>
      </trkpt>
      <trkpt lat="50.08237" lon="3.45228">
        <ele>117</ele>
        <time>2023-08-06T12:45:15Z</time>
      </trkpt>
      <trkpt lat="50.08236" lon="3.45231">
        <ele>117</ele>
        <time>2023-08-06T12:45:16Z</time>
      </trkpt>
      <trkpt lat="50.08235" lon="3.45235">
        <ele>117</ele>
        <time>2023-08-06T12:45:17Z</time>
      </trkpt>
      <trkpt lat="50.08234" lon="3.45239">
        <ele>117.2</ele>
        <time>2023-08-06T12:45:18Z</time>
      </trkpt>
      <trkpt lat="50.08233" lon="3.45243">
        <ele>117.4</ele>
        <time>2023-08-06T12:45:19Z</time>
      </trkpt>
      <trkpt lat="50.08232" lon="3.45246">
        <ele>117.4</ele>
        <time>2023-08-06T12:45:20Z</time>
      </trkpt>
      <trkpt lat="50.08231" lon="3.4525">
        <ele>117.4</ele>
        <time>2023-08-06T12:45:21Z</time>
      </trkpt>
      <trkpt lat="50.0823" lon="3.45253">
        <ele>117.6</ele>
        <time>2023-08-06T12:45:22Z</time>
      </trkpt>
      <trkpt lat="50.0823" lon="3.45253">
        <ele>117.6</ele>
        <time>2023-08-06T12:45:23Z</time>
      </trkpt>
      <trkpt lat="50.08227" lon="3.45261">
        <ele>117.6</ele>
        <time>2023-08-06T12:45:24Z</time>
      </trkpt>
      <trkpt lat="50.08226" lon="3.45265">
        <ele>117.8</ele>
        <time>2023-08-06T12:45:25Z</time>
      </trkpt>
      <trkpt lat="50.08226" lon="3.45265">
        <ele>118</ele>
        <time>2023-08-06T12:45:26Z</time>
      </trkpt>
      <trkpt lat="50.08224" lon="3.45273">
        <ele>118.2</ele>
        <time>2023-08-06T12:45:27Z</time>
      </trkpt>
      <trkpt lat="50.08222" lon="3.45277">
        <ele>118.2</ele>
        <time>2023-08-06T12:45:28Z</time>
      </trkpt>
      <trkpt lat="50.08221" lon="3.45281">
        <ele>118.4</ele>
        <time>2023-08-06T12:45:29Z</time>
      </trkpt>
      <trkpt lat="50.08219" lon="3.45285">
        <ele>118.4</ele>
        <time>2023-08-06T12:45:30Z</time>
      </trkpt>
      <trkpt lat="50.08218" lon="3.45289">
        <ele>118.8</ele>
        <time>2023-08-06T12:45:31Z</time>
      </trkpt>
      <trkpt lat="50.08218" lon="3.45289">
        <ele>119</ele>
        <time>2023-08-06T12:45:32Z</time>
      </trkpt>
      <trkpt lat="50.08215" lon="3.45296">
        <ele>119.2</ele>
        <time>2023-08-06T12:45:33Z</time>
      </trkpt>
      <trkpt lat="50.08214" lon="3.453">
        <ele>119.2</ele>
        <time>2023-08-06T12:45:34Z</time>
      </trkpt>
      <trkpt lat="50.08212" lon="3.45305">
        <ele>119.2</ele>
        <time>2023-08-06T12:45:35Z</time>
      </trkpt>
      <trkpt lat="50.0821" lon="3.45309">
        <ele>119.4</ele>
        <time>2023-08-06T12:45:36Z</time>
      </trkpt>
      <trkpt lat="50.08208" lon="3.45313">
        <ele>119.4</ele>
        <time>2023-08-06T12:45:37Z</time>
      </trkpt>
      <trkpt lat="50.08206" lon="3.45316">
        <ele>119.6</ele>
        <time>2023-08-06T12:45:38Z</time>
      </trkpt>
      <trkpt lat="50.08204" lon="3.4532">
        <ele>119.6</ele>
        <time>2023-08-06T12:45:39Z</time>
      </trkpt>
      <trkpt lat="50.08202" lon="3.45325">
        <ele>119.6</ele>
        <time>2023-08-06T12:45:40Z</time>
      </trkpt>
      <trkpt lat="50.08202" lon="3.45325">
        <ele>119.6</ele>
        <time>2023-08-06T12:45:41Z</time>
      </trkpt>
      <trkpt lat="50.08198" lon="3.45334">
        <ele>119.6</ele>
        <time>2023-08-06T12:45:42Z</time>
      </trkpt>
      <trkpt lat="50.08196" lon="3.45339">
        <ele>119.6</ele>
        <time>2023-08-06T12:45:43Z</time>
      </trkpt>
      <trkpt lat="50.08194" lon="3.45343">
        <ele>119.8</ele>
        <time>2023-08-06T12:45:44Z</time>
      </trkpt>
      <trkpt lat="50.08192" lon="3.45348">
        <ele>119.8</ele>
        <time>2023-08-06T12:45:45Z</time>
      </trkpt>
      <trkpt lat="50.0819" lon="3.45353">
        <ele>119.8</ele>
        <time>2023-08-06T12:45:46Z</time>
      </trkpt>
      <trkpt lat="50.08187" lon="3.45358">
        <ele>119.8</ele>
        <time>2023-08-06T12:45:47Z</time>
      </trkpt>
      <trkpt lat="50.08169" lon="3.45392">
        <ele>119.8</ele>
        <time>2023-08-06T12:45:53Z</time>
      </trkpt>
      <trkpt lat="50.08166" lon="3.45399">
        <ele>119.6</ele>
        <time>2023-08-06T12:45:54Z</time>
      </trkpt>
      <trkpt lat="50.08154" lon="3.45428">
        <ele>119.4</ele>
        <time>2023-08-06T12:45:58Z</time>
      </trkpt>
      <trkpt lat="50.0815" lon="3.45446">
        <ele>119.2</ele>
        <time>2023-08-06T12:46:00Z</time>
      </trkpt>
      <trkpt lat="50.08146" lon="3.45476">
        <ele>118.4</ele>
        <time>2023-08-06T12:46:03Z</time>
      </trkpt>
      <trkpt lat="50.08144" lon="3.45508">
        <ele>117.6</ele>
        <time>2023-08-06T12:46:06Z</time>
      </trkpt>
      <trkpt lat="50.08143" lon="3.45519">
        <ele>117.6</ele>
        <time>2023-08-06T12:46:07Z</time>
      </trkpt>
      <trkpt lat="50.08142" lon="3.45552">
        <ele>116.8</ele>
        <time>2023-08-06T12:46:10Z</time>
      </trkpt>
      <trkpt lat="50.08141" lon="3.45575">
        <ele>116.4</ele>
        <time>2023-08-06T12:46:12Z</time>
      </trkpt>
      <trkpt lat="50.08136" lon="3.45624">
        <ele>115.4</ele>
        <time>2023-08-06T12:46:17Z</time>
      </trkpt>
      <trkpt lat="50.08132" lon="3.45649">
        <ele>115.4</ele>
        <time>2023-08-06T12:46:18Z</time>
      </trkpt>
      <trkpt lat="50.08125" lon="3.45687">
        <ele>115</ele>
        <time>2023-08-06T12:46:21Z</time>
      </trkpt>
      <trkpt lat="50.08119" lon="3.45713">
        <ele>114.4</ele>
        <time>2023-08-06T12:46:23Z</time>
      </trkpt>
      <trkpt lat="50.08106" lon="3.45761">
        <ele>113</ele>
        <time>2023-08-06T12:46:27Z</time>
      </trkpt>
      <trkpt lat="50.08093" lon="3.45807">
        <ele>111.6</ele>
        <time>2023-08-06T12:46:31Z</time>
      </trkpt>
      <trkpt lat="50.0809" lon="3.45819">
        <ele>111.6</ele>
        <time>2023-08-06T12:46:32Z</time>
      </trkpt>
      <trkpt lat="50.08083" lon="3.45841">
        <ele>110.8</ele>
        <time>2023-08-06T12:46:34Z</time>
      </trkpt>
      <trkpt lat="50.08083" lon="3.45841">
        <ele>110.4</ele>
        <time>2023-08-06T12:46:35Z</time>
      </trkpt>
      <trkpt lat="50.08076" lon="3.45863">
        <ele>110.2</ele>
        <time>2023-08-06T12:46:36Z</time>
      </trkpt>
      <trkpt lat="50.08073" lon="3.45873">
        <ele>110</ele>
        <time>2023-08-06T12:46:37Z</time>
      </trkpt>
      <trkpt lat="50.08067" lon="3.45894">
        <ele>109.6</ele>
        <time>2023-08-06T12:46:39Z</time>
      </trkpt>
      <trkpt lat="50.08064" lon="3.45904">
        <ele>109.2</ele>
        <time>2023-08-06T12:46:40Z</time>
      </trkpt>
      <trkpt lat="50.08061" lon="3.45915">
        <ele>109.2</ele>
        <time>2023-08-06T12:46:41Z</time>
      </trkpt>
      <trkpt lat="50.08059" lon="3.45925">
        <ele>109</ele>
        <time>2023-08-06T12:46:42Z</time>
      </trkpt>
      <trkpt lat="50.08056" lon="3.45935">
        <ele>108.6</ele>
        <time>2023-08-06T12:46:43Z</time>
      </trkpt>
      <trkpt lat="50.08056" lon="3.45935">
        <ele>108.6</ele>
        <time>2023-08-06T12:46:44Z</time>
      </trkpt>
      <trkpt lat="50.08051" lon="3.45954">
        <ele>108.2</ele>
        <time>2023-08-06T12:46:45Z</time>
      </trkpt>
      <trkpt lat="50.08049" lon="3.45965">
        <ele>108.2</ele>
        <time>2023-08-06T12:46:46Z</time>
      </trkpt>
      <trkpt lat="50.08047" lon="3.45975">
        <ele>108.2</ele>
        <time>2023-08-06T12:46:47Z</time>
      </trkpt>
      <trkpt lat="50.08045" lon="3.45985">
        <ele>108</ele>
        <time>2023-08-06T12:46:48Z</time>
      </trkpt>
      <trkpt lat="50.08043" lon="3.45994">
        <ele>107.8</ele>
        <time>2023-08-06T12:46:49Z</time>
      </trkpt>
      <trkpt lat="50.08041" lon="3.46004">
        <ele>107.6</ele>
        <time>2023-08-06T12:46:50Z</time>
      </trkpt>
      <trkpt lat="50.0804" lon="3.46014">
        <ele>107.4</ele>
        <time>2023-08-06T12:46:51Z</time>
      </trkpt>
      <trkpt lat="50.08038" lon="3.46024">
        <ele>107.2</ele>
        <time>2023-08-06T12:46:52Z</time>
      </trkpt>
      <trkpt lat="50.08038" lon="3.46024">
        <ele>107.2</ele>
        <time>2023-08-06T12:46:53Z</time>
      </trkpt>
      <trkpt lat="50.08035" lon="3.46043">
        <ele>107</ele>
        <time>2023-08-06T12:46:54Z</time>
      </trkpt>
      <trkpt lat="50.08033" lon="3.46053">
        <ele>107</ele>
        <time>2023-08-06T12:46:55Z</time>
      </trkpt>
      <trkpt lat="50.08032" lon="3.46062">
        <ele>106.8</ele>
        <time>2023-08-06T12:46:56Z</time>
      </trkpt>
      <trkpt lat="50.08015" lon="3.46143">
        <ele>106.6</ele>
        <time>2023-08-06T12:47:04Z</time>
      </trkpt>
      <trkpt lat="50.08012" lon="3.46153">
        <ele>106.4</ele>
        <time>2023-08-06T12:47:05Z</time>
      </trkpt>
      <trkpt lat="50.07985" lon="3.46238">
        <ele>106</ele>
        <time>2023-08-06T12:47:13Z</time>
      </trkpt>
      <trkpt lat="50.07982" lon="3.46249">
        <ele>106</ele>
        <time>2023-08-06T12:47:14Z</time>
      </trkpt>
      <trkpt lat="50.0797" lon="3.46282">
        <ele>105.8</ele>
        <time>2023-08-06T12:47:17Z</time>
      </trkpt>
      <trkpt lat="50.07949" lon="3.46337">
        <ele>105.4</ele>
        <time>2023-08-06T12:47:22Z</time>
      </trkpt>
      <trkpt lat="50.07919" lon="3.46396">
        <ele>105.2</ele>
        <time>2023-08-06T12:47:28Z</time>
      </trkpt>
      <trkpt lat="50.07891" lon="3.46434">
        <ele>105</ele>
        <time>2023-08-06T12:47:33Z</time>
      </trkpt>
      <trkpt lat="50.07885" lon="3.46441">
        <ele>105</ele>
        <time>2023-08-06T12:47:34Z</time>
      </trkpt>
      <trkpt lat="50.0788" lon="3.46448">
        <ele>105</ele>
        <time>2023-08-06T12:47:35Z</time>
      </trkpt>
      <trkpt lat="50.07874" lon="3.46454">
        <ele>105</ele>
        <time>2023-08-06T12:47:36Z</time>
      </trkpt>
      <trkpt lat="50.07868" lon="3.4646">
        <ele>105</ele>
        <time>2023-08-06T12:47:37Z</time>
      </trkpt>
      <trkpt lat="50.07868" lon="3.4646">
        <ele>105</ele>
        <time>2023-08-06T12:47:38Z</time>
      </trkpt>
      <trkpt lat="50.07857" lon="3.46472">
        <ele>105</ele>
        <time>2023-08-06T12:47:39Z</time>
      </trkpt>
      <trkpt lat="50.07852" lon="3.46478">
        <ele>105</ele>
        <time>2023-08-06T12:47:40Z</time>
      </trkpt>
      <trkpt lat="50.07848" lon="3.46482">
        <ele>105</ele>
        <time>2023-08-06T12:47:41Z</time>
      </trkpt>
      <trkpt lat="50.07843" lon="3.46488">
        <ele>105</ele>
        <time>2023-08-06T12:47:42Z</time>
      </trkpt>
      <trkpt lat="50.07837" lon="3.46495">
        <ele>105</ele>
        <time>2023-08-06T12:47:43Z</time>
      </trkpt>
      <trkpt lat="50.07832" lon="3.46501">
        <ele>105.2</ele>
        <time>2023-08-06T12:47:44Z</time>
      </trkpt>
      <trkpt lat="50.07828" lon="3.46506">
        <ele>105.2</ele>
        <time>2023-08-06T12:47:45Z</time>
      </trkpt>
      <trkpt lat="50.07824" lon="3.46511">
        <ele>105.2</ele>
        <time>2023-08-06T12:47:46Z</time>
      </trkpt>
      <trkpt lat="50.0782" lon="3.46516">
        <ele>105.4</ele>
        <time>2023-08-06T12:47:47Z</time>
      </trkpt>
      <trkpt lat="50.07814" lon="3.46522">
        <ele>105.4</ele>
        <time>2023-08-06T12:47:48Z</time>
      </trkpt>
      <trkpt lat="50.0781" lon="3.46527">
        <ele>105.8</ele>
        <time>2023-08-06T12:47:49Z</time>
      </trkpt>
      <trkpt lat="50.07806" lon="3.46532">
        <ele>105.8</ele>
        <time>2023-08-06T12:47:50Z</time>
      </trkpt>
      <trkpt lat="50.07803" lon="3.46536">
        <ele>106.2</ele>
        <time>2023-08-06T12:47:51Z</time>
      </trkpt>
      <trkpt lat="50.07803" lon="3.46536">
        <ele>106.2</ele>
        <time>2023-08-06T12:47:52Z</time>
      </trkpt>
      <trkpt lat="50.07795" lon="3.46546">
        <ele>106.6</ele>
        <time>2023-08-06T12:47:53Z</time>
      </trkpt>
      <trkpt lat="50.07791" lon="3.46552">
        <ele>106.8</ele>
        <time>2023-08-06T12:47:54Z</time>
      </trkpt>
      <trkpt lat="50.07788" lon="3.46556">
        <ele>106.8</ele>
        <time>2023-08-06T12:47:55Z</time>
      </trkpt>
      <trkpt lat="50.07784" lon="3.46561">
        <ele>107</ele>
        <time>2023-08-06T12:47:56Z</time>
      </trkpt>
      <trkpt lat="50.07784" lon="3.46561">
        <ele>107.2</ele>
        <time>2023-08-06T12:47:57Z</time>
      </trkpt>
      <trkpt lat="50.07776" lon="3.46572">
        <ele>107.4</ele>
        <time>2023-08-06T12:47:58Z</time>
      </trkpt>
      <trkpt lat="50.07772" lon="3.46577">
        <ele>107.4</ele>
        <time>2023-08-06T12:47:59Z</time>
      </trkpt>
      <trkpt lat="50.07769" lon="3.4658">
        <ele>107.4</ele>
        <time>2023-08-06T12:48:00Z</time>
      </trkpt>
      <trkpt lat="50.07765" lon="3.46584">
        <ele>107.6</ele>
        <time>2023-08-06T12:48:01Z</time>
      </trkpt>
      <trkpt lat="50.0776" lon="3.4659">
        <ele>107.6</ele>
        <time>2023-08-06T12:48:02Z</time>
      </trkpt>
      <trkpt lat="50.07756" lon="3.46595">
        <ele>107.8</ele>
        <time>2023-08-06T12:48:03Z</time>
      </trkpt>
      <trkpt lat="50.07748" lon="3.46605">
        <ele>108.2</ele>
        <time>2023-08-06T12:48:05Z</time>
      </trkpt>
      <trkpt lat="50.07748" lon="3.46605">
        <ele>108.4</ele>
        <time>2023-08-06T12:48:06Z</time>
      </trkpt>
      <trkpt lat="50.07739" lon="3.46615">
        <ele>108.6</ele>
        <time>2023-08-06T12:48:07Z</time>
      </trkpt>
      <trkpt lat="50.07735" lon="3.4662">
        <ele>108.6</ele>
        <time>2023-08-06T12:48:08Z</time>
      </trkpt>
      <trkpt lat="50.07731" lon="3.46625">
        <ele>108.8</ele>
        <time>2023-08-06T12:48:09Z</time>
      </trkpt>
      <trkpt lat="50.07726" lon="3.4663">
        <ele>108.8</ele>
        <time>2023-08-06T12:48:10Z</time>
      </trkpt>
      <trkpt lat="50.07721" lon="3.46635">
        <ele>108.8</ele>
        <time>2023-08-06T12:48:11Z</time>
      </trkpt>
      <trkpt lat="50.07717" lon="3.46641">
        <ele>108.8</ele>
        <time>2023-08-06T12:48:12Z</time>
      </trkpt>
      <trkpt lat="50.07711" lon="3.46646">
        <ele>108.8</ele>
        <time>2023-08-06T12:48:13Z</time>
      </trkpt>
      <trkpt lat="50.07706" lon="3.46651">
        <ele>108.6</ele>
        <time>2023-08-06T12:48:14Z</time>
      </trkpt>
      <trkpt lat="50.07706" lon="3.46651">
        <ele>108.6</ele>
        <time>2023-08-06T12:48:15Z</time>
      </trkpt>
      <trkpt lat="50.07695" lon="3.46661">
        <ele>108.4</ele>
        <time>2023-08-06T12:48:16Z</time>
      </trkpt>
      <trkpt lat="50.07689" lon="3.46665">
        <ele>108.4</ele>
        <time>2023-08-06T12:48:17Z</time>
      </trkpt>
      <trkpt lat="50.07683" lon="3.4667">
        <ele>108.4</ele>
        <time>2023-08-06T12:48:18Z</time>
      </trkpt>
      <trkpt lat="50.0767" lon="3.46678">
        <ele>107.8</ele>
        <time>2023-08-06T12:48:20Z</time>
      </trkpt>
      <trkpt lat="50.07649" lon="3.4669">
        <ele>106.8</ele>
        <time>2023-08-06T12:48:23Z</time>
      </trkpt>
      <trkpt lat="50.07613" lon="3.46714">
        <ele>105.6</ele>
        <time>2023-08-06T12:48:28Z</time>
      </trkpt>
      <trkpt lat="50.07605" lon="3.46719">
        <ele>105.4</ele>
        <time>2023-08-06T12:48:29Z</time>
      </trkpt>
      <trkpt lat="50.07576" lon="3.46736">
        <ele>104.6</ele>
        <time>2023-08-06T12:48:33Z</time>
      </trkpt>
      <trkpt lat="50.07569" lon="3.46739">
        <ele>104.2</ele>
        <time>2023-08-06T12:48:34Z</time>
      </trkpt>
      <trkpt lat="50.07563" lon="3.46742">
        <ele>103.6</ele>
        <time>2023-08-06T12:48:35Z</time>
      </trkpt>
      <trkpt lat="50.07557" lon="3.46743">
        <ele>103.4</ele>
        <time>2023-08-06T12:48:36Z</time>
      </trkpt>
      <trkpt lat="50.07551" lon="3.46745">
        <ele>103</ele>
        <time>2023-08-06T12:48:37Z</time>
      </trkpt>
      <trkpt lat="50.07551" lon="3.46745">
        <ele>103</ele>
        <time>2023-08-06T12:48:38Z</time>
      </trkpt>
      <trkpt lat="50.07543" lon="3.46752">
        <ele>102.6</ele>
        <time>2023-08-06T12:48:39Z</time>
      </trkpt>
      <trkpt lat="50.07541" lon="3.46758">
        <ele>102.4</ele>
        <time>2023-08-06T12:48:40Z</time>
      </trkpt>
      <trkpt lat="50.07541" lon="3.46765">
        <ele>102.2</ele>
        <time>2023-08-06T12:48:41Z</time>
      </trkpt>
      <trkpt lat="50.07543" lon="3.46772">
        <ele>102</ele>
        <time>2023-08-06T12:48:42Z</time>
      </trkpt>
      <trkpt lat="50.07545" lon="3.46778">
        <ele>102</ele>
        <time>2023-08-06T12:48:43Z</time>
      </trkpt>
      <trkpt lat="50.0755" lon="3.4679">
        <ele>101.6</ele>
        <time>2023-08-06T12:48:45Z</time>
      </trkpt>
      <trkpt lat="50.07553" lon="3.46796">
        <ele>101.4</ele>
        <time>2023-08-06T12:48:46Z</time>
      </trkpt>
      <trkpt lat="50.07558" lon="3.46808">
        <ele>101.2</ele>
        <time>2023-08-06T12:48:48Z</time>
      </trkpt>
      <trkpt lat="50.07562" lon="3.46819">
        <ele>101.2</ele>
        <time>2023-08-06T12:48:50Z</time>
      </trkpt>
      <trkpt lat="50.07563" lon="3.46823">
        <ele>101</ele>
        <time>2023-08-06T12:48:51Z</time>
      </trkpt>
      <trkpt lat="50.07563" lon="3.46827">
        <ele>101</ele>
        <time>2023-08-06T12:48:52Z</time>
      </trkpt>
      <trkpt lat="50.07562" lon="3.46831">
        <ele>101</ele>
        <time>2023-08-06T12:48:53Z</time>
      </trkpt>
      <trkpt lat="50.0756" lon="3.46835">
        <ele>101</ele>
        <time>2023-08-06T12:48:54Z</time>
      </trkpt>
      <trkpt lat="50.07558" lon="3.46838">
        <ele>101</ele>
        <time>2023-08-06T12:48:55Z</time>
      </trkpt>
      <trkpt lat="50.07558" lon="3.46838">
        <ele>101</ele>
        <time>2023-08-06T12:48:56Z</time>
      </trkpt>
      <trkpt lat="50.07551" lon="3.46845">
        <ele>100.8</ele>
        <time>2023-08-06T12:48:57Z</time>
      </trkpt>
      <trkpt lat="50.07547" lon="3.46849">
        <ele>100.8</ele>
        <time>2023-08-06T12:48:58Z</time>
      </trkpt>
      <trkpt lat="50.07534" lon="3.46861">
        <ele>100.6</ele>
        <time>2023-08-06T12:49:01Z</time>
      </trkpt>
      <trkpt lat="50.07521" lon="3.46876">
        <ele>100</ele>
        <time>2023-08-06T12:49:04Z</time>
      </trkpt>
      <trkpt lat="50.07513" lon="3.46885">
        <ele>100</ele>
        <time>2023-08-06T12:49:06Z</time>
      </trkpt>
      <trkpt lat="50.07509" lon="3.46889">
        <ele>100</ele>
        <time>2023-08-06T12:49:08Z</time>
      </trkpt>
      <trkpt lat="50.07496" lon="3.46902">
        <ele>99.4</ele>
        <time>2023-08-06T12:49:10Z</time>
      </trkpt>
      <trkpt lat="50.07483" lon="3.46912">
        <ele>99.2</ele>
        <time>2023-08-06T12:49:13Z</time>
      </trkpt>
      <trkpt lat="50.07483" lon="3.46912">
        <ele>99.2</ele>
        <time>2023-08-06T12:49:14Z</time>
      </trkpt>
      <trkpt lat="50.07462" lon="3.46933">
        <ele>99.2</ele>
        <time>2023-08-06T12:49:18Z</time>
      </trkpt>
      <trkpt lat="50.07458" lon="3.46936">
        <ele>99.2</ele>
        <time>2023-08-06T12:49:19Z</time>
      </trkpt>
      <trkpt lat="50.07454" lon="3.46939">
        <ele>99</ele>
        <time>2023-08-06T12:49:20Z</time>
      </trkpt>
      <trkpt lat="50.07451" lon="3.46942">
        <ele>99</ele>
        <time>2023-08-06T12:49:21Z</time>
      </trkpt>
      <trkpt lat="50.07448" lon="3.46945">
        <ele>99</ele>
        <time>2023-08-06T12:49:22Z</time>
      </trkpt>
      <trkpt lat="50.07448" lon="3.46945">
        <ele>98.8</ele>
        <time>2023-08-06T12:49:23Z</time>
      </trkpt>
      <trkpt lat="50.07442" lon="3.4695">
        <ele>99</ele>
        <time>2023-08-06T12:49:24Z</time>
      </trkpt>
      <trkpt lat="50.07439" lon="3.46952">
        <ele>99.2</ele>
        <time>2023-08-06T12:49:25Z</time>
      </trkpt>
      <trkpt lat="50.07436" lon="3.46954">
        <ele>99.4</ele>
        <time>2023-08-06T12:49:26Z</time>
      </trkpt>
      <trkpt lat="50.07431" lon="3.46959">
        <ele>99.4</ele>
        <time>2023-08-06T12:49:28Z</time>
      </trkpt>
      <trkpt lat="50.07431" lon="3.46959">
        <ele>99.6</ele>
        <time>2023-08-06T12:49:29Z</time>
      </trkpt>
      <trkpt lat="50.07427" lon="3.46962">
        <ele>99.8</ele>
        <time>2023-08-06T12:49:30Z</time>
      </trkpt>
      <trkpt lat="50.07425" lon="3.46963">
        <ele>99.8</ele>
        <time>2023-08-06T12:49:31Z</time>
      </trkpt>
      <trkpt lat="50.07425" lon="3.46963">
        <ele>100</ele>
        <time>2023-08-06T12:49:32Z</time>
      </trkpt>
      <trkpt lat="50.07421" lon="3.46966">
        <ele>100</ele>
        <time>2023-08-06T12:49:33Z</time>
      </trkpt>
      <trkpt lat="50.07419" lon="3.46967">
        <ele>100</ele>
        <time>2023-08-06T12:49:35Z</time>
      </trkpt>
      <trkpt lat="50.07414" lon="3.46971">
        <ele>100</ele>
        <time>2023-08-06T12:49:36Z</time>
      </trkpt>
      <trkpt lat="50.07411" lon="3.46973">
        <ele>100.2</ele>
        <time>2023-08-06T12:49:37Z</time>
      </trkpt>
      <trkpt lat="50.07404" lon="3.46978">
        <ele>100</ele>
        <time>2023-08-06T12:49:40Z</time>
      </trkpt>
      <trkpt lat="50.07404" lon="3.46978">
        <ele>100</ele>
        <time>2023-08-06T12:49:41Z</time>
      </trkpt>
      <trkpt lat="50.074" lon="3.4698">
        <ele>99.8</ele>
        <time>2023-08-06T12:49:42Z</time>
      </trkpt>
      <trkpt lat="50.07398" lon="3.46981">
        <ele>99.8</ele>
        <time>2023-08-06T12:49:43Z</time>
      </trkpt>
      <trkpt lat="50.0739" lon="3.46987">
        <ele>99.8</ele>
        <time>2023-08-06T12:49:47Z</time>
      </trkpt>
      <trkpt lat="50.07388" lon="3.46989">
        <ele>99.8</ele>
        <time>2023-08-06T12:49:48Z</time>
      </trkpt>
      <trkpt lat="50.07386" lon="3.4699">
        <ele>99.8</ele>
        <time>2023-08-06T12:49:49Z</time>
      </trkpt>
      <trkpt lat="50.07386" lon="3.4699">
        <ele>99.8</ele>
        <time>2023-08-06T12:49:50Z</time>
      </trkpt>
      <trkpt lat="50.07377" lon="3.46997">
        <ele>99.6</ele>
        <time>2023-08-06T12:49:53Z</time>
      </trkpt>
      <trkpt lat="50.07364" lon="3.47009">
        <ele>99.6</ele>
        <time>2023-08-06T12:50:00Z</time>
      </trkpt>
      <trkpt lat="50.07362" lon="3.47011">
        <ele>99.6</ele>
        <time>2023-08-06T12:50:01Z</time>
      </trkpt>
      <trkpt lat="50.0736" lon="3.47012">
        <ele>99.6</ele>
        <time>2023-08-06T12:50:02Z</time>
      </trkpt>
      <trkpt lat="50.07338" lon="3.47029">
        <ele>100.4</ele>
        <time>2023-08-06T12:50:12Z</time>
      </trkpt>
      <trkpt lat="50.07327" lon="3.47037">
        <ele>100.6</ele>
        <time>2023-08-06T12:50:17Z</time>
      </trkpt>
      <trkpt lat="50.07326" lon="3.47039">
        <ele>100.6</ele>
        <time>2023-08-06T12:50:18Z</time>
      </trkpt>
      <trkpt lat="50.07324" lon="3.4704">
        <ele>100.6</ele>
        <time>2023-08-06T12:50:19Z</time>
      </trkpt>
      <trkpt lat="50.07322" lon="3.47043">
        <ele>100.6</ele>
        <time>2023-08-06T12:50:20Z</time>
      </trkpt>
      <trkpt lat="50.07306" lon="3.47056">
        <ele>99.8</ele>
        <time>2023-08-06T12:50:27Z</time>
      </trkpt>
      <trkpt lat="50.0729" lon="3.47069">
        <ele>99.8</ele>
        <time>2023-08-06T12:50:34Z</time>
      </trkpt>
      <trkpt lat="50.07286" lon="3.47074">
        <ele>99.8</ele>
        <time>2023-08-06T12:50:36Z</time>
      </trkpt>
      <trkpt lat="50.07258" lon="3.47103">
        <ele>100</ele>
        <time>2023-08-06T12:50:48Z</time>
      </trkpt>
      <trkpt lat="50.07239" lon="3.47123">
        <ele>100</ele>
        <time>2023-08-06T12:50:56Z</time>
      </trkpt>
      <trkpt lat="50.07236" lon="3.47125">
        <ele>99.8</ele>
        <time>2023-08-06T12:50:57Z</time>
      </trkpt>
      <trkpt lat="50.07234" lon="3.47128">
        <ele>100</ele>
        <time>2023-08-06T12:50:58Z</time>
      </trkpt>
      <trkpt lat="50.07232" lon="3.4713">
        <ele>100</ele>
        <time>2023-08-06T12:50:59Z</time>
      </trkpt>
      <trkpt lat="50.0723" lon="3.47132">
        <ele>100</ele>
        <time>2023-08-06T12:51:00Z</time>
      </trkpt>
      <trkpt lat="50.07225" lon="3.47137">
        <ele>100</ele>
        <time>2023-08-06T12:51:02Z</time>
      </trkpt>
      <trkpt lat="50.07223" lon="3.4714">
        <ele>100.2</ele>
        <time>2023-08-06T12:51:03Z</time>
      </trkpt>
      <trkpt lat="50.07221" lon="3.47142">
        <ele>100.4</ele>
        <time>2023-08-06T12:51:04Z</time>
      </trkpt>
      <trkpt lat="50.07219" lon="3.47144">
        <ele>100.4</ele>
        <time>2023-08-06T12:51:05Z</time>
      </trkpt>
      <trkpt lat="50.07217" lon="3.47146">
        <ele>100.4</ele>
        <time>2023-08-06T12:51:06Z</time>
      </trkpt>
      <trkpt lat="50.07215" lon="3.47148">
        <ele>100.4</ele>
        <time>2023-08-06T12:51:07Z</time>
      </trkpt>
      <trkpt lat="50.07215" lon="3.47148">
        <ele>100.4</ele>
        <time>2023-08-06T12:51:08Z</time>
      </trkpt>
      <trkpt lat="50.07212" lon="3.47152">
        <ele>100.4</ele>
        <time>2023-08-06T12:51:09Z</time>
      </trkpt>
      <trkpt lat="50.0721" lon="3.47154">
        <ele>100.4</ele>
        <time>2023-08-06T12:51:10Z</time>
      </trkpt>
      <trkpt lat="50.0721" lon="3.47154">
        <ele>100.4</ele>
        <time>2023-08-06T12:51:11Z</time>
      </trkpt>
      <trkpt lat="50.07206" lon="3.47158">
        <ele>100.6</ele>
        <time>2023-08-06T12:51:12Z</time>
      </trkpt>
      <trkpt lat="50.07204" lon="3.4716">
        <ele>100.6</ele>
        <time>2023-08-06T12:51:13Z</time>
      </trkpt>
      <trkpt lat="50.07204" lon="3.4716">
        <ele>100.6</ele>
        <time>2023-08-06T12:51:14Z</time>
      </trkpt>
      <trkpt lat="50.07201" lon="3.47164">
        <ele>100.6</ele>
        <time>2023-08-06T12:51:15Z</time>
      </trkpt>
      <trkpt lat="50.07199" lon="3.47166">
        <ele>100.6</ele>
        <time>2023-08-06T12:51:16Z</time>
      </trkpt>
      <trkpt lat="50.07199" lon="3.47166">
        <ele>100.6</ele>
        <time>2023-08-06T12:51:17Z</time>
      </trkpt>
      <trkpt lat="50.07195" lon="3.4717">
        <ele>100.6</ele>
        <time>2023-08-06T12:51:18Z</time>
      </trkpt>
      <trkpt lat="50.07185" lon="3.47179">
        <ele>100.8</ele>
        <time>2023-08-06T12:51:23Z</time>
      </trkpt>
      <trkpt lat="50.07183" lon="3.47181">
        <ele>100.8</ele>
        <time>2023-08-06T12:51:24Z</time>
      </trkpt>
      <trkpt lat="50.07176" lon="3.47188">
        <ele>101.4</ele>
        <time>2023-08-06T12:51:28Z</time>
      </trkpt>
      <trkpt lat="50.07173" lon="3.47192">
        <ele>101.6</ele>
        <time>2023-08-06T12:51:30Z</time>
      </trkpt>
      <trkpt lat="50.07171" lon="3.47194">
        <ele>101.6</ele>
        <time>2023-08-06T12:51:31Z</time>
      </trkpt>
      <trkpt lat="50.07169" lon="3.47195">
        <ele>101.8</ele>
        <time>2023-08-06T12:51:32Z</time>
      </trkpt>
      <trkpt lat="50.07167" lon="3.47197">
        <ele>102</ele>
        <time>2023-08-06T12:51:33Z</time>
      </trkpt>
      <trkpt lat="50.07165" lon="3.47199">
        <ele>102</ele>
        <time>2023-08-06T12:51:34Z</time>
      </trkpt>
      <trkpt lat="50.07163" lon="3.472">
        <ele>102.2</ele>
        <time>2023-08-06T12:51:35Z</time>
      </trkpt>
      <trkpt lat="50.07162" lon="3.47202">
        <ele>102.2</ele>
        <time>2023-08-06T12:51:36Z</time>
      </trkpt>
      <trkpt lat="50.07158" lon="3.47205">
        <ele>102.6</ele>
        <time>2023-08-06T12:51:38Z</time>
      </trkpt>
      <trkpt lat="50.07151" lon="3.47211">
        <ele>103</ele>
        <time>2023-08-06T12:51:42Z</time>
      </trkpt>
      <trkpt lat="50.07149" lon="3.47212">
        <ele>103</ele>
        <time>2023-08-06T12:51:43Z</time>
      </trkpt>
      <trkpt lat="50.07147" lon="3.47214">
        <ele>103.2</ele>
        <time>2023-08-06T12:51:44Z</time>
      </trkpt>
      <trkpt lat="50.07126" lon="3.47232">
        <ele>103.6</ele>
        <time>2023-08-06T12:51:56Z</time>
      </trkpt>
      <trkpt lat="50.07119" lon="3.47238">
        <ele>104</ele>
        <time>2023-08-06T12:52:00Z</time>
      </trkpt>
      <trkpt lat="50.07108" lon="3.47247">
        <ele>104.6</ele>
        <time>2023-08-06T12:52:06Z</time>
      </trkpt>
      <trkpt lat="50.07102" lon="3.47252">
        <ele>105</ele>
        <time>2023-08-06T12:52:09Z</time>
      </trkpt>
      <trkpt lat="50.07089" lon="3.47263">
        <ele>105.2</ele>
        <time>2023-08-06T12:52:16Z</time>
      </trkpt>
      <trkpt lat="50.0707" lon="3.47275">
        <ele>105.2</ele>
        <time>2023-08-06T12:52:25Z</time>
      </trkpt>
      <trkpt lat="50.07062" lon="3.47278">
        <ele>105.4</ele>
        <time>2023-08-06T12:52:29Z</time>
      </trkpt>
      <trkpt lat="50.0706" lon="3.47277">
        <ele>105.4</ele>
        <time>2023-08-06T12:52:30Z</time>
      </trkpt>
      <trkpt lat="50.07058" lon="3.47276">
        <ele>105.6</ele>
        <time>2023-08-06T12:52:31Z</time>
      </trkpt>
      <trkpt lat="50.07055" lon="3.47275">
        <ele>105.4</ele>
        <time>2023-08-06T12:52:32Z</time>
      </trkpt>
      <trkpt lat="50.07053" lon="3.47274">
        <ele>105.4</ele>
        <time>2023-08-06T12:52:33Z</time>
      </trkpt>
      <trkpt lat="50.07051" lon="3.47272">
        <ele>105.4</ele>
        <time>2023-08-06T12:52:34Z</time>
      </trkpt>
      <trkpt lat="50.0705" lon="3.47271">
        <ele>105.4</ele>
        <time>2023-08-06T12:52:35Z</time>
      </trkpt>
      <trkpt lat="50.07048" lon="3.4727">
        <ele>105.4</ele>
        <time>2023-08-06T12:52:36Z</time>
      </trkpt>
      <trkpt lat="50.07045" lon="3.47269">
        <ele>105.4</ele>
        <time>2023-08-06T12:52:37Z</time>
      </trkpt>
      <trkpt lat="50.0704" lon="3.47265">
        <ele>105.6</ele>
        <time>2023-08-06T12:52:40Z</time>
      </trkpt>
      <trkpt lat="50.07035" lon="3.47259">
        <ele>105.6</ele>
        <time>2023-08-06T12:52:43Z</time>
      </trkpt>
      <trkpt lat="50.07031" lon="3.47255">
        <ele>106</ele>
        <time>2023-08-06T12:52:45Z</time>
      </trkpt>
      <trkpt lat="50.07016" lon="3.47236">
        <ele>107</ele>
        <time>2023-08-06T12:52:54Z</time>
      </trkpt>
      <trkpt lat="50.07007" lon="3.47219">
        <ele>107.6</ele>
        <time>2023-08-06T12:53:00Z</time>
      </trkpt>
      <trkpt lat="50.07006" lon="3.47216">
        <ele>108</ele>
        <time>2023-08-06T12:53:02Z</time>
      </trkpt>
      <trkpt lat="50.07003" lon="3.4721">
        <ele>108</ele>
        <time>2023-08-06T12:53:03Z</time>
      </trkpt>
      <trkpt lat="50.06996" lon="3.47194">
        <ele>108.6</ele>
        <time>2023-08-06T12:53:08Z</time>
      </trkpt>
      <trkpt lat="50.06995" lon="3.47191">
        <ele>108.8</ele>
        <time>2023-08-06T12:53:09Z</time>
      </trkpt>
      <trkpt lat="50.06993" lon="3.47189">
        <ele>108.8</ele>
        <time>2023-08-06T12:53:10Z</time>
      </trkpt>
      <trkpt lat="50.06992" lon="3.47186">
        <ele>108.8</ele>
        <time>2023-08-06T12:53:11Z</time>
      </trkpt>
      <trkpt lat="50.06991" lon="3.47183">
        <ele>108.8</ele>
        <time>2023-08-06T12:53:12Z</time>
      </trkpt>
      <trkpt lat="50.06989" lon="3.4718">
        <ele>109</ele>
        <time>2023-08-06T12:53:13Z</time>
      </trkpt>
      <trkpt lat="50.06988" lon="3.47177">
        <ele>109</ele>
        <time>2023-08-06T12:53:14Z</time>
      </trkpt>
      <trkpt lat="50.06986" lon="3.47175">
        <ele>109.2</ele>
        <time>2023-08-06T12:53:15Z</time>
      </trkpt>
      <trkpt lat="50.06986" lon="3.47175">
        <ele>109.4</ele>
        <time>2023-08-06T12:53:16Z</time>
      </trkpt>
      <trkpt lat="50.06983" lon="3.4717">
        <ele>109.4</ele>
        <time>2023-08-06T12:53:17Z</time>
      </trkpt>
      <trkpt lat="50.06982" lon="3.47167">
        <ele>109.4</ele>
        <time>2023-08-06T12:53:18Z</time>
      </trkpt>
      <trkpt lat="50.06978" lon="3.47163">
        <ele>109.6</ele>
        <time>2023-08-06T12:53:20Z</time>
      </trkpt>
      <trkpt lat="50.06972" lon="3.47158">
        <ele>110.4</ele>
        <time>2023-08-06T12:53:23Z</time>
      </trkpt>
      <trkpt lat="50.0697" lon="3.47157">
        <ele>110.6</ele>
        <time>2023-08-06T12:53:24Z</time>
      </trkpt>
      <trkpt lat="50.0697" lon="3.47157">
        <ele>110.8</ele>
        <time>2023-08-06T12:53:25Z</time>
      </trkpt>
      <trkpt lat="50.06964" lon="3.47156">
        <ele>111</ele>
        <time>2023-08-06T12:53:26Z</time>
      </trkpt>
      <trkpt lat="50.06962" lon="3.47157">
        <ele>111.2</ele>
        <time>2023-08-06T12:53:27Z</time>
      </trkpt>
      <trkpt lat="50.06962" lon="3.47157">
        <ele>111.2</ele>
        <time>2023-08-06T12:53:28Z</time>
      </trkpt>
      <trkpt lat="50.06957" lon="3.47158">
        <ele>111.2</ele>
        <time>2023-08-06T12:53:29Z</time>
      </trkpt>
      <trkpt lat="50.06954" lon="3.4716">
        <ele>111.2</ele>
        <time>2023-08-06T12:53:30Z</time>
      </trkpt>
      <trkpt lat="50.06954" lon="3.4716">
        <ele>111.2</ele>
        <time>2023-08-06T12:53:31Z</time>
      </trkpt>
      <trkpt lat="50.06949" lon="3.47163">
        <ele>111.4</ele>
        <time>2023-08-06T12:53:32Z</time>
      </trkpt>
      <trkpt lat="50.06946" lon="3.47165">
        <ele>111.4</ele>
        <time>2023-08-06T12:53:33Z</time>
      </trkpt>
      <trkpt lat="50.06946" lon="3.47165">
        <ele>111.4</ele>
        <time>2023-08-06T12:53:34Z</time>
      </trkpt>
      <trkpt lat="50.06941" lon="3.47169">
        <ele>111.4</ele>
        <time>2023-08-06T12:53:35Z</time>
      </trkpt>
      <trkpt lat="50.06939" lon="3.47173">
        <ele>111.4</ele>
        <time>2023-08-06T12:53:36Z</time>
      </trkpt>
      <trkpt lat="50.06937" lon="3.47176">
        <ele>111.2</ele>
        <time>2023-08-06T12:53:37Z</time>
      </trkpt>
      <trkpt lat="50.06934" lon="3.4718">
        <ele>111.2</ele>
        <time>2023-08-06T12:53:38Z</time>
      </trkpt>
      <trkpt lat="50.06932" lon="3.47183">
        <ele>111.2</ele>
        <time>2023-08-06T12:53:39Z</time>
      </trkpt>
      <trkpt lat="50.06929" lon="3.47187">
        <ele>111.2</ele>
        <time>2023-08-06T12:53:40Z</time>
      </trkpt>
      <trkpt lat="50.06912" lon="3.47209">
        <ele>110.6</ele>
        <time>2023-08-06T12:53:46Z</time>
      </trkpt>
      <trkpt lat="50.06895" lon="3.4723">
        <ele>110.2</ele>
        <time>2023-08-06T12:53:51Z</time>
      </trkpt>
      <trkpt lat="50.06886" lon="3.47232">
        <ele>110.2</ele>
        <time>2023-08-06T12:53:53Z</time>
      </trkpt>
      <trkpt lat="50.06883" lon="3.4723">
        <ele>110.2</ele>
        <time>2023-08-06T12:53:54Z</time>
      </trkpt>
      <trkpt lat="50.06878" lon="3.47224">
        <ele>110.2</ele>
        <time>2023-08-06T12:53:56Z</time>
      </trkpt>
      <trkpt lat="50.06878" lon="3.47224">
        <ele>110.2</ele>
        <time>2023-08-06T12:53:57Z</time>
      </trkpt>
      <trkpt lat="50.06873" lon="3.47219">
        <ele>110.2</ele>
        <time>2023-08-06T12:53:58Z</time>
      </trkpt>
      <trkpt lat="50.06871" lon="3.47217">
        <ele>110.2</ele>
        <time>2023-08-06T12:53:59Z</time>
      </trkpt>
      <trkpt lat="50.06868" lon="3.47214">
        <ele>110.2</ele>
        <time>2023-08-06T12:54:00Z</time>
      </trkpt>
      <trkpt lat="50.06863" lon="3.47209">
        <ele>110.2</ele>
        <time>2023-08-06T12:54:02Z</time>
      </trkpt>
      <trkpt lat="50.06861" lon="3.47207">
        <ele>110.2</ele>
        <time>2023-08-06T12:54:03Z</time>
      </trkpt>
      <trkpt lat="50.06859" lon="3.47205">
        <ele>110.2</ele>
        <time>2023-08-06T12:54:04Z</time>
      </trkpt>
      <trkpt lat="50.06856" lon="3.47204">
        <ele>110.4</ele>
        <time>2023-08-06T12:54:05Z</time>
      </trkpt>
      <trkpt lat="50.06853" lon="3.47203">
        <ele>110.6</ele>
        <time>2023-08-06T12:54:06Z</time>
      </trkpt>
      <trkpt lat="50.06851" lon="3.47202">
        <ele>110.6</ele>
        <time>2023-08-06T12:54:07Z</time>
      </trkpt>
      <trkpt lat="50.06848" lon="3.47201">
        <ele>110.8</ele>
        <time>2023-08-06T12:54:08Z</time>
      </trkpt>
      <trkpt lat="50.06842" lon="3.472">
        <ele>111</ele>
        <time>2023-08-06T12:54:10Z</time>
      </trkpt>
      <trkpt lat="50.0684" lon="3.472">
        <ele>111.2</ele>
        <time>2023-08-06T12:54:11Z</time>
      </trkpt>
      <trkpt lat="50.06833" lon="3.47199">
        <ele>111.6</ele>
        <time>2023-08-06T12:54:13Z</time>
      </trkpt>
      <trkpt lat="50.06819" lon="3.47199">
        <ele>112.6</ele>
        <time>2023-08-06T12:54:18Z</time>
      </trkpt>
      <trkpt lat="50.06816" lon="3.472">
        <ele>112.8</ele>
        <time>2023-08-06T12:54:19Z</time>
      </trkpt>
      <trkpt lat="50.06801" lon="3.47208">
        <ele>113.4</ele>
        <time>2023-08-06T12:54:24Z</time>
      </trkpt>
      <trkpt lat="50.06797" lon="3.47211">
        <ele>113.4</ele>
        <time>2023-08-06T12:54:25Z</time>
      </trkpt>
      <trkpt lat="50.06794" lon="3.47213">
        <ele>113.6</ele>
        <time>2023-08-06T12:54:26Z</time>
      </trkpt>
      <trkpt lat="50.06791" lon="3.47215">
        <ele>113.6</ele>
        <time>2023-08-06T12:54:27Z</time>
      </trkpt>
      <trkpt lat="50.06788" lon="3.47217">
        <ele>113.6</ele>
        <time>2023-08-06T12:54:28Z</time>
      </trkpt>
      <trkpt lat="50.06784" lon="3.47219">
        <ele>113.8</ele>
        <time>2023-08-06T12:54:29Z</time>
      </trkpt>
      <trkpt lat="50.0678" lon="3.4722">
        <ele>113.8</ele>
        <time>2023-08-06T12:54:30Z</time>
      </trkpt>
      <trkpt lat="50.06777" lon="3.47221">
        <ele>113.8</ele>
        <time>2023-08-06T12:54:31Z</time>
      </trkpt>
      <trkpt lat="50.06773" lon="3.47222">
        <ele>113.8</ele>
        <time>2023-08-06T12:54:32Z</time>
      </trkpt>
      <trkpt lat="50.0677" lon="3.47222">
        <ele>114</ele>
        <time>2023-08-06T12:54:33Z</time>
      </trkpt>
      <trkpt lat="50.06766" lon="3.47222">
        <ele>114</ele>
        <time>2023-08-06T12:54:34Z</time>
      </trkpt>
      <trkpt lat="50.06762" lon="3.47222">
        <ele>114</ele>
        <time>2023-08-06T12:54:35Z</time>
      </trkpt>
      <trkpt lat="50.06758" lon="3.47222">
        <ele>114</ele>
        <time>2023-08-06T12:54:36Z</time>
      </trkpt>
      <trkpt lat="50.06755" lon="3.47222">
        <ele>114</ele>
        <time>2023-08-06T12:54:37Z</time>
      </trkpt>
      <trkpt lat="50.06751" lon="3.47222">
        <ele>114</ele>
        <time>2023-08-06T12:54:38Z</time>
      </trkpt>
      <trkpt lat="50.06743" lon="3.47223">
        <ele>114.2</ele>
        <time>2023-08-06T12:54:40Z</time>
      </trkpt>
      <trkpt lat="50.06735" lon="3.47227">
        <ele>114.2</ele>
        <time>2023-08-06T12:54:43Z</time>
      </trkpt>
      <trkpt lat="50.0673" lon="3.47236">
        <ele>114.2</ele>
        <time>2023-08-06T12:54:44Z</time>
      </trkpt>
      <trkpt lat="50.0672" lon="3.4727">
        <ele>114.4</ele>
        <time>2023-08-06T12:54:50Z</time>
      </trkpt>
      <trkpt lat="50.06715" lon="3.47286">
        <ele>114.4</ele>
        <time>2023-08-06T12:54:53Z</time>
      </trkpt>
      <trkpt lat="50.06714" lon="3.47291">
        <ele>114.4</ele>
        <time>2023-08-06T12:54:54Z</time>
      </trkpt>
      <trkpt lat="50.06712" lon="3.47297">
        <ele>114.4</ele>
        <time>2023-08-06T12:54:55Z</time>
      </trkpt>
      <trkpt lat="50.06711" lon="3.47302">
        <ele>114.6</ele>
        <time>2023-08-06T12:54:56Z</time>
      </trkpt>
      <trkpt lat="50.0671" lon="3.47307">
        <ele>114.6</ele>
        <time>2023-08-06T12:54:57Z</time>
      </trkpt>
      <trkpt lat="50.06709" lon="3.47312">
        <ele>114.6</ele>
        <time>2023-08-06T12:54:58Z</time>
      </trkpt>
      <trkpt lat="50.06708" lon="3.47317">
        <ele>114.6</ele>
        <time>2023-08-06T12:54:59Z</time>
      </trkpt>
      <trkpt lat="50.06707" lon="3.47321">
        <ele>114.8</ele>
        <time>2023-08-06T12:55:00Z</time>
      </trkpt>
      <trkpt lat="50.06705" lon="3.47325">
        <ele>114.8</ele>
        <time>2023-08-06T12:55:01Z</time>
      </trkpt>
      <trkpt lat="50.06704" lon="3.47329">
        <ele>114.8</ele>
        <time>2023-08-06T12:55:02Z</time>
      </trkpt>
      <trkpt lat="50.06703" lon="3.47333">
        <ele>115</ele>
        <time>2023-08-06T12:55:03Z</time>
      </trkpt>
      <trkpt lat="50.06701" lon="3.47337">
        <ele>115</ele>
        <time>2023-08-06T12:55:04Z</time>
      </trkpt>
      <trkpt lat="50.067" lon="3.47341">
        <ele>115.2</ele>
        <time>2023-08-06T12:55:05Z</time>
      </trkpt>
      <trkpt lat="50.067" lon="3.47341">
        <ele>115.2</ele>
        <time>2023-08-06T12:55:06Z</time>
      </trkpt>
      <trkpt lat="50.06696" lon="3.47348">
        <ele>115.4</ele>
        <time>2023-08-06T12:55:07Z</time>
      </trkpt>
      <trkpt lat="50.06695" lon="3.47352">
        <ele>115.6</ele>
        <time>2023-08-06T12:55:08Z</time>
      </trkpt>
      <trkpt lat="50.06693" lon="3.47356">
        <ele>115.6</ele>
        <time>2023-08-06T12:55:09Z</time>
      </trkpt>
      <trkpt lat="50.06691" lon="3.47359">
        <ele>115.8</ele>
        <time>2023-08-06T12:55:10Z</time>
      </trkpt>
      <trkpt lat="50.06681" lon="3.47376">
        <ele>117</ele>
        <time>2023-08-06T12:55:15Z</time>
      </trkpt>
      <trkpt lat="50.06672" lon="3.47391">
        <ele>118</ele>
        <time>2023-08-06T12:55:19Z</time>
      </trkpt>
      <trkpt lat="50.0667" lon="3.47395">
        <ele>118</ele>
        <time>2023-08-06T12:55:20Z</time>
      </trkpt>
      <trkpt lat="50.06668" lon="3.47398">
        <ele>118.2</ele>
        <time>2023-08-06T12:55:21Z</time>
      </trkpt>
      <trkpt lat="50.06666" lon="3.47401">
        <ele>118.4</ele>
        <time>2023-08-06T12:55:22Z</time>
      </trkpt>
      <trkpt lat="50.06664" lon="3.47404">
        <ele>118.6</ele>
        <time>2023-08-06T12:55:23Z</time>
      </trkpt>
      <trkpt lat="50.06661" lon="3.47407">
        <ele>118.8</ele>
        <time>2023-08-06T12:55:24Z</time>
      </trkpt>
      <trkpt lat="50.06659" lon="3.4741">
        <ele>119</ele>
        <time>2023-08-06T12:55:25Z</time>
      </trkpt>
      <trkpt lat="50.06657" lon="3.47413">
        <ele>119.4</ele>
        <time>2023-08-06T12:55:26Z</time>
      </trkpt>
      <trkpt lat="50.06654" lon="3.47415">
        <ele>119.6</ele>
        <time>2023-08-06T12:55:27Z</time>
      </trkpt>
      <trkpt lat="50.06652" lon="3.47417">
        <ele>119.6</ele>
        <time>2023-08-06T12:55:28Z</time>
      </trkpt>
      <trkpt lat="50.06652" lon="3.47417">
        <ele>119.8</ele>
        <time>2023-08-06T12:55:29Z</time>
      </trkpt>
      <trkpt lat="50.06646" lon="3.47421">
        <ele>119.8</ele>
        <time>2023-08-06T12:55:30Z</time>
      </trkpt>
      <trkpt lat="50.06643" lon="3.47423">
        <ele>120</ele>
        <time>2023-08-06T12:55:31Z</time>
      </trkpt>
      <trkpt lat="50.0664" lon="3.47425">
        <ele>120</ele>
        <time>2023-08-06T12:55:32Z</time>
      </trkpt>
      <trkpt lat="50.06638" lon="3.47427">
        <ele>120</ele>
        <time>2023-08-06T12:55:33Z</time>
      </trkpt>
      <trkpt lat="50.06635" lon="3.47429">
        <ele>120.2</ele>
        <time>2023-08-06T12:55:34Z</time>
      </trkpt>
      <trkpt lat="50.06632" lon="3.47431">
        <ele>120.4</ele>
        <time>2023-08-06T12:55:35Z</time>
      </trkpt>
      <trkpt lat="50.06629" lon="3.47434">
        <ele>120.4</ele>
        <time>2023-08-06T12:55:36Z</time>
      </trkpt>
      <trkpt lat="50.06625" lon="3.47437">
        <ele>120.8</ele>
        <time>2023-08-06T12:55:37Z</time>
      </trkpt>
      <trkpt lat="50.06622" lon="3.4744">
        <ele>121</ele>
        <time>2023-08-06T12:55:38Z</time>
      </trkpt>
      <trkpt lat="50.06619" lon="3.47443">
        <ele>121.2</ele>
        <time>2023-08-06T12:55:39Z</time>
      </trkpt>
      <trkpt lat="50.06615" lon="3.47446">
        <ele>121.2</ele>
        <time>2023-08-06T12:55:40Z</time>
      </trkpt>
      <trkpt lat="50.06611" lon="3.4745">
        <ele>121.4</ele>
        <time>2023-08-06T12:55:41Z</time>
      </trkpt>
      <trkpt lat="50.06608" lon="3.47454">
        <ele>121.4</ele>
        <time>2023-08-06T12:55:42Z</time>
      </trkpt>
      <trkpt lat="50.06604" lon="3.47459">
        <ele>121.4</ele>
        <time>2023-08-06T12:55:43Z</time>
      </trkpt>
      <trkpt lat="50.06599" lon="3.47463">
        <ele>121.4</ele>
        <time>2023-08-06T12:55:44Z</time>
      </trkpt>
      <trkpt lat="50.06595" lon="3.47468">
        <ele>121.4</ele>
        <time>2023-08-06T12:55:45Z</time>
      </trkpt>
      <trkpt lat="50.0659" lon="3.47473">
        <ele>121.2</ele>
        <time>2023-08-06T12:55:46Z</time>
      </trkpt>
      <trkpt lat="50.06584" lon="3.47478">
        <ele>121.2</ele>
        <time>2023-08-06T12:55:47Z</time>
      </trkpt>
      <trkpt lat="50.06579" lon="3.47484">
        <ele>121</ele>
        <time>2023-08-06T12:55:48Z</time>
      </trkpt>
      <trkpt lat="50.06579" lon="3.47484">
        <ele>120.8</ele>
        <time>2023-08-06T12:55:49Z</time>
      </trkpt>
      <trkpt lat="50.06568" lon="3.47497">
        <ele>120.6</ele>
        <time>2023-08-06T12:55:50Z</time>
      </trkpt>
      <trkpt lat="50.06563" lon="3.47502">
        <ele>120.2</ele>
        <time>2023-08-06T12:55:51Z</time>
      </trkpt>
      <trkpt lat="50.06536" lon="3.47531">
        <ele>119.4</ele>
        <time>2023-08-06T12:55:55Z</time>
      </trkpt>
      <trkpt lat="50.06515" lon="3.47554">
        <ele>118.4</ele>
        <time>2023-08-06T12:55:58Z</time>
      </trkpt>
      <trkpt lat="50.065" lon="3.4757">
        <ele>117.4</ele>
        <time>2023-08-06T12:56:01Z</time>
      </trkpt>
      <trkpt lat="50.06484" lon="3.47586">
        <ele>117.2</ele>
        <time>2023-08-06T12:56:02Z</time>
      </trkpt>
      <trkpt lat="50.0646" lon="3.47613">
        <ele>115.6</ele>
        <time>2023-08-06T12:56:05Z</time>
      </trkpt>
      <trkpt lat="50.06436" lon="3.47637">
        <ele>114.6</ele>
        <time>2023-08-06T12:56:08Z</time>
      </trkpt>
      <trkpt lat="50.06428" lon="3.47646">
        <ele>114.2</ele>
        <time>2023-08-06T12:56:09Z</time>
      </trkpt>
      <trkpt lat="50.0641" lon="3.47664">
        <ele>113.2</ele>
        <time>2023-08-06T12:56:11Z</time>
      </trkpt>
      <trkpt lat="50.06384" lon="3.47692">
        <ele>111.6</ele>
        <time>2023-08-06T12:56:14Z</time>
      </trkpt>
      <trkpt lat="50.06366" lon="3.47711">
        <ele>110.4</ele>
        <time>2023-08-06T12:56:16Z</time>
      </trkpt>
      <trkpt lat="50.0634" lon="3.47739">
        <ele>109.2</ele>
        <time>2023-08-06T12:56:19Z</time>
      </trkpt>
      <trkpt lat="50.06324" lon="3.47758">
        <ele>108</ele>
        <time>2023-08-06T12:56:21Z</time>
      </trkpt>
      <trkpt lat="50.06307" lon="3.47775">
        <ele>107</ele>
        <time>2023-08-06T12:56:23Z</time>
      </trkpt>
      <trkpt lat="50.06299" lon="3.47784">
        <ele>106.8</ele>
        <time>2023-08-06T12:56:24Z</time>
      </trkpt>
      <trkpt lat="50.06292" lon="3.47792">
        <ele>106.4</ele>
        <time>2023-08-06T12:56:25Z</time>
      </trkpt>
      <trkpt lat="50.06285" lon="3.47801">
        <ele>106.2</ele>
        <time>2023-08-06T12:56:26Z</time>
      </trkpt>
      <trkpt lat="50.0628" lon="3.47811">
        <ele>105.8</ele>
        <time>2023-08-06T12:56:27Z</time>
      </trkpt>
      <trkpt lat="50.06275" lon="3.47821">
        <ele>105.4</ele>
        <time>2023-08-06T12:56:28Z</time>
      </trkpt>
      <trkpt lat="50.0627" lon="3.4783">
        <ele>105.2</ele>
        <time>2023-08-06T12:56:29Z</time>
      </trkpt>
      <trkpt lat="50.06266" lon="3.47838">
        <ele>105</ele>
        <time>2023-08-06T12:56:30Z</time>
      </trkpt>
      <trkpt lat="50.06262" lon="3.47844">
        <ele>104.8</ele>
        <time>2023-08-06T12:56:31Z</time>
      </trkpt>
      <trkpt lat="50.06258" lon="3.47849">
        <ele>104.8</ele>
        <time>2023-08-06T12:56:32Z</time>
      </trkpt>
      <trkpt lat="50.06254" lon="3.47851">
        <ele>104.6</ele>
        <time>2023-08-06T12:56:33Z</time>
      </trkpt>
      <trkpt lat="50.06251" lon="3.4785">
        <ele>104.6</ele>
        <time>2023-08-06T12:56:34Z</time>
      </trkpt>
      <trkpt lat="50.06247" lon="3.47848">
        <ele>104.4</ele>
        <time>2023-08-06T12:56:35Z</time>
      </trkpt>
      <trkpt lat="50.06244" lon="3.47845">
        <ele>104.2</ele>
        <time>2023-08-06T12:56:36Z</time>
      </trkpt>
      <trkpt lat="50.06237" lon="3.47837">
        <ele>104.2</ele>
        <time>2023-08-06T12:56:38Z</time>
      </trkpt>
      <trkpt lat="50.06233" lon="3.47832">
        <ele>104</ele>
        <time>2023-08-06T12:56:39Z</time>
      </trkpt>
      <trkpt lat="50.06229" lon="3.47827">
        <ele>104</ele>
        <time>2023-08-06T12:56:40Z</time>
      </trkpt>
      <trkpt lat="50.06217" lon="3.47813">
        <ele>103.8</ele>
        <time>2023-08-06T12:56:43Z</time>
      </trkpt>
      <trkpt lat="50.06212" lon="3.47809">
        <ele>103.6</ele>
        <time>2023-08-06T12:56:44Z</time>
      </trkpt>
      <trkpt lat="50.06207" lon="3.47805">
        <ele>103.4</ele>
        <time>2023-08-06T12:56:45Z</time>
      </trkpt>
      <trkpt lat="50.06197" lon="3.47795">
        <ele>103.4</ele>
        <time>2023-08-06T12:56:47Z</time>
      </trkpt>
      <trkpt lat="50.06192" lon="3.47791">
        <ele>103.2</ele>
        <time>2023-08-06T12:56:48Z</time>
      </trkpt>
      <trkpt lat="50.06188" lon="3.47787">
        <ele>103.2</ele>
        <time>2023-08-06T12:56:49Z</time>
      </trkpt>
      <trkpt lat="50.06184" lon="3.47784">
        <ele>103.2</ele>
        <time>2023-08-06T12:56:50Z</time>
      </trkpt>
      <trkpt lat="50.06175" lon="3.47778">
        <ele>103.4</ele>
        <time>2023-08-06T12:56:52Z</time>
      </trkpt>
      <trkpt lat="50.06163" lon="3.47773">
        <ele>103.8</ele>
        <time>2023-08-06T12:56:55Z</time>
      </trkpt>
      <trkpt lat="50.06158" lon="3.47772">
        <ele>103.8</ele>
        <time>2023-08-06T12:56:56Z</time>
      </trkpt>
      <trkpt lat="50.06155" lon="3.47772">
        <ele>103.8</ele>
        <time>2023-08-06T12:56:57Z</time>
      </trkpt>
      <trkpt lat="50.0615" lon="3.47774">
        <ele>103.8</ele>
        <time>2023-08-06T12:56:58Z</time>
      </trkpt>
      <trkpt lat="50.06146" lon="3.47776">
        <ele>104</ele>
        <time>2023-08-06T12:56:59Z</time>
      </trkpt>
      <trkpt lat="50.06142" lon="3.47778">
        <ele>104</ele>
        <time>2023-08-06T12:57:00Z</time>
      </trkpt>
      <trkpt lat="50.06138" lon="3.4778">
        <ele>104.2</ele>
        <time>2023-08-06T12:57:01Z</time>
      </trkpt>
      <trkpt lat="50.06135" lon="3.47782">
        <ele>104.2</ele>
        <time>2023-08-06T12:57:02Z</time>
      </trkpt>
      <trkpt lat="50.06132" lon="3.47783">
        <ele>104.2</ele>
        <time>2023-08-06T12:57:03Z</time>
      </trkpt>
      <trkpt lat="50.06128" lon="3.47784">
        <ele>104.4</ele>
        <time>2023-08-06T12:57:04Z</time>
      </trkpt>
      <trkpt lat="50.06125" lon="3.47786">
        <ele>104.4</ele>
        <time>2023-08-06T12:57:05Z</time>
      </trkpt>
      <trkpt lat="50.06122" lon="3.47787">
        <ele>104.4</ele>
        <time>2023-08-06T12:57:06Z</time>
      </trkpt>
      <trkpt lat="50.06119" lon="3.47789">
        <ele>104.6</ele>
        <time>2023-08-06T12:57:07Z</time>
      </trkpt>
      <trkpt lat="50.06116" lon="3.4779">
        <ele>104.8</ele>
        <time>2023-08-06T12:57:08Z</time>
      </trkpt>
      <trkpt lat="50.06113" lon="3.47791">
        <ele>104.8</ele>
        <time>2023-08-06T12:57:09Z</time>
      </trkpt>
      <trkpt lat="50.06111" lon="3.47792">
        <ele>104.8</ele>
        <time>2023-08-06T12:57:10Z</time>
      </trkpt>
      <trkpt lat="50.06108" lon="3.47793">
        <ele>104.8</ele>
        <time>2023-08-06T12:57:11Z</time>
      </trkpt>
      <trkpt lat="50.06105" lon="3.47794">
        <ele>104.8</ele>
        <time>2023-08-06T12:57:12Z</time>
      </trkpt>
      <trkpt lat="50.06102" lon="3.47796">
        <ele>105</ele>
        <time>2023-08-06T12:57:13Z</time>
      </trkpt>
      <trkpt lat="50.06099" lon="3.47797">
        <ele>105</ele>
        <time>2023-08-06T12:57:14Z</time>
      </trkpt>
      <trkpt lat="50.06096" lon="3.47798">
        <ele>105</ele>
        <time>2023-08-06T12:57:15Z</time>
      </trkpt>
      <trkpt lat="50.06093" lon="3.47799">
        <ele>105</ele>
        <time>2023-08-06T12:57:16Z</time>
      </trkpt>
      <trkpt lat="50.0609" lon="3.478">
        <ele>105.2</ele>
        <time>2023-08-06T12:57:17Z</time>
      </trkpt>
      <trkpt lat="50.06087" lon="3.47802">
        <ele>105.2</ele>
        <time>2023-08-06T12:57:18Z</time>
      </trkpt>
      <trkpt lat="50.06084" lon="3.47803">
        <ele>105.2</ele>
        <time>2023-08-06T12:57:19Z</time>
      </trkpt>
      <trkpt lat="50.06081" lon="3.47804">
        <ele>105.4</ele>
        <time>2023-08-06T12:57:20Z</time>
      </trkpt>
      <trkpt lat="50.06073" lon="3.47808">
        <ele>105.8</ele>
        <time>2023-08-06T12:57:23Z</time>
      </trkpt>
      <trkpt lat="50.06063" lon="3.47814">
        <ele>106</ele>
        <time>2023-08-06T12:57:27Z</time>
      </trkpt>
      <trkpt lat="50.06058" lon="3.47816">
        <ele>106.4</ele>
        <time>2023-08-06T12:57:29Z</time>
      </trkpt>
      <trkpt lat="50.06055" lon="3.47818">
        <ele>106.4</ele>
        <time>2023-08-06T12:57:30Z</time>
      </trkpt>
      <trkpt lat="50.06053" lon="3.47819">
        <ele>106.4</ele>
        <time>2023-08-06T12:57:31Z</time>
      </trkpt>
      <trkpt lat="50.0605" lon="3.4782">
        <ele>106.4</ele>
        <time>2023-08-06T12:57:32Z</time>
      </trkpt>
      <trkpt lat="50.06048" lon="3.47822">
        <ele>106.2</ele>
        <time>2023-08-06T12:57:33Z</time>
      </trkpt>
      <trkpt lat="50.06042" lon="3.47824">
        <ele>106.4</ele>
        <time>2023-08-06T12:57:35Z</time>
      </trkpt>
      <trkpt lat="50.0604" lon="3.47825">
        <ele>106.6</ele>
        <time>2023-08-06T12:57:36Z</time>
      </trkpt>
      <trkpt lat="50.06022" lon="3.47835">
        <ele>107.6</ele>
        <time>2023-08-06T12:57:43Z</time>
      </trkpt>
      <trkpt lat="50.0602" lon="3.47837">
        <ele>107.8</ele>
        <time>2023-08-06T12:57:44Z</time>
      </trkpt>
      <trkpt lat="50.06004" lon="3.47851">
        <ele>108</ele>
        <time>2023-08-06T12:57:51Z</time>
      </trkpt>
      <trkpt lat="50.06004" lon="3.47851">
        <ele>108.2</ele>
        <time>2023-08-06T12:57:52Z</time>
      </trkpt>
      <trkpt lat="50.06" lon="3.47855">
        <ele>108.2</ele>
        <time>2023-08-06T12:57:53Z</time>
      </trkpt>
      <trkpt lat="50.05998" lon="3.47857">
        <ele>108.2</ele>
        <time>2023-08-06T12:57:54Z</time>
      </trkpt>
      <trkpt lat="50.05996" lon="3.4786">
        <ele>108.2</ele>
        <time>2023-08-06T12:57:55Z</time>
      </trkpt>
      <trkpt lat="50.05994" lon="3.47862">
        <ele>108.2</ele>
        <time>2023-08-06T12:57:56Z</time>
      </trkpt>
      <trkpt lat="50.05988" lon="3.47869">
        <ele>108.4</ele>
        <time>2023-08-06T12:57:59Z</time>
      </trkpt>
      <trkpt lat="50.05982" lon="3.47876">
        <ele>108.6</ele>
        <time>2023-08-06T12:58:02Z</time>
      </trkpt>
      <trkpt lat="50.0598" lon="3.47878">
        <ele>108.6</ele>
        <time>2023-08-06T12:58:03Z</time>
      </trkpt>
      <trkpt lat="50.05976" lon="3.47882">
        <ele>108.6</ele>
        <time>2023-08-06T12:58:05Z</time>
      </trkpt>
      <trkpt lat="50.05973" lon="3.47887">
        <ele>108.6</ele>
        <time>2023-08-06T12:58:07Z</time>
      </trkpt>
      <trkpt lat="50.05971" lon="3.47889">
        <ele>108.8</ele>
        <time>2023-08-06T12:58:08Z</time>
      </trkpt>
      <trkpt lat="50.05965" lon="3.47895">
        <ele>109</ele>
        <time>2023-08-06T12:58:11Z</time>
      </trkpt>
      <trkpt lat="50.05964" lon="3.47898">
        <ele>109.2</ele>
        <time>2023-08-06T12:58:12Z</time>
      </trkpt>
      <trkpt lat="50.05962" lon="3.479">
        <ele>109.4</ele>
        <time>2023-08-06T12:58:13Z</time>
      </trkpt>
      <trkpt lat="50.0596" lon="3.47902">
        <ele>109.4</ele>
        <time>2023-08-06T12:58:14Z</time>
      </trkpt>
      <trkpt lat="50.05956" lon="3.47906">
        <ele>109.8</ele>
        <time>2023-08-06T12:58:16Z</time>
      </trkpt>
      <trkpt lat="50.05951" lon="3.47912">
        <ele>110.4</ele>
        <time>2023-08-06T12:58:19Z</time>
      </trkpt>
      <trkpt lat="50.05937" lon="3.47925">
        <ele>111</ele>
        <time>2023-08-06T12:58:26Z</time>
      </trkpt>
      <trkpt lat="50.05931" lon="3.47929">
        <ele>111.6</ele>
        <time>2023-08-06T12:58:29Z</time>
      </trkpt>
      <trkpt lat="50.05929" lon="3.47931">
        <ele>111.6</ele>
        <time>2023-08-06T12:58:30Z</time>
      </trkpt>
      <trkpt lat="50.05928" lon="3.47933">
        <ele>111.8</ele>
        <time>2023-08-06T12:58:31Z</time>
      </trkpt>
      <trkpt lat="50.05926" lon="3.47935">
        <ele>111.8</ele>
        <time>2023-08-06T12:58:32Z</time>
      </trkpt>
      <trkpt lat="50.05924" lon="3.47936">
        <ele>112</ele>
        <time>2023-08-06T12:58:33Z</time>
      </trkpt>
      <trkpt lat="50.05922" lon="3.47938">
        <ele>112</ele>
        <time>2023-08-06T12:58:34Z</time>
      </trkpt>
      <trkpt lat="50.05922" lon="3.47938">
        <ele>112</ele>
        <time>2023-08-06T12:58:35Z</time>
      </trkpt>
      <trkpt lat="50.05919" lon="3.47941">
        <ele>112.2</ele>
        <time>2023-08-06T12:58:36Z</time>
      </trkpt>
      <trkpt lat="50.05917" lon="3.47943">
        <ele>112.2</ele>
        <time>2023-08-06T12:58:37Z</time>
      </trkpt>
      <trkpt lat="50.05915" lon="3.47945">
        <ele>112.2</ele>
        <time>2023-08-06T12:58:38Z</time>
      </trkpt>
      <trkpt lat="50.05914" lon="3.47946">
        <ele>112.4</ele>
        <time>2023-08-06T12:58:39Z</time>
      </trkpt>
      <trkpt lat="50.05912" lon="3.47948">
        <ele>112.6</ele>
        <time>2023-08-06T12:58:40Z</time>
      </trkpt>
      <trkpt lat="50.05911" lon="3.4795">
        <ele>112.6</ele>
        <time>2023-08-06T12:58:41Z</time>
      </trkpt>
      <trkpt lat="50.05909" lon="3.47952">
        <ele>112.8</ele>
        <time>2023-08-06T12:58:42Z</time>
      </trkpt>
      <trkpt lat="50.05908" lon="3.47954">
        <ele>112.8</ele>
        <time>2023-08-06T12:58:43Z</time>
      </trkpt>
      <trkpt lat="50.05906" lon="3.47956">
        <ele>113</ele>
        <time>2023-08-06T12:58:44Z</time>
      </trkpt>
      <trkpt lat="50.05905" lon="3.47958">
        <ele>112.8</ele>
        <time>2023-08-06T12:58:45Z</time>
      </trkpt>
      <trkpt lat="50.05904" lon="3.4796">
        <ele>113.2</ele>
        <time>2023-08-06T12:58:46Z</time>
      </trkpt>
      <trkpt lat="50.05903" lon="3.47963">
        <ele>113.2</ele>
        <time>2023-08-06T12:58:47Z</time>
      </trkpt>
      <trkpt lat="50.05901" lon="3.47965">
        <ele>113.2</ele>
        <time>2023-08-06T12:58:48Z</time>
      </trkpt>
      <trkpt lat="50.059" lon="3.47968">
        <ele>113.4</ele>
        <time>2023-08-06T12:58:49Z</time>
      </trkpt>
      <trkpt lat="50.05898" lon="3.4797">
        <ele>113.2</ele>
        <time>2023-08-06T12:58:50Z</time>
      </trkpt>
      <trkpt lat="50.05897" lon="3.47973">
        <ele>113.4</ele>
        <time>2023-08-06T12:58:51Z</time>
      </trkpt>
      <trkpt lat="50.05896" lon="3.47976">
        <ele>113.4</ele>
        <time>2023-08-06T12:58:52Z</time>
      </trkpt>
      <trkpt lat="50.05894" lon="3.47978">
        <ele>113.8</ele>
        <time>2023-08-06T12:58:53Z</time>
      </trkpt>
      <trkpt lat="50.05893" lon="3.47981">
        <ele>113.8</ele>
        <time>2023-08-06T12:58:54Z</time>
      </trkpt>
      <trkpt lat="50.05891" lon="3.47984">
        <ele>113.8</ele>
        <time>2023-08-06T12:58:55Z</time>
      </trkpt>
      <trkpt lat="50.05886" lon="3.47993">
        <ele>114</ele>
        <time>2023-08-06T12:58:58Z</time>
      </trkpt>
      <trkpt lat="50.05875" lon="3.48015">
        <ele>114.4</ele>
        <time>2023-08-06T12:59:04Z</time>
      </trkpt>
      <trkpt lat="50.05859" lon="3.48043">
        <ele>114.2</ele>
        <time>2023-08-06T12:59:09Z</time>
      </trkpt>
      <trkpt lat="50.05833" lon="3.48082">
        <ele>113.2</ele>
        <time>2023-08-06T12:59:15Z</time>
      </trkpt>
      <trkpt lat="50.05828" lon="3.48089">
        <ele>113.2</ele>
        <time>2023-08-06T12:59:16Z</time>
      </trkpt>
      <trkpt lat="50.05817" lon="3.48104">
        <ele>112.4</ele>
        <time>2023-08-06T12:59:18Z</time>
      </trkpt>
      <trkpt lat="50.05806" lon="3.48119">
        <ele>112</ele>
        <time>2023-08-06T12:59:20Z</time>
      </trkpt>
      <trkpt lat="50.05794" lon="3.48134">
        <ele>111.4</ele>
        <time>2023-08-06T12:59:22Z</time>
      </trkpt>
      <trkpt lat="50.05788" lon="3.48142">
        <ele>110.8</ele>
        <time>2023-08-06T12:59:23Z</time>
      </trkpt>
      <trkpt lat="50.05776" lon="3.48156">
        <ele>110</ele>
        <time>2023-08-06T12:59:25Z</time>
      </trkpt>
      <trkpt lat="50.0577" lon="3.48163">
        <ele>110</ele>
        <time>2023-08-06T12:59:27Z</time>
      </trkpt>
      <trkpt lat="50.05733" lon="3.48203">
        <ele>108.8</ele>
        <time>2023-08-06T12:59:32Z</time>
      </trkpt>
      <trkpt lat="50.05727" lon="3.48209">
        <ele>108.4</ele>
        <time>2023-08-06T12:59:33Z</time>
      </trkpt>
      <trkpt lat="50.05721" lon="3.48214">
        <ele>108</ele>
        <time>2023-08-06T12:59:34Z</time>
      </trkpt>
      <trkpt lat="50.05714" lon="3.4822">
        <ele>107.8</ele>
        <time>2023-08-06T12:59:35Z</time>
      </trkpt>
      <trkpt lat="50.05709" lon="3.48224">
        <ele>107.8</ele>
        <time>2023-08-06T12:59:36Z</time>
      </trkpt>
      <trkpt lat="50.05702" lon="3.48231">
        <ele>107.8</ele>
        <time>2023-08-06T12:59:37Z</time>
      </trkpt>
      <trkpt lat="50.05696" lon="3.48236">
        <ele>107.6</ele>
        <time>2023-08-06T12:59:38Z</time>
      </trkpt>
      <trkpt lat="50.05672" lon="3.48256">
        <ele>107.6</ele>
        <time>2023-08-06T12:59:42Z</time>
      </trkpt>
      <trkpt lat="50.05667" lon="3.48259">
        <ele>107.4</ele>
        <time>2023-08-06T12:59:43Z</time>
      </trkpt>
      <trkpt lat="50.05667" lon="3.48259">
        <ele>107.2</ele>
        <time>2023-08-06T12:59:44Z</time>
      </trkpt>
      <trkpt lat="50.05657" lon="3.48262">
        <ele>107</ele>
        <time>2023-08-06T12:59:45Z</time>
      </trkpt>
      <trkpt lat="50.05651" lon="3.48262">
        <ele>107</ele>
        <time>2023-08-06T12:59:46Z</time>
      </trkpt>
      <trkpt lat="50.05646" lon="3.48261">
        <ele>107</ele>
        <time>2023-08-06T12:59:47Z</time>
      </trkpt>
      <trkpt lat="50.05641" lon="3.48259">
        <ele>107</ele>
        <time>2023-08-06T12:59:48Z</time>
      </trkpt>
      <trkpt lat="50.05637" lon="3.48258">
        <ele>107</ele>
        <time>2023-08-06T12:59:49Z</time>
      </trkpt>
      <trkpt lat="50.05633" lon="3.48257">
        <ele>106.8</ele>
        <time>2023-08-06T12:59:50Z</time>
      </trkpt>
      <trkpt lat="50.05628" lon="3.48256">
        <ele>106.8</ele>
        <time>2023-08-06T12:59:51Z</time>
      </trkpt>
      <trkpt lat="50.05624" lon="3.48255">
        <ele>106.6</ele>
        <time>2023-08-06T12:59:52Z</time>
      </trkpt>
      <trkpt lat="50.0562" lon="3.48253">
        <ele>106.6</ele>
        <time>2023-08-06T12:59:53Z</time>
      </trkpt>
      <trkpt lat="50.05617" lon="3.48252">
        <ele>106.6</ele>
        <time>2023-08-06T12:59:54Z</time>
      </trkpt>
      <trkpt lat="50.05613" lon="3.48251">
        <ele>106.6</ele>
        <time>2023-08-06T12:59:55Z</time>
      </trkpt>
      <trkpt lat="50.05609" lon="3.4825">
        <ele>106.6</ele>
        <time>2023-08-06T12:59:56Z</time>
      </trkpt>
      <trkpt lat="50.05605" lon="3.48249">
        <ele>106.6</ele>
        <time>2023-08-06T12:59:57Z</time>
      </trkpt>
      <trkpt lat="50.05603" lon="3.48248">
        <ele>106.6</ele>
        <time>2023-08-06T12:59:58Z</time>
      </trkpt>
      <trkpt lat="50.056" lon="3.48247">
        <ele>106.6</ele>
        <time>2023-08-06T12:59:59Z</time>
      </trkpt>
      <trkpt lat="50.05592" lon="3.48245">
        <ele>106.8</ele>
        <time>2023-08-06T13:00:01Z</time>
      </trkpt>
      <trkpt lat="50.05561" lon="3.48235">
        <ele>107.2</ele>
        <time>2023-08-06T13:00:10Z</time>
      </trkpt>
      <trkpt lat="50.05529" lon="3.48228">
        <ele>107.4</ele>
        <time>2023-08-06T13:00:19Z</time>
      </trkpt>
      <trkpt lat="50.05522" lon="3.48225">
        <ele>107.6</ele>
        <time>2023-08-06T13:00:21Z</time>
      </trkpt>
      <trkpt lat="50.05508" lon="3.48221">
        <ele>107.8</ele>
        <time>2023-08-06T13:00:25Z</time>
      </trkpt>
      <trkpt lat="50.05505" lon="3.4822">
        <ele>107.8</ele>
        <time>2023-08-06T13:00:26Z</time>
      </trkpt>
      <trkpt lat="50.05457" lon="3.48212">
        <ele>107.8</ele>
        <time>2023-08-06T13:00:39Z</time>
      </trkpt>
      <trkpt lat="50.05421" lon="3.48206">
        <ele>107.8</ele>
        <time>2023-08-06T13:00:49Z</time>
      </trkpt>
      <trkpt lat="50.05387" lon="3.48201">
        <ele>108.2</ele>
        <time>2023-08-06T13:00:58Z</time>
      </trkpt>
      <trkpt lat="50.05356" lon="3.48195">
        <ele>108.4</ele>
        <time>2023-08-06T13:01:06Z</time>
      </trkpt>
      <trkpt lat="50.05339" lon="3.48192">
        <ele>108.4</ele>
        <time>2023-08-06T13:01:11Z</time>
      </trkpt>
      <trkpt lat="50.05335" lon="3.48191">
        <ele>108.4</ele>
        <time>2023-08-06T13:01:12Z</time>
      </trkpt>
      <trkpt lat="50.05331" lon="3.4819">
        <ele>108.6</ele>
        <time>2023-08-06T13:01:13Z</time>
      </trkpt>
      <trkpt lat="50.05328" lon="3.4819">
        <ele>108.8</ele>
        <time>2023-08-06T13:01:14Z</time>
      </trkpt>
      <trkpt lat="50.05324" lon="3.48189">
        <ele>108.8</ele>
        <time>2023-08-06T13:01:15Z</time>
      </trkpt>
      <trkpt lat="50.05321" lon="3.48188">
        <ele>108.8</ele>
        <time>2023-08-06T13:01:16Z</time>
      </trkpt>
      <trkpt lat="50.0531" lon="3.48185">
        <ele>109</ele>
        <time>2023-08-06T13:01:19Z</time>
      </trkpt>
      <trkpt lat="50.05306" lon="3.48185">
        <ele>109</ele>
        <time>2023-08-06T13:01:20Z</time>
      </trkpt>
      <trkpt lat="50.05303" lon="3.48184">
        <ele>109</ele>
        <time>2023-08-06T13:01:21Z</time>
      </trkpt>
      <trkpt lat="50.05261" lon="3.48176">
        <ele>109.2</ele>
        <time>2023-08-06T13:01:32Z</time>
      </trkpt>
      <trkpt lat="50.05223" lon="3.48169">
        <ele>109.2</ele>
        <time>2023-08-06T13:01:42Z</time>
      </trkpt>
      <trkpt lat="50.052" lon="3.48165">
        <ele>109.4</ele>
        <time>2023-08-06T13:01:48Z</time>
      </trkpt>
      <trkpt lat="50.05188" lon="3.48163">
        <ele>109.4</ele>
        <time>2023-08-06T13:01:51Z</time>
      </trkpt>
      <trkpt lat="50.05158" lon="3.48157">
        <ele>109.6</ele>
        <time>2023-08-06T13:01:59Z</time>
      </trkpt>
      <trkpt lat="50.0515" lon="3.48156">
        <ele>109.6</ele>
        <time>2023-08-06T13:02:01Z</time>
      </trkpt>
      <trkpt lat="50.05146" lon="3.48155">
        <ele>109.6</ele>
        <time>2023-08-06T13:02:02Z</time>
      </trkpt>
      <trkpt lat="50.05143" lon="3.48155">
        <ele>109.8</ele>
        <time>2023-08-06T13:02:03Z</time>
      </trkpt>
      <trkpt lat="50.05139" lon="3.48155">
        <ele>109.8</ele>
        <time>2023-08-06T13:02:04Z</time>
      </trkpt>
      <trkpt lat="50.05124" lon="3.48153">
        <ele>110</ele>
        <time>2023-08-06T13:02:09Z</time>
      </trkpt>
      <trkpt lat="50.05079" lon="3.48153">
        <ele>110.2</ele>
        <time>2023-08-06T13:02:19Z</time>
      </trkpt>
      <trkpt lat="50.05053" lon="3.48156">
        <ele>110.4</ele>
        <time>2023-08-06T13:02:25Z</time>
      </trkpt>
      <trkpt lat="50.05032" lon="3.4816">
        <ele>110.6</ele>
        <time>2023-08-06T13:02:30Z</time>
      </trkpt>
      <trkpt lat="50.0502" lon="3.48162">
        <ele>110.6</ele>
        <time>2023-08-06T13:02:33Z</time>
      </trkpt>
      <trkpt lat="50.04994" lon="3.48163">
        <ele>110.6</ele>
        <time>2023-08-06T13:02:39Z</time>
      </trkpt>
      <trkpt lat="50.04972" lon="3.48161">
        <ele>110.8</ele>
        <time>2023-08-06T13:02:44Z</time>
      </trkpt>
      <trkpt lat="50.04959" lon="3.48159">
        <ele>110.8</ele>
        <time>2023-08-06T13:02:47Z</time>
      </trkpt>
      <trkpt lat="50.04951" lon="3.48158">
        <ele>110.8</ele>
        <time>2023-08-06T13:02:49Z</time>
      </trkpt>
      <trkpt lat="50.04946" lon="3.48157">
        <ele>110.8</ele>
        <time>2023-08-06T13:02:50Z</time>
      </trkpt>
      <trkpt lat="50.04942" lon="3.48157">
        <ele>111</ele>
        <time>2023-08-06T13:02:51Z</time>
      </trkpt>
      <trkpt lat="50.04939" lon="3.48156">
        <ele>111</ele>
        <time>2023-08-06T13:02:52Z</time>
      </trkpt>
      <trkpt lat="50.04935" lon="3.48154">
        <ele>110.8</ele>
        <time>2023-08-06T13:02:53Z</time>
      </trkpt>
      <trkpt lat="50.0493" lon="3.48153">
        <ele>110.8</ele>
        <time>2023-08-06T13:02:54Z</time>
      </trkpt>
      <trkpt lat="50.04913" lon="3.48147">
        <ele>110.8</ele>
        <time>2023-08-06T13:02:58Z</time>
      </trkpt>
      <trkpt lat="50.0488" lon="3.48134">
        <ele>111</ele>
        <time>2023-08-06T13:03:06Z</time>
      </trkpt>
      <trkpt lat="50.04876" lon="3.48132">
        <ele>111</ele>
        <time>2023-08-06T13:03:07Z</time>
      </trkpt>
      <trkpt lat="50.04872" lon="3.48129">
        <ele>111</ele>
        <time>2023-08-06T13:03:08Z</time>
      </trkpt>
      <trkpt lat="50.04868" lon="3.48127">
        <ele>111</ele>
        <time>2023-08-06T13:03:09Z</time>
      </trkpt>
      <trkpt lat="50.04864" lon="3.48125">
        <ele>111</ele>
        <time>2023-08-06T13:03:10Z</time>
      </trkpt>
      <trkpt lat="50.04861" lon="3.48124">
        <ele>111</ele>
        <time>2023-08-06T13:03:11Z</time>
      </trkpt>
      <trkpt lat="50.04857" lon="3.48122">
        <ele>111</ele>
        <time>2023-08-06T13:03:12Z</time>
      </trkpt>
      <trkpt lat="50.04848" lon="3.48118">
        <ele>111</ele>
        <time>2023-08-06T13:03:14Z</time>
      </trkpt>
      <trkpt lat="50.04817" lon="3.48103">
        <ele>111</ele>
        <time>2023-08-06T13:03:22Z</time>
      </trkpt>
      <trkpt lat="50.04801" lon="3.48096">
        <ele>111</ele>
        <time>2023-08-06T13:03:26Z</time>
      </trkpt>
      <trkpt lat="50.04781" lon="3.48089">
        <ele>111.4</ele>
        <time>2023-08-06T13:03:31Z</time>
      </trkpt>
      <trkpt lat="50.04754" lon="3.48079">
        <ele>111.6</ele>
        <time>2023-08-06T13:03:37Z</time>
      </trkpt>
      <trkpt lat="50.0475" lon="3.48077">
        <ele>111.6</ele>
        <time>2023-08-06T13:03:38Z</time>
      </trkpt>
      <trkpt lat="50.04718" lon="3.48059">
        <ele>111.6</ele>
        <time>2023-08-06T13:03:46Z</time>
      </trkpt>
      <trkpt lat="50.04711" lon="3.48055">
        <ele>111.8</ele>
        <time>2023-08-06T13:03:48Z</time>
      </trkpt>
      <trkpt lat="50.04707" lon="3.48053">
        <ele>111.8</ele>
        <time>2023-08-06T13:03:49Z</time>
      </trkpt>
      <trkpt lat="50.04695" lon="3.48046">
        <ele>112</ele>
        <time>2023-08-06T13:03:52Z</time>
      </trkpt>
      <trkpt lat="50.04692" lon="3.48044">
        <ele>112</ele>
        <time>2023-08-06T13:03:53Z</time>
      </trkpt>
      <trkpt lat="50.04672" lon="3.48033">
        <ele>112.2</ele>
        <time>2023-08-06T13:03:58Z</time>
      </trkpt>
      <trkpt lat="50.04642" lon="3.48014">
        <ele>112.2</ele>
        <time>2023-08-06T13:04:06Z</time>
      </trkpt>
      <trkpt lat="50.04639" lon="3.48012">
        <ele>112.2</ele>
        <time>2023-08-06T13:04:07Z</time>
      </trkpt>
      <trkpt lat="50.04636" lon="3.48011">
        <ele>112</ele>
        <time>2023-08-06T13:04:08Z</time>
      </trkpt>
      <trkpt lat="50.0463" lon="3.48008">
        <ele>112</ele>
        <time>2023-08-06T13:04:10Z</time>
      </trkpt>
      <trkpt lat="50.04625" lon="3.48006">
        <ele>112</ele>
        <time>2023-08-06T13:04:12Z</time>
      </trkpt>
      <trkpt lat="50.04622" lon="3.48004">
        <ele>112</ele>
        <time>2023-08-06T13:04:13Z</time>
      </trkpt>
      <trkpt lat="50.04619" lon="3.48003">
        <ele>112.2</ele>
        <time>2023-08-06T13:04:14Z</time>
      </trkpt>
      <trkpt lat="50.04617" lon="3.48001">
        <ele>112.2</ele>
        <time>2023-08-06T13:04:15Z</time>
      </trkpt>
      <trkpt lat="50.04614" lon="3.47999">
        <ele>112.4</ele>
        <time>2023-08-06T13:04:16Z</time>
      </trkpt>
      <trkpt lat="50.04612" lon="3.47998">
        <ele>112.6</ele>
        <time>2023-08-06T13:04:17Z</time>
      </trkpt>
      <trkpt lat="50.0461" lon="3.47996">
        <ele>112.6</ele>
        <time>2023-08-06T13:04:18Z</time>
      </trkpt>
      <trkpt lat="50.04607" lon="3.47994">
        <ele>112.8</ele>
        <time>2023-08-06T13:04:19Z</time>
      </trkpt>
      <trkpt lat="50.04604" lon="3.47993">
        <ele>112.8</ele>
        <time>2023-08-06T13:04:20Z</time>
      </trkpt>
      <trkpt lat="50.046" lon="3.47989">
        <ele>113</ele>
        <time>2023-08-06T13:04:22Z</time>
      </trkpt>
      <trkpt lat="50.04581" lon="3.47978">
        <ele>113.6</ele>
        <time>2023-08-06T13:04:29Z</time>
      </trkpt>
      <trkpt lat="50.04561" lon="3.47965">
        <ele>113.8</ele>
        <time>2023-08-06T13:04:37Z</time>
      </trkpt>
      <trkpt lat="50.04558" lon="3.47963">
        <ele>114</ele>
        <time>2023-08-06T13:04:38Z</time>
      </trkpt>
      <trkpt lat="50.04556" lon="3.47961">
        <ele>114.2</ele>
        <time>2023-08-06T13:04:39Z</time>
      </trkpt>
      <trkpt lat="50.04539" lon="3.47947">
        <ele>114.6</ele>
        <time>2023-08-06T13:04:46Z</time>
      </trkpt>
      <trkpt lat="50.04522" lon="3.47934">
        <ele>115</ele>
        <time>2023-08-06T13:04:53Z</time>
      </trkpt>
      <trkpt lat="50.04521" lon="3.47933">
        <ele>114.8</ele>
        <time>2023-08-06T13:04:54Z</time>
      </trkpt>
      <trkpt lat="50.04519" lon="3.47932">
        <ele>114.8</ele>
        <time>2023-08-06T13:04:55Z</time>
      </trkpt>
      <trkpt lat="50.04518" lon="3.47931">
        <ele>114.8</ele>
        <time>2023-08-06T13:04:56Z</time>
      </trkpt>
      <trkpt lat="50.04517" lon="3.47929">
        <ele>114.8</ele>
        <time>2023-08-06T13:04:57Z</time>
      </trkpt>
      <trkpt lat="50.04516" lon="3.47928">
        <ele>115</ele>
        <time>2023-08-06T13:04:58Z</time>
      </trkpt>
      <trkpt lat="50.04516" lon="3.47927">
        <ele>115</ele>
        <time>2023-08-06T13:04:59Z</time>
      </trkpt>
      <trkpt lat="50.04515" lon="3.47926">
        <ele>115</ele>
        <time>2023-08-06T13:05:00Z</time>
      </trkpt>
      <trkpt lat="50.04515" lon="3.47926">
        <ele>115</ele>
        <time>2023-08-06T13:05:02Z</time>
      </trkpt>
      <trkpt lat="50.04493" lon="3.47913">
        <ele>112.8</ele>
        <time>2023-08-06T13:28:26Z</time>
      </trkpt>
      <trkpt lat="50.0449" lon="3.4791">
        <ele>113</ele>
        <time>2023-08-06T13:28:28Z</time>
      </trkpt>
      <trkpt lat="50.04482" lon="3.47905">
        <ele>113.2</ele>
        <time>2023-08-06T13:28:33Z</time>
      </trkpt>
      <trkpt lat="50.04481" lon="3.47904">
        <ele>113.2</ele>
        <time>2023-08-06T13:28:34Z</time>
      </trkpt>
      <trkpt lat="50.0448" lon="3.47902">
        <ele>113.2</ele>
        <time>2023-08-06T13:28:35Z</time>
      </trkpt>
      <trkpt lat="50.04479" lon="3.479">
        <ele>113.2</ele>
        <time>2023-08-06T13:28:36Z</time>
      </trkpt>
      <trkpt lat="50.04476" lon="3.47898">
        <ele>113.4</ele>
        <time>2023-08-06T13:28:38Z</time>
      </trkpt>
      <trkpt lat="50.04475" lon="3.47897">
        <ele>113.4</ele>
        <time>2023-08-06T13:28:39Z</time>
      </trkpt>
      <trkpt lat="50.04473" lon="3.47896">
        <ele>113.4</ele>
        <time>2023-08-06T13:28:40Z</time>
      </trkpt>
      <trkpt lat="50.04472" lon="3.47895">
        <ele>113.4</ele>
        <time>2023-08-06T13:28:41Z</time>
      </trkpt>
      <trkpt lat="50.04471" lon="3.47894">
        <ele>113.6</ele>
        <time>2023-08-06T13:28:42Z</time>
      </trkpt>
      <trkpt lat="50.04471" lon="3.47894">
        <ele>113.6</ele>
        <time>2023-08-06T13:28:43Z</time>
      </trkpt>
      <trkpt lat="50.04471" lon="3.47893">
        <ele>113.8</ele>
        <time>2023-08-06T13:28:44Z</time>
      </trkpt>
      <trkpt lat="50.04468" lon="3.47891">
        <ele>114</ele>
        <time>2023-08-06T13:28:46Z</time>
      </trkpt>
      <trkpt lat="50.04455" lon="3.4788">
        <ele>114.2</ele>
        <time>2023-08-06T13:28:54Z</time>
      </trkpt>
      <trkpt lat="50.04448" lon="3.47873">
        <ele>114.2</ele>
        <time>2023-08-06T13:28:59Z</time>
      </trkpt>
      <trkpt lat="50.04447" lon="3.47872">
        <ele>114.4</ele>
        <time>2023-08-06T13:29:00Z</time>
      </trkpt>
      <trkpt lat="50.04446" lon="3.47871">
        <ele>114.6</ele>
        <time>2023-08-06T13:29:01Z</time>
      </trkpt>
      <trkpt lat="50.04444" lon="3.4787">
        <ele>114.6</ele>
        <time>2023-08-06T13:29:02Z</time>
      </trkpt>
      <trkpt lat="50.04443" lon="3.47869">
        <ele>114.6</ele>
        <time>2023-08-06T13:29:03Z</time>
      </trkpt>
      <trkpt lat="50.04442" lon="3.47867">
        <ele>114.6</ele>
        <time>2023-08-06T13:29:04Z</time>
      </trkpt>
      <trkpt lat="50.04441" lon="3.47866">
        <ele>114.6</ele>
        <time>2023-08-06T13:29:05Z</time>
      </trkpt>
      <trkpt lat="50.0444" lon="3.47864">
        <ele>114.6</ele>
        <time>2023-08-06T13:29:06Z</time>
      </trkpt>
      <trkpt lat="50.04439" lon="3.47863">
        <ele>114.8</ele>
        <time>2023-08-06T13:29:07Z</time>
      </trkpt>
      <trkpt lat="50.04436" lon="3.47861">
        <ele>115</ele>
        <time>2023-08-06T13:29:09Z</time>
      </trkpt>
      <trkpt lat="50.04435" lon="3.47859">
        <ele>115.2</ele>
        <time>2023-08-06T13:29:10Z</time>
      </trkpt>
      <trkpt lat="50.04433" lon="3.47857">
        <ele>115.2</ele>
        <time>2023-08-06T13:29:12Z</time>
      </trkpt>
      <trkpt lat="50.04427" lon="3.47851">
        <ele>115.6</ele>
        <time>2023-08-06T13:29:16Z</time>
      </trkpt>
      <trkpt lat="50.04419" lon="3.47842">
        <ele>116.2</ele>
        <time>2023-08-06T13:29:22Z</time>
      </trkpt>
      <trkpt lat="50.04411" lon="3.47833">
        <ele>116.6</ele>
        <time>2023-08-06T13:29:28Z</time>
      </trkpt>
      <trkpt lat="50.04407" lon="3.47829">
        <ele>117</ele>
        <time>2023-08-06T13:29:31Z</time>
      </trkpt>
      <trkpt lat="50.04403" lon="3.47823">
        <ele>117.4</ele>
        <time>2023-08-06T13:29:35Z</time>
      </trkpt>
      <trkpt lat="50.04402" lon="3.47822">
        <ele>117.6</ele>
        <time>2023-08-06T13:29:36Z</time>
      </trkpt>
      <trkpt lat="50.04401" lon="3.47821">
        <ele>117.6</ele>
        <time>2023-08-06T13:29:37Z</time>
      </trkpt>
      <trkpt lat="50.044" lon="3.4782">
        <ele>117.8</ele>
        <time>2023-08-06T13:29:38Z</time>
      </trkpt>
      <trkpt lat="50.04398" lon="3.47818">
        <ele>117.8</ele>
        <time>2023-08-06T13:29:39Z</time>
      </trkpt>
      <trkpt lat="50.04388" lon="3.47808">
        <ele>118.6</ele>
        <time>2023-08-06T13:29:46Z</time>
      </trkpt>
      <trkpt lat="50.04387" lon="3.47807">
        <ele>118.8</ele>
        <time>2023-08-06T13:29:47Z</time>
      </trkpt>
      <trkpt lat="50.04386" lon="3.47805">
        <ele>118.8</ele>
        <time>2023-08-06T13:29:48Z</time>
      </trkpt>
      <trkpt lat="50.04384" lon="3.47803">
        <ele>118.8</ele>
        <time>2023-08-06T13:29:49Z</time>
      </trkpt>
      <trkpt lat="50.04383" lon="3.47802">
        <ele>118.8</ele>
        <time>2023-08-06T13:29:50Z</time>
      </trkpt>
      <trkpt lat="50.04376" lon="3.47794">
        <ele>119.4</ele>
        <time>2023-08-06T13:29:55Z</time>
      </trkpt>
      <trkpt lat="50.04372" lon="3.47789">
        <ele>119.8</ele>
        <time>2023-08-06T13:29:58Z</time>
      </trkpt>
      <trkpt lat="50.04367" lon="3.47783">
        <ele>120.4</ele>
        <time>2023-08-06T13:30:02Z</time>
      </trkpt>
      <trkpt lat="50.04366" lon="3.47782">
        <ele>120.6</ele>
        <time>2023-08-06T13:30:03Z</time>
      </trkpt>
      <trkpt lat="50.04364" lon="3.4778">
        <ele>120.6</ele>
        <time>2023-08-06T13:30:04Z</time>
      </trkpt>
      <trkpt lat="50.04363" lon="3.47779">
        <ele>120.8</ele>
        <time>2023-08-06T13:30:05Z</time>
      </trkpt>
      <trkpt lat="50.04362" lon="3.47777">
        <ele>121</ele>
        <time>2023-08-06T13:30:06Z</time>
      </trkpt>
      <trkpt lat="50.0436" lon="3.47776">
        <ele>121.2</ele>
        <time>2023-08-06T13:30:07Z</time>
      </trkpt>
      <trkpt lat="50.04359" lon="3.47774">
        <ele>121.4</ele>
        <time>2023-08-06T13:30:08Z</time>
      </trkpt>
      <trkpt lat="50.04359" lon="3.47774">
        <ele>121.4</ele>
        <time>2023-08-06T13:30:09Z</time>
      </trkpt>
      <trkpt lat="50.04357" lon="3.47771">
        <ele>121.6</ele>
        <time>2023-08-06T13:30:10Z</time>
      </trkpt>
      <trkpt lat="50.04356" lon="3.47769">
        <ele>121.6</ele>
        <time>2023-08-06T13:30:11Z</time>
      </trkpt>
      <trkpt lat="50.04354" lon="3.47768">
        <ele>121.8</ele>
        <time>2023-08-06T13:30:12Z</time>
      </trkpt>
      <trkpt lat="50.04353" lon="3.47767">
        <ele>121.8</ele>
        <time>2023-08-06T13:30:13Z</time>
      </trkpt>
      <trkpt lat="50.04351" lon="3.47765">
        <ele>122</ele>
        <time>2023-08-06T13:30:14Z</time>
      </trkpt>
      <trkpt lat="50.0435" lon="3.47764">
        <ele>122</ele>
        <time>2023-08-06T13:30:15Z</time>
      </trkpt>
      <trkpt lat="50.04349" lon="3.47762">
        <ele>122</ele>
        <time>2023-08-06T13:30:16Z</time>
      </trkpt>
      <trkpt lat="50.04348" lon="3.4776">
        <ele>122.2</ele>
        <time>2023-08-06T13:30:17Z</time>
      </trkpt>
      <trkpt lat="50.04346" lon="3.47759">
        <ele>122.2</ele>
        <time>2023-08-06T13:30:18Z</time>
      </trkpt>
      <trkpt lat="50.04345" lon="3.47758">
        <ele>122.4</ele>
        <time>2023-08-06T13:30:19Z</time>
      </trkpt>
      <trkpt lat="50.04344" lon="3.47756">
        <ele>122.4</ele>
        <time>2023-08-06T13:30:20Z</time>
      </trkpt>
      <trkpt lat="50.04343" lon="3.47755">
        <ele>122.4</ele>
        <time>2023-08-06T13:30:21Z</time>
      </trkpt>
      <trkpt lat="50.04342" lon="3.47753">
        <ele>122.6</ele>
        <time>2023-08-06T13:30:22Z</time>
      </trkpt>
      <trkpt lat="50.0434" lon="3.47752">
        <ele>122.6</ele>
        <time>2023-08-06T13:30:23Z</time>
      </trkpt>
      <trkpt lat="50.04339" lon="3.4775">
        <ele>122.8</ele>
        <time>2023-08-06T13:30:24Z</time>
      </trkpt>
      <trkpt lat="50.04338" lon="3.47749">
        <ele>122.8</ele>
        <time>2023-08-06T13:30:25Z</time>
      </trkpt>
      <trkpt lat="50.04337" lon="3.47747">
        <ele>123</ele>
        <time>2023-08-06T13:30:26Z</time>
      </trkpt>
      <trkpt lat="50.04335" lon="3.47746">
        <ele>123</ele>
        <time>2023-08-06T13:30:27Z</time>
      </trkpt>
      <trkpt lat="50.04334" lon="3.47744">
        <ele>123</ele>
        <time>2023-08-06T13:30:28Z</time>
      </trkpt>
      <trkpt lat="50.04333" lon="3.47742">
        <ele>123.2</ele>
        <time>2023-08-06T13:30:29Z</time>
      </trkpt>
      <trkpt lat="50.04332" lon="3.4774">
        <ele>123.2</ele>
        <time>2023-08-06T13:30:30Z</time>
      </trkpt>
      <trkpt lat="50.0433" lon="3.47739">
        <ele>123.4</ele>
        <time>2023-08-06T13:30:31Z</time>
      </trkpt>
      <trkpt lat="50.04329" lon="3.47737">
        <ele>123.6</ele>
        <time>2023-08-06T13:30:32Z</time>
      </trkpt>
      <trkpt lat="50.04328" lon="3.47736">
        <ele>123.6</ele>
        <time>2023-08-06T13:30:33Z</time>
      </trkpt>
      <trkpt lat="50.04323" lon="3.47728">
        <ele>124</ele>
        <time>2023-08-06T13:30:37Z</time>
      </trkpt>
      <trkpt lat="50.04316" lon="3.47716">
        <ele>124.6</ele>
        <time>2023-08-06T13:30:42Z</time>
      </trkpt>
      <trkpt lat="50.04308" lon="3.47704">
        <ele>125.2</ele>
        <time>2023-08-06T13:30:47Z</time>
      </trkpt>
      <trkpt lat="50.04307" lon="3.47701">
        <ele>125.2</ele>
        <time>2023-08-06T13:30:48Z</time>
      </trkpt>
      <trkpt lat="50.04305" lon="3.47699">
        <ele>125.4</ele>
        <time>2023-08-06T13:30:49Z</time>
      </trkpt>
      <trkpt lat="50.04303" lon="3.47696">
        <ele>125.4</ele>
        <time>2023-08-06T13:30:50Z</time>
      </trkpt>
      <trkpt lat="50.04301" lon="3.47693">
        <ele>125.6</ele>
        <time>2023-08-06T13:30:51Z</time>
      </trkpt>
      <trkpt lat="50.04299" lon="3.47691">
        <ele>125.6</ele>
        <time>2023-08-06T13:30:52Z</time>
      </trkpt>
      <trkpt lat="50.04297" lon="3.47688">
        <ele>125.8</ele>
        <time>2023-08-06T13:30:53Z</time>
      </trkpt>
      <trkpt lat="50.04295" lon="3.47684">
        <ele>125.8</ele>
        <time>2023-08-06T13:30:54Z</time>
      </trkpt>
      <trkpt lat="50.04293" lon="3.47681">
        <ele>125.8</ele>
        <time>2023-08-06T13:30:55Z</time>
      </trkpt>
      <trkpt lat="50.04291" lon="3.47678">
        <ele>125.8</ele>
        <time>2023-08-06T13:30:56Z</time>
      </trkpt>
      <trkpt lat="50.04289" lon="3.47674">
        <ele>125.8</ele>
        <time>2023-08-06T13:30:57Z</time>
      </trkpt>
      <trkpt lat="50.04287" lon="3.47671">
        <ele>125.6</ele>
        <time>2023-08-06T13:30:58Z</time>
      </trkpt>
      <trkpt lat="50.04285" lon="3.47667">
        <ele>125.6</ele>
        <time>2023-08-06T13:30:59Z</time>
      </trkpt>
      <trkpt lat="50.04264" lon="3.47634">
        <ele>125.2</ele>
        <time>2023-08-06T13:31:06Z</time>
      </trkpt>
      <trkpt lat="50.04254" lon="3.47617">
        <ele>125</ele>
        <time>2023-08-06T13:31:09Z</time>
      </trkpt>
      <trkpt lat="50.04254" lon="3.47617">
        <ele>124.8</ele>
        <time>2023-08-06T13:31:10Z</time>
      </trkpt>
      <trkpt lat="50.04243" lon="3.476">
        <ele>124.6</ele>
        <time>2023-08-06T13:31:12Z</time>
      </trkpt>
      <trkpt lat="50.04224" lon="3.47569">
        <ele>124.2</ele>
        <time>2023-08-06T13:31:17Z</time>
      </trkpt>
      <trkpt lat="50.04216" lon="3.47555">
        <ele>123.8</ele>
        <time>2023-08-06T13:31:19Z</time>
      </trkpt>
      <trkpt lat="50.04212" lon="3.47548">
        <ele>123.8</ele>
        <time>2023-08-06T13:31:20Z</time>
      </trkpt>
      <trkpt lat="50.04195" lon="3.47519">
        <ele>123</ele>
        <time>2023-08-06T13:31:24Z</time>
      </trkpt>
      <trkpt lat="50.04185" lon="3.47505">
        <ele>122.4</ele>
        <time>2023-08-06T13:31:26Z</time>
      </trkpt>
      <trkpt lat="50.04172" lon="3.47483">
        <ele>122</ele>
        <time>2023-08-06T13:31:29Z</time>
      </trkpt>
      <trkpt lat="50.04152" lon="3.47453">
        <ele>121.2</ele>
        <time>2023-08-06T13:31:33Z</time>
      </trkpt>
      <trkpt lat="50.04146" lon="3.47447">
        <ele>121</ele>
        <time>2023-08-06T13:31:34Z</time>
      </trkpt>
      <trkpt lat="50.04117" lon="3.47412">
        <ele>119.6</ele>
        <time>2023-08-06T13:31:39Z</time>
      </trkpt>
      <trkpt lat="50.0411" lon="3.47405">
        <ele>119.6</ele>
        <time>2023-08-06T13:31:40Z</time>
      </trkpt>
      <trkpt lat="50.04097" lon="3.4739">
        <ele>118.6</ele>
        <time>2023-08-06T13:31:42Z</time>
      </trkpt>
      <trkpt lat="50.04076" lon="3.47366">
        <ele>117.4</ele>
        <time>2023-08-06T13:31:45Z</time>
      </trkpt>
      <trkpt lat="50.04069" lon="3.47358">
        <ele>116.8</ele>
        <time>2023-08-06T13:31:46Z</time>
      </trkpt>
      <trkpt lat="50.04053" lon="3.47341">
        <ele>116.2</ele>
        <time>2023-08-06T13:31:48Z</time>
      </trkpt>
      <trkpt lat="50.04046" lon="3.47333">
        <ele>115.8</ele>
        <time>2023-08-06T13:31:49Z</time>
      </trkpt>
      <trkpt lat="50.04032" lon="3.47317">
        <ele>115</ele>
        <time>2023-08-06T13:31:51Z</time>
      </trkpt>
      <trkpt lat="50.04012" lon="3.47293">
        <ele>114.2</ele>
        <time>2023-08-06T13:31:54Z</time>
      </trkpt>
      <trkpt lat="50.04006" lon="3.47285">
        <ele>113.6</ele>
        <time>2023-08-06T13:31:55Z</time>
      </trkpt>
      <trkpt lat="50.03993" lon="3.4727">
        <ele>113</ele>
        <time>2023-08-06T13:31:57Z</time>
      </trkpt>
      <trkpt lat="50.03987" lon="3.47263">
        <ele>112.8</ele>
        <time>2023-08-06T13:31:58Z</time>
      </trkpt>
      <trkpt lat="50.03981" lon="3.47256">
        <ele>112.6</ele>
        <time>2023-08-06T13:31:59Z</time>
      </trkpt>
      <trkpt lat="50.03975" lon="3.47249">
        <ele>112.2</ele>
        <time>2023-08-06T13:32:00Z</time>
      </trkpt>
      <trkpt lat="50.03969" lon="3.47241">
        <ele>112.2</ele>
        <time>2023-08-06T13:32:01Z</time>
      </trkpt>
      <trkpt lat="50.03964" lon="3.47233">
        <ele>111.8</ele>
        <time>2023-08-06T13:32:02Z</time>
      </trkpt>
      <trkpt lat="50.03958" lon="3.47226">
        <ele>111.6</ele>
        <time>2023-08-06T13:32:03Z</time>
      </trkpt>
      <trkpt lat="50.03953" lon="3.47218">
        <ele>111.4</ele>
        <time>2023-08-06T13:32:04Z</time>
      </trkpt>
      <trkpt lat="50.03948" lon="3.47211">
        <ele>111.4</ele>
        <time>2023-08-06T13:32:05Z</time>
      </trkpt>
      <trkpt lat="50.03943" lon="3.47203">
        <ele>111.4</ele>
        <time>2023-08-06T13:32:06Z</time>
      </trkpt>
      <trkpt lat="50.03938" lon="3.47196">
        <ele>111.2</ele>
        <time>2023-08-06T13:32:07Z</time>
      </trkpt>
      <trkpt lat="50.03933" lon="3.47189">
        <ele>111.2</ele>
        <time>2023-08-06T13:32:08Z</time>
      </trkpt>
      <trkpt lat="50.03927" lon="3.47183">
        <ele>111</ele>
        <time>2023-08-06T13:32:09Z</time>
      </trkpt>
      <trkpt lat="50.03923" lon="3.47176">
        <ele>111</ele>
        <time>2023-08-06T13:32:10Z</time>
      </trkpt>
      <trkpt lat="50.03918" lon="3.4717">
        <ele>111</ele>
        <time>2023-08-06T13:32:11Z</time>
      </trkpt>
      <trkpt lat="50.03913" lon="3.47163">
        <ele>111</ele>
        <time>2023-08-06T13:32:12Z</time>
      </trkpt>
      <trkpt lat="50.03909" lon="3.47157">
        <ele>111</ele>
        <time>2023-08-06T13:32:13Z</time>
      </trkpt>
      <trkpt lat="50.03904" lon="3.47151">
        <ele>111</ele>
        <time>2023-08-06T13:32:14Z</time>
      </trkpt>
      <trkpt lat="50.039" lon="3.47145">
        <ele>111</ele>
        <time>2023-08-06T13:32:15Z</time>
      </trkpt>
      <trkpt lat="50.03895" lon="3.47139">
        <ele>111</ele>
        <time>2023-08-06T13:32:16Z</time>
      </trkpt>
      <trkpt lat="50.03891" lon="3.47134">
        <ele>111</ele>
        <time>2023-08-06T13:32:17Z</time>
      </trkpt>
      <trkpt lat="50.03887" lon="3.47128">
        <ele>111</ele>
        <time>2023-08-06T13:32:18Z</time>
      </trkpt>
      <trkpt lat="50.03883" lon="3.47122">
        <ele>111</ele>
        <time>2023-08-06T13:32:19Z</time>
      </trkpt>
      <trkpt lat="50.03878" lon="3.47117">
        <ele>111</ele>
        <time>2023-08-06T13:32:20Z</time>
      </trkpt>
      <trkpt lat="50.03873" lon="3.47112">
        <ele>111.2</ele>
        <time>2023-08-06T13:32:21Z</time>
      </trkpt>
      <trkpt lat="50.03869" lon="3.47108">
        <ele>111.2</ele>
        <time>2023-08-06T13:32:22Z</time>
      </trkpt>
      <trkpt lat="50.03864" lon="3.47103">
        <ele>111.4</ele>
        <time>2023-08-06T13:32:23Z</time>
      </trkpt>
      <trkpt lat="50.0386" lon="3.47098">
        <ele>111.4</ele>
        <time>2023-08-06T13:32:24Z</time>
      </trkpt>
      <trkpt lat="50.03856" lon="3.47094">
        <ele>111.4</ele>
        <time>2023-08-06T13:32:25Z</time>
      </trkpt>
      <trkpt lat="50.03851" lon="3.4709">
        <ele>111.4</ele>
        <time>2023-08-06T13:32:26Z</time>
      </trkpt>
      <trkpt lat="50.03847" lon="3.47086">
        <ele>111.4</ele>
        <time>2023-08-06T13:32:27Z</time>
      </trkpt>
      <trkpt lat="50.03843" lon="3.47082">
        <ele>111.4</ele>
        <time>2023-08-06T13:32:28Z</time>
      </trkpt>
      <trkpt lat="50.03839" lon="3.47079">
        <ele>111.4</ele>
        <time>2023-08-06T13:32:29Z</time>
      </trkpt>
      <trkpt lat="50.03835" lon="3.47075">
        <ele>111.6</ele>
        <time>2023-08-06T13:32:30Z</time>
      </trkpt>
      <trkpt lat="50.0383" lon="3.47072">
        <ele>111.6</ele>
        <time>2023-08-06T13:32:31Z</time>
      </trkpt>
      <trkpt lat="50.03826" lon="3.47069">
        <ele>111.8</ele>
        <time>2023-08-06T13:32:32Z</time>
      </trkpt>
      <trkpt lat="50.03822" lon="3.47066">
        <ele>112</ele>
        <time>2023-08-06T13:32:33Z</time>
      </trkpt>
      <trkpt lat="50.03817" lon="3.47063">
        <ele>112.2</ele>
        <time>2023-08-06T13:32:34Z</time>
      </trkpt>
      <trkpt lat="50.03813" lon="3.4706">
        <ele>112.2</ele>
        <time>2023-08-06T13:32:35Z</time>
      </trkpt>
      <trkpt lat="50.03809" lon="3.47057">
        <ele>112.4</ele>
        <time>2023-08-06T13:32:36Z</time>
      </trkpt>
      <trkpt lat="50.03805" lon="3.47054">
        <ele>112.6</ele>
        <time>2023-08-06T13:32:37Z</time>
      </trkpt>
      <trkpt lat="50.038" lon="3.47052">
        <ele>112.6</ele>
        <time>2023-08-06T13:32:38Z</time>
      </trkpt>
      <trkpt lat="50.03796" lon="3.47049">
        <ele>112.6</ele>
        <time>2023-08-06T13:32:39Z</time>
      </trkpt>
      <trkpt lat="50.03792" lon="3.47046">
        <ele>112.8</ele>
        <time>2023-08-06T13:32:40Z</time>
      </trkpt>
      <trkpt lat="50.03784" lon="3.47041">
        <ele>113</ele>
        <time>2023-08-06T13:32:42Z</time>
      </trkpt>
      <trkpt lat="50.03779" lon="3.47038">
        <ele>113.2</ele>
        <time>2023-08-06T13:32:43Z</time>
      </trkpt>
      <trkpt lat="50.03776" lon="3.47036">
        <ele>113.2</ele>
        <time>2023-08-06T13:32:44Z</time>
      </trkpt>
      <trkpt lat="50.03772" lon="3.47033">
        <ele>113.2</ele>
        <time>2023-08-06T13:32:45Z</time>
      </trkpt>
      <trkpt lat="50.03768" lon="3.47031">
        <ele>113.4</ele>
        <time>2023-08-06T13:32:46Z</time>
      </trkpt>
      <trkpt lat="50.03765" lon="3.47028">
        <ele>113.4</ele>
        <time>2023-08-06T13:32:47Z</time>
      </trkpt>
      <trkpt lat="50.03761" lon="3.47026">
        <ele>113.6</ele>
        <time>2023-08-06T13:32:48Z</time>
      </trkpt>
      <trkpt lat="50.03758" lon="3.47023">
        <ele>113.6</ele>
        <time>2023-08-06T13:32:49Z</time>
      </trkpt>
      <trkpt lat="50.03754" lon="3.4702">
        <ele>113.8</ele>
        <time>2023-08-06T13:32:50Z</time>
      </trkpt>
      <trkpt lat="50.03751" lon="3.47016">
        <ele>113.8</ele>
        <time>2023-08-06T13:32:51Z</time>
      </trkpt>
      <trkpt lat="50.03749" lon="3.47012">
        <ele>114</ele>
        <time>2023-08-06T13:32:52Z</time>
      </trkpt>
      <trkpt lat="50.03748" lon="3.47007">
        <ele>114.2</ele>
        <time>2023-08-06T13:32:53Z</time>
      </trkpt>
      <trkpt lat="50.03746" lon="3.47001">
        <ele>114.2</ele>
        <time>2023-08-06T13:32:54Z</time>
      </trkpt>
      <trkpt lat="50.03746" lon="3.46997">
        <ele>114.4</ele>
        <time>2023-08-06T13:32:55Z</time>
      </trkpt>
      <trkpt lat="50.03744" lon="3.46993">
        <ele>114.6</ele>
        <time>2023-08-06T13:32:56Z</time>
      </trkpt>
      <trkpt lat="50.03742" lon="3.46989">
        <ele>114.8</ele>
        <time>2023-08-06T13:32:57Z</time>
      </trkpt>
      <trkpt lat="50.0374" lon="3.46986">
        <ele>114.8</ele>
        <time>2023-08-06T13:32:58Z</time>
      </trkpt>
      <trkpt lat="50.03738" lon="3.46984">
        <ele>115</ele>
        <time>2023-08-06T13:32:59Z</time>
      </trkpt>
      <trkpt lat="50.03735" lon="3.46983">
        <ele>115.2</ele>
        <time>2023-08-06T13:33:00Z</time>
      </trkpt>
      <trkpt lat="50.03731" lon="3.46982">
        <ele>115.2</ele>
        <time>2023-08-06T13:33:01Z</time>
      </trkpt>
      <trkpt lat="50.0373" lon="3.46981">
        <ele>115.4</ele>
        <time>2023-08-06T13:33:02Z</time>
      </trkpt>
      <trkpt lat="50.03727" lon="3.46981">
        <ele>115.4</ele>
        <time>2023-08-06T13:33:03Z</time>
      </trkpt>
      <trkpt lat="50.03724" lon="3.4698">
        <ele>115.8</ele>
        <time>2023-08-06T13:33:04Z</time>
      </trkpt>
      <trkpt lat="50.03721" lon="3.4698">
        <ele>116</ele>
        <time>2023-08-06T13:33:05Z</time>
      </trkpt>
      <trkpt lat="50.03718" lon="3.46981">
        <ele>116.2</ele>
        <time>2023-08-06T13:33:06Z</time>
      </trkpt>
      <trkpt lat="50.03715" lon="3.46981">
        <ele>116.2</ele>
        <time>2023-08-06T13:33:07Z</time>
      </trkpt>
      <trkpt lat="50.03712" lon="3.46981">
        <ele>116.2</ele>
        <time>2023-08-06T13:33:08Z</time>
      </trkpt>
      <trkpt lat="50.03709" lon="3.4698">
        <ele>116.4</ele>
        <time>2023-08-06T13:33:09Z</time>
      </trkpt>
      <trkpt lat="50.03706" lon="3.46981">
        <ele>116.4</ele>
        <time>2023-08-06T13:33:10Z</time>
      </trkpt>
      <trkpt lat="50.03703" lon="3.46982">
        <ele>116.6</ele>
        <time>2023-08-06T13:33:11Z</time>
      </trkpt>
      <trkpt lat="50.037" lon="3.46982">
        <ele>116.6</ele>
        <time>2023-08-06T13:33:12Z</time>
      </trkpt>
      <trkpt lat="50.03697" lon="3.46981">
        <ele>116.8</ele>
        <time>2023-08-06T13:33:13Z</time>
      </trkpt>
      <trkpt lat="50.03693" lon="3.4698">
        <ele>117</ele>
        <time>2023-08-06T13:33:14Z</time>
      </trkpt>
      <trkpt lat="50.0369" lon="3.4698">
        <ele>117</ele>
        <time>2023-08-06T13:33:15Z</time>
      </trkpt>
      <trkpt lat="50.03687" lon="3.46979">
        <ele>117.2</ele>
        <time>2023-08-06T13:33:16Z</time>
      </trkpt>
      <trkpt lat="50.03683" lon="3.46978">
        <ele>117.2</ele>
        <time>2023-08-06T13:33:17Z</time>
      </trkpt>
      <trkpt lat="50.0368" lon="3.46976">
        <ele>117.4</ele>
        <time>2023-08-06T13:33:18Z</time>
      </trkpt>
      <trkpt lat="50.03676" lon="3.46975">
        <ele>117.4</ele>
        <time>2023-08-06T13:33:19Z</time>
      </trkpt>
      <trkpt lat="50.03673" lon="3.46973">
        <ele>117.4</ele>
        <time>2023-08-06T13:33:20Z</time>
      </trkpt>
      <trkpt lat="50.0367" lon="3.46971">
        <ele>117.4</ele>
        <time>2023-08-06T13:33:21Z</time>
      </trkpt>
      <trkpt lat="50.03667" lon="3.46969">
        <ele>117.4</ele>
        <time>2023-08-06T13:33:22Z</time>
      </trkpt>
      <trkpt lat="50.03664" lon="3.46967">
        <ele>117.4</ele>
        <time>2023-08-06T13:33:23Z</time>
      </trkpt>
      <trkpt lat="50.03661" lon="3.46965">
        <ele>117.6</ele>
        <time>2023-08-06T13:33:24Z</time>
      </trkpt>
      <trkpt lat="50.03658" lon="3.46962">
        <ele>117.6</ele>
        <time>2023-08-06T13:33:25Z</time>
      </trkpt>
      <trkpt lat="50.03654" lon="3.4696">
        <ele>117.6</ele>
        <time>2023-08-06T13:33:26Z</time>
      </trkpt>
      <trkpt lat="50.03651" lon="3.46958">
        <ele>117.6</ele>
        <time>2023-08-06T13:33:27Z</time>
      </trkpt>
      <trkpt lat="50.03639" lon="3.46947">
        <ele>118</ele>
        <time>2023-08-06T13:33:31Z</time>
      </trkpt>
      <trkpt lat="50.03632" lon="3.46943">
        <ele>118</ele>
        <time>2023-08-06T13:33:33Z</time>
      </trkpt>
      <trkpt lat="50.03616" lon="3.46932">
        <ele>118.6</ele>
        <time>2023-08-06T13:33:38Z</time>
      </trkpt>
      <trkpt lat="50.03606" lon="3.46925">
        <ele>118.8</ele>
        <time>2023-08-06T13:33:41Z</time>
      </trkpt>
      <trkpt lat="50.03599" lon="3.46923">
        <ele>118.8</ele>
        <time>2023-08-06T13:33:43Z</time>
      </trkpt>
      <trkpt lat="50.0358" lon="3.46913">
        <ele>118.8</ele>
        <time>2023-08-06T13:33:48Z</time>
      </trkpt>
      <trkpt lat="50.03564" lon="3.46907">
        <ele>119</ele>
        <time>2023-08-06T13:33:52Z</time>
      </trkpt>
      <trkpt lat="50.03548" lon="3.46902">
        <ele>119.2</ele>
        <time>2023-08-06T13:33:56Z</time>
      </trkpt>
      <trkpt lat="50.03521" lon="3.46905">
        <ele>119.2</ele>
        <time>2023-08-06T13:34:03Z</time>
      </trkpt>
      <trkpt lat="50.03513" lon="3.46907">
        <ele>119.2</ele>
        <time>2023-08-06T13:34:05Z</time>
      </trkpt>
      <trkpt lat="50.03509" lon="3.46908">
        <ele>119.2</ele>
        <time>2023-08-06T13:34:06Z</time>
      </trkpt>
      <trkpt lat="50.03505" lon="3.46909">
        <ele>119.2</ele>
        <time>2023-08-06T13:34:07Z</time>
      </trkpt>
      <trkpt lat="50.03502" lon="3.4691">
        <ele>119.2</ele>
        <time>2023-08-06T13:34:08Z</time>
      </trkpt>
      <trkpt lat="50.03499" lon="3.46911">
        <ele>119.2</ele>
        <time>2023-08-06T13:34:09Z</time>
      </trkpt>
      <trkpt lat="50.03496" lon="3.46912">
        <ele>119.2</ele>
        <time>2023-08-06T13:34:10Z</time>
      </trkpt>
      <trkpt lat="50.03493" lon="3.46913">
        <ele>119.2</ele>
        <time>2023-08-06T13:34:11Z</time>
      </trkpt>
      <trkpt lat="50.0349" lon="3.46914">
        <ele>119.2</ele>
        <time>2023-08-06T13:34:12Z</time>
      </trkpt>
      <trkpt lat="50.03487" lon="3.46915">
        <ele>119.2</ele>
        <time>2023-08-06T13:34:13Z</time>
      </trkpt>
      <trkpt lat="50.03485" lon="3.46916">
        <ele>119.4</ele>
        <time>2023-08-06T13:34:14Z</time>
      </trkpt>
      <trkpt lat="50.03482" lon="3.46916">
        <ele>119.4</ele>
        <time>2023-08-06T13:34:15Z</time>
      </trkpt>
      <trkpt lat="50.03479" lon="3.46917">
        <ele>119.6</ele>
        <time>2023-08-06T13:34:16Z</time>
      </trkpt>
      <trkpt lat="50.03477" lon="3.46917">
        <ele>119.8</ele>
        <time>2023-08-06T13:34:17Z</time>
      </trkpt>
      <trkpt lat="50.03474" lon="3.46917">
        <ele>120</ele>
        <time>2023-08-06T13:34:18Z</time>
      </trkpt>
      <trkpt lat="50.03471" lon="3.46917">
        <ele>120.2</ele>
        <time>2023-08-06T13:34:19Z</time>
      </trkpt>
      <trkpt lat="50.03469" lon="3.46916">
        <ele>120.4</ele>
        <time>2023-08-06T13:34:20Z</time>
      </trkpt>
      <trkpt lat="50.03466" lon="3.46915">
        <ele>120.6</ele>
        <time>2023-08-06T13:34:21Z</time>
      </trkpt>
      <trkpt lat="50.03463" lon="3.46914">
        <ele>120.6</ele>
        <time>2023-08-06T13:34:22Z</time>
      </trkpt>
      <trkpt lat="50.03461" lon="3.46914">
        <ele>120.6</ele>
        <time>2023-08-06T13:34:23Z</time>
      </trkpt>
      <trkpt lat="50.03458" lon="3.46914">
        <ele>120.8</ele>
        <time>2023-08-06T13:34:24Z</time>
      </trkpt>
      <trkpt lat="50.03455" lon="3.46916">
        <ele>121</ele>
        <time>2023-08-06T13:34:25Z</time>
      </trkpt>
      <trkpt lat="50.03453" lon="3.46917">
        <ele>121.2</ele>
        <time>2023-08-06T13:34:26Z</time>
      </trkpt>
      <trkpt lat="50.0345" lon="3.46919">
        <ele>121.2</ele>
        <time>2023-08-06T13:34:27Z</time>
      </trkpt>
      <trkpt lat="50.03448" lon="3.46922">
        <ele>121.4</ele>
        <time>2023-08-06T13:34:28Z</time>
      </trkpt>
      <trkpt lat="50.0344" lon="3.46928">
        <ele>121.4</ele>
        <time>2023-08-06T13:34:31Z</time>
      </trkpt>
      <trkpt lat="50.03427" lon="3.46937">
        <ele>122.2</ele>
        <time>2023-08-06T13:34:36Z</time>
      </trkpt>
      <trkpt lat="50.03424" lon="3.46939">
        <ele>122.2</ele>
        <time>2023-08-06T13:34:37Z</time>
      </trkpt>
      <trkpt lat="50.03422" lon="3.4694">
        <ele>122.4</ele>
        <time>2023-08-06T13:34:38Z</time>
      </trkpt>
      <trkpt lat="50.03419" lon="3.46941">
        <ele>122.6</ele>
        <time>2023-08-06T13:34:39Z</time>
      </trkpt>
      <trkpt lat="50.03417" lon="3.46942">
        <ele>122.8</ele>
        <time>2023-08-06T13:34:40Z</time>
      </trkpt>
      <trkpt lat="50.03415" lon="3.46943">
        <ele>122.8</ele>
        <time>2023-08-06T13:34:41Z</time>
      </trkpt>
      <trkpt lat="50.03412" lon="3.46944">
        <ele>123</ele>
        <time>2023-08-06T13:34:42Z</time>
      </trkpt>
      <trkpt lat="50.03409" lon="3.46946">
        <ele>123</ele>
        <time>2023-08-06T13:34:43Z</time>
      </trkpt>
      <trkpt lat="50.03406" lon="3.46947">
        <ele>123.2</ele>
        <time>2023-08-06T13:34:44Z</time>
      </trkpt>
      <trkpt lat="50.03404" lon="3.46948">
        <ele>123.2</ele>
        <time>2023-08-06T13:34:45Z</time>
      </trkpt>
      <trkpt lat="50.03401" lon="3.46949">
        <ele>123.2</ele>
        <time>2023-08-06T13:34:46Z</time>
      </trkpt>
      <trkpt lat="50.03398" lon="3.46951">
        <ele>123.2</ele>
        <time>2023-08-06T13:34:47Z</time>
      </trkpt>
      <trkpt lat="50.03395" lon="3.46952">
        <ele>123.4</ele>
        <time>2023-08-06T13:34:48Z</time>
      </trkpt>
      <trkpt lat="50.03393" lon="3.46953">
        <ele>123.4</ele>
        <time>2023-08-06T13:34:49Z</time>
      </trkpt>
      <trkpt lat="50.0339" lon="3.46954">
        <ele>123.4</ele>
        <time>2023-08-06T13:34:50Z</time>
      </trkpt>
      <trkpt lat="50.03388" lon="3.46956">
        <ele>123.6</ele>
        <time>2023-08-06T13:34:51Z</time>
      </trkpt>
      <trkpt lat="50.03385" lon="3.46958">
        <ele>123.6</ele>
        <time>2023-08-06T13:34:52Z</time>
      </trkpt>
      <trkpt lat="50.03382" lon="3.4696">
        <ele>123.6</ele>
        <time>2023-08-06T13:34:53Z</time>
      </trkpt>
      <trkpt lat="50.0338" lon="3.46961">
        <ele>123.6</ele>
        <time>2023-08-06T13:34:54Z</time>
      </trkpt>
      <trkpt lat="50.03377" lon="3.46962">
        <ele>123.8</ele>
        <time>2023-08-06T13:34:55Z</time>
      </trkpt>
      <trkpt lat="50.03374" lon="3.46963">
        <ele>124</ele>
        <time>2023-08-06T13:34:56Z</time>
      </trkpt>
      <trkpt lat="50.03369" lon="3.46965">
        <ele>124.2</ele>
        <time>2023-08-06T13:34:58Z</time>
      </trkpt>
      <trkpt lat="50.03358" lon="3.46969">
        <ele>124.4</ele>
        <time>2023-08-06T13:35:02Z</time>
      </trkpt>
      <trkpt lat="50.03339" lon="3.46977">
        <ele>125</ele>
        <time>2023-08-06T13:35:09Z</time>
      </trkpt>
      <trkpt lat="50.03332" lon="3.46981">
        <ele>125.4</ele>
        <time>2023-08-06T13:35:12Z</time>
      </trkpt>
      <trkpt lat="50.03329" lon="3.46982">
        <ele>125.6</ele>
        <time>2023-08-06T13:35:13Z</time>
      </trkpt>
      <trkpt lat="50.0332" lon="3.46982">
        <ele>125.8</ele>
        <time>2023-08-06T13:35:16Z</time>
      </trkpt>
      <trkpt lat="50.03307" lon="3.46984">
        <ele>126.2</ele>
        <time>2023-08-06T13:35:21Z</time>
      </trkpt>
      <trkpt lat="50.03293" lon="3.46986">
        <ele>126.6</ele>
        <time>2023-08-06T13:35:26Z</time>
      </trkpt>
      <trkpt lat="50.0328" lon="3.4699">
        <ele>127.4</ele>
        <time>2023-08-06T13:35:31Z</time>
      </trkpt>
      <trkpt lat="50.03277" lon="3.4699">
        <ele>127.8</ele>
        <time>2023-08-06T13:35:32Z</time>
      </trkpt>
      <trkpt lat="50.03275" lon="3.46991">
        <ele>128</ele>
        <time>2023-08-06T13:35:33Z</time>
      </trkpt>
      <trkpt lat="50.03272" lon="3.46991">
        <ele>128.2</ele>
        <time>2023-08-06T13:35:34Z</time>
      </trkpt>
      <trkpt lat="50.0327" lon="3.46992">
        <ele>128.4</ele>
        <time>2023-08-06T13:35:35Z</time>
      </trkpt>
      <trkpt lat="50.03267" lon="3.46992">
        <ele>128.6</ele>
        <time>2023-08-06T13:35:36Z</time>
      </trkpt>
      <trkpt lat="50.03265" lon="3.46993">
        <ele>128.6</ele>
        <time>2023-08-06T13:35:37Z</time>
      </trkpt>
      <trkpt lat="50.03263" lon="3.46993">
        <ele>128.6</ele>
        <time>2023-08-06T13:35:38Z</time>
      </trkpt>
      <trkpt lat="50.03261" lon="3.46993">
        <ele>128.8</ele>
        <time>2023-08-06T13:35:39Z</time>
      </trkpt>
      <trkpt lat="50.03258" lon="3.46994">
        <ele>129.2</ele>
        <time>2023-08-06T13:35:40Z</time>
      </trkpt>
      <trkpt lat="50.03255" lon="3.46994">
        <ele>129.2</ele>
        <time>2023-08-06T13:35:41Z</time>
      </trkpt>
      <trkpt lat="50.03253" lon="3.46995">
        <ele>129.4</ele>
        <time>2023-08-06T13:35:42Z</time>
      </trkpt>
      <trkpt lat="50.0325" lon="3.46995">
        <ele>129.4</ele>
        <time>2023-08-06T13:35:43Z</time>
      </trkpt>
      <trkpt lat="50.03248" lon="3.46995">
        <ele>129.6</ele>
        <time>2023-08-06T13:35:44Z</time>
      </trkpt>
      <trkpt lat="50.03246" lon="3.46996">
        <ele>129.8</ele>
        <time>2023-08-06T13:35:45Z</time>
      </trkpt>
      <trkpt lat="50.03243" lon="3.46996">
        <ele>130</ele>
        <time>2023-08-06T13:35:46Z</time>
      </trkpt>
      <trkpt lat="50.0324" lon="3.46996">
        <ele>130</ele>
        <time>2023-08-06T13:35:47Z</time>
      </trkpt>
      <trkpt lat="50.0324" lon="3.46996">
        <ele>130.2</ele>
        <time>2023-08-06T13:35:48Z</time>
      </trkpt>
      <trkpt lat="50.03236" lon="3.46992">
        <ele>130.4</ele>
        <time>2023-08-06T13:35:49Z</time>
      </trkpt>
      <trkpt lat="50.03234" lon="3.46988">
        <ele>130.4</ele>
        <time>2023-08-06T13:35:50Z</time>
      </trkpt>
      <trkpt lat="50.03233" lon="3.46983">
        <ele>130.6</ele>
        <time>2023-08-06T13:35:51Z</time>
      </trkpt>
      <trkpt lat="50.03233" lon="3.46979">
        <ele>130.8</ele>
        <time>2023-08-06T13:35:52Z</time>
      </trkpt>
      <trkpt lat="50.03232" lon="3.46975">
        <ele>130.8</ele>
        <time>2023-08-06T13:35:53Z</time>
      </trkpt>
      <trkpt lat="50.03232" lon="3.4697">
        <ele>131</ele>
        <time>2023-08-06T13:35:54Z</time>
      </trkpt>
      <trkpt lat="50.03231" lon="3.46965">
        <ele>131</ele>
        <time>2023-08-06T13:35:55Z</time>
      </trkpt>
      <trkpt lat="50.0323" lon="3.46961">
        <ele>131</ele>
        <time>2023-08-06T13:35:56Z</time>
      </trkpt>
      <trkpt lat="50.0323" lon="3.46956">
        <ele>131</ele>
        <time>2023-08-06T13:35:57Z</time>
      </trkpt>
      <trkpt lat="50.03229" lon="3.4695">
        <ele>131</ele>
        <time>2023-08-06T13:35:58Z</time>
      </trkpt>
      <trkpt lat="50.03228" lon="3.46944">
        <ele>131</ele>
        <time>2023-08-06T13:35:59Z</time>
      </trkpt>
      <trkpt lat="50.03228" lon="3.46938">
        <ele>131</ele>
        <time>2023-08-06T13:36:00Z</time>
      </trkpt>
      <trkpt lat="50.03228" lon="3.46931">
        <ele>131</ele>
        <time>2023-08-06T13:36:01Z</time>
      </trkpt>
      <trkpt lat="50.03227" lon="3.46924">
        <ele>131</ele>
        <time>2023-08-06T13:36:02Z</time>
      </trkpt>
      <trkpt lat="50.03226" lon="3.46916">
        <ele>131</ele>
        <time>2023-08-06T13:36:03Z</time>
      </trkpt>
      <trkpt lat="50.03224" lon="3.46909">
        <ele>130.8</ele>
        <time>2023-08-06T13:36:04Z</time>
      </trkpt>
      <trkpt lat="50.0322" lon="3.46904">
        <ele>130.8</ele>
        <time>2023-08-06T13:36:05Z</time>
      </trkpt>
      <trkpt lat="50.03215" lon="3.46899">
        <ele>130.8</ele>
        <time>2023-08-06T13:36:06Z</time>
      </trkpt>
      <trkpt lat="50.03205" lon="3.46898">
        <ele>130</ele>
        <time>2023-08-06T13:36:08Z</time>
      </trkpt>
      <trkpt lat="50.032" lon="3.46899">
        <ele>129.6</ele>
        <time>2023-08-06T13:36:09Z</time>
      </trkpt>
      <trkpt lat="50.03196" lon="3.469">
        <ele>129.2</ele>
        <time>2023-08-06T13:36:10Z</time>
      </trkpt>
      <trkpt lat="50.03192" lon="3.469">
        <ele>129</ele>
        <time>2023-08-06T13:36:11Z</time>
      </trkpt>
      <trkpt lat="50.03188" lon="3.46901">
        <ele>128.6</ele>
        <time>2023-08-06T13:36:12Z</time>
      </trkpt>
      <trkpt lat="50.03183" lon="3.46902">
        <ele>128.4</ele>
        <time>2023-08-06T13:36:13Z</time>
      </trkpt>
      <trkpt lat="50.03179" lon="3.46904">
        <ele>128.2</ele>
        <time>2023-08-06T13:36:14Z</time>
      </trkpt>
      <trkpt lat="50.03175" lon="3.46905">
        <ele>128.2</ele>
        <time>2023-08-06T13:36:15Z</time>
      </trkpt>
      <trkpt lat="50.03175" lon="3.46905">
        <ele>128.2</ele>
        <time>2023-08-06T13:36:16Z</time>
      </trkpt>
      <trkpt lat="50.03166" lon="3.46907">
        <ele>128</ele>
        <time>2023-08-06T13:36:17Z</time>
      </trkpt>
      <trkpt lat="50.03161" lon="3.46909">
        <ele>128</ele>
        <time>2023-08-06T13:36:18Z</time>
      </trkpt>
      <trkpt lat="50.03157" lon="3.4691">
        <ele>128</ele>
        <time>2023-08-06T13:36:19Z</time>
      </trkpt>
      <trkpt lat="50.03147" lon="3.46912">
        <ele>128</ele>
        <time>2023-08-06T13:36:21Z</time>
      </trkpt>
      <trkpt lat="50.03138" lon="3.46911">
        <ele>128</ele>
        <time>2023-08-06T13:36:23Z</time>
      </trkpt>
      <trkpt lat="50.03115" lon="3.46896">
        <ele>127.8</ele>
        <time>2023-08-06T13:36:27Z</time>
      </trkpt>
      <trkpt lat="50.03082" lon="3.4686">
        <ele>127.2</ele>
        <time>2023-08-06T13:36:32Z</time>
      </trkpt>
      <trkpt lat="50.03067" lon="3.46843">
        <ele>126.4</ele>
        <time>2023-08-06T13:36:34Z</time>
      </trkpt>
      <trkpt lat="50.03059" lon="3.46835">
        <ele>125.6</ele>
        <time>2023-08-06T13:36:35Z</time>
      </trkpt>
      <trkpt lat="50.03034" lon="3.46808">
        <ele>124</ele>
        <time>2023-08-06T13:36:38Z</time>
      </trkpt>
      <trkpt lat="50.03016" lon="3.46789">
        <ele>123</ele>
        <time>2023-08-06T13:36:40Z</time>
      </trkpt>
      <trkpt lat="50.02998" lon="3.4677">
        <ele>121.6</ele>
        <time>2023-08-06T13:36:42Z</time>
      </trkpt>
      <trkpt lat="50.0298" lon="3.46752">
        <ele>120</ele>
        <time>2023-08-06T13:36:44Z</time>
      </trkpt>
      <trkpt lat="50.02963" lon="3.46735">
        <ele>118.6</ele>
        <time>2023-08-06T13:36:46Z</time>
      </trkpt>
      <trkpt lat="50.02955" lon="3.46728">
        <ele>118.2</ele>
        <time>2023-08-06T13:36:47Z</time>
      </trkpt>
      <trkpt lat="50.02947" lon="3.46721">
        <ele>117.4</ele>
        <time>2023-08-06T13:36:48Z</time>
      </trkpt>
      <trkpt lat="50.02939" lon="3.46714">
        <ele>117</ele>
        <time>2023-08-06T13:36:49Z</time>
      </trkpt>
      <trkpt lat="50.02932" lon="3.46707">
        <ele>116.4</ele>
        <time>2023-08-06T13:36:50Z</time>
      </trkpt>
      <trkpt lat="50.02925" lon="3.467">
        <ele>115.6</ele>
        <time>2023-08-06T13:36:51Z</time>
      </trkpt>
      <trkpt lat="50.02918" lon="3.46693">
        <ele>115.2</ele>
        <time>2023-08-06T13:36:52Z</time>
      </trkpt>
      <trkpt lat="50.02918" lon="3.46693">
        <ele>115</ele>
        <time>2023-08-06T13:36:53Z</time>
      </trkpt>
      <trkpt lat="50.02904" lon="3.46681">
        <ele>114.8</ele>
        <time>2023-08-06T13:36:54Z</time>
      </trkpt>
      <trkpt lat="50.02898" lon="3.46676">
        <ele>114.2</ele>
        <time>2023-08-06T13:36:55Z</time>
      </trkpt>
      <trkpt lat="50.02892" lon="3.46671">
        <ele>114</ele>
        <time>2023-08-06T13:36:56Z</time>
      </trkpt>
      <trkpt lat="50.02885" lon="3.46666">
        <ele>113.8</ele>
        <time>2023-08-06T13:36:57Z</time>
      </trkpt>
      <trkpt lat="50.02879" lon="3.46662">
        <ele>113.6</ele>
        <time>2023-08-06T13:36:58Z</time>
      </trkpt>
      <trkpt lat="50.02872" lon="3.46659">
        <ele>113.6</ele>
        <time>2023-08-06T13:36:59Z</time>
      </trkpt>
      <trkpt lat="50.02866" lon="3.46657">
        <ele>113.4</ele>
        <time>2023-08-06T13:37:00Z</time>
      </trkpt>
      <trkpt lat="50.0286" lon="3.46657">
        <ele>113.4</ele>
        <time>2023-08-06T13:37:01Z</time>
      </trkpt>
      <trkpt lat="50.02854" lon="3.46657">
        <ele>113.2</ele>
        <time>2023-08-06T13:37:02Z</time>
      </trkpt>
      <trkpt lat="50.02848" lon="3.46657">
        <ele>113.2</ele>
        <time>2023-08-06T13:37:03Z</time>
      </trkpt>
      <trkpt lat="50.02842" lon="3.46657">
        <ele>113.2</ele>
        <time>2023-08-06T13:37:04Z</time>
      </trkpt>
      <trkpt lat="50.02837" lon="3.46658">
        <ele>113.2</ele>
        <time>2023-08-06T13:37:05Z</time>
      </trkpt>
      <trkpt lat="50.02832" lon="3.46659">
        <ele>113.2</ele>
        <time>2023-08-06T13:37:06Z</time>
      </trkpt>
      <trkpt lat="50.02826" lon="3.4666">
        <ele>113.2</ele>
        <time>2023-08-06T13:37:07Z</time>
      </trkpt>
      <trkpt lat="50.02811" lon="3.46662">
        <ele>113.4</ele>
        <time>2023-08-06T13:37:10Z</time>
      </trkpt>
      <trkpt lat="50.02806" lon="3.46662">
        <ele>113.4</ele>
        <time>2023-08-06T13:37:11Z</time>
      </trkpt>
      <trkpt lat="50.02801" lon="3.46663">
        <ele>113.4</ele>
        <time>2023-08-06T13:37:12Z</time>
      </trkpt>
      <trkpt lat="50.02796" lon="3.46663">
        <ele>113.6</ele>
        <time>2023-08-06T13:37:13Z</time>
      </trkpt>
      <trkpt lat="50.02786" lon="3.46664">
        <ele>113.8</ele>
        <time>2023-08-06T13:37:15Z</time>
      </trkpt>
      <trkpt lat="50.02781" lon="3.46665">
        <ele>113.8</ele>
        <time>2023-08-06T13:37:16Z</time>
      </trkpt>
      <trkpt lat="50.02777" lon="3.46665">
        <ele>113.8</ele>
        <time>2023-08-06T13:37:17Z</time>
      </trkpt>
      <trkpt lat="50.02772" lon="3.46665">
        <ele>114</ele>
        <time>2023-08-06T13:37:18Z</time>
      </trkpt>
      <trkpt lat="50.02768" lon="3.46666">
        <ele>114</ele>
        <time>2023-08-06T13:37:19Z</time>
      </trkpt>
      <trkpt lat="50.02764" lon="3.46667">
        <ele>114</ele>
        <time>2023-08-06T13:37:20Z</time>
      </trkpt>
      <trkpt lat="50.02759" lon="3.46667">
        <ele>114.2</ele>
        <time>2023-08-06T13:37:21Z</time>
      </trkpt>
      <trkpt lat="50.02755" lon="3.46668">
        <ele>114.2</ele>
        <time>2023-08-06T13:37:22Z</time>
      </trkpt>
      <trkpt lat="50.02751" lon="3.46667">
        <ele>114.4</ele>
        <time>2023-08-06T13:37:23Z</time>
      </trkpt>
      <trkpt lat="50.02747" lon="3.46667">
        <ele>114.4</ele>
        <time>2023-08-06T13:37:24Z</time>
      </trkpt>
      <trkpt lat="50.02743" lon="3.46668">
        <ele>114.4</ele>
        <time>2023-08-06T13:37:25Z</time>
      </trkpt>
      <trkpt lat="50.02739" lon="3.46668">
        <ele>114.4</ele>
        <time>2023-08-06T13:37:26Z</time>
      </trkpt>
      <trkpt lat="50.02734" lon="3.46669">
        <ele>114.6</ele>
        <time>2023-08-06T13:37:27Z</time>
      </trkpt>
      <trkpt lat="50.0273" lon="3.46669">
        <ele>114.6</ele>
        <time>2023-08-06T13:37:28Z</time>
      </trkpt>
      <trkpt lat="50.02726" lon="3.46669">
        <ele>114.8</ele>
        <time>2023-08-06T13:37:29Z</time>
      </trkpt>
      <trkpt lat="50.02721" lon="3.46671">
        <ele>114.8</ele>
        <time>2023-08-06T13:37:30Z</time>
      </trkpt>
      <trkpt lat="50.02704" lon="3.4667">
        <ele>115</ele>
        <time>2023-08-06T13:37:34Z</time>
      </trkpt>
      <trkpt lat="50.02696" lon="3.46671">
        <ele>115</ele>
        <time>2023-08-06T13:37:36Z</time>
      </trkpt>
      <trkpt lat="50.02692" lon="3.46671">
        <ele>115.2</ele>
        <time>2023-08-06T13:37:37Z</time>
      </trkpt>
      <trkpt lat="50.02689" lon="3.46671">
        <ele>115.4</ele>
        <time>2023-08-06T13:37:38Z</time>
      </trkpt>
      <trkpt lat="50.02686" lon="3.46671">
        <ele>115.6</ele>
        <time>2023-08-06T13:37:39Z</time>
      </trkpt>
      <trkpt lat="50.02683" lon="3.46672">
        <ele>115.6</ele>
        <time>2023-08-06T13:37:40Z</time>
      </trkpt>
      <trkpt lat="50.0268" lon="3.46672">
        <ele>115.8</ele>
        <time>2023-08-06T13:37:41Z</time>
      </trkpt>
      <trkpt lat="50.02677" lon="3.46672">
        <ele>115.8</ele>
        <time>2023-08-06T13:37:42Z</time>
      </trkpt>
      <trkpt lat="50.02672" lon="3.46673">
        <ele>116</ele>
        <time>2023-08-06T13:37:44Z</time>
      </trkpt>
      <trkpt lat="50.02669" lon="3.46673">
        <ele>116.2</ele>
        <time>2023-08-06T13:37:45Z</time>
      </trkpt>
      <trkpt lat="50.02666" lon="3.46674">
        <ele>116.2</ele>
        <time>2023-08-06T13:37:46Z</time>
      </trkpt>
      <trkpt lat="50.02663" lon="3.46674">
        <ele>116.4</ele>
        <time>2023-08-06T13:37:47Z</time>
      </trkpt>
      <trkpt lat="50.0266" lon="3.46675">
        <ele>116.2</ele>
        <time>2023-08-06T13:37:48Z</time>
      </trkpt>
      <trkpt lat="50.02658" lon="3.46675">
        <ele>116.4</ele>
        <time>2023-08-06T13:37:49Z</time>
      </trkpt>
      <trkpt lat="50.02656" lon="3.46675">
        <ele>116.4</ele>
        <time>2023-08-06T13:37:50Z</time>
      </trkpt>
      <trkpt lat="50.02653" lon="3.46676">
        <ele>116.4</ele>
        <time>2023-08-06T13:37:51Z</time>
      </trkpt>
      <trkpt lat="50.0265" lon="3.46676">
        <ele>116.6</ele>
        <time>2023-08-06T13:37:52Z</time>
      </trkpt>
      <trkpt lat="50.02648" lon="3.46676">
        <ele>116.6</ele>
        <time>2023-08-06T13:37:53Z</time>
      </trkpt>
      <trkpt lat="50.02645" lon="3.46676">
        <ele>116.8</ele>
        <time>2023-08-06T13:37:54Z</time>
      </trkpt>
      <trkpt lat="50.02643" lon="3.46676">
        <ele>117</ele>
        <time>2023-08-06T13:37:55Z</time>
      </trkpt>
      <trkpt lat="50.02641" lon="3.46676">
        <ele>117</ele>
        <time>2023-08-06T13:37:56Z</time>
      </trkpt>
      <trkpt lat="50.02638" lon="3.46676">
        <ele>117.2</ele>
        <time>2023-08-06T13:37:57Z</time>
      </trkpt>
      <trkpt lat="50.02636" lon="3.46676">
        <ele>117.2</ele>
        <time>2023-08-06T13:37:58Z</time>
      </trkpt>
      <trkpt lat="50.02626" lon="3.46676">
        <ele>118</ele>
        <time>2023-08-06T13:38:02Z</time>
      </trkpt>
      <trkpt lat="50.02624" lon="3.46676">
        <ele>118.2</ele>
        <time>2023-08-06T13:38:03Z</time>
      </trkpt>
      <trkpt lat="50.02622" lon="3.46677">
        <ele>118.4</ele>
        <time>2023-08-06T13:38:04Z</time>
      </trkpt>
      <trkpt lat="50.0262" lon="3.46676">
        <ele>118.4</ele>
        <time>2023-08-06T13:38:05Z</time>
      </trkpt>
      <trkpt lat="50.02618" lon="3.46677">
        <ele>118.8</ele>
        <time>2023-08-06T13:38:06Z</time>
      </trkpt>
      <trkpt lat="50.02615" lon="3.46677">
        <ele>118.8</ele>
        <time>2023-08-06T13:38:07Z</time>
      </trkpt>
      <trkpt lat="50.02613" lon="3.46677">
        <ele>119</ele>
        <time>2023-08-06T13:38:08Z</time>
      </trkpt>
      <trkpt lat="50.0261" lon="3.46677">
        <ele>119.2</ele>
        <time>2023-08-06T13:38:09Z</time>
      </trkpt>
      <trkpt lat="50.02607" lon="3.46677">
        <ele>119.4</ele>
        <time>2023-08-06T13:38:10Z</time>
      </trkpt>
      <trkpt lat="50.02605" lon="3.46676">
        <ele>119.4</ele>
        <time>2023-08-06T13:38:11Z</time>
      </trkpt>
      <trkpt lat="50.02603" lon="3.46676">
        <ele>119.4</ele>
        <time>2023-08-06T13:38:12Z</time>
      </trkpt>
      <trkpt lat="50.02601" lon="3.46676">
        <ele>119.6</ele>
        <time>2023-08-06T13:38:13Z</time>
      </trkpt>
      <trkpt lat="50.02599" lon="3.46676">
        <ele>119.6</ele>
        <time>2023-08-06T13:38:14Z</time>
      </trkpt>
      <trkpt lat="50.02596" lon="3.46676">
        <ele>119.8</ele>
        <time>2023-08-06T13:38:15Z</time>
      </trkpt>
      <trkpt lat="50.02594" lon="3.46676">
        <ele>120</ele>
        <time>2023-08-06T13:38:16Z</time>
      </trkpt>
      <trkpt lat="50.02591" lon="3.46676">
        <ele>120.2</ele>
        <time>2023-08-06T13:38:17Z</time>
      </trkpt>
      <trkpt lat="50.02589" lon="3.46676">
        <ele>120.2</ele>
        <time>2023-08-06T13:38:18Z</time>
      </trkpt>
      <trkpt lat="50.02586" lon="3.46675">
        <ele>120.4</ele>
        <time>2023-08-06T13:38:19Z</time>
      </trkpt>
      <trkpt lat="50.02585" lon="3.46675">
        <ele>120.4</ele>
        <time>2023-08-06T13:38:20Z</time>
      </trkpt>
      <trkpt lat="50.02582" lon="3.46675">
        <ele>120.4</ele>
        <time>2023-08-06T13:38:21Z</time>
      </trkpt>
      <trkpt lat="50.0258" lon="3.46674">
        <ele>120.6</ele>
        <time>2023-08-06T13:38:22Z</time>
      </trkpt>
      <trkpt lat="50.02577" lon="3.46675">
        <ele>120.8</ele>
        <time>2023-08-06T13:38:23Z</time>
      </trkpt>
      <trkpt lat="50.02574" lon="3.46675">
        <ele>121</ele>
        <time>2023-08-06T13:38:24Z</time>
      </trkpt>
      <trkpt lat="50.02572" lon="3.46675">
        <ele>121.2</ele>
        <time>2023-08-06T13:38:25Z</time>
      </trkpt>
      <trkpt lat="50.02569" lon="3.46676">
        <ele>121.4</ele>
        <time>2023-08-06T13:38:26Z</time>
      </trkpt>
      <trkpt lat="50.02566" lon="3.46675">
        <ele>121.6</ele>
        <time>2023-08-06T13:38:27Z</time>
      </trkpt>
      <trkpt lat="50.02563" lon="3.46675">
        <ele>121.6</ele>
        <time>2023-08-06T13:38:28Z</time>
      </trkpt>
      <trkpt lat="50.02561" lon="3.46674">
        <ele>121.8</ele>
        <time>2023-08-06T13:38:29Z</time>
      </trkpt>
      <trkpt lat="50.02558" lon="3.46674">
        <ele>121.8</ele>
        <time>2023-08-06T13:38:30Z</time>
      </trkpt>
      <trkpt lat="50.02555" lon="3.46674">
        <ele>122</ele>
        <time>2023-08-06T13:38:31Z</time>
      </trkpt>
      <trkpt lat="50.02553" lon="3.46674">
        <ele>122.2</ele>
        <time>2023-08-06T13:38:32Z</time>
      </trkpt>
      <trkpt lat="50.0255" lon="3.46673">
        <ele>122.4</ele>
        <time>2023-08-06T13:38:33Z</time>
      </trkpt>
      <trkpt lat="50.02548" lon="3.46673">
        <ele>122.4</ele>
        <time>2023-08-06T13:38:34Z</time>
      </trkpt>
      <trkpt lat="50.02545" lon="3.46673">
        <ele>122.6</ele>
        <time>2023-08-06T13:38:35Z</time>
      </trkpt>
      <trkpt lat="50.02543" lon="3.46672">
        <ele>122.8</ele>
        <time>2023-08-06T13:38:36Z</time>
      </trkpt>
      <trkpt lat="50.0254" lon="3.4667">
        <ele>122.8</ele>
        <time>2023-08-06T13:38:37Z</time>
      </trkpt>
      <trkpt lat="50.02537" lon="3.46669">
        <ele>122.8</ele>
        <time>2023-08-06T13:38:38Z</time>
      </trkpt>
      <trkpt lat="50.02535" lon="3.46668">
        <ele>122.8</ele>
        <time>2023-08-06T13:38:39Z</time>
      </trkpt>
      <trkpt lat="50.02532" lon="3.46669">
        <ele>123</ele>
        <time>2023-08-06T13:38:40Z</time>
      </trkpt>
      <trkpt lat="50.02529" lon="3.46669">
        <ele>123</ele>
        <time>2023-08-06T13:38:41Z</time>
      </trkpt>
      <trkpt lat="50.02527" lon="3.46671">
        <ele>123.2</ele>
        <time>2023-08-06T13:38:42Z</time>
      </trkpt>
      <trkpt lat="50.02524" lon="3.46672">
        <ele>123.4</ele>
        <time>2023-08-06T13:38:43Z</time>
      </trkpt>
      <trkpt lat="50.02522" lon="3.46672">
        <ele>123.6</ele>
        <time>2023-08-06T13:38:44Z</time>
      </trkpt>
      <trkpt lat="50.0252" lon="3.46672">
        <ele>123.6</ele>
        <time>2023-08-06T13:38:45Z</time>
      </trkpt>
      <trkpt lat="50.02517" lon="3.46672">
        <ele>123.8</ele>
        <time>2023-08-06T13:38:46Z</time>
      </trkpt>
      <trkpt lat="50.02514" lon="3.46672">
        <ele>123.8</ele>
        <time>2023-08-06T13:38:47Z</time>
      </trkpt>
      <trkpt lat="50.02512" lon="3.46672">
        <ele>124</ele>
        <time>2023-08-06T13:38:48Z</time>
      </trkpt>
      <trkpt lat="50.02509" lon="3.46671">
        <ele>124</ele>
        <time>2023-08-06T13:38:49Z</time>
      </trkpt>
      <trkpt lat="50.02507" lon="3.46671">
        <ele>124</ele>
        <time>2023-08-06T13:38:50Z</time>
      </trkpt>
      <trkpt lat="50.02504" lon="3.4667">
        <ele>124.2</ele>
        <time>2023-08-06T13:38:51Z</time>
      </trkpt>
      <trkpt lat="50.02501" lon="3.4667">
        <ele>124.4</ele>
        <time>2023-08-06T13:38:52Z</time>
      </trkpt>
      <trkpt lat="50.02499" lon="3.4667">
        <ele>124.4</ele>
        <time>2023-08-06T13:38:53Z</time>
      </trkpt>
      <trkpt lat="50.02497" lon="3.46669">
        <ele>124.6</ele>
        <time>2023-08-06T13:38:54Z</time>
      </trkpt>
      <trkpt lat="50.02494" lon="3.46668">
        <ele>124.8</ele>
        <time>2023-08-06T13:38:55Z</time>
      </trkpt>
      <trkpt lat="50.02491" lon="3.46668">
        <ele>124.8</ele>
        <time>2023-08-06T13:38:56Z</time>
      </trkpt>
      <trkpt lat="50.02489" lon="3.46668">
        <ele>125</ele>
        <time>2023-08-06T13:38:57Z</time>
      </trkpt>
      <trkpt lat="50.02486" lon="3.46668">
        <ele>125</ele>
        <time>2023-08-06T13:38:58Z</time>
      </trkpt>
      <trkpt lat="50.02483" lon="3.46668">
        <ele>125</ele>
        <time>2023-08-06T13:38:59Z</time>
      </trkpt>
      <trkpt lat="50.02481" lon="3.46668">
        <ele>125.2</ele>
        <time>2023-08-06T13:39:00Z</time>
      </trkpt>
      <trkpt lat="50.02478" lon="3.46668">
        <ele>125.2</ele>
        <time>2023-08-06T13:39:01Z</time>
      </trkpt>
      <trkpt lat="50.02476" lon="3.46668">
        <ele>125.4</ele>
        <time>2023-08-06T13:39:02Z</time>
      </trkpt>
      <trkpt lat="50.02473" lon="3.46667">
        <ele>125.4</ele>
        <time>2023-08-06T13:39:03Z</time>
      </trkpt>
      <trkpt lat="50.02471" lon="3.46667">
        <ele>125.6</ele>
        <time>2023-08-06T13:39:04Z</time>
      </trkpt>
      <trkpt lat="50.02468" lon="3.46666">
        <ele>126</ele>
        <time>2023-08-06T13:39:05Z</time>
      </trkpt>
      <trkpt lat="50.02466" lon="3.46666">
        <ele>126.2</ele>
        <time>2023-08-06T13:39:06Z</time>
      </trkpt>
      <trkpt lat="50.02462" lon="3.46665">
        <ele>126.4</ele>
        <time>2023-08-06T13:39:07Z</time>
      </trkpt>
      <trkpt lat="50.0246" lon="3.46665">
        <ele>126.6</ele>
        <time>2023-08-06T13:39:08Z</time>
      </trkpt>
      <trkpt lat="50.02457" lon="3.46665">
        <ele>126.8</ele>
        <time>2023-08-06T13:39:09Z</time>
      </trkpt>
      <trkpt lat="50.02455" lon="3.46665">
        <ele>126.8</ele>
        <time>2023-08-06T13:39:10Z</time>
      </trkpt>
      <trkpt lat="50.02452" lon="3.46665">
        <ele>126.8</ele>
        <time>2023-08-06T13:39:11Z</time>
      </trkpt>
      <trkpt lat="50.0245" lon="3.46665">
        <ele>127</ele>
        <time>2023-08-06T13:39:12Z</time>
      </trkpt>
      <trkpt lat="50.02447" lon="3.46665">
        <ele>127.2</ele>
        <time>2023-08-06T13:39:13Z</time>
      </trkpt>
      <trkpt lat="50.02445" lon="3.46664">
        <ele>127.2</ele>
        <time>2023-08-06T13:39:14Z</time>
      </trkpt>
      <trkpt lat="50.02442" lon="3.46664">
        <ele>127.4</ele>
        <time>2023-08-06T13:39:15Z</time>
      </trkpt>
      <trkpt lat="50.0244" lon="3.46664">
        <ele>127.6</ele>
        <time>2023-08-06T13:39:16Z</time>
      </trkpt>
      <trkpt lat="50.02437" lon="3.46663">
        <ele>127.6</ele>
        <time>2023-08-06T13:39:17Z</time>
      </trkpt>
      <trkpt lat="50.02434" lon="3.46663">
        <ele>127.6</ele>
        <time>2023-08-06T13:39:18Z</time>
      </trkpt>
      <trkpt lat="50.02432" lon="3.46662">
        <ele>127.8</ele>
        <time>2023-08-06T13:39:19Z</time>
      </trkpt>
      <trkpt lat="50.02429" lon="3.46662">
        <ele>127.8</ele>
        <time>2023-08-06T13:39:20Z</time>
      </trkpt>
      <trkpt lat="50.02427" lon="3.46661">
        <ele>128</ele>
        <time>2023-08-06T13:39:21Z</time>
      </trkpt>
      <trkpt lat="50.02424" lon="3.4666">
        <ele>128</ele>
        <time>2023-08-06T13:39:22Z</time>
      </trkpt>
      <trkpt lat="50.02421" lon="3.4666">
        <ele>128.4</ele>
        <time>2023-08-06T13:39:23Z</time>
      </trkpt>
      <trkpt lat="50.02419" lon="3.46659">
        <ele>128.6</ele>
        <time>2023-08-06T13:39:24Z</time>
      </trkpt>
      <trkpt lat="50.02416" lon="3.46657">
        <ele>128.6</ele>
        <time>2023-08-06T13:39:25Z</time>
      </trkpt>
      <trkpt lat="50.02413" lon="3.46656">
        <ele>129</ele>
        <time>2023-08-06T13:39:26Z</time>
      </trkpt>
      <trkpt lat="50.02411" lon="3.46656">
        <ele>129</ele>
        <time>2023-08-06T13:39:27Z</time>
      </trkpt>
      <trkpt lat="50.02408" lon="3.46655">
        <ele>129.2</ele>
        <time>2023-08-06T13:39:28Z</time>
      </trkpt>
      <trkpt lat="50.02406" lon="3.46655">
        <ele>129.2</ele>
        <time>2023-08-06T13:39:29Z</time>
      </trkpt>
      <trkpt lat="50.02403" lon="3.46656">
        <ele>129.4</ele>
        <time>2023-08-06T13:39:30Z</time>
      </trkpt>
      <trkpt lat="50.02401" lon="3.46657">
        <ele>129.6</ele>
        <time>2023-08-06T13:39:31Z</time>
      </trkpt>
      <trkpt lat="50.02398" lon="3.46659">
        <ele>129.6</ele>
        <time>2023-08-06T13:39:32Z</time>
      </trkpt>
      <trkpt lat="50.02396" lon="3.46661">
        <ele>129.6</ele>
        <time>2023-08-06T13:39:33Z</time>
      </trkpt>
      <trkpt lat="50.02394" lon="3.46665">
        <ele>129.6</ele>
        <time>2023-08-06T13:39:34Z</time>
      </trkpt>
      <trkpt lat="50.02393" lon="3.46668">
        <ele>129.8</ele>
        <time>2023-08-06T13:39:35Z</time>
      </trkpt>
      <trkpt lat="50.02391" lon="3.46671">
        <ele>129.8</ele>
        <time>2023-08-06T13:39:36Z</time>
      </trkpt>
      <trkpt lat="50.02389" lon="3.46674">
        <ele>129.8</ele>
        <time>2023-08-06T13:39:37Z</time>
      </trkpt>
      <trkpt lat="50.02388" lon="3.46677">
        <ele>129.8</ele>
        <time>2023-08-06T13:39:38Z</time>
      </trkpt>
      <trkpt lat="50.02386" lon="3.46681">
        <ele>129.8</ele>
        <time>2023-08-06T13:39:39Z</time>
      </trkpt>
      <trkpt lat="50.02384" lon="3.46684">
        <ele>129.8</ele>
        <time>2023-08-06T13:39:40Z</time>
      </trkpt>
      <trkpt lat="50.02382" lon="3.46687">
        <ele>129.8</ele>
        <time>2023-08-06T13:39:41Z</time>
      </trkpt>
      <trkpt lat="50.02381" lon="3.4669">
        <ele>129.8</ele>
        <time>2023-08-06T13:39:42Z</time>
      </trkpt>
      <trkpt lat="50.02379" lon="3.46694">
        <ele>129.8</ele>
        <time>2023-08-06T13:39:43Z</time>
      </trkpt>
      <trkpt lat="50.02374" lon="3.46704">
        <ele>130</ele>
        <time>2023-08-06T13:39:46Z</time>
      </trkpt>
      <trkpt lat="50.02371" lon="3.46709">
        <ele>130</ele>
        <time>2023-08-06T13:39:48Z</time>
      </trkpt>
      <trkpt lat="50.02365" lon="3.46718">
        <ele>130.2</ele>
        <time>2023-08-06T13:39:51Z</time>
      </trkpt>
      <trkpt lat="50.02363" lon="3.46721">
        <ele>130.2</ele>
        <time>2023-08-06T13:39:52Z</time>
      </trkpt>
      <trkpt lat="50.02343" lon="3.46752">
        <ele>130.2</ele>
        <time>2023-08-06T13:40:01Z</time>
      </trkpt>
      <trkpt lat="50.0232" lon="3.46789">
        <ele>130.8</ele>
        <time>2023-08-06T13:40:11Z</time>
      </trkpt>
      <trkpt lat="50.02316" lon="3.46796">
        <ele>131</ele>
        <time>2023-08-06T13:40:13Z</time>
      </trkpt>
      <trkpt lat="50.02314" lon="3.46799">
        <ele>131.2</ele>
        <time>2023-08-06T13:40:14Z</time>
      </trkpt>
      <trkpt lat="50.02307" lon="3.4681">
        <ele>131.2</ele>
        <time>2023-08-06T13:40:17Z</time>
      </trkpt>
      <trkpt lat="50.02305" lon="3.46814">
        <ele>131.4</ele>
        <time>2023-08-06T13:40:18Z</time>
      </trkpt>
      <trkpt lat="50.02298" lon="3.46825">
        <ele>131.6</ele>
        <time>2023-08-06T13:40:21Z</time>
      </trkpt>
      <trkpt lat="50.02281" lon="3.46853">
        <ele>131.6</ele>
        <time>2023-08-06T13:40:29Z</time>
      </trkpt>
      <trkpt lat="50.02252" lon="3.46899">
        <ele>131.4</ele>
        <time>2023-08-06T13:40:42Z</time>
      </trkpt>
      <trkpt lat="50.02244" lon="3.46911">
        <ele>132.2</ele>
        <time>2023-08-06T13:40:45Z</time>
      </trkpt>
      <trkpt lat="50.02236" lon="3.46919">
        <ele>133.2</ele>
        <time>2023-08-06T13:40:48Z</time>
      </trkpt>
      <trkpt lat="50.02231" lon="3.46924">
        <ele>133.6</ele>
        <time>2023-08-06T13:40:50Z</time>
      </trkpt>
      <trkpt lat="50.02222" lon="3.46931">
        <ele>134</ele>
        <time>2023-08-06T13:40:53Z</time>
      </trkpt>
      <trkpt lat="50.02216" lon="3.46933">
        <ele>134.2</ele>
        <time>2023-08-06T13:40:55Z</time>
      </trkpt>
      <trkpt lat="50.02213" lon="3.46934">
        <ele>134.2</ele>
        <time>2023-08-06T13:40:56Z</time>
      </trkpt>
      <trkpt lat="50.0221" lon="3.46935">
        <ele>134.2</ele>
        <time>2023-08-06T13:40:57Z</time>
      </trkpt>
      <trkpt lat="50.02207" lon="3.46937">
        <ele>134.4</ele>
        <time>2023-08-06T13:40:58Z</time>
      </trkpt>
      <trkpt lat="50.02204" lon="3.46937">
        <ele>134.4</ele>
        <time>2023-08-06T13:40:59Z</time>
      </trkpt>
      <trkpt lat="50.02202" lon="3.46938">
        <ele>134.4</ele>
        <time>2023-08-06T13:41:00Z</time>
      </trkpt>
      <trkpt lat="50.02199" lon="3.4694">
        <ele>134.4</ele>
        <time>2023-08-06T13:41:01Z</time>
      </trkpt>
      <trkpt lat="50.02197" lon="3.46941">
        <ele>134.4</ele>
        <time>2023-08-06T13:41:02Z</time>
      </trkpt>
      <trkpt lat="50.02194" lon="3.46941">
        <ele>134.6</ele>
        <time>2023-08-06T13:41:03Z</time>
      </trkpt>
      <trkpt lat="50.0219" lon="3.46942">
        <ele>134.8</ele>
        <time>2023-08-06T13:41:04Z</time>
      </trkpt>
      <trkpt lat="50.02187" lon="3.46943">
        <ele>134.8</ele>
        <time>2023-08-06T13:41:05Z</time>
      </trkpt>
      <trkpt lat="50.02184" lon="3.46944">
        <ele>135</ele>
        <time>2023-08-06T13:41:06Z</time>
      </trkpt>
      <trkpt lat="50.0218" lon="3.46945">
        <ele>135</ele>
        <time>2023-08-06T13:41:07Z</time>
      </trkpt>
      <trkpt lat="50.02176" lon="3.46947">
        <ele>135.2</ele>
        <time>2023-08-06T13:41:08Z</time>
      </trkpt>
      <trkpt lat="50.02171" lon="3.46948">
        <ele>135.4</ele>
        <time>2023-08-06T13:41:09Z</time>
      </trkpt>
      <trkpt lat="50.02166" lon="3.4695">
        <ele>135.4</ele>
        <time>2023-08-06T13:41:10Z</time>
      </trkpt>
      <trkpt lat="50.0216" lon="3.46951">
        <ele>135.6</ele>
        <time>2023-08-06T13:41:11Z</time>
      </trkpt>
      <trkpt lat="50.02154" lon="3.46953">
        <ele>135.6</ele>
        <time>2023-08-06T13:41:12Z</time>
      </trkpt>
      <trkpt lat="50.02147" lon="3.46955">
        <ele>135.8</ele>
        <time>2023-08-06T13:41:13Z</time>
      </trkpt>
      <trkpt lat="50.02141" lon="3.46957">
        <ele>135.8</ele>
        <time>2023-08-06T13:41:14Z</time>
      </trkpt>
      <trkpt lat="50.02134" lon="3.46959">
        <ele>135.8</ele>
        <time>2023-08-06T13:41:15Z</time>
      </trkpt>
      <trkpt lat="50.02127" lon="3.4696">
        <ele>135.8</ele>
        <time>2023-08-06T13:41:16Z</time>
      </trkpt>
      <trkpt lat="50.0212" lon="3.46962">
        <ele>135.8</ele>
        <time>2023-08-06T13:41:17Z</time>
      </trkpt>
      <trkpt lat="50.02089" lon="3.46968">
        <ele>135</ele>
        <time>2023-08-06T13:41:21Z</time>
      </trkpt>
      <trkpt lat="50.02081" lon="3.4697">
        <ele>134.8</ele>
        <time>2023-08-06T13:41:22Z</time>
      </trkpt>
      <trkpt lat="50.02073" lon="3.46971">
        <ele>134.6</ele>
        <time>2023-08-06T13:41:23Z</time>
      </trkpt>
      <trkpt lat="50.02065" lon="3.46972">
        <ele>134.2</ele>
        <time>2023-08-06T13:41:24Z</time>
      </trkpt>
      <trkpt lat="50.0205" lon="3.46973">
        <ele>133.8</ele>
        <time>2023-08-06T13:41:26Z</time>
      </trkpt>
      <trkpt lat="50.02027" lon="3.46976">
        <ele>133.2</ele>
        <time>2023-08-06T13:41:29Z</time>
      </trkpt>
      <trkpt lat="50.02001" lon="3.46979">
        <ele>132.2</ele>
        <time>2023-08-06T13:41:32Z</time>
      </trkpt>
      <trkpt lat="50.01993" lon="3.4698">
        <ele>132.2</ele>
        <time>2023-08-06T13:41:33Z</time>
      </trkpt>
      <trkpt lat="50.01965" lon="3.46979">
        <ele>130.8</ele>
        <time>2023-08-06T13:41:36Z</time>
      </trkpt>
      <trkpt lat="50.01946" lon="3.46977">
        <ele>129.8</ele>
        <time>2023-08-06T13:41:38Z</time>
      </trkpt>
      <trkpt lat="50.01937" lon="3.46976">
        <ele>129.2</ele>
        <time>2023-08-06T13:41:39Z</time>
      </trkpt>
      <trkpt lat="50.01919" lon="3.46976">
        <ele>128.2</ele>
        <time>2023-08-06T13:41:41Z</time>
      </trkpt>
      <trkpt lat="50.0189" lon="3.46973">
        <ele>127</ele>
        <time>2023-08-06T13:41:44Z</time>
      </trkpt>
      <trkpt lat="50.01871" lon="3.46972">
        <ele>125.6</ele>
        <time>2023-08-06T13:41:46Z</time>
      </trkpt>
      <trkpt lat="50.01851" lon="3.46971">
        <ele>124.2</ele>
        <time>2023-08-06T13:41:48Z</time>
      </trkpt>
      <trkpt lat="50.01831" lon="3.46969">
        <ele>122.8</ele>
        <time>2023-08-06T13:41:50Z</time>
      </trkpt>
      <trkpt lat="50.0181" lon="3.46968">
        <ele>121.4</ele>
        <time>2023-08-06T13:41:52Z</time>
      </trkpt>
      <trkpt lat="50.01789" lon="3.46967">
        <ele>120.4</ele>
        <time>2023-08-06T13:41:54Z</time>
      </trkpt>
      <trkpt lat="50.01779" lon="3.46967">
        <ele>119.6</ele>
        <time>2023-08-06T13:41:55Z</time>
      </trkpt>
      <trkpt lat="50.01769" lon="3.46966">
        <ele>119.2</ele>
        <time>2023-08-06T13:41:56Z</time>
      </trkpt>
      <trkpt lat="50.01748" lon="3.46966">
        <ele>117.8</ele>
        <time>2023-08-06T13:41:58Z</time>
      </trkpt>
      <trkpt lat="50.01719" lon="3.46966">
        <ele>116.6</ele>
        <time>2023-08-06T13:42:01Z</time>
      </trkpt>
      <trkpt lat="50.01709" lon="3.46967">
        <ele>116.2</ele>
        <time>2023-08-06T13:42:02Z</time>
      </trkpt>
      <trkpt lat="50.017" lon="3.46967">
        <ele>115.8</ele>
        <time>2023-08-06T13:42:03Z</time>
      </trkpt>
      <trkpt lat="50.01691" lon="3.46968">
        <ele>115.2</ele>
        <time>2023-08-06T13:42:04Z</time>
      </trkpt>
      <trkpt lat="50.01682" lon="3.46967">
        <ele>115.2</ele>
        <time>2023-08-06T13:42:05Z</time>
      </trkpt>
      <trkpt lat="50.01673" lon="3.46966">
        <ele>115.2</ele>
        <time>2023-08-06T13:42:06Z</time>
      </trkpt>
      <trkpt lat="50.01665" lon="3.46965">
        <ele>115.2</ele>
        <time>2023-08-06T13:42:07Z</time>
      </trkpt>
      <trkpt lat="50.01657" lon="3.46964">
        <ele>114.8</ele>
        <time>2023-08-06T13:42:08Z</time>
      </trkpt>
      <trkpt lat="50.0165" lon="3.46963">
        <ele>114.8</ele>
        <time>2023-08-06T13:42:09Z</time>
      </trkpt>
      <trkpt lat="50.01641" lon="3.46962">
        <ele>114.6</ele>
        <time>2023-08-06T13:42:10Z</time>
      </trkpt>
      <trkpt lat="50.01634" lon="3.46961">
        <ele>114.6</ele>
        <time>2023-08-06T13:42:11Z</time>
      </trkpt>
      <trkpt lat="50.01626" lon="3.4696">
        <ele>114.6</ele>
        <time>2023-08-06T13:42:12Z</time>
      </trkpt>
      <trkpt lat="50.0162" lon="3.4696">
        <ele>114.4</ele>
        <time>2023-08-06T13:42:13Z</time>
      </trkpt>
      <trkpt lat="50.01614" lon="3.46961">
        <ele>114.2</ele>
        <time>2023-08-06T13:42:14Z</time>
      </trkpt>
      <trkpt lat="50.01608" lon="3.46962">
        <ele>114.2</ele>
        <time>2023-08-06T13:42:15Z</time>
      </trkpt>
      <trkpt lat="50.01602" lon="3.46963">
        <ele>114.2</ele>
        <time>2023-08-06T13:42:16Z</time>
      </trkpt>
      <trkpt lat="50.01596" lon="3.46965">
        <ele>114</ele>
        <time>2023-08-06T13:42:17Z</time>
      </trkpt>
      <trkpt lat="50.01591" lon="3.46969">
        <ele>114</ele>
        <time>2023-08-06T13:42:18Z</time>
      </trkpt>
      <trkpt lat="50.01587" lon="3.46973">
        <ele>114</ele>
        <time>2023-08-06T13:42:19Z</time>
      </trkpt>
      <trkpt lat="50.01582" lon="3.46978">
        <ele>114</ele>
        <time>2023-08-06T13:42:20Z</time>
      </trkpt>
      <trkpt lat="50.01579" lon="3.46979">
        <ele>113.8</ele>
        <time>2023-08-06T13:42:21Z</time>
      </trkpt>
      <trkpt lat="50.01575" lon="3.4698">
        <ele>113.8</ele>
        <time>2023-08-06T13:42:22Z</time>
      </trkpt>
      <trkpt lat="50.0157" lon="3.46981">
        <ele>113.8</ele>
        <time>2023-08-06T13:42:23Z</time>
      </trkpt>
      <trkpt lat="50.01565" lon="3.46981">
        <ele>113.8</ele>
        <time>2023-08-06T13:42:24Z</time>
      </trkpt>
      <trkpt lat="50.01548" lon="3.46981">
        <ele>113.8</ele>
        <time>2023-08-06T13:42:27Z</time>
      </trkpt>
      <trkpt lat="50.01514" lon="3.4698">
        <ele>113.8</ele>
        <time>2023-08-06T13:42:32Z</time>
      </trkpt>
      <trkpt lat="50.0149" lon="3.46979">
        <ele>113.2</ele>
        <time>2023-08-06T13:42:35Z</time>
      </trkpt>
      <trkpt lat="50.01455" lon="3.46976">
        <ele>112.4</ele>
        <time>2023-08-06T13:42:40Z</time>
      </trkpt>
      <trkpt lat="50.01448" lon="3.46976">
        <ele>112.2</ele>
        <time>2023-08-06T13:42:41Z</time>
      </trkpt>
      <trkpt lat="50.01421" lon="3.46973">
        <ele>112</ele>
        <time>2023-08-06T13:42:45Z</time>
      </trkpt>
      <trkpt lat="50.01414" lon="3.46972">
        <ele>112</ele>
        <time>2023-08-06T13:42:46Z</time>
      </trkpt>
      <trkpt lat="50.014" lon="3.4697">
        <ele>112</ele>
        <time>2023-08-06T13:42:48Z</time>
      </trkpt>
      <trkpt lat="50.01393" lon="3.46969">
        <ele>112</ele>
        <time>2023-08-06T13:42:49Z</time>
      </trkpt>
      <trkpt lat="50.01387" lon="3.46968">
        <ele>112</ele>
        <time>2023-08-06T13:42:50Z</time>
      </trkpt>
      <trkpt lat="50.0133" lon="3.46964">
        <ele>111.6</ele>
        <time>2023-08-06T13:42:58Z</time>
      </trkpt>
      <trkpt lat="50.01271" lon="3.46959">
        <ele>111.4</ele>
        <time>2023-08-06T13:43:06Z</time>
      </trkpt>
      <trkpt lat="50.01256" lon="3.46958">
        <ele>111.2</ele>
        <time>2023-08-06T13:43:08Z</time>
      </trkpt>
      <trkpt lat="50.01227" lon="3.46955">
        <ele>111</ele>
        <time>2023-08-06T13:43:12Z</time>
      </trkpt>
      <trkpt lat="50.0122" lon="3.46953">
        <ele>111</ele>
        <time>2023-08-06T13:43:13Z</time>
      </trkpt>
      <trkpt lat="50.01213" lon="3.46951">
        <ele>110.8</ele>
        <time>2023-08-06T13:43:14Z</time>
      </trkpt>
      <trkpt lat="50.01186" lon="3.46939">
        <ele>110.2</ele>
        <time>2023-08-06T13:43:18Z</time>
      </trkpt>
      <trkpt lat="50.01172" lon="3.46932">
        <ele>110</ele>
        <time>2023-08-06T13:43:20Z</time>
      </trkpt>
      <trkpt lat="50.01133" lon="3.46912">
        <ele>109.4</ele>
        <time>2023-08-06T13:43:26Z</time>
      </trkpt>
      <trkpt lat="50.01127" lon="3.46909">
        <ele>109.4</ele>
        <time>2023-08-06T13:43:27Z</time>
      </trkpt>
      <trkpt lat="50.01121" lon="3.46907">
        <ele>109.4</ele>
        <time>2023-08-06T13:43:28Z</time>
      </trkpt>
      <trkpt lat="50.01115" lon="3.46904">
        <ele>109.6</ele>
        <time>2023-08-06T13:43:29Z</time>
      </trkpt>
      <trkpt lat="50.0111" lon="3.46901">
        <ele>109.6</ele>
        <time>2023-08-06T13:43:30Z</time>
      </trkpt>
      <trkpt lat="50.01106" lon="3.46898">
        <ele>109.8</ele>
        <time>2023-08-06T13:43:31Z</time>
      </trkpt>
      <trkpt lat="50.01101" lon="3.46896">
        <ele>110</ele>
        <time>2023-08-06T13:43:32Z</time>
      </trkpt>
      <trkpt lat="50.01097" lon="3.46894">
        <ele>110.2</ele>
        <time>2023-08-06T13:43:33Z</time>
      </trkpt>
      <trkpt lat="50.01092" lon="3.46891">
        <ele>110.4</ele>
        <time>2023-08-06T13:43:34Z</time>
      </trkpt>
      <trkpt lat="50.01088" lon="3.46889">
        <ele>110.8</ele>
        <time>2023-08-06T13:43:35Z</time>
      </trkpt>
      <trkpt lat="50.01085" lon="3.46887">
        <ele>111</ele>
        <time>2023-08-06T13:43:36Z</time>
      </trkpt>
      <trkpt lat="50.01081" lon="3.46886">
        <ele>111.2</ele>
        <time>2023-08-06T13:43:37Z</time>
      </trkpt>
      <trkpt lat="50.01078" lon="3.46884">
        <ele>111.4</ele>
        <time>2023-08-06T13:43:38Z</time>
      </trkpt>
      <trkpt lat="50.01075" lon="3.46882">
        <ele>111.6</ele>
        <time>2023-08-06T13:43:39Z</time>
      </trkpt>
      <trkpt lat="50.01072" lon="3.46879">
        <ele>111.8</ele>
        <time>2023-08-06T13:43:40Z</time>
      </trkpt>
      <trkpt lat="50.01066" lon="3.46876">
        <ele>112.2</ele>
        <time>2023-08-06T13:43:42Z</time>
      </trkpt>
      <trkpt lat="50.01063" lon="3.46874">
        <ele>112.4</ele>
        <time>2023-08-06T13:43:43Z</time>
      </trkpt>
      <trkpt lat="50.0106" lon="3.46873">
        <ele>112.6</ele>
        <time>2023-08-06T13:43:44Z</time>
      </trkpt>
      <trkpt lat="50.01057" lon="3.46871">
        <ele>112.6</ele>
        <time>2023-08-06T13:43:45Z</time>
      </trkpt>
      <trkpt lat="50.01054" lon="3.46869">
        <ele>112.8</ele>
        <time>2023-08-06T13:43:46Z</time>
      </trkpt>
      <trkpt lat="50.01051" lon="3.46868">
        <ele>113</ele>
        <time>2023-08-06T13:43:47Z</time>
      </trkpt>
      <trkpt lat="50.01048" lon="3.46867">
        <ele>113</ele>
        <time>2023-08-06T13:43:48Z</time>
      </trkpt>
      <trkpt lat="50.01045" lon="3.46865">
        <ele>113.2</ele>
        <time>2023-08-06T13:43:49Z</time>
      </trkpt>
      <trkpt lat="50.01042" lon="3.46864">
        <ele>113.2</ele>
        <time>2023-08-06T13:43:50Z</time>
      </trkpt>
      <trkpt lat="50.01039" lon="3.46862">
        <ele>113.4</ele>
        <time>2023-08-06T13:43:51Z</time>
      </trkpt>
      <trkpt lat="50.01036" lon="3.4686">
        <ele>113.4</ele>
        <time>2023-08-06T13:43:52Z</time>
      </trkpt>
      <trkpt lat="50.01033" lon="3.46859">
        <ele>113.4</ele>
        <time>2023-08-06T13:43:53Z</time>
      </trkpt>
      <trkpt lat="50.01029" lon="3.46857">
        <ele>113.6</ele>
        <time>2023-08-06T13:43:54Z</time>
      </trkpt>
      <trkpt lat="50.01026" lon="3.46855">
        <ele>113.6</ele>
        <time>2023-08-06T13:43:55Z</time>
      </trkpt>
      <trkpt lat="50.01023" lon="3.46854">
        <ele>114</ele>
        <time>2023-08-06T13:43:56Z</time>
      </trkpt>
      <trkpt lat="50.0102" lon="3.46853">
        <ele>114</ele>
        <time>2023-08-06T13:43:57Z</time>
      </trkpt>
      <trkpt lat="50.01016" lon="3.46851">
        <ele>114.2</ele>
        <time>2023-08-06T13:43:58Z</time>
      </trkpt>
      <trkpt lat="50.01013" lon="3.4685">
        <ele>114.2</ele>
        <time>2023-08-06T13:43:59Z</time>
      </trkpt>
      <trkpt lat="50.0101" lon="3.46848">
        <ele>114.2</ele>
        <time>2023-08-06T13:44:00Z</time>
      </trkpt>
      <trkpt lat="50.01007" lon="3.46847">
        <ele>114.4</ele>
        <time>2023-08-06T13:44:01Z</time>
      </trkpt>
      <trkpt lat="50.01004" lon="3.46845">
        <ele>114.6</ele>
        <time>2023-08-06T13:44:02Z</time>
      </trkpt>
      <trkpt lat="50.01001" lon="3.46843">
        <ele>114.8</ele>
        <time>2023-08-06T13:44:03Z</time>
      </trkpt>
      <trkpt lat="50.00997" lon="3.46841">
        <ele>114.8</ele>
        <time>2023-08-06T13:44:04Z</time>
      </trkpt>
      <trkpt lat="50.00994" lon="3.46839">
        <ele>115</ele>
        <time>2023-08-06T13:44:05Z</time>
      </trkpt>
      <trkpt lat="50.0099" lon="3.46838">
        <ele>115</ele>
        <time>2023-08-06T13:44:06Z</time>
      </trkpt>
      <trkpt lat="50.00987" lon="3.46836">
        <ele>115</ele>
        <time>2023-08-06T13:44:07Z</time>
      </trkpt>
      <trkpt lat="50.00983" lon="3.46834">
        <ele>115.2</ele>
        <time>2023-08-06T13:44:08Z</time>
      </trkpt>
      <trkpt lat="50.0098" lon="3.46832">
        <ele>115.4</ele>
        <time>2023-08-06T13:44:09Z</time>
      </trkpt>
      <trkpt lat="50.00977" lon="3.46831">
        <ele>115.8</ele>
        <time>2023-08-06T13:44:10Z</time>
      </trkpt>
      <trkpt lat="50.00973" lon="3.46829">
        <ele>116</ele>
        <time>2023-08-06T13:44:11Z</time>
      </trkpt>
      <trkpt lat="50.00969" lon="3.46827">
        <ele>116.2</ele>
        <time>2023-08-06T13:44:12Z</time>
      </trkpt>
      <trkpt lat="50.00966" lon="3.46826">
        <ele>116.4</ele>
        <time>2023-08-06T13:44:13Z</time>
      </trkpt>
      <trkpt lat="50.00961" lon="3.46823">
        <ele>116.6</ele>
        <time>2023-08-06T13:44:14Z</time>
      </trkpt>
      <trkpt lat="50.00958" lon="3.46822">
        <ele>116.8</ele>
        <time>2023-08-06T13:44:15Z</time>
      </trkpt>
      <trkpt lat="50.00954" lon="3.46819">
        <ele>117</ele>
        <time>2023-08-06T13:44:16Z</time>
      </trkpt>
      <trkpt lat="50.00949" lon="3.46817">
        <ele>117.2</ele>
        <time>2023-08-06T13:44:17Z</time>
      </trkpt>
      <trkpt lat="50.00946" lon="3.46815">
        <ele>117.4</ele>
        <time>2023-08-06T13:44:18Z</time>
      </trkpt>
      <trkpt lat="50.0094" lon="3.46812">
        <ele>117.8</ele>
        <time>2023-08-06T13:44:19Z</time>
      </trkpt>
      <trkpt lat="50.00937" lon="3.46809">
        <ele>118</ele>
        <time>2023-08-06T13:44:20Z</time>
      </trkpt>
      <trkpt lat="50.00932" lon="3.46807">
        <ele>118.4</ele>
        <time>2023-08-06T13:44:21Z</time>
      </trkpt>
      <trkpt lat="50.00926" lon="3.46804">
        <ele>118.4</ele>
        <time>2023-08-06T13:44:22Z</time>
      </trkpt>
      <trkpt lat="50.00921" lon="3.46802">
        <ele>118.6</ele>
        <time>2023-08-06T13:44:23Z</time>
      </trkpt>
      <trkpt lat="50.00916" lon="3.46799">
        <ele>118.6</ele>
        <time>2023-08-06T13:44:24Z</time>
      </trkpt>
      <trkpt lat="50.00912" lon="3.46797">
        <ele>118.8</ele>
        <time>2023-08-06T13:44:25Z</time>
      </trkpt>
      <trkpt lat="50.00907" lon="3.46793">
        <ele>118.8</ele>
        <time>2023-08-06T13:44:26Z</time>
      </trkpt>
      <trkpt lat="50.00902" lon="3.46791">
        <ele>118.8</ele>
        <time>2023-08-06T13:44:27Z</time>
      </trkpt>
      <trkpt lat="50.00895" lon="3.46787">
        <ele>118.6</ele>
        <time>2023-08-06T13:44:28Z</time>
      </trkpt>
      <trkpt lat="50.00889" lon="3.46784">
        <ele>118.6</ele>
        <time>2023-08-06T13:44:29Z</time>
      </trkpt>
      <trkpt lat="50.00885" lon="3.46782">
        <ele>118.6</ele>
        <time>2023-08-06T13:44:30Z</time>
      </trkpt>
      <trkpt lat="50.00879" lon="3.46779">
        <ele>118.4</ele>
        <time>2023-08-06T13:44:31Z</time>
      </trkpt>
      <trkpt lat="50.00872" lon="3.46775">
        <ele>118.4</ele>
        <time>2023-08-06T13:44:32Z</time>
      </trkpt>
      <trkpt lat="50.00866" lon="3.46772">
        <ele>118.2</ele>
        <time>2023-08-06T13:44:33Z</time>
      </trkpt>
      <trkpt lat="50.0086" lon="3.46769">
        <ele>118</ele>
        <time>2023-08-06T13:44:34Z</time>
      </trkpt>
      <trkpt lat="50.00854" lon="3.46766">
        <ele>118</ele>
        <time>2023-08-06T13:44:35Z</time>
      </trkpt>
      <trkpt lat="50.00848" lon="3.46762">
        <ele>117.8</ele>
        <time>2023-08-06T13:44:36Z</time>
      </trkpt>
      <trkpt lat="50.00841" lon="3.46759">
        <ele>117.6</ele>
        <time>2023-08-06T13:44:37Z</time>
      </trkpt>
      <trkpt lat="50.00833" lon="3.46755">
        <ele>117.4</ele>
        <time>2023-08-06T13:44:38Z</time>
      </trkpt>
      <trkpt lat="50.00813" lon="3.46743">
        <ele>116.6</ele>
        <time>2023-08-06T13:44:41Z</time>
      </trkpt>
      <trkpt lat="50.00787" lon="3.4673">
        <ele>115.6</ele>
        <time>2023-08-06T13:44:45Z</time>
      </trkpt>
      <trkpt lat="50.00771" lon="3.46722">
        <ele>115</ele>
        <time>2023-08-06T13:44:47Z</time>
      </trkpt>
      <trkpt lat="50.00758" lon="3.46715">
        <ele>114.4</ele>
        <time>2023-08-06T13:44:49Z</time>
      </trkpt>
      <trkpt lat="50.00727" lon="3.46698">
        <ele>113.4</ele>
        <time>2023-08-06T13:44:53Z</time>
      </trkpt>
      <trkpt lat="50.00703" lon="3.46686">
        <ele>113</ele>
        <time>2023-08-06T13:44:56Z</time>
      </trkpt>
      <trkpt lat="50.00687" lon="3.46677">
        <ele>112.4</ele>
        <time>2023-08-06T13:44:58Z</time>
      </trkpt>
      <trkpt lat="50.00638" lon="3.4665">
        <ele>111</ele>
        <time>2023-08-06T13:45:04Z</time>
      </trkpt>
      <trkpt lat="50.00621" lon="3.46641">
        <ele>110.6</ele>
        <time>2023-08-06T13:45:06Z</time>
      </trkpt>
      <trkpt lat="50.00603" lon="3.46631">
        <ele>110</ele>
        <time>2023-08-06T13:45:08Z</time>
      </trkpt>
      <trkpt lat="50.00575" lon="3.46616">
        <ele>108.6</ele>
        <time>2023-08-06T13:45:11Z</time>
      </trkpt>
      <trkpt lat="50.00566" lon="3.46611">
        <ele>108.2</ele>
        <time>2023-08-06T13:45:12Z</time>
      </trkpt>
      <trkpt lat="50.00546" lon="3.46601">
        <ele>107</ele>
        <time>2023-08-06T13:45:14Z</time>
      </trkpt>
      <trkpt lat="50.00518" lon="3.46586">
        <ele>106</ele>
        <time>2023-08-06T13:45:17Z</time>
      </trkpt>
      <trkpt lat="50.00509" lon="3.46581">
        <ele>105.2</ele>
        <time>2023-08-06T13:45:18Z</time>
      </trkpt>
      <trkpt lat="50.005" lon="3.46577">
        <ele>105</ele>
        <time>2023-08-06T13:45:19Z</time>
      </trkpt>
      <trkpt lat="50.00492" lon="3.46573">
        <ele>104.6</ele>
        <time>2023-08-06T13:45:20Z</time>
      </trkpt>
      <trkpt lat="50.00484" lon="3.46569">
        <ele>104.4</ele>
        <time>2023-08-06T13:45:21Z</time>
      </trkpt>
      <trkpt lat="50.00477" lon="3.46565">
        <ele>104</ele>
        <time>2023-08-06T13:45:22Z</time>
      </trkpt>
      <trkpt lat="50.0047" lon="3.46561">
        <ele>103.8</ele>
        <time>2023-08-06T13:45:23Z</time>
      </trkpt>
      <trkpt lat="50.00463" lon="3.46558">
        <ele>103.6</ele>
        <time>2023-08-06T13:45:24Z</time>
      </trkpt>
      <trkpt lat="50.00457" lon="3.46554">
        <ele>103.6</ele>
        <time>2023-08-06T13:45:25Z</time>
      </trkpt>
      <trkpt lat="50.00451" lon="3.46551">
        <ele>103.6</ele>
        <time>2023-08-06T13:45:26Z</time>
      </trkpt>
      <trkpt lat="50.00446" lon="3.46548">
        <ele>103.6</ele>
        <time>2023-08-06T13:45:27Z</time>
      </trkpt>
      <trkpt lat="50.00441" lon="3.46545">
        <ele>103.6</ele>
        <time>2023-08-06T13:45:28Z</time>
      </trkpt>
      <trkpt lat="50.00436" lon="3.46542">
        <ele>103.6</ele>
        <time>2023-08-06T13:45:29Z</time>
      </trkpt>
      <trkpt lat="50.00431" lon="3.4654">
        <ele>103.6</ele>
        <time>2023-08-06T13:45:30Z</time>
      </trkpt>
      <trkpt lat="50.00426" lon="3.46538">
        <ele>103.8</ele>
        <time>2023-08-06T13:45:31Z</time>
      </trkpt>
      <trkpt lat="50.00422" lon="3.46536">
        <ele>104</ele>
        <time>2023-08-06T13:45:32Z</time>
      </trkpt>
      <trkpt lat="50.00418" lon="3.46534">
        <ele>104</ele>
        <time>2023-08-06T13:45:33Z</time>
      </trkpt>
      <trkpt lat="50.00415" lon="3.46532">
        <ele>104.2</ele>
        <time>2023-08-06T13:45:34Z</time>
      </trkpt>
      <trkpt lat="50.00411" lon="3.46529">
        <ele>104.2</ele>
        <time>2023-08-06T13:45:35Z</time>
      </trkpt>
      <trkpt lat="50.00408" lon="3.46527">
        <ele>104.6</ele>
        <time>2023-08-06T13:45:36Z</time>
      </trkpt>
      <trkpt lat="50.00405" lon="3.46526">
        <ele>104.8</ele>
        <time>2023-08-06T13:45:37Z</time>
      </trkpt>
      <trkpt lat="50.00402" lon="3.46525">
        <ele>105</ele>
        <time>2023-08-06T13:45:38Z</time>
      </trkpt>
      <trkpt lat="50.00399" lon="3.46523">
        <ele>105.4</ele>
        <time>2023-08-06T13:45:39Z</time>
      </trkpt>
      <trkpt lat="50.00396" lon="3.46521">
        <ele>105.4</ele>
        <time>2023-08-06T13:45:40Z</time>
      </trkpt>
      <trkpt lat="50.00393" lon="3.4652">
        <ele>105.6</ele>
        <time>2023-08-06T13:45:41Z</time>
      </trkpt>
      <trkpt lat="50.00388" lon="3.46518">
        <ele>106</ele>
        <time>2023-08-06T13:45:43Z</time>
      </trkpt>
      <trkpt lat="50.00385" lon="3.46517">
        <ele>106.2</ele>
        <time>2023-08-06T13:45:44Z</time>
      </trkpt>
      <trkpt lat="50.00382" lon="3.46515">
        <ele>106.4</ele>
        <time>2023-08-06T13:45:45Z</time>
      </trkpt>
      <trkpt lat="50.0038" lon="3.46513">
        <ele>106.6</ele>
        <time>2023-08-06T13:45:46Z</time>
      </trkpt>
      <trkpt lat="50.00377" lon="3.46511">
        <ele>106.8</ele>
        <time>2023-08-06T13:45:47Z</time>
      </trkpt>
      <trkpt lat="50.00374" lon="3.4651">
        <ele>107</ele>
        <time>2023-08-06T13:45:48Z</time>
      </trkpt>
      <trkpt lat="50.00371" lon="3.46508">
        <ele>107.2</ele>
        <time>2023-08-06T13:45:49Z</time>
      </trkpt>
      <trkpt lat="50.00357" lon="3.46501">
        <ele>108.2</ele>
        <time>2023-08-06T13:45:54Z</time>
      </trkpt>
      <trkpt lat="50.00354" lon="3.465">
        <ele>108.4</ele>
        <time>2023-08-06T13:45:55Z</time>
      </trkpt>
      <trkpt lat="50.00351" lon="3.46498">
        <ele>108.6</ele>
        <time>2023-08-06T13:45:56Z</time>
      </trkpt>
      <trkpt lat="50.00348" lon="3.46496">
        <ele>108.8</ele>
        <time>2023-08-06T13:45:57Z</time>
      </trkpt>
      <trkpt lat="50.00345" lon="3.46494">
        <ele>108.8</ele>
        <time>2023-08-06T13:45:58Z</time>
      </trkpt>
      <trkpt lat="50.00341" lon="3.46493">
        <ele>109.2</ele>
        <time>2023-08-06T13:45:59Z</time>
      </trkpt>
      <trkpt lat="50.00338" lon="3.46491">
        <ele>109.2</ele>
        <time>2023-08-06T13:46:00Z</time>
      </trkpt>
      <trkpt lat="50.00335" lon="3.4649">
        <ele>109.6</ele>
        <time>2023-08-06T13:46:01Z</time>
      </trkpt>
      <trkpt lat="50.00332" lon="3.46488">
        <ele>109.6</ele>
        <time>2023-08-06T13:46:02Z</time>
      </trkpt>
      <trkpt lat="50.00329" lon="3.46486">
        <ele>109.8</ele>
        <time>2023-08-06T13:46:03Z</time>
      </trkpt>
      <trkpt lat="50.00325" lon="3.46485">
        <ele>110</ele>
        <time>2023-08-06T13:46:04Z</time>
      </trkpt>
      <trkpt lat="50.00323" lon="3.46484">
        <ele>110.2</ele>
        <time>2023-08-06T13:46:05Z</time>
      </trkpt>
      <trkpt lat="50.00319" lon="3.46481">
        <ele>110.4</ele>
        <time>2023-08-06T13:46:06Z</time>
      </trkpt>
      <trkpt lat="50.00316" lon="3.4648">
        <ele>110.4</ele>
        <time>2023-08-06T13:46:07Z</time>
      </trkpt>
      <trkpt lat="50.00313" lon="3.46477">
        <ele>110.6</ele>
        <time>2023-08-06T13:46:08Z</time>
      </trkpt>
      <trkpt lat="50.0031" lon="3.46475">
        <ele>110.6</ele>
        <time>2023-08-06T13:46:09Z</time>
      </trkpt>
      <trkpt lat="50.00306" lon="3.46474">
        <ele>110.8</ele>
        <time>2023-08-06T13:46:10Z</time>
      </trkpt>
      <trkpt lat="50.00303" lon="3.46472">
        <ele>111</ele>
        <time>2023-08-06T13:46:11Z</time>
      </trkpt>
      <trkpt lat="50.003" lon="3.46471">
        <ele>111.2</ele>
        <time>2023-08-06T13:46:12Z</time>
      </trkpt>
      <trkpt lat="50.00297" lon="3.46469">
        <ele>111.4</ele>
        <time>2023-08-06T13:46:13Z</time>
      </trkpt>
      <trkpt lat="50.00294" lon="3.46467">
        <ele>111.4</ele>
        <time>2023-08-06T13:46:14Z</time>
      </trkpt>
      <trkpt lat="50.0029" lon="3.46465">
        <ele>111.6</ele>
        <time>2023-08-06T13:46:15Z</time>
      </trkpt>
      <trkpt lat="50.00287" lon="3.46463">
        <ele>111.6</ele>
        <time>2023-08-06T13:46:16Z</time>
      </trkpt>
      <trkpt lat="50.00283" lon="3.46461">
        <ele>111.8</ele>
        <time>2023-08-06T13:46:17Z</time>
      </trkpt>
      <trkpt lat="50.0028" lon="3.46459">
        <ele>111.8</ele>
        <time>2023-08-06T13:46:18Z</time>
      </trkpt>
      <trkpt lat="50.00276" lon="3.46457">
        <ele>112</ele>
        <time>2023-08-06T13:46:19Z</time>
      </trkpt>
      <trkpt lat="50.00272" lon="3.46455">
        <ele>112</ele>
        <time>2023-08-06T13:46:20Z</time>
      </trkpt>
      <trkpt lat="50.00268" lon="3.46453">
        <ele>112</ele>
        <time>2023-08-06T13:46:21Z</time>
      </trkpt>
      <trkpt lat="50.00265" lon="3.46451">
        <ele>112</ele>
        <time>2023-08-06T13:46:22Z</time>
      </trkpt>
      <trkpt lat="50.00261" lon="3.46449">
        <ele>112</ele>
        <time>2023-08-06T13:46:23Z</time>
      </trkpt>
      <trkpt lat="50.00257" lon="3.46447">
        <ele>112</ele>
        <time>2023-08-06T13:46:24Z</time>
      </trkpt>
      <trkpt lat="50.00252" lon="3.46445">
        <ele>112</ele>
        <time>2023-08-06T13:46:25Z</time>
      </trkpt>
      <trkpt lat="50.00248" lon="3.46443">
        <ele>112</ele>
        <time>2023-08-06T13:46:26Z</time>
      </trkpt>
      <trkpt lat="50.00244" lon="3.4644">
        <ele>112</ele>
        <time>2023-08-06T13:46:27Z</time>
      </trkpt>
      <trkpt lat="50.00239" lon="3.46438">
        <ele>112</ele>
        <time>2023-08-06T13:46:28Z</time>
      </trkpt>
      <trkpt lat="50.00234" lon="3.46435">
        <ele>112</ele>
        <time>2023-08-06T13:46:29Z</time>
      </trkpt>
      <trkpt lat="50.00229" lon="3.46432">
        <ele>112</ele>
        <time>2023-08-06T13:46:30Z</time>
      </trkpt>
      <trkpt lat="50.00224" lon="3.46429">
        <ele>111.8</ele>
        <time>2023-08-06T13:46:31Z</time>
      </trkpt>
      <trkpt lat="50.00193" lon="3.46413">
        <ele>110.8</ele>
        <time>2023-08-06T13:46:36Z</time>
      </trkpt>
      <trkpt lat="50.00166" lon="3.46399">
        <ele>110</ele>
        <time>2023-08-06T13:46:40Z</time>
      </trkpt>
      <trkpt lat="50.00143" lon="3.46388">
        <ele>109.2</ele>
        <time>2023-08-06T13:46:43Z</time>
      </trkpt>
      <trkpt lat="50.00136" lon="3.46384">
        <ele>109</ele>
        <time>2023-08-06T13:46:44Z</time>
      </trkpt>
      <trkpt lat="50.00128" lon="3.4638">
        <ele>108.6</ele>
        <time>2023-08-06T13:46:45Z</time>
      </trkpt>
      <trkpt lat="50.00108" lon="3.46368">
        <ele>107.8</ele>
        <time>2023-08-06T13:46:48Z</time>
      </trkpt>
      <trkpt lat="50.00095" lon="3.46362">
        <ele>106.8</ele>
        <time>2023-08-06T13:46:50Z</time>
      </trkpt>
      <trkpt lat="50.00089" lon="3.4636">
        <ele>106.6</ele>
        <time>2023-08-06T13:46:51Z</time>
      </trkpt>
      <trkpt lat="50.00084" lon="3.46357">
        <ele>106</ele>
        <time>2023-08-06T13:46:52Z</time>
      </trkpt>
      <trkpt lat="50.00079" lon="3.46354">
        <ele>105.8</ele>
        <time>2023-08-06T13:46:53Z</time>
      </trkpt>
      <trkpt lat="50.00074" lon="3.46351">
        <ele>105.4</ele>
        <time>2023-08-06T13:46:54Z</time>
      </trkpt>
      <trkpt lat="50.00051" lon="3.46338">
        <ele>104.2</ele>
        <time>2023-08-06T13:46:58Z</time>
      </trkpt>
      <trkpt lat="50.00033" lon="3.46328">
        <ele>103</ele>
        <time>2023-08-06T13:47:01Z</time>
      </trkpt>
      <trkpt lat="50.00008" lon="3.46315">
        <ele>102</ele>
        <time>2023-08-06T13:47:05Z</time>
      </trkpt>
      <trkpt lat="49.99982" lon="3.46302">
        <ele>101.2</ele>
        <time>2023-08-06T13:47:09Z</time>
      </trkpt>
      <trkpt lat="49.9997" lon="3.46295">
        <ele>100.8</ele>
        <time>2023-08-06T13:47:11Z</time>
      </trkpt>
      <trkpt lat="49.99953" lon="3.46286">
        <ele>100.2</ele>
        <time>2023-08-06T13:47:14Z</time>
      </trkpt>
      <trkpt lat="49.99948" lon="3.46283">
        <ele>99.8</ele>
        <time>2023-08-06T13:47:15Z</time>
      </trkpt>
      <trkpt lat="49.99942" lon="3.46282">
        <ele>99.8</ele>
        <time>2023-08-06T13:47:16Z</time>
      </trkpt>
      <trkpt lat="49.99937" lon="3.46281">
        <ele>99.6</ele>
        <time>2023-08-06T13:47:17Z</time>
      </trkpt>
      <trkpt lat="49.99931" lon="3.46279">
        <ele>99.6</ele>
        <time>2023-08-06T13:47:18Z</time>
      </trkpt>
      <trkpt lat="49.99926" lon="3.46278">
        <ele>99.4</ele>
        <time>2023-08-06T13:47:19Z</time>
      </trkpt>
      <trkpt lat="49.99921" lon="3.46278">
        <ele>99.4</ele>
        <time>2023-08-06T13:47:20Z</time>
      </trkpt>
      <trkpt lat="49.99912" lon="3.46276">
        <ele>99.2</ele>
        <time>2023-08-06T13:47:22Z</time>
      </trkpt>
      <trkpt lat="49.99907" lon="3.46276">
        <ele>99.2</ele>
        <time>2023-08-06T13:47:23Z</time>
      </trkpt>
      <trkpt lat="49.99903" lon="3.46276">
        <ele>99.2</ele>
        <time>2023-08-06T13:47:24Z</time>
      </trkpt>
      <trkpt lat="49.99899" lon="3.46276">
        <ele>99.2</ele>
        <time>2023-08-06T13:47:25Z</time>
      </trkpt>
      <trkpt lat="49.99895" lon="3.46275">
        <ele>99.2</ele>
        <time>2023-08-06T13:47:26Z</time>
      </trkpt>
      <trkpt lat="49.99891" lon="3.46274">
        <ele>99.2</ele>
        <time>2023-08-06T13:47:27Z</time>
      </trkpt>
      <trkpt lat="49.99887" lon="3.46274">
        <ele>99.4</ele>
        <time>2023-08-06T13:47:28Z</time>
      </trkpt>
      <trkpt lat="49.99879" lon="3.46272">
        <ele>99.6</ele>
        <time>2023-08-06T13:47:30Z</time>
      </trkpt>
      <trkpt lat="49.99875" lon="3.46271">
        <ele>99.8</ele>
        <time>2023-08-06T13:47:31Z</time>
      </trkpt>
      <trkpt lat="49.99872" lon="3.46271">
        <ele>99.8</ele>
        <time>2023-08-06T13:47:32Z</time>
      </trkpt>
      <trkpt lat="49.99868" lon="3.4627">
        <ele>100</ele>
        <time>2023-08-06T13:47:33Z</time>
      </trkpt>
      <trkpt lat="49.99861" lon="3.4627">
        <ele>100.4</ele>
        <time>2023-08-06T13:47:35Z</time>
      </trkpt>
      <trkpt lat="49.99857" lon="3.46269">
        <ele>100.6</ele>
        <time>2023-08-06T13:47:36Z</time>
      </trkpt>
      <trkpt lat="49.99854" lon="3.46269">
        <ele>100.8</ele>
        <time>2023-08-06T13:47:37Z</time>
      </trkpt>
      <trkpt lat="49.9985" lon="3.46268">
        <ele>101</ele>
        <time>2023-08-06T13:47:38Z</time>
      </trkpt>
      <trkpt lat="49.99847" lon="3.46268">
        <ele>101</ele>
        <time>2023-08-06T13:47:39Z</time>
      </trkpt>
      <trkpt lat="49.99844" lon="3.46268">
        <ele>101.2</ele>
        <time>2023-08-06T13:47:40Z</time>
      </trkpt>
      <trkpt lat="49.99841" lon="3.46267">
        <ele>101.4</ele>
        <time>2023-08-06T13:47:41Z</time>
      </trkpt>
      <trkpt lat="49.99838" lon="3.46267">
        <ele>101.4</ele>
        <time>2023-08-06T13:47:42Z</time>
      </trkpt>
      <trkpt lat="49.99834" lon="3.46266">
        <ele>101.4</ele>
        <time>2023-08-06T13:47:43Z</time>
      </trkpt>
      <trkpt lat="49.99831" lon="3.46265">
        <ele>101.6</ele>
        <time>2023-08-06T13:47:44Z</time>
      </trkpt>
      <trkpt lat="49.99828" lon="3.46265">
        <ele>101.6</ele>
        <time>2023-08-06T13:47:45Z</time>
      </trkpt>
      <trkpt lat="49.99825" lon="3.46264">
        <ele>101.8</ele>
        <time>2023-08-06T13:47:46Z</time>
      </trkpt>
      <trkpt lat="49.99822" lon="3.46264">
        <ele>102</ele>
        <time>2023-08-06T13:47:47Z</time>
      </trkpt>
      <trkpt lat="49.99819" lon="3.46264">
        <ele>102</ele>
        <time>2023-08-06T13:47:48Z</time>
      </trkpt>
      <trkpt lat="49.99817" lon="3.46263">
        <ele>102.2</ele>
        <time>2023-08-06T13:47:49Z</time>
      </trkpt>
      <trkpt lat="49.99814" lon="3.46263">
        <ele>102.4</ele>
        <time>2023-08-06T13:47:50Z</time>
      </trkpt>
      <trkpt lat="49.99811" lon="3.46262">
        <ele>102.6</ele>
        <time>2023-08-06T13:47:51Z</time>
      </trkpt>
      <trkpt lat="49.99809" lon="3.46262">
        <ele>102.8</ele>
        <time>2023-08-06T13:47:52Z</time>
      </trkpt>
      <trkpt lat="49.99806" lon="3.46262">
        <ele>103</ele>
        <time>2023-08-06T13:47:53Z</time>
      </trkpt>
      <trkpt lat="49.99803" lon="3.46261">
        <ele>103.2</ele>
        <time>2023-08-06T13:47:54Z</time>
      </trkpt>
      <trkpt lat="49.99801" lon="3.46261">
        <ele>103.2</ele>
        <time>2023-08-06T13:47:55Z</time>
      </trkpt>
      <trkpt lat="49.99799" lon="3.46261">
        <ele>103.4</ele>
        <time>2023-08-06T13:47:56Z</time>
      </trkpt>
      <trkpt lat="49.99797" lon="3.46261">
        <ele>103.6</ele>
        <time>2023-08-06T13:47:57Z</time>
      </trkpt>
      <trkpt lat="49.99795" lon="3.46261">
        <ele>103.8</ele>
        <time>2023-08-06T13:47:58Z</time>
      </trkpt>
      <trkpt lat="49.99792" lon="3.46261">
        <ele>104</ele>
        <time>2023-08-06T13:47:59Z</time>
      </trkpt>
      <trkpt lat="49.9979" lon="3.4626">
        <ele>104.2</ele>
        <time>2023-08-06T13:48:00Z</time>
      </trkpt>
      <trkpt lat="49.99788" lon="3.4626">
        <ele>104.4</ele>
        <time>2023-08-06T13:48:01Z</time>
      </trkpt>
      <trkpt lat="49.99786" lon="3.46259">
        <ele>104.6</ele>
        <time>2023-08-06T13:48:02Z</time>
      </trkpt>
      <trkpt lat="49.99784" lon="3.46259">
        <ele>104.8</ele>
        <time>2023-08-06T13:48:03Z</time>
      </trkpt>
      <trkpt lat="49.99782" lon="3.46259">
        <ele>105</ele>
        <time>2023-08-06T13:48:04Z</time>
      </trkpt>
      <trkpt lat="49.9978" lon="3.46258">
        <ele>105.2</ele>
        <time>2023-08-06T13:48:05Z</time>
      </trkpt>
      <trkpt lat="49.99778" lon="3.46258">
        <ele>105.4</ele>
        <time>2023-08-06T13:48:06Z</time>
      </trkpt>
      <trkpt lat="49.99776" lon="3.46258">
        <ele>105.8</ele>
        <time>2023-08-06T13:48:07Z</time>
      </trkpt>
      <trkpt lat="49.99773" lon="3.46257">
        <ele>106</ele>
        <time>2023-08-06T13:48:08Z</time>
      </trkpt>
      <trkpt lat="49.99771" lon="3.46257">
        <ele>106.2</ele>
        <time>2023-08-06T13:48:09Z</time>
      </trkpt>
      <trkpt lat="49.99769" lon="3.46257">
        <ele>106.4</ele>
        <time>2023-08-06T13:48:10Z</time>
      </trkpt>
      <trkpt lat="49.99767" lon="3.46256">
        <ele>106.6</ele>
        <time>2023-08-06T13:48:11Z</time>
      </trkpt>
      <trkpt lat="49.99765" lon="3.46256">
        <ele>106.8</ele>
        <time>2023-08-06T13:48:12Z</time>
      </trkpt>
      <trkpt lat="49.99763" lon="3.46256">
        <ele>107</ele>
        <time>2023-08-06T13:48:13Z</time>
      </trkpt>
      <trkpt lat="49.9976" lon="3.46256">
        <ele>107.2</ele>
        <time>2023-08-06T13:48:14Z</time>
      </trkpt>
      <trkpt lat="49.99758" lon="3.46256">
        <ele>107.2</ele>
        <time>2023-08-06T13:48:15Z</time>
      </trkpt>
      <trkpt lat="49.99756" lon="3.46255">
        <ele>107.4</ele>
        <time>2023-08-06T13:48:16Z</time>
      </trkpt>
      <trkpt lat="49.99754" lon="3.46255">
        <ele>107.4</ele>
        <time>2023-08-06T13:48:17Z</time>
      </trkpt>
      <trkpt lat="49.99751" lon="3.46255">
        <ele>107.6</ele>
        <time>2023-08-06T13:48:18Z</time>
      </trkpt>
      <trkpt lat="49.99749" lon="3.46255">
        <ele>107.8</ele>
        <time>2023-08-06T13:48:19Z</time>
      </trkpt>
      <trkpt lat="49.99747" lon="3.46255">
        <ele>107.8</ele>
        <time>2023-08-06T13:48:20Z</time>
      </trkpt>
      <trkpt lat="49.99745" lon="3.46254">
        <ele>108</ele>
        <time>2023-08-06T13:48:21Z</time>
      </trkpt>
      <trkpt lat="49.99742" lon="3.46254">
        <ele>108</ele>
        <time>2023-08-06T13:48:22Z</time>
      </trkpt>
      <trkpt lat="49.9974" lon="3.46253">
        <ele>108.2</ele>
        <time>2023-08-06T13:48:23Z</time>
      </trkpt>
      <trkpt lat="49.99737" lon="3.46253">
        <ele>108.4</ele>
        <time>2023-08-06T13:48:24Z</time>
      </trkpt>
      <trkpt lat="49.99735" lon="3.46252">
        <ele>108.6</ele>
        <time>2023-08-06T13:48:25Z</time>
      </trkpt>
      <trkpt lat="49.99733" lon="3.46252">
        <ele>109</ele>
        <time>2023-08-06T13:48:26Z</time>
      </trkpt>
      <trkpt lat="49.9973" lon="3.46252">
        <ele>109</ele>
        <time>2023-08-06T13:48:27Z</time>
      </trkpt>
      <trkpt lat="49.99728" lon="3.46251">
        <ele>109.2</ele>
        <time>2023-08-06T13:48:28Z</time>
      </trkpt>
      <trkpt lat="49.99725" lon="3.46251">
        <ele>109.4</ele>
        <time>2023-08-06T13:48:29Z</time>
      </trkpt>
      <trkpt lat="49.99723" lon="3.46251">
        <ele>109.6</ele>
        <time>2023-08-06T13:48:30Z</time>
      </trkpt>
      <trkpt lat="49.9972" lon="3.4625">
        <ele>109.6</ele>
        <time>2023-08-06T13:48:31Z</time>
      </trkpt>
      <trkpt lat="49.99717" lon="3.4625">
        <ele>109.8</ele>
        <time>2023-08-06T13:48:32Z</time>
      </trkpt>
      <trkpt lat="49.99715" lon="3.4625">
        <ele>109.8</ele>
        <time>2023-08-06T13:48:33Z</time>
      </trkpt>
      <trkpt lat="49.99712" lon="3.4625">
        <ele>110</ele>
        <time>2023-08-06T13:48:34Z</time>
      </trkpt>
      <trkpt lat="49.9971" lon="3.4625">
        <ele>110.2</ele>
        <time>2023-08-06T13:48:35Z</time>
      </trkpt>
      <trkpt lat="49.99708" lon="3.4625">
        <ele>110.2</ele>
        <time>2023-08-06T13:48:36Z</time>
      </trkpt>
      <trkpt lat="49.99705" lon="3.46249">
        <ele>110.4</ele>
        <time>2023-08-06T13:48:37Z</time>
      </trkpt>
      <trkpt lat="49.99703" lon="3.46249">
        <ele>110.6</ele>
        <time>2023-08-06T13:48:38Z</time>
      </trkpt>
      <trkpt lat="49.997" lon="3.46248">
        <ele>110.6</ele>
        <time>2023-08-06T13:48:39Z</time>
      </trkpt>
      <trkpt lat="49.99698" lon="3.46248">
        <ele>110.6</ele>
        <time>2023-08-06T13:48:40Z</time>
      </trkpt>
      <trkpt lat="49.99695" lon="3.46247">
        <ele>110.8</ele>
        <time>2023-08-06T13:48:41Z</time>
      </trkpt>
      <trkpt lat="49.99693" lon="3.46247">
        <ele>110.8</ele>
        <time>2023-08-06T13:48:42Z</time>
      </trkpt>
      <trkpt lat="49.9969" lon="3.46246">
        <ele>111</ele>
        <time>2023-08-06T13:48:43Z</time>
      </trkpt>
      <trkpt lat="49.99687" lon="3.46246">
        <ele>111</ele>
        <time>2023-08-06T13:48:44Z</time>
      </trkpt>
      <trkpt lat="49.99684" lon="3.46246">
        <ele>111</ele>
        <time>2023-08-06T13:48:45Z</time>
      </trkpt>
      <trkpt lat="49.99681" lon="3.46246">
        <ele>111.2</ele>
        <time>2023-08-06T13:48:46Z</time>
      </trkpt>
      <trkpt lat="49.99679" lon="3.46245">
        <ele>111.2</ele>
        <time>2023-08-06T13:48:47Z</time>
      </trkpt>
      <trkpt lat="49.99676" lon="3.46245">
        <ele>111.4</ele>
        <time>2023-08-06T13:48:48Z</time>
      </trkpt>
      <trkpt lat="49.99673" lon="3.46244">
        <ele>111.4</ele>
        <time>2023-08-06T13:48:49Z</time>
      </trkpt>
      <trkpt lat="49.9967" lon="3.46243">
        <ele>111.4</ele>
        <time>2023-08-06T13:48:50Z</time>
      </trkpt>
      <trkpt lat="49.99668" lon="3.46243">
        <ele>111.6</ele>
        <time>2023-08-06T13:48:51Z</time>
      </trkpt>
      <trkpt lat="49.99665" lon="3.46243">
        <ele>111.6</ele>
        <time>2023-08-06T13:48:52Z</time>
      </trkpt>
      <trkpt lat="49.99662" lon="3.46243">
        <ele>111.8</ele>
        <time>2023-08-06T13:48:53Z</time>
      </trkpt>
      <trkpt lat="49.99659" lon="3.46243">
        <ele>111.8</ele>
        <time>2023-08-06T13:48:54Z</time>
      </trkpt>
      <trkpt lat="49.99656" lon="3.46242">
        <ele>112.2</ele>
        <time>2023-08-06T13:48:55Z</time>
      </trkpt>
      <trkpt lat="49.99653" lon="3.46242">
        <ele>112.2</ele>
        <time>2023-08-06T13:48:56Z</time>
      </trkpt>
      <trkpt lat="49.9965" lon="3.46242">
        <ele>112.4</ele>
        <time>2023-08-06T13:48:57Z</time>
      </trkpt>
      <trkpt lat="49.99647" lon="3.46241">
        <ele>112.6</ele>
        <time>2023-08-06T13:48:58Z</time>
      </trkpt>
      <trkpt lat="49.99644" lon="3.46241">
        <ele>112.6</ele>
        <time>2023-08-06T13:48:59Z</time>
      </trkpt>
      <trkpt lat="49.99641" lon="3.46241">
        <ele>112.8</ele>
        <time>2023-08-06T13:49:00Z</time>
      </trkpt>
      <trkpt lat="49.99638" lon="3.4624">
        <ele>112.8</ele>
        <time>2023-08-06T13:49:01Z</time>
      </trkpt>
      <trkpt lat="49.99635" lon="3.4624">
        <ele>113</ele>
        <time>2023-08-06T13:49:02Z</time>
      </trkpt>
      <trkpt lat="49.99631" lon="3.4624">
        <ele>113</ele>
        <time>2023-08-06T13:49:03Z</time>
      </trkpt>
      <trkpt lat="49.99628" lon="3.4624">
        <ele>113</ele>
        <time>2023-08-06T13:49:04Z</time>
      </trkpt>
      <trkpt lat="49.99624" lon="3.4624">
        <ele>113</ele>
        <time>2023-08-06T13:49:05Z</time>
      </trkpt>
      <trkpt lat="49.99621" lon="3.4624">
        <ele>113.2</ele>
        <time>2023-08-06T13:49:06Z</time>
      </trkpt>
      <trkpt lat="49.99618" lon="3.46239">
        <ele>113.2</ele>
        <time>2023-08-06T13:49:07Z</time>
      </trkpt>
      <trkpt lat="49.99613" lon="3.46239">
        <ele>113.2</ele>
        <time>2023-08-06T13:49:08Z</time>
      </trkpt>
      <trkpt lat="49.9961" lon="3.46238">
        <ele>113.2</ele>
        <time>2023-08-06T13:49:09Z</time>
      </trkpt>
      <trkpt lat="49.99607" lon="3.46237">
        <ele>113.2</ele>
        <time>2023-08-06T13:49:10Z</time>
      </trkpt>
      <trkpt lat="49.99583" lon="3.46234">
        <ele>113.8</ele>
        <time>2023-08-06T13:49:17Z</time>
      </trkpt>
      <trkpt lat="49.99572" lon="3.46233">
        <ele>114</ele>
        <time>2023-08-06T13:49:20Z</time>
      </trkpt>
      <trkpt lat="49.99553" lon="3.46235">
        <ele>114.2</ele>
        <time>2023-08-06T13:49:25Z</time>
      </trkpt>
      <trkpt lat="49.99529" lon="3.46232">
        <ele>114.6</ele>
        <time>2023-08-06T13:49:31Z</time>
      </trkpt>
      <trkpt lat="49.99505" lon="3.4623">
        <ele>114.8</ele>
        <time>2023-08-06T13:49:37Z</time>
      </trkpt>
      <trkpt lat="49.99492" lon="3.46228">
        <ele>115</ele>
        <time>2023-08-06T13:49:40Z</time>
      </trkpt>
      <trkpt lat="49.99475" lon="3.46224">
        <ele>115</ele>
        <time>2023-08-06T13:49:44Z</time>
      </trkpt>
      <trkpt lat="49.99471" lon="3.46223">
        <ele>115</ele>
        <time>2023-08-06T13:49:45Z</time>
      </trkpt>
      <trkpt lat="49.99437" lon="3.46217">
        <ele>115.2</ele>
        <time>2023-08-06T13:49:52Z</time>
      </trkpt>
      <trkpt lat="49.99428" lon="3.46217">
        <ele>115.4</ele>
        <time>2023-08-06T13:49:54Z</time>
      </trkpt>
      <trkpt lat="49.99414" lon="3.46214">
        <ele>115.4</ele>
        <time>2023-08-06T13:49:57Z</time>
      </trkpt>
      <trkpt lat="49.9941" lon="3.46214">
        <ele>115.4</ele>
        <time>2023-08-06T13:49:58Z</time>
      </trkpt>
      <trkpt lat="49.99405" lon="3.46213">
        <ele>115.2</ele>
        <time>2023-08-06T13:49:59Z</time>
      </trkpt>
      <trkpt lat="49.99401" lon="3.46213">
        <ele>115.2</ele>
        <time>2023-08-06T13:50:00Z</time>
      </trkpt>
      <trkpt lat="49.99397" lon="3.46212">
        <ele>115.4</ele>
        <time>2023-08-06T13:50:01Z</time>
      </trkpt>
      <trkpt lat="49.99392" lon="3.46211">
        <ele>115.4</ele>
        <time>2023-08-06T13:50:02Z</time>
      </trkpt>
      <trkpt lat="49.99388" lon="3.46211">
        <ele>115.4</ele>
        <time>2023-08-06T13:50:03Z</time>
      </trkpt>
      <trkpt lat="49.99384" lon="3.4621">
        <ele>115.6</ele>
        <time>2023-08-06T13:50:04Z</time>
      </trkpt>
      <trkpt lat="49.9938" lon="3.46209">
        <ele>115.6</ele>
        <time>2023-08-06T13:50:05Z</time>
      </trkpt>
      <trkpt lat="49.99377" lon="3.46208">
        <ele>115.8</ele>
        <time>2023-08-06T13:50:06Z</time>
      </trkpt>
      <trkpt lat="49.99373" lon="3.46208">
        <ele>115.8</ele>
        <time>2023-08-06T13:50:07Z</time>
      </trkpt>
      <trkpt lat="49.99369" lon="3.46207">
        <ele>116</ele>
        <time>2023-08-06T13:50:08Z</time>
      </trkpt>
      <trkpt lat="49.99365" lon="3.46207">
        <ele>116</ele>
        <time>2023-08-06T13:50:09Z</time>
      </trkpt>
      <trkpt lat="49.99361" lon="3.46207">
        <ele>116</ele>
        <time>2023-08-06T13:50:10Z</time>
      </trkpt>
      <trkpt lat="49.99358" lon="3.46207">
        <ele>116</ele>
        <time>2023-08-06T13:50:11Z</time>
      </trkpt>
      <trkpt lat="49.99354" lon="3.46207">
        <ele>116</ele>
        <time>2023-08-06T13:50:12Z</time>
      </trkpt>
      <trkpt lat="49.99351" lon="3.46206">
        <ele>115.8</ele>
        <time>2023-08-06T13:50:13Z</time>
      </trkpt>
      <trkpt lat="49.99347" lon="3.46205">
        <ele>115.8</ele>
        <time>2023-08-06T13:50:14Z</time>
      </trkpt>
      <trkpt lat="49.99343" lon="3.46205">
        <ele>115.8</ele>
        <time>2023-08-06T13:50:15Z</time>
      </trkpt>
      <trkpt lat="49.9934" lon="3.46204">
        <ele>115.8</ele>
        <time>2023-08-06T13:50:16Z</time>
      </trkpt>
      <trkpt lat="49.99336" lon="3.46204">
        <ele>115.8</ele>
        <time>2023-08-06T13:50:17Z</time>
      </trkpt>
      <trkpt lat="49.99333" lon="3.46203">
        <ele>115.8</ele>
        <time>2023-08-06T13:50:18Z</time>
      </trkpt>
      <trkpt lat="49.99329" lon="3.46202">
        <ele>116</ele>
        <time>2023-08-06T13:50:19Z</time>
      </trkpt>
      <trkpt lat="49.99326" lon="3.46202">
        <ele>116.2</ele>
        <time>2023-08-06T13:50:20Z</time>
      </trkpt>
      <trkpt lat="49.99322" lon="3.46202">
        <ele>116.2</ele>
        <time>2023-08-06T13:50:21Z</time>
      </trkpt>
      <trkpt lat="49.99319" lon="3.46201">
        <ele>116.2</ele>
        <time>2023-08-06T13:50:22Z</time>
      </trkpt>
      <trkpt lat="49.99277" lon="3.46199">
        <ele>116.8</ele>
        <time>2023-08-06T13:50:33Z</time>
      </trkpt>
      <trkpt lat="49.9926" lon="3.46197">
        <ele>117.2</ele>
        <time>2023-08-06T13:50:37Z</time>
      </trkpt>
      <trkpt lat="49.99238" lon="3.46194">
        <ele>117.2</ele>
        <time>2023-08-06T13:50:42Z</time>
      </trkpt>
      <trkpt lat="49.99205" lon="3.46191">
        <ele>117</ele>
        <time>2023-08-06T13:50:48Z</time>
      </trkpt>
      <trkpt lat="49.99194" lon="3.46189">
        <ele>116.8</ele>
        <time>2023-08-06T13:50:50Z</time>
      </trkpt>
      <trkpt lat="49.99171" lon="3.46184">
        <ele>116.2</ele>
        <time>2023-08-06T13:50:54Z</time>
      </trkpt>
      <trkpt lat="49.99161" lon="3.46182">
        <ele>116</ele>
        <time>2023-08-06T13:50:56Z</time>
      </trkpt>
      <trkpt lat="49.99156" lon="3.46181">
        <ele>115.6</ele>
        <time>2023-08-06T13:50:57Z</time>
      </trkpt>
      <trkpt lat="49.99151" lon="3.46179">
        <ele>115.4</ele>
        <time>2023-08-06T13:50:58Z</time>
      </trkpt>
      <trkpt lat="49.99146" lon="3.46177">
        <ele>115.2</ele>
        <time>2023-08-06T13:50:59Z</time>
      </trkpt>
      <trkpt lat="49.99142" lon="3.46176">
        <ele>115.2</ele>
        <time>2023-08-06T13:51:00Z</time>
      </trkpt>
      <trkpt lat="49.99137" lon="3.46174">
        <ele>115</ele>
        <time>2023-08-06T13:51:01Z</time>
      </trkpt>
      <trkpt lat="49.99132" lon="3.46171">
        <ele>115</ele>
        <time>2023-08-06T13:51:02Z</time>
      </trkpt>
      <trkpt lat="49.99127" lon="3.46169">
        <ele>114.8</ele>
        <time>2023-08-06T13:51:03Z</time>
      </trkpt>
      <trkpt lat="49.99122" lon="3.46167">
        <ele>114.8</ele>
        <time>2023-08-06T13:51:04Z</time>
      </trkpt>
      <trkpt lat="49.99081" lon="3.46144">
        <ele>114.8</ele>
        <time>2023-08-06T13:51:12Z</time>
      </trkpt>
      <trkpt lat="49.99077" lon="3.46141">
        <ele>114.8</ele>
        <time>2023-08-06T13:51:13Z</time>
      </trkpt>
      <trkpt lat="49.99059" lon="3.46124">
        <ele>114.8</ele>
        <time>2023-08-06T13:51:17Z</time>
      </trkpt>
      <trkpt lat="49.9905" lon="3.46116">
        <ele>114.8</ele>
        <time>2023-08-06T13:51:19Z</time>
      </trkpt>
      <trkpt lat="49.99007" lon="3.46073">
        <ele>114.2</ele>
        <time>2023-08-06T13:51:28Z</time>
      </trkpt>
      <trkpt lat="49.98974" lon="3.46039">
        <ele>113.8</ele>
        <time>2023-08-06T13:51:35Z</time>
      </trkpt>
      <trkpt lat="49.98969" lon="3.46034">
        <ele>114</ele>
        <time>2023-08-06T13:51:36Z</time>
      </trkpt>
      <trkpt lat="49.98964" lon="3.4603">
        <ele>114</ele>
        <time>2023-08-06T13:51:37Z</time>
      </trkpt>
      <trkpt lat="49.9896" lon="3.46025">
        <ele>114</ele>
        <time>2023-08-06T13:51:38Z</time>
      </trkpt>
      <trkpt lat="49.98955" lon="3.4602">
        <ele>114</ele>
        <time>2023-08-06T13:51:39Z</time>
      </trkpt>
      <trkpt lat="49.9895" lon="3.46016">
        <ele>113.8</ele>
        <time>2023-08-06T13:51:40Z</time>
      </trkpt>
      <trkpt lat="49.98946" lon="3.46011">
        <ele>113.8</ele>
        <time>2023-08-06T13:51:41Z</time>
      </trkpt>
      <trkpt lat="49.98941" lon="3.46007">
        <ele>113.8</ele>
        <time>2023-08-06T13:51:42Z</time>
      </trkpt>
      <trkpt lat="49.98931" lon="3.45998">
        <ele>113.8</ele>
        <time>2023-08-06T13:51:44Z</time>
      </trkpt>
      <trkpt lat="49.98886" lon="3.45954">
        <ele>113</ele>
        <time>2023-08-06T13:51:53Z</time>
      </trkpt>
      <trkpt lat="49.98874" lon="3.45942">
        <ele>112.6</ele>
        <time>2023-08-06T13:51:55Z</time>
      </trkpt>
      <trkpt lat="49.98842" lon="3.45908">
        <ele>111.4</ele>
        <time>2023-08-06T13:52:01Z</time>
      </trkpt>
      <trkpt lat="49.98836" lon="3.45902">
        <ele>111.2</ele>
        <time>2023-08-06T13:52:02Z</time>
      </trkpt>
      <trkpt lat="49.9883" lon="3.45897">
        <ele>111</ele>
        <time>2023-08-06T13:52:03Z</time>
      </trkpt>
      <trkpt lat="49.98809" lon="3.45888">
        <ele>110.6</ele>
        <time>2023-08-06T13:52:06Z</time>
      </trkpt>
      <trkpt lat="49.98803" lon="3.45885">
        <ele>110.4</ele>
        <time>2023-08-06T13:52:07Z</time>
      </trkpt>
      <trkpt lat="49.98796" lon="3.4588">
        <ele>110.2</ele>
        <time>2023-08-06T13:52:08Z</time>
      </trkpt>
      <trkpt lat="49.98791" lon="3.45877">
        <ele>110</ele>
        <time>2023-08-06T13:52:09Z</time>
      </trkpt>
      <trkpt lat="49.98787" lon="3.45873">
        <ele>109.8</ele>
        <time>2023-08-06T13:52:10Z</time>
      </trkpt>
      <trkpt lat="49.98783" lon="3.4587">
        <ele>109.8</ele>
        <time>2023-08-06T13:52:11Z</time>
      </trkpt>
      <trkpt lat="49.98779" lon="3.45867">
        <ele>109.6</ele>
        <time>2023-08-06T13:52:12Z</time>
      </trkpt>
      <trkpt lat="49.98774" lon="3.45862">
        <ele>109.6</ele>
        <time>2023-08-06T13:52:13Z</time>
      </trkpt>
      <trkpt lat="49.98762" lon="3.45849">
        <ele>109.6</ele>
        <time>2023-08-06T13:52:16Z</time>
      </trkpt>
      <trkpt lat="49.98738" lon="3.45813">
        <ele>109.2</ele>
        <time>2023-08-06T13:52:22Z</time>
      </trkpt>
      <trkpt lat="49.98734" lon="3.45806">
        <ele>109</ele>
        <time>2023-08-06T13:52:23Z</time>
      </trkpt>
      <trkpt lat="49.98731" lon="3.45801">
        <ele>108.8</ele>
        <time>2023-08-06T13:52:24Z</time>
      </trkpt>
      <trkpt lat="49.98728" lon="3.45797">
        <ele>108.4</ele>
        <time>2023-08-06T13:52:25Z</time>
      </trkpt>
      <trkpt lat="49.98726" lon="3.45793">
        <ele>108</ele>
        <time>2023-08-06T13:52:26Z</time>
      </trkpt>
      <trkpt lat="49.98723" lon="3.45789">
        <ele>108</ele>
        <time>2023-08-06T13:52:27Z</time>
      </trkpt>
      <trkpt lat="49.98719" lon="3.45784">
        <ele>107.4</ele>
        <time>2023-08-06T13:52:28Z</time>
      </trkpt>
      <trkpt lat="49.98714" lon="3.45776">
        <ele>106.6</ele>
        <time>2023-08-06T13:52:30Z</time>
      </trkpt>
      <trkpt lat="49.98712" lon="3.45772">
        <ele>106.6</ele>
        <time>2023-08-06T13:52:31Z</time>
      </trkpt>
      <trkpt lat="49.98711" lon="3.45767">
        <ele>105.8</ele>
        <time>2023-08-06T13:52:32Z</time>
      </trkpt>
      <trkpt lat="49.98711" lon="3.4576">
        <ele>105.6</ele>
        <time>2023-08-06T13:52:33Z</time>
      </trkpt>
      <trkpt lat="49.98711" lon="3.45755">
        <ele>105</ele>
        <time>2023-08-06T13:52:34Z</time>
      </trkpt>
      <trkpt lat="49.98712" lon="3.45749">
        <ele>104.4</ele>
        <time>2023-08-06T13:52:35Z</time>
      </trkpt>
      <trkpt lat="49.98712" lon="3.45744">
        <ele>104.2</ele>
        <time>2023-08-06T13:52:36Z</time>
      </trkpt>
      <trkpt lat="49.98713" lon="3.45725">
        <ele>103.4</ele>
        <time>2023-08-06T13:52:39Z</time>
      </trkpt>
      <trkpt lat="49.98713" lon="3.45719">
        <ele>103.2</ele>
        <time>2023-08-06T13:52:40Z</time>
      </trkpt>
      <trkpt lat="49.9871" lon="3.4568">
        <ele>102.8</ele>
        <time>2023-08-06T13:52:47Z</time>
      </trkpt>
      <trkpt lat="49.98708" lon="3.45674">
        <ele>102.8</ele>
        <time>2023-08-06T13:52:48Z</time>
      </trkpt>
      <trkpt lat="49.98705" lon="3.4567">
        <ele>102.8</ele>
        <time>2023-08-06T13:52:49Z</time>
      </trkpt>
      <trkpt lat="49.98702" lon="3.45668">
        <ele>103</ele>
        <time>2023-08-06T13:52:50Z</time>
      </trkpt>
      <trkpt lat="49.98699" lon="3.45668">
        <ele>103</ele>
        <time>2023-08-06T13:52:51Z</time>
      </trkpt>
      <trkpt lat="49.98691" lon="3.45669">
        <ele>103</ele>
        <time>2023-08-06T13:52:53Z</time>
      </trkpt>
      <trkpt lat="49.98687" lon="3.45671">
        <ele>103</ele>
        <time>2023-08-06T13:52:54Z</time>
      </trkpt>
      <trkpt lat="49.98683" lon="3.45672">
        <ele>103</ele>
        <time>2023-08-06T13:52:55Z</time>
      </trkpt>
      <trkpt lat="49.98675" lon="3.45674">
        <ele>103</ele>
        <time>2023-08-06T13:52:57Z</time>
      </trkpt>
      <trkpt lat="49.98669" lon="3.45676">
        <ele>102.8</ele>
        <time>2023-08-06T13:52:59Z</time>
      </trkpt>
      <trkpt lat="49.98666" lon="3.45677">
        <ele>102.6</ele>
        <time>2023-08-06T13:53:00Z</time>
      </trkpt>
      <trkpt lat="49.98665" lon="3.45676">
        <ele>102.2</ele>
        <time>2023-08-06T13:53:01Z</time>
      </trkpt>
      <trkpt lat="49.98664" lon="3.45675">
        <ele>102</ele>
        <time>2023-08-06T13:53:02Z</time>
      </trkpt>
      <trkpt lat="49.98663" lon="3.45673">
        <ele>101.8</ele>
        <time>2023-08-06T13:53:03Z</time>
      </trkpt>
      <trkpt lat="49.98662" lon="3.45665">
        <ele>101.4</ele>
        <time>2023-08-06T13:53:05Z</time>
      </trkpt>
      <trkpt lat="49.98662" lon="3.4566">
        <ele>101</ele>
        <time>2023-08-06T13:53:06Z</time>
      </trkpt>
      <trkpt lat="49.9866" lon="3.45656">
        <ele>100.6</ele>
        <time>2023-08-06T13:53:07Z</time>
      </trkpt>
      <trkpt lat="49.98655" lon="3.45649">
        <ele>100.4</ele>
        <time>2023-08-06T13:53:09Z</time>
      </trkpt>
      <trkpt lat="49.98653" lon="3.45648">
        <ele>100.4</ele>
        <time>2023-08-06T13:53:10Z</time>
      </trkpt>
      <trkpt lat="49.98645" lon="3.45648">
        <ele>100.2</ele>
        <time>2023-08-06T13:53:12Z</time>
      </trkpt>
      <trkpt lat="49.98641" lon="3.45648">
        <ele>100.2</ele>
        <time>2023-08-06T13:53:13Z</time>
      </trkpt>
      <trkpt lat="49.98636" lon="3.45648">
        <ele>100</ele>
        <time>2023-08-06T13:53:14Z</time>
      </trkpt>
      <trkpt lat="49.98628" lon="3.4565">
        <ele>100</ele>
        <time>2023-08-06T13:53:16Z</time>
      </trkpt>
      <trkpt lat="49.98616" lon="3.45653">
        <ele>100</ele>
        <time>2023-08-06T13:53:18Z</time>
      </trkpt>
      <trkpt lat="49.98583" lon="3.45657">
        <ele>99</ele>
        <time>2023-08-06T13:53:24Z</time>
      </trkpt>
      <trkpt lat="49.98578" lon="3.45657">
        <ele>98.8</ele>
        <time>2023-08-06T13:53:25Z</time>
      </trkpt>
      <trkpt lat="49.98574" lon="3.45657">
        <ele>98.6</ele>
        <time>2023-08-06T13:53:26Z</time>
      </trkpt>
      <trkpt lat="49.98569" lon="3.45657">
        <ele>98.2</ele>
        <time>2023-08-06T13:53:27Z</time>
      </trkpt>
      <trkpt lat="49.98566" lon="3.45657">
        <ele>98</ele>
        <time>2023-08-06T13:53:28Z</time>
      </trkpt>
      <trkpt lat="49.98563" lon="3.45655">
        <ele>97.6</ele>
        <time>2023-08-06T13:53:29Z</time>
      </trkpt>
      <trkpt lat="49.98562" lon="3.45651">
        <ele>97.4</ele>
        <time>2023-08-06T13:53:30Z</time>
      </trkpt>
      <trkpt lat="49.98561" lon="3.45645">
        <ele>97.2</ele>
        <time>2023-08-06T13:53:31Z</time>
      </trkpt>
      <trkpt lat="49.98561" lon="3.45639">
        <ele>97</ele>
        <time>2023-08-06T13:53:32Z</time>
      </trkpt>
      <trkpt lat="49.9856" lon="3.45634">
        <ele>96.8</ele>
        <time>2023-08-06T13:53:33Z</time>
      </trkpt>
      <trkpt lat="49.98559" lon="3.45629">
        <ele>96.4</ele>
        <time>2023-08-06T13:53:34Z</time>
      </trkpt>
      <trkpt lat="49.98556" lon="3.45618">
        <ele>96</ele>
        <time>2023-08-06T13:53:36Z</time>
      </trkpt>
      <trkpt lat="49.98555" lon="3.45613">
        <ele>96</ele>
        <time>2023-08-06T13:53:37Z</time>
      </trkpt>
      <trkpt lat="49.98554" lon="3.4561">
        <ele>95.8</ele>
        <time>2023-08-06T13:53:38Z</time>
      </trkpt>
      <trkpt lat="49.98552" lon="3.45608">
        <ele>95.8</ele>
        <time>2023-08-06T13:53:39Z</time>
      </trkpt>
      <trkpt lat="49.9855" lon="3.45608">
        <ele>95.8</ele>
        <time>2023-08-06T13:53:40Z</time>
      </trkpt>
      <trkpt lat="49.98547" lon="3.45607">
        <ele>95.6</ele>
        <time>2023-08-06T13:53:41Z</time>
      </trkpt>
      <trkpt lat="49.98539" lon="3.45608">
        <ele>95.4</ele>
        <time>2023-08-06T13:53:43Z</time>
      </trkpt>
      <trkpt lat="49.98537" lon="3.45609">
        <ele>95.4</ele>
        <time>2023-08-06T13:53:44Z</time>
      </trkpt>
      <trkpt lat="49.98527" lon="3.45611">
        <ele>95.2</ele>
        <time>2023-08-06T13:53:47Z</time>
      </trkpt>
      <trkpt lat="49.98523" lon="3.45611">
        <ele>95.2</ele>
        <time>2023-08-06T13:53:48Z</time>
      </trkpt>
      <trkpt lat="49.98521" lon="3.45609">
        <ele>95</ele>
        <time>2023-08-06T13:53:49Z</time>
      </trkpt>
      <trkpt lat="49.9852" lon="3.45605">
        <ele>95</ele>
        <time>2023-08-06T13:53:50Z</time>
      </trkpt>
      <trkpt lat="49.98518" lon="3.45595">
        <ele>95</ele>
        <time>2023-08-06T13:53:52Z</time>
      </trkpt>
      <trkpt lat="49.98517" lon="3.4559">
        <ele>95</ele>
        <time>2023-08-06T13:53:53Z</time>
      </trkpt>
      <trkpt lat="49.98516" lon="3.45584">
        <ele>95</ele>
        <time>2023-08-06T13:53:54Z</time>
      </trkpt>
      <trkpt lat="49.98516" lon="3.45578">
        <ele>95</ele>
        <time>2023-08-06T13:53:55Z</time>
      </trkpt>
      <trkpt lat="49.9851" lon="3.45542">
        <ele>95</ele>
        <time>2023-08-06T13:54:01Z</time>
      </trkpt>
      <trkpt lat="49.98509" lon="3.45537">
        <ele>95</ele>
        <time>2023-08-06T13:54:02Z</time>
      </trkpt>
      <trkpt lat="49.98508" lon="3.45533">
        <ele>95</ele>
        <time>2023-08-06T13:54:03Z</time>
      </trkpt>
      <trkpt lat="49.98507" lon="3.45529">
        <ele>94.8</ele>
        <time>2023-08-06T13:54:04Z</time>
      </trkpt>
      <trkpt lat="49.98506" lon="3.45525">
        <ele>94.8</ele>
        <time>2023-08-06T13:54:05Z</time>
      </trkpt>
      <trkpt lat="49.98504" lon="3.45521">
        <ele>94.8</ele>
        <time>2023-08-06T13:54:06Z</time>
      </trkpt>
      <trkpt lat="49.98494" lon="3.45503">
        <ele>95</ele>
        <time>2023-08-06T13:54:11Z</time>
      </trkpt>
      <trkpt lat="49.98493" lon="3.45503">
        <ele>94.8</ele>
        <time>2023-08-06T13:54:12Z</time>
      </trkpt>
      <trkpt lat="49.98492" lon="3.45505">
        <ele>94.8</ele>
        <time>2023-08-06T13:54:13Z</time>
      </trkpt>
      <trkpt lat="49.98493" lon="3.45507">
        <ele>94.8</ele>
        <time>2023-08-06T13:54:14Z</time>
      </trkpt>
      <trkpt lat="49.98499" lon="3.45516">
        <ele>94.6</ele>
        <time>2023-08-06T13:54:17Z</time>
      </trkpt>
      <trkpt lat="49.98501" lon="3.4552">
        <ele>94.6</ele>
        <time>2023-08-06T13:54:18Z</time>
      </trkpt>
      <trkpt lat="49.98504" lon="3.45529">
        <ele>94.4</ele>
        <time>2023-08-06T13:54:20Z</time>
      </trkpt>
      <trkpt lat="49.98505" lon="3.45533">
        <ele>94.4</ele>
        <time>2023-08-06T13:54:21Z</time>
      </trkpt>
      <trkpt lat="49.98507" lon="3.45544">
        <ele>94.4</ele>
        <time>2023-08-06T13:54:23Z</time>
      </trkpt>
      <trkpt lat="49.98508" lon="3.45556">
        <ele>94.4</ele>
        <time>2023-08-06T13:54:25Z</time>
      </trkpt>
      <trkpt lat="49.98513" lon="3.45578">
        <ele>94.6</ele>
        <time>2023-08-06T13:54:29Z</time>
      </trkpt>
      <trkpt lat="49.98518" lon="3.45612">
        <ele>94.8</ele>
        <time>2023-08-06T13:54:35Z</time>
      </trkpt>
      <trkpt lat="49.98518" lon="3.45616">
        <ele>94.8</ele>
        <time>2023-08-06T13:54:36Z</time>
      </trkpt>
      <trkpt lat="49.9852" lon="3.45621">
        <ele>94.8</ele>
        <time>2023-08-06T13:54:37Z</time>
      </trkpt>
      <trkpt lat="49.98521" lon="3.45623">
        <ele>94.8</ele>
        <time>2023-08-06T13:54:38Z</time>
      </trkpt>
      <trkpt lat="49.98523" lon="3.45624">
        <ele>95</ele>
        <time>2023-08-06T13:54:39Z</time>
      </trkpt>
      <trkpt lat="49.98525" lon="3.45622">
        <ele>95.2</ele>
        <time>2023-08-06T13:54:40Z</time>
      </trkpt>
      <trkpt lat="49.98526" lon="3.45619">
        <ele>95.2</ele>
        <time>2023-08-06T13:54:41Z</time>
      </trkpt>
      <trkpt lat="49.98525" lon="3.45617">
        <ele>95.4</ele>
        <time>2023-08-06T13:54:42Z</time>
      </trkpt>
      <trkpt lat="49.98524" lon="3.45614">
        <ele>95.4</ele>
        <time>2023-08-06T13:54:43Z</time>
      </trkpt>
      <trkpt lat="49.98523" lon="3.45613">
        <ele>95.4</ele>
        <time>2023-08-06T13:54:44Z</time>
      </trkpt>
      <trkpt lat="49.98522" lon="3.4561">
        <ele>95.4</ele>
        <time>2023-08-06T13:54:45Z</time>
      </trkpt>
      <trkpt lat="49.98522" lon="3.45608">
        <ele>95.4</ele>
        <time>2023-08-06T13:54:46Z</time>
      </trkpt>
      <trkpt lat="49.98521" lon="3.45605">
        <ele>95.2</ele>
        <time>2023-08-06T13:54:47Z</time>
      </trkpt>
      <trkpt lat="49.98521" lon="3.45603">
        <ele>95.2</ele>
        <time>2023-08-06T13:54:48Z</time>
      </trkpt>
      <trkpt lat="49.98521" lon="3.45601">
        <ele>95.2</ele>
        <time>2023-08-06T13:54:49Z</time>
      </trkpt>
      <trkpt lat="49.9852" lon="3.456">
        <ele>95.2</ele>
        <time>2023-08-06T13:54:50Z</time>
      </trkpt>
      <trkpt lat="49.9852" lon="3.456">
        <ele>95.2</ele>
        <time>2023-08-06T13:54:52Z</time>
      </trkpt>
      <trkpt lat="49.9852" lon="3.45596">
        <ele>94.8</ele>
        <time>2023-08-06T13:55:38Z</time>
      </trkpt>
      <trkpt lat="49.98515" lon="3.45568">
        <ele>94.4</ele>
        <time>2023-08-06T13:55:44Z</time>
      </trkpt>
      <trkpt lat="49.98511" lon="3.45547">
        <ele>94.4</ele>
        <time>2023-08-06T13:55:48Z</time>
      </trkpt>
      <trkpt lat="49.9851" lon="3.45531">
        <ele>94.4</ele>
        <time>2023-08-06T13:55:51Z</time>
      </trkpt>
      <trkpt lat="49.98509" lon="3.45518">
        <ele>94.6</ele>
        <time>2023-08-06T13:55:54Z</time>
      </trkpt>
      <trkpt lat="49.98506" lon="3.45514">
        <ele>94.6</ele>
        <time>2023-08-06T13:55:55Z</time>
      </trkpt>
      <trkpt lat="49.98499" lon="3.45508">
        <ele>94.8</ele>
        <time>2023-08-06T13:55:57Z</time>
      </trkpt>
      <trkpt lat="49.98492" lon="3.45503">
        <ele>95</ele>
        <time>2023-08-06T13:55:59Z</time>
      </trkpt>
      <trkpt lat="49.98489" lon="3.45499">
        <ele>95</ele>
        <time>2023-08-06T13:56:00Z</time>
      </trkpt>
      <trkpt lat="49.98481" lon="3.45492">
        <ele>95</ele>
        <time>2023-08-06T13:56:02Z</time>
      </trkpt>
      <trkpt lat="49.98474" lon="3.45488">
        <ele>95</ele>
        <time>2023-08-06T13:56:04Z</time>
      </trkpt>
      <trkpt lat="49.98433" lon="3.45473">
        <ele>94.4</ele>
        <time>2023-08-06T13:56:14Z</time>
      </trkpt>
      <trkpt lat="49.98425" lon="3.4547">
        <ele>94.4</ele>
        <time>2023-08-06T13:56:16Z</time>
      </trkpt>
      <trkpt lat="49.98421" lon="3.45467">
        <ele>94.6</ele>
        <time>2023-08-06T13:56:17Z</time>
      </trkpt>
      <trkpt lat="49.98417" lon="3.45465">
        <ele>94.6</ele>
        <time>2023-08-06T13:56:18Z</time>
      </trkpt>
      <trkpt lat="49.98414" lon="3.45462">
        <ele>94.6</ele>
        <time>2023-08-06T13:56:19Z</time>
      </trkpt>
      <trkpt lat="49.98406" lon="3.45457">
        <ele>94.6</ele>
        <time>2023-08-06T13:56:21Z</time>
      </trkpt>
      <trkpt lat="49.98395" lon="3.45451">
        <ele>94.6</ele>
        <time>2023-08-06T13:56:24Z</time>
      </trkpt>
      <trkpt lat="49.98391" lon="3.45448">
        <ele>94.8</ele>
        <time>2023-08-06T13:56:25Z</time>
      </trkpt>
      <trkpt lat="49.98382" lon="3.45438">
        <ele>95</ele>
        <time>2023-08-06T13:56:28Z</time>
      </trkpt>
      <trkpt lat="49.98379" lon="3.45434">
        <ele>95.2</ele>
        <time>2023-08-06T13:56:29Z</time>
      </trkpt>
      <trkpt lat="49.98376" lon="3.4543">
        <ele>95.2</ele>
        <time>2023-08-06T13:56:30Z</time>
      </trkpt>
      <trkpt lat="49.98373" lon="3.45427">
        <ele>95.6</ele>
        <time>2023-08-06T13:56:31Z</time>
      </trkpt>
      <trkpt lat="49.98369" lon="3.45423">
        <ele>95.8</ele>
        <time>2023-08-06T13:56:32Z</time>
      </trkpt>
      <trkpt lat="49.98366" lon="3.4542">
        <ele>95.8</ele>
        <time>2023-08-06T13:56:33Z</time>
      </trkpt>
      <trkpt lat="49.9836" lon="3.45414">
        <ele>96.4</ele>
        <time>2023-08-06T13:56:35Z</time>
      </trkpt>
      <trkpt lat="49.98357" lon="3.4541">
        <ele>96.4</ele>
        <time>2023-08-06T13:56:36Z</time>
      </trkpt>
      <trkpt lat="49.98332" lon="3.45382">
        <ele>97.2</ele>
        <time>2023-08-06T13:56:44Z</time>
      </trkpt>
      <trkpt lat="49.98329" lon="3.45379">
        <ele>97.4</ele>
        <time>2023-08-06T13:56:45Z</time>
      </trkpt>
      <trkpt lat="49.98326" lon="3.45376">
        <ele>97.4</ele>
        <time>2023-08-06T13:56:46Z</time>
      </trkpt>
      <trkpt lat="49.98322" lon="3.45372">
        <ele>97.6</ele>
        <time>2023-08-06T13:56:47Z</time>
      </trkpt>
      <trkpt lat="49.98319" lon="3.45369">
        <ele>97.6</ele>
        <time>2023-08-06T13:56:48Z</time>
      </trkpt>
      <trkpt lat="49.98316" lon="3.45366">
        <ele>97.8</ele>
        <time>2023-08-06T13:56:49Z</time>
      </trkpt>
      <trkpt lat="49.98313" lon="3.45362">
        <ele>98</ele>
        <time>2023-08-06T13:56:50Z</time>
      </trkpt>
      <trkpt lat="49.9831" lon="3.4536">
        <ele>98.2</ele>
        <time>2023-08-06T13:56:51Z</time>
      </trkpt>
      <trkpt lat="49.98307" lon="3.45357">
        <ele>98.6</ele>
        <time>2023-08-06T13:56:52Z</time>
      </trkpt>
      <trkpt lat="49.98304" lon="3.45354">
        <ele>98.6</ele>
        <time>2023-08-06T13:56:53Z</time>
      </trkpt>
      <trkpt lat="49.98302" lon="3.45351">
        <ele>98.8</ele>
        <time>2023-08-06T13:56:54Z</time>
      </trkpt>
      <trkpt lat="49.98299" lon="3.45348">
        <ele>98.8</ele>
        <time>2023-08-06T13:56:55Z</time>
      </trkpt>
      <trkpt lat="49.98296" lon="3.45345">
        <ele>99.2</ele>
        <time>2023-08-06T13:56:56Z</time>
      </trkpt>
      <trkpt lat="49.98293" lon="3.45342">
        <ele>99.2</ele>
        <time>2023-08-06T13:56:57Z</time>
      </trkpt>
      <trkpt lat="49.9829" lon="3.45338">
        <ele>99.2</ele>
        <time>2023-08-06T13:56:58Z</time>
      </trkpt>
      <trkpt lat="49.98287" lon="3.45335">
        <ele>99.4</ele>
        <time>2023-08-06T13:56:59Z</time>
      </trkpt>
      <trkpt lat="49.98284" lon="3.45332">
        <ele>99.4</ele>
        <time>2023-08-06T13:57:00Z</time>
      </trkpt>
      <trkpt lat="49.98281" lon="3.45328">
        <ele>99.4</ele>
        <time>2023-08-06T13:57:01Z</time>
      </trkpt>
      <trkpt lat="49.98278" lon="3.45325">
        <ele>99.4</ele>
        <time>2023-08-06T13:57:02Z</time>
      </trkpt>
      <trkpt lat="49.98275" lon="3.45322">
        <ele>99.6</ele>
        <time>2023-08-06T13:57:03Z</time>
      </trkpt>
      <trkpt lat="49.98273" lon="3.4532">
        <ele>99.6</ele>
        <time>2023-08-06T13:57:04Z</time>
      </trkpt>
      <trkpt lat="49.9827" lon="3.45318">
        <ele>99.6</ele>
        <time>2023-08-06T13:57:05Z</time>
      </trkpt>
      <trkpt lat="49.98266" lon="3.45315">
        <ele>99.8</ele>
        <time>2023-08-06T13:57:06Z</time>
      </trkpt>
      <trkpt lat="49.98263" lon="3.45312">
        <ele>100</ele>
        <time>2023-08-06T13:57:07Z</time>
      </trkpt>
      <trkpt lat="49.9826" lon="3.45309">
        <ele>100.2</ele>
        <time>2023-08-06T13:57:08Z</time>
      </trkpt>
      <trkpt lat="49.98257" lon="3.45306">
        <ele>100.2</ele>
        <time>2023-08-06T13:57:09Z</time>
      </trkpt>
      <trkpt lat="49.98254" lon="3.45303">
        <ele>100.2</ele>
        <time>2023-08-06T13:57:10Z</time>
      </trkpt>
      <trkpt lat="49.98251" lon="3.453">
        <ele>100.2</ele>
        <time>2023-08-06T13:57:11Z</time>
      </trkpt>
      <trkpt lat="49.98248" lon="3.45298">
        <ele>100.4</ele>
        <time>2023-08-06T13:57:12Z</time>
      </trkpt>
      <trkpt lat="49.98245" lon="3.45295">
        <ele>100.4</ele>
        <time>2023-08-06T13:57:13Z</time>
      </trkpt>
      <trkpt lat="49.98241" lon="3.45292">
        <ele>100.6</ele>
        <time>2023-08-06T13:57:14Z</time>
      </trkpt>
      <trkpt lat="49.98238" lon="3.4529">
        <ele>100.6</ele>
        <time>2023-08-06T13:57:15Z</time>
      </trkpt>
      <trkpt lat="49.98235" lon="3.45287">
        <ele>100.6</ele>
        <time>2023-08-06T13:57:16Z</time>
      </trkpt>
      <trkpt lat="49.98232" lon="3.45284">
        <ele>100.8</ele>
        <time>2023-08-06T13:57:17Z</time>
      </trkpt>
      <trkpt lat="49.98229" lon="3.45281">
        <ele>100.8</ele>
        <time>2023-08-06T13:57:18Z</time>
      </trkpt>
      <trkpt lat="49.98226" lon="3.45278">
        <ele>101</ele>
        <time>2023-08-06T13:57:19Z</time>
      </trkpt>
      <trkpt lat="49.98217" lon="3.45269">
        <ele>101.8</ele>
        <time>2023-08-06T13:57:22Z</time>
      </trkpt>
      <trkpt lat="49.98214" lon="3.45266">
        <ele>101.8</ele>
        <time>2023-08-06T13:57:23Z</time>
      </trkpt>
      <trkpt lat="49.98211" lon="3.45262">
        <ele>102</ele>
        <time>2023-08-06T13:57:24Z</time>
      </trkpt>
      <trkpt lat="49.98208" lon="3.45258">
        <ele>102.2</ele>
        <time>2023-08-06T13:57:25Z</time>
      </trkpt>
      <trkpt lat="49.98205" lon="3.45255">
        <ele>102.4</ele>
        <time>2023-08-06T13:57:26Z</time>
      </trkpt>
      <trkpt lat="49.98202" lon="3.45251">
        <ele>102.4</ele>
        <time>2023-08-06T13:57:27Z</time>
      </trkpt>
      <trkpt lat="49.98199" lon="3.45248">
        <ele>102.6</ele>
        <time>2023-08-06T13:57:28Z</time>
      </trkpt>
      <trkpt lat="49.98197" lon="3.45244">
        <ele>102.6</ele>
        <time>2023-08-06T13:57:29Z</time>
      </trkpt>
      <trkpt lat="49.98194" lon="3.45241">
        <ele>102.6</ele>
        <time>2023-08-06T13:57:30Z</time>
      </trkpt>
      <trkpt lat="49.98191" lon="3.45237">
        <ele>103</ele>
        <time>2023-08-06T13:57:31Z</time>
      </trkpt>
      <trkpt lat="49.98188" lon="3.45234">
        <ele>103</ele>
        <time>2023-08-06T13:57:32Z</time>
      </trkpt>
      <trkpt lat="49.98185" lon="3.45231">
        <ele>103.2</ele>
        <time>2023-08-06T13:57:33Z</time>
      </trkpt>
      <trkpt lat="49.98182" lon="3.45227">
        <ele>103.2</ele>
        <time>2023-08-06T13:57:34Z</time>
      </trkpt>
      <trkpt lat="49.98179" lon="3.45224">
        <ele>103.2</ele>
        <time>2023-08-06T13:57:35Z</time>
      </trkpt>
      <trkpt lat="49.98176" lon="3.4522">
        <ele>103.2</ele>
        <time>2023-08-06T13:57:36Z</time>
      </trkpt>
      <trkpt lat="49.98174" lon="3.45217">
        <ele>103.2</ele>
        <time>2023-08-06T13:57:37Z</time>
      </trkpt>
      <trkpt lat="49.98171" lon="3.45213">
        <ele>103.6</ele>
        <time>2023-08-06T13:57:38Z</time>
      </trkpt>
      <trkpt lat="49.98168" lon="3.45209">
        <ele>103.6</ele>
        <time>2023-08-06T13:57:39Z</time>
      </trkpt>
      <trkpt lat="49.98166" lon="3.45206">
        <ele>103.6</ele>
        <time>2023-08-06T13:57:40Z</time>
      </trkpt>
      <trkpt lat="49.98163" lon="3.45202">
        <ele>103.8</ele>
        <time>2023-08-06T13:57:41Z</time>
      </trkpt>
      <trkpt lat="49.9816" lon="3.45198">
        <ele>103.8</ele>
        <time>2023-08-06T13:57:42Z</time>
      </trkpt>
      <trkpt lat="49.98158" lon="3.45195">
        <ele>103.8</ele>
        <time>2023-08-06T13:57:43Z</time>
      </trkpt>
      <trkpt lat="49.98154" lon="3.45191">
        <ele>103.8</ele>
        <time>2023-08-06T13:57:44Z</time>
      </trkpt>
      <trkpt lat="49.98152" lon="3.45188">
        <ele>103.8</ele>
        <time>2023-08-06T13:57:45Z</time>
      </trkpt>
      <trkpt lat="49.98132" lon="3.45162">
        <ele>103.8</ele>
        <time>2023-08-06T13:57:52Z</time>
      </trkpt>
      <trkpt lat="49.98127" lon="3.45156">
        <ele>103.8</ele>
        <time>2023-08-06T13:57:54Z</time>
      </trkpt>
      <trkpt lat="49.98107" lon="3.45131">
        <ele>104.6</ele>
        <time>2023-08-06T13:58:01Z</time>
      </trkpt>
      <trkpt lat="49.98101" lon="3.45124">
        <ele>105</ele>
        <time>2023-08-06T13:58:03Z</time>
      </trkpt>
      <trkpt lat="49.98079" lon="3.45104">
        <ele>105.8</ele>
        <time>2023-08-06T13:58:10Z</time>
      </trkpt>
      <trkpt lat="49.9807" lon="3.45096">
        <ele>106.2</ele>
        <time>2023-08-06T13:58:13Z</time>
      </trkpt>
      <trkpt lat="49.9805" lon="3.4508">
        <ele>106.8</ele>
        <time>2023-08-06T13:58:19Z</time>
      </trkpt>
      <trkpt lat="49.98044" lon="3.45075">
        <ele>107</ele>
        <time>2023-08-06T13:58:21Z</time>
      </trkpt>
      <trkpt lat="49.98041" lon="3.45072">
        <ele>107</ele>
        <time>2023-08-06T13:58:22Z</time>
      </trkpt>
      <trkpt lat="49.98038" lon="3.45069">
        <ele>107</ele>
        <time>2023-08-06T13:58:23Z</time>
      </trkpt>
      <trkpt lat="49.98035" lon="3.45067">
        <ele>107</ele>
        <time>2023-08-06T13:58:24Z</time>
      </trkpt>
      <trkpt lat="49.98032" lon="3.45064">
        <ele>107.2</ele>
        <time>2023-08-06T13:58:25Z</time>
      </trkpt>
      <trkpt lat="49.98029" lon="3.45061">
        <ele>107.6</ele>
        <time>2023-08-06T13:58:26Z</time>
      </trkpt>
      <trkpt lat="49.98026" lon="3.45058">
        <ele>107.6</ele>
        <time>2023-08-06T13:58:27Z</time>
      </trkpt>
      <trkpt lat="49.98023" lon="3.45055">
        <ele>107.8</ele>
        <time>2023-08-06T13:58:28Z</time>
      </trkpt>
      <trkpt lat="49.98019" lon="3.45052">
        <ele>107.8</ele>
        <time>2023-08-06T13:58:29Z</time>
      </trkpt>
      <trkpt lat="49.98016" lon="3.45049">
        <ele>107.8</ele>
        <time>2023-08-06T13:58:30Z</time>
      </trkpt>
      <trkpt lat="49.98012" lon="3.45046">
        <ele>108</ele>
        <time>2023-08-06T13:58:31Z</time>
      </trkpt>
      <trkpt lat="49.98008" lon="3.45043">
        <ele>108</ele>
        <time>2023-08-06T13:58:32Z</time>
      </trkpt>
      <trkpt lat="49.98006" lon="3.4504">
        <ele>108</ele>
        <time>2023-08-06T13:58:33Z</time>
      </trkpt>
      <trkpt lat="49.98002" lon="3.45037">
        <ele>108.2</ele>
        <time>2023-08-06T13:58:34Z</time>
      </trkpt>
      <trkpt lat="49.97999" lon="3.45034">
        <ele>108.4</ele>
        <time>2023-08-06T13:58:35Z</time>
      </trkpt>
      <trkpt lat="49.97996" lon="3.45032">
        <ele>108.4</ele>
        <time>2023-08-06T13:58:36Z</time>
      </trkpt>
      <trkpt lat="49.97992" lon="3.45028">
        <ele>108.2</ele>
        <time>2023-08-06T13:58:37Z</time>
      </trkpt>
      <trkpt lat="49.97989" lon="3.45026">
        <ele>108.2</ele>
        <time>2023-08-06T13:58:38Z</time>
      </trkpt>
      <trkpt lat="49.97964" lon="3.45004">
        <ele>108.2</ele>
        <time>2023-08-06T13:58:45Z</time>
      </trkpt>
      <trkpt lat="49.97922" lon="3.44966">
        <ele>108.8</ele>
        <time>2023-08-06T13:58:55Z</time>
      </trkpt>
      <trkpt lat="49.97878" lon="3.44924">
        <ele>108</ele>
        <time>2023-08-06T13:59:04Z</time>
      </trkpt>
      <trkpt lat="49.97845" lon="3.44894">
        <ele>107</ele>
        <time>2023-08-06T13:59:10Z</time>
      </trkpt>
      <trkpt lat="49.97839" lon="3.44889">
        <ele>106.8</ele>
        <time>2023-08-06T13:59:11Z</time>
      </trkpt>
      <trkpt lat="49.97804" lon="3.44858">
        <ele>105.8</ele>
        <time>2023-08-06T13:59:17Z</time>
      </trkpt>
      <trkpt lat="49.97798" lon="3.44853">
        <ele>105.4</ele>
        <time>2023-08-06T13:59:18Z</time>
      </trkpt>
      <trkpt lat="49.97779" lon="3.44837">
        <ele>104.8</ele>
        <time>2023-08-06T13:59:21Z</time>
      </trkpt>
      <trkpt lat="49.97749" lon="3.44808">
        <ele>103.6</ele>
        <time>2023-08-06T13:59:26Z</time>
      </trkpt>
      <trkpt lat="49.97713" lon="3.44773">
        <ele>102.4</ele>
        <time>2023-08-06T13:59:32Z</time>
      </trkpt>
      <trkpt lat="49.97684" lon="3.44746">
        <ele>101.6</ele>
        <time>2023-08-06T13:59:37Z</time>
      </trkpt>
      <trkpt lat="49.97673" lon="3.44734">
        <ele>101.2</ele>
        <time>2023-08-06T13:59:39Z</time>
      </trkpt>
      <trkpt lat="49.97664" lon="3.44718">
        <ele>100.6</ele>
        <time>2023-08-06T13:59:41Z</time>
      </trkpt>
      <trkpt lat="49.9766" lon="3.4471">
        <ele>100.4</ele>
        <time>2023-08-06T13:59:42Z</time>
      </trkpt>
      <trkpt lat="49.97654" lon="3.44703">
        <ele>100</ele>
        <time>2023-08-06T13:59:43Z</time>
      </trkpt>
      <trkpt lat="49.97648" lon="3.447">
        <ele>100</ele>
        <time>2023-08-06T13:59:44Z</time>
      </trkpt>
      <trkpt lat="49.97643" lon="3.44698">
        <ele>99.8</ele>
        <time>2023-08-06T13:59:45Z</time>
      </trkpt>
      <trkpt lat="49.97637" lon="3.44697">
        <ele>99.6</ele>
        <time>2023-08-06T13:59:46Z</time>
      </trkpt>
      <trkpt lat="49.97631" lon="3.44694">
        <ele>99.2</ele>
        <time>2023-08-06T13:59:47Z</time>
      </trkpt>
      <trkpt lat="49.97625" lon="3.44691">
        <ele>99</ele>
        <time>2023-08-06T13:59:48Z</time>
      </trkpt>
      <trkpt lat="49.9762" lon="3.44687">
        <ele>98.8</ele>
        <time>2023-08-06T13:59:49Z</time>
      </trkpt>
      <trkpt lat="49.97613" lon="3.44681">
        <ele>98.8</ele>
        <time>2023-08-06T13:59:50Z</time>
      </trkpt>
      <trkpt lat="49.97589" lon="3.44659">
        <ele>97.8</ele>
        <time>2023-08-06T13:59:54Z</time>
      </trkpt>
      <trkpt lat="49.9756" lon="3.44632">
        <ele>96.4</ele>
        <time>2023-08-06T13:59:59Z</time>
      </trkpt>
      <trkpt lat="49.97508" lon="3.44583">
        <ele>95.4</ele>
        <time>2023-08-06T14:00:07Z</time>
      </trkpt>
      <trkpt lat="49.97502" lon="3.44577">
        <ele>95.4</ele>
        <time>2023-08-06T14:00:08Z</time>
      </trkpt>
      <trkpt lat="49.97473" lon="3.44547">
        <ele>95.4</ele>
        <time>2023-08-06T14:00:13Z</time>
      </trkpt>
      <trkpt lat="49.97467" lon="3.44542">
        <ele>95.4</ele>
        <time>2023-08-06T14:00:14Z</time>
      </trkpt>
      <trkpt lat="49.97462" lon="3.44537">
        <ele>95.6</ele>
        <time>2023-08-06T14:00:15Z</time>
      </trkpt>
      <trkpt lat="49.97456" lon="3.44531">
        <ele>95.6</ele>
        <time>2023-08-06T14:00:16Z</time>
      </trkpt>
      <trkpt lat="49.97451" lon="3.44526">
        <ele>95.6</ele>
        <time>2023-08-06T14:00:17Z</time>
      </trkpt>
      <trkpt lat="49.97445" lon="3.44521">
        <ele>95.8</ele>
        <time>2023-08-06T14:00:18Z</time>
      </trkpt>
      <trkpt lat="49.9744" lon="3.44516">
        <ele>95.8</ele>
        <time>2023-08-06T14:00:19Z</time>
      </trkpt>
      <trkpt lat="49.97435" lon="3.4451">
        <ele>95.8</ele>
        <time>2023-08-06T14:00:20Z</time>
      </trkpt>
      <trkpt lat="49.9743" lon="3.44506">
        <ele>95.8</ele>
        <time>2023-08-06T14:00:21Z</time>
      </trkpt>
      <trkpt lat="49.97426" lon="3.44501">
        <ele>96</ele>
        <time>2023-08-06T14:00:22Z</time>
      </trkpt>
      <trkpt lat="49.97421" lon="3.44496">
        <ele>96</ele>
        <time>2023-08-06T14:00:23Z</time>
      </trkpt>
      <trkpt lat="49.97417" lon="3.44491">
        <ele>96.2</ele>
        <time>2023-08-06T14:00:24Z</time>
      </trkpt>
      <trkpt lat="49.97413" lon="3.44486">
        <ele>96.2</ele>
        <time>2023-08-06T14:00:25Z</time>
      </trkpt>
      <trkpt lat="49.97409" lon="3.44481">
        <ele>96.4</ele>
        <time>2023-08-06T14:00:26Z</time>
      </trkpt>
      <trkpt lat="49.97401" lon="3.44473">
        <ele>96.6</ele>
        <time>2023-08-06T14:00:28Z</time>
      </trkpt>
      <trkpt lat="49.97397" lon="3.44469">
        <ele>97</ele>
        <time>2023-08-06T14:00:29Z</time>
      </trkpt>
      <trkpt lat="49.97393" lon="3.44464">
        <ele>97</ele>
        <time>2023-08-06T14:00:30Z</time>
      </trkpt>
      <trkpt lat="49.97389" lon="3.4446">
        <ele>97.2</ele>
        <time>2023-08-06T14:00:31Z</time>
      </trkpt>
      <trkpt lat="49.97385" lon="3.44456">
        <ele>97.4</ele>
        <time>2023-08-06T14:00:32Z</time>
      </trkpt>
      <trkpt lat="49.97382" lon="3.44452">
        <ele>97.4</ele>
        <time>2023-08-06T14:00:33Z</time>
      </trkpt>
      <trkpt lat="49.97378" lon="3.44447">
        <ele>97.4</ele>
        <time>2023-08-06T14:00:34Z</time>
      </trkpt>
      <trkpt lat="49.97375" lon="3.44444">
        <ele>97.6</ele>
        <time>2023-08-06T14:00:35Z</time>
      </trkpt>
      <trkpt lat="49.97371" lon="3.44441">
        <ele>97.6</ele>
        <time>2023-08-06T14:00:36Z</time>
      </trkpt>
      <trkpt lat="49.97368" lon="3.44437">
        <ele>97.8</ele>
        <time>2023-08-06T14:00:37Z</time>
      </trkpt>
      <trkpt lat="49.97364" lon="3.44433">
        <ele>97.8</ele>
        <time>2023-08-06T14:00:38Z</time>
      </trkpt>
      <trkpt lat="49.9736" lon="3.44429">
        <ele>97.8</ele>
        <time>2023-08-06T14:00:39Z</time>
      </trkpt>
      <trkpt lat="49.97358" lon="3.44426">
        <ele>98</ele>
        <time>2023-08-06T14:00:40Z</time>
      </trkpt>
      <trkpt lat="49.97354" lon="3.44423">
        <ele>98.2</ele>
        <time>2023-08-06T14:00:41Z</time>
      </trkpt>
      <trkpt lat="49.97351" lon="3.44419">
        <ele>98.2</ele>
        <time>2023-08-06T14:00:42Z</time>
      </trkpt>
      <trkpt lat="49.97348" lon="3.44415">
        <ele>98.2</ele>
        <time>2023-08-06T14:00:43Z</time>
      </trkpt>
      <trkpt lat="49.97344" lon="3.44412">
        <ele>98.4</ele>
        <time>2023-08-06T14:00:44Z</time>
      </trkpt>
      <trkpt lat="49.97341" lon="3.44408">
        <ele>98.4</ele>
        <time>2023-08-06T14:00:45Z</time>
      </trkpt>
      <trkpt lat="49.97337" lon="3.44405">
        <ele>98.4</ele>
        <time>2023-08-06T14:00:46Z</time>
      </trkpt>
      <trkpt lat="49.97307" lon="3.44371">
        <ele>99.2</ele>
        <time>2023-08-06T14:00:54Z</time>
      </trkpt>
      <trkpt lat="49.97279" lon="3.44341">
        <ele>99.4</ele>
        <time>2023-08-06T14:01:01Z</time>
      </trkpt>
      <trkpt lat="49.97275" lon="3.44337">
        <ele>99.6</ele>
        <time>2023-08-06T14:01:02Z</time>
      </trkpt>
      <trkpt lat="49.97244" lon="3.44302">
        <ele>99.6</ele>
        <time>2023-08-06T14:01:10Z</time>
      </trkpt>
      <trkpt lat="49.97241" lon="3.44298">
        <ele>99.6</ele>
        <time>2023-08-06T14:01:11Z</time>
      </trkpt>
      <trkpt lat="49.97197" lon="3.4425">
        <ele>99.4</ele>
        <time>2023-08-06T14:01:21Z</time>
      </trkpt>
      <trkpt lat="49.97155" lon="3.44203">
        <ele>99</ele>
        <time>2023-08-06T14:01:29Z</time>
      </trkpt>
      <trkpt lat="49.97138" lon="3.44184">
        <ele>98.6</ele>
        <time>2023-08-06T14:01:32Z</time>
      </trkpt>
      <trkpt lat="49.97132" lon="3.44178">
        <ele>98.2</ele>
        <time>2023-08-06T14:01:33Z</time>
      </trkpt>
      <trkpt lat="49.97107" lon="3.44151">
        <ele>96.8</ele>
        <time>2023-08-06T14:01:37Z</time>
      </trkpt>
      <trkpt lat="49.97081" lon="3.44128">
        <ele>95.8</ele>
        <time>2023-08-06T14:01:41Z</time>
      </trkpt>
      <trkpt lat="49.97061" lon="3.44114">
        <ele>95.2</ele>
        <time>2023-08-06T14:01:44Z</time>
      </trkpt>
      <trkpt lat="49.97048" lon="3.44108">
        <ele>94.6</ele>
        <time>2023-08-06T14:01:46Z</time>
      </trkpt>
      <trkpt lat="49.97041" lon="3.44105">
        <ele>94.6</ele>
        <time>2023-08-06T14:01:47Z</time>
      </trkpt>
      <trkpt lat="49.97035" lon="3.44103">
        <ele>94.4</ele>
        <time>2023-08-06T14:01:48Z</time>
      </trkpt>
      <trkpt lat="49.97028" lon="3.441">
        <ele>94.4</ele>
        <time>2023-08-06T14:01:49Z</time>
      </trkpt>
      <trkpt lat="49.97022" lon="3.44098">
        <ele>94.2</ele>
        <time>2023-08-06T14:01:50Z</time>
      </trkpt>
      <trkpt lat="49.97016" lon="3.44097">
        <ele>94.2</ele>
        <time>2023-08-06T14:01:51Z</time>
      </trkpt>
      <trkpt lat="49.97009" lon="3.44095">
        <ele>94.2</ele>
        <time>2023-08-06T14:01:52Z</time>
      </trkpt>
      <trkpt lat="49.97003" lon="3.44093">
        <ele>94</ele>
        <time>2023-08-06T14:01:53Z</time>
      </trkpt>
      <trkpt lat="49.96996" lon="3.44092">
        <ele>94</ele>
        <time>2023-08-06T14:01:54Z</time>
      </trkpt>
      <trkpt lat="49.9699" lon="3.4409">
        <ele>93.8</ele>
        <time>2023-08-06T14:01:55Z</time>
      </trkpt>
      <trkpt lat="49.96971" lon="3.44081">
        <ele>93.6</ele>
        <time>2023-08-06T14:01:58Z</time>
      </trkpt>
      <trkpt lat="49.96962" lon="3.4407">
        <ele>93.2</ele>
        <time>2023-08-06T14:02:00Z</time>
      </trkpt>
      <trkpt lat="49.96957" lon="3.44063">
        <ele>93.2</ele>
        <time>2023-08-06T14:02:01Z</time>
      </trkpt>
      <trkpt lat="49.96953" lon="3.44056">
        <ele>93.2</ele>
        <time>2023-08-06T14:02:02Z</time>
      </trkpt>
      <trkpt lat="49.9695" lon="3.44048">
        <ele>93</ele>
        <time>2023-08-06T14:02:03Z</time>
      </trkpt>
      <trkpt lat="49.96948" lon="3.4404">
        <ele>93</ele>
        <time>2023-08-06T14:02:04Z</time>
      </trkpt>
      <trkpt lat="49.96947" lon="3.44031">
        <ele>93</ele>
        <time>2023-08-06T14:02:05Z</time>
      </trkpt>
      <trkpt lat="49.96946" lon="3.44021">
        <ele>93</ele>
        <time>2023-08-06T14:02:06Z</time>
      </trkpt>
      <trkpt lat="49.96945" lon="3.44013">
        <ele>93</ele>
        <time>2023-08-06T14:02:07Z</time>
      </trkpt>
      <trkpt lat="49.96944" lon="3.43994">
        <ele>93</ele>
        <time>2023-08-06T14:02:09Z</time>
      </trkpt>
      <trkpt lat="49.96944" lon="3.43967">
        <ele>93</ele>
        <time>2023-08-06T14:02:12Z</time>
      </trkpt>
      <trkpt lat="49.96942" lon="3.43906">
        <ele>92.6</ele>
        <time>2023-08-06T14:02:19Z</time>
      </trkpt>
      <trkpt lat="49.96942" lon="3.43899">
        <ele>92.6</ele>
        <time>2023-08-06T14:02:20Z</time>
      </trkpt>
      <trkpt lat="49.96943" lon="3.4389">
        <ele>92.4</ele>
        <time>2023-08-06T14:02:21Z</time>
      </trkpt>
      <trkpt lat="49.96945" lon="3.43885">
        <ele>92.4</ele>
        <time>2023-08-06T14:02:22Z</time>
      </trkpt>
      <trkpt lat="49.96947" lon="3.43882">
        <ele>92.4</ele>
        <time>2023-08-06T14:02:23Z</time>
      </trkpt>
      <trkpt lat="49.9695" lon="3.43881">
        <ele>92.4</ele>
        <time>2023-08-06T14:02:24Z</time>
      </trkpt>
      <trkpt lat="49.96953" lon="3.43881">
        <ele>92.4</ele>
        <time>2023-08-06T14:02:25Z</time>
      </trkpt>
      <trkpt lat="49.96956" lon="3.43882">
        <ele>92.4</ele>
        <time>2023-08-06T14:02:26Z</time>
      </trkpt>
      <trkpt lat="49.96959" lon="3.43882">
        <ele>92.4</ele>
        <time>2023-08-06T14:02:27Z</time>
      </trkpt>
      <trkpt lat="49.96961" lon="3.43883">
        <ele>92.4</ele>
        <time>2023-08-06T14:02:28Z</time>
      </trkpt>
      <trkpt lat="49.96963" lon="3.43884">
        <ele>92.4</ele>
        <time>2023-08-06T14:02:29Z</time>
      </trkpt>
      <trkpt lat="49.96965" lon="3.43885">
        <ele>92.4</ele>
        <time>2023-08-06T14:02:30Z</time>
      </trkpt>
      <trkpt lat="49.9697" lon="3.43886">
        <ele>92.4</ele>
        <time>2023-08-06T14:02:32Z</time>
      </trkpt>
      <trkpt lat="49.96972" lon="3.43886">
        <ele>92.4</ele>
        <time>2023-08-06T14:02:33Z</time>
      </trkpt>
      <trkpt lat="49.96974" lon="3.43886">
        <ele>92.4</ele>
        <time>2023-08-06T14:02:34Z</time>
      </trkpt>
      <trkpt lat="49.96976" lon="3.43886">
        <ele>92.4</ele>
        <time>2023-08-06T14:02:35Z</time>
      </trkpt>
      <trkpt lat="49.96978" lon="3.43886">
        <ele>92.4</ele>
        <time>2023-08-06T14:02:36Z</time>
      </trkpt>
      <trkpt lat="49.9698" lon="3.43886">
        <ele>92.4</ele>
        <time>2023-08-06T14:02:37Z</time>
      </trkpt>
      <trkpt lat="49.96983" lon="3.43883">
        <ele>92.6</ele>
        <time>2023-08-06T14:02:39Z</time>
      </trkpt>
      <trkpt lat="49.96985" lon="3.43879">
        <ele>92.6</ele>
        <time>2023-08-06T14:02:40Z</time>
      </trkpt>
      <trkpt lat="49.96982" lon="3.43859">
        <ele>92.4</ele>
        <time>2023-08-06T14:02:44Z</time>
      </trkpt>
      <trkpt lat="49.9698" lon="3.43854">
        <ele>92.4</ele>
        <time>2023-08-06T14:02:45Z</time>
      </trkpt>
      <trkpt lat="49.96979" lon="3.43848">
        <ele>92.4</ele>
        <time>2023-08-06T14:02:46Z</time>
      </trkpt>
      <trkpt lat="49.96978" lon="3.43843">
        <ele>92.4</ele>
        <time>2023-08-06T14:02:47Z</time>
      </trkpt>
      <trkpt lat="49.96977" lon="3.43839">
        <ele>92</ele>
        <time>2023-08-06T14:02:48Z</time>
      </trkpt>
      <trkpt lat="49.96976" lon="3.43833">
        <ele>91.8</ele>
        <time>2023-08-06T14:02:49Z</time>
      </trkpt>
      <trkpt lat="49.96975" lon="3.43829">
        <ele>91.6</ele>
        <time>2023-08-06T14:02:50Z</time>
      </trkpt>
      <trkpt lat="49.96973" lon="3.43826">
        <ele>91.6</ele>
        <time>2023-08-06T14:02:51Z</time>
      </trkpt>
      <trkpt lat="49.96973" lon="3.43823">
        <ele>91.4</ele>
        <time>2023-08-06T14:02:52Z</time>
      </trkpt>
      <trkpt lat="49.96971" lon="3.43818">
        <ele>91.4</ele>
        <time>2023-08-06T14:02:53Z</time>
      </trkpt>
      <trkpt lat="49.9697" lon="3.43813">
        <ele>91.4</ele>
        <time>2023-08-06T14:02:54Z</time>
      </trkpt>
      <trkpt lat="49.96969" lon="3.43809">
        <ele>91.4</ele>
        <time>2023-08-06T14:02:55Z</time>
      </trkpt>
      <trkpt lat="49.96968" lon="3.43805">
        <ele>91.4</ele>
        <time>2023-08-06T14:02:56Z</time>
      </trkpt>
      <trkpt lat="49.96967" lon="3.43802">
        <ele>91.2</ele>
        <time>2023-08-06T14:02:57Z</time>
      </trkpt>
      <trkpt lat="49.96966" lon="3.43798">
        <ele>91.2</ele>
        <time>2023-08-06T14:02:58Z</time>
      </trkpt>
      <trkpt lat="49.96965" lon="3.43792">
        <ele>91.2</ele>
        <time>2023-08-06T14:02:59Z</time>
      </trkpt>
      <trkpt lat="49.96955" lon="3.43751">
        <ele>91</ele>
        <time>2023-08-06T14:03:08Z</time>
      </trkpt>
      <trkpt lat="49.96943" lon="3.43701">
        <ele>91</ele>
        <time>2023-08-06T14:03:18Z</time>
      </trkpt>
      <trkpt lat="49.9693" lon="3.4365">
        <ele>90.8</ele>
        <time>2023-08-06T14:03:28Z</time>
      </trkpt>
      <trkpt lat="49.96925" lon="3.43631">
        <ele>90.8</ele>
        <time>2023-08-06T14:03:32Z</time>
      </trkpt>
      <trkpt lat="49.96924" lon="3.43626">
        <ele>90.8</ele>
        <time>2023-08-06T14:03:33Z</time>
      </trkpt>
      <trkpt lat="49.96923" lon="3.43623">
        <ele>90.8</ele>
        <time>2023-08-06T14:03:34Z</time>
      </trkpt>
      <trkpt lat="49.96921" lon="3.43618">
        <ele>90.8</ele>
        <time>2023-08-06T14:03:35Z</time>
      </trkpt>
      <trkpt lat="49.9692" lon="3.43612">
        <ele>90.8</ele>
        <time>2023-08-06T14:03:36Z</time>
      </trkpt>
      <trkpt lat="49.96913" lon="3.4357">
        <ele>90.4</ele>
        <time>2023-08-06T14:03:44Z</time>
      </trkpt>
      <trkpt lat="49.96912" lon="3.43565">
        <ele>90.4</ele>
        <time>2023-08-06T14:03:45Z</time>
      </trkpt>
      <trkpt lat="49.96911" lon="3.43559">
        <ele>90.2</ele>
        <time>2023-08-06T14:03:46Z</time>
      </trkpt>
      <trkpt lat="49.96903" lon="3.43512">
        <ele>90.4</ele>
        <time>2023-08-06T14:03:55Z</time>
      </trkpt>
      <trkpt lat="49.96897" lon="3.43457">
        <ele>90.2</ele>
        <time>2023-08-06T14:04:05Z</time>
      </trkpt>
      <trkpt lat="49.96892" lon="3.43424">
        <ele>90</ele>
        <time>2023-08-06T14:04:11Z</time>
      </trkpt>
      <trkpt lat="49.96892" lon="3.43415">
        <ele>90</ele>
        <time>2023-08-06T14:04:13Z</time>
      </trkpt>
      <trkpt lat="49.96891" lon="3.4341">
        <ele>90</ele>
        <time>2023-08-06T14:04:14Z</time>
      </trkpt>
      <trkpt lat="49.9689" lon="3.43405">
        <ele>90</ele>
        <time>2023-08-06T14:04:15Z</time>
      </trkpt>
      <trkpt lat="49.96889" lon="3.434">
        <ele>90</ele>
        <time>2023-08-06T14:04:16Z</time>
      </trkpt>
      <trkpt lat="49.96887" lon="3.43396">
        <ele>90</ele>
        <time>2023-08-06T14:04:17Z</time>
      </trkpt>
      <trkpt lat="49.96886" lon="3.4339">
        <ele>90</ele>
        <time>2023-08-06T14:04:18Z</time>
      </trkpt>
      <trkpt lat="49.96885" lon="3.43387">
        <ele>90</ele>
        <time>2023-08-06T14:04:19Z</time>
      </trkpt>
      <trkpt lat="49.96884" lon="3.43383">
        <ele>90</ele>
        <time>2023-08-06T14:04:20Z</time>
      </trkpt>
      <trkpt lat="49.96884" lon="3.43378">
        <ele>90</ele>
        <time>2023-08-06T14:04:21Z</time>
      </trkpt>
      <trkpt lat="49.96884" lon="3.43373">
        <ele>89.8</ele>
        <time>2023-08-06T14:04:22Z</time>
      </trkpt>
      <trkpt lat="49.96883" lon="3.43369">
        <ele>89.8</ele>
        <time>2023-08-06T14:04:23Z</time>
      </trkpt>
      <trkpt lat="49.96882" lon="3.43364">
        <ele>89.8</ele>
        <time>2023-08-06T14:04:24Z</time>
      </trkpt>
      <trkpt lat="49.96882" lon="3.4336">
        <ele>89.8</ele>
        <time>2023-08-06T14:04:25Z</time>
      </trkpt>
      <trkpt lat="49.96882" lon="3.43355">
        <ele>89.8</ele>
        <time>2023-08-06T14:04:26Z</time>
      </trkpt>
      <trkpt lat="49.96881" lon="3.4335">
        <ele>89.8</ele>
        <time>2023-08-06T14:04:27Z</time>
      </trkpt>
      <trkpt lat="49.96878" lon="3.43316">
        <ele>89.4</ele>
        <time>2023-08-06T14:04:34Z</time>
      </trkpt>
      <trkpt lat="49.96874" lon="3.43284">
        <ele>89.4</ele>
        <time>2023-08-06T14:04:41Z</time>
      </trkpt>
      <trkpt lat="49.96873" lon="3.43279">
        <ele>89.4</ele>
        <time>2023-08-06T14:04:42Z</time>
      </trkpt>
      <trkpt lat="49.96872" lon="3.43274">
        <ele>89.4</ele>
        <time>2023-08-06T14:04:43Z</time>
      </trkpt>
      <trkpt lat="49.96872" lon="3.4327">
        <ele>89.4</ele>
        <time>2023-08-06T14:04:44Z</time>
      </trkpt>
      <trkpt lat="49.96864" lon="3.43216">
        <ele>89.4</ele>
        <time>2023-08-06T14:04:55Z</time>
      </trkpt>
      <trkpt lat="49.96862" lon="3.43199">
        <ele>89.2</ele>
        <time>2023-08-06T14:04:58Z</time>
      </trkpt>
      <trkpt lat="49.96856" lon="3.4316">
        <ele>89.2</ele>
        <time>2023-08-06T14:05:05Z</time>
      </trkpt>
      <trkpt lat="49.96849" lon="3.43127">
        <ele>89</ele>
        <time>2023-08-06T14:05:12Z</time>
      </trkpt>
      <trkpt lat="49.96848" lon="3.43122">
        <ele>89</ele>
        <time>2023-08-06T14:05:13Z</time>
      </trkpt>
      <trkpt lat="49.96847" lon="3.43117">
        <ele>89</ele>
        <time>2023-08-06T14:05:14Z</time>
      </trkpt>
      <trkpt lat="49.9684" lon="3.43087">
        <ele>89</ele>
        <time>2023-08-06T14:05:20Z</time>
      </trkpt>
      <trkpt lat="49.96839" lon="3.43081">
        <ele>89</ele>
        <time>2023-08-06T14:05:21Z</time>
      </trkpt>
      <trkpt lat="49.96838" lon="3.43077">
        <ele>89</ele>
        <time>2023-08-06T14:05:22Z</time>
      </trkpt>
      <trkpt lat="49.96837" lon="3.43068">
        <ele>88.8</ele>
        <time>2023-08-06T14:05:24Z</time>
      </trkpt>
      <trkpt lat="49.96836" lon="3.43062">
        <ele>88.8</ele>
        <time>2023-08-06T14:05:25Z</time>
      </trkpt>
      <trkpt lat="49.96835" lon="3.43057">
        <ele>88.6</ele>
        <time>2023-08-06T14:05:26Z</time>
      </trkpt>
      <trkpt lat="49.96834" lon="3.43053">
        <ele>88.6</ele>
        <time>2023-08-06T14:05:27Z</time>
      </trkpt>
      <trkpt lat="49.96833" lon="3.43048">
        <ele>88.6</ele>
        <time>2023-08-06T14:05:28Z</time>
      </trkpt>
      <trkpt lat="49.9683" lon="3.43034">
        <ele>88.4</ele>
        <time>2023-08-06T14:05:31Z</time>
      </trkpt>
      <trkpt lat="49.9683" lon="3.43029">
        <ele>88.4</ele>
        <time>2023-08-06T14:05:32Z</time>
      </trkpt>
      <trkpt lat="49.96829" lon="3.43025">
        <ele>88.4</ele>
        <time>2023-08-06T14:05:33Z</time>
      </trkpt>
      <trkpt lat="49.96828" lon="3.4302">
        <ele>88.4</ele>
        <time>2023-08-06T14:05:34Z</time>
      </trkpt>
      <trkpt lat="49.96827" lon="3.43016">
        <ele>88.4</ele>
        <time>2023-08-06T14:05:35Z</time>
      </trkpt>
      <trkpt lat="49.96824" lon="3.42997">
        <ele>88.2</ele>
        <time>2023-08-06T14:05:39Z</time>
      </trkpt>
      <trkpt lat="49.96823" lon="3.42992">
        <ele>88</ele>
        <time>2023-08-06T14:05:40Z</time>
      </trkpt>
      <trkpt lat="49.96812" lon="3.42939">
        <ele>88.2</ele>
        <time>2023-08-06T14:05:51Z</time>
      </trkpt>
      <trkpt lat="49.96811" lon="3.42934">
        <ele>88.4</ele>
        <time>2023-08-06T14:05:52Z</time>
      </trkpt>
      <trkpt lat="49.9681" lon="3.42929">
        <ele>88.2</ele>
        <time>2023-08-06T14:05:53Z</time>
      </trkpt>
      <trkpt lat="49.96809" lon="3.42924">
        <ele>88.2</ele>
        <time>2023-08-06T14:05:54Z</time>
      </trkpt>
      <trkpt lat="49.96803" lon="3.42885">
        <ele>88.2</ele>
        <time>2023-08-06T14:06:02Z</time>
      </trkpt>
      <trkpt lat="49.96795" lon="3.42835">
        <ele>88.4</ele>
        <time>2023-08-06T14:06:12Z</time>
      </trkpt>
      <trkpt lat="49.96792" lon="3.4282">
        <ele>88.6</ele>
        <time>2023-08-06T14:06:15Z</time>
      </trkpt>
      <trkpt lat="49.96792" lon="3.42815">
        <ele>88.6</ele>
        <time>2023-08-06T14:06:16Z</time>
      </trkpt>
      <trkpt lat="49.96791" lon="3.4281">
        <ele>88.6</ele>
        <time>2023-08-06T14:06:17Z</time>
      </trkpt>
      <trkpt lat="49.9679" lon="3.42804">
        <ele>88.6</ele>
        <time>2023-08-06T14:06:18Z</time>
      </trkpt>
      <trkpt lat="49.9679" lon="3.428">
        <ele>88.6</ele>
        <time>2023-08-06T14:06:19Z</time>
      </trkpt>
      <trkpt lat="49.96788" lon="3.4279">
        <ele>88.6</ele>
        <time>2023-08-06T14:06:21Z</time>
      </trkpt>
      <trkpt lat="49.96786" lon="3.42774">
        <ele>88.6</ele>
        <time>2023-08-06T14:06:24Z</time>
      </trkpt>
      <trkpt lat="49.96784" lon="3.42761">
        <ele>88.6</ele>
        <time>2023-08-06T14:06:27Z</time>
      </trkpt>
      <trkpt lat="49.96784" lon="3.42756">
        <ele>88.6</ele>
        <time>2023-08-06T14:06:28Z</time>
      </trkpt>
      <trkpt lat="49.96783" lon="3.42751">
        <ele>88.6</ele>
        <time>2023-08-06T14:06:29Z</time>
      </trkpt>
      <trkpt lat="49.96783" lon="3.42746">
        <ele>88.6</ele>
        <time>2023-08-06T14:06:30Z</time>
      </trkpt>
      <trkpt lat="49.96783" lon="3.4272">
        <ele>88.6</ele>
        <time>2023-08-06T14:06:35Z</time>
      </trkpt>
      <trkpt lat="49.9679" lon="3.42678">
        <ele>88.8</ele>
        <time>2023-08-06T14:06:44Z</time>
      </trkpt>
      <trkpt lat="49.96793" lon="3.4267">
        <ele>88.8</ele>
        <time>2023-08-06T14:06:46Z</time>
      </trkpt>
      <trkpt lat="49.96795" lon="3.42666">
        <ele>88.8</ele>
        <time>2023-08-06T14:06:47Z</time>
      </trkpt>
      <trkpt lat="49.96796" lon="3.42663">
        <ele>89</ele>
        <time>2023-08-06T14:06:48Z</time>
      </trkpt>
      <trkpt lat="49.96798" lon="3.4266">
        <ele>89</ele>
        <time>2023-08-06T14:06:49Z</time>
      </trkpt>
      <trkpt lat="49.96799" lon="3.42657">
        <ele>89</ele>
        <time>2023-08-06T14:06:50Z</time>
      </trkpt>
      <trkpt lat="49.968" lon="3.42655">
        <ele>89.2</ele>
        <time>2023-08-06T14:06:51Z</time>
      </trkpt>
      <trkpt lat="49.968" lon="3.42654">
        <ele>89.2</ele>
        <time>2023-08-06T14:06:52Z</time>
      </trkpt>
      <trkpt lat="49.968" lon="3.42652">
        <ele>89.2</ele>
        <time>2023-08-06T14:06:53Z</time>
      </trkpt>
      <trkpt lat="49.96799" lon="3.4265">
        <ele>89.2</ele>
        <time>2023-08-06T14:06:54Z</time>
      </trkpt>
      <trkpt lat="49.96789" lon="3.42637">
        <ele>89.8</ele>
        <time>2023-08-06T14:07:00Z</time>
      </trkpt>
      <trkpt lat="49.96782" lon="3.42629">
        <ele>89.8</ele>
        <time>2023-08-06T14:07:03Z</time>
      </trkpt>
      <trkpt lat="49.96774" lon="3.42618">
        <ele>90</ele>
        <time>2023-08-06T14:07:07Z</time>
      </trkpt>
      <trkpt lat="49.96756" lon="3.426">
        <ele>90</ele>
        <time>2023-08-06T14:07:14Z</time>
      </trkpt>
      <trkpt lat="49.96725" lon="3.42576">
        <ele>90</ele>
        <time>2023-08-06T14:07:25Z</time>
      </trkpt>
      <trkpt lat="49.96719" lon="3.42571">
        <ele>90.2</ele>
        <time>2023-08-06T14:07:27Z</time>
      </trkpt>
      <trkpt lat="49.96699" lon="3.42553">
        <ele>90.4</ele>
        <time>2023-08-06T14:07:34Z</time>
      </trkpt>
      <trkpt lat="49.96687" lon="3.42543">
        <ele>90.6</ele>
        <time>2023-08-06T14:07:38Z</time>
      </trkpt>
      <trkpt lat="49.96666" lon="3.42525">
        <ele>90.4</ele>
        <time>2023-08-06T14:07:45Z</time>
      </trkpt>
      <trkpt lat="49.96644" lon="3.42509">
        <ele>90.4</ele>
        <time>2023-08-06T14:07:52Z</time>
      </trkpt>
      <trkpt lat="49.96638" lon="3.42506">
        <ele>90.4</ele>
        <time>2023-08-06T14:07:54Z</time>
      </trkpt>
      <trkpt lat="49.96617" lon="3.42489">
        <ele>90.4</ele>
        <time>2023-08-06T14:08:01Z</time>
      </trkpt>
      <trkpt lat="49.966" lon="3.42482">
        <ele>90.8</ele>
        <time>2023-08-06T14:08:06Z</time>
      </trkpt>
      <trkpt lat="49.96598" lon="3.42481">
        <ele>90.8</ele>
        <time>2023-08-06T14:08:07Z</time>
      </trkpt>
      <trkpt lat="49.96583" lon="3.42475">
        <ele>90.6</ele>
        <time>2023-08-06T14:08:11Z</time>
      </trkpt>
      <trkpt lat="49.96557" lon="3.42461">
        <ele>91</ele>
        <time>2023-08-06T14:08:18Z</time>
      </trkpt>
      <trkpt lat="49.96554" lon="3.4246">
        <ele>91</ele>
        <time>2023-08-06T14:08:19Z</time>
      </trkpt>
      <trkpt lat="49.96528" lon="3.42444">
        <ele>91</ele>
        <time>2023-08-06T14:08:26Z</time>
      </trkpt>
      <trkpt lat="49.96504" lon="3.42425">
        <ele>91.2</ele>
        <time>2023-08-06T14:08:33Z</time>
      </trkpt>
      <trkpt lat="49.9649" lon="3.42416">
        <ele>91.4</ele>
        <time>2023-08-06T14:08:37Z</time>
      </trkpt>
      <trkpt lat="49.96486" lon="3.42414">
        <ele>91.4</ele>
        <time>2023-08-06T14:08:38Z</time>
      </trkpt>
      <trkpt lat="49.96483" lon="3.42411">
        <ele>91.4</ele>
        <time>2023-08-06T14:08:39Z</time>
      </trkpt>
      <trkpt lat="49.96477" lon="3.42406">
        <ele>91.4</ele>
        <time>2023-08-06T14:08:41Z</time>
      </trkpt>
      <trkpt lat="49.96474" lon="3.42405">
        <ele>91.4</ele>
        <time>2023-08-06T14:08:42Z</time>
      </trkpt>
      <trkpt lat="49.96471" lon="3.42403">
        <ele>91.4</ele>
        <time>2023-08-06T14:08:43Z</time>
      </trkpt>
      <trkpt lat="49.96469" lon="3.42402">
        <ele>91.4</ele>
        <time>2023-08-06T14:08:44Z</time>
      </trkpt>
      <trkpt lat="49.96466" lon="3.42401">
        <ele>91.4</ele>
        <time>2023-08-06T14:08:45Z</time>
      </trkpt>
      <trkpt lat="49.96464" lon="3.424">
        <ele>91.4</ele>
        <time>2023-08-06T14:08:46Z</time>
      </trkpt>
      <trkpt lat="49.96462" lon="3.42399">
        <ele>91.6</ele>
        <time>2023-08-06T14:08:47Z</time>
      </trkpt>
      <trkpt lat="49.9646" lon="3.42397">
        <ele>91.6</ele>
        <time>2023-08-06T14:08:48Z</time>
      </trkpt>
      <trkpt lat="49.96458" lon="3.42396">
        <ele>92.2</ele>
        <time>2023-08-06T14:08:49Z</time>
      </trkpt>
      <trkpt lat="49.96455" lon="3.42394">
        <ele>92.6</ele>
        <time>2023-08-06T14:08:51Z</time>
      </trkpt>
      <trkpt lat="49.96453" lon="3.42393">
        <ele>92.6</ele>
        <time>2023-08-06T14:08:52Z</time>
      </trkpt>
      <trkpt lat="49.96451" lon="3.42392">
        <ele>92.8</ele>
        <time>2023-08-06T14:08:53Z</time>
      </trkpt>
      <trkpt lat="49.96449" lon="3.42391">
        <ele>92.8</ele>
        <time>2023-08-06T14:08:54Z</time>
      </trkpt>
      <trkpt lat="49.96447" lon="3.4239">
        <ele>93</ele>
        <time>2023-08-06T14:08:55Z</time>
      </trkpt>
      <trkpt lat="49.96445" lon="3.42389">
        <ele>93.2</ele>
        <time>2023-08-06T14:08:56Z</time>
      </trkpt>
      <trkpt lat="49.96443" lon="3.42388">
        <ele>93.4</ele>
        <time>2023-08-06T14:08:57Z</time>
      </trkpt>
      <trkpt lat="49.96441" lon="3.42387">
        <ele>93.6</ele>
        <time>2023-08-06T14:08:58Z</time>
      </trkpt>
      <trkpt lat="49.96439" lon="3.42387">
        <ele>93.8</ele>
        <time>2023-08-06T14:08:59Z</time>
      </trkpt>
      <trkpt lat="49.96437" lon="3.42385">
        <ele>94</ele>
        <time>2023-08-06T14:09:00Z</time>
      </trkpt>
      <trkpt lat="49.96433" lon="3.42384">
        <ele>94.2</ele>
        <time>2023-08-06T14:09:02Z</time>
      </trkpt>
      <trkpt lat="49.96431" lon="3.42383">
        <ele>94.2</ele>
        <time>2023-08-06T14:09:03Z</time>
      </trkpt>
      <trkpt lat="49.96429" lon="3.42382">
        <ele>94.4</ele>
        <time>2023-08-06T14:09:04Z</time>
      </trkpt>
      <trkpt lat="49.96427" lon="3.42381">
        <ele>94.4</ele>
        <time>2023-08-06T14:09:05Z</time>
      </trkpt>
      <trkpt lat="49.96425" lon="3.4238">
        <ele>94.6</ele>
        <time>2023-08-06T14:09:06Z</time>
      </trkpt>
      <trkpt lat="49.96423" lon="3.42379">
        <ele>94.6</ele>
        <time>2023-08-06T14:09:07Z</time>
      </trkpt>
      <trkpt lat="49.96421" lon="3.42379">
        <ele>94.8</ele>
        <time>2023-08-06T14:09:08Z</time>
      </trkpt>
      <trkpt lat="49.96419" lon="3.42378">
        <ele>95</ele>
        <time>2023-08-06T14:09:09Z</time>
      </trkpt>
      <trkpt lat="49.96417" lon="3.42377">
        <ele>95</ele>
        <time>2023-08-06T14:09:10Z</time>
      </trkpt>
      <trkpt lat="49.96415" lon="3.42377">
        <ele>95.2</ele>
        <time>2023-08-06T14:09:11Z</time>
      </trkpt>
      <trkpt lat="49.96413" lon="3.42376">
        <ele>95.4</ele>
        <time>2023-08-06T14:09:12Z</time>
      </trkpt>
      <trkpt lat="49.96411" lon="3.42376">
        <ele>95.6</ele>
        <time>2023-08-06T14:09:13Z</time>
      </trkpt>
      <trkpt lat="49.96409" lon="3.42376">
        <ele>95.6</ele>
        <time>2023-08-06T14:09:14Z</time>
      </trkpt>
      <trkpt lat="49.96406" lon="3.42375">
        <ele>95.8</ele>
        <time>2023-08-06T14:09:15Z</time>
      </trkpt>
      <trkpt lat="49.96404" lon="3.42375">
        <ele>96</ele>
        <time>2023-08-06T14:09:16Z</time>
      </trkpt>
      <trkpt lat="49.96402" lon="3.42374">
        <ele>96</ele>
        <time>2023-08-06T14:09:17Z</time>
      </trkpt>
      <trkpt lat="49.964" lon="3.42373">
        <ele>96</ele>
        <time>2023-08-06T14:09:18Z</time>
      </trkpt>
      <trkpt lat="49.96398" lon="3.42373">
        <ele>96</ele>
        <time>2023-08-06T14:09:19Z</time>
      </trkpt>
      <trkpt lat="49.96396" lon="3.42372">
        <ele>96</ele>
        <time>2023-08-06T14:09:20Z</time>
      </trkpt>
      <trkpt lat="49.96393" lon="3.42372">
        <ele>96</ele>
        <time>2023-08-06T14:09:21Z</time>
      </trkpt>
      <trkpt lat="49.96391" lon="3.42371">
        <ele>96</ele>
        <time>2023-08-06T14:09:22Z</time>
      </trkpt>
      <trkpt lat="49.96388" lon="3.42371">
        <ele>96.2</ele>
        <time>2023-08-06T14:09:23Z</time>
      </trkpt>
      <trkpt lat="49.96385" lon="3.4237">
        <ele>96.2</ele>
        <time>2023-08-06T14:09:24Z</time>
      </trkpt>
      <trkpt lat="49.96383" lon="3.42369">
        <ele>96.4</ele>
        <time>2023-08-06T14:09:25Z</time>
      </trkpt>
      <trkpt lat="49.9638" lon="3.42369">
        <ele>96.4</ele>
        <time>2023-08-06T14:09:26Z</time>
      </trkpt>
      <trkpt lat="49.96378" lon="3.42368">
        <ele>96.4</ele>
        <time>2023-08-06T14:09:27Z</time>
      </trkpt>
      <trkpt lat="49.96375" lon="3.42367">
        <ele>96.4</ele>
        <time>2023-08-06T14:09:28Z</time>
      </trkpt>
      <trkpt lat="49.96373" lon="3.42366">
        <ele>96.6</ele>
        <time>2023-08-06T14:09:29Z</time>
      </trkpt>
      <trkpt lat="49.9637" lon="3.42365">
        <ele>96.6</ele>
        <time>2023-08-06T14:09:30Z</time>
      </trkpt>
      <trkpt lat="49.96358" lon="3.42361">
        <ele>96.6</ele>
        <time>2023-08-06T14:09:35Z</time>
      </trkpt>
      <trkpt lat="49.96353" lon="3.42359">
        <ele>96.8</ele>
        <time>2023-08-06T14:09:37Z</time>
      </trkpt>
      <trkpt lat="49.96335" lon="3.4235">
        <ele>97.8</ele>
        <time>2023-08-06T14:09:44Z</time>
      </trkpt>
      <trkpt lat="49.96332" lon="3.42349">
        <ele>98.2</ele>
        <time>2023-08-06T14:09:45Z</time>
      </trkpt>
      <trkpt lat="49.96316" lon="3.42341">
        <ele>98.8</ele>
        <time>2023-08-06T14:09:51Z</time>
      </trkpt>
      <trkpt lat="49.96313" lon="3.42339">
        <ele>99</ele>
        <time>2023-08-06T14:09:52Z</time>
      </trkpt>
      <trkpt lat="49.9631" lon="3.42337">
        <ele>99.2</ele>
        <time>2023-08-06T14:09:53Z</time>
      </trkpt>
      <trkpt lat="49.96307" lon="3.42336">
        <ele>99.2</ele>
        <time>2023-08-06T14:09:54Z</time>
      </trkpt>
      <trkpt lat="49.96304" lon="3.42334">
        <ele>99.2</ele>
        <time>2023-08-06T14:09:55Z</time>
      </trkpt>
      <trkpt lat="49.963" lon="3.42332">
        <ele>99.4</ele>
        <time>2023-08-06T14:09:56Z</time>
      </trkpt>
      <trkpt lat="49.96297" lon="3.4233">
        <ele>99.4</ele>
        <time>2023-08-06T14:09:57Z</time>
      </trkpt>
      <trkpt lat="49.96294" lon="3.42328">
        <ele>99.4</ele>
        <time>2023-08-06T14:09:58Z</time>
      </trkpt>
      <trkpt lat="49.96291" lon="3.42325">
        <ele>99.4</ele>
        <time>2023-08-06T14:09:59Z</time>
      </trkpt>
      <trkpt lat="49.96288" lon="3.42323">
        <ele>99.4</ele>
        <time>2023-08-06T14:10:00Z</time>
      </trkpt>
      <trkpt lat="49.96285" lon="3.42322">
        <ele>99.4</ele>
        <time>2023-08-06T14:10:01Z</time>
      </trkpt>
      <trkpt lat="49.96282" lon="3.42319">
        <ele>99.4</ele>
        <time>2023-08-06T14:10:02Z</time>
      </trkpt>
      <trkpt lat="49.96279" lon="3.42317">
        <ele>99.4</ele>
        <time>2023-08-06T14:10:03Z</time>
      </trkpt>
      <trkpt lat="49.96276" lon="3.42315">
        <ele>99.4</ele>
        <time>2023-08-06T14:10:04Z</time>
      </trkpt>
      <trkpt lat="49.96273" lon="3.42313">
        <ele>99.4</ele>
        <time>2023-08-06T14:10:05Z</time>
      </trkpt>
      <trkpt lat="49.96271" lon="3.42311">
        <ele>99.4</ele>
        <time>2023-08-06T14:10:06Z</time>
      </trkpt>
      <trkpt lat="49.96265" lon="3.42306">
        <ele>99.6</ele>
        <time>2023-08-06T14:10:08Z</time>
      </trkpt>
      <trkpt lat="49.96255" lon="3.42299">
        <ele>99.8</ele>
        <time>2023-08-06T14:10:11Z</time>
      </trkpt>
      <trkpt lat="49.96247" lon="3.42293">
        <ele>99.8</ele>
        <time>2023-08-06T14:10:14Z</time>
      </trkpt>
      <trkpt lat="49.9622" lon="3.42276">
        <ele>100</ele>
        <time>2023-08-06T14:10:23Z</time>
      </trkpt>
      <trkpt lat="49.96217" lon="3.42274">
        <ele>100</ele>
        <time>2023-08-06T14:10:24Z</time>
      </trkpt>
      <trkpt lat="49.96185" lon="3.42253">
        <ele>100.4</ele>
        <time>2023-08-06T14:10:34Z</time>
      </trkpt>
      <trkpt lat="49.96171" lon="3.42244">
        <ele>100.4</ele>
        <time>2023-08-06T14:10:39Z</time>
      </trkpt>
      <trkpt lat="49.96167" lon="3.42242">
        <ele>100.4</ele>
        <time>2023-08-06T14:10:40Z</time>
      </trkpt>
      <trkpt lat="49.96164" lon="3.4224">
        <ele>100.4</ele>
        <time>2023-08-06T14:10:41Z</time>
      </trkpt>
      <trkpt lat="49.96161" lon="3.42238">
        <ele>100.4</ele>
        <time>2023-08-06T14:10:42Z</time>
      </trkpt>
      <trkpt lat="49.96158" lon="3.42236">
        <ele>100.6</ele>
        <time>2023-08-06T14:10:43Z</time>
      </trkpt>
      <trkpt lat="49.96155" lon="3.42234">
        <ele>100.6</ele>
        <time>2023-08-06T14:10:44Z</time>
      </trkpt>
      <trkpt lat="49.96152" lon="3.42233">
        <ele>100.6</ele>
        <time>2023-08-06T14:10:45Z</time>
      </trkpt>
      <trkpt lat="49.96149" lon="3.42231">
        <ele>100.8</ele>
        <time>2023-08-06T14:10:46Z</time>
      </trkpt>
      <trkpt lat="49.96137" lon="3.42223">
        <ele>101.4</ele>
        <time>2023-08-06T14:10:50Z</time>
      </trkpt>
      <trkpt lat="49.96134" lon="3.42221">
        <ele>101.4</ele>
        <time>2023-08-06T14:10:51Z</time>
      </trkpt>
      <trkpt lat="49.96131" lon="3.42219">
        <ele>101.4</ele>
        <time>2023-08-06T14:10:52Z</time>
      </trkpt>
      <trkpt lat="49.96125" lon="3.42215">
        <ele>101.8</ele>
        <time>2023-08-06T14:10:54Z</time>
      </trkpt>
      <trkpt lat="49.96122" lon="3.42213">
        <ele>101.8</ele>
        <time>2023-08-06T14:10:55Z</time>
      </trkpt>
      <trkpt lat="49.9611" lon="3.42207">
        <ele>102.4</ele>
        <time>2023-08-06T14:10:59Z</time>
      </trkpt>
      <trkpt lat="49.9609" lon="3.42196">
        <ele>102.8</ele>
        <time>2023-08-06T14:11:05Z</time>
      </trkpt>
      <trkpt lat="49.9608" lon="3.42191">
        <ele>103.2</ele>
        <time>2023-08-06T14:11:08Z</time>
      </trkpt>
      <trkpt lat="49.96058" lon="3.4218">
        <ele>103.6</ele>
        <time>2023-08-06T14:11:15Z</time>
      </trkpt>
      <trkpt lat="49.96055" lon="3.42178">
        <ele>103.6</ele>
        <time>2023-08-06T14:11:16Z</time>
      </trkpt>
      <trkpt lat="49.96048" lon="3.42175">
        <ele>103.8</ele>
        <time>2023-08-06T14:11:18Z</time>
      </trkpt>
      <trkpt lat="49.96045" lon="3.42174">
        <ele>104</ele>
        <time>2023-08-06T14:11:19Z</time>
      </trkpt>
      <trkpt lat="49.96042" lon="3.42173">
        <ele>104</ele>
        <time>2023-08-06T14:11:20Z</time>
      </trkpt>
      <trkpt lat="49.96019" lon="3.42159">
        <ele>104.4</ele>
        <time>2023-08-06T14:11:27Z</time>
      </trkpt>
      <trkpt lat="49.95993" lon="3.42142">
        <ele>104.6</ele>
        <time>2023-08-06T14:11:35Z</time>
      </trkpt>
      <trkpt lat="49.95964" lon="3.42112">
        <ele>104.8</ele>
        <time>2023-08-06T14:11:44Z</time>
      </trkpt>
      <trkpt lat="49.95958" lon="3.42105">
        <ele>104.8</ele>
        <time>2023-08-06T14:11:46Z</time>
      </trkpt>
      <trkpt lat="49.95939" lon="3.42085">
        <ele>105.4</ele>
        <time>2023-08-06T14:11:52Z</time>
      </trkpt>
      <trkpt lat="49.95913" lon="3.42053">
        <ele>105.4</ele>
        <time>2023-08-06T14:12:00Z</time>
      </trkpt>
      <trkpt lat="49.9589" lon="3.42027">
        <ele>106</ele>
        <time>2023-08-06T14:12:07Z</time>
      </trkpt>
      <trkpt lat="49.95857" lon="3.41989">
        <ele>106</ele>
        <time>2023-08-06T14:12:16Z</time>
      </trkpt>
      <trkpt lat="49.9583" lon="3.41959">
        <ele>106</ele>
        <time>2023-08-06T14:12:23Z</time>
      </trkpt>
      <trkpt lat="49.95789" lon="3.41917">
        <ele>105.2</ele>
        <time>2023-08-06T14:12:32Z</time>
      </trkpt>
      <trkpt lat="49.95781" lon="3.41909">
        <ele>105</ele>
        <time>2023-08-06T14:12:34Z</time>
      </trkpt>
      <trkpt lat="49.95763" lon="3.4189">
        <ele>104.6</ele>
        <time>2023-08-06T14:12:38Z</time>
      </trkpt>
      <trkpt lat="49.95759" lon="3.41886">
        <ele>104.4</ele>
        <time>2023-08-06T14:12:39Z</time>
      </trkpt>
      <trkpt lat="49.95754" lon="3.4188">
        <ele>104.4</ele>
        <time>2023-08-06T14:12:40Z</time>
      </trkpt>
      <trkpt lat="49.9575" lon="3.41876">
        <ele>104.4</ele>
        <time>2023-08-06T14:12:41Z</time>
      </trkpt>
      <trkpt lat="49.95746" lon="3.41871">
        <ele>104.4</ele>
        <time>2023-08-06T14:12:42Z</time>
      </trkpt>
      <trkpt lat="49.95742" lon="3.41867">
        <ele>104.4</ele>
        <time>2023-08-06T14:12:43Z</time>
      </trkpt>
      <trkpt lat="49.95739" lon="3.41862">
        <ele>104.4</ele>
        <time>2023-08-06T14:12:44Z</time>
      </trkpt>
      <trkpt lat="49.95735" lon="3.41857">
        <ele>104.4</ele>
        <time>2023-08-06T14:12:45Z</time>
      </trkpt>
      <trkpt lat="49.95731" lon="3.41853">
        <ele>104.4</ele>
        <time>2023-08-06T14:12:46Z</time>
      </trkpt>
      <trkpt lat="49.95728" lon="3.41848">
        <ele>104.4</ele>
        <time>2023-08-06T14:12:47Z</time>
      </trkpt>
      <trkpt lat="49.95725" lon="3.41843">
        <ele>104.4</ele>
        <time>2023-08-06T14:12:48Z</time>
      </trkpt>
      <trkpt lat="49.95721" lon="3.41839">
        <ele>104.4</ele>
        <time>2023-08-06T14:12:49Z</time>
      </trkpt>
      <trkpt lat="49.95718" lon="3.41835">
        <ele>104.6</ele>
        <time>2023-08-06T14:12:50Z</time>
      </trkpt>
      <trkpt lat="49.95715" lon="3.41833">
        <ele>104.6</ele>
        <time>2023-08-06T14:12:51Z</time>
      </trkpt>
      <trkpt lat="49.95711" lon="3.41828">
        <ele>104.8</ele>
        <time>2023-08-06T14:12:52Z</time>
      </trkpt>
      <trkpt lat="49.95707" lon="3.41825">
        <ele>104.8</ele>
        <time>2023-08-06T14:12:53Z</time>
      </trkpt>
      <trkpt lat="49.95704" lon="3.41822">
        <ele>104.8</ele>
        <time>2023-08-06T14:12:54Z</time>
      </trkpt>
      <trkpt lat="49.957" lon="3.41819">
        <ele>104.8</ele>
        <time>2023-08-06T14:12:55Z</time>
      </trkpt>
      <trkpt lat="49.95697" lon="3.41816">
        <ele>104.8</ele>
        <time>2023-08-06T14:12:56Z</time>
      </trkpt>
      <trkpt lat="49.95693" lon="3.41813">
        <ele>104.8</ele>
        <time>2023-08-06T14:12:57Z</time>
      </trkpt>
      <trkpt lat="49.95689" lon="3.4181">
        <ele>104.8</ele>
        <time>2023-08-06T14:12:58Z</time>
      </trkpt>
      <trkpt lat="49.95686" lon="3.41807">
        <ele>105</ele>
        <time>2023-08-06T14:12:59Z</time>
      </trkpt>
      <trkpt lat="49.95663" lon="3.41787">
        <ele>104.8</ele>
        <time>2023-08-06T14:13:05Z</time>
      </trkpt>
      <trkpt lat="49.95631" lon="3.41754">
        <ele>105.2</ele>
        <time>2023-08-06T14:13:13Z</time>
      </trkpt>
      <trkpt lat="49.95592" lon="3.41713">
        <ele>105.6</ele>
        <time>2023-08-06T14:13:23Z</time>
      </trkpt>
      <trkpt lat="49.95585" lon="3.41705">
        <ele>105.8</ele>
        <time>2023-08-06T14:13:25Z</time>
      </trkpt>
      <trkpt lat="49.95581" lon="3.41701">
        <ele>105.8</ele>
        <time>2023-08-06T14:13:26Z</time>
      </trkpt>
      <trkpt lat="49.95577" lon="3.41698">
        <ele>106.2</ele>
        <time>2023-08-06T14:13:27Z</time>
      </trkpt>
      <trkpt lat="49.95573" lon="3.41693">
        <ele>106.2</ele>
        <time>2023-08-06T14:13:28Z</time>
      </trkpt>
      <trkpt lat="49.9557" lon="3.41689">
        <ele>106.4</ele>
        <time>2023-08-06T14:13:29Z</time>
      </trkpt>
      <trkpt lat="49.95559" lon="3.41676">
        <ele>106.6</ele>
        <time>2023-08-06T14:13:32Z</time>
      </trkpt>
      <trkpt lat="49.95532" lon="3.41646">
        <ele>106.6</ele>
        <time>2023-08-06T14:13:39Z</time>
      </trkpt>
      <trkpt lat="49.95528" lon="3.41641">
        <ele>106.6</ele>
        <time>2023-08-06T14:13:40Z</time>
      </trkpt>
      <trkpt lat="49.95492" lon="3.41604">
        <ele>105.2</ele>
        <time>2023-08-06T14:13:46Z</time>
      </trkpt>
      <trkpt lat="49.95486" lon="3.41597">
        <ele>104.4</ele>
        <time>2023-08-06T14:13:47Z</time>
      </trkpt>
      <trkpt lat="49.95473" lon="3.41583">
        <ele>103.8</ele>
        <time>2023-08-06T14:13:49Z</time>
      </trkpt>
      <trkpt lat="49.95459" lon="3.41569">
        <ele>103.2</ele>
        <time>2023-08-06T14:13:51Z</time>
      </trkpt>
      <trkpt lat="49.95453" lon="3.41563">
        <ele>102.8</ele>
        <time>2023-08-06T14:13:52Z</time>
      </trkpt>
      <trkpt lat="49.9544" lon="3.41553">
        <ele>102.2</ele>
        <time>2023-08-06T14:13:54Z</time>
      </trkpt>
      <trkpt lat="49.95433" lon="3.41548">
        <ele>102</ele>
        <time>2023-08-06T14:13:55Z</time>
      </trkpt>
      <trkpt lat="49.95427" lon="3.41543">
        <ele>101.6</ele>
        <time>2023-08-06T14:13:56Z</time>
      </trkpt>
      <trkpt lat="49.95421" lon="3.41538">
        <ele>101.2</ele>
        <time>2023-08-06T14:13:57Z</time>
      </trkpt>
      <trkpt lat="49.95415" lon="3.41534">
        <ele>100.6</ele>
        <time>2023-08-06T14:13:58Z</time>
      </trkpt>
      <trkpt lat="49.95397" lon="3.41521">
        <ele>99.2</ele>
        <time>2023-08-06T14:14:01Z</time>
      </trkpt>
      <trkpt lat="49.95379" lon="3.41507">
        <ele>98.4</ele>
        <time>2023-08-06T14:14:04Z</time>
      </trkpt>
      <trkpt lat="49.95372" lon="3.41503">
        <ele>98.2</ele>
        <time>2023-08-06T14:14:05Z</time>
      </trkpt>
      <trkpt lat="49.95352" lon="3.41491">
        <ele>97.2</ele>
        <time>2023-08-06T14:14:08Z</time>
      </trkpt>
      <trkpt lat="49.95341" lon="3.41484">
        <ele>96.6</ele>
        <time>2023-08-06T14:14:10Z</time>
      </trkpt>
      <trkpt lat="49.95335" lon="3.4148">
        <ele>96.4</ele>
        <time>2023-08-06T14:14:11Z</time>
      </trkpt>
      <trkpt lat="49.9533" lon="3.41477">
        <ele>96</ele>
        <time>2023-08-06T14:14:12Z</time>
      </trkpt>
      <trkpt lat="49.95325" lon="3.41473">
        <ele>95.8</ele>
        <time>2023-08-06T14:14:13Z</time>
      </trkpt>
      <trkpt lat="49.9532" lon="3.4147">
        <ele>95.6</ele>
        <time>2023-08-06T14:14:14Z</time>
      </trkpt>
      <trkpt lat="49.95315" lon="3.41466">
        <ele>95.2</ele>
        <time>2023-08-06T14:14:15Z</time>
      </trkpt>
      <trkpt lat="49.95305" lon="3.41458">
        <ele>94.6</ele>
        <time>2023-08-06T14:14:17Z</time>
      </trkpt>
      <trkpt lat="49.953" lon="3.41454">
        <ele>94.6</ele>
        <time>2023-08-06T14:14:18Z</time>
      </trkpt>
      <trkpt lat="49.95282" lon="3.41442">
        <ele>93.6</ele>
        <time>2023-08-06T14:14:21Z</time>
      </trkpt>
      <trkpt lat="49.95269" lon="3.41434">
        <ele>92.8</ele>
        <time>2023-08-06T14:14:23Z</time>
      </trkpt>
      <trkpt lat="49.95261" lon="3.41431">
        <ele>92.4</ele>
        <time>2023-08-06T14:14:24Z</time>
      </trkpt>
      <trkpt lat="49.95248" lon="3.41424">
        <ele>91.8</ele>
        <time>2023-08-06T14:14:26Z</time>
      </trkpt>
      <trkpt lat="49.95242" lon="3.41421">
        <ele>91.4</ele>
        <time>2023-08-06T14:14:27Z</time>
      </trkpt>
      <trkpt lat="49.95237" lon="3.41419">
        <ele>91.2</ele>
        <time>2023-08-06T14:14:28Z</time>
      </trkpt>
      <trkpt lat="49.95232" lon="3.41417">
        <ele>90.8</ele>
        <time>2023-08-06T14:14:29Z</time>
      </trkpt>
      <trkpt lat="49.95228" lon="3.41415">
        <ele>90.6</ele>
        <time>2023-08-06T14:14:30Z</time>
      </trkpt>
      <trkpt lat="49.95223" lon="3.41415">
        <ele>90.2</ele>
        <time>2023-08-06T14:14:31Z</time>
      </trkpt>
      <trkpt lat="49.95219" lon="3.41417">
        <ele>90</ele>
        <time>2023-08-06T14:14:32Z</time>
      </trkpt>
      <trkpt lat="49.95215" lon="3.4142">
        <ele>89.6</ele>
        <time>2023-08-06T14:14:33Z</time>
      </trkpt>
      <trkpt lat="49.95211" lon="3.41423">
        <ele>89.4</ele>
        <time>2023-08-06T14:14:34Z</time>
      </trkpt>
      <trkpt lat="49.95208" lon="3.41427">
        <ele>89.2</ele>
        <time>2023-08-06T14:14:35Z</time>
      </trkpt>
      <trkpt lat="49.95205" lon="3.41431">
        <ele>89</ele>
        <time>2023-08-06T14:14:36Z</time>
      </trkpt>
      <trkpt lat="49.95203" lon="3.41435">
        <ele>89</ele>
        <time>2023-08-06T14:14:37Z</time>
      </trkpt>
      <trkpt lat="49.95194" lon="3.41443">
        <ele>88.4</ele>
        <time>2023-08-06T14:14:40Z</time>
      </trkpt>
      <trkpt lat="49.95191" lon="3.41446">
        <ele>88.2</ele>
        <time>2023-08-06T14:14:41Z</time>
      </trkpt>
      <trkpt lat="49.95186" lon="3.41451">
        <ele>88.2</ele>
        <time>2023-08-06T14:14:43Z</time>
      </trkpt>
      <trkpt lat="49.95184" lon="3.41453">
        <ele>88.2</ele>
        <time>2023-08-06T14:14:44Z</time>
      </trkpt>
      <trkpt lat="49.95182" lon="3.41456">
        <ele>88.2</ele>
        <time>2023-08-06T14:14:45Z</time>
      </trkpt>
      <trkpt lat="49.95174" lon="3.41463">
        <ele>88.4</ele>
        <time>2023-08-06T14:14:48Z</time>
      </trkpt>
      <trkpt lat="49.95171" lon="3.41465">
        <ele>88.4</ele>
        <time>2023-08-06T14:14:49Z</time>
      </trkpt>
      <trkpt lat="49.95168" lon="3.41467">
        <ele>88.4</ele>
        <time>2023-08-06T14:14:50Z</time>
      </trkpt>
      <trkpt lat="49.95145" lon="3.41486">
        <ele>89</ele>
        <time>2023-08-06T14:14:58Z</time>
      </trkpt>
      <trkpt lat="49.95126" lon="3.41503">
        <ele>90</ele>
        <time>2023-08-06T14:15:05Z</time>
      </trkpt>
      <trkpt lat="49.95123" lon="3.41506">
        <ele>90.2</ele>
        <time>2023-08-06T14:15:06Z</time>
      </trkpt>
      <trkpt lat="49.95104" lon="3.41522">
        <ele>91</ele>
        <time>2023-08-06T14:15:13Z</time>
      </trkpt>
      <trkpt lat="49.951" lon="3.41524">
        <ele>91.2</ele>
        <time>2023-08-06T14:15:14Z</time>
      </trkpt>
      <trkpt lat="49.95089" lon="3.41533">
        <ele>91.8</ele>
        <time>2023-08-06T14:15:18Z</time>
      </trkpt>
      <trkpt lat="49.95086" lon="3.41535">
        <ele>92</ele>
        <time>2023-08-06T14:15:19Z</time>
      </trkpt>
      <trkpt lat="49.95083" lon="3.41537">
        <ele>92.2</ele>
        <time>2023-08-06T14:15:20Z</time>
      </trkpt>
      <trkpt lat="49.9508" lon="3.41539">
        <ele>92.2</ele>
        <time>2023-08-06T14:15:21Z</time>
      </trkpt>
      <trkpt lat="49.95077" lon="3.41541">
        <ele>92.4</ele>
        <time>2023-08-06T14:15:22Z</time>
      </trkpt>
      <trkpt lat="49.95074" lon="3.41543">
        <ele>92.4</ele>
        <time>2023-08-06T14:15:23Z</time>
      </trkpt>
      <trkpt lat="49.95071" lon="3.41545">
        <ele>92.6</ele>
        <time>2023-08-06T14:15:24Z</time>
      </trkpt>
      <trkpt lat="49.95068" lon="3.41547">
        <ele>92.8</ele>
        <time>2023-08-06T14:15:25Z</time>
      </trkpt>
      <trkpt lat="49.95065" lon="3.4155">
        <ele>93</ele>
        <time>2023-08-06T14:15:26Z</time>
      </trkpt>
      <trkpt lat="49.95062" lon="3.41552">
        <ele>93.2</ele>
        <time>2023-08-06T14:15:27Z</time>
      </trkpt>
      <trkpt lat="49.9506" lon="3.41554">
        <ele>93.2</ele>
        <time>2023-08-06T14:15:28Z</time>
      </trkpt>
      <trkpt lat="49.95057" lon="3.41556">
        <ele>93.4</ele>
        <time>2023-08-06T14:15:29Z</time>
      </trkpt>
      <trkpt lat="49.95054" lon="3.41558">
        <ele>93.4</ele>
        <time>2023-08-06T14:15:30Z</time>
      </trkpt>
      <trkpt lat="49.95052" lon="3.4156">
        <ele>93.6</ele>
        <time>2023-08-06T14:15:31Z</time>
      </trkpt>
      <trkpt lat="49.95049" lon="3.41562">
        <ele>93.6</ele>
        <time>2023-08-06T14:15:32Z</time>
      </trkpt>
      <trkpt lat="49.95046" lon="3.41565">
        <ele>93.8</ele>
        <time>2023-08-06T14:15:33Z</time>
      </trkpt>
      <trkpt lat="49.95043" lon="3.41567">
        <ele>94</ele>
        <time>2023-08-06T14:15:34Z</time>
      </trkpt>
      <trkpt lat="49.95041" lon="3.41569">
        <ele>94</ele>
        <time>2023-08-06T14:15:35Z</time>
      </trkpt>
      <trkpt lat="49.95038" lon="3.41572">
        <ele>94.2</ele>
        <time>2023-08-06T14:15:36Z</time>
      </trkpt>
      <trkpt lat="49.95035" lon="3.41574">
        <ele>94.4</ele>
        <time>2023-08-06T14:15:37Z</time>
      </trkpt>
      <trkpt lat="49.95032" lon="3.41577">
        <ele>94.6</ele>
        <time>2023-08-06T14:15:38Z</time>
      </trkpt>
      <trkpt lat="49.9503" lon="3.41579">
        <ele>94.6</ele>
        <time>2023-08-06T14:15:39Z</time>
      </trkpt>
      <trkpt lat="49.95027" lon="3.41581">
        <ele>94.8</ele>
        <time>2023-08-06T14:15:40Z</time>
      </trkpt>
      <trkpt lat="49.95024" lon="3.41584">
        <ele>95</ele>
        <time>2023-08-06T14:15:41Z</time>
      </trkpt>
      <trkpt lat="49.95021" lon="3.41586">
        <ele>95</ele>
        <time>2023-08-06T14:15:42Z</time>
      </trkpt>
      <trkpt lat="49.95017" lon="3.41588">
        <ele>95.2</ele>
        <time>2023-08-06T14:15:43Z</time>
      </trkpt>
      <trkpt lat="49.95014" lon="3.4159">
        <ele>95.2</ele>
        <time>2023-08-06T14:15:44Z</time>
      </trkpt>
      <trkpt lat="49.95011" lon="3.41593">
        <ele>95.2</ele>
        <time>2023-08-06T14:15:45Z</time>
      </trkpt>
      <trkpt lat="49.95008" lon="3.41595">
        <ele>95.2</ele>
        <time>2023-08-06T14:15:46Z</time>
      </trkpt>
      <trkpt lat="49.95005" lon="3.41597">
        <ele>95.2</ele>
        <time>2023-08-06T14:15:47Z</time>
      </trkpt>
      <trkpt lat="49.95002" lon="3.416">
        <ele>95.4</ele>
        <time>2023-08-06T14:15:48Z</time>
      </trkpt>
      <trkpt lat="49.94999" lon="3.41602">
        <ele>95.4</ele>
        <time>2023-08-06T14:15:49Z</time>
      </trkpt>
      <trkpt lat="49.94996" lon="3.41605">
        <ele>95.4</ele>
        <time>2023-08-06T14:15:50Z</time>
      </trkpt>
      <trkpt lat="49.94993" lon="3.41607">
        <ele>95.4</ele>
        <time>2023-08-06T14:15:51Z</time>
      </trkpt>
      <trkpt lat="49.9499" lon="3.4161">
        <ele>95.4</ele>
        <time>2023-08-06T14:15:52Z</time>
      </trkpt>
      <trkpt lat="49.94987" lon="3.41612">
        <ele>95.4</ele>
        <time>2023-08-06T14:15:53Z</time>
      </trkpt>
      <trkpt lat="49.94984" lon="3.41614">
        <ele>95.4</ele>
        <time>2023-08-06T14:15:54Z</time>
      </trkpt>
      <trkpt lat="49.94981" lon="3.41617">
        <ele>95.4</ele>
        <time>2023-08-06T14:15:55Z</time>
      </trkpt>
      <trkpt lat="49.94974" lon="3.41623">
        <ele>95.4</ele>
        <time>2023-08-06T14:15:57Z</time>
      </trkpt>
      <trkpt lat="49.94948" lon="3.41646">
        <ele>95.2</ele>
        <time>2023-08-06T14:16:04Z</time>
      </trkpt>
      <trkpt lat="49.94944" lon="3.41649">
        <ele>95.2</ele>
        <time>2023-08-06T14:16:05Z</time>
      </trkpt>
      <trkpt lat="49.94941" lon="3.41652">
        <ele>95.2</ele>
        <time>2023-08-06T14:16:06Z</time>
      </trkpt>
      <trkpt lat="49.94937" lon="3.41655">
        <ele>95</ele>
        <time>2023-08-06T14:16:07Z</time>
      </trkpt>
      <trkpt lat="49.9493" lon="3.41661">
        <ele>94.6</ele>
        <time>2023-08-06T14:16:09Z</time>
      </trkpt>
      <trkpt lat="49.94927" lon="3.41663">
        <ele>94.4</ele>
        <time>2023-08-06T14:16:10Z</time>
      </trkpt>
      <trkpt lat="49.94924" lon="3.41665">
        <ele>94.4</ele>
        <time>2023-08-06T14:16:11Z</time>
      </trkpt>
      <trkpt lat="49.94922" lon="3.41665">
        <ele>94.2</ele>
        <time>2023-08-06T14:16:12Z</time>
      </trkpt>
      <trkpt lat="49.94921" lon="3.41664">
        <ele>94.2</ele>
        <time>2023-08-06T14:16:13Z</time>
      </trkpt>
      <trkpt lat="49.9492" lon="3.41663">
        <ele>94</ele>
        <time>2023-08-06T14:16:14Z</time>
      </trkpt>
      <trkpt lat="49.94918" lon="3.41661">
        <ele>93.8</ele>
        <time>2023-08-06T14:16:15Z</time>
      </trkpt>
      <trkpt lat="49.94917" lon="3.41659">
        <ele>93.6</ele>
        <time>2023-08-06T14:16:16Z</time>
      </trkpt>
      <trkpt lat="49.94915" lon="3.41656">
        <ele>93.6</ele>
        <time>2023-08-06T14:16:17Z</time>
      </trkpt>
      <trkpt lat="49.9491" lon="3.41646">
        <ele>93.4</ele>
        <time>2023-08-06T14:16:20Z</time>
      </trkpt>
      <trkpt lat="49.94902" lon="3.41639">
        <ele>93.4</ele>
        <time>2023-08-06T14:16:23Z</time>
      </trkpt>
      <trkpt lat="49.94899" lon="3.41638">
        <ele>93.2</ele>
        <time>2023-08-06T14:16:24Z</time>
      </trkpt>
      <trkpt lat="49.94896" lon="3.41639">
        <ele>93.2</ele>
        <time>2023-08-06T14:16:25Z</time>
      </trkpt>
      <trkpt lat="49.94893" lon="3.41641">
        <ele>93.2</ele>
        <time>2023-08-06T14:16:26Z</time>
      </trkpt>
      <trkpt lat="49.94886" lon="3.41648">
        <ele>93</ele>
        <time>2023-08-06T14:16:28Z</time>
      </trkpt>
      <trkpt lat="49.94882" lon="3.41652">
        <ele>93</ele>
        <time>2023-08-06T14:16:29Z</time>
      </trkpt>
      <trkpt lat="49.94873" lon="3.4166">
        <ele>92.8</ele>
        <time>2023-08-06T14:16:31Z</time>
      </trkpt>
      <trkpt lat="49.94863" lon="3.41671">
        <ele>92</ele>
        <time>2023-08-06T14:16:33Z</time>
      </trkpt>
      <trkpt lat="49.94858" lon="3.41677">
        <ele>92</ele>
        <time>2023-08-06T14:16:34Z</time>
      </trkpt>
      <trkpt lat="49.94826" lon="3.41708">
        <ele>90.8</ele>
        <time>2023-08-06T14:16:39Z</time>
      </trkpt>
      <trkpt lat="49.94811" lon="3.41722">
        <ele>89.2</ele>
        <time>2023-08-06T14:16:41Z</time>
      </trkpt>
      <trkpt lat="49.94786" lon="3.41744">
        <ele>87.6</ele>
        <time>2023-08-06T14:16:44Z</time>
      </trkpt>
      <trkpt lat="49.94768" lon="3.41759">
        <ele>86</ele>
        <time>2023-08-06T14:16:46Z</time>
      </trkpt>
      <trkpt lat="49.9475" lon="3.41774">
        <ele>85</ele>
        <time>2023-08-06T14:16:48Z</time>
      </trkpt>
      <trkpt lat="49.94732" lon="3.41792">
        <ele>83.8</ele>
        <time>2023-08-06T14:16:50Z</time>
      </trkpt>
      <trkpt lat="49.94723" lon="3.418">
        <ele>82.6</ele>
        <time>2023-08-06T14:16:51Z</time>
      </trkpt>
      <trkpt lat="49.94706" lon="3.41818">
        <ele>81.4</ele>
        <time>2023-08-06T14:16:53Z</time>
      </trkpt>
      <trkpt lat="49.94688" lon="3.41836">
        <ele>80.4</ele>
        <time>2023-08-06T14:16:55Z</time>
      </trkpt>
      <trkpt lat="49.9467" lon="3.41855">
        <ele>79.6</ele>
        <time>2023-08-06T14:16:57Z</time>
      </trkpt>
      <trkpt lat="49.94653" lon="3.41874">
        <ele>79</ele>
        <time>2023-08-06T14:16:59Z</time>
      </trkpt>
      <trkpt lat="49.94627" lon="3.41902">
        <ele>77.6</ele>
        <time>2023-08-06T14:17:02Z</time>
      </trkpt>
      <trkpt lat="49.94619" lon="3.41912">
        <ele>77.4</ele>
        <time>2023-08-06T14:17:03Z</time>
      </trkpt>
      <trkpt lat="49.94611" lon="3.41921">
        <ele>76.6</ele>
        <time>2023-08-06T14:17:04Z</time>
      </trkpt>
      <trkpt lat="49.94594" lon="3.41939">
        <ele>75.4</ele>
        <time>2023-08-06T14:17:06Z</time>
      </trkpt>
      <trkpt lat="49.94586" lon="3.41948">
        <ele>74.8</ele>
        <time>2023-08-06T14:17:07Z</time>
      </trkpt>
      <trkpt lat="49.94578" lon="3.41957">
        <ele>74.4</ele>
        <time>2023-08-06T14:17:08Z</time>
      </trkpt>
      <trkpt lat="49.9457" lon="3.41965">
        <ele>73.6</ele>
        <time>2023-08-06T14:17:09Z</time>
      </trkpt>
      <trkpt lat="49.94562" lon="3.41974">
        <ele>73.2</ele>
        <time>2023-08-06T14:17:10Z</time>
      </trkpt>
      <trkpt lat="49.94555" lon="3.41982">
        <ele>72.6</ele>
        <time>2023-08-06T14:17:11Z</time>
      </trkpt>
      <trkpt lat="49.94548" lon="3.41989">
        <ele>72.4</ele>
        <time>2023-08-06T14:17:12Z</time>
      </trkpt>
      <trkpt lat="49.9454" lon="3.41997">
        <ele>72.2</ele>
        <time>2023-08-06T14:17:13Z</time>
      </trkpt>
      <trkpt lat="49.94534" lon="3.42004">
        <ele>72.2</ele>
        <time>2023-08-06T14:17:14Z</time>
      </trkpt>
      <trkpt lat="49.94527" lon="3.42012">
        <ele>72</ele>
        <time>2023-08-06T14:17:15Z</time>
      </trkpt>
      <trkpt lat="49.9452" lon="3.42019">
        <ele>71.8</ele>
        <time>2023-08-06T14:17:16Z</time>
      </trkpt>
      <trkpt lat="49.94506" lon="3.42033">
        <ele>71.6</ele>
        <time>2023-08-06T14:17:18Z</time>
      </trkpt>
      <trkpt lat="49.945" lon="3.42041">
        <ele>71.4</ele>
        <time>2023-08-06T14:17:19Z</time>
      </trkpt>
      <trkpt lat="49.94493" lon="3.42048">
        <ele>71.2</ele>
        <time>2023-08-06T14:17:20Z</time>
      </trkpt>
      <trkpt lat="49.94487" lon="3.42055">
        <ele>71</ele>
        <time>2023-08-06T14:17:21Z</time>
      </trkpt>
      <trkpt lat="49.94481" lon="3.42062">
        <ele>70.8</ele>
        <time>2023-08-06T14:17:22Z</time>
      </trkpt>
      <trkpt lat="49.94475" lon="3.42069">
        <ele>70.4</ele>
        <time>2023-08-06T14:17:23Z</time>
      </trkpt>
      <trkpt lat="49.94469" lon="3.42076">
        <ele>70.2</ele>
        <time>2023-08-06T14:17:24Z</time>
      </trkpt>
      <trkpt lat="49.94464" lon="3.42083">
        <ele>70</ele>
        <time>2023-08-06T14:17:25Z</time>
      </trkpt>
      <trkpt lat="49.94458" lon="3.4209">
        <ele>70</ele>
        <time>2023-08-06T14:17:26Z</time>
      </trkpt>
      <trkpt lat="49.94453" lon="3.42096">
        <ele>69.8</ele>
        <time>2023-08-06T14:17:27Z</time>
      </trkpt>
      <trkpt lat="49.94448" lon="3.42102">
        <ele>69.6</ele>
        <time>2023-08-06T14:17:28Z</time>
      </trkpt>
      <trkpt lat="49.94443" lon="3.42108">
        <ele>69.6</ele>
        <time>2023-08-06T14:17:29Z</time>
      </trkpt>
      <trkpt lat="49.94439" lon="3.42113">
        <ele>69.4</ele>
        <time>2023-08-06T14:17:30Z</time>
      </trkpt>
      <trkpt lat="49.94434" lon="3.42119">
        <ele>69.4</ele>
        <time>2023-08-06T14:17:31Z</time>
      </trkpt>
      <trkpt lat="49.9443" lon="3.42123">
        <ele>69.2</ele>
        <time>2023-08-06T14:17:32Z</time>
      </trkpt>
      <trkpt lat="49.94426" lon="3.42129">
        <ele>69.2</ele>
        <time>2023-08-06T14:17:33Z</time>
      </trkpt>
      <trkpt lat="49.94422" lon="3.42133">
        <ele>69.2</ele>
        <time>2023-08-06T14:17:34Z</time>
      </trkpt>
      <trkpt lat="49.94419" lon="3.42138">
        <ele>69.4</ele>
        <time>2023-08-06T14:17:35Z</time>
      </trkpt>
      <trkpt lat="49.94416" lon="3.42142">
        <ele>69.4</ele>
        <time>2023-08-06T14:17:36Z</time>
      </trkpt>
      <trkpt lat="49.94413" lon="3.42146">
        <ele>69.4</ele>
        <time>2023-08-06T14:17:37Z</time>
      </trkpt>
      <trkpt lat="49.94411" lon="3.4215">
        <ele>69.4</ele>
        <time>2023-08-06T14:17:38Z</time>
      </trkpt>
      <trkpt lat="49.94409" lon="3.42154">
        <ele>69.6</ele>
        <time>2023-08-06T14:17:39Z</time>
      </trkpt>
      <trkpt lat="49.94407" lon="3.42157">
        <ele>69.8</ele>
        <time>2023-08-06T14:17:40Z</time>
      </trkpt>
      <trkpt lat="49.94406" lon="3.42161">
        <ele>70</ele>
        <time>2023-08-06T14:17:41Z</time>
      </trkpt>
      <trkpt lat="49.94404" lon="3.42164">
        <ele>70</ele>
        <time>2023-08-06T14:17:42Z</time>
      </trkpt>
      <trkpt lat="49.94399" lon="3.42173">
        <ele>70.4</ele>
        <time>2023-08-06T14:17:45Z</time>
      </trkpt>
      <trkpt lat="49.94398" lon="3.42175">
        <ele>70.6</ele>
        <time>2023-08-06T14:17:46Z</time>
      </trkpt>
      <trkpt lat="49.94396" lon="3.42178">
        <ele>70.6</ele>
        <time>2023-08-06T14:17:47Z</time>
      </trkpt>
      <trkpt lat="49.94395" lon="3.42181">
        <ele>70.8</ele>
        <time>2023-08-06T14:17:48Z</time>
      </trkpt>
      <trkpt lat="49.94393" lon="3.42183">
        <ele>71</ele>
        <time>2023-08-06T14:17:49Z</time>
      </trkpt>
      <trkpt lat="49.94392" lon="3.42186">
        <ele>71.2</ele>
        <time>2023-08-06T14:17:50Z</time>
      </trkpt>
      <trkpt lat="49.9439" lon="3.42188">
        <ele>71.4</ele>
        <time>2023-08-06T14:17:51Z</time>
      </trkpt>
      <trkpt lat="49.94389" lon="3.42191">
        <ele>71.6</ele>
        <time>2023-08-06T14:17:52Z</time>
      </trkpt>
      <trkpt lat="49.94387" lon="3.42193">
        <ele>71.8</ele>
        <time>2023-08-06T14:17:53Z</time>
      </trkpt>
      <trkpt lat="49.94386" lon="3.42195">
        <ele>71.8</ele>
        <time>2023-08-06T14:17:54Z</time>
      </trkpt>
      <trkpt lat="49.94384" lon="3.42198">
        <ele>72</ele>
        <time>2023-08-06T14:17:55Z</time>
      </trkpt>
      <trkpt lat="49.94383" lon="3.422">
        <ele>72</ele>
        <time>2023-08-06T14:17:56Z</time>
      </trkpt>
      <trkpt lat="49.94381" lon="3.42203">
        <ele>72.2</ele>
        <time>2023-08-06T14:17:57Z</time>
      </trkpt>
      <trkpt lat="49.9438" lon="3.42205">
        <ele>72.4</ele>
        <time>2023-08-06T14:17:58Z</time>
      </trkpt>
      <trkpt lat="49.94379" lon="3.42207">
        <ele>72.4</ele>
        <time>2023-08-06T14:17:59Z</time>
      </trkpt>
      <trkpt lat="49.94377" lon="3.42209">
        <ele>72.6</ele>
        <time>2023-08-06T14:18:00Z</time>
      </trkpt>
      <trkpt lat="49.94376" lon="3.42211">
        <ele>72.6</ele>
        <time>2023-08-06T14:18:01Z</time>
      </trkpt>
      <trkpt lat="49.94374" lon="3.42213">
        <ele>72.8</ele>
        <time>2023-08-06T14:18:02Z</time>
      </trkpt>
      <trkpt lat="49.94373" lon="3.42214">
        <ele>72.8</ele>
        <time>2023-08-06T14:18:03Z</time>
      </trkpt>
      <trkpt lat="49.94372" lon="3.42216">
        <ele>73</ele>
        <time>2023-08-06T14:18:04Z</time>
      </trkpt>
      <trkpt lat="49.9437" lon="3.42218">
        <ele>73.2</ele>
        <time>2023-08-06T14:18:05Z</time>
      </trkpt>
      <trkpt lat="49.94369" lon="3.4222">
        <ele>73.4</ele>
        <time>2023-08-06T14:18:06Z</time>
      </trkpt>
      <trkpt lat="49.94368" lon="3.42222">
        <ele>73.4</ele>
        <time>2023-08-06T14:18:07Z</time>
      </trkpt>
      <trkpt lat="49.94367" lon="3.42224">
        <ele>73.8</ele>
        <time>2023-08-06T14:18:08Z</time>
      </trkpt>
      <trkpt lat="49.94365" lon="3.42226">
        <ele>74</ele>
        <time>2023-08-06T14:18:09Z</time>
      </trkpt>
      <trkpt lat="49.94364" lon="3.42228">
        <ele>74</ele>
        <time>2023-08-06T14:18:10Z</time>
      </trkpt>
      <trkpt lat="49.94363" lon="3.42229">
        <ele>74.2</ele>
        <time>2023-08-06T14:18:11Z</time>
      </trkpt>
      <trkpt lat="49.94361" lon="3.42231">
        <ele>74.2</ele>
        <time>2023-08-06T14:18:12Z</time>
      </trkpt>
      <trkpt lat="49.9436" lon="3.42233">
        <ele>74.4</ele>
        <time>2023-08-06T14:18:13Z</time>
      </trkpt>
      <trkpt lat="49.94359" lon="3.42234">
        <ele>74.4</ele>
        <time>2023-08-06T14:18:14Z</time>
      </trkpt>
      <trkpt lat="49.94358" lon="3.42236">
        <ele>74.6</ele>
        <time>2023-08-06T14:18:15Z</time>
      </trkpt>
      <trkpt lat="49.94356" lon="3.42238">
        <ele>74.6</ele>
        <time>2023-08-06T14:18:16Z</time>
      </trkpt>
      <trkpt lat="49.94355" lon="3.4224">
        <ele>74.8</ele>
        <time>2023-08-06T14:18:17Z</time>
      </trkpt>
      <trkpt lat="49.94354" lon="3.42242">
        <ele>75</ele>
        <time>2023-08-06T14:18:18Z</time>
      </trkpt>
      <trkpt lat="49.94353" lon="3.42244">
        <ele>75.2</ele>
        <time>2023-08-06T14:18:19Z</time>
      </trkpt>
      <trkpt lat="49.94352" lon="3.42245">
        <ele>75.4</ele>
        <time>2023-08-06T14:18:20Z</time>
      </trkpt>
      <trkpt lat="49.94351" lon="3.42247">
        <ele>75.4</ele>
        <time>2023-08-06T14:18:21Z</time>
      </trkpt>
      <trkpt lat="49.9435" lon="3.42249">
        <ele>75.6</ele>
        <time>2023-08-06T14:18:22Z</time>
      </trkpt>
      <trkpt lat="49.94349" lon="3.4225">
        <ele>75.8</ele>
        <time>2023-08-06T14:18:23Z</time>
      </trkpt>
      <trkpt lat="49.94348" lon="3.42252">
        <ele>75.8</ele>
        <time>2023-08-06T14:18:24Z</time>
      </trkpt>
      <trkpt lat="49.94346" lon="3.42254">
        <ele>76</ele>
        <time>2023-08-06T14:18:25Z</time>
      </trkpt>
      <trkpt lat="49.94344" lon="3.42255">
        <ele>76</ele>
        <time>2023-08-06T14:18:26Z</time>
      </trkpt>
      <trkpt lat="49.94342" lon="3.42257">
        <ele>76.2</ele>
        <time>2023-08-06T14:18:27Z</time>
      </trkpt>
      <trkpt lat="49.94341" lon="3.42259">
        <ele>76.2</ele>
        <time>2023-08-06T14:18:28Z</time>
      </trkpt>
      <trkpt lat="49.9434" lon="3.42261">
        <ele>76.4</ele>
        <time>2023-08-06T14:18:29Z</time>
      </trkpt>
      <trkpt lat="49.94339" lon="3.42263">
        <ele>76.4</ele>
        <time>2023-08-06T14:18:30Z</time>
      </trkpt>
      <trkpt lat="49.94337" lon="3.42264">
        <ele>76.8</ele>
        <time>2023-08-06T14:18:31Z</time>
      </trkpt>
      <trkpt lat="49.94336" lon="3.42266">
        <ele>77</ele>
        <time>2023-08-06T14:18:32Z</time>
      </trkpt>
      <trkpt lat="49.94334" lon="3.42267">
        <ele>77.4</ele>
        <time>2023-08-06T14:18:33Z</time>
      </trkpt>
      <trkpt lat="49.94334" lon="3.42269">
        <ele>77.8</ele>
        <time>2023-08-06T14:18:34Z</time>
      </trkpt>
      <trkpt lat="49.94333" lon="3.42271">
        <ele>78</ele>
        <time>2023-08-06T14:18:35Z</time>
      </trkpt>
      <trkpt lat="49.94331" lon="3.42273">
        <ele>78.2</ele>
        <time>2023-08-06T14:18:36Z</time>
      </trkpt>
      <trkpt lat="49.94329" lon="3.42275">
        <ele>78.2</ele>
        <time>2023-08-06T14:18:37Z</time>
      </trkpt>
      <trkpt lat="49.94328" lon="3.42277">
        <ele>78.2</ele>
        <time>2023-08-06T14:18:38Z</time>
      </trkpt>
      <trkpt lat="49.94327" lon="3.42278">
        <ele>78.4</ele>
        <time>2023-08-06T14:18:39Z</time>
      </trkpt>
      <trkpt lat="49.94326" lon="3.4228">
        <ele>78.4</ele>
        <time>2023-08-06T14:18:40Z</time>
      </trkpt>
      <trkpt lat="49.94325" lon="3.42282">
        <ele>78.6</ele>
        <time>2023-08-06T14:18:41Z</time>
      </trkpt>
      <trkpt lat="49.94324" lon="3.42284">
        <ele>78.6</ele>
        <time>2023-08-06T14:18:42Z</time>
      </trkpt>
      <trkpt lat="49.94323" lon="3.42285">
        <ele>78.6</ele>
        <time>2023-08-06T14:18:43Z</time>
      </trkpt>
      <trkpt lat="49.94321" lon="3.42287">
        <ele>78.8</ele>
        <time>2023-08-06T14:18:44Z</time>
      </trkpt>
      <trkpt lat="49.9432" lon="3.42289">
        <ele>78.6</ele>
        <time>2023-08-06T14:18:45Z</time>
      </trkpt>
      <trkpt lat="49.94319" lon="3.42291">
        <ele>79</ele>
        <time>2023-08-06T14:18:46Z</time>
      </trkpt>
      <trkpt lat="49.94318" lon="3.42292">
        <ele>79</ele>
        <time>2023-08-06T14:18:47Z</time>
      </trkpt>
      <trkpt lat="49.94316" lon="3.42294">
        <ele>79.2</ele>
        <time>2023-08-06T14:18:48Z</time>
      </trkpt>
      <trkpt lat="49.94314" lon="3.42295">
        <ele>79.6</ele>
        <time>2023-08-06T14:18:49Z</time>
      </trkpt>
      <trkpt lat="49.94313" lon="3.42297">
        <ele>79.8</ele>
        <time>2023-08-06T14:18:50Z</time>
      </trkpt>
      <trkpt lat="49.94312" lon="3.42298">
        <ele>79.8</ele>
        <time>2023-08-06T14:18:51Z</time>
      </trkpt>
      <trkpt lat="49.94311" lon="3.423">
        <ele>79.8</ele>
        <time>2023-08-06T14:18:52Z</time>
      </trkpt>
      <trkpt lat="49.9431" lon="3.42302">
        <ele>80</ele>
        <time>2023-08-06T14:18:53Z</time>
      </trkpt>
      <trkpt lat="49.94309" lon="3.42303">
        <ele>80.4</ele>
        <time>2023-08-06T14:18:54Z</time>
      </trkpt>
      <trkpt lat="49.94308" lon="3.42305">
        <ele>80.4</ele>
        <time>2023-08-06T14:18:55Z</time>
      </trkpt>
      <trkpt lat="49.94307" lon="3.42306">
        <ele>80.4</ele>
        <time>2023-08-06T14:18:56Z</time>
      </trkpt>
      <trkpt lat="49.94305" lon="3.42308">
        <ele>80.4</ele>
        <time>2023-08-06T14:18:57Z</time>
      </trkpt>
      <trkpt lat="49.94304" lon="3.4231">
        <ele>80.8</ele>
        <time>2023-08-06T14:18:58Z</time>
      </trkpt>
      <trkpt lat="49.94303" lon="3.42312">
        <ele>80.8</ele>
        <time>2023-08-06T14:18:59Z</time>
      </trkpt>
      <trkpt lat="49.94302" lon="3.42313">
        <ele>80.8</ele>
        <time>2023-08-06T14:19:00Z</time>
      </trkpt>
      <trkpt lat="49.94301" lon="3.42315">
        <ele>81</ele>
        <time>2023-08-06T14:19:01Z</time>
      </trkpt>
      <trkpt lat="49.94299" lon="3.42317">
        <ele>81.2</ele>
        <time>2023-08-06T14:19:02Z</time>
      </trkpt>
      <trkpt lat="49.94298" lon="3.42318">
        <ele>81.4</ele>
        <time>2023-08-06T14:19:03Z</time>
      </trkpt>
      <trkpt lat="49.94296" lon="3.4232">
        <ele>81.4</ele>
        <time>2023-08-06T14:19:04Z</time>
      </trkpt>
      <trkpt lat="49.94295" lon="3.42322">
        <ele>81.4</ele>
        <time>2023-08-06T14:19:05Z</time>
      </trkpt>
      <trkpt lat="49.94294" lon="3.42323">
        <ele>81.6</ele>
        <time>2023-08-06T14:19:06Z</time>
      </trkpt>
      <trkpt lat="49.94293" lon="3.42324">
        <ele>81.6</ele>
        <time>2023-08-06T14:19:07Z</time>
      </trkpt>
      <trkpt lat="49.94292" lon="3.42326">
        <ele>81.8</ele>
        <time>2023-08-06T14:19:08Z</time>
      </trkpt>
      <trkpt lat="49.9429" lon="3.42327">
        <ele>82</ele>
        <time>2023-08-06T14:19:09Z</time>
      </trkpt>
      <trkpt lat="49.94289" lon="3.42328">
        <ele>82.2</ele>
        <time>2023-08-06T14:19:10Z</time>
      </trkpt>
      <trkpt lat="49.94288" lon="3.4233">
        <ele>82.4</ele>
        <time>2023-08-06T14:19:11Z</time>
      </trkpt>
      <trkpt lat="49.94286" lon="3.42331">
        <ele>82.8</ele>
        <time>2023-08-06T14:19:12Z</time>
      </trkpt>
      <trkpt lat="49.94285" lon="3.42333">
        <ele>82.8</ele>
        <time>2023-08-06T14:19:13Z</time>
      </trkpt>
      <trkpt lat="49.94283" lon="3.42335">
        <ele>83</ele>
        <time>2023-08-06T14:19:14Z</time>
      </trkpt>
      <trkpt lat="49.94281" lon="3.42337">
        <ele>83.2</ele>
        <time>2023-08-06T14:19:15Z</time>
      </trkpt>
      <trkpt lat="49.9428" lon="3.42338">
        <ele>83.2</ele>
        <time>2023-08-06T14:19:16Z</time>
      </trkpt>
      <trkpt lat="49.94279" lon="3.42339">
        <ele>83.2</ele>
        <time>2023-08-06T14:19:17Z</time>
      </trkpt>
      <trkpt lat="49.94278" lon="3.4234">
        <ele>83.2</ele>
        <time>2023-08-06T14:19:18Z</time>
      </trkpt>
      <trkpt lat="49.94276" lon="3.42342">
        <ele>83.4</ele>
        <time>2023-08-06T14:19:19Z</time>
      </trkpt>
      <trkpt lat="49.94275" lon="3.42343">
        <ele>83.6</ele>
        <time>2023-08-06T14:19:20Z</time>
      </trkpt>
      <trkpt lat="49.94273" lon="3.42345">
        <ele>83.6</ele>
        <time>2023-08-06T14:19:21Z</time>
      </trkpt>
      <trkpt lat="49.94272" lon="3.42347">
        <ele>83.6</ele>
        <time>2023-08-06T14:19:22Z</time>
      </trkpt>
      <trkpt lat="49.94271" lon="3.42348">
        <ele>83.6</ele>
        <time>2023-08-06T14:19:23Z</time>
      </trkpt>
      <trkpt lat="49.94269" lon="3.4235">
        <ele>83.8</ele>
        <time>2023-08-06T14:19:24Z</time>
      </trkpt>
      <trkpt lat="49.94267" lon="3.42351">
        <ele>83.8</ele>
        <time>2023-08-06T14:19:25Z</time>
      </trkpt>
      <trkpt lat="49.94266" lon="3.42352">
        <ele>84</ele>
        <time>2023-08-06T14:19:26Z</time>
      </trkpt>
      <trkpt lat="49.94265" lon="3.42354">
        <ele>84.2</ele>
        <time>2023-08-06T14:19:27Z</time>
      </trkpt>
      <trkpt lat="49.94263" lon="3.42355">
        <ele>84.4</ele>
        <time>2023-08-06T14:19:28Z</time>
      </trkpt>
      <trkpt lat="49.94261" lon="3.42356">
        <ele>84.6</ele>
        <time>2023-08-06T14:19:29Z</time>
      </trkpt>
      <trkpt lat="49.9426" lon="3.42357">
        <ele>84.6</ele>
        <time>2023-08-06T14:19:30Z</time>
      </trkpt>
      <trkpt lat="49.94258" lon="3.42358">
        <ele>84.8</ele>
        <time>2023-08-06T14:19:31Z</time>
      </trkpt>
      <trkpt lat="49.94257" lon="3.42359">
        <ele>85</ele>
        <time>2023-08-06T14:19:32Z</time>
      </trkpt>
      <trkpt lat="49.94255" lon="3.42361">
        <ele>85.2</ele>
        <time>2023-08-06T14:19:33Z</time>
      </trkpt>
      <trkpt lat="49.94254" lon="3.42362">
        <ele>85.2</ele>
        <time>2023-08-06T14:19:34Z</time>
      </trkpt>
      <trkpt lat="49.94253" lon="3.42364">
        <ele>85.6</ele>
        <time>2023-08-06T14:19:35Z</time>
      </trkpt>
      <trkpt lat="49.94251" lon="3.42366">
        <ele>85.8</ele>
        <time>2023-08-06T14:19:36Z</time>
      </trkpt>
      <trkpt lat="49.9425" lon="3.42367">
        <ele>85.8</ele>
        <time>2023-08-06T14:19:37Z</time>
      </trkpt>
      <trkpt lat="49.94248" lon="3.42369">
        <ele>86</ele>
        <time>2023-08-06T14:19:38Z</time>
      </trkpt>
      <trkpt lat="49.94247" lon="3.42371">
        <ele>86</ele>
        <time>2023-08-06T14:19:39Z</time>
      </trkpt>
      <trkpt lat="49.94245" lon="3.42373">
        <ele>86</ele>
        <time>2023-08-06T14:19:40Z</time>
      </trkpt>
      <trkpt lat="49.94244" lon="3.42374">
        <ele>86</ele>
        <time>2023-08-06T14:19:41Z</time>
      </trkpt>
      <trkpt lat="49.94243" lon="3.42376">
        <ele>86.2</ele>
        <time>2023-08-06T14:19:42Z</time>
      </trkpt>
      <trkpt lat="49.94242" lon="3.42378">
        <ele>86.2</ele>
        <time>2023-08-06T14:19:43Z</time>
      </trkpt>
      <trkpt lat="49.94241" lon="3.4238">
        <ele>86.4</ele>
        <time>2023-08-06T14:19:44Z</time>
      </trkpt>
      <trkpt lat="49.9424" lon="3.42383">
        <ele>86.8</ele>
        <time>2023-08-06T14:19:45Z</time>
      </trkpt>
      <trkpt lat="49.94239" lon="3.42385">
        <ele>87</ele>
        <time>2023-08-06T14:19:46Z</time>
      </trkpt>
      <trkpt lat="49.94238" lon="3.42387">
        <ele>87</ele>
        <time>2023-08-06T14:19:47Z</time>
      </trkpt>
      <trkpt lat="49.94237" lon="3.42389">
        <ele>87</ele>
        <time>2023-08-06T14:19:48Z</time>
      </trkpt>
      <trkpt lat="49.94236" lon="3.42391">
        <ele>87.2</ele>
        <time>2023-08-06T14:19:49Z</time>
      </trkpt>
      <trkpt lat="49.94235" lon="3.42393">
        <ele>87.2</ele>
        <time>2023-08-06T14:19:50Z</time>
      </trkpt>
      <trkpt lat="49.94233" lon="3.42396">
        <ele>87.4</ele>
        <time>2023-08-06T14:19:51Z</time>
      </trkpt>
      <trkpt lat="49.94232" lon="3.42398">
        <ele>87.4</ele>
        <time>2023-08-06T14:19:52Z</time>
      </trkpt>
      <trkpt lat="49.94231" lon="3.42399">
        <ele>87.6</ele>
        <time>2023-08-06T14:19:53Z</time>
      </trkpt>
      <trkpt lat="49.9423" lon="3.42401">
        <ele>87.6</ele>
        <time>2023-08-06T14:19:54Z</time>
      </trkpt>
      <trkpt lat="49.94228" lon="3.42403">
        <ele>87.6</ele>
        <time>2023-08-06T14:19:55Z</time>
      </trkpt>
      <trkpt lat="49.94226" lon="3.42403">
        <ele>87.8</ele>
        <time>2023-08-06T14:19:56Z</time>
      </trkpt>
      <trkpt lat="49.94225" lon="3.42404">
        <ele>87.8</ele>
        <time>2023-08-06T14:19:57Z</time>
      </trkpt>
      <trkpt lat="49.94223" lon="3.42403">
        <ele>87.8</ele>
        <time>2023-08-06T14:19:58Z</time>
      </trkpt>
      <trkpt lat="49.94221" lon="3.42401">
        <ele>88</ele>
        <time>2023-08-06T14:19:59Z</time>
      </trkpt>
      <trkpt lat="49.9422" lon="3.424">
        <ele>88</ele>
        <time>2023-08-06T14:20:00Z</time>
      </trkpt>
      <trkpt lat="49.94219" lon="3.42399">
        <ele>88.2</ele>
        <time>2023-08-06T14:20:01Z</time>
      </trkpt>
      <trkpt lat="49.94218" lon="3.42397">
        <ele>88.2</ele>
        <time>2023-08-06T14:20:02Z</time>
      </trkpt>
      <trkpt lat="49.94217" lon="3.42395">
        <ele>88.4</ele>
        <time>2023-08-06T14:20:03Z</time>
      </trkpt>
      <trkpt lat="49.94215" lon="3.42392">
        <ele>88.4</ele>
        <time>2023-08-06T14:20:04Z</time>
      </trkpt>
      <trkpt lat="49.94213" lon="3.4239">
        <ele>88.6</ele>
        <time>2023-08-06T14:20:05Z</time>
      </trkpt>
      <trkpt lat="49.94212" lon="3.42388">
        <ele>88.6</ele>
        <time>2023-08-06T14:20:06Z</time>
      </trkpt>
      <trkpt lat="49.94211" lon="3.42386">
        <ele>88.8</ele>
        <time>2023-08-06T14:20:07Z</time>
      </trkpt>
      <trkpt lat="49.94209" lon="3.42384">
        <ele>89</ele>
        <time>2023-08-06T14:20:08Z</time>
      </trkpt>
      <trkpt lat="49.94208" lon="3.42382">
        <ele>89.2</ele>
        <time>2023-08-06T14:20:09Z</time>
      </trkpt>
      <trkpt lat="49.94207" lon="3.4238">
        <ele>89.2</ele>
        <time>2023-08-06T14:20:10Z</time>
      </trkpt>
      <trkpt lat="49.94206" lon="3.42377">
        <ele>89.4</ele>
        <time>2023-08-06T14:20:11Z</time>
      </trkpt>
      <trkpt lat="49.94205" lon="3.42375">
        <ele>89.4</ele>
        <time>2023-08-06T14:20:12Z</time>
      </trkpt>
      <trkpt lat="49.94203" lon="3.42372">
        <ele>89.6</ele>
        <time>2023-08-06T14:20:13Z</time>
      </trkpt>
      <trkpt lat="49.94201" lon="3.4237">
        <ele>89.6</ele>
        <time>2023-08-06T14:20:14Z</time>
      </trkpt>
      <trkpt lat="49.942" lon="3.42368">
        <ele>89.8</ele>
        <time>2023-08-06T14:20:15Z</time>
      </trkpt>
      <trkpt lat="49.94198" lon="3.42366">
        <ele>90</ele>
        <time>2023-08-06T14:20:16Z</time>
      </trkpt>
      <trkpt lat="49.94196" lon="3.42364">
        <ele>90</ele>
        <time>2023-08-06T14:20:17Z</time>
      </trkpt>
      <trkpt lat="49.94194" lon="3.42362">
        <ele>90.2</ele>
        <time>2023-08-06T14:20:18Z</time>
      </trkpt>
      <trkpt lat="49.94193" lon="3.4236">
        <ele>90.2</ele>
        <time>2023-08-06T14:20:19Z</time>
      </trkpt>
      <trkpt lat="49.94191" lon="3.42358">
        <ele>90.2</ele>
        <time>2023-08-06T14:20:20Z</time>
      </trkpt>
      <trkpt lat="49.94189" lon="3.42355">
        <ele>90.4</ele>
        <time>2023-08-06T14:20:21Z</time>
      </trkpt>
      <trkpt lat="49.94188" lon="3.42353">
        <ele>90.4</ele>
        <time>2023-08-06T14:20:22Z</time>
      </trkpt>
      <trkpt lat="49.94185" lon="3.4235">
        <ele>90.4</ele>
        <time>2023-08-06T14:20:23Z</time>
      </trkpt>
      <trkpt lat="49.94183" lon="3.42348">
        <ele>90.4</ele>
        <time>2023-08-06T14:20:24Z</time>
      </trkpt>
      <trkpt lat="49.94181" lon="3.42345">
        <ele>90.4</ele>
        <time>2023-08-06T14:20:25Z</time>
      </trkpt>
      <trkpt lat="49.9418" lon="3.42343">
        <ele>90.4</ele>
        <time>2023-08-06T14:20:26Z</time>
      </trkpt>
      <trkpt lat="49.94178" lon="3.4234">
        <ele>90.6</ele>
        <time>2023-08-06T14:20:27Z</time>
      </trkpt>
      <trkpt lat="49.94176" lon="3.42337">
        <ele>90.8</ele>
        <time>2023-08-06T14:20:28Z</time>
      </trkpt>
      <trkpt lat="49.94172" lon="3.42332">
        <ele>90.8</ele>
        <time>2023-08-06T14:20:31Z</time>
      </trkpt>
      <trkpt lat="49.9417" lon="3.4233">
        <ele>91</ele>
        <time>2023-08-06T14:20:32Z</time>
      </trkpt>
      <trkpt lat="49.9417" lon="3.42329">
        <ele>91</ele>
        <time>2023-08-06T14:20:33Z</time>
      </trkpt>
      <trkpt lat="49.94169" lon="3.42328">
        <ele>91</ele>
        <time>2023-08-06T14:20:34Z</time>
      </trkpt>
      <trkpt lat="49.94169" lon="3.42327">
        <ele>91</ele>
        <time>2023-08-06T14:20:35Z</time>
      </trkpt>
      <trkpt lat="49.94169" lon="3.42326">
        <ele>91.2</ele>
        <time>2023-08-06T14:20:37Z</time>
      </trkpt>
      <trkpt lat="49.94162" lon="3.42322">
        <ele>92</ele>
        <time>2023-08-06T14:25:25Z</time>
      </trkpt>
      <trkpt lat="49.94153" lon="3.42309">
        <ele>92</ele>
        <time>2023-08-06T14:25:32Z</time>
      </trkpt>
      <trkpt lat="49.94149" lon="3.42304">
        <ele>92</ele>
        <time>2023-08-06T14:25:34Z</time>
      </trkpt>
      <trkpt lat="49.94147" lon="3.42302">
        <ele>92</ele>
        <time>2023-08-06T14:25:35Z</time>
      </trkpt>
      <trkpt lat="49.94138" lon="3.4229">
        <ele>91.8</ele>
        <time>2023-08-06T14:25:39Z</time>
      </trkpt>
      <trkpt lat="49.94115" lon="3.4226">
        <ele>91.6</ele>
        <time>2023-08-06T14:25:49Z</time>
      </trkpt>
      <trkpt lat="49.94092" lon="3.4223">
        <ele>91.4</ele>
        <time>2023-08-06T14:25:58Z</time>
      </trkpt>
      <trkpt lat="49.94071" lon="3.42203">
        <ele>91</ele>
        <time>2023-08-06T14:26:05Z</time>
      </trkpt>
      <trkpt lat="49.94065" lon="3.42194">
        <ele>90.8</ele>
        <time>2023-08-06T14:26:07Z</time>
      </trkpt>
      <trkpt lat="49.94049" lon="3.42173">
        <ele>90.4</ele>
        <time>2023-08-06T14:26:12Z</time>
      </trkpt>
      <trkpt lat="49.94024" lon="3.42138">
        <ele>89.8</ele>
        <time>2023-08-06T14:26:19Z</time>
      </trkpt>
      <trkpt lat="49.94012" lon="3.42122">
        <ele>89.2</ele>
        <time>2023-08-06T14:26:22Z</time>
      </trkpt>
      <trkpt lat="49.93991" lon="3.42092">
        <ele>88.6</ele>
        <time>2023-08-06T14:26:27Z</time>
      </trkpt>
      <trkpt lat="49.93986" lon="3.42085">
        <ele>88.6</ele>
        <time>2023-08-06T14:26:28Z</time>
      </trkpt>
      <trkpt lat="49.93976" lon="3.42072">
        <ele>88.2</ele>
        <time>2023-08-06T14:26:30Z</time>
      </trkpt>
      <trkpt lat="49.93961" lon="3.42051">
        <ele>87.6</ele>
        <time>2023-08-06T14:26:33Z</time>
      </trkpt>
      <trkpt lat="49.93955" lon="3.42044">
        <ele>87.4</ele>
        <time>2023-08-06T14:26:34Z</time>
      </trkpt>
      <trkpt lat="49.93945" lon="3.42028">
        <ele>86.4</ele>
        <time>2023-08-06T14:26:36Z</time>
      </trkpt>
      <trkpt lat="49.93922" lon="3.41994">
        <ele>85</ele>
        <time>2023-08-06T14:26:40Z</time>
      </trkpt>
      <trkpt lat="49.93916" lon="3.41986">
        <ele>85</ele>
        <time>2023-08-06T14:26:41Z</time>
      </trkpt>
      <trkpt lat="49.9391" lon="3.41979">
        <ele>84.6</ele>
        <time>2023-08-06T14:26:42Z</time>
      </trkpt>
      <trkpt lat="49.93899" lon="3.41964">
        <ele>84</ele>
        <time>2023-08-06T14:26:44Z</time>
      </trkpt>
      <trkpt lat="49.93889" lon="3.41949">
        <ele>83.4</ele>
        <time>2023-08-06T14:26:46Z</time>
      </trkpt>
      <trkpt lat="49.93884" lon="3.41942">
        <ele>83.2</ele>
        <time>2023-08-06T14:26:47Z</time>
      </trkpt>
      <trkpt lat="49.93879" lon="3.41935">
        <ele>83</ele>
        <time>2023-08-06T14:26:48Z</time>
      </trkpt>
      <trkpt lat="49.93873" lon="3.41928">
        <ele>82.8</ele>
        <time>2023-08-06T14:26:49Z</time>
      </trkpt>
      <trkpt lat="49.93846" lon="3.41892">
        <ele>81.8</ele>
        <time>2023-08-06T14:26:54Z</time>
      </trkpt>
      <trkpt lat="49.93842" lon="3.41886">
        <ele>81.6</ele>
        <time>2023-08-06T14:26:55Z</time>
      </trkpt>
      <trkpt lat="49.93831" lon="3.41871">
        <ele>80.6</ele>
        <time>2023-08-06T14:26:57Z</time>
      </trkpt>
      <trkpt lat="49.93827" lon="3.41865">
        <ele>80.2</ele>
        <time>2023-08-06T14:26:58Z</time>
      </trkpt>
      <trkpt lat="49.93823" lon="3.41859">
        <ele>79.8</ele>
        <time>2023-08-06T14:26:59Z</time>
      </trkpt>
      <trkpt lat="49.93819" lon="3.41853">
        <ele>79.8</ele>
        <time>2023-08-06T14:27:00Z</time>
      </trkpt>
      <trkpt lat="49.93816" lon="3.41847">
        <ele>79.4</ele>
        <time>2023-08-06T14:27:01Z</time>
      </trkpt>
      <trkpt lat="49.93814" lon="3.41842">
        <ele>79.2</ele>
        <time>2023-08-06T14:27:02Z</time>
      </trkpt>
      <trkpt lat="49.93811" lon="3.41837">
        <ele>79</ele>
        <time>2023-08-06T14:27:03Z</time>
      </trkpt>
      <trkpt lat="49.93808" lon="3.41833">
        <ele>79</ele>
        <time>2023-08-06T14:27:04Z</time>
      </trkpt>
      <trkpt lat="49.93805" lon="3.41829">
        <ele>79</ele>
        <time>2023-08-06T14:27:05Z</time>
      </trkpt>
      <trkpt lat="49.93801" lon="3.41825">
        <ele>79</ele>
        <time>2023-08-06T14:27:06Z</time>
      </trkpt>
      <trkpt lat="49.93778" lon="3.41802">
        <ele>78.6</ele>
        <time>2023-08-06T14:27:11Z</time>
      </trkpt>
      <trkpt lat="49.93773" lon="3.41796">
        <ele>78.2</ele>
        <time>2023-08-06T14:27:12Z</time>
      </trkpt>
      <trkpt lat="49.93747" lon="3.41765">
        <ele>77.8</ele>
        <time>2023-08-06T14:27:17Z</time>
      </trkpt>
      <trkpt lat="49.93731" lon="3.41745">
        <ele>77.2</ele>
        <time>2023-08-06T14:27:20Z</time>
      </trkpt>
      <trkpt lat="49.93712" lon="3.41719">
        <ele>77</ele>
        <time>2023-08-06T14:27:24Z</time>
      </trkpt>
      <trkpt lat="49.93709" lon="3.41713">
        <ele>77</ele>
        <time>2023-08-06T14:27:25Z</time>
      </trkpt>
      <trkpt lat="49.93705" lon="3.41708">
        <ele>77</ele>
        <time>2023-08-06T14:27:26Z</time>
      </trkpt>
      <trkpt lat="49.93702" lon="3.41704">
        <ele>77</ele>
        <time>2023-08-06T14:27:27Z</time>
      </trkpt>
      <trkpt lat="49.93699" lon="3.417">
        <ele>77.2</ele>
        <time>2023-08-06T14:27:28Z</time>
      </trkpt>
      <trkpt lat="49.93696" lon="3.41696">
        <ele>77.2</ele>
        <time>2023-08-06T14:27:29Z</time>
      </trkpt>
      <trkpt lat="49.93694" lon="3.41694">
        <ele>77.4</ele>
        <time>2023-08-06T14:27:30Z</time>
      </trkpt>
      <trkpt lat="49.93692" lon="3.41691">
        <ele>77.6</ele>
        <time>2023-08-06T14:27:31Z</time>
      </trkpt>
      <trkpt lat="49.93689" lon="3.41688">
        <ele>77.6</ele>
        <time>2023-08-06T14:27:32Z</time>
      </trkpt>
      <trkpt lat="49.93687" lon="3.41685">
        <ele>77.8</ele>
        <time>2023-08-06T14:27:33Z</time>
      </trkpt>
      <trkpt lat="49.93683" lon="3.41679">
        <ele>78.2</ele>
        <time>2023-08-06T14:27:35Z</time>
      </trkpt>
      <trkpt lat="49.93678" lon="3.41672">
        <ele>78.6</ele>
        <time>2023-08-06T14:27:37Z</time>
      </trkpt>
      <trkpt lat="49.9366" lon="3.41646">
        <ele>79.4</ele>
        <time>2023-08-06T14:27:44Z</time>
      </trkpt>
      <trkpt lat="49.93658" lon="3.41643">
        <ele>79.4</ele>
        <time>2023-08-06T14:27:45Z</time>
      </trkpt>
      <trkpt lat="49.93634" lon="3.41611">
        <ele>79.8</ele>
        <time>2023-08-06T14:27:53Z</time>
      </trkpt>
      <trkpt lat="49.93601" lon="3.41569">
        <ele>79</ele>
        <time>2023-08-06T14:28:02Z</time>
      </trkpt>
      <trkpt lat="49.93574" lon="3.41535">
        <ele>78.6</ele>
        <time>2023-08-06T14:28:09Z</time>
      </trkpt>
      <trkpt lat="49.93566" lon="3.41525">
        <ele>78.4</ele>
        <time>2023-08-06T14:28:11Z</time>
      </trkpt>
      <trkpt lat="49.93529" lon="3.41478">
        <ele>77.8</ele>
        <time>2023-08-06T14:28:20Z</time>
      </trkpt>
      <trkpt lat="49.93515" lon="3.41461">
        <ele>77.2</ele>
        <time>2023-08-06T14:28:23Z</time>
      </trkpt>
      <trkpt lat="49.93496" lon="3.41437">
        <ele>76.6</ele>
        <time>2023-08-06T14:28:27Z</time>
      </trkpt>
      <trkpt lat="49.93472" lon="3.41408">
        <ele>76.2</ele>
        <time>2023-08-06T14:28:32Z</time>
      </trkpt>
      <trkpt lat="49.93462" lon="3.41396">
        <ele>75.8</ele>
        <time>2023-08-06T14:28:34Z</time>
      </trkpt>
      <trkpt lat="49.93441" lon="3.41372">
        <ele>75</ele>
        <time>2023-08-06T14:28:38Z</time>
      </trkpt>
      <trkpt lat="49.93435" lon="3.41366">
        <ele>75</ele>
        <time>2023-08-06T14:28:39Z</time>
      </trkpt>
      <trkpt lat="49.93429" lon="3.41361">
        <ele>74.8</ele>
        <time>2023-08-06T14:28:40Z</time>
      </trkpt>
      <trkpt lat="49.93423" lon="3.41357">
        <ele>74.6</ele>
        <time>2023-08-06T14:28:41Z</time>
      </trkpt>
      <trkpt lat="49.93408" lon="3.41352">
        <ele>74.2</ele>
        <time>2023-08-06T14:28:43Z</time>
      </trkpt>
      <trkpt lat="49.93401" lon="3.41352">
        <ele>73.8</ele>
        <time>2023-08-06T14:28:44Z</time>
      </trkpt>
      <trkpt lat="49.93386" lon="3.41351">
        <ele>73</ele>
        <time>2023-08-06T14:28:46Z</time>
      </trkpt>
      <trkpt lat="49.93371" lon="3.41343">
        <ele>72.4</ele>
        <time>2023-08-06T14:28:48Z</time>
      </trkpt>
      <trkpt lat="49.93365" lon="3.41337">
        <ele>72.2</ele>
        <time>2023-08-06T14:28:49Z</time>
      </trkpt>
      <trkpt lat="49.93358" lon="3.4133">
        <ele>71.8</ele>
        <time>2023-08-06T14:28:50Z</time>
      </trkpt>
      <trkpt lat="49.93352" lon="3.41321">
        <ele>71.4</ele>
        <time>2023-08-06T14:28:51Z</time>
      </trkpt>
      <trkpt lat="49.93347" lon="3.41313">
        <ele>71</ele>
        <time>2023-08-06T14:28:52Z</time>
      </trkpt>
      <trkpt lat="49.93329" lon="3.41286">
        <ele>70.2</ele>
        <time>2023-08-06T14:28:55Z</time>
      </trkpt>
      <trkpt lat="49.93312" lon="3.41262">
        <ele>69.2</ele>
        <time>2023-08-06T14:28:58Z</time>
      </trkpt>
      <trkpt lat="49.93307" lon="3.41255">
        <ele>68.8</ele>
        <time>2023-08-06T14:28:59Z</time>
      </trkpt>
      <trkpt lat="49.93303" lon="3.4125">
        <ele>68.6</ele>
        <time>2023-08-06T14:29:00Z</time>
      </trkpt>
      <trkpt lat="49.93299" lon="3.41245">
        <ele>68</ele>
        <time>2023-08-06T14:29:01Z</time>
      </trkpt>
      <trkpt lat="49.93293" lon="3.41243">
        <ele>67</ele>
        <time>2023-08-06T14:29:02Z</time>
      </trkpt>
      <trkpt lat="49.93288" lon="3.41243">
        <ele>66.8</ele>
        <time>2023-08-06T14:29:03Z</time>
      </trkpt>
      <trkpt lat="49.93283" lon="3.41244">
        <ele>66.2</ele>
        <time>2023-08-06T14:29:04Z</time>
      </trkpt>
      <trkpt lat="49.93279" lon="3.41247">
        <ele>66.2</ele>
        <time>2023-08-06T14:29:05Z</time>
      </trkpt>
      <trkpt lat="49.93274" lon="3.41249">
        <ele>65.4</ele>
        <time>2023-08-06T14:29:06Z</time>
      </trkpt>
      <trkpt lat="49.9327" lon="3.41252">
        <ele>65</ele>
        <time>2023-08-06T14:29:07Z</time>
      </trkpt>
      <trkpt lat="49.9326" lon="3.41258">
        <ele>64.2</ele>
        <time>2023-08-06T14:29:09Z</time>
      </trkpt>
      <trkpt lat="49.93243" lon="3.41269">
        <ele>63.2</ele>
        <time>2023-08-06T14:29:13Z</time>
      </trkpt>
      <trkpt lat="49.93237" lon="3.41272">
        <ele>63.2</ele>
        <time>2023-08-06T14:29:14Z</time>
      </trkpt>
      <trkpt lat="49.93186" lon="3.41303">
        <ele>62.2</ele>
        <time>2023-08-06T14:29:25Z</time>
      </trkpt>
      <trkpt lat="49.93181" lon="3.41306">
        <ele>62</ele>
        <time>2023-08-06T14:29:26Z</time>
      </trkpt>
      <trkpt lat="49.93147" lon="3.41326">
        <ele>61</ele>
        <time>2023-08-06T14:29:33Z</time>
      </trkpt>
      <trkpt lat="49.93131" lon="3.41335">
        <ele>60.6</ele>
        <time>2023-08-06T14:29:36Z</time>
      </trkpt>
      <trkpt lat="49.93103" lon="3.41352">
        <ele>60.4</ele>
        <time>2023-08-06T14:29:42Z</time>
      </trkpt>
      <trkpt lat="49.93098" lon="3.41355">
        <ele>60.6</ele>
        <time>2023-08-06T14:29:43Z</time>
      </trkpt>
      <trkpt lat="49.93093" lon="3.41358">
        <ele>60.6</ele>
        <time>2023-08-06T14:29:44Z</time>
      </trkpt>
      <trkpt lat="49.93089" lon="3.4136">
        <ele>60.6</ele>
        <time>2023-08-06T14:29:45Z</time>
      </trkpt>
      <trkpt lat="49.93086" lon="3.41362">
        <ele>60.6</ele>
        <time>2023-08-06T14:29:46Z</time>
      </trkpt>
      <trkpt lat="49.93081" lon="3.41365">
        <ele>60.8</ele>
        <time>2023-08-06T14:29:47Z</time>
      </trkpt>
      <trkpt lat="49.93076" lon="3.41368">
        <ele>61</ele>
        <time>2023-08-06T14:29:48Z</time>
      </trkpt>
      <trkpt lat="49.93072" lon="3.4137">
        <ele>61</ele>
        <time>2023-08-06T14:29:49Z</time>
      </trkpt>
      <trkpt lat="49.93048" lon="3.41385">
        <ele>61</ele>
        <time>2023-08-06T14:29:54Z</time>
      </trkpt>
      <trkpt lat="49.93015" lon="3.41406">
        <ele>60.4</ele>
        <time>2023-08-06T14:30:01Z</time>
      </trkpt>
      <trkpt lat="49.93006" lon="3.41411">
        <ele>60.4</ele>
        <time>2023-08-06T14:30:03Z</time>
      </trkpt>
      <trkpt lat="49.92992" lon="3.41419">
        <ele>59.8</ele>
        <time>2023-08-06T14:30:06Z</time>
      </trkpt>
      <trkpt lat="49.92987" lon="3.41422">
        <ele>59.8</ele>
        <time>2023-08-06T14:30:07Z</time>
      </trkpt>
      <trkpt lat="49.92978" lon="3.41428">
        <ele>59.8</ele>
        <time>2023-08-06T14:30:09Z</time>
      </trkpt>
      <trkpt lat="49.92959" lon="3.41439">
        <ele>59.6</ele>
        <time>2023-08-06T14:30:13Z</time>
      </trkpt>
      <trkpt lat="49.92921" lon="3.41462">
        <ele>59</ele>
        <time>2023-08-06T14:30:21Z</time>
      </trkpt>
      <trkpt lat="49.92916" lon="3.41466">
        <ele>59</ele>
        <time>2023-08-06T14:30:22Z</time>
      </trkpt>
      <trkpt lat="49.92904" lon="3.41474">
        <ele>58.8</ele>
        <time>2023-08-06T14:30:25Z</time>
      </trkpt>
      <trkpt lat="49.92899" lon="3.41477">
        <ele>58.6</ele>
        <time>2023-08-06T14:30:26Z</time>
      </trkpt>
      <trkpt lat="49.92895" lon="3.4148">
        <ele>58.6</ele>
        <time>2023-08-06T14:30:27Z</time>
      </trkpt>
      <trkpt lat="49.92891" lon="3.41482">
        <ele>58.4</ele>
        <time>2023-08-06T14:30:28Z</time>
      </trkpt>
      <trkpt lat="49.92887" lon="3.41484">
        <ele>58.4</ele>
        <time>2023-08-06T14:30:29Z</time>
      </trkpt>
      <trkpt lat="49.92882" lon="3.41487">
        <ele>58.4</ele>
        <time>2023-08-06T14:30:30Z</time>
      </trkpt>
      <trkpt lat="49.92859" lon="3.41501">
        <ele>58.4</ele>
        <time>2023-08-06T14:30:35Z</time>
      </trkpt>
      <trkpt lat="49.92824" lon="3.41523">
        <ele>58.2</ele>
        <time>2023-08-06T14:30:43Z</time>
      </trkpt>
      <trkpt lat="49.9282" lon="3.41525">
        <ele>58.2</ele>
        <time>2023-08-06T14:30:44Z</time>
      </trkpt>
      <trkpt lat="49.92816" lon="3.41528">
        <ele>58.2</ele>
        <time>2023-08-06T14:30:45Z</time>
      </trkpt>
      <trkpt lat="49.92812" lon="3.4153">
        <ele>58.2</ele>
        <time>2023-08-06T14:30:46Z</time>
      </trkpt>
      <trkpt lat="49.92809" lon="3.41532">
        <ele>58.2</ele>
        <time>2023-08-06T14:30:47Z</time>
      </trkpt>
      <trkpt lat="49.92806" lon="3.41533">
        <ele>58.2</ele>
        <time>2023-08-06T14:30:48Z</time>
      </trkpt>
      <trkpt lat="49.92803" lon="3.41535">
        <ele>58.4</ele>
        <time>2023-08-06T14:30:49Z</time>
      </trkpt>
      <trkpt lat="49.92799" lon="3.41537">
        <ele>58.4</ele>
        <time>2023-08-06T14:30:50Z</time>
      </trkpt>
      <trkpt lat="49.92796" lon="3.41539">
        <ele>58.6</ele>
        <time>2023-08-06T14:30:51Z</time>
      </trkpt>
      <trkpt lat="49.92794" lon="3.4154">
        <ele>58.6</ele>
        <time>2023-08-06T14:30:52Z</time>
      </trkpt>
      <trkpt lat="49.92792" lon="3.41541">
        <ele>58.8</ele>
        <time>2023-08-06T14:30:53Z</time>
      </trkpt>
      <trkpt lat="49.9279" lon="3.41542">
        <ele>59</ele>
        <time>2023-08-06T14:30:54Z</time>
      </trkpt>
      <trkpt lat="49.92787" lon="3.41543">
        <ele>59</ele>
        <time>2023-08-06T14:30:55Z</time>
      </trkpt>
      <trkpt lat="49.92783" lon="3.41544">
        <ele>59.6</ele>
        <time>2023-08-06T14:30:57Z</time>
      </trkpt>
      <trkpt lat="49.92782" lon="3.41544">
        <ele>59.8</ele>
        <time>2023-08-06T14:30:58Z</time>
      </trkpt>
      <trkpt lat="49.92779" lon="3.41546">
        <ele>59.8</ele>
        <time>2023-08-06T14:30:59Z</time>
      </trkpt>
      <trkpt lat="49.92777" lon="3.41547">
        <ele>60</ele>
        <time>2023-08-06T14:31:00Z</time>
      </trkpt>
      <trkpt lat="49.92776" lon="3.41547">
        <ele>60</ele>
        <time>2023-08-06T14:31:01Z</time>
      </trkpt>
      <trkpt lat="49.92774" lon="3.41548">
        <ele>60.2</ele>
        <time>2023-08-06T14:31:02Z</time>
      </trkpt>
      <trkpt lat="49.92773" lon="3.41548">
        <ele>60.2</ele>
        <time>2023-08-06T14:31:03Z</time>
      </trkpt>
      <trkpt lat="49.92771" lon="3.41549">
        <ele>60.2</ele>
        <time>2023-08-06T14:31:04Z</time>
      </trkpt>
      <trkpt lat="49.92769" lon="3.41549">
        <ele>60.4</ele>
        <time>2023-08-06T14:31:05Z</time>
      </trkpt>
      <trkpt lat="49.92767" lon="3.41549">
        <ele>60.6</ele>
        <time>2023-08-06T14:31:06Z</time>
      </trkpt>
      <trkpt lat="49.92766" lon="3.4155">
        <ele>60.6</ele>
        <time>2023-08-06T14:31:07Z</time>
      </trkpt>
      <trkpt lat="49.92765" lon="3.4155">
        <ele>60.6</ele>
        <time>2023-08-06T14:31:08Z</time>
      </trkpt>
      <trkpt lat="49.92763" lon="3.41551">
        <ele>60.8</ele>
        <time>2023-08-06T14:31:09Z</time>
      </trkpt>
      <trkpt lat="49.92762" lon="3.41551">
        <ele>61</ele>
        <time>2023-08-06T14:31:10Z</time>
      </trkpt>
      <trkpt lat="49.9276" lon="3.41552">
        <ele>61.2</ele>
        <time>2023-08-06T14:31:11Z</time>
      </trkpt>
      <trkpt lat="49.92759" lon="3.41552">
        <ele>61.4</ele>
        <time>2023-08-06T14:31:12Z</time>
      </trkpt>
      <trkpt lat="49.92757" lon="3.41553">
        <ele>61.6</ele>
        <time>2023-08-06T14:31:13Z</time>
      </trkpt>
      <trkpt lat="49.92755" lon="3.41554">
        <ele>61.6</ele>
        <time>2023-08-06T14:31:14Z</time>
      </trkpt>
      <trkpt lat="49.92754" lon="3.41555">
        <ele>61.8</ele>
        <time>2023-08-06T14:31:15Z</time>
      </trkpt>
      <trkpt lat="49.92752" lon="3.41555">
        <ele>62</ele>
        <time>2023-08-06T14:31:16Z</time>
      </trkpt>
      <trkpt lat="49.92751" lon="3.41556">
        <ele>62.4</ele>
        <time>2023-08-06T14:31:17Z</time>
      </trkpt>
      <trkpt lat="49.9275" lon="3.41556">
        <ele>62.6</ele>
        <time>2023-08-06T14:31:18Z</time>
      </trkpt>
      <trkpt lat="49.92748" lon="3.41557">
        <ele>63</ele>
        <time>2023-08-06T14:31:19Z</time>
      </trkpt>
      <trkpt lat="49.92747" lon="3.41557">
        <ele>63</ele>
        <time>2023-08-06T14:31:20Z</time>
      </trkpt>
      <trkpt lat="49.92746" lon="3.41558">
        <ele>63.4</ele>
        <time>2023-08-06T14:31:21Z</time>
      </trkpt>
      <trkpt lat="49.92744" lon="3.41558">
        <ele>63.6</ele>
        <time>2023-08-06T14:31:22Z</time>
      </trkpt>
      <trkpt lat="49.92743" lon="3.41558">
        <ele>63.8</ele>
        <time>2023-08-06T14:31:23Z</time>
      </trkpt>
      <trkpt lat="49.92741" lon="3.41559">
        <ele>63.8</ele>
        <time>2023-08-06T14:31:24Z</time>
      </trkpt>
      <trkpt lat="49.9274" lon="3.41559">
        <ele>64</ele>
        <time>2023-08-06T14:31:25Z</time>
      </trkpt>
      <trkpt lat="49.92738" lon="3.4156">
        <ele>64</ele>
        <time>2023-08-06T14:31:26Z</time>
      </trkpt>
      <trkpt lat="49.92737" lon="3.4156">
        <ele>64.2</ele>
        <time>2023-08-06T14:31:27Z</time>
      </trkpt>
      <trkpt lat="49.92736" lon="3.41561">
        <ele>64.4</ele>
        <time>2023-08-06T14:31:28Z</time>
      </trkpt>
      <trkpt lat="49.92734" lon="3.41561">
        <ele>64.8</ele>
        <time>2023-08-06T14:31:29Z</time>
      </trkpt>
      <trkpt lat="49.92733" lon="3.41562">
        <ele>65</ele>
        <time>2023-08-06T14:31:30Z</time>
      </trkpt>
      <trkpt lat="49.92731" lon="3.41562">
        <ele>65.2</ele>
        <time>2023-08-06T14:31:31Z</time>
      </trkpt>
      <trkpt lat="49.9273" lon="3.41563">
        <ele>65.2</ele>
        <time>2023-08-06T14:31:32Z</time>
      </trkpt>
      <trkpt lat="49.92729" lon="3.41563">
        <ele>65.4</ele>
        <time>2023-08-06T14:31:33Z</time>
      </trkpt>
      <trkpt lat="49.92727" lon="3.41564">
        <ele>65.6</ele>
        <time>2023-08-06T14:31:34Z</time>
      </trkpt>
      <trkpt lat="49.92726" lon="3.41564">
        <ele>65.6</ele>
        <time>2023-08-06T14:31:35Z</time>
      </trkpt>
      <trkpt lat="49.92724" lon="3.41565">
        <ele>65.8</ele>
        <time>2023-08-06T14:31:36Z</time>
      </trkpt>
      <trkpt lat="49.92722" lon="3.41566">
        <ele>65.8</ele>
        <time>2023-08-06T14:31:37Z</time>
      </trkpt>
      <trkpt lat="49.9272" lon="3.41566">
        <ele>65.8</ele>
        <time>2023-08-06T14:31:38Z</time>
      </trkpt>
      <trkpt lat="49.92719" lon="3.41567">
        <ele>66</ele>
        <time>2023-08-06T14:31:39Z</time>
      </trkpt>
      <trkpt lat="49.92717" lon="3.41568">
        <ele>66</ele>
        <time>2023-08-06T14:31:40Z</time>
      </trkpt>
      <trkpt lat="49.92715" lon="3.41569">
        <ele>66.2</ele>
        <time>2023-08-06T14:31:41Z</time>
      </trkpt>
      <trkpt lat="49.92713" lon="3.4157">
        <ele>66.2</ele>
        <time>2023-08-06T14:31:42Z</time>
      </trkpt>
      <trkpt lat="49.92711" lon="3.41571">
        <ele>66.4</ele>
        <time>2023-08-06T14:31:43Z</time>
      </trkpt>
      <trkpt lat="49.9271" lon="3.41572">
        <ele>66.6</ele>
        <time>2023-08-06T14:31:44Z</time>
      </trkpt>
      <trkpt lat="49.92709" lon="3.41573">
        <ele>66.6</ele>
        <time>2023-08-06T14:31:45Z</time>
      </trkpt>
      <trkpt lat="49.92706" lon="3.41575">
        <ele>66.8</ele>
        <time>2023-08-06T14:31:46Z</time>
      </trkpt>
      <trkpt lat="49.92705" lon="3.41576">
        <ele>66.8</ele>
        <time>2023-08-06T14:31:47Z</time>
      </trkpt>
      <trkpt lat="49.92703" lon="3.41577">
        <ele>67</ele>
        <time>2023-08-06T14:31:48Z</time>
      </trkpt>
      <trkpt lat="49.92702" lon="3.41577">
        <ele>67.2</ele>
        <time>2023-08-06T14:31:50Z</time>
      </trkpt>
      <trkpt lat="49.927" lon="3.41578">
        <ele>67.4</ele>
        <time>2023-08-06T14:31:51Z</time>
      </trkpt>
      <trkpt lat="49.92698" lon="3.41579">
        <ele>67.4</ele>
        <time>2023-08-06T14:31:52Z</time>
      </trkpt>
      <trkpt lat="49.92696" lon="3.41581">
        <ele>67.6</ele>
        <time>2023-08-06T14:31:53Z</time>
      </trkpt>
      <trkpt lat="49.92694" lon="3.41582">
        <ele>67.6</ele>
        <time>2023-08-06T14:31:54Z</time>
      </trkpt>
      <trkpt lat="49.92692" lon="3.41584">
        <ele>67.6</ele>
        <time>2023-08-06T14:31:55Z</time>
      </trkpt>
      <trkpt lat="49.92689" lon="3.41585">
        <ele>67.6</ele>
        <time>2023-08-06T14:31:56Z</time>
      </trkpt>
      <trkpt lat="49.92687" lon="3.41587">
        <ele>67.6</ele>
        <time>2023-08-06T14:31:57Z</time>
      </trkpt>
      <trkpt lat="49.92685" lon="3.41588">
        <ele>67.8</ele>
        <time>2023-08-06T14:31:58Z</time>
      </trkpt>
      <trkpt lat="49.92682" lon="3.41591">
        <ele>67.8</ele>
        <time>2023-08-06T14:31:59Z</time>
      </trkpt>
      <trkpt lat="49.9268" lon="3.41592">
        <ele>67.8</ele>
        <time>2023-08-06T14:32:00Z</time>
      </trkpt>
      <trkpt lat="49.92677" lon="3.41594">
        <ele>67.8</ele>
        <time>2023-08-06T14:32:01Z</time>
      </trkpt>
      <trkpt lat="49.92675" lon="3.41595">
        <ele>67.8</ele>
        <time>2023-08-06T14:32:02Z</time>
      </trkpt>
      <trkpt lat="49.92672" lon="3.41598">
        <ele>68</ele>
        <time>2023-08-06T14:32:03Z</time>
      </trkpt>
      <trkpt lat="49.9267" lon="3.41599">
        <ele>68</ele>
        <time>2023-08-06T14:32:04Z</time>
      </trkpt>
      <trkpt lat="49.92667" lon="3.41602">
        <ele>68</ele>
        <time>2023-08-06T14:32:05Z</time>
      </trkpt>
      <trkpt lat="49.9266" lon="3.41607">
        <ele>68.4</ele>
        <time>2023-08-06T14:32:08Z</time>
      </trkpt>
      <trkpt lat="49.92654" lon="3.4161">
        <ele>68.6</ele>
        <time>2023-08-06T14:32:10Z</time>
      </trkpt>
      <trkpt lat="49.92634" lon="3.41623">
        <ele>69.4</ele>
        <time>2023-08-06T14:32:17Z</time>
      </trkpt>
      <trkpt lat="49.92631" lon="3.41625">
        <ele>69.6</ele>
        <time>2023-08-06T14:32:18Z</time>
      </trkpt>
      <trkpt lat="49.92599" lon="3.4165">
        <ele>70.2</ele>
        <time>2023-08-06T14:32:29Z</time>
      </trkpt>
      <trkpt lat="49.92587" lon="3.41661">
        <ele>70.4</ele>
        <time>2023-08-06T14:32:33Z</time>
      </trkpt>
      <trkpt lat="49.92574" lon="3.41671">
        <ele>70.6</ele>
        <time>2023-08-06T14:32:37Z</time>
      </trkpt>
      <trkpt lat="49.92565" lon="3.41679">
        <ele>70.6</ele>
        <time>2023-08-06T14:32:40Z</time>
      </trkpt>
      <trkpt lat="49.92547" lon="3.41698">
        <ele>70.8</ele>
        <time>2023-08-06T14:32:46Z</time>
      </trkpt>
      <trkpt lat="49.92516" lon="3.41729">
        <ele>70.8</ele>
        <time>2023-08-06T14:32:55Z</time>
      </trkpt>
      <trkpt lat="49.92487" lon="3.41756">
        <ele>70.8</ele>
        <time>2023-08-06T14:33:01Z</time>
      </trkpt>
      <trkpt lat="49.92452" lon="3.4179">
        <ele>69.6</ele>
        <time>2023-08-06T14:33:06Z</time>
      </trkpt>
      <trkpt lat="49.92444" lon="3.41797">
        <ele>69.2</ele>
        <time>2023-08-06T14:33:07Z</time>
      </trkpt>
      <trkpt lat="49.92409" lon="3.41831">
        <ele>67.4</ele>
        <time>2023-08-06T14:33:11Z</time>
      </trkpt>
      <trkpt lat="49.9238" lon="3.41861">
        <ele>65.8</ele>
        <time>2023-08-06T14:33:14Z</time>
      </trkpt>
      <trkpt lat="49.92363" lon="3.41876">
        <ele>64.2</ele>
        <time>2023-08-06T14:33:16Z</time>
      </trkpt>
      <trkpt lat="49.92354" lon="3.41885">
        <ele>63.6</ele>
        <time>2023-08-06T14:33:17Z</time>
      </trkpt>
      <trkpt lat="49.92345" lon="3.41894">
        <ele>62.6</ele>
        <time>2023-08-06T14:33:18Z</time>
      </trkpt>
      <trkpt lat="49.92336" lon="3.41903">
        <ele>61.4</ele>
        <time>2023-08-06T14:33:19Z</time>
      </trkpt>
      <trkpt lat="49.92311" lon="3.41931">
        <ele>60.2</ele>
        <time>2023-08-06T14:33:22Z</time>
      </trkpt>
      <trkpt lat="49.92303" lon="3.4194">
        <ele>59.8</ele>
        <time>2023-08-06T14:33:23Z</time>
      </trkpt>
      <trkpt lat="49.92294" lon="3.41947">
        <ele>59.6</ele>
        <time>2023-08-06T14:33:24Z</time>
      </trkpt>
      <trkpt lat="49.92286" lon="3.41953">
        <ele>59.2</ele>
        <time>2023-08-06T14:33:25Z</time>
      </trkpt>
      <trkpt lat="49.92278" lon="3.41958">
        <ele>59</ele>
        <time>2023-08-06T14:33:26Z</time>
      </trkpt>
      <trkpt lat="49.92269" lon="3.41964">
        <ele>58.8</ele>
        <time>2023-08-06T14:33:27Z</time>
      </trkpt>
      <trkpt lat="49.92263" lon="3.41968">
        <ele>58.8</ele>
        <time>2023-08-06T14:33:28Z</time>
      </trkpt>
      <trkpt lat="49.92256" lon="3.41972">
        <ele>58.8</ele>
        <time>2023-08-06T14:33:29Z</time>
      </trkpt>
      <trkpt lat="49.92249" lon="3.41976">
        <ele>58.6</ele>
        <time>2023-08-06T14:33:30Z</time>
      </trkpt>
      <trkpt lat="49.92243" lon="3.41979">
        <ele>58.6</ele>
        <time>2023-08-06T14:33:31Z</time>
      </trkpt>
      <trkpt lat="49.92236" lon="3.41983">
        <ele>58.6</ele>
        <time>2023-08-06T14:33:32Z</time>
      </trkpt>
      <trkpt lat="49.92229" lon="3.41986">
        <ele>58.6</ele>
        <time>2023-08-06T14:33:33Z</time>
      </trkpt>
      <trkpt lat="49.92224" lon="3.41988">
        <ele>59</ele>
        <time>2023-08-06T14:33:34Z</time>
      </trkpt>
      <trkpt lat="49.92219" lon="3.41991">
        <ele>59</ele>
        <time>2023-08-06T14:33:35Z</time>
      </trkpt>
      <trkpt lat="49.92213" lon="3.41993">
        <ele>59</ele>
        <time>2023-08-06T14:33:36Z</time>
      </trkpt>
      <trkpt lat="49.92208" lon="3.41995">
        <ele>59.2</ele>
        <time>2023-08-06T14:33:37Z</time>
      </trkpt>
      <trkpt lat="49.92202" lon="3.41997">
        <ele>59.2</ele>
        <time>2023-08-06T14:33:38Z</time>
      </trkpt>
      <trkpt lat="49.92202" lon="3.41997">
        <ele>59.6</ele>
        <time>2023-08-06T14:33:39Z</time>
      </trkpt>
      <trkpt lat="49.92186" lon="3.42002">
        <ele>59.6</ele>
        <time>2023-08-06T14:33:41Z</time>
      </trkpt>
      <trkpt lat="49.92181" lon="3.42003">
        <ele>59.8</ele>
        <time>2023-08-06T14:33:42Z</time>
      </trkpt>
      <trkpt lat="49.92176" lon="3.42005">
        <ele>59.8</ele>
        <time>2023-08-06T14:33:43Z</time>
      </trkpt>
      <trkpt lat="49.9217" lon="3.42006">
        <ele>60</ele>
        <time>2023-08-06T14:33:44Z</time>
      </trkpt>
      <trkpt lat="49.92165" lon="3.42008">
        <ele>60</ele>
        <time>2023-08-06T14:33:45Z</time>
      </trkpt>
      <trkpt lat="49.9216" lon="3.42009">
        <ele>60</ele>
        <time>2023-08-06T14:33:46Z</time>
      </trkpt>
      <trkpt lat="49.92155" lon="3.42011">
        <ele>60</ele>
        <time>2023-08-06T14:33:47Z</time>
      </trkpt>
      <trkpt lat="49.92151" lon="3.42013">
        <ele>60.2</ele>
        <time>2023-08-06T14:33:48Z</time>
      </trkpt>
      <trkpt lat="49.92146" lon="3.42014">
        <ele>60.2</ele>
        <time>2023-08-06T14:33:49Z</time>
      </trkpt>
      <trkpt lat="49.92141" lon="3.42016">
        <ele>60.2</ele>
        <time>2023-08-06T14:33:50Z</time>
      </trkpt>
      <trkpt lat="49.92135" lon="3.42018">
        <ele>60.2</ele>
        <time>2023-08-06T14:33:51Z</time>
      </trkpt>
      <trkpt lat="49.9213" lon="3.4202">
        <ele>60.2</ele>
        <time>2023-08-06T14:33:52Z</time>
      </trkpt>
      <trkpt lat="49.92126" lon="3.42021">
        <ele>60.2</ele>
        <time>2023-08-06T14:33:53Z</time>
      </trkpt>
      <trkpt lat="49.92095" lon="3.42031">
        <ele>60.8</ele>
        <time>2023-08-06T14:33:59Z</time>
      </trkpt>
      <trkpt lat="49.92046" lon="3.42046">
        <ele>61</ele>
        <time>2023-08-06T14:34:08Z</time>
      </trkpt>
      <trkpt lat="49.92005" lon="3.42061">
        <ele>60.2</ele>
        <time>2023-08-06T14:34:15Z</time>
      </trkpt>
      <trkpt lat="49.91968" lon="3.42083">
        <ele>60</ele>
        <time>2023-08-06T14:34:22Z</time>
      </trkpt>
      <trkpt lat="49.91963" lon="3.42086">
        <ele>59.8</ele>
        <time>2023-08-06T14:34:23Z</time>
      </trkpt>
      <trkpt lat="49.91958" lon="3.42088">
        <ele>59.8</ele>
        <time>2023-08-06T14:34:24Z</time>
      </trkpt>
      <trkpt lat="49.91953" lon="3.42091">
        <ele>59.6</ele>
        <time>2023-08-06T14:34:25Z</time>
      </trkpt>
      <trkpt lat="49.91948" lon="3.42093">
        <ele>59.6</ele>
        <time>2023-08-06T14:34:26Z</time>
      </trkpt>
      <trkpt lat="49.91943" lon="3.42095">
        <ele>59.6</ele>
        <time>2023-08-06T14:34:27Z</time>
      </trkpt>
      <trkpt lat="49.91938" lon="3.42097">
        <ele>59.6</ele>
        <time>2023-08-06T14:34:28Z</time>
      </trkpt>
      <trkpt lat="49.91933" lon="3.42099">
        <ele>59.4</ele>
        <time>2023-08-06T14:34:29Z</time>
      </trkpt>
      <trkpt lat="49.91929" lon="3.42101">
        <ele>59.4</ele>
        <time>2023-08-06T14:34:30Z</time>
      </trkpt>
      <trkpt lat="49.91924" lon="3.42103">
        <ele>59.4</ele>
        <time>2023-08-06T14:34:31Z</time>
      </trkpt>
      <trkpt lat="49.9192" lon="3.42105">
        <ele>59.2</ele>
        <time>2023-08-06T14:34:32Z</time>
      </trkpt>
      <trkpt lat="49.91915" lon="3.42107">
        <ele>59.2</ele>
        <time>2023-08-06T14:34:33Z</time>
      </trkpt>
      <trkpt lat="49.91911" lon="3.42109">
        <ele>59</ele>
        <time>2023-08-06T14:34:34Z</time>
      </trkpt>
      <trkpt lat="49.91907" lon="3.4211">
        <ele>59</ele>
        <time>2023-08-06T14:34:35Z</time>
      </trkpt>
      <trkpt lat="49.91903" lon="3.42112">
        <ele>59</ele>
        <time>2023-08-06T14:34:36Z</time>
      </trkpt>
      <trkpt lat="49.91903" lon="3.42112">
        <ele>59</ele>
        <time>2023-08-06T14:34:37Z</time>
      </trkpt>
      <trkpt lat="49.91894" lon="3.42113">
        <ele>59</ele>
        <time>2023-08-06T14:34:38Z</time>
      </trkpt>
      <trkpt lat="49.9189" lon="3.42113">
        <ele>59</ele>
        <time>2023-08-06T14:34:39Z</time>
      </trkpt>
      <trkpt lat="49.91885" lon="3.42113">
        <ele>59</ele>
        <time>2023-08-06T14:34:40Z</time>
      </trkpt>
      <trkpt lat="49.91876" lon="3.42108">
        <ele>59</ele>
        <time>2023-08-06T14:34:42Z</time>
      </trkpt>
      <trkpt lat="49.91854" lon="3.42095">
        <ele>58.6</ele>
        <time>2023-08-06T14:34:47Z</time>
      </trkpt>
      <trkpt lat="49.91851" lon="3.42093">
        <ele>58.6</ele>
        <time>2023-08-06T14:34:48Z</time>
      </trkpt>
      <trkpt lat="49.91848" lon="3.42091">
        <ele>58.4</ele>
        <time>2023-08-06T14:34:49Z</time>
      </trkpt>
      <trkpt lat="49.91848" lon="3.42091">
        <ele>58.2</ele>
        <time>2023-08-06T14:34:50Z</time>
      </trkpt>
      <trkpt lat="49.91844" lon="3.42087">
        <ele>58.2</ele>
        <time>2023-08-06T14:34:51Z</time>
      </trkpt>
      <trkpt lat="49.91842" lon="3.42084">
        <ele>58.2</ele>
        <time>2023-08-06T14:34:52Z</time>
      </trkpt>
      <trkpt lat="49.9184" lon="3.42083">
        <ele>58</ele>
        <time>2023-08-06T14:34:53Z</time>
      </trkpt>
      <trkpt lat="49.91838" lon="3.4208">
        <ele>58</ele>
        <time>2023-08-06T14:34:54Z</time>
      </trkpt>
      <trkpt lat="49.91836" lon="3.42078">
        <ele>58</ele>
        <time>2023-08-06T14:34:55Z</time>
      </trkpt>
      <trkpt lat="49.91817" lon="3.42058">
        <ele>57.8</ele>
        <time>2023-08-06T14:35:01Z</time>
      </trkpt>
      <trkpt lat="49.91814" lon="3.42054">
        <ele>57.6</ele>
        <time>2023-08-06T14:35:03Z</time>
      </trkpt>
      <trkpt lat="49.91791" lon="3.4203">
        <ele>57.4</ele>
        <time>2023-08-06T14:35:10Z</time>
      </trkpt>
      <trkpt lat="49.91785" lon="3.42024">
        <ele>57.4</ele>
        <time>2023-08-06T14:35:11Z</time>
      </trkpt>
      <trkpt lat="49.91783" lon="3.4202">
        <ele>57.4</ele>
        <time>2023-08-06T14:35:12Z</time>
      </trkpt>
      <trkpt lat="49.9178" lon="3.42017">
        <ele>57.4</ele>
        <time>2023-08-06T14:35:13Z</time>
      </trkpt>
      <trkpt lat="49.91777" lon="3.42014">
        <ele>57.4</ele>
        <time>2023-08-06T14:35:14Z</time>
      </trkpt>
      <trkpt lat="49.91774" lon="3.42011">
        <ele>57.4</ele>
        <time>2023-08-06T14:35:15Z</time>
      </trkpt>
      <trkpt lat="49.91772" lon="3.42008">
        <ele>57.4</ele>
        <time>2023-08-06T14:35:16Z</time>
      </trkpt>
      <trkpt lat="49.91769" lon="3.42004">
        <ele>57.4</ele>
        <time>2023-08-06T14:35:17Z</time>
      </trkpt>
      <trkpt lat="49.91766" lon="3.42001">
        <ele>57.4</ele>
        <time>2023-08-06T14:35:18Z</time>
      </trkpt>
      <trkpt lat="49.91763" lon="3.41998">
        <ele>57.4</ele>
        <time>2023-08-06T14:35:19Z</time>
      </trkpt>
      <trkpt lat="49.91761" lon="3.41995">
        <ele>57.4</ele>
        <time>2023-08-06T14:35:20Z</time>
      </trkpt>
      <trkpt lat="49.91758" lon="3.41992">
        <ele>57.4</ele>
        <time>2023-08-06T14:35:21Z</time>
      </trkpt>
      <trkpt lat="49.91755" lon="3.41989">
        <ele>57.4</ele>
        <time>2023-08-06T14:35:22Z</time>
      </trkpt>
      <trkpt lat="49.91752" lon="3.41987">
        <ele>57.4</ele>
        <time>2023-08-06T14:35:23Z</time>
      </trkpt>
      <trkpt lat="49.91749" lon="3.41984">
        <ele>57.2</ele>
        <time>2023-08-06T14:35:24Z</time>
      </trkpt>
      <trkpt lat="49.91746" lon="3.41982">
        <ele>57.2</ele>
        <time>2023-08-06T14:35:25Z</time>
      </trkpt>
      <trkpt lat="49.91743" lon="3.4198">
        <ele>57</ele>
        <time>2023-08-06T14:35:26Z</time>
      </trkpt>
      <trkpt lat="49.9174" lon="3.41978">
        <ele>57</ele>
        <time>2023-08-06T14:35:27Z</time>
      </trkpt>
      <trkpt lat="49.91737" lon="3.41976">
        <ele>56.8</ele>
        <time>2023-08-06T14:35:28Z</time>
      </trkpt>
      <trkpt lat="49.91735" lon="3.41974">
        <ele>56.8</ele>
        <time>2023-08-06T14:35:29Z</time>
      </trkpt>
      <trkpt lat="49.91724" lon="3.41965">
        <ele>56.6</ele>
        <time>2023-08-06T14:35:33Z</time>
      </trkpt>
      <trkpt lat="49.91721" lon="3.41962">
        <ele>56.6</ele>
        <time>2023-08-06T14:35:34Z</time>
      </trkpt>
      <trkpt lat="49.9172" lon="3.41957">
        <ele>56.6</ele>
        <time>2023-08-06T14:35:35Z</time>
      </trkpt>
      <trkpt lat="49.91718" lon="3.41954">
        <ele>56.4</ele>
        <time>2023-08-06T14:35:36Z</time>
      </trkpt>
      <trkpt lat="49.91715" lon="3.4195">
        <ele>56.4</ele>
        <time>2023-08-06T14:35:37Z</time>
      </trkpt>
      <trkpt lat="49.91713" lon="3.41946">
        <ele>56.4</ele>
        <time>2023-08-06T14:35:38Z</time>
      </trkpt>
      <trkpt lat="49.91699" lon="3.41922">
        <ele>56.4</ele>
        <time>2023-08-06T14:35:43Z</time>
      </trkpt>
      <trkpt lat="49.91699" lon="3.41922">
        <ele>56.2</ele>
        <time>2023-08-06T14:35:44Z</time>
      </trkpt>
      <trkpt lat="49.91694" lon="3.41914">
        <ele>56.2</ele>
        <time>2023-08-06T14:35:45Z</time>
      </trkpt>
      <trkpt lat="49.9168" lon="3.41895">
        <ele>56</ele>
        <time>2023-08-06T14:35:50Z</time>
      </trkpt>
      <trkpt lat="49.9168" lon="3.41895">
        <ele>56</ele>
        <time>2023-08-06T14:35:51Z</time>
      </trkpt>
      <trkpt lat="49.91675" lon="3.41887">
        <ele>56</ele>
        <time>2023-08-06T14:35:52Z</time>
      </trkpt>
      <trkpt lat="49.91672" lon="3.41883">
        <ele>55.8</ele>
        <time>2023-08-06T14:35:53Z</time>
      </trkpt>
      <trkpt lat="49.91669" lon="3.4188">
        <ele>55.6</ele>
        <time>2023-08-06T14:35:54Z</time>
      </trkpt>
      <trkpt lat="49.91664" lon="3.41873">
        <ele>55.4</ele>
        <time>2023-08-06T14:35:56Z</time>
      </trkpt>
      <trkpt lat="49.91661" lon="3.4187">
        <ele>55.4</ele>
        <time>2023-08-06T14:35:57Z</time>
      </trkpt>
      <trkpt lat="49.91655" lon="3.41864">
        <ele>55.2</ele>
        <time>2023-08-06T14:35:59Z</time>
      </trkpt>
      <trkpt lat="49.91652" lon="3.41861">
        <ele>55.2</ele>
        <time>2023-08-06T14:36:00Z</time>
      </trkpt>
      <trkpt lat="49.91646" lon="3.41854">
        <ele>55.2</ele>
        <time>2023-08-06T14:36:02Z</time>
      </trkpt>
      <trkpt lat="49.91638" lon="3.41844">
        <ele>55.2</ele>
        <time>2023-08-06T14:36:05Z</time>
      </trkpt>
      <trkpt lat="49.9161" lon="3.41814">
        <ele>56</ele>
        <time>2023-08-06T14:36:15Z</time>
      </trkpt>
      <trkpt lat="49.91608" lon="3.41811">
        <ele>56</ele>
        <time>2023-08-06T14:36:16Z</time>
      </trkpt>
      <trkpt lat="49.91603" lon="3.41805">
        <ele>56.2</ele>
        <time>2023-08-06T14:36:18Z</time>
      </trkpt>
      <trkpt lat="49.91601" lon="3.41802">
        <ele>56.2</ele>
        <time>2023-08-06T14:36:19Z</time>
      </trkpt>
      <trkpt lat="49.91596" lon="3.41796">
        <ele>56.2</ele>
        <time>2023-08-06T14:36:21Z</time>
      </trkpt>
      <trkpt lat="49.91593" lon="3.41793">
        <ele>56.2</ele>
        <time>2023-08-06T14:36:22Z</time>
      </trkpt>
      <trkpt lat="49.91591" lon="3.41791">
        <ele>56.6</ele>
        <time>2023-08-06T14:36:23Z</time>
      </trkpt>
      <trkpt lat="49.91588" lon="3.41788">
        <ele>56.8</ele>
        <time>2023-08-06T14:36:24Z</time>
      </trkpt>
      <trkpt lat="49.91586" lon="3.41786">
        <ele>56.8</ele>
        <time>2023-08-06T14:36:25Z</time>
      </trkpt>
      <trkpt lat="49.91583" lon="3.41783">
        <ele>56.8</ele>
        <time>2023-08-06T14:36:26Z</time>
      </trkpt>
      <trkpt lat="49.91581" lon="3.4178">
        <ele>56.8</ele>
        <time>2023-08-06T14:36:27Z</time>
      </trkpt>
      <trkpt lat="49.91578" lon="3.41778">
        <ele>56.8</ele>
        <time>2023-08-06T14:36:28Z</time>
      </trkpt>
      <trkpt lat="49.91577" lon="3.41776">
        <ele>56.8</ele>
        <time>2023-08-06T14:36:29Z</time>
      </trkpt>
      <trkpt lat="49.91574" lon="3.41774">
        <ele>56.8</ele>
        <time>2023-08-06T14:36:30Z</time>
      </trkpt>
      <trkpt lat="49.91572" lon="3.41772">
        <ele>56.8</ele>
        <time>2023-08-06T14:36:31Z</time>
      </trkpt>
      <trkpt lat="49.91569" lon="3.41769">
        <ele>57</ele>
        <time>2023-08-06T14:36:32Z</time>
      </trkpt>
      <trkpt lat="49.91544" lon="3.41742">
        <ele>57</ele>
        <time>2023-08-06T14:36:42Z</time>
      </trkpt>
      <trkpt lat="49.91541" lon="3.41739">
        <ele>57</ele>
        <time>2023-08-06T14:36:43Z</time>
      </trkpt>
      <trkpt lat="49.91519" lon="3.41716">
        <ele>58</ele>
        <time>2023-08-06T14:36:51Z</time>
      </trkpt>
      <trkpt lat="49.91517" lon="3.41713">
        <ele>58.2</ele>
        <time>2023-08-06T14:36:52Z</time>
      </trkpt>
      <trkpt lat="49.91498" lon="3.41692">
        <ele>58.8</ele>
        <time>2023-08-06T14:37:00Z</time>
      </trkpt>
      <trkpt lat="49.91494" lon="3.41689">
        <ele>59</ele>
        <time>2023-08-06T14:37:02Z</time>
      </trkpt>
      <trkpt lat="49.91492" lon="3.41687">
        <ele>59</ele>
        <time>2023-08-06T14:37:03Z</time>
      </trkpt>
      <trkpt lat="49.9149" lon="3.41685">
        <ele>59.2</ele>
        <time>2023-08-06T14:37:04Z</time>
      </trkpt>
      <trkpt lat="49.91488" lon="3.41682">
        <ele>59.2</ele>
        <time>2023-08-06T14:37:05Z</time>
      </trkpt>
      <trkpt lat="49.91486" lon="3.4168">
        <ele>59.4</ele>
        <time>2023-08-06T14:37:06Z</time>
      </trkpt>
      <trkpt lat="49.91484" lon="3.41677">
        <ele>59.4</ele>
        <time>2023-08-06T14:37:07Z</time>
      </trkpt>
      <trkpt lat="49.91482" lon="3.41675">
        <ele>59.6</ele>
        <time>2023-08-06T14:37:08Z</time>
      </trkpt>
      <trkpt lat="49.91481" lon="3.41673">
        <ele>59.4</ele>
        <time>2023-08-06T14:37:09Z</time>
      </trkpt>
      <trkpt lat="49.91478" lon="3.4167">
        <ele>59.6</ele>
        <time>2023-08-06T14:37:10Z</time>
      </trkpt>
      <trkpt lat="49.91477" lon="3.41668">
        <ele>59.8</ele>
        <time>2023-08-06T14:37:11Z</time>
      </trkpt>
      <trkpt lat="49.91475" lon="3.41666">
        <ele>60</ele>
        <time>2023-08-06T14:37:12Z</time>
      </trkpt>
      <trkpt lat="49.91473" lon="3.41664">
        <ele>60</ele>
        <time>2023-08-06T14:37:13Z</time>
      </trkpt>
      <trkpt lat="49.91471" lon="3.41662">
        <ele>60.2</ele>
        <time>2023-08-06T14:37:14Z</time>
      </trkpt>
      <trkpt lat="49.9147" lon="3.41661">
        <ele>60.4</ele>
        <time>2023-08-06T14:37:15Z</time>
      </trkpt>
      <trkpt lat="49.91469" lon="3.41659">
        <ele>60.4</ele>
        <time>2023-08-06T14:37:16Z</time>
      </trkpt>
      <trkpt lat="49.91468" lon="3.41657">
        <ele>60.6</ele>
        <time>2023-08-06T14:37:17Z</time>
      </trkpt>
      <trkpt lat="49.91466" lon="3.41655">
        <ele>61</ele>
        <time>2023-08-06T14:37:18Z</time>
      </trkpt>
      <trkpt lat="49.91465" lon="3.41653">
        <ele>61</ele>
        <time>2023-08-06T14:37:19Z</time>
      </trkpt>
      <trkpt lat="49.91463" lon="3.4165">
        <ele>61.2</ele>
        <time>2023-08-06T14:37:20Z</time>
      </trkpt>
      <trkpt lat="49.91462" lon="3.41649">
        <ele>61.2</ele>
        <time>2023-08-06T14:37:21Z</time>
      </trkpt>
      <trkpt lat="49.9146" lon="3.41646">
        <ele>61.2</ele>
        <time>2023-08-06T14:37:22Z</time>
      </trkpt>
      <trkpt lat="49.91458" lon="3.41644">
        <ele>61.4</ele>
        <time>2023-08-06T14:37:23Z</time>
      </trkpt>
      <trkpt lat="49.91457" lon="3.41642">
        <ele>61.4</ele>
        <time>2023-08-06T14:37:24Z</time>
      </trkpt>
      <trkpt lat="49.91455" lon="3.41639">
        <ele>61.6</ele>
        <time>2023-08-06T14:37:25Z</time>
      </trkpt>
      <trkpt lat="49.91454" lon="3.41637">
        <ele>61.6</ele>
        <time>2023-08-06T14:37:26Z</time>
      </trkpt>
      <trkpt lat="49.91452" lon="3.41635">
        <ele>61.8</ele>
        <time>2023-08-06T14:37:27Z</time>
      </trkpt>
      <trkpt lat="49.91451" lon="3.41632">
        <ele>61.8</ele>
        <time>2023-08-06T14:37:28Z</time>
      </trkpt>
      <trkpt lat="49.91449" lon="3.4163">
        <ele>61.8</ele>
        <time>2023-08-06T14:37:29Z</time>
      </trkpt>
      <trkpt lat="49.91448" lon="3.41628">
        <ele>61.8</ele>
        <time>2023-08-06T14:37:30Z</time>
      </trkpt>
      <trkpt lat="49.91447" lon="3.41626">
        <ele>61.8</ele>
        <time>2023-08-06T14:37:31Z</time>
      </trkpt>
      <trkpt lat="49.91445" lon="3.41623">
        <ele>62</ele>
        <time>2023-08-06T14:37:32Z</time>
      </trkpt>
      <trkpt lat="49.91444" lon="3.41621">
        <ele>62</ele>
        <time>2023-08-06T14:37:33Z</time>
      </trkpt>
      <trkpt lat="49.91442" lon="3.41619">
        <ele>62.2</ele>
        <time>2023-08-06T14:37:34Z</time>
      </trkpt>
      <trkpt lat="49.91441" lon="3.41617">
        <ele>62.2</ele>
        <time>2023-08-06T14:37:35Z</time>
      </trkpt>
      <trkpt lat="49.9144" lon="3.41614">
        <ele>62.2</ele>
        <time>2023-08-06T14:37:36Z</time>
      </trkpt>
      <trkpt lat="49.91439" lon="3.41612">
        <ele>62.4</ele>
        <time>2023-08-06T14:37:37Z</time>
      </trkpt>
      <trkpt lat="49.91437" lon="3.4161">
        <ele>62.6</ele>
        <time>2023-08-06T14:37:38Z</time>
      </trkpt>
      <trkpt lat="49.91436" lon="3.41608">
        <ele>62.8</ele>
        <time>2023-08-06T14:37:39Z</time>
      </trkpt>
      <trkpt lat="49.91435" lon="3.41606">
        <ele>62.8</ele>
        <time>2023-08-06T14:37:40Z</time>
      </trkpt>
      <trkpt lat="49.91434" lon="3.41604">
        <ele>63</ele>
        <time>2023-08-06T14:37:41Z</time>
      </trkpt>
      <trkpt lat="49.91433" lon="3.41601">
        <ele>63</ele>
        <time>2023-08-06T14:37:42Z</time>
      </trkpt>
      <trkpt lat="49.91432" lon="3.41599">
        <ele>63.4</ele>
        <time>2023-08-06T14:37:43Z</time>
      </trkpt>
      <trkpt lat="49.9143" lon="3.41597">
        <ele>63.6</ele>
        <time>2023-08-06T14:37:44Z</time>
      </trkpt>
      <trkpt lat="49.9143" lon="3.41595">
        <ele>63.6</ele>
        <time>2023-08-06T14:37:45Z</time>
      </trkpt>
      <trkpt lat="49.91429" lon="3.41593">
        <ele>63.8</ele>
        <time>2023-08-06T14:37:46Z</time>
      </trkpt>
      <trkpt lat="49.91427" lon="3.4159">
        <ele>63.8</ele>
        <time>2023-08-06T14:37:47Z</time>
      </trkpt>
      <trkpt lat="49.91426" lon="3.41588">
        <ele>63.8</ele>
        <time>2023-08-06T14:37:48Z</time>
      </trkpt>
      <trkpt lat="49.91425" lon="3.41586">
        <ele>64</ele>
        <time>2023-08-06T14:37:49Z</time>
      </trkpt>
      <trkpt lat="49.91424" lon="3.41585">
        <ele>64.2</ele>
        <time>2023-08-06T14:37:50Z</time>
      </trkpt>
      <trkpt lat="49.91423" lon="3.41582">
        <ele>64.2</ele>
        <time>2023-08-06T14:37:51Z</time>
      </trkpt>
      <trkpt lat="49.91422" lon="3.4158">
        <ele>64.4</ele>
        <time>2023-08-06T14:37:52Z</time>
      </trkpt>
      <trkpt lat="49.9142" lon="3.41577">
        <ele>64.4</ele>
        <time>2023-08-06T14:37:53Z</time>
      </trkpt>
      <trkpt lat="49.91419" lon="3.41575">
        <ele>64.4</ele>
        <time>2023-08-06T14:37:54Z</time>
      </trkpt>
      <trkpt lat="49.91418" lon="3.41573">
        <ele>64.6</ele>
        <time>2023-08-06T14:37:55Z</time>
      </trkpt>
      <trkpt lat="49.91417" lon="3.41571">
        <ele>64.6</ele>
        <time>2023-08-06T14:37:56Z</time>
      </trkpt>
      <trkpt lat="49.91416" lon="3.41569">
        <ele>64.8</ele>
        <time>2023-08-06T14:37:57Z</time>
      </trkpt>
      <trkpt lat="49.91414" lon="3.41566">
        <ele>64.8</ele>
        <time>2023-08-06T14:37:58Z</time>
      </trkpt>
      <trkpt lat="49.91413" lon="3.41564">
        <ele>65</ele>
        <time>2023-08-06T14:37:59Z</time>
      </trkpt>
      <trkpt lat="49.91412" lon="3.41562">
        <ele>65.2</ele>
        <time>2023-08-06T14:38:00Z</time>
      </trkpt>
      <trkpt lat="49.91411" lon="3.41559">
        <ele>65.2</ele>
        <time>2023-08-06T14:38:01Z</time>
      </trkpt>
      <trkpt lat="49.9141" lon="3.41557">
        <ele>65.4</ele>
        <time>2023-08-06T14:38:02Z</time>
      </trkpt>
      <trkpt lat="49.91409" lon="3.41554">
        <ele>65.4</ele>
        <time>2023-08-06T14:38:03Z</time>
      </trkpt>
      <trkpt lat="49.91408" lon="3.41553">
        <ele>65.6</ele>
        <time>2023-08-06T14:38:04Z</time>
      </trkpt>
      <trkpt lat="49.91407" lon="3.41551">
        <ele>65.6</ele>
        <time>2023-08-06T14:38:05Z</time>
      </trkpt>
      <trkpt lat="49.91406" lon="3.41548">
        <ele>65.6</ele>
        <time>2023-08-06T14:38:06Z</time>
      </trkpt>
      <trkpt lat="49.91405" lon="3.41546">
        <ele>65.6</ele>
        <time>2023-08-06T14:38:07Z</time>
      </trkpt>
      <trkpt lat="49.91404" lon="3.41543">
        <ele>65.8</ele>
        <time>2023-08-06T14:38:08Z</time>
      </trkpt>
      <trkpt lat="49.91403" lon="3.41542">
        <ele>66</ele>
        <time>2023-08-06T14:38:09Z</time>
      </trkpt>
      <trkpt lat="49.91402" lon="3.41539">
        <ele>66.2</ele>
        <time>2023-08-06T14:38:10Z</time>
      </trkpt>
      <trkpt lat="49.91401" lon="3.41538">
        <ele>66.4</ele>
        <time>2023-08-06T14:38:11Z</time>
      </trkpt>
      <trkpt lat="49.914" lon="3.41535">
        <ele>66.4</ele>
        <time>2023-08-06T14:38:12Z</time>
      </trkpt>
      <trkpt lat="49.91399" lon="3.41533">
        <ele>66.6</ele>
        <time>2023-08-06T14:38:13Z</time>
      </trkpt>
      <trkpt lat="49.91398" lon="3.41531">
        <ele>66.6</ele>
        <time>2023-08-06T14:38:14Z</time>
      </trkpt>
      <trkpt lat="49.91397" lon="3.41529">
        <ele>66.8</ele>
        <time>2023-08-06T14:38:15Z</time>
      </trkpt>
      <trkpt lat="49.91396" lon="3.41527">
        <ele>66.8</ele>
        <time>2023-08-06T14:38:16Z</time>
      </trkpt>
      <trkpt lat="49.91395" lon="3.41524">
        <ele>66.8</ele>
        <time>2023-08-06T14:38:17Z</time>
      </trkpt>
      <trkpt lat="49.91394" lon="3.41522">
        <ele>66.8</ele>
        <time>2023-08-06T14:38:18Z</time>
      </trkpt>
      <trkpt lat="49.91393" lon="3.4152">
        <ele>67</ele>
        <time>2023-08-06T14:38:19Z</time>
      </trkpt>
      <trkpt lat="49.91392" lon="3.41518">
        <ele>67</ele>
        <time>2023-08-06T14:38:20Z</time>
      </trkpt>
      <trkpt lat="49.91391" lon="3.41516">
        <ele>67.2</ele>
        <time>2023-08-06T14:38:21Z</time>
      </trkpt>
      <trkpt lat="49.91389" lon="3.41514">
        <ele>67.2</ele>
        <time>2023-08-06T14:38:22Z</time>
      </trkpt>
      <trkpt lat="49.91388" lon="3.41512">
        <ele>67.4</ele>
        <time>2023-08-06T14:38:23Z</time>
      </trkpt>
      <trkpt lat="49.91387" lon="3.4151">
        <ele>67.4</ele>
        <time>2023-08-06T14:38:24Z</time>
      </trkpt>
      <trkpt lat="49.91386" lon="3.41507">
        <ele>67.6</ele>
        <time>2023-08-06T14:38:25Z</time>
      </trkpt>
      <trkpt lat="49.91383" lon="3.41498">
        <ele>68</ele>
        <time>2023-08-06T14:38:29Z</time>
      </trkpt>
      <trkpt lat="49.91377" lon="3.41487">
        <ele>68.4</ele>
        <time>2023-08-06T14:38:34Z</time>
      </trkpt>
      <trkpt lat="49.91376" lon="3.41485">
        <ele>68.6</ele>
        <time>2023-08-06T14:38:35Z</time>
      </trkpt>
      <trkpt lat="49.91375" lon="3.41482">
        <ele>68.8</ele>
        <time>2023-08-06T14:38:36Z</time>
      </trkpt>
      <trkpt lat="49.91375" lon="3.4148">
        <ele>68.8</ele>
        <time>2023-08-06T14:38:37Z</time>
      </trkpt>
      <trkpt lat="49.91373" lon="3.41478">
        <ele>69</ele>
        <time>2023-08-06T14:38:38Z</time>
      </trkpt>
      <trkpt lat="49.91372" lon="3.41476">
        <ele>69</ele>
        <time>2023-08-06T14:38:39Z</time>
      </trkpt>
      <trkpt lat="49.91371" lon="3.41474">
        <ele>69.2</ele>
        <time>2023-08-06T14:38:40Z</time>
      </trkpt>
      <trkpt lat="49.9137" lon="3.41472">
        <ele>69.4</ele>
        <time>2023-08-06T14:38:41Z</time>
      </trkpt>
      <trkpt lat="49.91369" lon="3.41469">
        <ele>69.4</ele>
        <time>2023-08-06T14:38:42Z</time>
      </trkpt>
      <trkpt lat="49.91368" lon="3.41467">
        <ele>69.4</ele>
        <time>2023-08-06T14:38:43Z</time>
      </trkpt>
      <trkpt lat="49.91367" lon="3.41464">
        <ele>69.6</ele>
        <time>2023-08-06T14:38:44Z</time>
      </trkpt>
      <trkpt lat="49.91365" lon="3.41462">
        <ele>69.6</ele>
        <time>2023-08-06T14:38:45Z</time>
      </trkpt>
      <trkpt lat="49.91364" lon="3.4146">
        <ele>69.8</ele>
        <time>2023-08-06T14:38:46Z</time>
      </trkpt>
      <trkpt lat="49.91363" lon="3.41458">
        <ele>69.8</ele>
        <time>2023-08-06T14:38:47Z</time>
      </trkpt>
      <trkpt lat="49.91362" lon="3.41456">
        <ele>69.8</ele>
        <time>2023-08-06T14:38:48Z</time>
      </trkpt>
      <trkpt lat="49.91361" lon="3.41454">
        <ele>70</ele>
        <time>2023-08-06T14:38:49Z</time>
      </trkpt>
      <trkpt lat="49.9136" lon="3.41451">
        <ele>70</ele>
        <time>2023-08-06T14:38:50Z</time>
      </trkpt>
      <trkpt lat="49.91359" lon="3.41449">
        <ele>70.2</ele>
        <time>2023-08-06T14:38:51Z</time>
      </trkpt>
      <trkpt lat="49.91358" lon="3.41447">
        <ele>70.2</ele>
        <time>2023-08-06T14:38:52Z</time>
      </trkpt>
      <trkpt lat="49.91357" lon="3.41445">
        <ele>70.4</ele>
        <time>2023-08-06T14:38:53Z</time>
      </trkpt>
      <trkpt lat="49.91355" lon="3.41442">
        <ele>70.8</ele>
        <time>2023-08-06T14:38:54Z</time>
      </trkpt>
      <trkpt lat="49.91355" lon="3.4144">
        <ele>70.8</ele>
        <time>2023-08-06T14:38:55Z</time>
      </trkpt>
      <trkpt lat="49.91354" lon="3.41438">
        <ele>71.2</ele>
        <time>2023-08-06T14:38:56Z</time>
      </trkpt>
      <trkpt lat="49.91352" lon="3.41436">
        <ele>71</ele>
        <time>2023-08-06T14:38:57Z</time>
      </trkpt>
      <trkpt lat="49.91351" lon="3.41433">
        <ele>71</ele>
        <time>2023-08-06T14:38:58Z</time>
      </trkpt>
      <trkpt lat="49.9135" lon="3.41431">
        <ele>71.2</ele>
        <time>2023-08-06T14:38:59Z</time>
      </trkpt>
      <trkpt lat="49.91349" lon="3.41429">
        <ele>71.2</ele>
        <time>2023-08-06T14:39:00Z</time>
      </trkpt>
      <trkpt lat="49.91348" lon="3.41427">
        <ele>71.2</ele>
        <time>2023-08-06T14:39:01Z</time>
      </trkpt>
      <trkpt lat="49.91347" lon="3.41425">
        <ele>71.4</ele>
        <time>2023-08-06T14:39:02Z</time>
      </trkpt>
      <trkpt lat="49.91346" lon="3.41422">
        <ele>71.4</ele>
        <time>2023-08-06T14:39:03Z</time>
      </trkpt>
      <trkpt lat="49.91344" lon="3.4142">
        <ele>71.6</ele>
        <time>2023-08-06T14:39:04Z</time>
      </trkpt>
      <trkpt lat="49.91343" lon="3.41418">
        <ele>71.8</ele>
        <time>2023-08-06T14:39:05Z</time>
      </trkpt>
      <trkpt lat="49.91342" lon="3.41416">
        <ele>71.8</ele>
        <time>2023-08-06T14:39:06Z</time>
      </trkpt>
      <trkpt lat="49.91341" lon="3.41414">
        <ele>72</ele>
        <time>2023-08-06T14:39:07Z</time>
      </trkpt>
      <trkpt lat="49.9134" lon="3.41412">
        <ele>72</ele>
        <time>2023-08-06T14:39:08Z</time>
      </trkpt>
      <trkpt lat="49.91338" lon="3.4141">
        <ele>72</ele>
        <time>2023-08-06T14:39:09Z</time>
      </trkpt>
      <trkpt lat="49.91338" lon="3.41408">
        <ele>72.2</ele>
        <time>2023-08-06T14:39:10Z</time>
      </trkpt>
      <trkpt lat="49.91337" lon="3.41406">
        <ele>72.2</ele>
        <time>2023-08-06T14:39:11Z</time>
      </trkpt>
      <trkpt lat="49.91336" lon="3.41404">
        <ele>72.2</ele>
        <time>2023-08-06T14:39:12Z</time>
      </trkpt>
      <trkpt lat="49.91334" lon="3.41402">
        <ele>72.4</ele>
        <time>2023-08-06T14:39:13Z</time>
      </trkpt>
      <trkpt lat="49.91333" lon="3.414">
        <ele>72.4</ele>
        <time>2023-08-06T14:39:14Z</time>
      </trkpt>
      <trkpt lat="49.91333" lon="3.41398">
        <ele>72.6</ele>
        <time>2023-08-06T14:39:15Z</time>
      </trkpt>
      <trkpt lat="49.91331" lon="3.41396">
        <ele>72.6</ele>
        <time>2023-08-06T14:39:16Z</time>
      </trkpt>
      <trkpt lat="49.9133" lon="3.41393">
        <ele>72.6</ele>
        <time>2023-08-06T14:39:17Z</time>
      </trkpt>
      <trkpt lat="49.91328" lon="3.41388">
        <ele>73</ele>
        <time>2023-08-06T14:39:19Z</time>
      </trkpt>
      <trkpt lat="49.91323" lon="3.41379">
        <ele>73.6</ele>
        <time>2023-08-06T14:39:23Z</time>
      </trkpt>
      <trkpt lat="49.91322" lon="3.41376">
        <ele>73.8</ele>
        <time>2023-08-06T14:39:24Z</time>
      </trkpt>
      <trkpt lat="49.91321" lon="3.41374">
        <ele>73.8</ele>
        <time>2023-08-06T14:39:25Z</time>
      </trkpt>
      <trkpt lat="49.9132" lon="3.41372">
        <ele>73.8</ele>
        <time>2023-08-06T14:39:26Z</time>
      </trkpt>
      <trkpt lat="49.91318" lon="3.41369">
        <ele>74</ele>
        <time>2023-08-06T14:39:27Z</time>
      </trkpt>
      <trkpt lat="49.91318" lon="3.41367">
        <ele>74.2</ele>
        <time>2023-08-06T14:39:28Z</time>
      </trkpt>
      <trkpt lat="49.91317" lon="3.41365">
        <ele>74.2</ele>
        <time>2023-08-06T14:39:29Z</time>
      </trkpt>
      <trkpt lat="49.91316" lon="3.41363">
        <ele>74.4</ele>
        <time>2023-08-06T14:39:30Z</time>
      </trkpt>
      <trkpt lat="49.91314" lon="3.41361">
        <ele>74.6</ele>
        <time>2023-08-06T14:39:31Z</time>
      </trkpt>
      <trkpt lat="49.91313" lon="3.41358">
        <ele>74.6</ele>
        <time>2023-08-06T14:39:32Z</time>
      </trkpt>
      <trkpt lat="49.91312" lon="3.41356">
        <ele>74.8</ele>
        <time>2023-08-06T14:39:33Z</time>
      </trkpt>
      <trkpt lat="49.91311" lon="3.41354">
        <ele>74.8</ele>
        <time>2023-08-06T14:39:34Z</time>
      </trkpt>
      <trkpt lat="49.9131" lon="3.41352">
        <ele>75</ele>
        <time>2023-08-06T14:39:35Z</time>
      </trkpt>
      <trkpt lat="49.91309" lon="3.4135">
        <ele>75</ele>
        <time>2023-08-06T14:39:36Z</time>
      </trkpt>
      <trkpt lat="49.91308" lon="3.41348">
        <ele>75</ele>
        <time>2023-08-06T14:39:37Z</time>
      </trkpt>
      <trkpt lat="49.91306" lon="3.41345">
        <ele>75</ele>
        <time>2023-08-06T14:39:38Z</time>
      </trkpt>
      <trkpt lat="49.91305" lon="3.41343">
        <ele>75</ele>
        <time>2023-08-06T14:39:39Z</time>
      </trkpt>
      <trkpt lat="49.91304" lon="3.41341">
        <ele>75.2</ele>
        <time>2023-08-06T14:39:40Z</time>
      </trkpt>
      <trkpt lat="49.91303" lon="3.41338">
        <ele>75.4</ele>
        <time>2023-08-06T14:39:41Z</time>
      </trkpt>
      <trkpt lat="49.91301" lon="3.41336">
        <ele>75.4</ele>
        <time>2023-08-06T14:39:42Z</time>
      </trkpt>
      <trkpt lat="49.913" lon="3.41333">
        <ele>75.4</ele>
        <time>2023-08-06T14:39:43Z</time>
      </trkpt>
      <trkpt lat="49.913" lon="3.41333">
        <ele>75.6</ele>
        <time>2023-08-06T14:39:44Z</time>
      </trkpt>
      <trkpt lat="49.91298" lon="3.41329">
        <ele>75.8</ele>
        <time>2023-08-06T14:39:45Z</time>
      </trkpt>
      <trkpt lat="49.91296" lon="3.41326">
        <ele>75.8</ele>
        <time>2023-08-06T14:39:46Z</time>
      </trkpt>
      <trkpt lat="49.91291" lon="3.41319">
        <ele>76</ele>
        <time>2023-08-06T14:39:49Z</time>
      </trkpt>
      <trkpt lat="49.91286" lon="3.41312">
        <ele>76.4</ele>
        <time>2023-08-06T14:39:52Z</time>
      </trkpt>
      <trkpt lat="49.91267" lon="3.41293">
        <ele>76.8</ele>
        <time>2023-08-06T14:40:02Z</time>
      </trkpt>
      <trkpt lat="49.91249" lon="3.41275">
        <ele>77</ele>
        <time>2023-08-06T14:40:11Z</time>
      </trkpt>
      <trkpt lat="49.91243" lon="3.41268">
        <ele>77.4</ele>
        <time>2023-08-06T14:40:14Z</time>
      </trkpt>
      <trkpt lat="49.91223" lon="3.41246">
        <ele>77.4</ele>
        <time>2023-08-06T14:40:22Z</time>
      </trkpt>
      <trkpt lat="49.9119" lon="3.41214">
        <ele>76.6</ele>
        <time>2023-08-06T14:40:32Z</time>
      </trkpt>
      <trkpt lat="49.91176" lon="3.41197">
        <ele>76</ele>
        <time>2023-08-06T14:40:36Z</time>
      </trkpt>
      <trkpt lat="49.91157" lon="3.41175">
        <ele>75.4</ele>
        <time>2023-08-06T14:40:41Z</time>
      </trkpt>
      <trkpt lat="49.91147" lon="3.4116">
        <ele>74.8</ele>
        <time>2023-08-06T14:40:44Z</time>
      </trkpt>
      <trkpt lat="49.91129" lon="3.41133">
        <ele>74.2</ele>
        <time>2023-08-06T14:40:49Z</time>
      </trkpt>
      <trkpt lat="49.91119" lon="3.41117">
        <ele>73.4</ele>
        <time>2023-08-06T14:40:52Z</time>
      </trkpt>
      <trkpt lat="49.91089" lon="3.41068">
        <ele>72.8</ele>
        <time>2023-08-06T14:41:00Z</time>
      </trkpt>
      <trkpt lat="49.91076" lon="3.41047">
        <ele>72.4</ele>
        <time>2023-08-06T14:41:03Z</time>
      </trkpt>
      <trkpt lat="49.91058" lon="3.4102">
        <ele>71.2</ele>
        <time>2023-08-06T14:41:07Z</time>
      </trkpt>
      <trkpt lat="49.91017" lon="3.40962">
        <ele>70.4</ele>
        <time>2023-08-06T14:41:16Z</time>
      </trkpt>
      <trkpt lat="49.91012" lon="3.40956">
        <ele>70.4</ele>
        <time>2023-08-06T14:41:17Z</time>
      </trkpt>
      <trkpt lat="49.90997" lon="3.40939">
        <ele>70</ele>
        <time>2023-08-06T14:41:20Z</time>
      </trkpt>
      <trkpt lat="49.90972" lon="3.4091">
        <ele>69.4</ele>
        <time>2023-08-06T14:41:25Z</time>
      </trkpt>
      <trkpt lat="49.90953" lon="3.40886">
        <ele>68.8</ele>
        <time>2023-08-06T14:41:29Z</time>
      </trkpt>
      <trkpt lat="49.9092" lon="3.40842">
        <ele>68</ele>
        <time>2023-08-06T14:41:36Z</time>
      </trkpt>
      <trkpt lat="49.90911" lon="3.4083">
        <ele>67.8</ele>
        <time>2023-08-06T14:41:38Z</time>
      </trkpt>
      <trkpt lat="49.90886" lon="3.40799">
        <ele>67.4</ele>
        <time>2023-08-06T14:41:43Z</time>
      </trkpt>
      <trkpt lat="49.9084" lon="3.40741">
        <ele>66.8</ele>
        <time>2023-08-06T14:41:52Z</time>
      </trkpt>
      <trkpt lat="49.90829" lon="3.40727">
        <ele>66.4</ele>
        <time>2023-08-06T14:41:54Z</time>
      </trkpt>
      <trkpt lat="49.90799" lon="3.40688">
        <ele>65.8</ele>
        <time>2023-08-06T14:42:00Z</time>
      </trkpt>
      <trkpt lat="49.90789" lon="3.40675">
        <ele>65.4</ele>
        <time>2023-08-06T14:42:02Z</time>
      </trkpt>
      <trkpt lat="49.90784" lon="3.40669">
        <ele>65.6</ele>
        <time>2023-08-06T14:42:03Z</time>
      </trkpt>
      <trkpt lat="49.9078" lon="3.40663">
        <ele>65.2</ele>
        <time>2023-08-06T14:42:04Z</time>
      </trkpt>
      <trkpt lat="49.9077" lon="3.4065">
        <ele>65</ele>
        <time>2023-08-06T14:42:06Z</time>
      </trkpt>
      <trkpt lat="49.90765" lon="3.40644">
        <ele>65</ele>
        <time>2023-08-06T14:42:07Z</time>
      </trkpt>
      <trkpt lat="49.90755" lon="3.40631">
        <ele>64.4</ele>
        <time>2023-08-06T14:42:09Z</time>
      </trkpt>
      <trkpt lat="49.9074" lon="3.40612">
        <ele>63</ele>
        <time>2023-08-06T14:42:12Z</time>
      </trkpt>
      <trkpt lat="49.9071" lon="3.40572">
        <ele>62</ele>
        <time>2023-08-06T14:42:18Z</time>
      </trkpt>
      <trkpt lat="49.90678" lon="3.40532">
        <ele>61</ele>
        <time>2023-08-06T14:42:24Z</time>
      </trkpt>
      <trkpt lat="49.90669" lon="3.40519">
        <ele>60.8</ele>
        <time>2023-08-06T14:42:26Z</time>
      </trkpt>
      <trkpt lat="49.90655" lon="3.405">
        <ele>59.8</ele>
        <time>2023-08-06T14:42:29Z</time>
      </trkpt>
      <trkpt lat="49.9065" lon="3.40496">
        <ele>59.6</ele>
        <time>2023-08-06T14:42:30Z</time>
      </trkpt>
      <trkpt lat="49.90645" lon="3.40492">
        <ele>59</ele>
        <time>2023-08-06T14:42:31Z</time>
      </trkpt>
      <trkpt lat="49.90639" lon="3.40489">
        <ele>59</ele>
        <time>2023-08-06T14:42:32Z</time>
      </trkpt>
      <trkpt lat="49.90633" lon="3.40485">
        <ele>58.6</ele>
        <time>2023-08-06T14:42:33Z</time>
      </trkpt>
      <trkpt lat="49.906" lon="3.4047">
        <ele>57.4</ele>
        <time>2023-08-06T14:42:38Z</time>
      </trkpt>
      <trkpt lat="49.90586" lon="3.40464">
        <ele>57</ele>
        <time>2023-08-06T14:42:40Z</time>
      </trkpt>
      <trkpt lat="49.90556" lon="3.40451">
        <ele>56.2</ele>
        <time>2023-08-06T14:42:44Z</time>
      </trkpt>
      <trkpt lat="49.90548" lon="3.40448">
        <ele>55.8</ele>
        <time>2023-08-06T14:42:45Z</time>
      </trkpt>
      <trkpt lat="49.90517" lon="3.40441">
        <ele>55</ele>
        <time>2023-08-06T14:42:49Z</time>
      </trkpt>
      <trkpt lat="49.90508" lon="3.40441">
        <ele>54.8</ele>
        <time>2023-08-06T14:42:50Z</time>
      </trkpt>
      <trkpt lat="49.90495" lon="3.4044">
        <ele>54</ele>
        <time>2023-08-06T14:42:52Z</time>
      </trkpt>
      <trkpt lat="49.90472" lon="3.40439">
        <ele>53</ele>
        <time>2023-08-06T14:42:55Z</time>
      </trkpt>
      <trkpt lat="49.90467" lon="3.40439">
        <ele>52.6</ele>
        <time>2023-08-06T14:42:56Z</time>
      </trkpt>
      <trkpt lat="49.90461" lon="3.40438">
        <ele>52.4</ele>
        <time>2023-08-06T14:42:57Z</time>
      </trkpt>
      <trkpt lat="49.90454" lon="3.40439">
        <ele>52</ele>
        <time>2023-08-06T14:42:58Z</time>
      </trkpt>
      <trkpt lat="49.90436" lon="3.4044">
        <ele>51.2</ele>
        <time>2023-08-06T14:43:01Z</time>
      </trkpt>
      <trkpt lat="49.9043" lon="3.4044">
        <ele>51.2</ele>
        <time>2023-08-06T14:43:02Z</time>
      </trkpt>
      <trkpt lat="49.90423" lon="3.40439">
        <ele>50.8</ele>
        <time>2023-08-06T14:43:03Z</time>
      </trkpt>
      <trkpt lat="49.90418" lon="3.40439">
        <ele>50.6</ele>
        <time>2023-08-06T14:43:04Z</time>
      </trkpt>
      <trkpt lat="49.90412" lon="3.40438">
        <ele>50.4</ele>
        <time>2023-08-06T14:43:05Z</time>
      </trkpt>
      <trkpt lat="49.904" lon="3.40436">
        <ele>50.2</ele>
        <time>2023-08-06T14:43:07Z</time>
      </trkpt>
      <trkpt lat="49.90383" lon="3.4043">
        <ele>50.2</ele>
        <time>2023-08-06T14:43:10Z</time>
      </trkpt>
      <trkpt lat="49.90372" lon="3.40426">
        <ele>50.2</ele>
        <time>2023-08-06T14:43:12Z</time>
      </trkpt>
      <trkpt lat="49.90367" lon="3.40425">
        <ele>50.2</ele>
        <time>2023-08-06T14:43:13Z</time>
      </trkpt>
      <trkpt lat="49.9036" lon="3.40423">
        <ele>50.2</ele>
        <time>2023-08-06T14:43:14Z</time>
      </trkpt>
      <trkpt lat="49.90345" lon="3.40419">
        <ele>51</ele>
        <time>2023-08-06T14:43:17Z</time>
      </trkpt>
      <trkpt lat="49.90341" lon="3.40418">
        <ele>51</ele>
        <time>2023-08-06T14:43:18Z</time>
      </trkpt>
      <trkpt lat="49.90336" lon="3.40416">
        <ele>51.2</ele>
        <time>2023-08-06T14:43:19Z</time>
      </trkpt>
      <trkpt lat="49.90333" lon="3.40415">
        <ele>51.4</ele>
        <time>2023-08-06T14:43:20Z</time>
      </trkpt>
      <trkpt lat="49.90328" lon="3.40414">
        <ele>51.4</ele>
        <time>2023-08-06T14:43:21Z</time>
      </trkpt>
      <trkpt lat="49.90324" lon="3.40413">
        <ele>51.4</ele>
        <time>2023-08-06T14:43:22Z</time>
      </trkpt>
      <trkpt lat="49.90319" lon="3.40411">
        <ele>51.4</ele>
        <time>2023-08-06T14:43:23Z</time>
      </trkpt>
      <trkpt lat="49.90316" lon="3.4041">
        <ele>51.4</ele>
        <time>2023-08-06T14:43:24Z</time>
      </trkpt>
      <trkpt lat="49.90312" lon="3.4041">
        <ele>51.6</ele>
        <time>2023-08-06T14:43:25Z</time>
      </trkpt>
      <trkpt lat="49.90309" lon="3.40409">
        <ele>51.6</ele>
        <time>2023-08-06T14:43:26Z</time>
      </trkpt>
      <trkpt lat="49.90305" lon="3.40407">
        <ele>51.6</ele>
        <time>2023-08-06T14:43:27Z</time>
      </trkpt>
      <trkpt lat="49.90301" lon="3.40406">
        <ele>51.6</ele>
        <time>2023-08-06T14:43:28Z</time>
      </trkpt>
      <trkpt lat="49.90298" lon="3.40405">
        <ele>51.6</ele>
        <time>2023-08-06T14:43:29Z</time>
      </trkpt>
      <trkpt lat="49.90295" lon="3.40404">
        <ele>51.6</ele>
        <time>2023-08-06T14:43:30Z</time>
      </trkpt>
      <trkpt lat="49.90292" lon="3.40404">
        <ele>51.8</ele>
        <time>2023-08-06T14:43:31Z</time>
      </trkpt>
      <trkpt lat="49.90288" lon="3.40403">
        <ele>51.8</ele>
        <time>2023-08-06T14:43:32Z</time>
      </trkpt>
      <trkpt lat="49.90285" lon="3.40402">
        <ele>51.8</ele>
        <time>2023-08-06T14:43:33Z</time>
      </trkpt>
      <trkpt lat="49.90282" lon="3.40401">
        <ele>52</ele>
        <time>2023-08-06T14:43:34Z</time>
      </trkpt>
      <trkpt lat="49.90279" lon="3.404">
        <ele>52.2</ele>
        <time>2023-08-06T14:43:35Z</time>
      </trkpt>
      <trkpt lat="49.90277" lon="3.40398">
        <ele>52.2</ele>
        <time>2023-08-06T14:43:36Z</time>
      </trkpt>
      <trkpt lat="49.90273" lon="3.40397">
        <ele>52.2</ele>
        <time>2023-08-06T14:43:37Z</time>
      </trkpt>
      <trkpt lat="49.90271" lon="3.40396">
        <ele>52.4</ele>
        <time>2023-08-06T14:43:38Z</time>
      </trkpt>
      <trkpt lat="49.90268" lon="3.40395">
        <ele>52.4</ele>
        <time>2023-08-06T14:43:39Z</time>
      </trkpt>
      <trkpt lat="49.90266" lon="3.40394">
        <ele>52.6</ele>
        <time>2023-08-06T14:43:40Z</time>
      </trkpt>
      <trkpt lat="49.90264" lon="3.40394">
        <ele>52.6</ele>
        <time>2023-08-06T14:43:41Z</time>
      </trkpt>
      <trkpt lat="49.90261" lon="3.40393">
        <ele>52.8</ele>
        <time>2023-08-06T14:43:42Z</time>
      </trkpt>
      <trkpt lat="49.90259" lon="3.40392">
        <ele>52.8</ele>
        <time>2023-08-06T14:43:43Z</time>
      </trkpt>
      <trkpt lat="49.90257" lon="3.40392">
        <ele>53</ele>
        <time>2023-08-06T14:43:44Z</time>
      </trkpt>
      <trkpt lat="49.90255" lon="3.40391">
        <ele>53</ele>
        <time>2023-08-06T14:43:45Z</time>
      </trkpt>
      <trkpt lat="49.90253" lon="3.4039">
        <ele>53</ele>
        <time>2023-08-06T14:43:46Z</time>
      </trkpt>
      <trkpt lat="49.90251" lon="3.40389">
        <ele>53</ele>
        <time>2023-08-06T14:43:47Z</time>
      </trkpt>
      <trkpt lat="49.90248" lon="3.40388">
        <ele>53.2</ele>
        <time>2023-08-06T14:43:48Z</time>
      </trkpt>
      <trkpt lat="49.90246" lon="3.40388">
        <ele>53.2</ele>
        <time>2023-08-06T14:43:49Z</time>
      </trkpt>
      <trkpt lat="49.90244" lon="3.40387">
        <ele>53.4</ele>
        <time>2023-08-06T14:43:50Z</time>
      </trkpt>
      <trkpt lat="49.90242" lon="3.40386">
        <ele>53.4</ele>
        <time>2023-08-06T14:43:51Z</time>
      </trkpt>
      <trkpt lat="49.9024" lon="3.40385">
        <ele>53.6</ele>
        <time>2023-08-06T14:43:52Z</time>
      </trkpt>
      <trkpt lat="49.90238" lon="3.40384">
        <ele>53.6</ele>
        <time>2023-08-06T14:43:53Z</time>
      </trkpt>
      <trkpt lat="49.90236" lon="3.40384">
        <ele>53.6</ele>
        <time>2023-08-06T14:43:54Z</time>
      </trkpt>
      <trkpt lat="49.90234" lon="3.40384">
        <ele>54</ele>
        <time>2023-08-06T14:43:55Z</time>
      </trkpt>
      <trkpt lat="49.90232" lon="3.40383">
        <ele>54</ele>
        <time>2023-08-06T14:43:56Z</time>
      </trkpt>
      <trkpt lat="49.9023" lon="3.40383">
        <ele>54.2</ele>
        <time>2023-08-06T14:43:57Z</time>
      </trkpt>
      <trkpt lat="49.90226" lon="3.40381">
        <ele>54.4</ele>
        <time>2023-08-06T14:43:59Z</time>
      </trkpt>
      <trkpt lat="49.90224" lon="3.4038">
        <ele>54.6</ele>
        <time>2023-08-06T14:44:00Z</time>
      </trkpt>
      <trkpt lat="49.90209" lon="3.40374">
        <ele>55.4</ele>
        <time>2023-08-06T14:44:07Z</time>
      </trkpt>
      <trkpt lat="49.90208" lon="3.40374">
        <ele>55.4</ele>
        <time>2023-08-06T14:44:08Z</time>
      </trkpt>
      <trkpt lat="49.90206" lon="3.40373">
        <ele>55.6</ele>
        <time>2023-08-06T14:44:09Z</time>
      </trkpt>
      <trkpt lat="49.90204" lon="3.40373">
        <ele>55.6</ele>
        <time>2023-08-06T14:44:10Z</time>
      </trkpt>
      <trkpt lat="49.90202" lon="3.40372">
        <ele>55.6</ele>
        <time>2023-08-06T14:44:11Z</time>
      </trkpt>
      <trkpt lat="49.902" lon="3.40372">
        <ele>55.8</ele>
        <time>2023-08-06T14:44:12Z</time>
      </trkpt>
      <trkpt lat="49.90198" lon="3.40371">
        <ele>56</ele>
        <time>2023-08-06T14:44:13Z</time>
      </trkpt>
      <trkpt lat="49.90196" lon="3.4037">
        <ele>56</ele>
        <time>2023-08-06T14:44:14Z</time>
      </trkpt>
      <trkpt lat="49.90194" lon="3.40369">
        <ele>56.2</ele>
        <time>2023-08-06T14:44:15Z</time>
      </trkpt>
      <trkpt lat="49.90192" lon="3.40369">
        <ele>56.2</ele>
        <time>2023-08-06T14:44:16Z</time>
      </trkpt>
      <trkpt lat="49.9019" lon="3.40368">
        <ele>56.2</ele>
        <time>2023-08-06T14:44:17Z</time>
      </trkpt>
      <trkpt lat="49.90188" lon="3.40368">
        <ele>56.4</ele>
        <time>2023-08-06T14:44:18Z</time>
      </trkpt>
      <trkpt lat="49.90186" lon="3.40367">
        <ele>56.4</ele>
        <time>2023-08-06T14:44:19Z</time>
      </trkpt>
      <trkpt lat="49.90184" lon="3.40367">
        <ele>56.6</ele>
        <time>2023-08-06T14:44:20Z</time>
      </trkpt>
      <trkpt lat="49.90182" lon="3.40366">
        <ele>56.8</ele>
        <time>2023-08-06T14:44:21Z</time>
      </trkpt>
      <trkpt lat="49.9018" lon="3.40366">
        <ele>57</ele>
        <time>2023-08-06T14:44:22Z</time>
      </trkpt>
      <trkpt lat="49.90178" lon="3.40365">
        <ele>57</ele>
        <time>2023-08-06T14:44:23Z</time>
      </trkpt>
      <trkpt lat="49.90176" lon="3.40364">
        <ele>57.2</ele>
        <time>2023-08-06T14:44:24Z</time>
      </trkpt>
      <trkpt lat="49.90173" lon="3.40362">
        <ele>57.2</ele>
        <time>2023-08-06T14:44:25Z</time>
      </trkpt>
      <trkpt lat="49.90171" lon="3.40362">
        <ele>57.4</ele>
        <time>2023-08-06T14:44:26Z</time>
      </trkpt>
      <trkpt lat="49.9017" lon="3.40361">
        <ele>57.4</ele>
        <time>2023-08-06T14:44:27Z</time>
      </trkpt>
      <trkpt lat="49.90168" lon="3.40361">
        <ele>57.4</ele>
        <time>2023-08-06T14:44:28Z</time>
      </trkpt>
      <trkpt lat="49.90166" lon="3.4036">
        <ele>57.4</ele>
        <time>2023-08-06T14:44:29Z</time>
      </trkpt>
      <trkpt lat="49.90163" lon="3.40359">
        <ele>57.4</ele>
        <time>2023-08-06T14:44:30Z</time>
      </trkpt>
      <trkpt lat="49.90162" lon="3.40359">
        <ele>57.6</ele>
        <time>2023-08-06T14:44:31Z</time>
      </trkpt>
      <trkpt lat="49.90159" lon="3.40358">
        <ele>57.6</ele>
        <time>2023-08-06T14:44:32Z</time>
      </trkpt>
      <trkpt lat="49.90157" lon="3.40358">
        <ele>57.8</ele>
        <time>2023-08-06T14:44:33Z</time>
      </trkpt>
      <trkpt lat="49.90155" lon="3.40357">
        <ele>57.8</ele>
        <time>2023-08-06T14:44:34Z</time>
      </trkpt>
      <trkpt lat="49.90153" lon="3.40357">
        <ele>57.8</ele>
        <time>2023-08-06T14:44:35Z</time>
      </trkpt>
      <trkpt lat="49.90151" lon="3.40356">
        <ele>58.2</ele>
        <time>2023-08-06T14:44:36Z</time>
      </trkpt>
      <trkpt lat="49.90149" lon="3.40355">
        <ele>58.4</ele>
        <time>2023-08-06T14:44:37Z</time>
      </trkpt>
      <trkpt lat="49.90147" lon="3.40354">
        <ele>58.4</ele>
        <time>2023-08-06T14:44:38Z</time>
      </trkpt>
      <trkpt lat="49.90145" lon="3.40354">
        <ele>58.6</ele>
        <time>2023-08-06T14:44:39Z</time>
      </trkpt>
      <trkpt lat="49.90143" lon="3.40354">
        <ele>58.6</ele>
        <time>2023-08-06T14:44:40Z</time>
      </trkpt>
      <trkpt lat="49.9014" lon="3.40353">
        <ele>58.8</ele>
        <time>2023-08-06T14:44:41Z</time>
      </trkpt>
      <trkpt lat="49.90139" lon="3.40352">
        <ele>59</ele>
        <time>2023-08-06T14:44:42Z</time>
      </trkpt>
      <trkpt lat="49.90137" lon="3.40351">
        <ele>59.4</ele>
        <time>2023-08-06T14:44:43Z</time>
      </trkpt>
      <trkpt lat="49.90134" lon="3.4035">
        <ele>59.4</ele>
        <time>2023-08-06T14:44:44Z</time>
      </trkpt>
      <trkpt lat="49.90132" lon="3.40349">
        <ele>59.6</ele>
        <time>2023-08-06T14:44:45Z</time>
      </trkpt>
      <trkpt lat="49.90131" lon="3.40348">
        <ele>59.6</ele>
        <time>2023-08-06T14:44:46Z</time>
      </trkpt>
      <trkpt lat="49.9013" lon="3.40348">
        <ele>59.8</ele>
        <time>2023-08-06T14:44:47Z</time>
      </trkpt>
      <trkpt lat="49.90128" lon="3.40348">
        <ele>60</ele>
        <time>2023-08-06T14:44:48Z</time>
      </trkpt>
      <trkpt lat="49.90125" lon="3.40347">
        <ele>60.2</ele>
        <time>2023-08-06T14:44:49Z</time>
      </trkpt>
      <trkpt lat="49.90123" lon="3.40346">
        <ele>60.2</ele>
        <time>2023-08-06T14:44:50Z</time>
      </trkpt>
      <trkpt lat="49.90122" lon="3.40345">
        <ele>60.2</ele>
        <time>2023-08-06T14:44:51Z</time>
      </trkpt>
      <trkpt lat="49.9012" lon="3.40345">
        <ele>60.4</ele>
        <time>2023-08-06T14:44:52Z</time>
      </trkpt>
      <trkpt lat="49.90117" lon="3.40344">
        <ele>60.4</ele>
        <time>2023-08-06T14:44:53Z</time>
      </trkpt>
      <trkpt lat="49.90115" lon="3.40345">
        <ele>60.6</ele>
        <time>2023-08-06T14:44:54Z</time>
      </trkpt>
      <trkpt lat="49.90113" lon="3.40344">
        <ele>60.6</ele>
        <time>2023-08-06T14:44:55Z</time>
      </trkpt>
      <trkpt lat="49.90111" lon="3.40344">
        <ele>60.8</ele>
        <time>2023-08-06T14:44:56Z</time>
      </trkpt>
      <trkpt lat="49.90109" lon="3.40344">
        <ele>61</ele>
        <time>2023-08-06T14:44:57Z</time>
      </trkpt>
      <trkpt lat="49.90107" lon="3.40343">
        <ele>61</ele>
        <time>2023-08-06T14:44:58Z</time>
      </trkpt>
      <trkpt lat="49.90104" lon="3.40342">
        <ele>61</ele>
        <time>2023-08-06T14:44:59Z</time>
      </trkpt>
      <trkpt lat="49.90102" lon="3.40341">
        <ele>61.2</ele>
        <time>2023-08-06T14:45:00Z</time>
      </trkpt>
      <trkpt lat="49.901" lon="3.40341">
        <ele>61.2</ele>
        <time>2023-08-06T14:45:01Z</time>
      </trkpt>
      <trkpt lat="49.90098" lon="3.40341">
        <ele>61.4</ele>
        <time>2023-08-06T14:45:02Z</time>
      </trkpt>
      <trkpt lat="49.90096" lon="3.4034">
        <ele>61.4</ele>
        <time>2023-08-06T14:45:03Z</time>
      </trkpt>
      <trkpt lat="49.90093" lon="3.4034">
        <ele>61.6</ele>
        <time>2023-08-06T14:45:04Z</time>
      </trkpt>
      <trkpt lat="49.90091" lon="3.40339">
        <ele>61.6</ele>
        <time>2023-08-06T14:45:05Z</time>
      </trkpt>
      <trkpt lat="49.90089" lon="3.40339">
        <ele>61.6</ele>
        <time>2023-08-06T14:45:06Z</time>
      </trkpt>
      <trkpt lat="49.90087" lon="3.40338">
        <ele>61.8</ele>
        <time>2023-08-06T14:45:07Z</time>
      </trkpt>
      <trkpt lat="49.90084" lon="3.40337">
        <ele>61.8</ele>
        <time>2023-08-06T14:45:08Z</time>
      </trkpt>
      <trkpt lat="49.90082" lon="3.40337">
        <ele>61.8</ele>
        <time>2023-08-06T14:45:09Z</time>
      </trkpt>
      <trkpt lat="49.90079" lon="3.40336">
        <ele>62</ele>
        <time>2023-08-06T14:45:10Z</time>
      </trkpt>
      <trkpt lat="49.90077" lon="3.40336">
        <ele>62</ele>
        <time>2023-08-06T14:45:11Z</time>
      </trkpt>
      <trkpt lat="49.90075" lon="3.40336">
        <ele>62</ele>
        <time>2023-08-06T14:45:12Z</time>
      </trkpt>
      <trkpt lat="49.90072" lon="3.40335">
        <ele>62</ele>
        <time>2023-08-06T14:45:13Z</time>
      </trkpt>
      <trkpt lat="49.90067" lon="3.40333">
        <ele>62.2</ele>
        <time>2023-08-06T14:45:15Z</time>
      </trkpt>
      <trkpt lat="49.90045" lon="3.40325">
        <ele>62.8</ele>
        <time>2023-08-06T14:45:24Z</time>
      </trkpt>
      <trkpt lat="49.90016" lon="3.40315">
        <ele>63.2</ele>
        <time>2023-08-06T14:45:34Z</time>
      </trkpt>
      <trkpt lat="49.90011" lon="3.40313">
        <ele>63.2</ele>
        <time>2023-08-06T14:45:36Z</time>
      </trkpt>
      <trkpt lat="49.90007" lon="3.40312">
        <ele>63.4</ele>
        <time>2023-08-06T14:45:37Z</time>
      </trkpt>
      <trkpt lat="49.90004" lon="3.40311">
        <ele>63.4</ele>
        <time>2023-08-06T14:45:38Z</time>
      </trkpt>
      <trkpt lat="49.89993" lon="3.40307">
        <ele>63.8</ele>
        <time>2023-08-06T14:45:42Z</time>
      </trkpt>
      <trkpt lat="49.89967" lon="3.40299">
        <ele>65</ele>
        <time>2023-08-06T14:45:51Z</time>
      </trkpt>
      <trkpt lat="49.89964" lon="3.40298">
        <ele>65</ele>
        <time>2023-08-06T14:45:52Z</time>
      </trkpt>
      <trkpt lat="49.8995" lon="3.40293">
        <ele>66</ele>
        <time>2023-08-06T14:45:57Z</time>
      </trkpt>
      <trkpt lat="49.89948" lon="3.40292">
        <ele>66.4</ele>
        <time>2023-08-06T14:45:58Z</time>
      </trkpt>
      <trkpt lat="49.89945" lon="3.40292">
        <ele>66.6</ele>
        <time>2023-08-06T14:45:59Z</time>
      </trkpt>
      <trkpt lat="49.89941" lon="3.40291">
        <ele>66.8</ele>
        <time>2023-08-06T14:46:00Z</time>
      </trkpt>
      <trkpt lat="49.89938" lon="3.40291">
        <ele>67.2</ele>
        <time>2023-08-06T14:46:01Z</time>
      </trkpt>
      <trkpt lat="49.89935" lon="3.4029">
        <ele>67.4</ele>
        <time>2023-08-06T14:46:02Z</time>
      </trkpt>
      <trkpt lat="49.89932" lon="3.40289">
        <ele>67.6</ele>
        <time>2023-08-06T14:46:03Z</time>
      </trkpt>
      <trkpt lat="49.8993" lon="3.40288">
        <ele>67.6</ele>
        <time>2023-08-06T14:46:04Z</time>
      </trkpt>
      <trkpt lat="49.89926" lon="3.40287">
        <ele>67.8</ele>
        <time>2023-08-06T14:46:05Z</time>
      </trkpt>
      <trkpt lat="49.89924" lon="3.40286">
        <ele>67.8</ele>
        <time>2023-08-06T14:46:06Z</time>
      </trkpt>
      <trkpt lat="49.8992" lon="3.40285">
        <ele>68</ele>
        <time>2023-08-06T14:46:07Z</time>
      </trkpt>
      <trkpt lat="49.89918" lon="3.40285">
        <ele>68</ele>
        <time>2023-08-06T14:46:08Z</time>
      </trkpt>
      <trkpt lat="49.89916" lon="3.40284">
        <ele>68.2</ele>
        <time>2023-08-06T14:46:09Z</time>
      </trkpt>
      <trkpt lat="49.89912" lon="3.40283">
        <ele>68.2</ele>
        <time>2023-08-06T14:46:10Z</time>
      </trkpt>
      <trkpt lat="49.89909" lon="3.40283">
        <ele>68.2</ele>
        <time>2023-08-06T14:46:11Z</time>
      </trkpt>
      <trkpt lat="49.89907" lon="3.40282">
        <ele>68.4</ele>
        <time>2023-08-06T14:46:12Z</time>
      </trkpt>
      <trkpt lat="49.89904" lon="3.4028">
        <ele>68.4</ele>
        <time>2023-08-06T14:46:13Z</time>
      </trkpt>
      <trkpt lat="49.89901" lon="3.40279">
        <ele>68.6</ele>
        <time>2023-08-06T14:46:14Z</time>
      </trkpt>
      <trkpt lat="49.89898" lon="3.40278">
        <ele>68.6</ele>
        <time>2023-08-06T14:46:15Z</time>
      </trkpt>
      <trkpt lat="49.89896" lon="3.40277">
        <ele>68.8</ele>
        <time>2023-08-06T14:46:16Z</time>
      </trkpt>
      <trkpt lat="49.89893" lon="3.40276">
        <ele>68.8</ele>
        <time>2023-08-06T14:46:17Z</time>
      </trkpt>
      <trkpt lat="49.8989" lon="3.40274">
        <ele>69</ele>
        <time>2023-08-06T14:46:18Z</time>
      </trkpt>
      <trkpt lat="49.89886" lon="3.40273">
        <ele>69.2</ele>
        <time>2023-08-06T14:46:19Z</time>
      </trkpt>
      <trkpt lat="49.89884" lon="3.40271">
        <ele>69.2</ele>
        <time>2023-08-06T14:46:20Z</time>
      </trkpt>
      <trkpt lat="49.89881" lon="3.40269">
        <ele>69.4</ele>
        <time>2023-08-06T14:46:21Z</time>
      </trkpt>
      <trkpt lat="49.89878" lon="3.40268">
        <ele>69.4</ele>
        <time>2023-08-06T14:46:22Z</time>
      </trkpt>
      <trkpt lat="49.89875" lon="3.40267">
        <ele>69.6</ele>
        <time>2023-08-06T14:46:23Z</time>
      </trkpt>
      <trkpt lat="49.89872" lon="3.40265">
        <ele>69.6</ele>
        <time>2023-08-06T14:46:24Z</time>
      </trkpt>
      <trkpt lat="49.89869" lon="3.40264">
        <ele>69.8</ele>
        <time>2023-08-06T14:46:25Z</time>
      </trkpt>
      <trkpt lat="49.89866" lon="3.40262">
        <ele>69.8</ele>
        <time>2023-08-06T14:46:26Z</time>
      </trkpt>
      <trkpt lat="49.89863" lon="3.40261">
        <ele>69.8</ele>
        <time>2023-08-06T14:46:27Z</time>
      </trkpt>
      <trkpt lat="49.89859" lon="3.40259">
        <ele>70</ele>
        <time>2023-08-06T14:46:28Z</time>
      </trkpt>
      <trkpt lat="49.89856" lon="3.40258">
        <ele>70</ele>
        <time>2023-08-06T14:46:29Z</time>
      </trkpt>
      <trkpt lat="49.89853" lon="3.40258">
        <ele>70</ele>
        <time>2023-08-06T14:46:30Z</time>
      </trkpt>
      <trkpt lat="49.8985" lon="3.40257">
        <ele>70</ele>
        <time>2023-08-06T14:46:31Z</time>
      </trkpt>
      <trkpt lat="49.89847" lon="3.40256">
        <ele>70</ele>
        <time>2023-08-06T14:46:32Z</time>
      </trkpt>
      <trkpt lat="49.89843" lon="3.40254">
        <ele>70</ele>
        <time>2023-08-06T14:46:33Z</time>
      </trkpt>
      <trkpt lat="49.8984" lon="3.40252">
        <ele>70</ele>
        <time>2023-08-06T14:46:34Z</time>
      </trkpt>
      <trkpt lat="49.89798" lon="3.40233">
        <ele>69.4</ele>
        <time>2023-08-06T14:46:47Z</time>
      </trkpt>
      <trkpt lat="49.89785" lon="3.40228">
        <ele>69.2</ele>
        <time>2023-08-06T14:46:51Z</time>
      </trkpt>
      <trkpt lat="49.89775" lon="3.40223">
        <ele>69</ele>
        <time>2023-08-06T14:46:54Z</time>
      </trkpt>
      <trkpt lat="49.89758" lon="3.40216">
        <ele>68.2</ele>
        <time>2023-08-06T14:46:59Z</time>
      </trkpt>
      <trkpt lat="49.89732" lon="3.40204">
        <ele>67.6</ele>
        <time>2023-08-06T14:47:06Z</time>
      </trkpt>
      <trkpt lat="49.89718" lon="3.40197">
        <ele>67</ele>
        <time>2023-08-06T14:47:10Z</time>
      </trkpt>
      <trkpt lat="49.89689" lon="3.40185">
        <ele>66.8</ele>
        <time>2023-08-06T14:47:17Z</time>
      </trkpt>
      <trkpt lat="49.89646" lon="3.40164">
        <ele>68.2</ele>
        <time>2023-08-06T14:47:28Z</time>
      </trkpt>
      <trkpt lat="49.8963" lon="3.40155">
        <ele>69.4</ele>
        <time>2023-08-06T14:47:32Z</time>
      </trkpt>
      <trkpt lat="49.89605" lon="3.40145">
        <ele>70</ele>
        <time>2023-08-06T14:47:38Z</time>
      </trkpt>
      <trkpt lat="49.89601" lon="3.40143">
        <ele>70</ele>
        <time>2023-08-06T14:47:39Z</time>
      </trkpt>
      <trkpt lat="49.89597" lon="3.40141">
        <ele>70</ele>
        <time>2023-08-06T14:47:40Z</time>
      </trkpt>
      <trkpt lat="49.89594" lon="3.4014">
        <ele>70</ele>
        <time>2023-08-06T14:47:41Z</time>
      </trkpt>
      <trkpt lat="49.89589" lon="3.40138">
        <ele>70</ele>
        <time>2023-08-06T14:47:42Z</time>
      </trkpt>
      <trkpt lat="49.89584" lon="3.40136">
        <ele>70</ele>
        <time>2023-08-06T14:47:43Z</time>
      </trkpt>
      <trkpt lat="49.8958" lon="3.40134">
        <ele>70</ele>
        <time>2023-08-06T14:47:44Z</time>
      </trkpt>
      <trkpt lat="49.89576" lon="3.40132">
        <ele>70</ele>
        <time>2023-08-06T14:47:45Z</time>
      </trkpt>
      <trkpt lat="49.89573" lon="3.40131">
        <ele>70</ele>
        <time>2023-08-06T14:47:46Z</time>
      </trkpt>
      <trkpt lat="49.89568" lon="3.40129">
        <ele>70</ele>
        <time>2023-08-06T14:47:47Z</time>
      </trkpt>
      <trkpt lat="49.89564" lon="3.40127">
        <ele>69.8</ele>
        <time>2023-08-06T14:47:48Z</time>
      </trkpt>
      <trkpt lat="49.8956" lon="3.40125">
        <ele>69.8</ele>
        <time>2023-08-06T14:47:49Z</time>
      </trkpt>
      <trkpt lat="49.89533" lon="3.40111">
        <ele>69.8</ele>
        <time>2023-08-06T14:47:56Z</time>
      </trkpt>
      <trkpt lat="49.89529" lon="3.40108">
        <ele>69.8</ele>
        <time>2023-08-06T14:47:57Z</time>
      </trkpt>
      <trkpt lat="49.89521" lon="3.40102">
        <ele>69.8</ele>
        <time>2023-08-06T14:47:59Z</time>
      </trkpt>
      <trkpt lat="49.89517" lon="3.401">
        <ele>70</ele>
        <time>2023-08-06T14:48:00Z</time>
      </trkpt>
      <trkpt lat="49.89514" lon="3.40098">
        <ele>70</ele>
        <time>2023-08-06T14:48:01Z</time>
      </trkpt>
      <trkpt lat="49.89511" lon="3.40094">
        <ele>70</ele>
        <time>2023-08-06T14:48:02Z</time>
      </trkpt>
      <trkpt lat="49.89499" lon="3.40086">
        <ele>69.8</ele>
        <time>2023-08-06T14:48:05Z</time>
      </trkpt>
      <trkpt lat="49.89496" lon="3.40083">
        <ele>69.8</ele>
        <time>2023-08-06T14:48:06Z</time>
      </trkpt>
      <trkpt lat="49.89491" lon="3.40079">
        <ele>69.8</ele>
        <time>2023-08-06T14:48:07Z</time>
      </trkpt>
      <trkpt lat="49.89487" lon="3.40076">
        <ele>69.8</ele>
        <time>2023-08-06T14:48:08Z</time>
      </trkpt>
      <trkpt lat="49.89464" lon="3.40059">
        <ele>69.2</ele>
        <time>2023-08-06T14:48:14Z</time>
      </trkpt>
      <trkpt lat="49.89458" lon="3.40054">
        <ele>69.2</ele>
        <time>2023-08-06T14:48:16Z</time>
      </trkpt>
      <trkpt lat="49.89447" lon="3.40045">
        <ele>69.4</ele>
        <time>2023-08-06T14:48:19Z</time>
      </trkpt>
      <trkpt lat="49.89444" lon="3.40042">
        <ele>69.4</ele>
        <time>2023-08-06T14:48:20Z</time>
      </trkpt>
      <trkpt lat="49.89439" lon="3.40038">
        <ele>69.4</ele>
        <time>2023-08-06T14:48:21Z</time>
      </trkpt>
      <trkpt lat="49.89436" lon="3.40035">
        <ele>69.6</ele>
        <time>2023-08-06T14:48:22Z</time>
      </trkpt>
      <trkpt lat="49.89413" lon="3.4002">
        <ele>70.2</ele>
        <time>2023-08-06T14:48:28Z</time>
      </trkpt>
      <trkpt lat="49.8941" lon="3.40017">
        <ele>70.4</ele>
        <time>2023-08-06T14:48:29Z</time>
      </trkpt>
      <trkpt lat="49.89381" lon="3.39992">
        <ele>71</ele>
        <time>2023-08-06T14:48:37Z</time>
      </trkpt>
      <trkpt lat="49.8937" lon="3.39987">
        <ele>71.2</ele>
        <time>2023-08-06T14:48:40Z</time>
      </trkpt>
      <trkpt lat="49.89366" lon="3.39984">
        <ele>71.4</ele>
        <time>2023-08-06T14:48:41Z</time>
      </trkpt>
      <trkpt lat="49.89362" lon="3.39983">
        <ele>71.4</ele>
        <time>2023-08-06T14:48:42Z</time>
      </trkpt>
      <trkpt lat="49.89359" lon="3.39982">
        <ele>71.6</ele>
        <time>2023-08-06T14:48:43Z</time>
      </trkpt>
      <trkpt lat="49.89356" lon="3.39981">
        <ele>71.6</ele>
        <time>2023-08-06T14:48:44Z</time>
      </trkpt>
      <trkpt lat="49.89348" lon="3.39979">
        <ele>71.8</ele>
        <time>2023-08-06T14:48:46Z</time>
      </trkpt>
      <trkpt lat="49.89344" lon="3.39977">
        <ele>71.8</ele>
        <time>2023-08-06T14:48:47Z</time>
      </trkpt>
      <trkpt lat="49.89326" lon="3.39972">
        <ele>72</ele>
        <time>2023-08-06T14:48:52Z</time>
      </trkpt>
      <trkpt lat="49.89323" lon="3.39971">
        <ele>72</ele>
        <time>2023-08-06T14:48:53Z</time>
      </trkpt>
      <trkpt lat="49.8932" lon="3.3997">
        <ele>72</ele>
        <time>2023-08-06T14:48:54Z</time>
      </trkpt>
      <trkpt lat="49.89312" lon="3.39967">
        <ele>71.8</ele>
        <time>2023-08-06T14:48:56Z</time>
      </trkpt>
      <trkpt lat="49.89309" lon="3.39966">
        <ele>71.8</ele>
        <time>2023-08-06T14:48:57Z</time>
      </trkpt>
      <trkpt lat="49.89306" lon="3.39965">
        <ele>71.8</ele>
        <time>2023-08-06T14:48:58Z</time>
      </trkpt>
      <trkpt lat="49.89303" lon="3.39964">
        <ele>71.6</ele>
        <time>2023-08-06T14:48:59Z</time>
      </trkpt>
      <trkpt lat="49.89299" lon="3.39963">
        <ele>71.6</ele>
        <time>2023-08-06T14:49:00Z</time>
      </trkpt>
      <trkpt lat="49.89295" lon="3.39962">
        <ele>71.6</ele>
        <time>2023-08-06T14:49:01Z</time>
      </trkpt>
      <trkpt lat="49.8929" lon="3.39961">
        <ele>71.6</ele>
        <time>2023-08-06T14:49:03Z</time>
      </trkpt>
      <trkpt lat="49.89287" lon="3.39961">
        <ele>71.6</ele>
        <time>2023-08-06T14:49:04Z</time>
      </trkpt>
      <trkpt lat="49.89285" lon="3.3996">
        <ele>71.6</ele>
        <time>2023-08-06T14:49:05Z</time>
      </trkpt>
      <trkpt lat="49.89281" lon="3.39959">
        <ele>71.6</ele>
        <time>2023-08-06T14:49:06Z</time>
      </trkpt>
      <trkpt lat="49.89279" lon="3.39958">
        <ele>71.8</ele>
        <time>2023-08-06T14:49:07Z</time>
      </trkpt>
      <trkpt lat="49.89276" lon="3.39957">
        <ele>72</ele>
        <time>2023-08-06T14:49:08Z</time>
      </trkpt>
      <trkpt lat="49.89276" lon="3.39957">
        <ele>72</ele>
        <time>2023-08-06T14:49:09Z</time>
      </trkpt>
      <trkpt lat="49.8927" lon="3.39955">
        <ele>72.2</ele>
        <time>2023-08-06T14:49:10Z</time>
      </trkpt>
      <trkpt lat="49.89267" lon="3.39954">
        <ele>72.2</ele>
        <time>2023-08-06T14:49:11Z</time>
      </trkpt>
      <trkpt lat="49.89265" lon="3.39953">
        <ele>72.2</ele>
        <time>2023-08-06T14:49:12Z</time>
      </trkpt>
      <trkpt lat="49.89259" lon="3.39951">
        <ele>72.4</ele>
        <time>2023-08-06T14:49:14Z</time>
      </trkpt>
      <trkpt lat="49.89257" lon="3.39951">
        <ele>72.4</ele>
        <time>2023-08-06T14:49:15Z</time>
      </trkpt>
      <trkpt lat="49.89254" lon="3.3995">
        <ele>72.6</ele>
        <time>2023-08-06T14:49:16Z</time>
      </trkpt>
      <trkpt lat="49.89249" lon="3.39948">
        <ele>72.8</ele>
        <time>2023-08-06T14:49:18Z</time>
      </trkpt>
      <trkpt lat="49.89246" lon="3.39948">
        <ele>73</ele>
        <time>2023-08-06T14:49:19Z</time>
      </trkpt>
      <trkpt lat="49.89244" lon="3.39948">
        <ele>73</ele>
        <time>2023-08-06T14:49:20Z</time>
      </trkpt>
      <trkpt lat="49.89241" lon="3.39947">
        <ele>73.2</ele>
        <time>2023-08-06T14:49:21Z</time>
      </trkpt>
      <trkpt lat="49.89238" lon="3.39947">
        <ele>73.2</ele>
        <time>2023-08-06T14:49:22Z</time>
      </trkpt>
      <trkpt lat="49.89234" lon="3.39946">
        <ele>73.6</ele>
        <time>2023-08-06T14:49:24Z</time>
      </trkpt>
      <trkpt lat="49.89231" lon="3.39946">
        <ele>73.6</ele>
        <time>2023-08-06T14:49:25Z</time>
      </trkpt>
      <trkpt lat="49.89229" lon="3.39946">
        <ele>73.8</ele>
        <time>2023-08-06T14:49:26Z</time>
      </trkpt>
      <trkpt lat="49.89226" lon="3.39946">
        <ele>73.8</ele>
        <time>2023-08-06T14:49:27Z</time>
      </trkpt>
      <trkpt lat="49.89224" lon="3.39946">
        <ele>73.8</ele>
        <time>2023-08-06T14:49:28Z</time>
      </trkpt>
      <trkpt lat="49.89222" lon="3.39946">
        <ele>74</ele>
        <time>2023-08-06T14:49:29Z</time>
      </trkpt>
      <trkpt lat="49.89222" lon="3.39946">
        <ele>74.2</ele>
        <time>2023-08-06T14:49:30Z</time>
      </trkpt>
      <trkpt lat="49.89217" lon="3.39947">
        <ele>74.4</ele>
        <time>2023-08-06T14:49:31Z</time>
      </trkpt>
      <trkpt lat="49.89215" lon="3.39947">
        <ele>74.4</ele>
        <time>2023-08-06T14:49:32Z</time>
      </trkpt>
      <trkpt lat="49.89213" lon="3.39947">
        <ele>74.6</ele>
        <time>2023-08-06T14:49:33Z</time>
      </trkpt>
      <trkpt lat="49.89211" lon="3.39947">
        <ele>74.6</ele>
        <time>2023-08-06T14:49:34Z</time>
      </trkpt>
      <trkpt lat="49.89208" lon="3.39947">
        <ele>74.6</ele>
        <time>2023-08-06T14:49:35Z</time>
      </trkpt>
      <trkpt lat="49.89206" lon="3.39947">
        <ele>74.8</ele>
        <time>2023-08-06T14:49:36Z</time>
      </trkpt>
      <trkpt lat="49.89204" lon="3.39947">
        <ele>75</ele>
        <time>2023-08-06T14:49:37Z</time>
      </trkpt>
      <trkpt lat="49.89203" lon="3.39948">
        <ele>75</ele>
        <time>2023-08-06T14:49:38Z</time>
      </trkpt>
      <trkpt lat="49.892" lon="3.39948">
        <ele>75</ele>
        <time>2023-08-06T14:49:39Z</time>
      </trkpt>
      <trkpt lat="49.89198" lon="3.39948">
        <ele>75</ele>
        <time>2023-08-06T14:49:40Z</time>
      </trkpt>
      <trkpt lat="49.89196" lon="3.39949">
        <ele>75</ele>
        <time>2023-08-06T14:49:41Z</time>
      </trkpt>
      <trkpt lat="49.89194" lon="3.3995">
        <ele>75.2</ele>
        <time>2023-08-06T14:49:42Z</time>
      </trkpt>
      <trkpt lat="49.89188" lon="3.39952">
        <ele>75.4</ele>
        <time>2023-08-06T14:49:45Z</time>
      </trkpt>
      <trkpt lat="49.89174" lon="3.39959">
        <ele>76.6</ele>
        <time>2023-08-06T14:49:52Z</time>
      </trkpt>
      <trkpt lat="49.89171" lon="3.3996">
        <ele>76.6</ele>
        <time>2023-08-06T14:49:53Z</time>
      </trkpt>
      <trkpt lat="49.89169" lon="3.39961">
        <ele>76.6</ele>
        <time>2023-08-06T14:49:54Z</time>
      </trkpt>
      <trkpt lat="49.89168" lon="3.39962">
        <ele>76.6</ele>
        <time>2023-08-06T14:49:55Z</time>
      </trkpt>
      <trkpt lat="49.89166" lon="3.39963">
        <ele>76.8</ele>
        <time>2023-08-06T14:49:56Z</time>
      </trkpt>
      <trkpt lat="49.89163" lon="3.39964">
        <ele>76.8</ele>
        <time>2023-08-06T14:49:57Z</time>
      </trkpt>
      <trkpt lat="49.89161" lon="3.39965">
        <ele>76.8</ele>
        <time>2023-08-06T14:49:58Z</time>
      </trkpt>
      <trkpt lat="49.89159" lon="3.39965">
        <ele>76.8</ele>
        <time>2023-08-06T14:49:59Z</time>
      </trkpt>
      <trkpt lat="49.89157" lon="3.39966">
        <ele>76.8</ele>
        <time>2023-08-06T14:50:00Z</time>
      </trkpt>
      <trkpt lat="49.89155" lon="3.39967">
        <ele>76.8</ele>
        <time>2023-08-06T14:50:01Z</time>
      </trkpt>
      <trkpt lat="49.89143" lon="3.39972">
        <ele>77.4</ele>
        <time>2023-08-06T14:50:07Z</time>
      </trkpt>
      <trkpt lat="49.89141" lon="3.39973">
        <ele>77.4</ele>
        <time>2023-08-06T14:50:08Z</time>
      </trkpt>
      <trkpt lat="49.89135" lon="3.39974">
        <ele>77.6</ele>
        <time>2023-08-06T14:50:11Z</time>
      </trkpt>
      <trkpt lat="49.89132" lon="3.39975">
        <ele>77.4</ele>
        <time>2023-08-06T14:50:12Z</time>
      </trkpt>
      <trkpt lat="49.8913" lon="3.39975">
        <ele>77.4</ele>
        <time>2023-08-06T14:50:13Z</time>
      </trkpt>
      <trkpt lat="49.89109" lon="3.39976">
        <ele>78.4</ele>
        <time>2023-08-06T14:50:23Z</time>
      </trkpt>
      <trkpt lat="49.89103" lon="3.39975">
        <ele>78.8</ele>
        <time>2023-08-06T14:50:26Z</time>
      </trkpt>
      <trkpt lat="49.89087" lon="3.39972">
        <ele>79.4</ele>
        <time>2023-08-06T14:50:34Z</time>
      </trkpt>
      <trkpt lat="49.89081" lon="3.39971">
        <ele>79.6</ele>
        <time>2023-08-06T14:50:36Z</time>
      </trkpt>
      <trkpt lat="49.89061" lon="3.39966">
        <ele>80.2</ele>
        <time>2023-08-06T14:50:45Z</time>
      </trkpt>
      <trkpt lat="49.89054" lon="3.39964">
        <ele>80.6</ele>
        <time>2023-08-06T14:50:48Z</time>
      </trkpt>
      <trkpt lat="49.89035" lon="3.39959">
        <ele>81.2</ele>
        <time>2023-08-06T14:50:56Z</time>
      </trkpt>
      <trkpt lat="49.8903" lon="3.39959">
        <ele>81.6</ele>
        <time>2023-08-06T14:50:58Z</time>
      </trkpt>
      <trkpt lat="49.89018" lon="3.39957">
        <ele>82.2</ele>
        <time>2023-08-06T14:51:03Z</time>
      </trkpt>
      <trkpt lat="49.89013" lon="3.39956">
        <ele>82.4</ele>
        <time>2023-08-06T14:51:05Z</time>
      </trkpt>
      <trkpt lat="49.89011" lon="3.39956">
        <ele>82.6</ele>
        <time>2023-08-06T14:51:06Z</time>
      </trkpt>
      <trkpt lat="49.89009" lon="3.39955">
        <ele>82.6</ele>
        <time>2023-08-06T14:51:07Z</time>
      </trkpt>
      <trkpt lat="49.89007" lon="3.39956">
        <ele>82.6</ele>
        <time>2023-08-06T14:51:08Z</time>
      </trkpt>
      <trkpt lat="49.89004" lon="3.39955">
        <ele>82.6</ele>
        <time>2023-08-06T14:51:09Z</time>
      </trkpt>
      <trkpt lat="49.89002" lon="3.39955">
        <ele>82.6</ele>
        <time>2023-08-06T14:51:10Z</time>
      </trkpt>
      <trkpt lat="49.89" lon="3.39954">
        <ele>82.6</ele>
        <time>2023-08-06T14:51:11Z</time>
      </trkpt>
      <trkpt lat="49.88996" lon="3.39954">
        <ele>82.8</ele>
        <time>2023-08-06T14:51:13Z</time>
      </trkpt>
      <trkpt lat="49.88979" lon="3.39951">
        <ele>82.6</ele>
        <time>2023-08-06T14:51:20Z</time>
      </trkpt>
      <trkpt lat="49.88963" lon="3.39942">
        <ele>83.4</ele>
        <time>2023-08-06T14:51:27Z</time>
      </trkpt>
      <trkpt lat="49.88958" lon="3.39938">
        <ele>84</ele>
        <time>2023-08-06T14:51:29Z</time>
      </trkpt>
      <trkpt lat="49.88945" lon="3.39921">
        <ele>84.6</ele>
        <time>2023-08-06T14:51:35Z</time>
      </trkpt>
      <trkpt lat="49.88936" lon="3.399">
        <ele>85.2</ele>
        <time>2023-08-06T14:51:41Z</time>
      </trkpt>
      <trkpt lat="49.88935" lon="3.39897">
        <ele>85.4</ele>
        <time>2023-08-06T14:51:42Z</time>
      </trkpt>
      <trkpt lat="49.88933" lon="3.39893">
        <ele>85.4</ele>
        <time>2023-08-06T14:51:43Z</time>
      </trkpt>
      <trkpt lat="49.88932" lon="3.3989">
        <ele>85.6</ele>
        <time>2023-08-06T14:51:44Z</time>
      </trkpt>
      <trkpt lat="49.8893" lon="3.39886">
        <ele>85.6</ele>
        <time>2023-08-06T14:51:45Z</time>
      </trkpt>
      <trkpt lat="49.88928" lon="3.39882">
        <ele>85.6</ele>
        <time>2023-08-06T14:51:46Z</time>
      </trkpt>
      <trkpt lat="49.88927" lon="3.39878">
        <ele>85.8</ele>
        <time>2023-08-06T14:51:47Z</time>
      </trkpt>
      <trkpt lat="49.88925" lon="3.39874">
        <ele>86</ele>
        <time>2023-08-06T14:51:48Z</time>
      </trkpt>
      <trkpt lat="49.88924" lon="3.39871">
        <ele>86</ele>
        <time>2023-08-06T14:51:49Z</time>
      </trkpt>
      <trkpt lat="49.88922" lon="3.39868">
        <ele>86.2</ele>
        <time>2023-08-06T14:51:50Z</time>
      </trkpt>
      <trkpt lat="49.8892" lon="3.39863">
        <ele>86.4</ele>
        <time>2023-08-06T14:51:51Z</time>
      </trkpt>
      <trkpt lat="49.88919" lon="3.3986">
        <ele>86.6</ele>
        <time>2023-08-06T14:51:52Z</time>
      </trkpt>
      <trkpt lat="49.88917" lon="3.39856">
        <ele>86.6</ele>
        <time>2023-08-06T14:51:53Z</time>
      </trkpt>
      <trkpt lat="49.88915" lon="3.39852">
        <ele>86.8</ele>
        <time>2023-08-06T14:51:54Z</time>
      </trkpt>
      <trkpt lat="49.88914" lon="3.39847">
        <ele>86.8</ele>
        <time>2023-08-06T14:51:55Z</time>
      </trkpt>
      <trkpt lat="49.88912" lon="3.39843">
        <ele>86.8</ele>
        <time>2023-08-06T14:51:56Z</time>
      </trkpt>
      <trkpt lat="49.8891" lon="3.39839">
        <ele>86.8</ele>
        <time>2023-08-06T14:51:57Z</time>
      </trkpt>
      <trkpt lat="49.88908" lon="3.39834">
        <ele>86.8</ele>
        <time>2023-08-06T14:51:58Z</time>
      </trkpt>
      <trkpt lat="49.88906" lon="3.39832">
        <ele>86.8</ele>
        <time>2023-08-06T14:51:59Z</time>
      </trkpt>
      <trkpt lat="49.88904" lon="3.39828">
        <ele>87</ele>
        <time>2023-08-06T14:52:00Z</time>
      </trkpt>
      <trkpt lat="49.88902" lon="3.39824">
        <ele>87</ele>
        <time>2023-08-06T14:52:01Z</time>
      </trkpt>
      <trkpt lat="49.889" lon="3.3982">
        <ele>86.8</ele>
        <time>2023-08-06T14:52:02Z</time>
      </trkpt>
      <trkpt lat="49.88887" lon="3.39807">
        <ele>86.6</ele>
        <time>2023-08-06T14:52:07Z</time>
      </trkpt>
      <trkpt lat="49.88868" lon="3.39802">
        <ele>86.4</ele>
        <time>2023-08-06T14:52:13Z</time>
      </trkpt>
      <trkpt lat="49.88845" lon="3.39811">
        <ele>86.2</ele>
        <time>2023-08-06T14:52:20Z</time>
      </trkpt>
      <trkpt lat="49.88811" lon="3.39834">
        <ele>86</ele>
        <time>2023-08-06T14:52:31Z</time>
      </trkpt>
      <trkpt lat="49.88781" lon="3.39847">
        <ele>86.4</ele>
        <time>2023-08-06T14:52:39Z</time>
      </trkpt>
      <trkpt lat="49.88744" lon="3.39857">
        <ele>86.6</ele>
        <time>2023-08-06T14:52:48Z</time>
      </trkpt>
      <trkpt lat="49.88715" lon="3.3986">
        <ele>85.6</ele>
        <time>2023-08-06T14:52:53Z</time>
      </trkpt>
      <trkpt lat="49.88709" lon="3.3986">
        <ele>85.6</ele>
        <time>2023-08-06T14:52:54Z</time>
      </trkpt>
      <trkpt lat="49.88697" lon="3.39861">
        <ele>85.6</ele>
        <time>2023-08-06T14:52:55Z</time>
      </trkpt>
      <trkpt lat="49.88697" lon="3.39861">
        <ele>85.4</ele>
        <time>2023-08-06T14:52:56Z</time>
      </trkpt>
      <trkpt lat="49.88664" lon="3.39863">
        <ele>84.6</ele>
        <time>2023-08-06T14:53:01Z</time>
      </trkpt>
      <trkpt lat="49.88657" lon="3.39863">
        <ele>84.2</ele>
        <time>2023-08-06T14:53:02Z</time>
      </trkpt>
      <trkpt lat="49.88628" lon="3.39865">
        <ele>83.2</ele>
        <time>2023-08-06T14:53:06Z</time>
      </trkpt>
      <trkpt lat="49.88609" lon="3.39866">
        <ele>82.6</ele>
        <time>2023-08-06T14:53:08Z</time>
      </trkpt>
      <trkpt lat="49.88602" lon="3.39867">
        <ele>82</ele>
        <time>2023-08-06T14:53:09Z</time>
      </trkpt>
      <trkpt lat="49.88572" lon="3.3987">
        <ele>80.6</ele>
        <time>2023-08-06T14:53:12Z</time>
      </trkpt>
      <trkpt lat="49.88555" lon="3.39871">
        <ele>79.4</ele>
        <time>2023-08-06T14:53:14Z</time>
      </trkpt>
      <trkpt lat="49.88545" lon="3.39871">
        <ele>79</ele>
        <time>2023-08-06T14:53:15Z</time>
      </trkpt>
      <trkpt lat="49.88535" lon="3.3987">
        <ele>78.4</ele>
        <time>2023-08-06T14:53:16Z</time>
      </trkpt>
      <trkpt lat="49.88525" lon="3.39869">
        <ele>78.2</ele>
        <time>2023-08-06T14:53:17Z</time>
      </trkpt>
      <trkpt lat="49.88505" lon="3.39867">
        <ele>77</ele>
        <time>2023-08-06T14:53:18Z</time>
      </trkpt>
      <trkpt lat="49.88493" lon="3.39866">
        <ele>76.4</ele>
        <time>2023-08-06T14:53:19Z</time>
      </trkpt>
      <trkpt lat="49.88483" lon="3.39867">
        <ele>75.6</ele>
        <time>2023-08-06T14:53:20Z</time>
      </trkpt>
      <trkpt lat="49.8846" lon="3.39871">
        <ele>74.4</ele>
        <time>2023-08-06T14:53:22Z</time>
      </trkpt>
      <trkpt lat="49.88443" lon="3.39873">
        <ele>72.4</ele>
        <time>2023-08-06T14:53:24Z</time>
      </trkpt>
      <trkpt lat="49.88433" lon="3.39874">
        <ele>71.4</ele>
        <time>2023-08-06T14:53:25Z</time>
      </trkpt>
      <trkpt lat="49.88414" lon="3.39873">
        <ele>70.4</ele>
        <time>2023-08-06T14:53:27Z</time>
      </trkpt>
      <trkpt lat="49.88405" lon="3.39871">
        <ele>70.2</ele>
        <time>2023-08-06T14:53:28Z</time>
      </trkpt>
      <trkpt lat="49.88396" lon="3.39869">
        <ele>69.8</ele>
        <time>2023-08-06T14:53:29Z</time>
      </trkpt>
      <trkpt lat="49.88387" lon="3.39866">
        <ele>69.6</ele>
        <time>2023-08-06T14:53:30Z</time>
      </trkpt>
      <trkpt lat="49.88379" lon="3.39863">
        <ele>69.2</ele>
        <time>2023-08-06T14:53:31Z</time>
      </trkpt>
      <trkpt lat="49.88371" lon="3.3986">
        <ele>68.8</ele>
        <time>2023-08-06T14:53:32Z</time>
      </trkpt>
      <trkpt lat="49.88371" lon="3.3986">
        <ele>68.6</ele>
        <time>2023-08-06T14:53:33Z</time>
      </trkpt>
      <trkpt lat="49.88355" lon="3.39853">
        <ele>68.4</ele>
        <time>2023-08-06T14:53:34Z</time>
      </trkpt>
      <trkpt lat="49.88347" lon="3.39849">
        <ele>68.4</ele>
        <time>2023-08-06T14:53:35Z</time>
      </trkpt>
      <trkpt lat="49.8834" lon="3.39845">
        <ele>68.2</ele>
        <time>2023-08-06T14:53:36Z</time>
      </trkpt>
      <trkpt lat="49.88332" lon="3.39841">
        <ele>68</ele>
        <time>2023-08-06T14:53:37Z</time>
      </trkpt>
      <trkpt lat="49.88325" lon="3.39838">
        <ele>67.6</ele>
        <time>2023-08-06T14:53:38Z</time>
      </trkpt>
      <trkpt lat="49.88318" lon="3.39835">
        <ele>67.6</ele>
        <time>2023-08-06T14:53:39Z</time>
      </trkpt>
      <trkpt lat="49.88311" lon="3.39832">
        <ele>67.4</ele>
        <time>2023-08-06T14:53:40Z</time>
      </trkpt>
      <trkpt lat="49.88305" lon="3.39829">
        <ele>67.4</ele>
        <time>2023-08-06T14:53:41Z</time>
      </trkpt>
      <trkpt lat="49.88291" lon="3.39823">
        <ele>67</ele>
        <time>2023-08-06T14:53:43Z</time>
      </trkpt>
      <trkpt lat="49.88285" lon="3.39819">
        <ele>67</ele>
        <time>2023-08-06T14:53:44Z</time>
      </trkpt>
      <trkpt lat="49.88278" lon="3.39815">
        <ele>66.8</ele>
        <time>2023-08-06T14:53:45Z</time>
      </trkpt>
      <trkpt lat="49.88271" lon="3.39811">
        <ele>66.8</ele>
        <time>2023-08-06T14:53:46Z</time>
      </trkpt>
      <trkpt lat="49.88265" lon="3.39807">
        <ele>66.8</ele>
        <time>2023-08-06T14:53:47Z</time>
      </trkpt>
      <trkpt lat="49.88259" lon="3.39802">
        <ele>66.8</ele>
        <time>2023-08-06T14:53:48Z</time>
      </trkpt>
      <trkpt lat="49.88247" lon="3.39792">
        <ele>66.6</ele>
        <time>2023-08-06T14:53:50Z</time>
      </trkpt>
      <trkpt lat="49.88241" lon="3.39787">
        <ele>66.6</ele>
        <time>2023-08-06T14:53:51Z</time>
      </trkpt>
      <trkpt lat="49.88241" lon="3.39787">
        <ele>66.6</ele>
        <time>2023-08-06T14:53:52Z</time>
      </trkpt>
      <trkpt lat="49.88231" lon="3.39777">
        <ele>66.6</ele>
        <time>2023-08-06T14:53:54Z</time>
      </trkpt>
      <trkpt lat="49.88219" lon="3.39767">
        <ele>66.6</ele>
        <time>2023-08-06T14:53:55Z</time>
      </trkpt>
      <trkpt lat="49.88213" lon="3.39761">
        <ele>66.4</ele>
        <time>2023-08-06T14:53:56Z</time>
      </trkpt>
      <trkpt lat="49.88207" lon="3.39756">
        <ele>66.4</ele>
        <time>2023-08-06T14:53:57Z</time>
      </trkpt>
      <trkpt lat="49.88202" lon="3.39751">
        <ele>66.2</ele>
        <time>2023-08-06T14:53:58Z</time>
      </trkpt>
      <trkpt lat="49.88197" lon="3.39746">
        <ele>66.2</ele>
        <time>2023-08-06T14:53:59Z</time>
      </trkpt>
      <trkpt lat="49.88192" lon="3.39741">
        <ele>66.2</ele>
        <time>2023-08-06T14:54:00Z</time>
      </trkpt>
      <trkpt lat="49.88187" lon="3.39736">
        <ele>66.2</ele>
        <time>2023-08-06T14:54:01Z</time>
      </trkpt>
      <trkpt lat="49.88182" lon="3.39731">
        <ele>66</ele>
        <time>2023-08-06T14:54:02Z</time>
      </trkpt>
      <trkpt lat="49.88176" lon="3.39727">
        <ele>66</ele>
        <time>2023-08-06T14:54:03Z</time>
      </trkpt>
      <trkpt lat="49.88171" lon="3.39723">
        <ele>66</ele>
        <time>2023-08-06T14:54:04Z</time>
      </trkpt>
      <trkpt lat="49.88141" lon="3.39704">
        <ele>65.2</ele>
        <time>2023-08-06T14:54:09Z</time>
      </trkpt>
      <trkpt lat="49.88134" lon="3.39701">
        <ele>65</ele>
        <time>2023-08-06T14:54:10Z</time>
      </trkpt>
      <trkpt lat="49.88105" lon="3.39694">
        <ele>64</ele>
        <time>2023-08-06T14:54:14Z</time>
      </trkpt>
      <trkpt lat="49.88096" lon="3.39694">
        <ele>63.6</ele>
        <time>2023-08-06T14:54:15Z</time>
      </trkpt>
      <trkpt lat="49.88063" lon="3.39693">
        <ele>62.2</ele>
        <time>2023-08-06T14:54:19Z</time>
      </trkpt>
      <trkpt lat="49.88055" lon="3.39693">
        <ele>61.8</ele>
        <time>2023-08-06T14:54:20Z</time>
      </trkpt>
      <trkpt lat="49.88046" lon="3.39693">
        <ele>60.8</ele>
        <time>2023-08-06T14:54:21Z</time>
      </trkpt>
      <trkpt lat="49.88029" lon="3.39694">
        <ele>59.6</ele>
        <time>2023-08-06T14:54:23Z</time>
      </trkpt>
      <trkpt lat="49.87986" lon="3.39696">
        <ele>58</ele>
        <time>2023-08-06T14:54:28Z</time>
      </trkpt>
      <trkpt lat="49.87961" lon="3.39698">
        <ele>56.8</ele>
        <time>2023-08-06T14:54:31Z</time>
      </trkpt>
      <trkpt lat="49.87937" lon="3.39699">
        <ele>56.2</ele>
        <time>2023-08-06T14:54:34Z</time>
      </trkpt>
      <trkpt lat="49.87929" lon="3.397">
        <ele>56</ele>
        <time>2023-08-06T14:54:35Z</time>
      </trkpt>
      <trkpt lat="49.87921" lon="3.39699">
        <ele>56</ele>
        <time>2023-08-06T14:54:36Z</time>
      </trkpt>
      <trkpt lat="49.87913" lon="3.39698">
        <ele>55.8</ele>
        <time>2023-08-06T14:54:37Z</time>
      </trkpt>
      <trkpt lat="49.87905" lon="3.39697">
        <ele>55.6</ele>
        <time>2023-08-06T14:54:38Z</time>
      </trkpt>
      <trkpt lat="49.87897" lon="3.39696">
        <ele>55.4</ele>
        <time>2023-08-06T14:54:39Z</time>
      </trkpt>
      <trkpt lat="49.87873" lon="3.39692">
        <ele>54.8</ele>
        <time>2023-08-06T14:54:42Z</time>
      </trkpt>
      <trkpt lat="49.87858" lon="3.39689">
        <ele>54.6</ele>
        <time>2023-08-06T14:54:44Z</time>
      </trkpt>
      <trkpt lat="49.8785" lon="3.39688">
        <ele>54.6</ele>
        <time>2023-08-06T14:54:45Z</time>
      </trkpt>
      <trkpt lat="49.87843" lon="3.39686">
        <ele>54.4</ele>
        <time>2023-08-06T14:54:46Z</time>
      </trkpt>
      <trkpt lat="49.87835" lon="3.39685">
        <ele>54.2</ele>
        <time>2023-08-06T14:54:47Z</time>
      </trkpt>
      <trkpt lat="49.87828" lon="3.39683">
        <ele>54.2</ele>
        <time>2023-08-06T14:54:48Z</time>
      </trkpt>
      <trkpt lat="49.87821" lon="3.39681">
        <ele>54.2</ele>
        <time>2023-08-06T14:54:49Z</time>
      </trkpt>
      <trkpt lat="49.87814" lon="3.39679">
        <ele>54.2</ele>
        <time>2023-08-06T14:54:50Z</time>
      </trkpt>
      <trkpt lat="49.87807" lon="3.39677">
        <ele>54</ele>
        <time>2023-08-06T14:54:51Z</time>
      </trkpt>
      <trkpt lat="49.878" lon="3.39675">
        <ele>54</ele>
        <time>2023-08-06T14:54:52Z</time>
      </trkpt>
      <trkpt lat="49.87793" lon="3.39674">
        <ele>54</ele>
        <time>2023-08-06T14:54:53Z</time>
      </trkpt>
      <trkpt lat="49.87787" lon="3.39672">
        <ele>54</ele>
        <time>2023-08-06T14:54:54Z</time>
      </trkpt>
      <trkpt lat="49.8778" lon="3.3967">
        <ele>53.8</ele>
        <time>2023-08-06T14:54:55Z</time>
      </trkpt>
      <trkpt lat="49.87773" lon="3.39668">
        <ele>53.8</ele>
        <time>2023-08-06T14:54:56Z</time>
      </trkpt>
      <trkpt lat="49.87767" lon="3.39666">
        <ele>53.6</ele>
        <time>2023-08-06T14:54:57Z</time>
      </trkpt>
      <trkpt lat="49.8776" lon="3.39665">
        <ele>53.6</ele>
        <time>2023-08-06T14:54:58Z</time>
      </trkpt>
      <trkpt lat="49.87754" lon="3.39664">
        <ele>53.6</ele>
        <time>2023-08-06T14:54:59Z</time>
      </trkpt>
      <trkpt lat="49.87748" lon="3.39663">
        <ele>53.6</ele>
        <time>2023-08-06T14:55:00Z</time>
      </trkpt>
      <trkpt lat="49.87742" lon="3.39662">
        <ele>53.6</ele>
        <time>2023-08-06T14:55:01Z</time>
      </trkpt>
      <trkpt lat="49.87735" lon="3.39661">
        <ele>53.4</ele>
        <time>2023-08-06T14:55:02Z</time>
      </trkpt>
      <trkpt lat="49.87729" lon="3.3966">
        <ele>53.4</ele>
        <time>2023-08-06T14:55:03Z</time>
      </trkpt>
      <trkpt lat="49.87729" lon="3.3966">
        <ele>53.2</ele>
        <time>2023-08-06T14:55:04Z</time>
      </trkpt>
      <trkpt lat="49.87718" lon="3.39658">
        <ele>53.2</ele>
        <time>2023-08-06T14:55:05Z</time>
      </trkpt>
      <trkpt lat="49.87712" lon="3.39656">
        <ele>53.2</ele>
        <time>2023-08-06T14:55:06Z</time>
      </trkpt>
      <trkpt lat="49.87707" lon="3.39654">
        <ele>53.2</ele>
        <time>2023-08-06T14:55:07Z</time>
      </trkpt>
      <trkpt lat="49.87702" lon="3.39652">
        <ele>53.2</ele>
        <time>2023-08-06T14:55:08Z</time>
      </trkpt>
      <trkpt lat="49.87697" lon="3.3965">
        <ele>53.4</ele>
        <time>2023-08-06T14:55:09Z</time>
      </trkpt>
      <trkpt lat="49.87692" lon="3.39648">
        <ele>53.6</ele>
        <time>2023-08-06T14:55:10Z</time>
      </trkpt>
      <trkpt lat="49.87682" lon="3.39644">
        <ele>53.6</ele>
        <time>2023-08-06T14:55:12Z</time>
      </trkpt>
      <trkpt lat="49.87677" lon="3.39643">
        <ele>53.8</ele>
        <time>2023-08-06T14:55:13Z</time>
      </trkpt>
      <trkpt lat="49.87673" lon="3.39641">
        <ele>54</ele>
        <time>2023-08-06T14:55:14Z</time>
      </trkpt>
      <trkpt lat="49.87669" lon="3.3964">
        <ele>54</ele>
        <time>2023-08-06T14:55:15Z</time>
      </trkpt>
      <trkpt lat="49.87665" lon="3.39638">
        <ele>54.2</ele>
        <time>2023-08-06T14:55:16Z</time>
      </trkpt>
      <trkpt lat="49.87661" lon="3.39637">
        <ele>54.2</ele>
        <time>2023-08-06T14:55:17Z</time>
      </trkpt>
      <trkpt lat="49.87657" lon="3.39636">
        <ele>54.4</ele>
        <time>2023-08-06T14:55:18Z</time>
      </trkpt>
      <trkpt lat="49.87654" lon="3.39635">
        <ele>54.8</ele>
        <time>2023-08-06T14:55:19Z</time>
      </trkpt>
      <trkpt lat="49.87647" lon="3.39632">
        <ele>55</ele>
        <time>2023-08-06T14:55:21Z</time>
      </trkpt>
      <trkpt lat="49.87644" lon="3.3963">
        <ele>55.2</ele>
        <time>2023-08-06T14:55:22Z</time>
      </trkpt>
      <trkpt lat="49.87641" lon="3.39629">
        <ele>55.4</ele>
        <time>2023-08-06T14:55:23Z</time>
      </trkpt>
      <trkpt lat="49.87638" lon="3.39628">
        <ele>55.4</ele>
        <time>2023-08-06T14:55:24Z</time>
      </trkpt>
      <trkpt lat="49.87635" lon="3.39627">
        <ele>55.6</ele>
        <time>2023-08-06T14:55:25Z</time>
      </trkpt>
      <trkpt lat="49.87632" lon="3.39626">
        <ele>55.6</ele>
        <time>2023-08-06T14:55:26Z</time>
      </trkpt>
      <trkpt lat="49.87629" lon="3.39625">
        <ele>55.8</ele>
        <time>2023-08-06T14:55:27Z</time>
      </trkpt>
      <trkpt lat="49.87626" lon="3.39624">
        <ele>56</ele>
        <time>2023-08-06T14:55:28Z</time>
      </trkpt>
      <trkpt lat="49.87623" lon="3.39623">
        <ele>56.2</ele>
        <time>2023-08-06T14:55:29Z</time>
      </trkpt>
      <trkpt lat="49.87621" lon="3.39622">
        <ele>56.4</ele>
        <time>2023-08-06T14:55:30Z</time>
      </trkpt>
      <trkpt lat="49.87618" lon="3.39621">
        <ele>56.4</ele>
        <time>2023-08-06T14:55:31Z</time>
      </trkpt>
      <trkpt lat="49.87615" lon="3.39621">
        <ele>56.6</ele>
        <time>2023-08-06T14:55:32Z</time>
      </trkpt>
      <trkpt lat="49.87612" lon="3.3962">
        <ele>56.8</ele>
        <time>2023-08-06T14:55:33Z</time>
      </trkpt>
      <trkpt lat="49.87612" lon="3.3962">
        <ele>57</ele>
        <time>2023-08-06T14:55:34Z</time>
      </trkpt>
      <trkpt lat="49.87607" lon="3.39619">
        <ele>57.2</ele>
        <time>2023-08-06T14:55:35Z</time>
      </trkpt>
      <trkpt lat="49.87604" lon="3.39618">
        <ele>57.2</ele>
        <time>2023-08-06T14:55:36Z</time>
      </trkpt>
      <trkpt lat="49.87601" lon="3.39617">
        <ele>57.4</ele>
        <time>2023-08-06T14:55:37Z</time>
      </trkpt>
      <trkpt lat="49.87597" lon="3.39616">
        <ele>57.6</ele>
        <time>2023-08-06T14:55:38Z</time>
      </trkpt>
      <trkpt lat="49.87595" lon="3.39615">
        <ele>57.8</ele>
        <time>2023-08-06T14:55:39Z</time>
      </trkpt>
      <trkpt lat="49.87592" lon="3.39614">
        <ele>57.8</ele>
        <time>2023-08-06T14:55:40Z</time>
      </trkpt>
      <trkpt lat="49.87589" lon="3.39613">
        <ele>58</ele>
        <time>2023-08-06T14:55:41Z</time>
      </trkpt>
      <trkpt lat="49.87589" lon="3.39613">
        <ele>58</ele>
        <time>2023-08-06T14:55:42Z</time>
      </trkpt>
      <trkpt lat="49.87586" lon="3.39613">
        <ele>58.2</ele>
        <time>2023-08-06T14:55:43Z</time>
      </trkpt>
      <trkpt lat="49.8758" lon="3.39612">
        <ele>58.4</ele>
        <time>2023-08-06T14:55:44Z</time>
      </trkpt>
      <trkpt lat="49.8758" lon="3.39612">
        <ele>58.4</ele>
        <time>2023-08-06T14:55:45Z</time>
      </trkpt>
      <trkpt lat="49.87578" lon="3.39611">
        <ele>58.6</ele>
        <time>2023-08-06T14:55:46Z</time>
      </trkpt>
      <trkpt lat="49.87575" lon="3.3961">
        <ele>58.8</ele>
        <time>2023-08-06T14:55:47Z</time>
      </trkpt>
      <trkpt lat="49.87571" lon="3.39609">
        <ele>59</ele>
        <time>2023-08-06T14:55:48Z</time>
      </trkpt>
      <trkpt lat="49.87563" lon="3.39608">
        <ele>59</ele>
        <time>2023-08-06T14:55:49Z</time>
      </trkpt>
      <trkpt lat="49.87563" lon="3.39608">
        <ele>59.2</ele>
        <time>2023-08-06T14:55:50Z</time>
      </trkpt>
      <trkpt lat="49.8756" lon="3.39607">
        <ele>59.4</ele>
        <time>2023-08-06T14:55:51Z</time>
      </trkpt>
      <trkpt lat="49.87557" lon="3.39606">
        <ele>59.4</ele>
        <time>2023-08-06T14:55:52Z</time>
      </trkpt>
      <trkpt lat="49.87552" lon="3.39605">
        <ele>59.4</ele>
        <time>2023-08-06T14:55:53Z</time>
      </trkpt>
      <trkpt lat="49.87548" lon="3.39604">
        <ele>59.4</ele>
        <time>2023-08-06T14:55:54Z</time>
      </trkpt>
      <trkpt lat="49.87548" lon="3.39604">
        <ele>59.6</ele>
        <time>2023-08-06T14:55:55Z</time>
      </trkpt>
      <trkpt lat="49.87544" lon="3.39603">
        <ele>59.6</ele>
        <time>2023-08-06T14:55:56Z</time>
      </trkpt>
      <trkpt lat="49.87541" lon="3.39602">
        <ele>59.8</ele>
        <time>2023-08-06T14:55:57Z</time>
      </trkpt>
      <trkpt lat="49.87538" lon="3.39602">
        <ele>60</ele>
        <time>2023-08-06T14:55:58Z</time>
      </trkpt>
      <trkpt lat="49.87535" lon="3.396">
        <ele>60.2</ele>
        <time>2023-08-06T14:55:59Z</time>
      </trkpt>
      <trkpt lat="49.87528" lon="3.39598">
        <ele>60.4</ele>
        <time>2023-08-06T14:56:00Z</time>
      </trkpt>
      <trkpt lat="49.87528" lon="3.39598">
        <ele>60.4</ele>
        <time>2023-08-06T14:56:01Z</time>
      </trkpt>
      <trkpt lat="49.87525" lon="3.39597">
        <ele>60.4</ele>
        <time>2023-08-06T14:56:02Z</time>
      </trkpt>
      <trkpt lat="49.87522" lon="3.39596">
        <ele>60.6</ele>
        <time>2023-08-06T14:56:03Z</time>
      </trkpt>
      <trkpt lat="49.87518" lon="3.39596">
        <ele>60.6</ele>
        <time>2023-08-06T14:56:04Z</time>
      </trkpt>
      <trkpt lat="49.87516" lon="3.39595">
        <ele>60.6</ele>
        <time>2023-08-06T14:56:05Z</time>
      </trkpt>
      <trkpt lat="49.87512" lon="3.39593">
        <ele>60.8</ele>
        <time>2023-08-06T14:56:06Z</time>
      </trkpt>
      <trkpt lat="49.87509" lon="3.39592">
        <ele>60.8</ele>
        <time>2023-08-06T14:56:07Z</time>
      </trkpt>
      <trkpt lat="49.87505" lon="3.39591">
        <ele>61</ele>
        <time>2023-08-06T14:56:08Z</time>
      </trkpt>
      <trkpt lat="49.875" lon="3.3959">
        <ele>61</ele>
        <time>2023-08-06T14:56:09Z</time>
      </trkpt>
      <trkpt lat="49.87497" lon="3.39589">
        <ele>61</ele>
        <time>2023-08-06T14:56:10Z</time>
      </trkpt>
      <trkpt lat="49.87494" lon="3.39588">
        <ele>61</ele>
        <time>2023-08-06T14:56:11Z</time>
      </trkpt>
      <trkpt lat="49.87491" lon="3.39587">
        <ele>61</ele>
        <time>2023-08-06T14:56:12Z</time>
      </trkpt>
      <trkpt lat="49.87487" lon="3.39586">
        <ele>61.2</ele>
        <time>2023-08-06T14:56:13Z</time>
      </trkpt>
      <trkpt lat="49.87484" lon="3.39585">
        <ele>61.2</ele>
        <time>2023-08-06T14:56:14Z</time>
      </trkpt>
      <trkpt lat="49.87481" lon="3.39584">
        <ele>61</ele>
        <time>2023-08-06T14:56:15Z</time>
      </trkpt>
      <trkpt lat="49.8747" lon="3.39579">
        <ele>61.2</ele>
        <time>2023-08-06T14:56:19Z</time>
      </trkpt>
      <trkpt lat="49.87451" lon="3.39573">
        <ele>62</ele>
        <time>2023-08-06T14:56:25Z</time>
      </trkpt>
      <trkpt lat="49.87448" lon="3.39571">
        <ele>62.2</ele>
        <time>2023-08-06T14:56:26Z</time>
      </trkpt>
      <trkpt lat="49.87423" lon="3.39563">
        <ele>62.6</ele>
        <time>2023-08-06T14:56:34Z</time>
      </trkpt>
      <trkpt lat="49.874" lon="3.39568">
        <ele>62.4</ele>
        <time>2023-08-06T14:56:40Z</time>
      </trkpt>
      <trkpt lat="49.87375" lon="3.39583">
        <ele>61.8</ele>
        <time>2023-08-06T14:56:46Z</time>
      </trkpt>
      <trkpt lat="49.87344" lon="3.39609">
        <ele>61</ele>
        <time>2023-08-06T14:56:52Z</time>
      </trkpt>
      <trkpt lat="49.87332" lon="3.3962">
        <ele>59.8</ele>
        <time>2023-08-06T14:56:54Z</time>
      </trkpt>
      <trkpt lat="49.87317" lon="3.39635">
        <ele>58.8</ele>
        <time>2023-08-06T14:56:56Z</time>
      </trkpt>
      <trkpt lat="49.8731" lon="3.39643">
        <ele>58.2</ele>
        <time>2023-08-06T14:56:57Z</time>
      </trkpt>
      <trkpt lat="49.87295" lon="3.3966">
        <ele>57.4</ele>
        <time>2023-08-06T14:56:59Z</time>
      </trkpt>
      <trkpt lat="49.87266" lon="3.39696">
        <ele>56</ele>
        <time>2023-08-06T14:57:03Z</time>
      </trkpt>
      <trkpt lat="49.87258" lon="3.39706">
        <ele>55.6</ele>
        <time>2023-08-06T14:57:04Z</time>
      </trkpt>
      <trkpt lat="49.87242" lon="3.39721">
        <ele>54.6</ele>
        <time>2023-08-06T14:57:06Z</time>
      </trkpt>
      <trkpt lat="49.87225" lon="3.39732">
        <ele>54</ele>
        <time>2023-08-06T14:57:08Z</time>
      </trkpt>
      <trkpt lat="49.87218" lon="3.39736">
        <ele>53.8</ele>
        <time>2023-08-06T14:57:09Z</time>
      </trkpt>
      <trkpt lat="49.8721" lon="3.39739">
        <ele>53.4</ele>
        <time>2023-08-06T14:57:10Z</time>
      </trkpt>
      <trkpt lat="49.87202" lon="3.39742">
        <ele>53.4</ele>
        <time>2023-08-06T14:57:11Z</time>
      </trkpt>
      <trkpt lat="49.87193" lon="3.39744">
        <ele>53.2</ele>
        <time>2023-08-06T14:57:12Z</time>
      </trkpt>
      <trkpt lat="49.87186" lon="3.39747">
        <ele>53.2</ele>
        <time>2023-08-06T14:57:13Z</time>
      </trkpt>
      <trkpt lat="49.8718" lon="3.39749">
        <ele>53.2</ele>
        <time>2023-08-06T14:57:14Z</time>
      </trkpt>
      <trkpt lat="49.87173" lon="3.3975">
        <ele>53</ele>
        <time>2023-08-06T14:57:15Z</time>
      </trkpt>
      <trkpt lat="49.87166" lon="3.39752">
        <ele>53</ele>
        <time>2023-08-06T14:57:16Z</time>
      </trkpt>
      <trkpt lat="49.87158" lon="3.39754">
        <ele>53</ele>
        <time>2023-08-06T14:57:17Z</time>
      </trkpt>
      <trkpt lat="49.87138" lon="3.39759">
        <ele>53</ele>
        <time>2023-08-06T14:57:20Z</time>
      </trkpt>
      <trkpt lat="49.87131" lon="3.39761">
        <ele>53</ele>
        <time>2023-08-06T14:57:21Z</time>
      </trkpt>
      <trkpt lat="49.87124" lon="3.39763">
        <ele>53</ele>
        <time>2023-08-06T14:57:22Z</time>
      </trkpt>
      <trkpt lat="49.87118" lon="3.39764">
        <ele>53</ele>
        <time>2023-08-06T14:57:23Z</time>
      </trkpt>
      <trkpt lat="49.87114" lon="3.39766">
        <ele>53</ele>
        <time>2023-08-06T14:57:24Z</time>
      </trkpt>
      <trkpt lat="49.87109" lon="3.39767">
        <ele>53</ele>
        <time>2023-08-06T14:57:25Z</time>
      </trkpt>
      <trkpt lat="49.87104" lon="3.39768">
        <ele>53</ele>
        <time>2023-08-06T14:57:26Z</time>
      </trkpt>
      <trkpt lat="49.87099" lon="3.3977">
        <ele>53</ele>
        <time>2023-08-06T14:57:27Z</time>
      </trkpt>
      <trkpt lat="49.87097" lon="3.39771">
        <ele>53.2</ele>
        <time>2023-08-06T14:57:28Z</time>
      </trkpt>
      <trkpt lat="49.87094" lon="3.39772">
        <ele>53.2</ele>
        <time>2023-08-06T14:57:29Z</time>
      </trkpt>
      <trkpt lat="49.87091" lon="3.39773">
        <ele>53.4</ele>
        <time>2023-08-06T14:57:30Z</time>
      </trkpt>
      <trkpt lat="49.87088" lon="3.39774">
        <ele>53.8</ele>
        <time>2023-08-06T14:57:31Z</time>
      </trkpt>
      <trkpt lat="49.87086" lon="3.39775">
        <ele>54.2</ele>
        <time>2023-08-06T14:57:32Z</time>
      </trkpt>
      <trkpt lat="49.87085" lon="3.39776">
        <ele>54.6</ele>
        <time>2023-08-06T14:57:33Z</time>
      </trkpt>
      <trkpt lat="49.87082" lon="3.39777">
        <ele>54.8</ele>
        <time>2023-08-06T14:57:34Z</time>
      </trkpt>
      <trkpt lat="49.87075" lon="3.39781">
        <ele>55.6</ele>
        <time>2023-08-06T14:57:37Z</time>
      </trkpt>
      <trkpt lat="49.87074" lon="3.39782">
        <ele>55.6</ele>
        <time>2023-08-06T14:57:38Z</time>
      </trkpt>
      <trkpt lat="49.87072" lon="3.39784">
        <ele>55.8</ele>
        <time>2023-08-06T14:57:39Z</time>
      </trkpt>
      <trkpt lat="49.87054" lon="3.39796">
        <ele>56.6</ele>
        <time>2023-08-06T14:57:46Z</time>
      </trkpt>
      <trkpt lat="49.87052" lon="3.39798">
        <ele>56.8</ele>
        <time>2023-08-06T14:57:47Z</time>
      </trkpt>
      <trkpt lat="49.8705" lon="3.39799">
        <ele>56.8</ele>
        <time>2023-08-06T14:57:48Z</time>
      </trkpt>
      <trkpt lat="49.87047" lon="3.39801">
        <ele>57</ele>
        <time>2023-08-06T14:57:49Z</time>
      </trkpt>
      <trkpt lat="49.87044" lon="3.39804">
        <ele>57</ele>
        <time>2023-08-06T14:57:50Z</time>
      </trkpt>
      <trkpt lat="49.87041" lon="3.39806">
        <ele>57.2</ele>
        <time>2023-08-06T14:57:51Z</time>
      </trkpt>
      <trkpt lat="49.87039" lon="3.39808">
        <ele>57.4</ele>
        <time>2023-08-06T14:57:52Z</time>
      </trkpt>
      <trkpt lat="49.87036" lon="3.3981">
        <ele>57.6</ele>
        <time>2023-08-06T14:57:53Z</time>
      </trkpt>
      <trkpt lat="49.87034" lon="3.39812">
        <ele>57.6</ele>
        <time>2023-08-06T14:57:54Z</time>
      </trkpt>
      <trkpt lat="49.8703" lon="3.39815">
        <ele>57.8</ele>
        <time>2023-08-06T14:57:55Z</time>
      </trkpt>
      <trkpt lat="49.87027" lon="3.39817">
        <ele>58</ele>
        <time>2023-08-06T14:57:56Z</time>
      </trkpt>
      <trkpt lat="49.87025" lon="3.39819">
        <ele>58</ele>
        <time>2023-08-06T14:57:57Z</time>
      </trkpt>
      <trkpt lat="49.87022" lon="3.39821">
        <ele>58.2</ele>
        <time>2023-08-06T14:57:58Z</time>
      </trkpt>
      <trkpt lat="49.87018" lon="3.39824">
        <ele>58.2</ele>
        <time>2023-08-06T14:57:59Z</time>
      </trkpt>
      <trkpt lat="49.87015" lon="3.39826">
        <ele>58.4</ele>
        <time>2023-08-06T14:58:00Z</time>
      </trkpt>
      <trkpt lat="49.87011" lon="3.39828">
        <ele>58.4</ele>
        <time>2023-08-06T14:58:01Z</time>
      </trkpt>
      <trkpt lat="49.87008" lon="3.39829">
        <ele>58.6</ele>
        <time>2023-08-06T14:58:02Z</time>
      </trkpt>
      <trkpt lat="49.87005" lon="3.39832">
        <ele>58.6</ele>
        <time>2023-08-06T14:58:03Z</time>
      </trkpt>
      <trkpt lat="49.87" lon="3.39835">
        <ele>58.6</ele>
        <time>2023-08-06T14:58:04Z</time>
      </trkpt>
      <trkpt lat="49.86997" lon="3.39837">
        <ele>58.8</ele>
        <time>2023-08-06T14:58:05Z</time>
      </trkpt>
      <trkpt lat="49.86994" lon="3.3984">
        <ele>58.8</ele>
        <time>2023-08-06T14:58:06Z</time>
      </trkpt>
      <trkpt lat="49.8699" lon="3.39842">
        <ele>58.8</ele>
        <time>2023-08-06T14:58:07Z</time>
      </trkpt>
      <trkpt lat="49.86986" lon="3.39844">
        <ele>58.8</ele>
        <time>2023-08-06T14:58:08Z</time>
      </trkpt>
      <trkpt lat="49.86982" lon="3.39847">
        <ele>58.8</ele>
        <time>2023-08-06T14:58:09Z</time>
      </trkpt>
      <trkpt lat="49.86977" lon="3.39851">
        <ele>58.8</ele>
        <time>2023-08-06T14:58:10Z</time>
      </trkpt>
      <trkpt lat="49.86973" lon="3.39853">
        <ele>58.6</ele>
        <time>2023-08-06T14:58:11Z</time>
      </trkpt>
      <trkpt lat="49.86968" lon="3.39856">
        <ele>58.6</ele>
        <time>2023-08-06T14:58:12Z</time>
      </trkpt>
      <trkpt lat="49.86964" lon="3.39859">
        <ele>58.6</ele>
        <time>2023-08-06T14:58:13Z</time>
      </trkpt>
      <trkpt lat="49.86958" lon="3.39863">
        <ele>58.4</ele>
        <time>2023-08-06T14:58:14Z</time>
      </trkpt>
      <trkpt lat="49.86936" lon="3.3988">
        <ele>58</ele>
        <time>2023-08-06T14:58:19Z</time>
      </trkpt>
      <trkpt lat="49.86928" lon="3.39886">
        <ele>57.8</ele>
        <time>2023-08-06T14:58:21Z</time>
      </trkpt>
      <trkpt lat="49.86925" lon="3.39889">
        <ele>57.8</ele>
        <time>2023-08-06T14:58:22Z</time>
      </trkpt>
      <trkpt lat="49.86921" lon="3.39894">
        <ele>57.6</ele>
        <time>2023-08-06T14:58:23Z</time>
      </trkpt>
      <trkpt lat="49.86917" lon="3.39897">
        <ele>57.6</ele>
        <time>2023-08-06T14:58:24Z</time>
      </trkpt>
      <trkpt lat="49.86914" lon="3.39899">
        <ele>57.4</ele>
        <time>2023-08-06T14:58:25Z</time>
      </trkpt>
      <trkpt lat="49.8691" lon="3.39902">
        <ele>57.4</ele>
        <time>2023-08-06T14:58:26Z</time>
      </trkpt>
      <trkpt lat="49.86906" lon="3.39905">
        <ele>57.4</ele>
        <time>2023-08-06T14:58:27Z</time>
      </trkpt>
      <trkpt lat="49.86902" lon="3.39908">
        <ele>57.2</ele>
        <time>2023-08-06T14:58:28Z</time>
      </trkpt>
      <trkpt lat="49.86899" lon="3.3991">
        <ele>57.2</ele>
        <time>2023-08-06T14:58:29Z</time>
      </trkpt>
      <trkpt lat="49.86896" lon="3.39912">
        <ele>57.2</ele>
        <time>2023-08-06T14:58:30Z</time>
      </trkpt>
      <trkpt lat="49.86893" lon="3.39915">
        <ele>57.2</ele>
        <time>2023-08-06T14:58:31Z</time>
      </trkpt>
      <trkpt lat="49.86888" lon="3.39917">
        <ele>57.2</ele>
        <time>2023-08-06T14:58:32Z</time>
      </trkpt>
      <trkpt lat="49.86885" lon="3.39919">
        <ele>57.2</ele>
        <time>2023-08-06T14:58:33Z</time>
      </trkpt>
      <trkpt lat="49.86881" lon="3.39921">
        <ele>57.2</ele>
        <time>2023-08-06T14:58:34Z</time>
      </trkpt>
      <trkpt lat="49.86879" lon="3.39922">
        <ele>57.2</ele>
        <time>2023-08-06T14:58:35Z</time>
      </trkpt>
      <trkpt lat="49.86875" lon="3.39925">
        <ele>57.2</ele>
        <time>2023-08-06T14:58:36Z</time>
      </trkpt>
      <trkpt lat="49.86871" lon="3.39928">
        <ele>57.4</ele>
        <time>2023-08-06T14:58:37Z</time>
      </trkpt>
      <trkpt lat="49.86857" lon="3.39938">
        <ele>57.8</ele>
        <time>2023-08-06T14:58:41Z</time>
      </trkpt>
      <trkpt lat="49.86817" lon="3.39965">
        <ele>58.4</ele>
        <time>2023-08-06T14:58:51Z</time>
      </trkpt>
      <trkpt lat="49.86791" lon="3.39982">
        <ele>58.4</ele>
        <time>2023-08-06T14:58:58Z</time>
      </trkpt>
      <trkpt lat="49.86788" lon="3.39984">
        <ele>58.4</ele>
        <time>2023-08-06T14:58:59Z</time>
      </trkpt>
      <trkpt lat="49.86784" lon="3.39986">
        <ele>58.4</ele>
        <time>2023-08-06T14:59:00Z</time>
      </trkpt>
      <trkpt lat="49.8678" lon="3.39988">
        <ele>58.6</ele>
        <time>2023-08-06T14:59:01Z</time>
      </trkpt>
      <trkpt lat="49.86777" lon="3.3999">
        <ele>58.6</ele>
        <time>2023-08-06T14:59:02Z</time>
      </trkpt>
      <trkpt lat="49.86774" lon="3.39992">
        <ele>58.6</ele>
        <time>2023-08-06T14:59:03Z</time>
      </trkpt>
      <trkpt lat="49.86771" lon="3.39994">
        <ele>58.8</ele>
        <time>2023-08-06T14:59:04Z</time>
      </trkpt>
      <trkpt lat="49.86767" lon="3.39996">
        <ele>58.8</ele>
        <time>2023-08-06T14:59:05Z</time>
      </trkpt>
      <trkpt lat="49.86764" lon="3.39998">
        <ele>58.8</ele>
        <time>2023-08-06T14:59:06Z</time>
      </trkpt>
      <trkpt lat="49.86762" lon="3.39999">
        <ele>59</ele>
        <time>2023-08-06T14:59:07Z</time>
      </trkpt>
      <trkpt lat="49.86759" lon="3.40001">
        <ele>59</ele>
        <time>2023-08-06T14:59:08Z</time>
      </trkpt>
      <trkpt lat="49.86756" lon="3.40002">
        <ele>59.2</ele>
        <time>2023-08-06T14:59:09Z</time>
      </trkpt>
      <trkpt lat="49.86753" lon="3.40004">
        <ele>59.2</ele>
        <time>2023-08-06T14:59:10Z</time>
      </trkpt>
      <trkpt lat="49.8675" lon="3.40006">
        <ele>59.2</ele>
        <time>2023-08-06T14:59:11Z</time>
      </trkpt>
      <trkpt lat="49.86748" lon="3.40007">
        <ele>59.2</ele>
        <time>2023-08-06T14:59:12Z</time>
      </trkpt>
      <trkpt lat="49.86746" lon="3.40008">
        <ele>59.2</ele>
        <time>2023-08-06T14:59:13Z</time>
      </trkpt>
      <trkpt lat="49.86743" lon="3.40009">
        <ele>59.4</ele>
        <time>2023-08-06T14:59:14Z</time>
      </trkpt>
      <trkpt lat="49.8674" lon="3.4001">
        <ele>59.4</ele>
        <time>2023-08-06T14:59:15Z</time>
      </trkpt>
      <trkpt lat="49.86738" lon="3.40012">
        <ele>59.6</ele>
        <time>2023-08-06T14:59:16Z</time>
      </trkpt>
      <trkpt lat="49.86735" lon="3.40013">
        <ele>59.6</ele>
        <time>2023-08-06T14:59:17Z</time>
      </trkpt>
      <trkpt lat="49.86733" lon="3.40013">
        <ele>59.6</ele>
        <time>2023-08-06T14:59:18Z</time>
      </trkpt>
      <trkpt lat="49.8673" lon="3.40015">
        <ele>59.8</ele>
        <time>2023-08-06T14:59:19Z</time>
      </trkpt>
      <trkpt lat="49.86727" lon="3.40016">
        <ele>59.8</ele>
        <time>2023-08-06T14:59:20Z</time>
      </trkpt>
      <trkpt lat="49.86725" lon="3.40017">
        <ele>59.8</ele>
        <time>2023-08-06T14:59:21Z</time>
      </trkpt>
      <trkpt lat="49.86723" lon="3.40017">
        <ele>60</ele>
        <time>2023-08-06T14:59:22Z</time>
      </trkpt>
      <trkpt lat="49.86715" lon="3.40021">
        <ele>60.2</ele>
        <time>2023-08-06T14:59:25Z</time>
      </trkpt>
      <trkpt lat="49.86706" lon="3.40024">
        <ele>60.4</ele>
        <time>2023-08-06T14:59:29Z</time>
      </trkpt>
      <trkpt lat="49.86704" lon="3.40024">
        <ele>60.4</ele>
        <time>2023-08-06T14:59:30Z</time>
      </trkpt>
      <trkpt lat="49.86702" lon="3.40025">
        <ele>60.6</ele>
        <time>2023-08-06T14:59:31Z</time>
      </trkpt>
      <trkpt lat="49.867" lon="3.40026">
        <ele>60.8</ele>
        <time>2023-08-06T14:59:32Z</time>
      </trkpt>
      <trkpt lat="49.86698" lon="3.40027">
        <ele>61</ele>
        <time>2023-08-06T14:59:33Z</time>
      </trkpt>
      <trkpt lat="49.86695" lon="3.40027">
        <ele>61.2</ele>
        <time>2023-08-06T14:59:34Z</time>
      </trkpt>
      <trkpt lat="49.86692" lon="3.40028">
        <ele>61.2</ele>
        <time>2023-08-06T14:59:35Z</time>
      </trkpt>
      <trkpt lat="49.86688" lon="3.4003">
        <ele>61.4</ele>
        <time>2023-08-06T14:59:37Z</time>
      </trkpt>
      <trkpt lat="49.86684" lon="3.40031">
        <ele>61.6</ele>
        <time>2023-08-06T14:59:39Z</time>
      </trkpt>
      <trkpt lat="49.8668" lon="3.40032">
        <ele>61.8</ele>
        <time>2023-08-06T14:59:41Z</time>
      </trkpt>
      <trkpt lat="49.86678" lon="3.40033">
        <ele>62</ele>
        <time>2023-08-06T14:59:42Z</time>
      </trkpt>
      <trkpt lat="49.86676" lon="3.40034">
        <ele>62</ele>
        <time>2023-08-06T14:59:43Z</time>
      </trkpt>
      <trkpt lat="49.86674" lon="3.40035">
        <ele>62</ele>
        <time>2023-08-06T14:59:44Z</time>
      </trkpt>
      <trkpt lat="49.86672" lon="3.40035">
        <ele>62</ele>
        <time>2023-08-06T14:59:45Z</time>
      </trkpt>
      <trkpt lat="49.8667" lon="3.40036">
        <ele>62</ele>
        <time>2023-08-06T14:59:46Z</time>
      </trkpt>
      <trkpt lat="49.86668" lon="3.40037">
        <ele>62</ele>
        <time>2023-08-06T14:59:47Z</time>
      </trkpt>
      <trkpt lat="49.86666" lon="3.40037">
        <ele>62</ele>
        <time>2023-08-06T14:59:48Z</time>
      </trkpt>
      <trkpt lat="49.86664" lon="3.40038">
        <ele>62.2</ele>
        <time>2023-08-06T14:59:49Z</time>
      </trkpt>
      <trkpt lat="49.86662" lon="3.40039">
        <ele>62.2</ele>
        <time>2023-08-06T14:59:50Z</time>
      </trkpt>
      <trkpt lat="49.86661" lon="3.40039">
        <ele>62.2</ele>
        <time>2023-08-06T14:59:51Z</time>
      </trkpt>
      <trkpt lat="49.86655" lon="3.40042">
        <ele>62.6</ele>
        <time>2023-08-06T14:59:54Z</time>
      </trkpt>
      <trkpt lat="49.86651" lon="3.40043">
        <ele>63</ele>
        <time>2023-08-06T14:59:56Z</time>
      </trkpt>
      <trkpt lat="49.86644" lon="3.40046">
        <ele>63.8</ele>
        <time>2023-08-06T15:00:00Z</time>
      </trkpt>
      <trkpt lat="49.86642" lon="3.40046">
        <ele>64</ele>
        <time>2023-08-06T15:00:01Z</time>
      </trkpt>
      <trkpt lat="49.86639" lon="3.40047">
        <ele>64.2</ele>
        <time>2023-08-06T15:00:02Z</time>
      </trkpt>
      <trkpt lat="49.86637" lon="3.40048">
        <ele>64.2</ele>
        <time>2023-08-06T15:00:03Z</time>
      </trkpt>
      <trkpt lat="49.86636" lon="3.40049">
        <ele>64.4</ele>
        <time>2023-08-06T15:00:04Z</time>
      </trkpt>
      <trkpt lat="49.86634" lon="3.40049">
        <ele>64.6</ele>
        <time>2023-08-06T15:00:05Z</time>
      </trkpt>
      <trkpt lat="49.86632" lon="3.4005">
        <ele>64.8</ele>
        <time>2023-08-06T15:00:06Z</time>
      </trkpt>
      <trkpt lat="49.8663" lon="3.40051">
        <ele>64.8</ele>
        <time>2023-08-06T15:00:07Z</time>
      </trkpt>
      <trkpt lat="49.86629" lon="3.40052">
        <ele>65</ele>
        <time>2023-08-06T15:00:08Z</time>
      </trkpt>
      <trkpt lat="49.86627" lon="3.40053">
        <ele>65.2</ele>
        <time>2023-08-06T15:00:09Z</time>
      </trkpt>
      <trkpt lat="49.86625" lon="3.40054">
        <ele>65.4</ele>
        <time>2023-08-06T15:00:10Z</time>
      </trkpt>
      <trkpt lat="49.86622" lon="3.40054">
        <ele>65.6</ele>
        <time>2023-08-06T15:00:11Z</time>
      </trkpt>
      <trkpt lat="49.8662" lon="3.40055">
        <ele>65.6</ele>
        <time>2023-08-06T15:00:12Z</time>
      </trkpt>
      <trkpt lat="49.86619" lon="3.40056">
        <ele>65.8</ele>
        <time>2023-08-06T15:00:13Z</time>
      </trkpt>
      <trkpt lat="49.86617" lon="3.40057">
        <ele>66</ele>
        <time>2023-08-06T15:00:14Z</time>
      </trkpt>
      <trkpt lat="49.86615" lon="3.40057">
        <ele>66</ele>
        <time>2023-08-06T15:00:15Z</time>
      </trkpt>
      <trkpt lat="49.86613" lon="3.40058">
        <ele>66.2</ele>
        <time>2023-08-06T15:00:16Z</time>
      </trkpt>
      <trkpt lat="49.86611" lon="3.40059">
        <ele>66.4</ele>
        <time>2023-08-06T15:00:17Z</time>
      </trkpt>
      <trkpt lat="49.86609" lon="3.4006">
        <ele>66.4</ele>
        <time>2023-08-06T15:00:18Z</time>
      </trkpt>
      <trkpt lat="49.86607" lon="3.4006">
        <ele>66.4</ele>
        <time>2023-08-06T15:00:19Z</time>
      </trkpt>
      <trkpt lat="49.86605" lon="3.40061">
        <ele>66.4</ele>
        <time>2023-08-06T15:00:20Z</time>
      </trkpt>
      <trkpt lat="49.86603" lon="3.40062">
        <ele>66.4</ele>
        <time>2023-08-06T15:00:21Z</time>
      </trkpt>
      <trkpt lat="49.86601" lon="3.40063">
        <ele>66.4</ele>
        <time>2023-08-06T15:00:22Z</time>
      </trkpt>
      <trkpt lat="49.866" lon="3.40064">
        <ele>66.4</ele>
        <time>2023-08-06T15:00:23Z</time>
      </trkpt>
      <trkpt lat="49.86598" lon="3.40065">
        <ele>66.6</ele>
        <time>2023-08-06T15:00:24Z</time>
      </trkpt>
      <trkpt lat="49.86596" lon="3.40066">
        <ele>66.6</ele>
        <time>2023-08-06T15:00:25Z</time>
      </trkpt>
      <trkpt lat="49.86594" lon="3.40067">
        <ele>66.6</ele>
        <time>2023-08-06T15:00:26Z</time>
      </trkpt>
      <trkpt lat="49.86592" lon="3.40069">
        <ele>66.6</ele>
        <time>2023-08-06T15:00:27Z</time>
      </trkpt>
      <trkpt lat="49.8659" lon="3.4007">
        <ele>66.6</ele>
        <time>2023-08-06T15:00:28Z</time>
      </trkpt>
      <trkpt lat="49.86588" lon="3.40071">
        <ele>66.6</ele>
        <time>2023-08-06T15:00:29Z</time>
      </trkpt>
      <trkpt lat="49.86586" lon="3.40072">
        <ele>66.8</ele>
        <time>2023-08-06T15:00:30Z</time>
      </trkpt>
      <trkpt lat="49.86584" lon="3.40073">
        <ele>67</ele>
        <time>2023-08-06T15:00:31Z</time>
      </trkpt>
      <trkpt lat="49.86581" lon="3.40075">
        <ele>67.2</ele>
        <time>2023-08-06T15:00:33Z</time>
      </trkpt>
      <trkpt lat="49.86577" lon="3.40078">
        <ele>67.6</ele>
        <time>2023-08-06T15:00:35Z</time>
      </trkpt>
      <trkpt lat="49.86571" lon="3.40082">
        <ele>68</ele>
        <time>2023-08-06T15:00:38Z</time>
      </trkpt>
      <trkpt lat="49.8657" lon="3.40083">
        <ele>68.4</ele>
        <time>2023-08-06T15:00:39Z</time>
      </trkpt>
      <trkpt lat="49.86567" lon="3.40084">
        <ele>68.6</ele>
        <time>2023-08-06T15:00:40Z</time>
      </trkpt>
      <trkpt lat="49.86566" lon="3.40086">
        <ele>68.6</ele>
        <time>2023-08-06T15:00:41Z</time>
      </trkpt>
      <trkpt lat="49.86564" lon="3.40088">
        <ele>68.6</ele>
        <time>2023-08-06T15:00:42Z</time>
      </trkpt>
      <trkpt lat="49.86562" lon="3.40089">
        <ele>68.8</ele>
        <time>2023-08-06T15:00:43Z</time>
      </trkpt>
      <trkpt lat="49.86561" lon="3.40091">
        <ele>69</ele>
        <time>2023-08-06T15:00:44Z</time>
      </trkpt>
      <trkpt lat="49.86559" lon="3.40093">
        <ele>69</ele>
        <time>2023-08-06T15:00:45Z</time>
      </trkpt>
      <trkpt lat="49.86557" lon="3.40095">
        <ele>69.2</ele>
        <time>2023-08-06T15:00:46Z</time>
      </trkpt>
      <trkpt lat="49.86555" lon="3.40097">
        <ele>69.4</ele>
        <time>2023-08-06T15:00:47Z</time>
      </trkpt>
      <trkpt lat="49.86553" lon="3.40099">
        <ele>69.6</ele>
        <time>2023-08-06T15:00:48Z</time>
      </trkpt>
      <trkpt lat="49.86551" lon="3.40101">
        <ele>69.8</ele>
        <time>2023-08-06T15:00:49Z</time>
      </trkpt>
      <trkpt lat="49.86549" lon="3.40103">
        <ele>69.8</ele>
        <time>2023-08-06T15:00:50Z</time>
      </trkpt>
      <trkpt lat="49.86548" lon="3.40106">
        <ele>70</ele>
        <time>2023-08-06T15:00:51Z</time>
      </trkpt>
      <trkpt lat="49.86546" lon="3.40107">
        <ele>70</ele>
        <time>2023-08-06T15:00:52Z</time>
      </trkpt>
      <trkpt lat="49.86545" lon="3.4011">
        <ele>70</ele>
        <time>2023-08-06T15:00:53Z</time>
      </trkpt>
      <trkpt lat="49.86543" lon="3.40113">
        <ele>70.2</ele>
        <time>2023-08-06T15:00:54Z</time>
      </trkpt>
      <trkpt lat="49.86541" lon="3.40115">
        <ele>70.2</ele>
        <time>2023-08-06T15:00:55Z</time>
      </trkpt>
      <trkpt lat="49.86539" lon="3.40117">
        <ele>70.2</ele>
        <time>2023-08-06T15:00:56Z</time>
      </trkpt>
      <trkpt lat="49.86538" lon="3.40119">
        <ele>70.6</ele>
        <time>2023-08-06T15:00:57Z</time>
      </trkpt>
      <trkpt lat="49.86536" lon="3.40121">
        <ele>70.8</ele>
        <time>2023-08-06T15:00:58Z</time>
      </trkpt>
      <trkpt lat="49.86534" lon="3.40124">
        <ele>71</ele>
        <time>2023-08-06T15:00:59Z</time>
      </trkpt>
      <trkpt lat="49.86533" lon="3.40127">
        <ele>71.2</ele>
        <time>2023-08-06T15:01:00Z</time>
      </trkpt>
      <trkpt lat="49.86531" lon="3.40129">
        <ele>71.2</ele>
        <time>2023-08-06T15:01:01Z</time>
      </trkpt>
      <trkpt lat="49.86529" lon="3.40131">
        <ele>71.4</ele>
        <time>2023-08-06T15:01:02Z</time>
      </trkpt>
      <trkpt lat="49.86527" lon="3.40133">
        <ele>71.6</ele>
        <time>2023-08-06T15:01:03Z</time>
      </trkpt>
      <trkpt lat="49.86525" lon="3.40136">
        <ele>71.8</ele>
        <time>2023-08-06T15:01:04Z</time>
      </trkpt>
      <trkpt lat="49.86523" lon="3.40138">
        <ele>72</ele>
        <time>2023-08-06T15:01:05Z</time>
      </trkpt>
      <trkpt lat="49.86522" lon="3.4014">
        <ele>72</ele>
        <time>2023-08-06T15:01:06Z</time>
      </trkpt>
      <trkpt lat="49.8652" lon="3.40142">
        <ele>72</ele>
        <time>2023-08-06T15:01:07Z</time>
      </trkpt>
      <trkpt lat="49.86518" lon="3.40144">
        <ele>72</ele>
        <time>2023-08-06T15:01:08Z</time>
      </trkpt>
      <trkpt lat="49.86516" lon="3.40146">
        <ele>72</ele>
        <time>2023-08-06T15:01:09Z</time>
      </trkpt>
      <trkpt lat="49.86514" lon="3.40148">
        <ele>72.2</ele>
        <time>2023-08-06T15:01:10Z</time>
      </trkpt>
      <trkpt lat="49.86512" lon="3.4015">
        <ele>72.4</ele>
        <time>2023-08-06T15:01:11Z</time>
      </trkpt>
      <trkpt lat="49.8651" lon="3.40152">
        <ele>72.4</ele>
        <time>2023-08-06T15:01:12Z</time>
      </trkpt>
      <trkpt lat="49.86507" lon="3.40155">
        <ele>72.6</ele>
        <time>2023-08-06T15:01:13Z</time>
      </trkpt>
      <trkpt lat="49.86506" lon="3.40157">
        <ele>72.6</ele>
        <time>2023-08-06T15:01:14Z</time>
      </trkpt>
      <trkpt lat="49.86504" lon="3.40158">
        <ele>72.6</ele>
        <time>2023-08-06T15:01:15Z</time>
      </trkpt>
      <trkpt lat="49.86502" lon="3.4016">
        <ele>72.8</ele>
        <time>2023-08-06T15:01:16Z</time>
      </trkpt>
      <trkpt lat="49.86499" lon="3.40163">
        <ele>72.8</ele>
        <time>2023-08-06T15:01:17Z</time>
      </trkpt>
      <trkpt lat="49.86497" lon="3.40165">
        <ele>72.8</ele>
        <time>2023-08-06T15:01:18Z</time>
      </trkpt>
      <trkpt lat="49.86495" lon="3.40167">
        <ele>73</ele>
        <time>2023-08-06T15:01:19Z</time>
      </trkpt>
      <trkpt lat="49.86494" lon="3.40169">
        <ele>73</ele>
        <time>2023-08-06T15:01:20Z</time>
      </trkpt>
      <trkpt lat="49.86492" lon="3.4017">
        <ele>73.2</ele>
        <time>2023-08-06T15:01:21Z</time>
      </trkpt>
      <trkpt lat="49.86489" lon="3.40173">
        <ele>73.2</ele>
        <time>2023-08-06T15:01:22Z</time>
      </trkpt>
      <trkpt lat="49.86488" lon="3.40174">
        <ele>73.4</ele>
        <time>2023-08-06T15:01:23Z</time>
      </trkpt>
      <trkpt lat="49.86485" lon="3.40177">
        <ele>73.4</ele>
        <time>2023-08-06T15:01:24Z</time>
      </trkpt>
      <trkpt lat="49.86484" lon="3.40178">
        <ele>73.6</ele>
        <time>2023-08-06T15:01:25Z</time>
      </trkpt>
      <trkpt lat="49.86482" lon="3.4018">
        <ele>73.6</ele>
        <time>2023-08-06T15:01:26Z</time>
      </trkpt>
      <trkpt lat="49.8648" lon="3.40183">
        <ele>73.8</ele>
        <time>2023-08-06T15:01:27Z</time>
      </trkpt>
      <trkpt lat="49.86478" lon="3.40185">
        <ele>73.8</ele>
        <time>2023-08-06T15:01:28Z</time>
      </trkpt>
      <trkpt lat="49.86476" lon="3.40187">
        <ele>73.8</ele>
        <time>2023-08-06T15:01:29Z</time>
      </trkpt>
      <trkpt lat="49.8647" lon="3.40192">
        <ele>74.8</ele>
        <time>2023-08-06T15:01:32Z</time>
      </trkpt>
      <trkpt lat="49.86468" lon="3.40194">
        <ele>75</ele>
        <time>2023-08-06T15:01:33Z</time>
      </trkpt>
      <trkpt lat="49.86466" lon="3.40196">
        <ele>75.2</ele>
        <time>2023-08-06T15:01:34Z</time>
      </trkpt>
      <trkpt lat="49.86464" lon="3.40198">
        <ele>75.2</ele>
        <time>2023-08-06T15:01:35Z</time>
      </trkpt>
      <trkpt lat="49.86461" lon="3.40201">
        <ele>75.2</ele>
        <time>2023-08-06T15:01:36Z</time>
      </trkpt>
      <trkpt lat="49.86459" lon="3.40203">
        <ele>75.4</ele>
        <time>2023-08-06T15:01:37Z</time>
      </trkpt>
      <trkpt lat="49.86457" lon="3.40206">
        <ele>75.6</ele>
        <time>2023-08-06T15:01:38Z</time>
      </trkpt>
      <trkpt lat="49.86455" lon="3.40208">
        <ele>75.6</ele>
        <time>2023-08-06T15:01:39Z</time>
      </trkpt>
      <trkpt lat="49.86452" lon="3.4021">
        <ele>75.6</ele>
        <time>2023-08-06T15:01:40Z</time>
      </trkpt>
      <trkpt lat="49.86448" lon="3.40214">
        <ele>75.8</ele>
        <time>2023-08-06T15:01:41Z</time>
      </trkpt>
      <trkpt lat="49.86445" lon="3.40217">
        <ele>75.8</ele>
        <time>2023-08-06T15:01:42Z</time>
      </trkpt>
      <trkpt lat="49.86442" lon="3.40221">
        <ele>75.8</ele>
        <time>2023-08-06T15:01:43Z</time>
      </trkpt>
      <trkpt lat="49.8644" lon="3.40223">
        <ele>75.8</ele>
        <time>2023-08-06T15:01:44Z</time>
      </trkpt>
      <trkpt lat="49.86436" lon="3.40226">
        <ele>75.6</ele>
        <time>2023-08-06T15:01:45Z</time>
      </trkpt>
      <trkpt lat="49.86433" lon="3.40229">
        <ele>75.4</ele>
        <time>2023-08-06T15:01:46Z</time>
      </trkpt>
      <trkpt lat="49.86429" lon="3.40232">
        <ele>75.4</ele>
        <time>2023-08-06T15:01:47Z</time>
      </trkpt>
      <trkpt lat="49.86426" lon="3.40236">
        <ele>75.2</ele>
        <time>2023-08-06T15:01:48Z</time>
      </trkpt>
      <trkpt lat="49.86423" lon="3.40239">
        <ele>75.2</ele>
        <time>2023-08-06T15:01:49Z</time>
      </trkpt>
      <trkpt lat="49.86416" lon="3.40247">
        <ele>75</ele>
        <time>2023-08-06T15:01:51Z</time>
      </trkpt>
      <trkpt lat="49.86395" lon="3.40268">
        <ele>74.8</ele>
        <time>2023-08-06T15:01:57Z</time>
      </trkpt>
      <trkpt lat="49.86387" lon="3.40276">
        <ele>74.8</ele>
        <time>2023-08-06T15:01:59Z</time>
      </trkpt>
      <trkpt lat="49.86372" lon="3.40293">
        <ele>74.6</ele>
        <time>2023-08-06T15:02:02Z</time>
      </trkpt>
      <trkpt lat="49.86367" lon="3.40299">
        <ele>74.4</ele>
        <time>2023-08-06T15:02:03Z</time>
      </trkpt>
      <trkpt lat="49.86327" lon="3.40342">
        <ele>73.6</ele>
        <time>2023-08-06T15:02:09Z</time>
      </trkpt>
      <trkpt lat="49.8632" lon="3.4035">
        <ele>73.4</ele>
        <time>2023-08-06T15:02:10Z</time>
      </trkpt>
      <trkpt lat="49.86305" lon="3.40366">
        <ele>72.2</ele>
        <time>2023-08-06T15:02:12Z</time>
      </trkpt>
      <trkpt lat="49.86281" lon="3.40393">
        <ele>71.2</ele>
        <time>2023-08-06T15:02:15Z</time>
      </trkpt>
      <trkpt lat="49.86258" lon="3.40418">
        <ele>69.8</ele>
        <time>2023-08-06T15:02:18Z</time>
      </trkpt>
      <trkpt lat="49.86249" lon="3.40427">
        <ele>69.2</ele>
        <time>2023-08-06T15:02:19Z</time>
      </trkpt>
      <trkpt lat="49.86241" lon="3.40436">
        <ele>68.6</ele>
        <time>2023-08-06T15:02:20Z</time>
      </trkpt>
      <trkpt lat="49.86216" lon="3.40465">
        <ele>67.6</ele>
        <time>2023-08-06T15:02:23Z</time>
      </trkpt>
      <trkpt lat="49.86191" lon="3.40492">
        <ele>66.4</ele>
        <time>2023-08-06T15:02:26Z</time>
      </trkpt>
      <trkpt lat="49.86165" lon="3.40517">
        <ele>65.4</ele>
        <time>2023-08-06T15:02:29Z</time>
      </trkpt>
      <trkpt lat="49.86141" lon="3.4054">
        <ele>64.8</ele>
        <time>2023-08-06T15:02:32Z</time>
      </trkpt>
      <trkpt lat="49.86131" lon="3.40549">
        <ele>64.4</ele>
        <time>2023-08-06T15:02:33Z</time>
      </trkpt>
      <trkpt lat="49.86125" lon="3.40555">
        <ele>64.4</ele>
        <time>2023-08-06T15:02:34Z</time>
      </trkpt>
      <trkpt lat="49.86117" lon="3.40564">
        <ele>64.2</ele>
        <time>2023-08-06T15:02:35Z</time>
      </trkpt>
      <trkpt lat="49.86111" lon="3.4057">
        <ele>64.2</ele>
        <time>2023-08-06T15:02:36Z</time>
      </trkpt>
      <trkpt lat="49.86104" lon="3.40576">
        <ele>64</ele>
        <time>2023-08-06T15:02:37Z</time>
      </trkpt>
      <trkpt lat="49.86097" lon="3.40583">
        <ele>63.8</ele>
        <time>2023-08-06T15:02:38Z</time>
      </trkpt>
      <trkpt lat="49.86089" lon="3.4059">
        <ele>63.8</ele>
        <time>2023-08-06T15:02:39Z</time>
      </trkpt>
      <trkpt lat="49.86083" lon="3.40597">
        <ele>63.8</ele>
        <time>2023-08-06T15:02:40Z</time>
      </trkpt>
      <trkpt lat="49.86078" lon="3.40601">
        <ele>63.8</ele>
        <time>2023-08-06T15:02:41Z</time>
      </trkpt>
      <trkpt lat="49.86071" lon="3.40607">
        <ele>63.8</ele>
        <time>2023-08-06T15:02:42Z</time>
      </trkpt>
      <trkpt lat="49.86065" lon="3.40613">
        <ele>63.8</ele>
        <time>2023-08-06T15:02:43Z</time>
      </trkpt>
      <trkpt lat="49.86053" lon="3.40625">
        <ele>64.2</ele>
        <time>2023-08-06T15:02:45Z</time>
      </trkpt>
      <trkpt lat="49.8602" lon="3.40657">
        <ele>64.8</ele>
        <time>2023-08-06T15:02:50Z</time>
      </trkpt>
      <trkpt lat="49.85973" lon="3.40703">
        <ele>65</ele>
        <time>2023-08-06T15:02:57Z</time>
      </trkpt>
      <trkpt lat="49.85962" lon="3.40714">
        <ele>65</ele>
        <time>2023-08-06T15:02:59Z</time>
      </trkpt>
      <trkpt lat="49.85956" lon="3.40721">
        <ele>65</ele>
        <time>2023-08-06T15:03:00Z</time>
      </trkpt>
      <trkpt lat="49.85943" lon="3.40732">
        <ele>65</ele>
        <time>2023-08-06T15:03:02Z</time>
      </trkpt>
      <trkpt lat="49.85935" lon="3.40738">
        <ele>65</ele>
        <time>2023-08-06T15:03:03Z</time>
      </trkpt>
      <trkpt lat="49.8593" lon="3.40743">
        <ele>65</ele>
        <time>2023-08-06T15:03:04Z</time>
      </trkpt>
      <trkpt lat="49.85924" lon="3.40749">
        <ele>65</ele>
        <time>2023-08-06T15:03:05Z</time>
      </trkpt>
      <trkpt lat="49.85917" lon="3.40755">
        <ele>65</ele>
        <time>2023-08-06T15:03:06Z</time>
      </trkpt>
      <trkpt lat="49.85912" lon="3.40761">
        <ele>65</ele>
        <time>2023-08-06T15:03:07Z</time>
      </trkpt>
      <trkpt lat="49.85906" lon="3.40766">
        <ele>65</ele>
        <time>2023-08-06T15:03:08Z</time>
      </trkpt>
      <trkpt lat="49.85902" lon="3.4077">
        <ele>65</ele>
        <time>2023-08-06T15:03:09Z</time>
      </trkpt>
      <trkpt lat="49.8589" lon="3.40782">
        <ele>65.2</ele>
        <time>2023-08-06T15:03:11Z</time>
      </trkpt>
      <trkpt lat="49.8585" lon="3.40824">
        <ele>65.2</ele>
        <time>2023-08-06T15:03:17Z</time>
      </trkpt>
      <trkpt lat="49.85838" lon="3.40837">
        <ele>64.8</ele>
        <time>2023-08-06T15:03:19Z</time>
      </trkpt>
      <trkpt lat="49.85797" lon="3.4088">
        <ele>63.6</ele>
        <time>2023-08-06T15:03:25Z</time>
      </trkpt>
      <trkpt lat="49.85778" lon="3.409">
        <ele>63.2</ele>
        <time>2023-08-06T15:03:28Z</time>
      </trkpt>
      <trkpt lat="49.85772" lon="3.40906">
        <ele>63</ele>
        <time>2023-08-06T15:03:29Z</time>
      </trkpt>
      <trkpt lat="49.85765" lon="3.40913">
        <ele>62.8</ele>
        <time>2023-08-06T15:03:30Z</time>
      </trkpt>
      <trkpt lat="49.85759" lon="3.40919">
        <ele>62.8</ele>
        <time>2023-08-06T15:03:31Z</time>
      </trkpt>
      <trkpt lat="49.85754" lon="3.40923">
        <ele>62.6</ele>
        <time>2023-08-06T15:03:32Z</time>
      </trkpt>
      <trkpt lat="49.85749" lon="3.40929">
        <ele>62.6</ele>
        <time>2023-08-06T15:03:33Z</time>
      </trkpt>
      <trkpt lat="49.85743" lon="3.40935">
        <ele>62.6</ele>
        <time>2023-08-06T15:03:34Z</time>
      </trkpt>
      <trkpt lat="49.85738" lon="3.4094">
        <ele>62.6</ele>
        <time>2023-08-06T15:03:35Z</time>
      </trkpt>
      <trkpt lat="49.85733" lon="3.40945">
        <ele>62.6</ele>
        <time>2023-08-06T15:03:36Z</time>
      </trkpt>
      <trkpt lat="49.85724" lon="3.40953">
        <ele>62.6</ele>
        <time>2023-08-06T15:03:38Z</time>
      </trkpt>
      <trkpt lat="49.85718" lon="3.40959">
        <ele>62.6</ele>
        <time>2023-08-06T15:03:39Z</time>
      </trkpt>
      <trkpt lat="49.85714" lon="3.40963">
        <ele>62.6</ele>
        <time>2023-08-06T15:03:40Z</time>
      </trkpt>
      <trkpt lat="49.85709" lon="3.40968">
        <ele>62.8</ele>
        <time>2023-08-06T15:03:41Z</time>
      </trkpt>
      <trkpt lat="49.85705" lon="3.40972">
        <ele>62.8</ele>
        <time>2023-08-06T15:03:42Z</time>
      </trkpt>
      <trkpt lat="49.857" lon="3.40976">
        <ele>63</ele>
        <time>2023-08-06T15:03:43Z</time>
      </trkpt>
      <trkpt lat="49.85695" lon="3.40981">
        <ele>63.2</ele>
        <time>2023-08-06T15:03:44Z</time>
      </trkpt>
      <trkpt lat="49.85691" lon="3.40985">
        <ele>63.4</ele>
        <time>2023-08-06T15:03:45Z</time>
      </trkpt>
      <trkpt lat="49.85687" lon="3.40988">
        <ele>63.6</ele>
        <time>2023-08-06T15:03:46Z</time>
      </trkpt>
      <trkpt lat="49.85683" lon="3.40992">
        <ele>63.6</ele>
        <time>2023-08-06T15:03:47Z</time>
      </trkpt>
      <trkpt lat="49.85679" lon="3.40996">
        <ele>63.8</ele>
        <time>2023-08-06T15:03:48Z</time>
      </trkpt>
      <trkpt lat="49.85675" lon="3.41">
        <ele>63.8</ele>
        <time>2023-08-06T15:03:49Z</time>
      </trkpt>
      <trkpt lat="49.85671" lon="3.41004">
        <ele>64.2</ele>
        <time>2023-08-06T15:03:50Z</time>
      </trkpt>
      <trkpt lat="49.85668" lon="3.41007">
        <ele>64.2</ele>
        <time>2023-08-06T15:03:51Z</time>
      </trkpt>
      <trkpt lat="49.85664" lon="3.4101">
        <ele>64.6</ele>
        <time>2023-08-06T15:03:52Z</time>
      </trkpt>
      <trkpt lat="49.85659" lon="3.41014">
        <ele>64.8</ele>
        <time>2023-08-06T15:03:53Z</time>
      </trkpt>
      <trkpt lat="49.85656" lon="3.41017">
        <ele>64.8</ele>
        <time>2023-08-06T15:03:54Z</time>
      </trkpt>
      <trkpt lat="49.85653" lon="3.41021">
        <ele>65</ele>
        <time>2023-08-06T15:03:55Z</time>
      </trkpt>
      <trkpt lat="49.8565" lon="3.41024">
        <ele>65.2</ele>
        <time>2023-08-06T15:03:56Z</time>
      </trkpt>
      <trkpt lat="49.85647" lon="3.41027">
        <ele>65.2</ele>
        <time>2023-08-06T15:03:57Z</time>
      </trkpt>
      <trkpt lat="49.85642" lon="3.41031">
        <ele>65.4</ele>
        <time>2023-08-06T15:03:58Z</time>
      </trkpt>
      <trkpt lat="49.85639" lon="3.41034">
        <ele>65.8</ele>
        <time>2023-08-06T15:03:59Z</time>
      </trkpt>
      <trkpt lat="49.85635" lon="3.41037">
        <ele>66</ele>
        <time>2023-08-06T15:04:00Z</time>
      </trkpt>
      <trkpt lat="49.85633" lon="3.4104">
        <ele>66</ele>
        <time>2023-08-06T15:04:01Z</time>
      </trkpt>
      <trkpt lat="49.8563" lon="3.41043">
        <ele>66.2</ele>
        <time>2023-08-06T15:04:02Z</time>
      </trkpt>
      <trkpt lat="49.85626" lon="3.41046">
        <ele>66.4</ele>
        <time>2023-08-06T15:04:03Z</time>
      </trkpt>
      <trkpt lat="49.85624" lon="3.41048">
        <ele>66.6</ele>
        <time>2023-08-06T15:04:04Z</time>
      </trkpt>
      <trkpt lat="49.85621" lon="3.41051">
        <ele>66.8</ele>
        <time>2023-08-06T15:04:05Z</time>
      </trkpt>
      <trkpt lat="49.85617" lon="3.41053">
        <ele>67</ele>
        <time>2023-08-06T15:04:06Z</time>
      </trkpt>
      <trkpt lat="49.85613" lon="3.41056">
        <ele>67</ele>
        <time>2023-08-06T15:04:07Z</time>
      </trkpt>
      <trkpt lat="49.85611" lon="3.41058">
        <ele>67.2</ele>
        <time>2023-08-06T15:04:08Z</time>
      </trkpt>
      <trkpt lat="49.85607" lon="3.41061">
        <ele>67.4</ele>
        <time>2023-08-06T15:04:09Z</time>
      </trkpt>
      <trkpt lat="49.85604" lon="3.41063">
        <ele>67.6</ele>
        <time>2023-08-06T15:04:10Z</time>
      </trkpt>
      <trkpt lat="49.85601" lon="3.41066">
        <ele>67.8</ele>
        <time>2023-08-06T15:04:11Z</time>
      </trkpt>
      <trkpt lat="49.85596" lon="3.41068">
        <ele>67.8</ele>
        <time>2023-08-06T15:04:12Z</time>
      </trkpt>
      <trkpt lat="49.85593" lon="3.4107">
        <ele>68</ele>
        <time>2023-08-06T15:04:13Z</time>
      </trkpt>
      <trkpt lat="49.85589" lon="3.41072">
        <ele>68.2</ele>
        <time>2023-08-06T15:04:14Z</time>
      </trkpt>
      <trkpt lat="49.85587" lon="3.41074">
        <ele>68.4</ele>
        <time>2023-08-06T15:04:15Z</time>
      </trkpt>
      <trkpt lat="49.85583" lon="3.41076">
        <ele>68.4</ele>
        <time>2023-08-06T15:04:16Z</time>
      </trkpt>
      <trkpt lat="49.8558" lon="3.41078">
        <ele>68.8</ele>
        <time>2023-08-06T15:04:17Z</time>
      </trkpt>
      <trkpt lat="49.85576" lon="3.4108">
        <ele>69</ele>
        <time>2023-08-06T15:04:18Z</time>
      </trkpt>
      <trkpt lat="49.85573" lon="3.41081">
        <ele>69</ele>
        <time>2023-08-06T15:04:19Z</time>
      </trkpt>
      <trkpt lat="49.8557" lon="3.41084">
        <ele>69.2</ele>
        <time>2023-08-06T15:04:20Z</time>
      </trkpt>
      <trkpt lat="49.85566" lon="3.41085">
        <ele>69.2</ele>
        <time>2023-08-06T15:04:21Z</time>
      </trkpt>
      <trkpt lat="49.85562" lon="3.41087">
        <ele>69.4</ele>
        <time>2023-08-06T15:04:22Z</time>
      </trkpt>
      <trkpt lat="49.85559" lon="3.41089">
        <ele>69.4</ele>
        <time>2023-08-06T15:04:23Z</time>
      </trkpt>
      <trkpt lat="49.85556" lon="3.41091">
        <ele>69.6</ele>
        <time>2023-08-06T15:04:24Z</time>
      </trkpt>
      <trkpt lat="49.85553" lon="3.41092">
        <ele>69.8</ele>
        <time>2023-08-06T15:04:25Z</time>
      </trkpt>
      <trkpt lat="49.8555" lon="3.41094">
        <ele>69.8</ele>
        <time>2023-08-06T15:04:26Z</time>
      </trkpt>
      <trkpt lat="49.85547" lon="3.41096">
        <ele>70</ele>
        <time>2023-08-06T15:04:27Z</time>
      </trkpt>
      <trkpt lat="49.85544" lon="3.41097">
        <ele>70.2</ele>
        <time>2023-08-06T15:04:28Z</time>
      </trkpt>
      <trkpt lat="49.85542" lon="3.41098">
        <ele>70.2</ele>
        <time>2023-08-06T15:04:29Z</time>
      </trkpt>
      <trkpt lat="49.85539" lon="3.41099">
        <ele>70.4</ele>
        <time>2023-08-06T15:04:30Z</time>
      </trkpt>
      <trkpt lat="49.85536" lon="3.41101">
        <ele>70.4</ele>
        <time>2023-08-06T15:04:31Z</time>
      </trkpt>
      <trkpt lat="49.85533" lon="3.41103">
        <ele>70.6</ele>
        <time>2023-08-06T15:04:32Z</time>
      </trkpt>
      <trkpt lat="49.85531" lon="3.41104">
        <ele>70.6</ele>
        <time>2023-08-06T15:04:33Z</time>
      </trkpt>
      <trkpt lat="49.85529" lon="3.41106">
        <ele>70.8</ele>
        <time>2023-08-06T15:04:34Z</time>
      </trkpt>
      <trkpt lat="49.85526" lon="3.41107">
        <ele>71</ele>
        <time>2023-08-06T15:04:35Z</time>
      </trkpt>
      <trkpt lat="49.85524" lon="3.41108">
        <ele>71.2</ele>
        <time>2023-08-06T15:04:36Z</time>
      </trkpt>
      <trkpt lat="49.85521" lon="3.41109">
        <ele>71.2</ele>
        <time>2023-08-06T15:04:37Z</time>
      </trkpt>
      <trkpt lat="49.85519" lon="3.4111">
        <ele>71.2</ele>
        <time>2023-08-06T15:04:38Z</time>
      </trkpt>
      <trkpt lat="49.85517" lon="3.41111">
        <ele>71.4</ele>
        <time>2023-08-06T15:04:39Z</time>
      </trkpt>
      <trkpt lat="49.85514" lon="3.41113">
        <ele>71.4</ele>
        <time>2023-08-06T15:04:40Z</time>
      </trkpt>
      <trkpt lat="49.85512" lon="3.41114">
        <ele>71.4</ele>
        <time>2023-08-06T15:04:41Z</time>
      </trkpt>
      <trkpt lat="49.85509" lon="3.41116">
        <ele>71.6</ele>
        <time>2023-08-06T15:04:42Z</time>
      </trkpt>
      <trkpt lat="49.85507" lon="3.41117">
        <ele>71.8</ele>
        <time>2023-08-06T15:04:43Z</time>
      </trkpt>
      <trkpt lat="49.85504" lon="3.41119">
        <ele>72</ele>
        <time>2023-08-06T15:04:44Z</time>
      </trkpt>
      <trkpt lat="49.85501" lon="3.4112">
        <ele>72.2</ele>
        <time>2023-08-06T15:04:45Z</time>
      </trkpt>
      <trkpt lat="49.85498" lon="3.41121">
        <ele>72.2</ele>
        <time>2023-08-06T15:04:46Z</time>
      </trkpt>
      <trkpt lat="49.85496" lon="3.41122">
        <ele>72.4</ele>
        <time>2023-08-06T15:04:47Z</time>
      </trkpt>
      <trkpt lat="49.85494" lon="3.41123">
        <ele>72.6</ele>
        <time>2023-08-06T15:04:48Z</time>
      </trkpt>
      <trkpt lat="49.85491" lon="3.41124">
        <ele>72.8</ele>
        <time>2023-08-06T15:04:49Z</time>
      </trkpt>
      <trkpt lat="49.85489" lon="3.41126">
        <ele>73</ele>
        <time>2023-08-06T15:04:50Z</time>
      </trkpt>
      <trkpt lat="49.85486" lon="3.41128">
        <ele>73.4</ele>
        <time>2023-08-06T15:04:51Z</time>
      </trkpt>
      <trkpt lat="49.85484" lon="3.41129">
        <ele>73.8</ele>
        <time>2023-08-06T15:04:52Z</time>
      </trkpt>
      <trkpt lat="49.85481" lon="3.41131">
        <ele>73.8</ele>
        <time>2023-08-06T15:04:53Z</time>
      </trkpt>
      <trkpt lat="49.85479" lon="3.41132">
        <ele>74</ele>
        <time>2023-08-06T15:04:54Z</time>
      </trkpt>
      <trkpt lat="49.85477" lon="3.41134">
        <ele>74</ele>
        <time>2023-08-06T15:04:55Z</time>
      </trkpt>
      <trkpt lat="49.85474" lon="3.41134">
        <ele>74.4</ele>
        <time>2023-08-06T15:04:56Z</time>
      </trkpt>
      <trkpt lat="49.85472" lon="3.41134">
        <ele>74.4</ele>
        <time>2023-08-06T15:04:57Z</time>
      </trkpt>
      <trkpt lat="49.8547" lon="3.41135">
        <ele>74.6</ele>
        <time>2023-08-06T15:04:58Z</time>
      </trkpt>
      <trkpt lat="49.85468" lon="3.41136">
        <ele>74.8</ele>
        <time>2023-08-06T15:04:59Z</time>
      </trkpt>
      <trkpt lat="49.85466" lon="3.41137">
        <ele>75</ele>
        <time>2023-08-06T15:05:00Z</time>
      </trkpt>
      <trkpt lat="49.85464" lon="3.41138">
        <ele>75</ele>
        <time>2023-08-06T15:05:01Z</time>
      </trkpt>
      <trkpt lat="49.85462" lon="3.41139">
        <ele>75.2</ele>
        <time>2023-08-06T15:05:02Z</time>
      </trkpt>
      <trkpt lat="49.8546" lon="3.4114">
        <ele>75.4</ele>
        <time>2023-08-06T15:05:03Z</time>
      </trkpt>
      <trkpt lat="49.85458" lon="3.41142">
        <ele>75.6</ele>
        <time>2023-08-06T15:05:04Z</time>
      </trkpt>
      <trkpt lat="49.85456" lon="3.41143">
        <ele>75.8</ele>
        <time>2023-08-06T15:05:05Z</time>
      </trkpt>
      <trkpt lat="49.85454" lon="3.41143">
        <ele>76</ele>
        <time>2023-08-06T15:05:06Z</time>
      </trkpt>
      <trkpt lat="49.85452" lon="3.41144">
        <ele>76</ele>
        <time>2023-08-06T15:05:07Z</time>
      </trkpt>
      <trkpt lat="49.8545" lon="3.41145">
        <ele>76.4</ele>
        <time>2023-08-06T15:05:08Z</time>
      </trkpt>
      <trkpt lat="49.85448" lon="3.41147">
        <ele>76.8</ele>
        <time>2023-08-06T15:05:09Z</time>
      </trkpt>
      <trkpt lat="49.85446" lon="3.41149">
        <ele>77.2</ele>
        <time>2023-08-06T15:05:10Z</time>
      </trkpt>
      <trkpt lat="49.85444" lon="3.4115">
        <ele>77.2</ele>
        <time>2023-08-06T15:05:11Z</time>
      </trkpt>
      <trkpt lat="49.85441" lon="3.41152">
        <ele>77.4</ele>
        <time>2023-08-06T15:05:12Z</time>
      </trkpt>
      <trkpt lat="49.85439" lon="3.41153">
        <ele>77.6</ele>
        <time>2023-08-06T15:05:13Z</time>
      </trkpt>
      <trkpt lat="49.85436" lon="3.41155">
        <ele>77.6</ele>
        <time>2023-08-06T15:05:14Z</time>
      </trkpt>
      <trkpt lat="49.85433" lon="3.41156">
        <ele>77.6</ele>
        <time>2023-08-06T15:05:15Z</time>
      </trkpt>
      <trkpt lat="49.85431" lon="3.41157">
        <ele>77.8</ele>
        <time>2023-08-06T15:05:16Z</time>
      </trkpt>
      <trkpt lat="49.85429" lon="3.41158">
        <ele>77.8</ele>
        <time>2023-08-06T15:05:17Z</time>
      </trkpt>
      <trkpt lat="49.85426" lon="3.4116">
        <ele>77.8</ele>
        <time>2023-08-06T15:05:18Z</time>
      </trkpt>
      <trkpt lat="49.85423" lon="3.41161">
        <ele>78</ele>
        <time>2023-08-06T15:05:19Z</time>
      </trkpt>
      <trkpt lat="49.8542" lon="3.41162">
        <ele>78</ele>
        <time>2023-08-06T15:05:20Z</time>
      </trkpt>
      <trkpt lat="49.85418" lon="3.41163">
        <ele>78</ele>
        <time>2023-08-06T15:05:21Z</time>
      </trkpt>
      <trkpt lat="49.85416" lon="3.41165">
        <ele>78.2</ele>
        <time>2023-08-06T15:05:22Z</time>
      </trkpt>
      <trkpt lat="49.85413" lon="3.41166">
        <ele>78.2</ele>
        <time>2023-08-06T15:05:23Z</time>
      </trkpt>
      <trkpt lat="49.85409" lon="3.41168">
        <ele>78.2</ele>
        <time>2023-08-06T15:05:24Z</time>
      </trkpt>
      <trkpt lat="49.85406" lon="3.4117">
        <ele>78.2</ele>
        <time>2023-08-06T15:05:25Z</time>
      </trkpt>
      <trkpt lat="49.85404" lon="3.41171">
        <ele>78.2</ele>
        <time>2023-08-06T15:05:26Z</time>
      </trkpt>
      <trkpt lat="49.85401" lon="3.41172">
        <ele>78.4</ele>
        <time>2023-08-06T15:05:27Z</time>
      </trkpt>
      <trkpt lat="49.85397" lon="3.41174">
        <ele>78.4</ele>
        <time>2023-08-06T15:05:28Z</time>
      </trkpt>
      <trkpt lat="49.85394" lon="3.41176">
        <ele>78.4</ele>
        <time>2023-08-06T15:05:29Z</time>
      </trkpt>
      <trkpt lat="49.85392" lon="3.41177">
        <ele>78.4</ele>
        <time>2023-08-06T15:05:30Z</time>
      </trkpt>
      <trkpt lat="49.85389" lon="3.41178">
        <ele>78.4</ele>
        <time>2023-08-06T15:05:31Z</time>
      </trkpt>
      <trkpt lat="49.85385" lon="3.4118">
        <ele>78.4</ele>
        <time>2023-08-06T15:05:32Z</time>
      </trkpt>
      <trkpt lat="49.85382" lon="3.41182">
        <ele>78.6</ele>
        <time>2023-08-06T15:05:33Z</time>
      </trkpt>
      <trkpt lat="49.85379" lon="3.41184">
        <ele>78.6</ele>
        <time>2023-08-06T15:05:34Z</time>
      </trkpt>
      <trkpt lat="49.85355" lon="3.41195">
        <ele>79</ele>
        <time>2023-08-06T15:05:41Z</time>
      </trkpt>
      <trkpt lat="49.85337" lon="3.41204">
        <ele>79.2</ele>
        <time>2023-08-06T15:05:46Z</time>
      </trkpt>
      <trkpt lat="49.85323" lon="3.41207">
        <ele>79.4</ele>
        <time>2023-08-06T15:05:50Z</time>
      </trkpt>
      <trkpt lat="49.85316" lon="3.41208">
        <ele>79.4</ele>
        <time>2023-08-06T15:05:52Z</time>
      </trkpt>
      <trkpt lat="49.85313" lon="3.41208">
        <ele>79.4</ele>
        <time>2023-08-06T15:05:53Z</time>
      </trkpt>
      <trkpt lat="49.8531" lon="3.41208">
        <ele>79.6</ele>
        <time>2023-08-06T15:05:54Z</time>
      </trkpt>
      <trkpt lat="49.85307" lon="3.41209">
        <ele>79.6</ele>
        <time>2023-08-06T15:05:55Z</time>
      </trkpt>
      <trkpt lat="49.85304" lon="3.41209">
        <ele>79.8</ele>
        <time>2023-08-06T15:05:56Z</time>
      </trkpt>
      <trkpt lat="49.85302" lon="3.41209">
        <ele>79.8</ele>
        <time>2023-08-06T15:05:57Z</time>
      </trkpt>
      <trkpt lat="49.85299" lon="3.4121">
        <ele>79.8</ele>
        <time>2023-08-06T15:05:58Z</time>
      </trkpt>
      <trkpt lat="49.85299" lon="3.4121">
        <ele>79.8</ele>
        <time>2023-08-06T15:05:59Z</time>
      </trkpt>
      <trkpt lat="49.85295" lon="3.41211">
        <ele>80</ele>
        <time>2023-08-06T15:06:00Z</time>
      </trkpt>
      <trkpt lat="49.8529" lon="3.41214">
        <ele>80.6</ele>
        <time>2023-08-06T15:06:02Z</time>
      </trkpt>
      <trkpt lat="49.85286" lon="3.41216">
        <ele>81</ele>
        <time>2023-08-06T15:06:04Z</time>
      </trkpt>
      <trkpt lat="49.8528" lon="3.41219">
        <ele>81.8</ele>
        <time>2023-08-06T15:06:06Z</time>
      </trkpt>
      <trkpt lat="49.85273" lon="3.41223">
        <ele>82.8</ele>
        <time>2023-08-06T15:06:09Z</time>
      </trkpt>
      <trkpt lat="49.85271" lon="3.41224">
        <ele>82.8</ele>
        <time>2023-08-06T15:06:10Z</time>
      </trkpt>
      <trkpt lat="49.85268" lon="3.41225">
        <ele>83</ele>
        <time>2023-08-06T15:06:11Z</time>
      </trkpt>
      <trkpt lat="49.85266" lon="3.41226">
        <ele>83</ele>
        <time>2023-08-06T15:06:12Z</time>
      </trkpt>
      <trkpt lat="49.85263" lon="3.41226">
        <ele>83.2</ele>
        <time>2023-08-06T15:06:13Z</time>
      </trkpt>
      <trkpt lat="49.8526" lon="3.41227">
        <ele>83.4</ele>
        <time>2023-08-06T15:06:14Z</time>
      </trkpt>
      <trkpt lat="49.85258" lon="3.41228">
        <ele>83.6</ele>
        <time>2023-08-06T15:06:15Z</time>
      </trkpt>
      <trkpt lat="49.85255" lon="3.41229">
        <ele>83.6</ele>
        <time>2023-08-06T15:06:16Z</time>
      </trkpt>
      <trkpt lat="49.85252" lon="3.41229">
        <ele>83.6</ele>
        <time>2023-08-06T15:06:17Z</time>
      </trkpt>
      <trkpt lat="49.8525" lon="3.4123">
        <ele>83.8</ele>
        <time>2023-08-06T15:06:18Z</time>
      </trkpt>
      <trkpt lat="49.85247" lon="3.4123">
        <ele>83.8</ele>
        <time>2023-08-06T15:06:19Z</time>
      </trkpt>
      <trkpt lat="49.85245" lon="3.41231">
        <ele>83.8</ele>
        <time>2023-08-06T15:06:20Z</time>
      </trkpt>
      <trkpt lat="49.85241" lon="3.41232">
        <ele>83.8</ele>
        <time>2023-08-06T15:06:21Z</time>
      </trkpt>
      <trkpt lat="49.85239" lon="3.41232">
        <ele>83.8</ele>
        <time>2023-08-06T15:06:22Z</time>
      </trkpt>
      <trkpt lat="49.85236" lon="3.41233">
        <ele>84</ele>
        <time>2023-08-06T15:06:23Z</time>
      </trkpt>
      <trkpt lat="49.85233" lon="3.41233">
        <ele>84</ele>
        <time>2023-08-06T15:06:24Z</time>
      </trkpt>
      <trkpt lat="49.8523" lon="3.41234">
        <ele>84</ele>
        <time>2023-08-06T15:06:25Z</time>
      </trkpt>
      <trkpt lat="49.85228" lon="3.41235">
        <ele>84.2</ele>
        <time>2023-08-06T15:06:26Z</time>
      </trkpt>
      <trkpt lat="49.85225" lon="3.41236">
        <ele>84.2</ele>
        <time>2023-08-06T15:06:27Z</time>
      </trkpt>
      <trkpt lat="49.85222" lon="3.41236">
        <ele>84.2</ele>
        <time>2023-08-06T15:06:28Z</time>
      </trkpt>
      <trkpt lat="49.85219" lon="3.41237">
        <ele>84.2</ele>
        <time>2023-08-06T15:06:29Z</time>
      </trkpt>
      <trkpt lat="49.85215" lon="3.41238">
        <ele>84.4</ele>
        <time>2023-08-06T15:06:30Z</time>
      </trkpt>
      <trkpt lat="49.85213" lon="3.41239">
        <ele>84.4</ele>
        <time>2023-08-06T15:06:31Z</time>
      </trkpt>
      <trkpt lat="49.8521" lon="3.4124">
        <ele>84.4</ele>
        <time>2023-08-06T15:06:32Z</time>
      </trkpt>
      <trkpt lat="49.85207" lon="3.41241">
        <ele>84.4</ele>
        <time>2023-08-06T15:06:33Z</time>
      </trkpt>
      <trkpt lat="49.85204" lon="3.41242">
        <ele>84.4</ele>
        <time>2023-08-06T15:06:34Z</time>
      </trkpt>
      <trkpt lat="49.85201" lon="3.41243">
        <ele>84.2</ele>
        <time>2023-08-06T15:06:35Z</time>
      </trkpt>
      <trkpt lat="49.85178" lon="3.41249">
        <ele>83.8</ele>
        <time>2023-08-06T15:06:41Z</time>
      </trkpt>
      <trkpt lat="49.85143" lon="3.41262">
        <ele>83.2</ele>
        <time>2023-08-06T15:06:49Z</time>
      </trkpt>
      <trkpt lat="49.85128" lon="3.41269">
        <ele>82.8</ele>
        <time>2023-08-06T15:06:52Z</time>
      </trkpt>
      <trkpt lat="49.85106" lon="3.41281">
        <ele>82.2</ele>
        <time>2023-08-06T15:06:56Z</time>
      </trkpt>
      <trkpt lat="49.85087" lon="3.41292">
        <ele>81.6</ele>
        <time>2023-08-06T15:06:59Z</time>
      </trkpt>
      <trkpt lat="49.85068" lon="3.41305">
        <ele>81</ele>
        <time>2023-08-06T15:07:02Z</time>
      </trkpt>
      <trkpt lat="49.8506" lon="3.41311">
        <ele>80.8</ele>
        <time>2023-08-06T15:07:03Z</time>
      </trkpt>
      <trkpt lat="49.85055" lon="3.41315">
        <ele>80.4</ele>
        <time>2023-08-06T15:07:04Z</time>
      </trkpt>
      <trkpt lat="49.85022" lon="3.41344">
        <ele>79.4</ele>
        <time>2023-08-06T15:07:09Z</time>
      </trkpt>
      <trkpt lat="49.85006" lon="3.41361">
        <ele>79</ele>
        <time>2023-08-06T15:07:12Z</time>
      </trkpt>
      <trkpt lat="49.84988" lon="3.41377">
        <ele>78.4</ele>
        <time>2023-08-06T15:07:15Z</time>
      </trkpt>
      <trkpt lat="49.84981" lon="3.41382">
        <ele>78.4</ele>
        <time>2023-08-06T15:07:16Z</time>
      </trkpt>
      <trkpt lat="49.84975" lon="3.41388">
        <ele>78.2</ele>
        <time>2023-08-06T15:07:17Z</time>
      </trkpt>
      <trkpt lat="49.84958" lon="3.41405">
        <ele>78</ele>
        <time>2023-08-06T15:07:20Z</time>
      </trkpt>
      <trkpt lat="49.84923" lon="3.41437">
        <ele>77.4</ele>
        <time>2023-08-06T15:07:26Z</time>
      </trkpt>
      <trkpt lat="49.84916" lon="3.41444">
        <ele>77.4</ele>
        <time>2023-08-06T15:07:27Z</time>
      </trkpt>
      <trkpt lat="49.84905" lon="3.41455">
        <ele>77.2</ele>
        <time>2023-08-06T15:07:29Z</time>
      </trkpt>
      <trkpt lat="49.84869" lon="3.41491">
        <ele>76.2</ele>
        <time>2023-08-06T15:07:35Z</time>
      </trkpt>
      <trkpt lat="49.84848" lon="3.4151">
        <ele>75.4</ele>
        <time>2023-08-06T15:07:38Z</time>
      </trkpt>
      <trkpt lat="49.84833" lon="3.41523">
        <ele>75</ele>
        <time>2023-08-06T15:07:40Z</time>
      </trkpt>
      <trkpt lat="49.84808" lon="3.41544">
        <ele>73.8</ele>
        <time>2023-08-06T15:07:43Z</time>
      </trkpt>
      <trkpt lat="49.84801" lon="3.4155">
        <ele>73.2</ele>
        <time>2023-08-06T15:07:44Z</time>
      </trkpt>
      <trkpt lat="49.84793" lon="3.41556">
        <ele>72.8</ele>
        <time>2023-08-06T15:07:46Z</time>
      </trkpt>
      <trkpt lat="49.84767" lon="3.41577">
        <ele>71.4</ele>
        <time>2023-08-06T15:07:49Z</time>
      </trkpt>
      <trkpt lat="49.84749" lon="3.4159">
        <ele>70.2</ele>
        <time>2023-08-06T15:07:51Z</time>
      </trkpt>
      <trkpt lat="49.84731" lon="3.41605">
        <ele>70</ele>
        <time>2023-08-06T15:07:52Z</time>
      </trkpt>
      <trkpt lat="49.84722" lon="3.41612">
        <ele>68.8</ele>
        <time>2023-08-06T15:07:54Z</time>
      </trkpt>
      <trkpt lat="49.84685" lon="3.41638">
        <ele>67.8</ele>
        <time>2023-08-06T15:07:58Z</time>
      </trkpt>
      <trkpt lat="49.84648" lon="3.41663">
        <ele>66.6</ele>
        <time>2023-08-06T15:08:01Z</time>
      </trkpt>
      <trkpt lat="49.84638" lon="3.41669">
        <ele>65.6</ele>
        <time>2023-08-06T15:08:03Z</time>
      </trkpt>
      <trkpt lat="49.84618" lon="3.41677">
        <ele>65.4</ele>
        <time>2023-08-06T15:08:04Z</time>
      </trkpt>
      <trkpt lat="49.84598" lon="3.41684">
        <ele>64.8</ele>
        <time>2023-08-06T15:08:06Z</time>
      </trkpt>
      <trkpt lat="49.84588" lon="3.41688">
        <ele>64</ele>
        <time>2023-08-06T15:08:07Z</time>
      </trkpt>
      <trkpt lat="49.84568" lon="3.41694">
        <ele>62.6</ele>
        <time>2023-08-06T15:08:09Z</time>
      </trkpt>
      <trkpt lat="49.84538" lon="3.41705">
        <ele>61.2</ele>
        <time>2023-08-06T15:08:12Z</time>
      </trkpt>
      <trkpt lat="49.845" lon="3.41718">
        <ele>60.2</ele>
        <time>2023-08-06T15:08:16Z</time>
      </trkpt>
      <trkpt lat="49.84491" lon="3.41722">
        <ele>60.2</ele>
        <time>2023-08-06T15:08:17Z</time>
      </trkpt>
      <trkpt lat="49.84481" lon="3.41726">
        <ele>59.6</ele>
        <time>2023-08-06T15:08:18Z</time>
      </trkpt>
      <trkpt lat="49.84472" lon="3.4173">
        <ele>58.6</ele>
        <time>2023-08-06T15:08:19Z</time>
      </trkpt>
      <trkpt lat="49.84463" lon="3.41734">
        <ele>58.2</ele>
        <time>2023-08-06T15:08:20Z</time>
      </trkpt>
      <trkpt lat="49.84454" lon="3.41737">
        <ele>57.8</ele>
        <time>2023-08-06T15:08:21Z</time>
      </trkpt>
      <trkpt lat="49.84446" lon="3.4174">
        <ele>57.6</ele>
        <time>2023-08-06T15:08:22Z</time>
      </trkpt>
      <trkpt lat="49.84437" lon="3.41744">
        <ele>57</ele>
        <time>2023-08-06T15:08:23Z</time>
      </trkpt>
      <trkpt lat="49.84428" lon="3.41747">
        <ele>57</ele>
        <time>2023-08-06T15:08:24Z</time>
      </trkpt>
      <trkpt lat="49.8442" lon="3.4175">
        <ele>56.8</ele>
        <time>2023-08-06T15:08:25Z</time>
      </trkpt>
      <trkpt lat="49.84411" lon="3.41753">
        <ele>56.6</ele>
        <time>2023-08-06T15:08:26Z</time>
      </trkpt>
      <trkpt lat="49.84402" lon="3.41756">
        <ele>56.4</ele>
        <time>2023-08-06T15:08:27Z</time>
      </trkpt>
      <trkpt lat="49.84394" lon="3.41758">
        <ele>56.2</ele>
        <time>2023-08-06T15:08:28Z</time>
      </trkpt>
      <trkpt lat="49.84367" lon="3.41763">
        <ele>55.4</ele>
        <time>2023-08-06T15:08:31Z</time>
      </trkpt>
      <trkpt lat="49.8435" lon="3.41767">
        <ele>54.8</ele>
        <time>2023-08-06T15:08:33Z</time>
      </trkpt>
      <trkpt lat="49.84343" lon="3.41768">
        <ele>54.6</ele>
        <time>2023-08-06T15:08:34Z</time>
      </trkpt>
      <trkpt lat="49.84336" lon="3.41769">
        <ele>54.2</ele>
        <time>2023-08-06T15:08:35Z</time>
      </trkpt>
      <trkpt lat="49.84329" lon="3.41769">
        <ele>54</ele>
        <time>2023-08-06T15:08:36Z</time>
      </trkpt>
      <trkpt lat="49.84323" lon="3.41769">
        <ele>53.6</ele>
        <time>2023-08-06T15:08:37Z</time>
      </trkpt>
      <trkpt lat="49.84318" lon="3.4177">
        <ele>53.6</ele>
        <time>2023-08-06T15:08:38Z</time>
      </trkpt>
      <trkpt lat="49.84314" lon="3.4177">
        <ele>53.4</ele>
        <time>2023-08-06T15:08:39Z</time>
      </trkpt>
      <trkpt lat="49.8431" lon="3.4177">
        <ele>53.2</ele>
        <time>2023-08-06T15:08:40Z</time>
      </trkpt>
      <trkpt lat="49.84307" lon="3.41769">
        <ele>53</ele>
        <time>2023-08-06T15:08:41Z</time>
      </trkpt>
      <trkpt lat="49.84303" lon="3.41769">
        <ele>53</ele>
        <time>2023-08-06T15:08:42Z</time>
      </trkpt>
      <trkpt lat="49.843" lon="3.41769">
        <ele>52.8</ele>
        <time>2023-08-06T15:08:43Z</time>
      </trkpt>
      <trkpt lat="49.84289" lon="3.41773">
        <ele>52.4</ele>
        <time>2023-08-06T15:08:46Z</time>
      </trkpt>
      <trkpt lat="49.84285" lon="3.41776">
        <ele>52.2</ele>
        <time>2023-08-06T15:08:48Z</time>
      </trkpt>
      <trkpt lat="49.84259" lon="3.41786">
        <ele>51.6</ele>
        <time>2023-08-06T15:08:52Z</time>
      </trkpt>
      <trkpt lat="49.84239" lon="3.41796">
        <ele>51.2</ele>
        <time>2023-08-06T15:08:55Z</time>
      </trkpt>
      <trkpt lat="49.84231" lon="3.41802">
        <ele>51.2</ele>
        <time>2023-08-06T15:08:56Z</time>
      </trkpt>
      <trkpt lat="49.84218" lon="3.41814">
        <ele>50.6</ele>
        <time>2023-08-06T15:08:58Z</time>
      </trkpt>
      <trkpt lat="49.84202" lon="3.41827">
        <ele>49.2</ele>
        <time>2023-08-06T15:09:00Z</time>
      </trkpt>
      <trkpt lat="49.84185" lon="3.41842">
        <ele>48.6</ele>
        <time>2023-08-06T15:09:02Z</time>
      </trkpt>
      <trkpt lat="49.84177" lon="3.41849">
        <ele>48.2</ele>
        <time>2023-08-06T15:09:03Z</time>
      </trkpt>
      <trkpt lat="49.8415" lon="3.41868">
        <ele>47</ele>
        <time>2023-08-06T15:09:06Z</time>
      </trkpt>
      <trkpt lat="49.84131" lon="3.41879">
        <ele>46</ele>
        <time>2023-08-06T15:09:08Z</time>
      </trkpt>
      <trkpt lat="49.84113" lon="3.4189">
        <ele>45</ele>
        <time>2023-08-06T15:09:10Z</time>
      </trkpt>
      <trkpt lat="49.84087" lon="3.41906">
        <ele>43.6</ele>
        <time>2023-08-06T15:09:13Z</time>
      </trkpt>
      <trkpt lat="49.84061" lon="3.41923">
        <ele>42.4</ele>
        <time>2023-08-06T15:09:16Z</time>
      </trkpt>
      <trkpt lat="49.84052" lon="3.41929">
        <ele>42.2</ele>
        <time>2023-08-06T15:09:17Z</time>
      </trkpt>
      <trkpt lat="49.84044" lon="3.41934">
        <ele>42</ele>
        <time>2023-08-06T15:09:18Z</time>
      </trkpt>
      <trkpt lat="49.84036" lon="3.4194">
        <ele>41.8</ele>
        <time>2023-08-06T15:09:19Z</time>
      </trkpt>
      <trkpt lat="49.84019" lon="3.41953">
        <ele>41.6</ele>
        <time>2023-08-06T15:09:21Z</time>
      </trkpt>
      <trkpt lat="49.84011" lon="3.41959">
        <ele>41.4</ele>
        <time>2023-08-06T15:09:22Z</time>
      </trkpt>
      <trkpt lat="49.84003" lon="3.41965">
        <ele>41.2</ele>
        <time>2023-08-06T15:09:23Z</time>
      </trkpt>
      <trkpt lat="49.83978" lon="3.41979">
        <ele>41</ele>
        <time>2023-08-06T15:09:26Z</time>
      </trkpt>
      <trkpt lat="49.83971" lon="3.41981">
        <ele>41</ele>
        <time>2023-08-06T15:09:27Z</time>
      </trkpt>
      <trkpt lat="49.83963" lon="3.41983">
        <ele>41</ele>
        <time>2023-08-06T15:09:28Z</time>
      </trkpt>
      <trkpt lat="49.83955" lon="3.41984">
        <ele>41</ele>
        <time>2023-08-06T15:09:29Z</time>
      </trkpt>
      <trkpt lat="49.83947" lon="3.41986">
        <ele>41</ele>
        <time>2023-08-06T15:09:30Z</time>
      </trkpt>
      <trkpt lat="49.83941" lon="3.41987">
        <ele>41</ele>
        <time>2023-08-06T15:09:31Z</time>
      </trkpt>
      <trkpt lat="49.83934" lon="3.41989">
        <ele>40.8</ele>
        <time>2023-08-06T15:09:32Z</time>
      </trkpt>
      <trkpt lat="49.83927" lon="3.41991">
        <ele>40.8</ele>
        <time>2023-08-06T15:09:33Z</time>
      </trkpt>
      <trkpt lat="49.83907" lon="3.41997">
        <ele>41</ele>
        <time>2023-08-06T15:09:36Z</time>
      </trkpt>
      <trkpt lat="49.83901" lon="3.41998">
        <ele>41</ele>
        <time>2023-08-06T15:09:37Z</time>
      </trkpt>
      <trkpt lat="49.83895" lon="3.42">
        <ele>41</ele>
        <time>2023-08-06T15:09:38Z</time>
      </trkpt>
      <trkpt lat="49.83889" lon="3.42001">
        <ele>41</ele>
        <time>2023-08-06T15:09:39Z</time>
      </trkpt>
      <trkpt lat="49.83883" lon="3.42003">
        <ele>41.2</ele>
        <time>2023-08-06T15:09:40Z</time>
      </trkpt>
      <trkpt lat="49.83877" lon="3.42004">
        <ele>41.2</ele>
        <time>2023-08-06T15:09:41Z</time>
      </trkpt>
      <trkpt lat="49.83872" lon="3.42005">
        <ele>41.2</ele>
        <time>2023-08-06T15:09:42Z</time>
      </trkpt>
      <trkpt lat="49.83867" lon="3.42007">
        <ele>41.2</ele>
        <time>2023-08-06T15:09:43Z</time>
      </trkpt>
      <trkpt lat="49.83862" lon="3.42008">
        <ele>41.2</ele>
        <time>2023-08-06T15:09:44Z</time>
      </trkpt>
      <trkpt lat="49.83858" lon="3.4201">
        <ele>41.4</ele>
        <time>2023-08-06T15:09:45Z</time>
      </trkpt>
      <trkpt lat="49.83854" lon="3.42011">
        <ele>41.6</ele>
        <time>2023-08-06T15:09:46Z</time>
      </trkpt>
      <trkpt lat="49.83851" lon="3.42012">
        <ele>41.8</ele>
        <time>2023-08-06T15:09:47Z</time>
      </trkpt>
      <trkpt lat="49.83847" lon="3.42013">
        <ele>41.8</ele>
        <time>2023-08-06T15:09:48Z</time>
      </trkpt>
      <trkpt lat="49.83844" lon="3.42014">
        <ele>42</ele>
        <time>2023-08-06T15:09:49Z</time>
      </trkpt>
      <trkpt lat="49.83841" lon="3.42015">
        <ele>42.2</ele>
        <time>2023-08-06T15:09:50Z</time>
      </trkpt>
      <trkpt lat="49.83839" lon="3.42016">
        <ele>42.2</ele>
        <time>2023-08-06T15:09:51Z</time>
      </trkpt>
      <trkpt lat="49.83836" lon="3.42016">
        <ele>42.4</ele>
        <time>2023-08-06T15:09:52Z</time>
      </trkpt>
      <trkpt lat="49.83834" lon="3.42017">
        <ele>42.4</ele>
        <time>2023-08-06T15:09:53Z</time>
      </trkpt>
      <trkpt lat="49.83831" lon="3.42017">
        <ele>42.6</ele>
        <time>2023-08-06T15:09:54Z</time>
      </trkpt>
      <trkpt lat="49.83829" lon="3.42018">
        <ele>42.8</ele>
        <time>2023-08-06T15:09:55Z</time>
      </trkpt>
      <trkpt lat="49.83825" lon="3.42019">
        <ele>43.6</ele>
        <time>2023-08-06T15:09:57Z</time>
      </trkpt>
      <trkpt lat="49.83823" lon="3.4202">
        <ele>43.8</ele>
        <time>2023-08-06T15:09:58Z</time>
      </trkpt>
      <trkpt lat="49.83821" lon="3.4202">
        <ele>44.2</ele>
        <time>2023-08-06T15:09:59Z</time>
      </trkpt>
      <trkpt lat="49.83819" lon="3.4202">
        <ele>44.2</ele>
        <time>2023-08-06T15:10:00Z</time>
      </trkpt>
      <trkpt lat="49.83817" lon="3.42021">
        <ele>44.4</ele>
        <time>2023-08-06T15:10:01Z</time>
      </trkpt>
      <trkpt lat="49.83815" lon="3.42021">
        <ele>44.6</ele>
        <time>2023-08-06T15:10:02Z</time>
      </trkpt>
      <trkpt lat="49.83813" lon="3.42022">
        <ele>45</ele>
        <time>2023-08-06T15:10:03Z</time>
      </trkpt>
      <trkpt lat="49.83811" lon="3.42022">
        <ele>45</ele>
        <time>2023-08-06T15:10:04Z</time>
      </trkpt>
      <trkpt lat="49.83809" lon="3.42023">
        <ele>45.2</ele>
        <time>2023-08-06T15:10:05Z</time>
      </trkpt>
      <trkpt lat="49.83807" lon="3.42023">
        <ele>45.4</ele>
        <time>2023-08-06T15:10:06Z</time>
      </trkpt>
      <trkpt lat="49.83805" lon="3.42023">
        <ele>45.4</ele>
        <time>2023-08-06T15:10:07Z</time>
      </trkpt>
      <trkpt lat="49.83803" lon="3.42024">
        <ele>45.6</ele>
        <time>2023-08-06T15:10:08Z</time>
      </trkpt>
      <trkpt lat="49.83802" lon="3.42024">
        <ele>45.6</ele>
        <time>2023-08-06T15:10:09Z</time>
      </trkpt>
      <trkpt lat="49.838" lon="3.42025">
        <ele>45.8</ele>
        <time>2023-08-06T15:10:10Z</time>
      </trkpt>
      <trkpt lat="49.83798" lon="3.42025">
        <ele>46</ele>
        <time>2023-08-06T15:10:11Z</time>
      </trkpt>
      <trkpt lat="49.83796" lon="3.42026">
        <ele>46.2</ele>
        <time>2023-08-06T15:10:12Z</time>
      </trkpt>
      <trkpt lat="49.83794" lon="3.42026">
        <ele>46.2</ele>
        <time>2023-08-06T15:10:13Z</time>
      </trkpt>
      <trkpt lat="49.83792" lon="3.42027">
        <ele>46.6</ele>
        <time>2023-08-06T15:10:14Z</time>
      </trkpt>
      <trkpt lat="49.83792" lon="3.42027">
        <ele>46.8</ele>
        <time>2023-08-06T15:10:15Z</time>
      </trkpt>
      <trkpt lat="49.83789" lon="3.42028">
        <ele>46.8</ele>
        <time>2023-08-06T15:10:16Z</time>
      </trkpt>
      <trkpt lat="49.83787" lon="3.42029">
        <ele>47</ele>
        <time>2023-08-06T15:10:17Z</time>
      </trkpt>
      <trkpt lat="49.83785" lon="3.42029">
        <ele>47.2</ele>
        <time>2023-08-06T15:10:18Z</time>
      </trkpt>
      <trkpt lat="49.83783" lon="3.4203">
        <ele>47.4</ele>
        <time>2023-08-06T15:10:19Z</time>
      </trkpt>
      <trkpt lat="49.83781" lon="3.4203">
        <ele>47.6</ele>
        <time>2023-08-06T15:10:20Z</time>
      </trkpt>
      <trkpt lat="49.83779" lon="3.42031">
        <ele>47.8</ele>
        <time>2023-08-06T15:10:21Z</time>
      </trkpt>
      <trkpt lat="49.83778" lon="3.42032">
        <ele>47.8</ele>
        <time>2023-08-06T15:10:22Z</time>
      </trkpt>
      <trkpt lat="49.83776" lon="3.42032">
        <ele>48</ele>
        <time>2023-08-06T15:10:23Z</time>
      </trkpt>
      <trkpt lat="49.83774" lon="3.42032">
        <ele>48.2</ele>
        <time>2023-08-06T15:10:24Z</time>
      </trkpt>
      <trkpt lat="49.83773" lon="3.42032">
        <ele>48.2</ele>
        <time>2023-08-06T15:10:25Z</time>
      </trkpt>
      <trkpt lat="49.83771" lon="3.42033">
        <ele>48.6</ele>
        <time>2023-08-06T15:10:26Z</time>
      </trkpt>
      <trkpt lat="49.8377" lon="3.42033">
        <ele>48.6</ele>
        <time>2023-08-06T15:10:27Z</time>
      </trkpt>
      <trkpt lat="49.83768" lon="3.42033">
        <ele>48.6</ele>
        <time>2023-08-06T15:10:28Z</time>
      </trkpt>
      <trkpt lat="49.83767" lon="3.42033">
        <ele>48.6</ele>
        <time>2023-08-06T15:10:29Z</time>
      </trkpt>
      <trkpt lat="49.83765" lon="3.42033">
        <ele>48.8</ele>
        <time>2023-08-06T15:10:30Z</time>
      </trkpt>
      <trkpt lat="49.83763" lon="3.42034">
        <ele>49</ele>
        <time>2023-08-06T15:10:31Z</time>
      </trkpt>
      <trkpt lat="49.83762" lon="3.42034">
        <ele>49.2</ele>
        <time>2023-08-06T15:10:32Z</time>
      </trkpt>
      <trkpt lat="49.8376" lon="3.42034">
        <ele>49.4</ele>
        <time>2023-08-06T15:10:33Z</time>
      </trkpt>
      <trkpt lat="49.83758" lon="3.42034">
        <ele>49.2</ele>
        <time>2023-08-06T15:10:34Z</time>
      </trkpt>
      <trkpt lat="49.83757" lon="3.42035">
        <ele>49.6</ele>
        <time>2023-08-06T15:10:35Z</time>
      </trkpt>
      <trkpt lat="49.83755" lon="3.42035">
        <ele>49.6</ele>
        <time>2023-08-06T15:10:36Z</time>
      </trkpt>
      <trkpt lat="49.83754" lon="3.42036">
        <ele>49.6</ele>
        <time>2023-08-06T15:10:37Z</time>
      </trkpt>
      <trkpt lat="49.83752" lon="3.42036">
        <ele>49.8</ele>
        <time>2023-08-06T15:10:38Z</time>
      </trkpt>
      <trkpt lat="49.8375" lon="3.42036">
        <ele>49.8</ele>
        <time>2023-08-06T15:10:39Z</time>
      </trkpt>
      <trkpt lat="49.83749" lon="3.42037">
        <ele>49.8</ele>
        <time>2023-08-06T15:10:40Z</time>
      </trkpt>
      <trkpt lat="49.83747" lon="3.42037">
        <ele>50</ele>
        <time>2023-08-06T15:10:41Z</time>
      </trkpt>
      <trkpt lat="49.83746" lon="3.42037">
        <ele>50</ele>
        <time>2023-08-06T15:10:42Z</time>
      </trkpt>
      <trkpt lat="49.83744" lon="3.42037">
        <ele>50.2</ele>
        <time>2023-08-06T15:10:43Z</time>
      </trkpt>
      <trkpt lat="49.83742" lon="3.42038">
        <ele>50.4</ele>
        <time>2023-08-06T15:10:44Z</time>
      </trkpt>
      <trkpt lat="49.83741" lon="3.42038">
        <ele>50.4</ele>
        <time>2023-08-06T15:10:45Z</time>
      </trkpt>
      <trkpt lat="49.83739" lon="3.42038">
        <ele>50.4</ele>
        <time>2023-08-06T15:10:46Z</time>
      </trkpt>
      <trkpt lat="49.83738" lon="3.42039">
        <ele>50.6</ele>
        <time>2023-08-06T15:10:47Z</time>
      </trkpt>
      <trkpt lat="49.83736" lon="3.42039">
        <ele>50.6</ele>
        <time>2023-08-06T15:10:48Z</time>
      </trkpt>
      <trkpt lat="49.83735" lon="3.42039">
        <ele>50.8</ele>
        <time>2023-08-06T15:10:49Z</time>
      </trkpt>
      <trkpt lat="49.83734" lon="3.4204">
        <ele>50.8</ele>
        <time>2023-08-06T15:10:50Z</time>
      </trkpt>
      <trkpt lat="49.83732" lon="3.4204">
        <ele>51</ele>
        <time>2023-08-06T15:10:51Z</time>
      </trkpt>
      <trkpt lat="49.83732" lon="3.4204">
        <ele>51</ele>
        <time>2023-08-06T15:10:52Z</time>
      </trkpt>
      <trkpt lat="49.8373" lon="3.42041">
        <ele>51</ele>
        <time>2023-08-06T15:10:53Z</time>
      </trkpt>
      <trkpt lat="49.83729" lon="3.42041">
        <ele>51.2</ele>
        <time>2023-08-06T15:10:54Z</time>
      </trkpt>
      <trkpt lat="49.83727" lon="3.42041">
        <ele>51.4</ele>
        <time>2023-08-06T15:10:55Z</time>
      </trkpt>
      <trkpt lat="49.83726" lon="3.42042">
        <ele>51.6</ele>
        <time>2023-08-06T15:10:56Z</time>
      </trkpt>
      <trkpt lat="49.83725" lon="3.42042">
        <ele>51.6</ele>
        <time>2023-08-06T15:10:57Z</time>
      </trkpt>
      <trkpt lat="49.83723" lon="3.42042">
        <ele>51.8</ele>
        <time>2023-08-06T15:10:58Z</time>
      </trkpt>
      <trkpt lat="49.83722" lon="3.42043">
        <ele>51.8</ele>
        <time>2023-08-06T15:10:59Z</time>
      </trkpt>
      <trkpt lat="49.83721" lon="3.42043">
        <ele>51.8</ele>
        <time>2023-08-06T15:11:00Z</time>
      </trkpt>
      <trkpt lat="49.8372" lon="3.42043">
        <ele>51.8</ele>
        <time>2023-08-06T15:11:01Z</time>
      </trkpt>
      <trkpt lat="49.83718" lon="3.42044">
        <ele>52</ele>
        <time>2023-08-06T15:11:02Z</time>
      </trkpt>
      <trkpt lat="49.83717" lon="3.42044">
        <ele>52</ele>
        <time>2023-08-06T15:11:03Z</time>
      </trkpt>
      <trkpt lat="49.83714" lon="3.42044">
        <ele>52.2</ele>
        <time>2023-08-06T15:11:05Z</time>
      </trkpt>
      <trkpt lat="49.83706" lon="3.42045">
        <ele>53</ele>
        <time>2023-08-06T15:11:11Z</time>
      </trkpt>
      <trkpt lat="49.83705" lon="3.42045">
        <ele>53.2</ele>
        <time>2023-08-06T15:11:13Z</time>
      </trkpt>
      <trkpt lat="49.83699" lon="3.42047">
        <ele>53.6</ele>
        <time>2023-08-06T15:11:16Z</time>
      </trkpt>
      <trkpt lat="49.83698" lon="3.42047">
        <ele>53.6</ele>
        <time>2023-08-06T15:11:17Z</time>
      </trkpt>
      <trkpt lat="49.83696" lon="3.42047">
        <ele>53.8</ele>
        <time>2023-08-06T15:11:18Z</time>
      </trkpt>
      <trkpt lat="49.83695" lon="3.42047">
        <ele>54</ele>
        <time>2023-08-06T15:11:19Z</time>
      </trkpt>
      <trkpt lat="49.83694" lon="3.42046">
        <ele>54</ele>
        <time>2023-08-06T15:11:20Z</time>
      </trkpt>
      <trkpt lat="49.83694" lon="3.42046">
        <ele>54.2</ele>
        <time>2023-08-06T15:11:21Z</time>
      </trkpt>
      <trkpt lat="49.83691" lon="3.42047">
        <ele>54.2</ele>
        <time>2023-08-06T15:11:22Z</time>
      </trkpt>
      <trkpt lat="49.8369" lon="3.42047">
        <ele>54.4</ele>
        <time>2023-08-06T15:11:23Z</time>
      </trkpt>
      <trkpt lat="49.83688" lon="3.42047">
        <ele>54.6</ele>
        <time>2023-08-06T15:11:24Z</time>
      </trkpt>
      <trkpt lat="49.83687" lon="3.42047">
        <ele>54.6</ele>
        <time>2023-08-06T15:11:25Z</time>
      </trkpt>
      <trkpt lat="49.83685" lon="3.42048">
        <ele>54.6</ele>
        <time>2023-08-06T15:11:26Z</time>
      </trkpt>
      <trkpt lat="49.83684" lon="3.42048">
        <ele>54.8</ele>
        <time>2023-08-06T15:11:27Z</time>
      </trkpt>
      <trkpt lat="49.83683" lon="3.42048">
        <ele>54.8</ele>
        <time>2023-08-06T15:11:28Z</time>
      </trkpt>
      <trkpt lat="49.83681" lon="3.42048">
        <ele>55</ele>
        <time>2023-08-06T15:11:29Z</time>
      </trkpt>
      <trkpt lat="49.8368" lon="3.42048">
        <ele>55.2</ele>
        <time>2023-08-06T15:11:30Z</time>
      </trkpt>
      <trkpt lat="49.83679" lon="3.42048">
        <ele>55.2</ele>
        <time>2023-08-06T15:11:31Z</time>
      </trkpt>
      <trkpt lat="49.83677" lon="3.42048">
        <ele>55.4</ele>
        <time>2023-08-06T15:11:32Z</time>
      </trkpt>
      <trkpt lat="49.83676" lon="3.42048">
        <ele>55.6</ele>
        <time>2023-08-06T15:11:33Z</time>
      </trkpt>
      <trkpt lat="49.83674" lon="3.42048">
        <ele>55.6</ele>
        <time>2023-08-06T15:11:34Z</time>
      </trkpt>
      <trkpt lat="49.83673" lon="3.42048">
        <ele>55.8</ele>
        <time>2023-08-06T15:11:35Z</time>
      </trkpt>
      <trkpt lat="49.83672" lon="3.42048">
        <ele>55.8</ele>
        <time>2023-08-06T15:11:36Z</time>
      </trkpt>
      <trkpt lat="49.83671" lon="3.42048">
        <ele>56</ele>
        <time>2023-08-06T15:11:37Z</time>
      </trkpt>
      <trkpt lat="49.8367" lon="3.42048">
        <ele>56</ele>
        <time>2023-08-06T15:11:38Z</time>
      </trkpt>
      <trkpt lat="49.83668" lon="3.42047">
        <ele>56.2</ele>
        <time>2023-08-06T15:11:39Z</time>
      </trkpt>
      <trkpt lat="49.83667" lon="3.42047">
        <ele>56.2</ele>
        <time>2023-08-06T15:11:40Z</time>
      </trkpt>
      <trkpt lat="49.83665" lon="3.42047">
        <ele>56.4</ele>
        <time>2023-08-06T15:11:41Z</time>
      </trkpt>
      <trkpt lat="49.83664" lon="3.42047">
        <ele>56.6</ele>
        <time>2023-08-06T15:11:42Z</time>
      </trkpt>
      <trkpt lat="49.83663" lon="3.42046">
        <ele>56.8</ele>
        <time>2023-08-06T15:11:43Z</time>
      </trkpt>
      <trkpt lat="49.83661" lon="3.42046">
        <ele>57</ele>
        <time>2023-08-06T15:11:44Z</time>
      </trkpt>
      <trkpt lat="49.8366" lon="3.42045">
        <ele>57</ele>
        <time>2023-08-06T15:11:45Z</time>
      </trkpt>
      <trkpt lat="49.83658" lon="3.42045">
        <ele>57.2</ele>
        <time>2023-08-06T15:11:46Z</time>
      </trkpt>
      <trkpt lat="49.83657" lon="3.42045">
        <ele>57.2</ele>
        <time>2023-08-06T15:11:47Z</time>
      </trkpt>
      <trkpt lat="49.83656" lon="3.42044">
        <ele>57.4</ele>
        <time>2023-08-06T15:11:48Z</time>
      </trkpt>
      <trkpt lat="49.83655" lon="3.42043">
        <ele>57.4</ele>
        <time>2023-08-06T15:11:49Z</time>
      </trkpt>
      <trkpt lat="49.83653" lon="3.42043">
        <ele>57.6</ele>
        <time>2023-08-06T15:11:50Z</time>
      </trkpt>
      <trkpt lat="49.83652" lon="3.42042">
        <ele>57.6</ele>
        <time>2023-08-06T15:11:51Z</time>
      </trkpt>
      <trkpt lat="49.83651" lon="3.42042">
        <ele>57.6</ele>
        <time>2023-08-06T15:11:52Z</time>
      </trkpt>
      <trkpt lat="49.83649" lon="3.42041">
        <ele>57.8</ele>
        <time>2023-08-06T15:11:53Z</time>
      </trkpt>
      <trkpt lat="49.83648" lon="3.4204">
        <ele>58</ele>
        <time>2023-08-06T15:11:54Z</time>
      </trkpt>
      <trkpt lat="49.83646" lon="3.42038">
        <ele>58.2</ele>
        <time>2023-08-06T15:11:55Z</time>
      </trkpt>
      <trkpt lat="49.83645" lon="3.42038">
        <ele>58.2</ele>
        <time>2023-08-06T15:11:56Z</time>
      </trkpt>
      <trkpt lat="49.83643" lon="3.42037">
        <ele>58.4</ele>
        <time>2023-08-06T15:11:57Z</time>
      </trkpt>
      <trkpt lat="49.83643" lon="3.42037">
        <ele>58.4</ele>
        <time>2023-08-06T15:11:58Z</time>
      </trkpt>
      <trkpt lat="49.8364" lon="3.42035">
        <ele>58.6</ele>
        <time>2023-08-06T15:11:59Z</time>
      </trkpt>
      <trkpt lat="49.83638" lon="3.42034">
        <ele>58.6</ele>
        <time>2023-08-06T15:12:00Z</time>
      </trkpt>
      <trkpt lat="49.83637" lon="3.42032">
        <ele>58.6</ele>
        <time>2023-08-06T15:12:01Z</time>
      </trkpt>
      <trkpt lat="49.83635" lon="3.42031">
        <ele>58.6</ele>
        <time>2023-08-06T15:12:02Z</time>
      </trkpt>
      <trkpt lat="49.83633" lon="3.4203">
        <ele>58.8</ele>
        <time>2023-08-06T15:12:03Z</time>
      </trkpt>
      <trkpt lat="49.83632" lon="3.42028">
        <ele>59</ele>
        <time>2023-08-06T15:12:04Z</time>
      </trkpt>
      <trkpt lat="49.8363" lon="3.42027">
        <ele>59</ele>
        <time>2023-08-06T15:12:05Z</time>
      </trkpt>
      <trkpt lat="49.83629" lon="3.42026">
        <ele>59.2</ele>
        <time>2023-08-06T15:12:06Z</time>
      </trkpt>
      <trkpt lat="49.83627" lon="3.42024">
        <ele>59.4</ele>
        <time>2023-08-06T15:12:07Z</time>
      </trkpt>
      <trkpt lat="49.83626" lon="3.42023">
        <ele>59.4</ele>
        <time>2023-08-06T15:12:08Z</time>
      </trkpt>
      <trkpt lat="49.83624" lon="3.42022">
        <ele>59.6</ele>
        <time>2023-08-06T15:12:09Z</time>
      </trkpt>
      <trkpt lat="49.83622" lon="3.42021">
        <ele>59.6</ele>
        <time>2023-08-06T15:12:10Z</time>
      </trkpt>
      <trkpt lat="49.83621" lon="3.4202">
        <ele>59.6</ele>
        <time>2023-08-06T15:12:11Z</time>
      </trkpt>
      <trkpt lat="49.8362" lon="3.4202">
        <ele>59.6</ele>
        <time>2023-08-06T15:12:12Z</time>
      </trkpt>
      <trkpt lat="49.83618" lon="3.4202">
        <ele>59.8</ele>
        <time>2023-08-06T15:12:13Z</time>
      </trkpt>
      <trkpt lat="49.83617" lon="3.42019">
        <ele>59.8</ele>
        <time>2023-08-06T15:12:14Z</time>
      </trkpt>
      <trkpt lat="49.83615" lon="3.42018">
        <ele>59.8</ele>
        <time>2023-08-06T15:12:15Z</time>
      </trkpt>
      <trkpt lat="49.83614" lon="3.42017">
        <ele>59.8</ele>
        <time>2023-08-06T15:12:16Z</time>
      </trkpt>
      <trkpt lat="49.8361" lon="3.42015">
        <ele>60</ele>
        <time>2023-08-06T15:12:18Z</time>
      </trkpt>
      <trkpt lat="49.83604" lon="3.42011">
        <ele>60.4</ele>
        <time>2023-08-06T15:12:22Z</time>
      </trkpt>
      <trkpt lat="49.83592" lon="3.42004">
        <ele>60.8</ele>
        <time>2023-08-06T15:12:29Z</time>
      </trkpt>
      <trkpt lat="49.83591" lon="3.42004">
        <ele>60.8</ele>
        <time>2023-08-06T15:12:30Z</time>
      </trkpt>
      <trkpt lat="49.83578" lon="3.42">
        <ele>61.2</ele>
        <time>2023-08-06T15:12:37Z</time>
      </trkpt>
      <trkpt lat="49.83569" lon="3.41998">
        <ele>61.4</ele>
        <time>2023-08-06T15:12:42Z</time>
      </trkpt>
      <trkpt lat="49.83568" lon="3.41998">
        <ele>61.4</ele>
        <time>2023-08-06T15:12:43Z</time>
      </trkpt>
      <trkpt lat="49.83565" lon="3.41998">
        <ele>61.6</ele>
        <time>2023-08-06T15:12:45Z</time>
      </trkpt>
      <trkpt lat="49.83563" lon="3.41997">
        <ele>61.6</ele>
        <time>2023-08-06T15:12:46Z</time>
      </trkpt>
      <trkpt lat="49.83563" lon="3.41997">
        <ele>61.8</ele>
        <time>2023-08-06T15:12:47Z</time>
      </trkpt>
      <trkpt lat="49.8356" lon="3.41997">
        <ele>61.8</ele>
        <time>2023-08-06T15:12:48Z</time>
      </trkpt>
      <trkpt lat="49.83559" lon="3.41997">
        <ele>62</ele>
        <time>2023-08-06T15:12:49Z</time>
      </trkpt>
      <trkpt lat="49.83558" lon="3.41996">
        <ele>62</ele>
        <time>2023-08-06T15:12:50Z</time>
      </trkpt>
      <trkpt lat="49.83556" lon="3.41996">
        <ele>62</ele>
        <time>2023-08-06T15:12:51Z</time>
      </trkpt>
      <trkpt lat="49.83555" lon="3.41996">
        <ele>62.2</ele>
        <time>2023-08-06T15:12:52Z</time>
      </trkpt>
      <trkpt lat="49.83553" lon="3.41996">
        <ele>62.2</ele>
        <time>2023-08-06T15:12:53Z</time>
      </trkpt>
      <trkpt lat="49.83552" lon="3.41996">
        <ele>62.4</ele>
        <time>2023-08-06T15:12:54Z</time>
      </trkpt>
      <trkpt lat="49.83551" lon="3.41995">
        <ele>62.4</ele>
        <time>2023-08-06T15:12:55Z</time>
      </trkpt>
      <trkpt lat="49.83549" lon="3.41995">
        <ele>62.4</ele>
        <time>2023-08-06T15:12:56Z</time>
      </trkpt>
      <trkpt lat="49.83548" lon="3.41995">
        <ele>62.6</ele>
        <time>2023-08-06T15:12:57Z</time>
      </trkpt>
      <trkpt lat="49.83547" lon="3.41995">
        <ele>62.6</ele>
        <time>2023-08-06T15:12:58Z</time>
      </trkpt>
      <trkpt lat="49.83539" lon="3.41993">
        <ele>63.6</ele>
        <time>2023-08-06T15:13:04Z</time>
      </trkpt>
      <trkpt lat="49.83528" lon="3.41995">
        <ele>64.4</ele>
        <time>2023-08-06T15:13:12Z</time>
      </trkpt>
      <trkpt lat="49.83526" lon="3.41995">
        <ele>64.6</ele>
        <time>2023-08-06T15:13:13Z</time>
      </trkpt>
      <trkpt lat="49.83525" lon="3.41995">
        <ele>64.8</ele>
        <time>2023-08-06T15:13:14Z</time>
      </trkpt>
      <trkpt lat="49.83524" lon="3.41995">
        <ele>64.8</ele>
        <time>2023-08-06T15:13:15Z</time>
      </trkpt>
      <trkpt lat="49.83523" lon="3.41996">
        <ele>65</ele>
        <time>2023-08-06T15:13:16Z</time>
      </trkpt>
      <trkpt lat="49.83521" lon="3.41997">
        <ele>65.2</ele>
        <time>2023-08-06T15:13:17Z</time>
      </trkpt>
      <trkpt lat="49.8352" lon="3.41997">
        <ele>65.2</ele>
        <time>2023-08-06T15:13:18Z</time>
      </trkpt>
      <trkpt lat="49.83518" lon="3.41997">
        <ele>65.4</ele>
        <time>2023-08-06T15:13:19Z</time>
      </trkpt>
      <trkpt lat="49.83517" lon="3.41998">
        <ele>65.4</ele>
        <time>2023-08-06T15:13:20Z</time>
      </trkpt>
      <trkpt lat="49.83516" lon="3.41998">
        <ele>65.6</ele>
        <time>2023-08-06T15:13:21Z</time>
      </trkpt>
      <trkpt lat="49.83514" lon="3.41998">
        <ele>65.6</ele>
        <time>2023-08-06T15:13:22Z</time>
      </trkpt>
      <trkpt lat="49.83513" lon="3.41998">
        <ele>65.8</ele>
        <time>2023-08-06T15:13:23Z</time>
      </trkpt>
      <trkpt lat="49.83511" lon="3.41998">
        <ele>65.8</ele>
        <time>2023-08-06T15:13:24Z</time>
      </trkpt>
      <trkpt lat="49.8351" lon="3.41998">
        <ele>66</ele>
        <time>2023-08-06T15:13:25Z</time>
      </trkpt>
      <trkpt lat="49.83508" lon="3.41998">
        <ele>66</ele>
        <time>2023-08-06T15:13:26Z</time>
      </trkpt>
      <trkpt lat="49.83507" lon="3.41998">
        <ele>66.2</ele>
        <time>2023-08-06T15:13:27Z</time>
      </trkpt>
      <trkpt lat="49.83506" lon="3.41998">
        <ele>66.4</ele>
        <time>2023-08-06T15:13:28Z</time>
      </trkpt>
      <trkpt lat="49.83505" lon="3.41999">
        <ele>66.4</ele>
        <time>2023-08-06T15:13:29Z</time>
      </trkpt>
      <trkpt lat="49.83503" lon="3.41999">
        <ele>66.6</ele>
        <time>2023-08-06T15:13:30Z</time>
      </trkpt>
      <trkpt lat="49.83502" lon="3.41999">
        <ele>66.8</ele>
        <time>2023-08-06T15:13:31Z</time>
      </trkpt>
      <trkpt lat="49.83501" lon="3.42">
        <ele>66.6</ele>
        <time>2023-08-06T15:13:32Z</time>
      </trkpt>
      <trkpt lat="49.835" lon="3.42">
        <ele>66.8</ele>
        <time>2023-08-06T15:13:33Z</time>
      </trkpt>
      <trkpt lat="49.83498" lon="3.42">
        <ele>67</ele>
        <time>2023-08-06T15:13:34Z</time>
      </trkpt>
      <trkpt lat="49.83497" lon="3.42001">
        <ele>67</ele>
        <time>2023-08-06T15:13:35Z</time>
      </trkpt>
      <trkpt lat="49.83496" lon="3.42001">
        <ele>67</ele>
        <time>2023-08-06T15:13:36Z</time>
      </trkpt>
      <trkpt lat="49.83495" lon="3.42001">
        <ele>67.2</ele>
        <time>2023-08-06T15:13:37Z</time>
      </trkpt>
      <trkpt lat="49.83493" lon="3.42002">
        <ele>67.2</ele>
        <time>2023-08-06T15:13:38Z</time>
      </trkpt>
      <trkpt lat="49.83492" lon="3.42002">
        <ele>67.4</ele>
        <time>2023-08-06T15:13:39Z</time>
      </trkpt>
      <trkpt lat="49.83491" lon="3.42003">
        <ele>67.6</ele>
        <time>2023-08-06T15:13:40Z</time>
      </trkpt>
      <trkpt lat="49.83489" lon="3.42004">
        <ele>67.8</ele>
        <time>2023-08-06T15:13:41Z</time>
      </trkpt>
      <trkpt lat="49.83488" lon="3.42004">
        <ele>68.2</ele>
        <time>2023-08-06T15:13:42Z</time>
      </trkpt>
      <trkpt lat="49.83487" lon="3.42005">
        <ele>68.2</ele>
        <time>2023-08-06T15:13:43Z</time>
      </trkpt>
      <trkpt lat="49.83486" lon="3.42005">
        <ele>68.4</ele>
        <time>2023-08-06T15:13:44Z</time>
      </trkpt>
      <trkpt lat="49.83484" lon="3.42006">
        <ele>68.6</ele>
        <time>2023-08-06T15:13:45Z</time>
      </trkpt>
      <trkpt lat="49.83483" lon="3.42007">
        <ele>68.6</ele>
        <time>2023-08-06T15:13:46Z</time>
      </trkpt>
      <trkpt lat="49.83482" lon="3.42007">
        <ele>68.8</ele>
        <time>2023-08-06T15:13:47Z</time>
      </trkpt>
      <trkpt lat="49.83481" lon="3.42008">
        <ele>69</ele>
        <time>2023-08-06T15:13:48Z</time>
      </trkpt>
      <trkpt lat="49.8348" lon="3.42008">
        <ele>69.4</ele>
        <time>2023-08-06T15:13:49Z</time>
      </trkpt>
      <trkpt lat="49.83479" lon="3.42008">
        <ele>69.4</ele>
        <time>2023-08-06T15:13:50Z</time>
      </trkpt>
      <trkpt lat="49.83478" lon="3.42008">
        <ele>69.6</ele>
        <time>2023-08-06T15:13:51Z</time>
      </trkpt>
      <trkpt lat="49.83477" lon="3.42009">
        <ele>69.8</ele>
        <time>2023-08-06T15:13:52Z</time>
      </trkpt>
      <trkpt lat="49.83476" lon="3.4201">
        <ele>69.8</ele>
        <time>2023-08-06T15:13:53Z</time>
      </trkpt>
      <trkpt lat="49.83474" lon="3.4201">
        <ele>70</ele>
        <time>2023-08-06T15:13:54Z</time>
      </trkpt>
      <trkpt lat="49.83473" lon="3.42011">
        <ele>70.2</ele>
        <time>2023-08-06T15:13:55Z</time>
      </trkpt>
      <trkpt lat="49.83472" lon="3.42011">
        <ele>70.4</ele>
        <time>2023-08-06T15:13:56Z</time>
      </trkpt>
      <trkpt lat="49.83471" lon="3.42012">
        <ele>70.4</ele>
        <time>2023-08-06T15:13:57Z</time>
      </trkpt>
      <trkpt lat="49.83469" lon="3.42013">
        <ele>70.6</ele>
        <time>2023-08-06T15:13:58Z</time>
      </trkpt>
      <trkpt lat="49.83468" lon="3.42013">
        <ele>70.8</ele>
        <time>2023-08-06T15:13:59Z</time>
      </trkpt>
      <trkpt lat="49.83468" lon="3.42013">
        <ele>70.8</ele>
        <time>2023-08-06T15:14:00Z</time>
      </trkpt>
      <trkpt lat="49.83465" lon="3.42014">
        <ele>71</ele>
        <time>2023-08-06T15:14:01Z</time>
      </trkpt>
      <trkpt lat="49.83464" lon="3.42015">
        <ele>71.4</ele>
        <time>2023-08-06T15:14:02Z</time>
      </trkpt>
      <trkpt lat="49.83462" lon="3.42015">
        <ele>71.4</ele>
        <time>2023-08-06T15:14:03Z</time>
      </trkpt>
      <trkpt lat="49.8346" lon="3.42016">
        <ele>71.6</ele>
        <time>2023-08-06T15:14:04Z</time>
      </trkpt>
      <trkpt lat="49.83458" lon="3.42017">
        <ele>71.8</ele>
        <time>2023-08-06T15:14:05Z</time>
      </trkpt>
      <trkpt lat="49.83456" lon="3.42017">
        <ele>72</ele>
        <time>2023-08-06T15:14:06Z</time>
      </trkpt>
      <trkpt lat="49.83455" lon="3.42018">
        <ele>72</ele>
        <time>2023-08-06T15:14:07Z</time>
      </trkpt>
      <trkpt lat="49.83453" lon="3.42018">
        <ele>72.2</ele>
        <time>2023-08-06T15:14:08Z</time>
      </trkpt>
      <trkpt lat="49.83451" lon="3.42019">
        <ele>72.4</ele>
        <time>2023-08-06T15:14:09Z</time>
      </trkpt>
      <trkpt lat="49.8345" lon="3.4202">
        <ele>72.6</ele>
        <time>2023-08-06T15:14:10Z</time>
      </trkpt>
      <trkpt lat="49.83448" lon="3.4202">
        <ele>72.8</ele>
        <time>2023-08-06T15:14:11Z</time>
      </trkpt>
      <trkpt lat="49.83447" lon="3.4202">
        <ele>73</ele>
        <time>2023-08-06T15:14:12Z</time>
      </trkpt>
      <trkpt lat="49.83445" lon="3.42021">
        <ele>73.2</ele>
        <time>2023-08-06T15:14:13Z</time>
      </trkpt>
      <trkpt lat="49.83444" lon="3.42022">
        <ele>73.4</ele>
        <time>2023-08-06T15:14:14Z</time>
      </trkpt>
      <trkpt lat="49.83442" lon="3.42022">
        <ele>73.6</ele>
        <time>2023-08-06T15:14:15Z</time>
      </trkpt>
      <trkpt lat="49.83441" lon="3.42022">
        <ele>73.6</ele>
        <time>2023-08-06T15:14:16Z</time>
      </trkpt>
      <trkpt lat="49.83439" lon="3.42023">
        <ele>73.8</ele>
        <time>2023-08-06T15:14:17Z</time>
      </trkpt>
      <trkpt lat="49.83437" lon="3.42024">
        <ele>73.8</ele>
        <time>2023-08-06T15:14:18Z</time>
      </trkpt>
      <trkpt lat="49.83436" lon="3.42024">
        <ele>74</ele>
        <time>2023-08-06T15:14:19Z</time>
      </trkpt>
      <trkpt lat="49.83434" lon="3.42025">
        <ele>74.2</ele>
        <time>2023-08-06T15:14:20Z</time>
      </trkpt>
      <trkpt lat="49.83433" lon="3.42026">
        <ele>74.2</ele>
        <time>2023-08-06T15:14:21Z</time>
      </trkpt>
      <trkpt lat="49.83431" lon="3.42026">
        <ele>74.2</ele>
        <time>2023-08-06T15:14:22Z</time>
      </trkpt>
      <trkpt lat="49.83429" lon="3.42027">
        <ele>74.4</ele>
        <time>2023-08-06T15:14:23Z</time>
      </trkpt>
      <trkpt lat="49.83427" lon="3.42028">
        <ele>74.4</ele>
        <time>2023-08-06T15:14:24Z</time>
      </trkpt>
      <trkpt lat="49.83425" lon="3.42028">
        <ele>74.6</ele>
        <time>2023-08-06T15:14:25Z</time>
      </trkpt>
      <trkpt lat="49.83423" lon="3.42029">
        <ele>74.6</ele>
        <time>2023-08-06T15:14:26Z</time>
      </trkpt>
      <trkpt lat="49.8342" lon="3.42029">
        <ele>74.6</ele>
        <time>2023-08-06T15:14:27Z</time>
      </trkpt>
      <trkpt lat="49.83417" lon="3.42029">
        <ele>74.6</ele>
        <time>2023-08-06T15:14:28Z</time>
      </trkpt>
      <trkpt lat="49.83415" lon="3.42029">
        <ele>74.8</ele>
        <time>2023-08-06T15:14:29Z</time>
      </trkpt>
      <trkpt lat="49.83412" lon="3.4203">
        <ele>74.8</ele>
        <time>2023-08-06T15:14:30Z</time>
      </trkpt>
      <trkpt lat="49.83408" lon="3.4203">
        <ele>74.8</ele>
        <time>2023-08-06T15:14:31Z</time>
      </trkpt>
      <trkpt lat="49.83404" lon="3.4203">
        <ele>75</ele>
        <time>2023-08-06T15:14:32Z</time>
      </trkpt>
      <trkpt lat="49.83402" lon="3.42031">
        <ele>75</ele>
        <time>2023-08-06T15:14:33Z</time>
      </trkpt>
      <trkpt lat="49.83398" lon="3.42032">
        <ele>75</ele>
        <time>2023-08-06T15:14:34Z</time>
      </trkpt>
      <trkpt lat="49.83394" lon="3.42033">
        <ele>75</ele>
        <time>2023-08-06T15:14:35Z</time>
      </trkpt>
      <trkpt lat="49.8339" lon="3.42033">
        <ele>75</ele>
        <time>2023-08-06T15:14:36Z</time>
      </trkpt>
      <trkpt lat="49.83385" lon="3.42034">
        <ele>75</ele>
        <time>2023-08-06T15:14:37Z</time>
      </trkpt>
      <trkpt lat="49.83382" lon="3.42035">
        <ele>74.8</ele>
        <time>2023-08-06T15:14:38Z</time>
      </trkpt>
      <trkpt lat="49.83363" lon="3.42038">
        <ele>74.6</ele>
        <time>2023-08-06T15:14:42Z</time>
      </trkpt>
      <trkpt lat="49.83358" lon="3.42039">
        <ele>74.6</ele>
        <time>2023-08-06T15:14:43Z</time>
      </trkpt>
      <trkpt lat="49.83323" lon="3.42044">
        <ele>74</ele>
        <time>2023-08-06T15:14:50Z</time>
      </trkpt>
      <trkpt lat="49.83307" lon="3.42048">
        <ele>73.2</ele>
        <time>2023-08-06T15:14:53Z</time>
      </trkpt>
      <trkpt lat="49.83301" lon="3.42051">
        <ele>73</ele>
        <time>2023-08-06T15:14:54Z</time>
      </trkpt>
      <trkpt lat="49.83295" lon="3.42055">
        <ele>72.6</ele>
        <time>2023-08-06T15:14:55Z</time>
      </trkpt>
      <trkpt lat="49.83277" lon="3.42069">
        <ele>72</ele>
        <time>2023-08-06T15:14:58Z</time>
      </trkpt>
      <trkpt lat="49.83257" lon="3.42086">
        <ele>71.6</ele>
        <time>2023-08-06T15:15:01Z</time>
      </trkpt>
      <trkpt lat="49.83243" lon="3.42096">
        <ele>71</ele>
        <time>2023-08-06T15:15:03Z</time>
      </trkpt>
      <trkpt lat="49.83221" lon="3.42112">
        <ele>69.6</ele>
        <time>2023-08-06T15:15:06Z</time>
      </trkpt>
      <trkpt lat="49.83215" lon="3.42116">
        <ele>69.2</ele>
        <time>2023-08-06T15:15:07Z</time>
      </trkpt>
      <trkpt lat="49.83207" lon="3.42122">
        <ele>68.8</ele>
        <time>2023-08-06T15:15:08Z</time>
      </trkpt>
      <trkpt lat="49.83199" lon="3.42128">
        <ele>68.4</ele>
        <time>2023-08-06T15:15:09Z</time>
      </trkpt>
      <trkpt lat="49.83168" lon="3.42147">
        <ele>67.4</ele>
        <time>2023-08-06T15:15:13Z</time>
      </trkpt>
      <trkpt lat="49.83153" lon="3.42156">
        <ele>67.2</ele>
        <time>2023-08-06T15:15:15Z</time>
      </trkpt>
      <trkpt lat="49.8313" lon="3.4217">
        <ele>66</ele>
        <time>2023-08-06T15:15:18Z</time>
      </trkpt>
      <trkpt lat="49.831" lon="3.42187">
        <ele>64.4</ele>
        <time>2023-08-06T15:15:22Z</time>
      </trkpt>
      <trkpt lat="49.83091" lon="3.42193">
        <ele>63.8</ele>
        <time>2023-08-06T15:15:23Z</time>
      </trkpt>
      <trkpt lat="49.83084" lon="3.42198">
        <ele>62.8</ele>
        <time>2023-08-06T15:15:24Z</time>
      </trkpt>
      <trkpt lat="49.83079" lon="3.42201">
        <ele>62.4</ele>
        <time>2023-08-06T15:15:25Z</time>
      </trkpt>
      <trkpt lat="49.83072" lon="3.42204">
        <ele>62</ele>
        <time>2023-08-06T15:15:26Z</time>
      </trkpt>
      <trkpt lat="49.83063" lon="3.42207">
        <ele>61.8</ele>
        <time>2023-08-06T15:15:27Z</time>
      </trkpt>
      <trkpt lat="49.83055" lon="3.42208">
        <ele>61.6</ele>
        <time>2023-08-06T15:15:28Z</time>
      </trkpt>
      <trkpt lat="49.83012" lon="3.42206">
        <ele>60.4</ele>
        <time>2023-08-06T15:15:33Z</time>
      </trkpt>
      <trkpt lat="49.82975" lon="3.42202">
        <ele>59.2</ele>
        <time>2023-08-06T15:15:37Z</time>
      </trkpt>
      <trkpt lat="49.82967" lon="3.422">
        <ele>58.2</ele>
        <time>2023-08-06T15:15:38Z</time>
      </trkpt>
      <trkpt lat="49.8296" lon="3.42198">
        <ele>57.8</ele>
        <time>2023-08-06T15:15:39Z</time>
      </trkpt>
      <trkpt lat="49.82953" lon="3.42196">
        <ele>57.2</ele>
        <time>2023-08-06T15:15:40Z</time>
      </trkpt>
      <trkpt lat="49.82947" lon="3.42194">
        <ele>57</ele>
        <time>2023-08-06T15:15:41Z</time>
      </trkpt>
      <trkpt lat="49.8294" lon="3.42192">
        <ele>56.4</ele>
        <time>2023-08-06T15:15:42Z</time>
      </trkpt>
      <trkpt lat="49.82935" lon="3.42189">
        <ele>56.2</ele>
        <time>2023-08-06T15:15:43Z</time>
      </trkpt>
      <trkpt lat="49.82932" lon="3.42187">
        <ele>55.8</ele>
        <time>2023-08-06T15:15:44Z</time>
      </trkpt>
      <trkpt lat="49.82928" lon="3.42185">
        <ele>55.2</ele>
        <time>2023-08-06T15:15:45Z</time>
      </trkpt>
      <trkpt lat="49.82923" lon="3.42181">
        <ele>55</ele>
        <time>2023-08-06T15:15:46Z</time>
      </trkpt>
      <trkpt lat="49.8292" lon="3.42177">
        <ele>54.4</ele>
        <time>2023-08-06T15:15:47Z</time>
      </trkpt>
      <trkpt lat="49.82917" lon="3.42172">
        <ele>54</ele>
        <time>2023-08-06T15:15:48Z</time>
      </trkpt>
      <trkpt lat="49.82915" lon="3.42169">
        <ele>53.6</ele>
        <time>2023-08-06T15:15:49Z</time>
      </trkpt>
      <trkpt lat="49.82913" lon="3.42166">
        <ele>53.4</ele>
        <time>2023-08-06T15:15:50Z</time>
      </trkpt>
      <trkpt lat="49.82911" lon="3.42164">
        <ele>53.2</ele>
        <time>2023-08-06T15:15:51Z</time>
      </trkpt>
      <trkpt lat="49.82909" lon="3.42163">
        <ele>53</ele>
        <time>2023-08-06T15:15:52Z</time>
      </trkpt>
      <trkpt lat="49.82908" lon="3.42163">
        <ele>53</ele>
        <time>2023-08-06T15:15:53Z</time>
      </trkpt>
      <trkpt lat="49.82906" lon="3.42162">
        <ele>52.8</ele>
        <time>2023-08-06T15:15:54Z</time>
      </trkpt>
      <trkpt lat="49.82905" lon="3.42161">
        <ele>52.8</ele>
        <time>2023-08-06T15:15:55Z</time>
      </trkpt>
      <trkpt lat="49.82902" lon="3.42158">
        <ele>52.6</ele>
        <time>2023-08-06T15:15:57Z</time>
      </trkpt>
      <trkpt lat="49.829" lon="3.42157">
        <ele>52.6</ele>
        <time>2023-08-06T15:15:58Z</time>
      </trkpt>
      <trkpt lat="49.82888" lon="3.42148">
        <ele>53</ele>
        <time>2023-08-06T15:16:03Z</time>
      </trkpt>
      <trkpt lat="49.82867" lon="3.42129">
        <ele>53.4</ele>
        <time>2023-08-06T15:16:09Z</time>
      </trkpt>
      <trkpt lat="49.82838" lon="3.42106">
        <ele>52.8</ele>
        <time>2023-08-06T15:16:14Z</time>
      </trkpt>
      <trkpt lat="49.82817" lon="3.42099">
        <ele>52</ele>
        <time>2023-08-06T15:16:17Z</time>
      </trkpt>
      <trkpt lat="49.828" lon="3.42096">
        <ele>51.4</ele>
        <time>2023-08-06T15:16:19Z</time>
      </trkpt>
      <trkpt lat="49.82785" lon="3.42096">
        <ele>50.4</ele>
        <time>2023-08-06T15:16:21Z</time>
      </trkpt>
      <trkpt lat="49.82769" lon="3.42096">
        <ele>49.2</ele>
        <time>2023-08-06T15:16:23Z</time>
      </trkpt>
      <trkpt lat="49.82761" lon="3.42095">
        <ele>48.8</ele>
        <time>2023-08-06T15:16:24Z</time>
      </trkpt>
      <trkpt lat="49.82751" lon="3.42095">
        <ele>48.2</ele>
        <time>2023-08-06T15:16:25Z</time>
      </trkpt>
      <trkpt lat="49.82744" lon="3.42095">
        <ele>47.8</ele>
        <time>2023-08-06T15:16:26Z</time>
      </trkpt>
      <trkpt lat="49.8272" lon="3.42099">
        <ele>47.2</ele>
        <time>2023-08-06T15:16:29Z</time>
      </trkpt>
      <trkpt lat="49.82714" lon="3.42101">
        <ele>47</ele>
        <time>2023-08-06T15:16:30Z</time>
      </trkpt>
      <trkpt lat="49.82709" lon="3.42102">
        <ele>46.4</ele>
        <time>2023-08-06T15:16:31Z</time>
      </trkpt>
      <trkpt lat="49.82703" lon="3.42102">
        <ele>45.4</ele>
        <time>2023-08-06T15:16:32Z</time>
      </trkpt>
      <trkpt lat="49.82696" lon="3.42104">
        <ele>44.2</ele>
        <time>2023-08-06T15:16:33Z</time>
      </trkpt>
      <trkpt lat="49.8269" lon="3.42105">
        <ele>44</ele>
        <time>2023-08-06T15:16:34Z</time>
      </trkpt>
      <trkpt lat="49.82679" lon="3.42106">
        <ele>43.4</ele>
        <time>2023-08-06T15:16:36Z</time>
      </trkpt>
      <trkpt lat="49.82673" lon="3.42108">
        <ele>43</ele>
        <time>2023-08-06T15:16:37Z</time>
      </trkpt>
      <trkpt lat="49.82643" lon="3.42121">
        <ele>41.4</ele>
        <time>2023-08-06T15:16:42Z</time>
      </trkpt>
      <trkpt lat="49.82636" lon="3.42125">
        <ele>41.4</ele>
        <time>2023-08-06T15:16:43Z</time>
      </trkpt>
      <trkpt lat="49.82621" lon="3.42136">
        <ele>39.8</ele>
        <time>2023-08-06T15:16:46Z</time>
      </trkpt>
      <trkpt lat="49.82615" lon="3.42139">
        <ele>39.6</ele>
        <time>2023-08-06T15:16:47Z</time>
      </trkpt>
      <trkpt lat="49.82609" lon="3.42139">
        <ele>39.2</ele>
        <time>2023-08-06T15:16:48Z</time>
      </trkpt>
      <trkpt lat="49.82604" lon="3.42138">
        <ele>38.8</ele>
        <time>2023-08-06T15:16:49Z</time>
      </trkpt>
      <trkpt lat="49.82597" lon="3.42135">
        <ele>38.8</ele>
        <time>2023-08-06T15:16:50Z</time>
      </trkpt>
      <trkpt lat="49.8259" lon="3.42133">
        <ele>38.4</ele>
        <time>2023-08-06T15:16:51Z</time>
      </trkpt>
      <trkpt lat="49.82582" lon="3.42131">
        <ele>38.4</ele>
        <time>2023-08-06T15:16:52Z</time>
      </trkpt>
      <trkpt lat="49.8256" lon="3.42129">
        <ele>37.6</ele>
        <time>2023-08-06T15:16:55Z</time>
      </trkpt>
      <trkpt lat="49.82535" lon="3.42129">
        <ele>36.6</ele>
        <time>2023-08-06T15:16:58Z</time>
      </trkpt>
      <trkpt lat="49.8252" lon="3.42131">
        <ele>36</ele>
        <time>2023-08-06T15:17:00Z</time>
      </trkpt>
      <trkpt lat="49.82503" lon="3.42135">
        <ele>35.2</ele>
        <time>2023-08-06T15:17:02Z</time>
      </trkpt>
      <trkpt lat="49.8248" lon="3.4214">
        <ele>34.6</ele>
        <time>2023-08-06T15:17:05Z</time>
      </trkpt>
      <trkpt lat="49.82463" lon="3.42145">
        <ele>34</ele>
        <time>2023-08-06T15:17:07Z</time>
      </trkpt>
      <trkpt lat="49.82425" lon="3.42153">
        <ele>33.6</ele>
        <time>2023-08-06T15:17:12Z</time>
      </trkpt>
      <trkpt lat="49.82419" lon="3.42153">
        <ele>33.4</ele>
        <time>2023-08-06T15:17:13Z</time>
      </trkpt>
      <trkpt lat="49.82395" lon="3.4215">
        <ele>33</ele>
        <time>2023-08-06T15:17:16Z</time>
      </trkpt>
      <trkpt lat="49.82388" lon="3.42147">
        <ele>33</ele>
        <time>2023-08-06T15:17:17Z</time>
      </trkpt>
      <trkpt lat="49.82375" lon="3.42142">
        <ele>33</ele>
        <time>2023-08-06T15:17:19Z</time>
      </trkpt>
      <trkpt lat="49.82361" lon="3.42134">
        <ele>33</ele>
        <time>2023-08-06T15:17:21Z</time>
      </trkpt>
      <trkpt lat="49.82356" lon="3.42131">
        <ele>33</ele>
        <time>2023-08-06T15:17:22Z</time>
      </trkpt>
      <trkpt lat="49.8235" lon="3.42128">
        <ele>33</ele>
        <time>2023-08-06T15:17:23Z</time>
      </trkpt>
      <trkpt lat="49.82345" lon="3.42124">
        <ele>33</ele>
        <time>2023-08-06T15:17:24Z</time>
      </trkpt>
      <trkpt lat="49.8234" lon="3.42122">
        <ele>33.2</ele>
        <time>2023-08-06T15:17:25Z</time>
      </trkpt>
      <trkpt lat="49.82333" lon="3.42118">
        <ele>33.2</ele>
        <time>2023-08-06T15:17:26Z</time>
      </trkpt>
      <trkpt lat="49.82329" lon="3.42116">
        <ele>33.2</ele>
        <time>2023-08-06T15:17:27Z</time>
      </trkpt>
      <trkpt lat="49.82318" lon="3.4211">
        <ele>33.2</ele>
        <time>2023-08-06T15:17:29Z</time>
      </trkpt>
      <trkpt lat="49.82306" lon="3.42104">
        <ele>33</ele>
        <time>2023-08-06T15:17:31Z</time>
      </trkpt>
      <trkpt lat="49.82302" lon="3.42101">
        <ele>33</ele>
        <time>2023-08-06T15:17:32Z</time>
      </trkpt>
      <trkpt lat="49.82291" lon="3.42095">
        <ele>33</ele>
        <time>2023-08-06T15:17:34Z</time>
      </trkpt>
      <trkpt lat="49.82286" lon="3.42092">
        <ele>32.8</ele>
        <time>2023-08-06T15:17:35Z</time>
      </trkpt>
      <trkpt lat="49.82281" lon="3.4209">
        <ele>32.8</ele>
        <time>2023-08-06T15:17:36Z</time>
      </trkpt>
      <trkpt lat="49.82277" lon="3.42087">
        <ele>32.8</ele>
        <time>2023-08-06T15:17:37Z</time>
      </trkpt>
      <trkpt lat="49.82273" lon="3.42084">
        <ele>32.8</ele>
        <time>2023-08-06T15:17:38Z</time>
      </trkpt>
      <trkpt lat="49.82268" lon="3.42082">
        <ele>32.8</ele>
        <time>2023-08-06T15:17:39Z</time>
      </trkpt>
      <trkpt lat="49.82263" lon="3.42079">
        <ele>32.8</ele>
        <time>2023-08-06T15:17:40Z</time>
      </trkpt>
      <trkpt lat="49.82258" lon="3.42077">
        <ele>32.8</ele>
        <time>2023-08-06T15:17:41Z</time>
      </trkpt>
      <trkpt lat="49.82254" lon="3.42075">
        <ele>32.8</ele>
        <time>2023-08-06T15:17:42Z</time>
      </trkpt>
      <trkpt lat="49.8225" lon="3.42073">
        <ele>32.8</ele>
        <time>2023-08-06T15:17:43Z</time>
      </trkpt>
      <trkpt lat="49.82244" lon="3.42071">
        <ele>32.8</ele>
        <time>2023-08-06T15:17:44Z</time>
      </trkpt>
      <trkpt lat="49.8224" lon="3.4207">
        <ele>32.8</ele>
        <time>2023-08-06T15:17:45Z</time>
      </trkpt>
      <trkpt lat="49.82236" lon="3.42069">
        <ele>32.8</ele>
        <time>2023-08-06T15:17:46Z</time>
      </trkpt>
      <trkpt lat="49.82221" lon="3.42066">
        <ele>33</ele>
        <time>2023-08-06T15:17:49Z</time>
      </trkpt>
      <trkpt lat="49.82216" lon="3.42066">
        <ele>33</ele>
        <time>2023-08-06T15:17:50Z</time>
      </trkpt>
      <trkpt lat="49.82213" lon="3.42066">
        <ele>33</ele>
        <time>2023-08-06T15:17:51Z</time>
      </trkpt>
      <trkpt lat="49.82202" lon="3.42068">
        <ele>33.2</ele>
        <time>2023-08-06T15:17:53Z</time>
      </trkpt>
      <trkpt lat="49.82158" lon="3.4208">
        <ele>33.2</ele>
        <time>2023-08-06T15:18:02Z</time>
      </trkpt>
      <trkpt lat="49.82118" lon="3.42089">
        <ele>34</ele>
        <time>2023-08-06T15:18:10Z</time>
      </trkpt>
      <trkpt lat="49.82107" lon="3.4209">
        <ele>34</ele>
        <time>2023-08-06T15:18:12Z</time>
      </trkpt>
      <trkpt lat="49.82073" lon="3.4209">
        <ele>34</ele>
        <time>2023-08-06T15:18:18Z</time>
      </trkpt>
      <trkpt lat="49.82047" lon="3.4209">
        <ele>33.6</ele>
        <time>2023-08-06T15:18:22Z</time>
      </trkpt>
      <trkpt lat="49.82014" lon="3.42089">
        <ele>33</ele>
        <time>2023-08-06T15:18:27Z</time>
      </trkpt>
      <trkpt lat="49.81953" lon="3.42083">
        <ele>32.2</ele>
        <time>2023-08-06T15:18:36Z</time>
      </trkpt>
      <trkpt lat="49.81947" lon="3.42083">
        <ele>32.4</ele>
        <time>2023-08-06T15:18:37Z</time>
      </trkpt>
      <trkpt lat="49.81921" lon="3.42078">
        <ele>32.6</ele>
        <time>2023-08-06T15:18:41Z</time>
      </trkpt>
      <trkpt lat="49.81914" lon="3.42077">
        <ele>32.6</ele>
        <time>2023-08-06T15:18:42Z</time>
      </trkpt>
      <trkpt lat="49.81908" lon="3.42076">
        <ele>32.6</ele>
        <time>2023-08-06T15:18:43Z</time>
      </trkpt>
      <trkpt lat="49.81903" lon="3.42075">
        <ele>32.6</ele>
        <time>2023-08-06T15:18:44Z</time>
      </trkpt>
      <trkpt lat="49.81889" lon="3.42072">
        <ele>32.4</ele>
        <time>2023-08-06T15:18:46Z</time>
      </trkpt>
      <trkpt lat="49.81883" lon="3.42071">
        <ele>32.4</ele>
        <time>2023-08-06T15:18:47Z</time>
      </trkpt>
      <trkpt lat="49.81858" lon="3.42068">
        <ele>32.2</ele>
        <time>2023-08-06T15:18:51Z</time>
      </trkpt>
      <trkpt lat="49.81839" lon="3.42064">
        <ele>32</ele>
        <time>2023-08-06T15:18:54Z</time>
      </trkpt>
      <trkpt lat="49.81826" lon="3.42062">
        <ele>32</ele>
        <time>2023-08-06T15:18:56Z</time>
      </trkpt>
      <trkpt lat="49.81815" lon="3.4206">
        <ele>31.8</ele>
        <time>2023-08-06T15:18:58Z</time>
      </trkpt>
      <trkpt lat="49.81797" lon="3.42057">
        <ele>31.6</ele>
        <time>2023-08-06T15:19:01Z</time>
      </trkpt>
      <trkpt lat="49.81766" lon="3.42052">
        <ele>31.2</ele>
        <time>2023-08-06T15:19:06Z</time>
      </trkpt>
      <trkpt lat="49.81746" lon="3.4205">
        <ele>31.2</ele>
        <time>2023-08-06T15:19:09Z</time>
      </trkpt>
      <trkpt lat="49.8174" lon="3.42051">
        <ele>31.2</ele>
        <time>2023-08-06T15:19:10Z</time>
      </trkpt>
      <trkpt lat="49.81715" lon="3.42053">
        <ele>31.2</ele>
        <time>2023-08-06T15:19:14Z</time>
      </trkpt>
      <trkpt lat="49.81662" lon="3.42065">
        <ele>30.8</ele>
        <time>2023-08-06T15:19:22Z</time>
      </trkpt>
      <trkpt lat="49.81655" lon="3.42066">
        <ele>30.8</ele>
        <time>2023-08-06T15:19:23Z</time>
      </trkpt>
      <trkpt lat="49.81613" lon="3.42076">
        <ele>30.4</ele>
        <time>2023-08-06T15:19:29Z</time>
      </trkpt>
      <trkpt lat="49.81559" lon="3.42088">
        <ele>29.6</ele>
        <time>2023-08-06T15:19:37Z</time>
      </trkpt>
      <trkpt lat="49.81534" lon="3.42093">
        <ele>29.4</ele>
        <time>2023-08-06T15:19:41Z</time>
      </trkpt>
      <trkpt lat="49.81528" lon="3.42094">
        <ele>29.4</ele>
        <time>2023-08-06T15:19:42Z</time>
      </trkpt>
      <trkpt lat="49.81522" lon="3.42096">
        <ele>29.4</ele>
        <time>2023-08-06T15:19:43Z</time>
      </trkpt>
      <trkpt lat="49.81516" lon="3.42097">
        <ele>29.4</ele>
        <time>2023-08-06T15:19:44Z</time>
      </trkpt>
      <trkpt lat="49.81512" lon="3.42099">
        <ele>29.4</ele>
        <time>2023-08-06T15:19:45Z</time>
      </trkpt>
      <trkpt lat="49.81506" lon="3.42102">
        <ele>29.4</ele>
        <time>2023-08-06T15:19:46Z</time>
      </trkpt>
      <trkpt lat="49.81501" lon="3.42105">
        <ele>29.4</ele>
        <time>2023-08-06T15:19:47Z</time>
      </trkpt>
      <trkpt lat="49.81498" lon="3.42107">
        <ele>29.4</ele>
        <time>2023-08-06T15:19:48Z</time>
      </trkpt>
      <trkpt lat="49.81493" lon="3.42111">
        <ele>29.4</ele>
        <time>2023-08-06T15:19:49Z</time>
      </trkpt>
      <trkpt lat="49.81462" lon="3.42133">
        <ele>29.6</ele>
        <time>2023-08-06T15:19:55Z</time>
      </trkpt>
      <trkpt lat="49.81457" lon="3.42136">
        <ele>29.6</ele>
        <time>2023-08-06T15:19:56Z</time>
      </trkpt>
      <trkpt lat="49.81407" lon="3.42165">
        <ele>29</ele>
        <time>2023-08-06T15:20:05Z</time>
      </trkpt>
      <trkpt lat="49.81375" lon="3.42184">
        <ele>28.8</ele>
        <time>2023-08-06T15:20:11Z</time>
      </trkpt>
      <trkpt lat="49.81363" lon="3.4219">
        <ele>28.6</ele>
        <time>2023-08-06T15:20:13Z</time>
      </trkpt>
      <trkpt lat="49.8133" lon="3.42202">
        <ele>28.4</ele>
        <time>2023-08-06T15:20:18Z</time>
      </trkpt>
      <trkpt lat="49.81284" lon="3.4222">
        <ele>28</ele>
        <time>2023-08-06T15:20:25Z</time>
      </trkpt>
      <trkpt lat="49.81253" lon="3.42232">
        <ele>28.2</ele>
        <time>2023-08-06T15:20:30Z</time>
      </trkpt>
      <trkpt lat="49.81246" lon="3.42236">
        <ele>28.2</ele>
        <time>2023-08-06T15:20:31Z</time>
      </trkpt>
      <trkpt lat="49.81239" lon="3.42241">
        <ele>28.2</ele>
        <time>2023-08-06T15:20:32Z</time>
      </trkpt>
      <trkpt lat="49.81234" lon="3.42245">
        <ele>28.2</ele>
        <time>2023-08-06T15:20:33Z</time>
      </trkpt>
      <trkpt lat="49.81229" lon="3.4225">
        <ele>28.4</ele>
        <time>2023-08-06T15:20:34Z</time>
      </trkpt>
      <trkpt lat="49.81223" lon="3.42255">
        <ele>28.4</ele>
        <time>2023-08-06T15:20:35Z</time>
      </trkpt>
      <trkpt lat="49.81219" lon="3.42259">
        <ele>28.4</ele>
        <time>2023-08-06T15:20:36Z</time>
      </trkpt>
      <trkpt lat="49.81213" lon="3.42266">
        <ele>28.6</ele>
        <time>2023-08-06T15:20:37Z</time>
      </trkpt>
      <trkpt lat="49.81208" lon="3.42271">
        <ele>28.6</ele>
        <time>2023-08-06T15:20:38Z</time>
      </trkpt>
      <trkpt lat="49.81204" lon="3.42276">
        <ele>28.6</ele>
        <time>2023-08-06T15:20:39Z</time>
      </trkpt>
      <trkpt lat="49.812" lon="3.42283">
        <ele>28.6</ele>
        <time>2023-08-06T15:20:40Z</time>
      </trkpt>
      <trkpt lat="49.81195" lon="3.4229">
        <ele>28.8</ele>
        <time>2023-08-06T15:20:41Z</time>
      </trkpt>
      <trkpt lat="49.81178" lon="3.42317">
        <ele>29</ele>
        <time>2023-08-06T15:20:45Z</time>
      </trkpt>
      <trkpt lat="49.81169" lon="3.42333">
        <ele>29</ele>
        <time>2023-08-06T15:20:47Z</time>
      </trkpt>
      <trkpt lat="49.81158" lon="3.42356">
        <ele>29.2</ele>
        <time>2023-08-06T15:20:50Z</time>
      </trkpt>
      <trkpt lat="49.81153" lon="3.42374">
        <ele>29.2</ele>
        <time>2023-08-06T15:20:52Z</time>
      </trkpt>
      <trkpt lat="49.81151" lon="3.42393">
        <ele>29.2</ele>
        <time>2023-08-06T15:20:54Z</time>
      </trkpt>
      <trkpt lat="49.81151" lon="3.424">
        <ele>29.2</ele>
        <time>2023-08-06T15:20:55Z</time>
      </trkpt>
      <trkpt lat="49.81151" lon="3.42409">
        <ele>29.2</ele>
        <time>2023-08-06T15:20:56Z</time>
      </trkpt>
      <trkpt lat="49.81152" lon="3.42417">
        <ele>29.2</ele>
        <time>2023-08-06T15:20:57Z</time>
      </trkpt>
      <trkpt lat="49.81158" lon="3.42453">
        <ele>29.2</ele>
        <time>2023-08-06T15:21:01Z</time>
      </trkpt>
      <trkpt lat="49.81166" lon="3.42469">
        <ele>29.2</ele>
        <time>2023-08-06T15:21:03Z</time>
      </trkpt>
      <trkpt lat="49.81173" lon="3.4248">
        <ele>29.2</ele>
        <time>2023-08-06T15:21:05Z</time>
      </trkpt>
      <trkpt lat="49.81184" lon="3.42502">
        <ele>28.8</ele>
        <time>2023-08-06T15:21:08Z</time>
      </trkpt>
      <trkpt lat="49.81186" lon="3.42509">
        <ele>28.8</ele>
        <time>2023-08-06T15:21:09Z</time>
      </trkpt>
      <trkpt lat="49.81189" lon="3.42514">
        <ele>28.8</ele>
        <time>2023-08-06T15:21:10Z</time>
      </trkpt>
      <trkpt lat="49.81193" lon="3.42522">
        <ele>28.8</ele>
        <time>2023-08-06T15:21:11Z</time>
      </trkpt>
      <trkpt lat="49.81196" lon="3.42528">
        <ele>28.6</ele>
        <time>2023-08-06T15:21:12Z</time>
      </trkpt>
      <trkpt lat="49.812" lon="3.42534">
        <ele>28.8</ele>
        <time>2023-08-06T15:21:13Z</time>
      </trkpt>
      <trkpt lat="49.81203" lon="3.42541">
        <ele>28.8</ele>
        <time>2023-08-06T15:21:14Z</time>
      </trkpt>
      <trkpt lat="49.81205" lon="3.42546">
        <ele>28.8</ele>
        <time>2023-08-06T15:21:15Z</time>
      </trkpt>
      <trkpt lat="49.81209" lon="3.42554">
        <ele>28.8</ele>
        <time>2023-08-06T15:21:16Z</time>
      </trkpt>
      <trkpt lat="49.81214" lon="3.42567">
        <ele>28.8</ele>
        <time>2023-08-06T15:21:18Z</time>
      </trkpt>
      <trkpt lat="49.81236" lon="3.42634">
        <ele>29</ele>
        <time>2023-08-06T15:21:27Z</time>
      </trkpt>
      <trkpt lat="49.81238" lon="3.42642">
        <ele>29</ele>
        <time>2023-08-06T15:21:28Z</time>
      </trkpt>
      <trkpt lat="49.81239" lon="3.4265">
        <ele>29</ele>
        <time>2023-08-06T15:21:29Z</time>
      </trkpt>
      <trkpt lat="49.81239" lon="3.42658">
        <ele>29</ele>
        <time>2023-08-06T15:21:30Z</time>
      </trkpt>
      <trkpt lat="49.81238" lon="3.42665">
        <ele>28.8</ele>
        <time>2023-08-06T15:21:31Z</time>
      </trkpt>
      <trkpt lat="49.81236" lon="3.4267">
        <ele>28.8</ele>
        <time>2023-08-06T15:21:32Z</time>
      </trkpt>
      <trkpt lat="49.81233" lon="3.42676">
        <ele>28.8</ele>
        <time>2023-08-06T15:21:33Z</time>
      </trkpt>
      <trkpt lat="49.81229" lon="3.42682">
        <ele>28.8</ele>
        <time>2023-08-06T15:21:34Z</time>
      </trkpt>
      <trkpt lat="49.81226" lon="3.42687">
        <ele>28.6</ele>
        <time>2023-08-06T15:21:35Z</time>
      </trkpt>
      <trkpt lat="49.81205" lon="3.42717">
        <ele>28.6</ele>
        <time>2023-08-06T15:21:41Z</time>
      </trkpt>
      <trkpt lat="49.81202" lon="3.42721">
        <ele>28.6</ele>
        <time>2023-08-06T15:21:42Z</time>
      </trkpt>
      <trkpt lat="49.81198" lon="3.42726">
        <ele>28.6</ele>
        <time>2023-08-06T15:21:43Z</time>
      </trkpt>
      <trkpt lat="49.81192" lon="3.42735">
        <ele>28.8</ele>
        <time>2023-08-06T15:21:45Z</time>
      </trkpt>
      <trkpt lat="49.81189" lon="3.42739">
        <ele>28.8</ele>
        <time>2023-08-06T15:21:46Z</time>
      </trkpt>
      <trkpt lat="49.81186" lon="3.42744">
        <ele>28.8</ele>
        <time>2023-08-06T15:21:47Z</time>
      </trkpt>
      <trkpt lat="49.81182" lon="3.42749">
        <ele>28.8</ele>
        <time>2023-08-06T15:21:48Z</time>
      </trkpt>
      <trkpt lat="49.81178" lon="3.42753">
        <ele>28.8</ele>
        <time>2023-08-06T15:21:49Z</time>
      </trkpt>
      <trkpt lat="49.81175" lon="3.42757">
        <ele>28.8</ele>
        <time>2023-08-06T15:21:50Z</time>
      </trkpt>
      <trkpt lat="49.81172" lon="3.4276">
        <ele>29</ele>
        <time>2023-08-06T15:21:51Z</time>
      </trkpt>
      <trkpt lat="49.8117" lon="3.42763">
        <ele>29</ele>
        <time>2023-08-06T15:21:52Z</time>
      </trkpt>
      <trkpt lat="49.81166" lon="3.42767">
        <ele>29.2</ele>
        <time>2023-08-06T15:21:53Z</time>
      </trkpt>
      <trkpt lat="49.81156" lon="3.42778">
        <ele>29.4</ele>
        <time>2023-08-06T15:21:56Z</time>
      </trkpt>
      <trkpt lat="49.81154" lon="3.42782">
        <ele>29.4</ele>
        <time>2023-08-06T15:21:57Z</time>
      </trkpt>
      <trkpt lat="49.81153" lon="3.42785">
        <ele>29.4</ele>
        <time>2023-08-06T15:21:58Z</time>
      </trkpt>
      <trkpt lat="49.81153" lon="3.42788">
        <ele>29.4</ele>
        <time>2023-08-06T15:21:59Z</time>
      </trkpt>
      <trkpt lat="49.81153" lon="3.42791">
        <ele>29.4</ele>
        <time>2023-08-06T15:22:00Z</time>
      </trkpt>
      <trkpt lat="49.81154" lon="3.42794">
        <ele>29.4</ele>
        <time>2023-08-06T15:22:01Z</time>
      </trkpt>
      <trkpt lat="49.81154" lon="3.42797">
        <ele>29.4</ele>
        <time>2023-08-06T15:22:02Z</time>
      </trkpt>
      <trkpt lat="49.81154" lon="3.42799">
        <ele>29.4</ele>
        <time>2023-08-06T15:22:03Z</time>
      </trkpt>
      <trkpt lat="49.81154" lon="3.42799">
        <ele>29.4</ele>
        <time>2023-08-06T15:22:04Z</time>
      </trkpt>
      <trkpt lat="49.81154" lon="3.42799">
        <ele>29.4</ele>
        <time>2023-08-06T15:22:06Z</time>
      </trkpt>
      <trkpt lat="49.81148" lon="3.42796">
        <ele>27.8</ele>
        <time>2023-08-06T15:29:27Z</time>
      </trkpt>
      <trkpt lat="49.81144" lon="3.42797">
        <ele>28</ele>
        <time>2023-08-06T15:29:29Z</time>
      </trkpt>
      <trkpt lat="49.81142" lon="3.42798">
        <ele>28</ele>
        <time>2023-08-06T15:29:30Z</time>
      </trkpt>
      <trkpt lat="49.81141" lon="3.42799">
        <ele>28</ele>
        <time>2023-08-06T15:29:31Z</time>
      </trkpt>
      <trkpt lat="49.81129" lon="3.4281">
        <ele>28.2</ele>
        <time>2023-08-06T15:29:37Z</time>
      </trkpt>
      <trkpt lat="49.81107" lon="3.42834">
        <ele>28.4</ele>
        <time>2023-08-06T15:29:47Z</time>
      </trkpt>
      <trkpt lat="49.81095" lon="3.42847">
        <ele>28.2</ele>
        <time>2023-08-06T15:29:52Z</time>
      </trkpt>
      <trkpt lat="49.81091" lon="3.42852">
        <ele>28.2</ele>
        <time>2023-08-06T15:29:54Z</time>
      </trkpt>
      <trkpt lat="49.81083" lon="3.42859">
        <ele>28.6</ele>
        <time>2023-08-06T15:29:57Z</time>
      </trkpt>
      <trkpt lat="49.8108" lon="3.42862">
        <ele>28.6</ele>
        <time>2023-08-06T15:29:59Z</time>
      </trkpt>
      <trkpt lat="49.81078" lon="3.42864">
        <ele>28.6</ele>
        <time>2023-08-06T15:30:00Z</time>
      </trkpt>
      <trkpt lat="49.81076" lon="3.42867">
        <ele>28.6</ele>
        <time>2023-08-06T15:30:01Z</time>
      </trkpt>
      <trkpt lat="49.81073" lon="3.4287">
        <ele>28.6</ele>
        <time>2023-08-06T15:30:02Z</time>
      </trkpt>
      <trkpt lat="49.81071" lon="3.42872">
        <ele>28.6</ele>
        <time>2023-08-06T15:30:03Z</time>
      </trkpt>
      <trkpt lat="49.81069" lon="3.42873">
        <ele>28.6</ele>
        <time>2023-08-06T15:30:04Z</time>
      </trkpt>
      <trkpt lat="49.81063" lon="3.42878">
        <ele>28.6</ele>
        <time>2023-08-06T15:30:06Z</time>
      </trkpt>
      <trkpt lat="49.81046" lon="3.42899">
        <ele>28.2</ele>
        <time>2023-08-06T15:30:14Z</time>
      </trkpt>
      <trkpt lat="49.81032" lon="3.42917">
        <ele>28.2</ele>
        <time>2023-08-06T15:30:20Z</time>
      </trkpt>
      <trkpt lat="49.8103" lon="3.42919">
        <ele>28.2</ele>
        <time>2023-08-06T15:30:21Z</time>
      </trkpt>
      <trkpt lat="49.81026" lon="3.42925">
        <ele>28.2</ele>
        <time>2023-08-06T15:30:23Z</time>
      </trkpt>
      <trkpt lat="49.81022" lon="3.42932">
        <ele>28.2</ele>
        <time>2023-08-06T15:30:25Z</time>
      </trkpt>
      <trkpt lat="49.8102" lon="3.42935">
        <ele>28.2</ele>
        <time>2023-08-06T15:30:26Z</time>
      </trkpt>
      <trkpt lat="49.81018" lon="3.42938">
        <ele>28.2</ele>
        <time>2023-08-06T15:30:27Z</time>
      </trkpt>
      <trkpt lat="49.81017" lon="3.42941">
        <ele>28.2</ele>
        <time>2023-08-06T15:30:28Z</time>
      </trkpt>
      <trkpt lat="49.81016" lon="3.42944">
        <ele>28.2</ele>
        <time>2023-08-06T15:30:29Z</time>
      </trkpt>
      <trkpt lat="49.81014" lon="3.42947">
        <ele>28.2</ele>
        <time>2023-08-06T15:30:30Z</time>
      </trkpt>
      <trkpt lat="49.81013" lon="3.42951">
        <ele>28.2</ele>
        <time>2023-08-06T15:30:31Z</time>
      </trkpt>
      <trkpt lat="49.81012" lon="3.42953">
        <ele>28.6</ele>
        <time>2023-08-06T15:30:32Z</time>
      </trkpt>
      <trkpt lat="49.8101" lon="3.42956">
        <ele>28.6</ele>
        <time>2023-08-06T15:30:33Z</time>
      </trkpt>
      <trkpt lat="49.81009" lon="3.4296">
        <ele>28.6</ele>
        <time>2023-08-06T15:30:34Z</time>
      </trkpt>
      <trkpt lat="49.81008" lon="3.42963">
        <ele>28.8</ele>
        <time>2023-08-06T15:30:35Z</time>
      </trkpt>
      <trkpt lat="49.81007" lon="3.42967">
        <ele>28.8</ele>
        <time>2023-08-06T15:30:36Z</time>
      </trkpt>
      <trkpt lat="49.80999" lon="3.42999">
        <ele>29.2</ele>
        <time>2023-08-06T15:30:45Z</time>
      </trkpt>
      <trkpt lat="49.80997" lon="3.43006">
        <ele>29.2</ele>
        <time>2023-08-06T15:30:47Z</time>
      </trkpt>
      <trkpt lat="49.80996" lon="3.43013">
        <ele>29.4</ele>
        <time>2023-08-06T15:30:49Z</time>
      </trkpt>
      <trkpt lat="49.80995" lon="3.43016">
        <ele>29.4</ele>
        <time>2023-08-06T15:30:50Z</time>
      </trkpt>
      <trkpt lat="49.80994" lon="3.4302">
        <ele>29.4</ele>
        <time>2023-08-06T15:30:51Z</time>
      </trkpt>
      <trkpt lat="49.80994" lon="3.43023">
        <ele>29.4</ele>
        <time>2023-08-06T15:30:52Z</time>
      </trkpt>
      <trkpt lat="49.80994" lon="3.43029">
        <ele>29.4</ele>
        <time>2023-08-06T15:30:54Z</time>
      </trkpt>
      <trkpt lat="49.80993" lon="3.43032">
        <ele>29.4</ele>
        <time>2023-08-06T15:30:55Z</time>
      </trkpt>
      <trkpt lat="49.80993" lon="3.43035">
        <ele>29.4</ele>
        <time>2023-08-06T15:30:56Z</time>
      </trkpt>
      <trkpt lat="49.80992" lon="3.43039">
        <ele>29.4</ele>
        <time>2023-08-06T15:30:57Z</time>
      </trkpt>
      <trkpt lat="49.80992" lon="3.43042">
        <ele>29.4</ele>
        <time>2023-08-06T15:30:58Z</time>
      </trkpt>
      <trkpt lat="49.80991" lon="3.43046">
        <ele>29.4</ele>
        <time>2023-08-06T15:30:59Z</time>
      </trkpt>
      <trkpt lat="49.80991" lon="3.43049">
        <ele>29.6</ele>
        <time>2023-08-06T15:31:00Z</time>
      </trkpt>
      <trkpt lat="49.8099" lon="3.43052">
        <ele>29.6</ele>
        <time>2023-08-06T15:31:01Z</time>
      </trkpt>
      <trkpt lat="49.8099" lon="3.43055">
        <ele>29.6</ele>
        <time>2023-08-06T15:31:02Z</time>
      </trkpt>
      <trkpt lat="49.8099" lon="3.43059">
        <ele>29.6</ele>
        <time>2023-08-06T15:31:03Z</time>
      </trkpt>
      <trkpt lat="49.80989" lon="3.43062">
        <ele>29.6</ele>
        <time>2023-08-06T15:31:04Z</time>
      </trkpt>
      <trkpt lat="49.80989" lon="3.43068">
        <ele>29.8</ele>
        <time>2023-08-06T15:31:06Z</time>
      </trkpt>
      <trkpt lat="49.80986" lon="3.43087">
        <ele>30</ele>
        <time>2023-08-06T15:31:12Z</time>
      </trkpt>
      <trkpt lat="49.80986" lon="3.4309">
        <ele>30</ele>
        <time>2023-08-06T15:31:13Z</time>
      </trkpt>
      <trkpt lat="49.80985" lon="3.43096">
        <ele>30.2</ele>
        <time>2023-08-06T15:31:15Z</time>
      </trkpt>
      <trkpt lat="49.80981" lon="3.43109">
        <ele>30.4</ele>
        <time>2023-08-06T15:31:19Z</time>
      </trkpt>
      <trkpt lat="49.80981" lon="3.43111">
        <ele>30.4</ele>
        <time>2023-08-06T15:31:20Z</time>
      </trkpt>
      <trkpt lat="49.8098" lon="3.43114">
        <ele>30.6</ele>
        <time>2023-08-06T15:31:21Z</time>
      </trkpt>
      <trkpt lat="49.80979" lon="3.43117">
        <ele>30.6</ele>
        <time>2023-08-06T15:31:22Z</time>
      </trkpt>
      <trkpt lat="49.80978" lon="3.43119">
        <ele>30.8</ele>
        <time>2023-08-06T15:31:23Z</time>
      </trkpt>
      <trkpt lat="49.80976" lon="3.43124">
        <ele>30.8</ele>
        <time>2023-08-06T15:31:25Z</time>
      </trkpt>
      <trkpt lat="49.80975" lon="3.43126">
        <ele>31</ele>
        <time>2023-08-06T15:31:26Z</time>
      </trkpt>
      <trkpt lat="49.80974" lon="3.43129">
        <ele>31.2</ele>
        <time>2023-08-06T15:31:27Z</time>
      </trkpt>
      <trkpt lat="49.80973" lon="3.43131">
        <ele>31.2</ele>
        <time>2023-08-06T15:31:28Z</time>
      </trkpt>
      <trkpt lat="49.80972" lon="3.43134">
        <ele>31.4</ele>
        <time>2023-08-06T15:31:29Z</time>
      </trkpt>
      <trkpt lat="49.80971" lon="3.43136">
        <ele>31.4</ele>
        <time>2023-08-06T15:31:30Z</time>
      </trkpt>
      <trkpt lat="49.80966" lon="3.43149">
        <ele>32.2</ele>
        <time>2023-08-06T15:31:35Z</time>
      </trkpt>
      <trkpt lat="49.80959" lon="3.43164">
        <ele>32.6</ele>
        <time>2023-08-06T15:31:41Z</time>
      </trkpt>
      <trkpt lat="49.80952" lon="3.43176">
        <ele>32.4</ele>
        <time>2023-08-06T15:31:46Z</time>
      </trkpt>
      <trkpt lat="49.80944" lon="3.43188">
        <ele>32.6</ele>
        <time>2023-08-06T15:31:52Z</time>
      </trkpt>
      <trkpt lat="49.8094" lon="3.43194">
        <ele>32.6</ele>
        <time>2023-08-06T15:31:55Z</time>
      </trkpt>
      <trkpt lat="49.80938" lon="3.43196">
        <ele>32.6</ele>
        <time>2023-08-06T15:31:56Z</time>
      </trkpt>
      <trkpt lat="49.80937" lon="3.43198">
        <ele>32.6</ele>
        <time>2023-08-06T15:31:57Z</time>
      </trkpt>
      <trkpt lat="49.80936" lon="3.432">
        <ele>32.6</ele>
        <time>2023-08-06T15:31:58Z</time>
      </trkpt>
      <trkpt lat="49.80934" lon="3.43202">
        <ele>32.8</ele>
        <time>2023-08-06T15:31:59Z</time>
      </trkpt>
      <trkpt lat="49.80932" lon="3.43204">
        <ele>32.8</ele>
        <time>2023-08-06T15:32:00Z</time>
      </trkpt>
      <trkpt lat="49.80931" lon="3.43206">
        <ele>32.8</ele>
        <time>2023-08-06T15:32:01Z</time>
      </trkpt>
      <trkpt lat="49.8093" lon="3.43207">
        <ele>32.6</ele>
        <time>2023-08-06T15:32:02Z</time>
      </trkpt>
      <trkpt lat="49.80929" lon="3.43209">
        <ele>32.8</ele>
        <time>2023-08-06T15:32:03Z</time>
      </trkpt>
      <trkpt lat="49.80928" lon="3.4321">
        <ele>33</ele>
        <time>2023-08-06T15:32:04Z</time>
      </trkpt>
      <trkpt lat="49.80925" lon="3.43214">
        <ele>33</ele>
        <time>2023-08-06T15:32:06Z</time>
      </trkpt>
      <trkpt lat="49.80924" lon="3.43215">
        <ele>33</ele>
        <time>2023-08-06T15:32:07Z</time>
      </trkpt>
      <trkpt lat="49.80923" lon="3.43217">
        <ele>33</ele>
        <time>2023-08-06T15:32:08Z</time>
      </trkpt>
      <trkpt lat="49.80921" lon="3.43219">
        <ele>33.2</ele>
        <time>2023-08-06T15:32:09Z</time>
      </trkpt>
      <trkpt lat="49.80916" lon="3.43226">
        <ele>33.4</ele>
        <time>2023-08-06T15:32:13Z</time>
      </trkpt>
      <trkpt lat="49.8091" lon="3.43231">
        <ele>33.8</ele>
        <time>2023-08-06T15:32:17Z</time>
      </trkpt>
      <trkpt lat="49.80908" lon="3.43234">
        <ele>33.8</ele>
        <time>2023-08-06T15:32:19Z</time>
      </trkpt>
      <trkpt lat="49.80905" lon="3.43236">
        <ele>34</ele>
        <time>2023-08-06T15:32:21Z</time>
      </trkpt>
      <trkpt lat="49.80904" lon="3.43238">
        <ele>34</ele>
        <time>2023-08-06T15:32:22Z</time>
      </trkpt>
      <trkpt lat="49.80902" lon="3.43239">
        <ele>34</ele>
        <time>2023-08-06T15:32:23Z</time>
      </trkpt>
      <trkpt lat="49.80901" lon="3.4324">
        <ele>34</ele>
        <time>2023-08-06T15:32:24Z</time>
      </trkpt>
      <trkpt lat="49.809" lon="3.43241">
        <ele>34</ele>
        <time>2023-08-06T15:32:25Z</time>
      </trkpt>
      <trkpt lat="49.80899" lon="3.43242">
        <ele>34.2</ele>
        <time>2023-08-06T15:32:26Z</time>
      </trkpt>
      <trkpt lat="49.80898" lon="3.43242">
        <ele>34.2</ele>
        <time>2023-08-06T15:32:27Z</time>
      </trkpt>
      <trkpt lat="49.80897" lon="3.43243">
        <ele>34.4</ele>
        <time>2023-08-06T15:32:28Z</time>
      </trkpt>
      <trkpt lat="49.80895" lon="3.43245">
        <ele>34.6</ele>
        <time>2023-08-06T15:32:29Z</time>
      </trkpt>
      <trkpt lat="49.80894" lon="3.43245">
        <ele>34.6</ele>
        <time>2023-08-06T15:32:30Z</time>
      </trkpt>
      <trkpt lat="49.80893" lon="3.43246">
        <ele>34.6</ele>
        <time>2023-08-06T15:32:31Z</time>
      </trkpt>
      <trkpt lat="49.80892" lon="3.43247">
        <ele>34.6</ele>
        <time>2023-08-06T15:32:32Z</time>
      </trkpt>
      <trkpt lat="49.8089" lon="3.43248">
        <ele>34.8</ele>
        <time>2023-08-06T15:32:33Z</time>
      </trkpt>
      <trkpt lat="49.80888" lon="3.4325">
        <ele>35</ele>
        <time>2023-08-06T15:32:35Z</time>
      </trkpt>
      <trkpt lat="49.80887" lon="3.43251">
        <ele>35</ele>
        <time>2023-08-06T15:32:36Z</time>
      </trkpt>
      <trkpt lat="49.80886" lon="3.43252">
        <ele>35</ele>
        <time>2023-08-06T15:32:37Z</time>
      </trkpt>
      <trkpt lat="49.80878" lon="3.43257">
        <ele>35.4</ele>
        <time>2023-08-06T15:32:43Z</time>
      </trkpt>
      <trkpt lat="49.80876" lon="3.43259">
        <ele>35.6</ele>
        <time>2023-08-06T15:32:45Z</time>
      </trkpt>
      <trkpt lat="49.80874" lon="3.43261">
        <ele>35.6</ele>
        <time>2023-08-06T15:32:47Z</time>
      </trkpt>
      <trkpt lat="49.80873" lon="3.43262">
        <ele>35.8</ele>
        <time>2023-08-06T15:32:48Z</time>
      </trkpt>
      <trkpt lat="49.80869" lon="3.43264">
        <ele>36.4</ele>
        <time>2023-08-06T15:32:51Z</time>
      </trkpt>
      <trkpt lat="49.80869" lon="3.43265">
        <ele>36.4</ele>
        <time>2023-08-06T15:32:52Z</time>
      </trkpt>
      <trkpt lat="49.80867" lon="3.43266">
        <ele>36.8</ele>
        <time>2023-08-06T15:32:53Z</time>
      </trkpt>
      <trkpt lat="49.80867" lon="3.43267">
        <ele>36.6</ele>
        <time>2023-08-06T15:32:54Z</time>
      </trkpt>
      <trkpt lat="49.80863" lon="3.4327">
        <ele>37</ele>
        <time>2023-08-06T15:32:57Z</time>
      </trkpt>
      <trkpt lat="49.8086" lon="3.43272">
        <ele>37.2</ele>
        <time>2023-08-06T15:33:00Z</time>
      </trkpt>
      <trkpt lat="49.80858" lon="3.43273">
        <ele>37.4</ele>
        <time>2023-08-06T15:33:01Z</time>
      </trkpt>
      <trkpt lat="49.80857" lon="3.43274">
        <ele>37.4</ele>
        <time>2023-08-06T15:33:02Z</time>
      </trkpt>
      <trkpt lat="49.80856" lon="3.43275">
        <ele>37.8</ele>
        <time>2023-08-06T15:33:03Z</time>
      </trkpt>
      <trkpt lat="49.80855" lon="3.43276">
        <ele>37.8</ele>
        <time>2023-08-06T15:33:04Z</time>
      </trkpt>
      <trkpt lat="49.80854" lon="3.43277">
        <ele>37.8</ele>
        <time>2023-08-06T15:33:05Z</time>
      </trkpt>
      <trkpt lat="49.80853" lon="3.43278">
        <ele>38</ele>
        <time>2023-08-06T15:33:06Z</time>
      </trkpt>
      <trkpt lat="49.80851" lon="3.43279">
        <ele>38</ele>
        <time>2023-08-06T15:33:07Z</time>
      </trkpt>
      <trkpt lat="49.8085" lon="3.43279">
        <ele>38</ele>
        <time>2023-08-06T15:33:08Z</time>
      </trkpt>
      <trkpt lat="49.80849" lon="3.4328">
        <ele>38.2</ele>
        <time>2023-08-06T15:33:09Z</time>
      </trkpt>
      <trkpt lat="49.80848" lon="3.43282">
        <ele>38.2</ele>
        <time>2023-08-06T15:33:10Z</time>
      </trkpt>
      <trkpt lat="49.80847" lon="3.43283">
        <ele>38.2</ele>
        <time>2023-08-06T15:33:11Z</time>
      </trkpt>
      <trkpt lat="49.80846" lon="3.43285">
        <ele>38.4</ele>
        <time>2023-08-06T15:33:12Z</time>
      </trkpt>
      <trkpt lat="49.80845" lon="3.43286">
        <ele>38.8</ele>
        <time>2023-08-06T15:33:13Z</time>
      </trkpt>
      <trkpt lat="49.80844" lon="3.43287">
        <ele>39.2</ele>
        <time>2023-08-06T15:33:14Z</time>
      </trkpt>
      <trkpt lat="49.80842" lon="3.43288">
        <ele>39.4</ele>
        <time>2023-08-06T15:33:15Z</time>
      </trkpt>
      <trkpt lat="49.80841" lon="3.43289">
        <ele>39.6</ele>
        <time>2023-08-06T15:33:16Z</time>
      </trkpt>
      <trkpt lat="49.8084" lon="3.4329">
        <ele>39.8</ele>
        <time>2023-08-06T15:33:17Z</time>
      </trkpt>
      <trkpt lat="49.80839" lon="3.43291">
        <ele>40</ele>
        <time>2023-08-06T15:33:18Z</time>
      </trkpt>
      <trkpt lat="49.80838" lon="3.43292">
        <ele>40</ele>
        <time>2023-08-06T15:33:19Z</time>
      </trkpt>
      <trkpt lat="49.80837" lon="3.43293">
        <ele>40.2</ele>
        <time>2023-08-06T15:33:20Z</time>
      </trkpt>
      <trkpt lat="49.80835" lon="3.43295">
        <ele>40.2</ele>
        <time>2023-08-06T15:33:21Z</time>
      </trkpt>
      <trkpt lat="49.80834" lon="3.43296">
        <ele>40.6</ele>
        <time>2023-08-06T15:33:22Z</time>
      </trkpt>
      <trkpt lat="49.80833" lon="3.43297">
        <ele>40.8</ele>
        <time>2023-08-06T15:33:23Z</time>
      </trkpt>
      <trkpt lat="49.80832" lon="3.43298">
        <ele>41</ele>
        <time>2023-08-06T15:33:24Z</time>
      </trkpt>
      <trkpt lat="49.8083" lon="3.433">
        <ele>41.4</ele>
        <time>2023-08-06T15:33:25Z</time>
      </trkpt>
      <trkpt lat="49.80829" lon="3.43301">
        <ele>41.4</ele>
        <time>2023-08-06T15:33:26Z</time>
      </trkpt>
      <trkpt lat="49.80828" lon="3.43302">
        <ele>41.4</ele>
        <time>2023-08-06T15:33:27Z</time>
      </trkpt>
      <trkpt lat="49.80827" lon="3.43303">
        <ele>41.6</ele>
        <time>2023-08-06T15:33:28Z</time>
      </trkpt>
      <trkpt lat="49.80825" lon="3.43304">
        <ele>41.6</ele>
        <time>2023-08-06T15:33:29Z</time>
      </trkpt>
      <trkpt lat="49.80824" lon="3.43306">
        <ele>41.8</ele>
        <time>2023-08-06T15:33:30Z</time>
      </trkpt>
      <trkpt lat="49.80823" lon="3.43307">
        <ele>41.8</ele>
        <time>2023-08-06T15:33:31Z</time>
      </trkpt>
      <trkpt lat="49.80822" lon="3.43308">
        <ele>42.2</ele>
        <time>2023-08-06T15:33:32Z</time>
      </trkpt>
      <trkpt lat="49.80821" lon="3.43309">
        <ele>42.4</ele>
        <time>2023-08-06T15:33:33Z</time>
      </trkpt>
      <trkpt lat="49.8082" lon="3.4331">
        <ele>42.8</ele>
        <time>2023-08-06T15:33:34Z</time>
      </trkpt>
      <trkpt lat="49.80818" lon="3.43311">
        <ele>43</ele>
        <time>2023-08-06T15:33:35Z</time>
      </trkpt>
      <trkpt lat="49.80817" lon="3.43312">
        <ele>43.2</ele>
        <time>2023-08-06T15:33:36Z</time>
      </trkpt>
      <trkpt lat="49.80816" lon="3.43314">
        <ele>43.2</ele>
        <time>2023-08-06T15:33:37Z</time>
      </trkpt>
      <trkpt lat="49.80815" lon="3.43315">
        <ele>43.4</ele>
        <time>2023-08-06T15:33:38Z</time>
      </trkpt>
      <trkpt lat="49.80814" lon="3.43316">
        <ele>43.4</ele>
        <time>2023-08-06T15:33:39Z</time>
      </trkpt>
      <trkpt lat="49.80812" lon="3.43318">
        <ele>43.6</ele>
        <time>2023-08-06T15:33:40Z</time>
      </trkpt>
      <trkpt lat="49.80811" lon="3.43319">
        <ele>43.6</ele>
        <time>2023-08-06T15:33:41Z</time>
      </trkpt>
      <trkpt lat="49.8081" lon="3.4332">
        <ele>43.8</ele>
        <time>2023-08-06T15:33:42Z</time>
      </trkpt>
      <trkpt lat="49.80809" lon="3.43321">
        <ele>44</ele>
        <time>2023-08-06T15:33:43Z</time>
      </trkpt>
      <trkpt lat="49.80807" lon="3.43323">
        <ele>44.2</ele>
        <time>2023-08-06T15:33:44Z</time>
      </trkpt>
      <trkpt lat="49.80806" lon="3.43324">
        <ele>44.2</ele>
        <time>2023-08-06T15:33:45Z</time>
      </trkpt>
      <trkpt lat="49.80805" lon="3.43325">
        <ele>44.4</ele>
        <time>2023-08-06T15:33:46Z</time>
      </trkpt>
      <trkpt lat="49.80803" lon="3.43327">
        <ele>44.4</ele>
        <time>2023-08-06T15:33:47Z</time>
      </trkpt>
      <trkpt lat="49.80802" lon="3.43328">
        <ele>44.6</ele>
        <time>2023-08-06T15:33:48Z</time>
      </trkpt>
      <trkpt lat="49.808" lon="3.4333">
        <ele>44.6</ele>
        <time>2023-08-06T15:33:49Z</time>
      </trkpt>
      <trkpt lat="49.80799" lon="3.43331">
        <ele>44.8</ele>
        <time>2023-08-06T15:33:50Z</time>
      </trkpt>
      <trkpt lat="49.80797" lon="3.43333">
        <ele>44.8</ele>
        <time>2023-08-06T15:33:51Z</time>
      </trkpt>
      <trkpt lat="49.80796" lon="3.43334">
        <ele>45</ele>
        <time>2023-08-06T15:33:52Z</time>
      </trkpt>
      <trkpt lat="49.80794" lon="3.43336">
        <ele>45</ele>
        <time>2023-08-06T15:33:53Z</time>
      </trkpt>
      <trkpt lat="49.80793" lon="3.43337">
        <ele>45.2</ele>
        <time>2023-08-06T15:33:54Z</time>
      </trkpt>
      <trkpt lat="49.80791" lon="3.43339">
        <ele>45.4</ele>
        <time>2023-08-06T15:33:55Z</time>
      </trkpt>
      <trkpt lat="49.8079" lon="3.43341">
        <ele>45.6</ele>
        <time>2023-08-06T15:33:56Z</time>
      </trkpt>
      <trkpt lat="49.80789" lon="3.43342">
        <ele>45.6</ele>
        <time>2023-08-06T15:33:57Z</time>
      </trkpt>
      <trkpt lat="49.80787" lon="3.43344">
        <ele>45.8</ele>
        <time>2023-08-06T15:33:58Z</time>
      </trkpt>
      <trkpt lat="49.80786" lon="3.43345">
        <ele>45.8</ele>
        <time>2023-08-06T15:33:59Z</time>
      </trkpt>
      <trkpt lat="49.80784" lon="3.43347">
        <ele>46</ele>
        <time>2023-08-06T15:34:00Z</time>
      </trkpt>
      <trkpt lat="49.80783" lon="3.43349">
        <ele>46</ele>
        <time>2023-08-06T15:34:01Z</time>
      </trkpt>
      <trkpt lat="49.80782" lon="3.4335">
        <ele>46.2</ele>
        <time>2023-08-06T15:34:02Z</time>
      </trkpt>
      <trkpt lat="49.8078" lon="3.43352">
        <ele>46.2</ele>
        <time>2023-08-06T15:34:03Z</time>
      </trkpt>
      <trkpt lat="49.80778" lon="3.43353">
        <ele>46.4</ele>
        <time>2023-08-06T15:34:04Z</time>
      </trkpt>
      <trkpt lat="49.80776" lon="3.43356">
        <ele>46.6</ele>
        <time>2023-08-06T15:34:05Z</time>
      </trkpt>
      <trkpt lat="49.80775" lon="3.43358">
        <ele>46.8</ele>
        <time>2023-08-06T15:34:06Z</time>
      </trkpt>
      <trkpt lat="49.80773" lon="3.43359">
        <ele>47</ele>
        <time>2023-08-06T15:34:07Z</time>
      </trkpt>
      <trkpt lat="49.80772" lon="3.43361">
        <ele>47</ele>
        <time>2023-08-06T15:34:08Z</time>
      </trkpt>
      <trkpt lat="49.8077" lon="3.43363">
        <ele>47</ele>
        <time>2023-08-06T15:34:09Z</time>
      </trkpt>
      <trkpt lat="49.80768" lon="3.43365">
        <ele>47.2</ele>
        <time>2023-08-06T15:34:10Z</time>
      </trkpt>
      <trkpt lat="49.80766" lon="3.43368">
        <ele>47.2</ele>
        <time>2023-08-06T15:34:11Z</time>
      </trkpt>
      <trkpt lat="49.80764" lon="3.43369">
        <ele>47.2</ele>
        <time>2023-08-06T15:34:12Z</time>
      </trkpt>
      <trkpt lat="49.80763" lon="3.43372">
        <ele>47.2</ele>
        <time>2023-08-06T15:34:13Z</time>
      </trkpt>
      <trkpt lat="49.80761" lon="3.43374">
        <ele>47.2</ele>
        <time>2023-08-06T15:34:14Z</time>
      </trkpt>
      <trkpt lat="49.8076" lon="3.43376">
        <ele>47.2</ele>
        <time>2023-08-06T15:34:15Z</time>
      </trkpt>
      <trkpt lat="49.80758" lon="3.43378">
        <ele>47.2</ele>
        <time>2023-08-06T15:34:16Z</time>
      </trkpt>
      <trkpt lat="49.80757" lon="3.43381">
        <ele>47.2</ele>
        <time>2023-08-06T15:34:17Z</time>
      </trkpt>
      <trkpt lat="49.80755" lon="3.43383">
        <ele>47.2</ele>
        <time>2023-08-06T15:34:18Z</time>
      </trkpt>
      <trkpt lat="49.80753" lon="3.43386">
        <ele>47.2</ele>
        <time>2023-08-06T15:34:19Z</time>
      </trkpt>
      <trkpt lat="49.80751" lon="3.43388">
        <ele>47.2</ele>
        <time>2023-08-06T15:34:20Z</time>
      </trkpt>
      <trkpt lat="49.80739" lon="3.43404">
        <ele>47.2</ele>
        <time>2023-08-06T15:34:25Z</time>
      </trkpt>
      <trkpt lat="49.80737" lon="3.43406">
        <ele>47.2</ele>
        <time>2023-08-06T15:34:26Z</time>
      </trkpt>
      <trkpt lat="49.80735" lon="3.43409">
        <ele>47</ele>
        <time>2023-08-06T15:34:27Z</time>
      </trkpt>
      <trkpt lat="49.80733" lon="3.4341">
        <ele>47</ele>
        <time>2023-08-06T15:34:28Z</time>
      </trkpt>
      <trkpt lat="49.80731" lon="3.43411">
        <ele>46.8</ele>
        <time>2023-08-06T15:34:29Z</time>
      </trkpt>
      <trkpt lat="49.80728" lon="3.4341">
        <ele>46.6</ele>
        <time>2023-08-06T15:34:30Z</time>
      </trkpt>
      <trkpt lat="49.80726" lon="3.43408">
        <ele>46.6</ele>
        <time>2023-08-06T15:34:31Z</time>
      </trkpt>
      <trkpt lat="49.80724" lon="3.43406">
        <ele>46.4</ele>
        <time>2023-08-06T15:34:32Z</time>
      </trkpt>
      <trkpt lat="49.80721" lon="3.43405">
        <ele>46.4</ele>
        <time>2023-08-06T15:34:33Z</time>
      </trkpt>
      <trkpt lat="49.8072" lon="3.43404">
        <ele>46.4</ele>
        <time>2023-08-06T15:34:34Z</time>
      </trkpt>
      <trkpt lat="49.80718" lon="3.43403">
        <ele>46.4</ele>
        <time>2023-08-06T15:34:35Z</time>
      </trkpt>
      <trkpt lat="49.80716" lon="3.43403">
        <ele>46.4</ele>
        <time>2023-08-06T15:34:36Z</time>
      </trkpt>
      <trkpt lat="49.80714" lon="3.43403">
        <ele>46.4</ele>
        <time>2023-08-06T15:34:37Z</time>
      </trkpt>
      <trkpt lat="49.80711" lon="3.43403">
        <ele>46.4</ele>
        <time>2023-08-06T15:34:38Z</time>
      </trkpt>
      <trkpt lat="49.80699" lon="3.43399">
        <ele>46.4</ele>
        <time>2023-08-06T15:34:42Z</time>
      </trkpt>
      <trkpt lat="49.80696" lon="3.43397">
        <ele>46.4</ele>
        <time>2023-08-06T15:34:43Z</time>
      </trkpt>
      <trkpt lat="49.80694" lon="3.43396">
        <ele>46.4</ele>
        <time>2023-08-06T15:34:44Z</time>
      </trkpt>
      <trkpt lat="49.80672" lon="3.43385">
        <ele>46.2</ele>
        <time>2023-08-06T15:34:51Z</time>
      </trkpt>
      <trkpt lat="49.80646" lon="3.43375">
        <ele>46</ele>
        <time>2023-08-06T15:34:58Z</time>
      </trkpt>
      <trkpt lat="49.80641" lon="3.43376">
        <ele>45.4</ele>
        <time>2023-08-06T15:34:59Z</time>
      </trkpt>
      <trkpt lat="49.80618" lon="3.43377">
        <ele>44.4</ele>
        <time>2023-08-06T15:35:03Z</time>
      </trkpt>
      <trkpt lat="49.80606" lon="3.43378">
        <ele>43.2</ele>
        <time>2023-08-06T15:35:05Z</time>
      </trkpt>
      <trkpt lat="49.80601" lon="3.43378">
        <ele>42.6</ele>
        <time>2023-08-06T15:35:06Z</time>
      </trkpt>
      <trkpt lat="49.80596" lon="3.43379">
        <ele>42.4</ele>
        <time>2023-08-06T15:35:07Z</time>
      </trkpt>
      <trkpt lat="49.80592" lon="3.43378">
        <ele>42</ele>
        <time>2023-08-06T15:35:08Z</time>
      </trkpt>
      <trkpt lat="49.80589" lon="3.43376">
        <ele>41.8</ele>
        <time>2023-08-06T15:35:09Z</time>
      </trkpt>
      <trkpt lat="49.80586" lon="3.43373">
        <ele>41.6</ele>
        <time>2023-08-06T15:35:10Z</time>
      </trkpt>
      <trkpt lat="49.80584" lon="3.4337">
        <ele>41.6</ele>
        <time>2023-08-06T15:35:11Z</time>
      </trkpt>
      <trkpt lat="49.80584" lon="3.43366">
        <ele>41.6</ele>
        <time>2023-08-06T15:35:12Z</time>
      </trkpt>
      <trkpt lat="49.80583" lon="3.43362">
        <ele>41.6</ele>
        <time>2023-08-06T15:35:13Z</time>
      </trkpt>
      <trkpt lat="49.80581" lon="3.43358">
        <ele>41.4</ele>
        <time>2023-08-06T15:35:14Z</time>
      </trkpt>
      <trkpt lat="49.80578" lon="3.43348">
        <ele>41.2</ele>
        <time>2023-08-06T15:35:17Z</time>
      </trkpt>
      <trkpt lat="49.80577" lon="3.43345">
        <ele>41.2</ele>
        <time>2023-08-06T15:35:18Z</time>
      </trkpt>
      <trkpt lat="49.80574" lon="3.43343">
        <ele>41</ele>
        <time>2023-08-06T15:35:19Z</time>
      </trkpt>
      <trkpt lat="49.80572" lon="3.43341">
        <ele>41</ele>
        <time>2023-08-06T15:35:20Z</time>
      </trkpt>
      <trkpt lat="49.80571" lon="3.43338">
        <ele>41</ele>
        <time>2023-08-06T15:35:21Z</time>
      </trkpt>
      <trkpt lat="49.8057" lon="3.43336">
        <ele>41</ele>
        <time>2023-08-06T15:35:22Z</time>
      </trkpt>
      <trkpt lat="49.80569" lon="3.43334">
        <ele>41</ele>
        <time>2023-08-06T15:35:23Z</time>
      </trkpt>
      <trkpt lat="49.80568" lon="3.43331">
        <ele>41</ele>
        <time>2023-08-06T15:35:24Z</time>
      </trkpt>
      <trkpt lat="49.80563" lon="3.43314">
        <ele>41.4</ele>
        <time>2023-08-06T15:35:30Z</time>
      </trkpt>
      <trkpt lat="49.80561" lon="3.43304">
        <ele>42</ele>
        <time>2023-08-06T15:35:33Z</time>
      </trkpt>
      <trkpt lat="49.8056" lon="3.433">
        <ele>42</ele>
        <time>2023-08-06T15:35:34Z</time>
      </trkpt>
      <trkpt lat="49.80558" lon="3.43293">
        <ele>42.2</ele>
        <time>2023-08-06T15:35:36Z</time>
      </trkpt>
      <trkpt lat="49.80553" lon="3.43271">
        <ele>42.4</ele>
        <time>2023-08-06T15:35:41Z</time>
      </trkpt>
      <trkpt lat="49.80548" lon="3.4326">
        <ele>42.8</ele>
        <time>2023-08-06T15:35:44Z</time>
      </trkpt>
      <trkpt lat="49.80546" lon="3.43255">
        <ele>42.8</ele>
        <time>2023-08-06T15:35:45Z</time>
      </trkpt>
      <trkpt lat="49.80544" lon="3.43252">
        <ele>42.8</ele>
        <time>2023-08-06T15:35:46Z</time>
      </trkpt>
      <trkpt lat="49.80542" lon="3.43241">
        <ele>42.8</ele>
        <time>2023-08-06T15:35:49Z</time>
      </trkpt>
      <trkpt lat="49.80541" lon="3.4324">
        <ele>42.8</ele>
        <time>2023-08-06T15:35:50Z</time>
      </trkpt>
      <trkpt lat="49.80539" lon="3.43236">
        <ele>42.6</ele>
        <time>2023-08-06T15:35:51Z</time>
      </trkpt>
      <trkpt lat="49.80538" lon="3.43229">
        <ele>42.4</ele>
        <time>2023-08-06T15:35:53Z</time>
      </trkpt>
      <trkpt lat="49.80537" lon="3.43226">
        <ele>42.2</ele>
        <time>2023-08-06T15:35:54Z</time>
      </trkpt>
      <trkpt lat="49.80536" lon="3.43223">
        <ele>42.2</ele>
        <time>2023-08-06T15:35:55Z</time>
      </trkpt>
      <trkpt lat="49.80535" lon="3.43219">
        <ele>42</ele>
        <time>2023-08-06T15:35:56Z</time>
      </trkpt>
      <trkpt lat="49.80529" lon="3.43198">
        <ele>42</ele>
        <time>2023-08-06T15:36:01Z</time>
      </trkpt>
      <trkpt lat="49.80528" lon="3.43195">
        <ele>42</ele>
        <time>2023-08-06T15:36:02Z</time>
      </trkpt>
      <trkpt lat="49.80528" lon="3.43191">
        <ele>42</ele>
        <time>2023-08-06T15:36:03Z</time>
      </trkpt>
      <trkpt lat="49.80523" lon="3.43175">
        <ele>41.6</ele>
        <time>2023-08-06T15:36:07Z</time>
      </trkpt>
      <trkpt lat="49.80522" lon="3.43171">
        <ele>41.6</ele>
        <time>2023-08-06T15:36:08Z</time>
      </trkpt>
      <trkpt lat="49.80519" lon="3.43159">
        <ele>41.2</ele>
        <time>2023-08-06T15:36:11Z</time>
      </trkpt>
      <trkpt lat="49.80518" lon="3.43155">
        <ele>41</ele>
        <time>2023-08-06T15:36:12Z</time>
      </trkpt>
      <trkpt lat="49.80515" lon="3.43143">
        <ele>40.4</ele>
        <time>2023-08-06T15:36:15Z</time>
      </trkpt>
      <trkpt lat="49.80515" lon="3.4314">
        <ele>40.2</ele>
        <time>2023-08-06T15:36:16Z</time>
      </trkpt>
      <trkpt lat="49.80516" lon="3.43138">
        <ele>40.2</ele>
        <time>2023-08-06T15:36:17Z</time>
      </trkpt>
      <trkpt lat="49.80516" lon="3.43137">
        <ele>40</ele>
        <time>2023-08-06T15:36:18Z</time>
      </trkpt>
      <trkpt lat="49.80516" lon="3.43136">
        <ele>40</ele>
        <time>2023-08-06T15:36:19Z</time>
      </trkpt>
      <trkpt lat="49.80516" lon="3.43136">
        <ele>39.8</ele>
        <time>2023-08-06T15:36:21Z</time>
      </trkpt>
      <trkpt lat="49.80512" lon="3.43142">
        <ele>38.8</ele>
        <time>2023-08-06T15:38:56Z</time>
      </trkpt>
      <trkpt lat="49.8051" lon="3.43144">
        <ele>38.8</ele>
        <time>2023-08-06T15:38:57Z</time>
      </trkpt>
      <trkpt lat="49.80505" lon="3.43146">
        <ele>38.6</ele>
        <time>2023-08-06T15:38:59Z</time>
      </trkpt>
      <trkpt lat="49.80502" lon="3.43146">
        <ele>38.6</ele>
        <time>2023-08-06T15:39:00Z</time>
      </trkpt>
      <trkpt lat="49.80499" lon="3.43147">
        <ele>38.4</ele>
        <time>2023-08-06T15:39:01Z</time>
      </trkpt>
      <trkpt lat="49.80496" lon="3.43147">
        <ele>38.4</ele>
        <time>2023-08-06T15:39:02Z</time>
      </trkpt>
      <trkpt lat="49.80474" lon="3.43153">
        <ele>38.2</ele>
        <time>2023-08-06T15:39:08Z</time>
      </trkpt>
      <trkpt lat="49.80465" lon="3.43155">
        <ele>38.2</ele>
        <time>2023-08-06T15:39:10Z</time>
      </trkpt>
      <trkpt lat="49.80445" lon="3.43159">
        <ele>37.8</ele>
        <time>2023-08-06T15:39:14Z</time>
      </trkpt>
      <trkpt lat="49.80435" lon="3.43161">
        <ele>37.4</ele>
        <time>2023-08-06T15:39:16Z</time>
      </trkpt>
      <trkpt lat="49.8043" lon="3.43163">
        <ele>37.4</ele>
        <time>2023-08-06T15:39:17Z</time>
      </trkpt>
      <trkpt lat="49.80415" lon="3.43167">
        <ele>37</ele>
        <time>2023-08-06T15:39:20Z</time>
      </trkpt>
      <trkpt lat="49.80388" lon="3.43174">
        <ele>36.4</ele>
        <time>2023-08-06T15:39:25Z</time>
      </trkpt>
      <trkpt lat="49.80368" lon="3.4318">
        <ele>35.8</ele>
        <time>2023-08-06T15:39:29Z</time>
      </trkpt>
      <trkpt lat="49.80341" lon="3.43187">
        <ele>35.2</ele>
        <time>2023-08-06T15:39:34Z</time>
      </trkpt>
      <trkpt lat="49.80337" lon="3.43188">
        <ele>35.2</ele>
        <time>2023-08-06T15:39:35Z</time>
      </trkpt>
      <trkpt lat="49.80333" lon="3.4319">
        <ele>35</ele>
        <time>2023-08-06T15:39:36Z</time>
      </trkpt>
      <trkpt lat="49.8033" lon="3.43192">
        <ele>35</ele>
        <time>2023-08-06T15:39:37Z</time>
      </trkpt>
      <trkpt lat="49.80326" lon="3.43193">
        <ele>35</ele>
        <time>2023-08-06T15:39:38Z</time>
      </trkpt>
      <trkpt lat="49.80323" lon="3.43194">
        <ele>34.6</ele>
        <time>2023-08-06T15:39:39Z</time>
      </trkpt>
      <trkpt lat="49.8032" lon="3.43194">
        <ele>34.6</ele>
        <time>2023-08-06T15:39:40Z</time>
      </trkpt>
      <trkpt lat="49.80317" lon="3.43192">
        <ele>34.4</ele>
        <time>2023-08-06T15:39:41Z</time>
      </trkpt>
      <trkpt lat="49.80315" lon="3.4319">
        <ele>34.2</ele>
        <time>2023-08-06T15:39:42Z</time>
      </trkpt>
      <trkpt lat="49.80313" lon="3.43181">
        <ele>33.8</ele>
        <time>2023-08-06T15:39:44Z</time>
      </trkpt>
      <trkpt lat="49.80313" lon="3.43176">
        <ele>33.8</ele>
        <time>2023-08-06T15:39:45Z</time>
      </trkpt>
      <trkpt lat="49.80312" lon="3.43171">
        <ele>33.4</ele>
        <time>2023-08-06T15:39:46Z</time>
      </trkpt>
      <trkpt lat="49.8031" lon="3.43161">
        <ele>33</ele>
        <time>2023-08-06T15:39:48Z</time>
      </trkpt>
      <trkpt lat="49.80304" lon="3.43133">
        <ele>32.2</ele>
        <time>2023-08-06T15:39:53Z</time>
      </trkpt>
      <trkpt lat="49.80302" lon="3.4312">
        <ele>32</ele>
        <time>2023-08-06T15:39:55Z</time>
      </trkpt>
      <trkpt lat="49.80297" lon="3.43096">
        <ele>31.6</ele>
        <time>2023-08-06T15:39:59Z</time>
      </trkpt>
      <trkpt lat="49.80294" lon="3.4309">
        <ele>31.4</ele>
        <time>2023-08-06T15:40:00Z</time>
      </trkpt>
      <trkpt lat="49.80292" lon="3.43086">
        <ele>31.4</ele>
        <time>2023-08-06T15:40:01Z</time>
      </trkpt>
      <trkpt lat="49.80288" lon="3.43083">
        <ele>31.2</ele>
        <time>2023-08-06T15:40:02Z</time>
      </trkpt>
      <trkpt lat="49.80281" lon="3.43084">
        <ele>31</ele>
        <time>2023-08-06T15:40:04Z</time>
      </trkpt>
      <trkpt lat="49.80277" lon="3.43085">
        <ele>30.8</ele>
        <time>2023-08-06T15:40:05Z</time>
      </trkpt>
      <trkpt lat="49.80274" lon="3.43086">
        <ele>30.8</ele>
        <time>2023-08-06T15:40:06Z</time>
      </trkpt>
      <trkpt lat="49.8027" lon="3.43087">
        <ele>30.6</ele>
        <time>2023-08-06T15:40:07Z</time>
      </trkpt>
      <trkpt lat="49.80267" lon="3.43088">
        <ele>30.6</ele>
        <time>2023-08-06T15:40:08Z</time>
      </trkpt>
      <trkpt lat="49.80264" lon="3.4309">
        <ele>30.6</ele>
        <time>2023-08-06T15:40:09Z</time>
      </trkpt>
      <trkpt lat="49.80261" lon="3.43092">
        <ele>30.6</ele>
        <time>2023-08-06T15:40:10Z</time>
      </trkpt>
      <trkpt lat="49.80258" lon="3.43093">
        <ele>30.4</ele>
        <time>2023-08-06T15:40:11Z</time>
      </trkpt>
      <trkpt lat="49.80254" lon="3.43095">
        <ele>30.4</ele>
        <time>2023-08-06T15:40:12Z</time>
      </trkpt>
      <trkpt lat="49.80246" lon="3.43098">
        <ele>30.4</ele>
        <time>2023-08-06T15:40:14Z</time>
      </trkpt>
      <trkpt lat="49.80229" lon="3.43107">
        <ele>30.2</ele>
        <time>2023-08-06T15:40:18Z</time>
      </trkpt>
      <trkpt lat="49.80216" lon="3.43115">
        <ele>30</ele>
        <time>2023-08-06T15:40:21Z</time>
      </trkpt>
      <trkpt lat="49.80212" lon="3.43117">
        <ele>29.8</ele>
        <time>2023-08-06T15:40:22Z</time>
      </trkpt>
      <trkpt lat="49.8019" lon="3.4313">
        <ele>29.6</ele>
        <time>2023-08-06T15:40:26Z</time>
      </trkpt>
      <trkpt lat="49.80154" lon="3.43156">
        <ele>28.8</ele>
        <time>2023-08-06T15:40:32Z</time>
      </trkpt>
      <trkpt lat="49.80147" lon="3.43161">
        <ele>28.6</ele>
        <time>2023-08-06T15:40:33Z</time>
      </trkpt>
      <trkpt lat="49.80141" lon="3.43166">
        <ele>28.2</ele>
        <time>2023-08-06T15:40:34Z</time>
      </trkpt>
      <trkpt lat="49.80129" lon="3.43177">
        <ele>27.4</ele>
        <time>2023-08-06T15:40:36Z</time>
      </trkpt>
      <trkpt lat="49.80123" lon="3.43184">
        <ele>27.2</ele>
        <time>2023-08-06T15:40:37Z</time>
      </trkpt>
      <trkpt lat="49.80118" lon="3.43192">
        <ele>26.8</ele>
        <time>2023-08-06T15:40:38Z</time>
      </trkpt>
      <trkpt lat="49.80109" lon="3.43209">
        <ele>26.2</ele>
        <time>2023-08-06T15:40:40Z</time>
      </trkpt>
      <trkpt lat="49.80106" lon="3.43218">
        <ele>26</ele>
        <time>2023-08-06T15:40:41Z</time>
      </trkpt>
      <trkpt lat="49.80099" lon="3.43237">
        <ele>25.4</ele>
        <time>2023-08-06T15:40:43Z</time>
      </trkpt>
      <trkpt lat="49.80095" lon="3.43247">
        <ele>25.2</ele>
        <time>2023-08-06T15:40:44Z</time>
      </trkpt>
      <trkpt lat="49.80086" lon="3.43275">
        <ele>24.8</ele>
        <time>2023-08-06T15:40:47Z</time>
      </trkpt>
      <trkpt lat="49.80083" lon="3.43284">
        <ele>24.4</ele>
        <time>2023-08-06T15:40:48Z</time>
      </trkpt>
      <trkpt lat="49.8008" lon="3.43293">
        <ele>24.4</ele>
        <time>2023-08-06T15:40:49Z</time>
      </trkpt>
      <trkpt lat="49.80074" lon="3.43311">
        <ele>24.2</ele>
        <time>2023-08-06T15:40:51Z</time>
      </trkpt>
      <trkpt lat="49.80072" lon="3.43319">
        <ele>24</ele>
        <time>2023-08-06T15:40:52Z</time>
      </trkpt>
      <trkpt lat="49.8007" lon="3.43327">
        <ele>24</ele>
        <time>2023-08-06T15:40:53Z</time>
      </trkpt>
      <trkpt lat="49.80068" lon="3.43335">
        <ele>24</ele>
        <time>2023-08-06T15:40:54Z</time>
      </trkpt>
      <trkpt lat="49.80066" lon="3.43343">
        <ele>24</ele>
        <time>2023-08-06T15:40:55Z</time>
      </trkpt>
      <trkpt lat="49.80064" lon="3.4335">
        <ele>24</ele>
        <time>2023-08-06T15:40:56Z</time>
      </trkpt>
      <trkpt lat="49.80062" lon="3.43357">
        <ele>24.2</ele>
        <time>2023-08-06T15:40:57Z</time>
      </trkpt>
      <trkpt lat="49.8006" lon="3.43365">
        <ele>24.2</ele>
        <time>2023-08-06T15:40:58Z</time>
      </trkpt>
      <trkpt lat="49.80059" lon="3.43372">
        <ele>24.4</ele>
        <time>2023-08-06T15:40:59Z</time>
      </trkpt>
      <trkpt lat="49.80055" lon="3.43386">
        <ele>24.6</ele>
        <time>2023-08-06T15:41:01Z</time>
      </trkpt>
      <trkpt lat="49.80034" lon="3.43457">
        <ele>24.8</ele>
        <time>2023-08-06T15:41:10Z</time>
      </trkpt>
      <trkpt lat="49.80025" lon="3.43488">
        <ele>24.6</ele>
        <time>2023-08-06T15:41:14Z</time>
      </trkpt>
      <trkpt lat="49.80024" lon="3.43495">
        <ele>24.4</ele>
        <time>2023-08-06T15:41:15Z</time>
      </trkpt>
      <trkpt lat="49.80022" lon="3.43502">
        <ele>24.4</ele>
        <time>2023-08-06T15:41:16Z</time>
      </trkpt>
      <trkpt lat="49.8002" lon="3.43508">
        <ele>24.4</ele>
        <time>2023-08-06T15:41:17Z</time>
      </trkpt>
      <trkpt lat="49.80018" lon="3.43515">
        <ele>24.4</ele>
        <time>2023-08-06T15:41:18Z</time>
      </trkpt>
      <trkpt lat="49.80007" lon="3.43554">
        <ele>24.2</ele>
        <time>2023-08-06T15:41:24Z</time>
      </trkpt>
      <trkpt lat="49.79994" lon="3.43593">
        <ele>24.2</ele>
        <time>2023-08-06T15:41:30Z</time>
      </trkpt>
      <trkpt lat="49.7999" lon="3.43598">
        <ele>24.2</ele>
        <time>2023-08-06T15:41:31Z</time>
      </trkpt>
      <trkpt lat="49.79987" lon="3.43602">
        <ele>24.2</ele>
        <time>2023-08-06T15:41:32Z</time>
      </trkpt>
      <trkpt lat="49.79984" lon="3.43606">
        <ele>24.2</ele>
        <time>2023-08-06T15:41:33Z</time>
      </trkpt>
      <trkpt lat="49.79981" lon="3.43609">
        <ele>24.2</ele>
        <time>2023-08-06T15:41:34Z</time>
      </trkpt>
      <trkpt lat="49.79978" lon="3.43612">
        <ele>24.2</ele>
        <time>2023-08-06T15:41:35Z</time>
      </trkpt>
      <trkpt lat="49.79975" lon="3.43615">
        <ele>24</ele>
        <time>2023-08-06T15:41:36Z</time>
      </trkpt>
      <trkpt lat="49.79973" lon="3.43618">
        <ele>24</ele>
        <time>2023-08-06T15:41:37Z</time>
      </trkpt>
      <trkpt lat="49.7997" lon="3.43621">
        <ele>24</ele>
        <time>2023-08-06T15:41:38Z</time>
      </trkpt>
      <trkpt lat="49.79968" lon="3.43623">
        <ele>24</ele>
        <time>2023-08-06T15:41:39Z</time>
      </trkpt>
      <trkpt lat="49.79963" lon="3.43628">
        <ele>24.2</ele>
        <time>2023-08-06T15:41:41Z</time>
      </trkpt>
      <trkpt lat="49.7996" lon="3.4363">
        <ele>24.4</ele>
        <time>2023-08-06T15:41:42Z</time>
      </trkpt>
      <trkpt lat="49.7996" lon="3.4363">
        <ele>24.4</ele>
        <time>2023-08-06T15:41:43Z</time>
      </trkpt>
      <trkpt lat="49.79958" lon="3.43633">
        <ele>24.4</ele>
        <time>2023-08-06T15:41:44Z</time>
      </trkpt>
      <trkpt lat="49.79954" lon="3.43637">
        <ele>24.6</ele>
        <time>2023-08-06T15:41:45Z</time>
      </trkpt>
      <trkpt lat="49.79952" lon="3.43639">
        <ele>24.8</ele>
        <time>2023-08-06T15:41:46Z</time>
      </trkpt>
      <trkpt lat="49.79952" lon="3.43639">
        <ele>25</ele>
        <time>2023-08-06T15:41:47Z</time>
      </trkpt>
      <trkpt lat="49.79948" lon="3.43642">
        <ele>25.2</ele>
        <time>2023-08-06T15:41:48Z</time>
      </trkpt>
      <trkpt lat="49.79947" lon="3.43641">
        <ele>25.2</ele>
        <time>2023-08-06T15:41:49Z</time>
      </trkpt>
      <trkpt lat="49.79946" lon="3.43638">
        <ele>25.4</ele>
        <time>2023-08-06T15:41:50Z</time>
      </trkpt>
      <trkpt lat="49.79943" lon="3.43634">
        <ele>25.4</ele>
        <time>2023-08-06T15:41:51Z</time>
      </trkpt>
      <trkpt lat="49.79935" lon="3.43617">
        <ele>25.8</ele>
        <time>2023-08-06T15:41:54Z</time>
      </trkpt>
      <trkpt lat="49.7992" lon="3.43589">
        <ele>25.4</ele>
        <time>2023-08-06T15:41:59Z</time>
      </trkpt>
      <trkpt lat="49.79909" lon="3.43567">
        <ele>25.2</ele>
        <time>2023-08-06T15:42:01Z</time>
      </trkpt>
      <trkpt lat="49.7989" lon="3.43532">
        <ele>24.6</ele>
        <time>2023-08-06T15:42:06Z</time>
      </trkpt>
      <trkpt lat="49.79879" lon="3.43512">
        <ele>24.4</ele>
        <time>2023-08-06T15:42:09Z</time>
      </trkpt>
      <trkpt lat="49.79875" lon="3.43505">
        <ele>24.4</ele>
        <time>2023-08-06T15:42:10Z</time>
      </trkpt>
      <trkpt lat="49.79872" lon="3.43498">
        <ele>24.4</ele>
        <time>2023-08-06T15:42:11Z</time>
      </trkpt>
      <trkpt lat="49.79864" lon="3.43483">
        <ele>24.2</ele>
        <time>2023-08-06T15:42:14Z</time>
      </trkpt>
      <trkpt lat="49.79827" lon="3.43414">
        <ele>24.2</ele>
        <time>2023-08-06T15:42:23Z</time>
      </trkpt>
      <trkpt lat="49.79792" lon="3.43362">
        <ele>24.4</ele>
        <time>2023-08-06T15:42:31Z</time>
      </trkpt>
      <trkpt lat="49.79788" lon="3.43356">
        <ele>24.4</ele>
        <time>2023-08-06T15:42:32Z</time>
      </trkpt>
      <trkpt lat="49.79765" lon="3.43326">
        <ele>24.4</ele>
        <time>2023-08-06T15:42:37Z</time>
      </trkpt>
      <trkpt lat="49.79756" lon="3.43315">
        <ele>24.2</ele>
        <time>2023-08-06T15:42:40Z</time>
      </trkpt>
      <trkpt lat="49.79736" lon="3.43293">
        <ele>24.2</ele>
        <time>2023-08-06T15:42:43Z</time>
      </trkpt>
      <trkpt lat="49.79702" lon="3.43252">
        <ele>24.6</ele>
        <time>2023-08-06T15:42:50Z</time>
      </trkpt>
      <trkpt lat="49.79689" lon="3.43235">
        <ele>24.6</ele>
        <time>2023-08-06T15:42:53Z</time>
      </trkpt>
      <trkpt lat="49.79684" lon="3.43229">
        <ele>24.6</ele>
        <time>2023-08-06T15:42:54Z</time>
      </trkpt>
      <trkpt lat="49.79675" lon="3.43217">
        <ele>24.6</ele>
        <time>2023-08-06T15:42:56Z</time>
      </trkpt>
      <trkpt lat="49.79675" lon="3.43217">
        <ele>24.6</ele>
        <time>2023-08-06T15:42:57Z</time>
      </trkpt>
      <trkpt lat="49.79666" lon="3.43208">
        <ele>24.4</ele>
        <time>2023-08-06T15:42:58Z</time>
      </trkpt>
      <trkpt lat="49.79662" lon="3.43203">
        <ele>24.4</ele>
        <time>2023-08-06T15:42:59Z</time>
      </trkpt>
      <trkpt lat="49.79658" lon="3.43198">
        <ele>24.4</ele>
        <time>2023-08-06T15:43:00Z</time>
      </trkpt>
      <trkpt lat="49.79653" lon="3.43192">
        <ele>24.4</ele>
        <time>2023-08-06T15:43:01Z</time>
      </trkpt>
      <trkpt lat="49.79645" lon="3.43183">
        <ele>24.2</ele>
        <time>2023-08-06T15:43:03Z</time>
      </trkpt>
      <trkpt lat="49.79641" lon="3.43178">
        <ele>24.2</ele>
        <time>2023-08-06T15:43:04Z</time>
      </trkpt>
      <trkpt lat="49.79637" lon="3.43173">
        <ele>24.2</ele>
        <time>2023-08-06T15:43:05Z</time>
      </trkpt>
      <trkpt lat="49.79632" lon="3.43167">
        <ele>24</ele>
        <time>2023-08-06T15:43:06Z</time>
      </trkpt>
      <trkpt lat="49.7962" lon="3.43153">
        <ele>24.2</ele>
        <time>2023-08-06T15:43:09Z</time>
      </trkpt>
      <trkpt lat="49.79616" lon="3.43148">
        <ele>24.2</ele>
        <time>2023-08-06T15:43:10Z</time>
      </trkpt>
      <trkpt lat="49.79608" lon="3.43139">
        <ele>24</ele>
        <time>2023-08-06T15:43:13Z</time>
      </trkpt>
      <trkpt lat="49.79599" lon="3.43129">
        <ele>23.8</ele>
        <time>2023-08-06T15:43:14Z</time>
      </trkpt>
      <trkpt lat="49.79595" lon="3.43124">
        <ele>23.8</ele>
        <time>2023-08-06T15:43:16Z</time>
      </trkpt>
      <trkpt lat="49.79579" lon="3.43105">
        <ele>23.8</ele>
        <time>2023-08-06T15:43:19Z</time>
      </trkpt>
      <trkpt lat="49.79561" lon="3.43084">
        <ele>23.8</ele>
        <time>2023-08-06T15:43:23Z</time>
      </trkpt>
      <trkpt lat="49.79553" lon="3.43074">
        <ele>24</ele>
        <time>2023-08-06T15:43:25Z</time>
      </trkpt>
      <trkpt lat="49.79537" lon="3.43056">
        <ele>24</ele>
        <time>2023-08-06T15:43:29Z</time>
      </trkpt>
      <trkpt lat="49.79496" lon="3.4301">
        <ele>24.2</ele>
        <time>2023-08-06T15:43:38Z</time>
      </trkpt>
      <trkpt lat="49.79461" lon="3.42967">
        <ele>23.8</ele>
        <time>2023-08-06T15:43:46Z</time>
      </trkpt>
      <trkpt lat="49.79424" lon="3.42923">
        <ele>24</ele>
        <time>2023-08-06T15:43:54Z</time>
      </trkpt>
      <trkpt lat="49.79378" lon="3.42871">
        <ele>24</ele>
        <time>2023-08-06T15:44:04Z</time>
      </trkpt>
      <trkpt lat="49.79366" lon="3.42857">
        <ele>24</ele>
        <time>2023-08-06T15:44:07Z</time>
      </trkpt>
      <trkpt lat="49.79362" lon="3.42851">
        <ele>24</ele>
        <time>2023-08-06T15:44:08Z</time>
      </trkpt>
      <trkpt lat="49.79358" lon="3.42846">
        <ele>24</ele>
        <time>2023-08-06T15:44:10Z</time>
      </trkpt>
      <trkpt lat="49.79349" lon="3.42836">
        <ele>23.8</ele>
        <time>2023-08-06T15:44:11Z</time>
      </trkpt>
      <trkpt lat="49.79345" lon="3.42831">
        <ele>23.8</ele>
        <time>2023-08-06T15:44:12Z</time>
      </trkpt>
      <trkpt lat="49.7934" lon="3.42826">
        <ele>23.8</ele>
        <time>2023-08-06T15:44:13Z</time>
      </trkpt>
      <trkpt lat="49.79308" lon="3.42787">
        <ele>24.2</ele>
        <time>2023-08-06T15:44:20Z</time>
      </trkpt>
      <trkpt lat="49.79291" lon="3.42768">
        <ele>24.2</ele>
        <time>2023-08-06T15:44:24Z</time>
      </trkpt>
      <trkpt lat="49.79278" lon="3.42752">
        <ele>24.2</ele>
        <time>2023-08-06T15:44:27Z</time>
      </trkpt>
      <trkpt lat="49.79273" lon="3.42747">
        <ele>24</ele>
        <time>2023-08-06T15:44:28Z</time>
      </trkpt>
      <trkpt lat="49.79269" lon="3.42742">
        <ele>24</ele>
        <time>2023-08-06T15:44:29Z</time>
      </trkpt>
      <trkpt lat="49.79238" lon="3.42705">
        <ele>24</ele>
        <time>2023-08-06T15:44:36Z</time>
      </trkpt>
      <trkpt lat="49.7921" lon="3.42673">
        <ele>23.8</ele>
        <time>2023-08-06T15:44:42Z</time>
      </trkpt>
      <trkpt lat="49.79187" lon="3.42646">
        <ele>23.8</ele>
        <time>2023-08-06T15:44:47Z</time>
      </trkpt>
      <trkpt lat="49.79173" lon="3.42631">
        <ele>23.8</ele>
        <time>2023-08-06T15:44:50Z</time>
      </trkpt>
      <trkpt lat="49.79169" lon="3.42625">
        <ele>23.8</ele>
        <time>2023-08-06T15:44:51Z</time>
      </trkpt>
      <trkpt lat="49.79123" lon="3.42571">
        <ele>23.6</ele>
        <time>2023-08-06T15:45:01Z</time>
      </trkpt>
      <trkpt lat="49.79091" lon="3.42533">
        <ele>23.8</ele>
        <time>2023-08-06T15:45:08Z</time>
      </trkpt>
      <trkpt lat="49.79078" lon="3.42517">
        <ele>24</ele>
        <time>2023-08-06T15:45:11Z</time>
      </trkpt>
      <trkpt lat="49.79073" lon="3.42512">
        <ele>24</ele>
        <time>2023-08-06T15:45:12Z</time>
      </trkpt>
      <trkpt lat="49.79068" lon="3.42507">
        <ele>24</ele>
        <time>2023-08-06T15:45:13Z</time>
      </trkpt>
      <trkpt lat="49.79065" lon="3.42503">
        <ele>24</ele>
        <time>2023-08-06T15:45:14Z</time>
      </trkpt>
      <trkpt lat="49.79045" lon="3.42481">
        <ele>24</ele>
        <time>2023-08-06T15:45:18Z</time>
      </trkpt>
      <trkpt lat="49.79041" lon="3.42475">
        <ele>24</ele>
        <time>2023-08-06T15:45:19Z</time>
      </trkpt>
      <trkpt lat="49.79037" lon="3.4247">
        <ele>24.2</ele>
        <time>2023-08-06T15:45:20Z</time>
      </trkpt>
      <trkpt lat="49.78995" lon="3.42423">
        <ele>24</ele>
        <time>2023-08-06T15:45:29Z</time>
      </trkpt>
      <trkpt lat="49.78973" lon="3.42396">
        <ele>24.2</ele>
        <time>2023-08-06T15:45:34Z</time>
      </trkpt>
      <trkpt lat="49.78968" lon="3.42391">
        <ele>24.4</ele>
        <time>2023-08-06T15:45:35Z</time>
      </trkpt>
      <trkpt lat="49.78964" lon="3.42386">
        <ele>24.2</ele>
        <time>2023-08-06T15:45:36Z</time>
      </trkpt>
      <trkpt lat="49.7895" lon="3.4237">
        <ele>24.2</ele>
        <time>2023-08-06T15:45:39Z</time>
      </trkpt>
      <trkpt lat="49.78933" lon="3.42349">
        <ele>24.2</ele>
        <time>2023-08-06T15:45:43Z</time>
      </trkpt>
      <trkpt lat="49.78916" lon="3.42326">
        <ele>24.2</ele>
        <time>2023-08-06T15:45:47Z</time>
      </trkpt>
      <trkpt lat="49.78895" lon="3.42302">
        <ele>24.2</ele>
        <time>2023-08-06T15:45:52Z</time>
      </trkpt>
      <trkpt lat="49.78885" lon="3.42291">
        <ele>24</ele>
        <time>2023-08-06T15:45:54Z</time>
      </trkpt>
      <trkpt lat="49.7888" lon="3.42287">
        <ele>24</ele>
        <time>2023-08-06T15:45:55Z</time>
      </trkpt>
      <trkpt lat="49.78851" lon="3.42259">
        <ele>23.8</ele>
        <time>2023-08-06T15:46:01Z</time>
      </trkpt>
      <trkpt lat="49.78847" lon="3.42255">
        <ele>23.8</ele>
        <time>2023-08-06T15:46:02Z</time>
      </trkpt>
      <trkpt lat="49.78844" lon="3.4225">
        <ele>23.8</ele>
        <time>2023-08-06T15:46:03Z</time>
      </trkpt>
      <trkpt lat="49.78828" lon="3.42228">
        <ele>24</ele>
        <time>2023-08-06T15:46:07Z</time>
      </trkpt>
      <trkpt lat="49.78824" lon="3.42222">
        <ele>24</ele>
        <time>2023-08-06T15:46:08Z</time>
      </trkpt>
      <trkpt lat="49.78821" lon="3.42216">
        <ele>24</ele>
        <time>2023-08-06T15:46:09Z</time>
      </trkpt>
      <trkpt lat="49.78818" lon="3.42212">
        <ele>24</ele>
        <time>2023-08-06T15:46:10Z</time>
      </trkpt>
      <trkpt lat="49.78801" lon="3.42193">
        <ele>23.6</ele>
        <time>2023-08-06T15:46:14Z</time>
      </trkpt>
      <trkpt lat="49.78798" lon="3.42188">
        <ele>23.6</ele>
        <time>2023-08-06T15:46:15Z</time>
      </trkpt>
      <trkpt lat="49.78794" lon="3.42183">
        <ele>23.6</ele>
        <time>2023-08-06T15:46:16Z</time>
      </trkpt>
      <trkpt lat="49.78786" lon="3.42174">
        <ele>23.6</ele>
        <time>2023-08-06T15:46:18Z</time>
      </trkpt>
      <trkpt lat="49.78783" lon="3.42171">
        <ele>23.6</ele>
        <time>2023-08-06T15:46:19Z</time>
      </trkpt>
      <trkpt lat="49.78778" lon="3.42165">
        <ele>23.6</ele>
        <time>2023-08-06T15:46:20Z</time>
      </trkpt>
      <trkpt lat="49.78767" lon="3.42152">
        <ele>23.4</ele>
        <time>2023-08-06T15:46:23Z</time>
      </trkpt>
      <trkpt lat="49.78764" lon="3.42148">
        <ele>23.4</ele>
        <time>2023-08-06T15:46:24Z</time>
      </trkpt>
      <trkpt lat="49.7876" lon="3.42143">
        <ele>23.6</ele>
        <time>2023-08-06T15:46:25Z</time>
      </trkpt>
      <trkpt lat="49.7874" lon="3.42122">
        <ele>23.6</ele>
        <time>2023-08-06T15:46:30Z</time>
      </trkpt>
      <trkpt lat="49.78732" lon="3.42112">
        <ele>23.4</ele>
        <time>2023-08-06T15:46:32Z</time>
      </trkpt>
      <trkpt lat="49.78689" lon="3.42061">
        <ele>23.4</ele>
        <time>2023-08-06T15:46:43Z</time>
      </trkpt>
      <trkpt lat="49.78681" lon="3.42052">
        <ele>23.4</ele>
        <time>2023-08-06T15:46:45Z</time>
      </trkpt>
      <trkpt lat="49.78659" lon="3.42024">
        <ele>23.4</ele>
        <time>2023-08-06T15:46:51Z</time>
      </trkpt>
      <trkpt lat="49.78656" lon="3.4202">
        <ele>23.6</ele>
        <time>2023-08-06T15:46:52Z</time>
      </trkpt>
      <trkpt lat="49.78654" lon="3.42017">
        <ele>23.6</ele>
        <time>2023-08-06T15:46:53Z</time>
      </trkpt>
      <trkpt lat="49.78652" lon="3.42014">
        <ele>23.6</ele>
        <time>2023-08-06T15:46:54Z</time>
      </trkpt>
      <trkpt lat="49.78649" lon="3.42012">
        <ele>23.6</ele>
        <time>2023-08-06T15:46:55Z</time>
      </trkpt>
      <trkpt lat="49.78648" lon="3.4201">
        <ele>23.8</ele>
        <time>2023-08-06T15:46:56Z</time>
      </trkpt>
      <trkpt lat="49.78646" lon="3.42008">
        <ele>23.8</ele>
        <time>2023-08-06T15:46:57Z</time>
      </trkpt>
      <trkpt lat="49.78644" lon="3.42007">
        <ele>24.2</ele>
        <time>2023-08-06T15:46:58Z</time>
      </trkpt>
      <trkpt lat="49.78632" lon="3.41994">
        <ele>24.8</ele>
        <time>2023-08-06T15:47:02Z</time>
      </trkpt>
      <trkpt lat="49.78607" lon="3.41959">
        <ele>24.8</ele>
        <time>2023-08-06T15:47:08Z</time>
      </trkpt>
      <trkpt lat="49.78594" lon="3.41938">
        <ele>24</ele>
        <time>2023-08-06T15:47:11Z</time>
      </trkpt>
      <trkpt lat="49.78589" lon="3.41932">
        <ele>23.8</ele>
        <time>2023-08-06T15:47:12Z</time>
      </trkpt>
      <trkpt lat="49.78585" lon="3.41925">
        <ele>23.2</ele>
        <time>2023-08-06T15:47:13Z</time>
      </trkpt>
      <trkpt lat="49.78581" lon="3.41919">
        <ele>22.8</ele>
        <time>2023-08-06T15:47:14Z</time>
      </trkpt>
      <trkpt lat="49.78577" lon="3.41913">
        <ele>22.8</ele>
        <time>2023-08-06T15:47:15Z</time>
      </trkpt>
      <trkpt lat="49.78573" lon="3.41907">
        <ele>22.6</ele>
        <time>2023-08-06T15:47:16Z</time>
      </trkpt>
      <trkpt lat="49.78569" lon="3.419">
        <ele>22.6</ele>
        <time>2023-08-06T15:47:17Z</time>
      </trkpt>
      <trkpt lat="49.78567" lon="3.41894">
        <ele>22.4</ele>
        <time>2023-08-06T15:47:18Z</time>
      </trkpt>
      <trkpt lat="49.78562" lon="3.41886">
        <ele>22.4</ele>
        <time>2023-08-06T15:47:19Z</time>
      </trkpt>
      <trkpt lat="49.78539" lon="3.41843">
        <ele>22</ele>
        <time>2023-08-06T15:47:25Z</time>
      </trkpt>
      <trkpt lat="49.78511" lon="3.41782">
        <ele>22.2</ele>
        <time>2023-08-06T15:47:33Z</time>
      </trkpt>
      <trkpt lat="49.78482" lon="3.41723">
        <ele>22</ele>
        <time>2023-08-06T15:47:41Z</time>
      </trkpt>
      <trkpt lat="49.78478" lon="3.41716">
        <ele>22</ele>
        <time>2023-08-06T15:47:42Z</time>
      </trkpt>
      <trkpt lat="49.78454" lon="3.41659">
        <ele>22</ele>
        <time>2023-08-06T15:47:49Z</time>
      </trkpt>
      <trkpt lat="49.78433" lon="3.41607">
        <ele>21.8</ele>
        <time>2023-08-06T15:47:55Z</time>
      </trkpt>
      <trkpt lat="49.7843" lon="3.41599">
        <ele>21.8</ele>
        <time>2023-08-06T15:47:56Z</time>
      </trkpt>
      <trkpt lat="49.78399" lon="3.41522">
        <ele>21.8</ele>
        <time>2023-08-06T15:48:05Z</time>
      </trkpt>
      <trkpt lat="49.78388" lon="3.41497">
        <ele>21.6</ele>
        <time>2023-08-06T15:48:08Z</time>
      </trkpt>
      <trkpt lat="49.78385" lon="3.41489">
        <ele>21.6</ele>
        <time>2023-08-06T15:48:09Z</time>
      </trkpt>
      <trkpt lat="49.78382" lon="3.41481">
        <ele>21.6</ele>
        <time>2023-08-06T15:48:10Z</time>
      </trkpt>
      <trkpt lat="49.78378" lon="3.41473">
        <ele>21.6</ele>
        <time>2023-08-06T15:48:11Z</time>
      </trkpt>
      <trkpt lat="49.78374" lon="3.41464">
        <ele>21.6</ele>
        <time>2023-08-06T15:48:12Z</time>
      </trkpt>
      <trkpt lat="49.78371" lon="3.41456">
        <ele>21.4</ele>
        <time>2023-08-06T15:48:13Z</time>
      </trkpt>
      <trkpt lat="49.78346" lon="3.41402">
        <ele>21.2</ele>
        <time>2023-08-06T15:48:20Z</time>
      </trkpt>
      <trkpt lat="49.78343" lon="3.41394">
        <ele>21.2</ele>
        <time>2023-08-06T15:48:21Z</time>
      </trkpt>
      <trkpt lat="49.78337" lon="3.41378">
        <ele>21.2</ele>
        <time>2023-08-06T15:48:23Z</time>
      </trkpt>
      <trkpt lat="49.78334" lon="3.4137">
        <ele>21.2</ele>
        <time>2023-08-06T15:48:24Z</time>
      </trkpt>
      <trkpt lat="49.7833" lon="3.41362">
        <ele>21.2</ele>
        <time>2023-08-06T15:48:25Z</time>
      </trkpt>
      <trkpt lat="49.78328" lon="3.41356">
        <ele>21.2</ele>
        <time>2023-08-06T15:48:26Z</time>
      </trkpt>
      <trkpt lat="49.78324" lon="3.41348">
        <ele>21.4</ele>
        <time>2023-08-06T15:48:27Z</time>
      </trkpt>
      <trkpt lat="49.7831" lon="3.41315">
        <ele>21.4</ele>
        <time>2023-08-06T15:48:31Z</time>
      </trkpt>
      <trkpt lat="49.78308" lon="3.41308">
        <ele>21.4</ele>
        <time>2023-08-06T15:48:32Z</time>
      </trkpt>
      <trkpt lat="49.78304" lon="3.413">
        <ele>21.6</ele>
        <time>2023-08-06T15:48:33Z</time>
      </trkpt>
      <trkpt lat="49.78289" lon="3.41272">
        <ele>21.8</ele>
        <time>2023-08-06T15:48:37Z</time>
      </trkpt>
      <trkpt lat="49.7828" lon="3.41248">
        <ele>21.8</ele>
        <time>2023-08-06T15:48:40Z</time>
      </trkpt>
      <trkpt lat="49.78277" lon="3.4124">
        <ele>21.8</ele>
        <time>2023-08-06T15:48:41Z</time>
      </trkpt>
      <trkpt lat="49.78273" lon="3.41233">
        <ele>21.8</ele>
        <time>2023-08-06T15:48:42Z</time>
      </trkpt>
      <trkpt lat="49.78261" lon="3.41202">
        <ele>21.8</ele>
        <time>2023-08-06T15:48:46Z</time>
      </trkpt>
      <trkpt lat="49.78255" lon="3.41186">
        <ele>21.8</ele>
        <time>2023-08-06T15:48:48Z</time>
      </trkpt>
      <trkpt lat="49.78248" lon="3.4117">
        <ele>21.8</ele>
        <time>2023-08-06T15:48:50Z</time>
      </trkpt>
      <trkpt lat="49.78245" lon="3.41162">
        <ele>21.8</ele>
        <time>2023-08-06T15:48:51Z</time>
      </trkpt>
      <trkpt lat="49.78241" lon="3.41154">
        <ele>21.6</ele>
        <time>2023-08-06T15:48:52Z</time>
      </trkpt>
      <trkpt lat="49.78238" lon="3.41147">
        <ele>21.6</ele>
        <time>2023-08-06T15:48:53Z</time>
      </trkpt>
      <trkpt lat="49.78235" lon="3.4114">
        <ele>21.6</ele>
        <time>2023-08-06T15:48:54Z</time>
      </trkpt>
      <trkpt lat="49.78222" lon="3.41109">
        <ele>21.6</ele>
        <time>2023-08-06T15:48:58Z</time>
      </trkpt>
      <trkpt lat="49.78219" lon="3.41101">
        <ele>21.4</ele>
        <time>2023-08-06T15:48:59Z</time>
      </trkpt>
      <trkpt lat="49.78217" lon="3.41094">
        <ele>21.4</ele>
        <time>2023-08-06T15:49:00Z</time>
      </trkpt>
      <trkpt lat="49.78214" lon="3.41086">
        <ele>21.6</ele>
        <time>2023-08-06T15:49:01Z</time>
      </trkpt>
      <trkpt lat="49.78211" lon="3.41078">
        <ele>21.4</ele>
        <time>2023-08-06T15:49:02Z</time>
      </trkpt>
      <trkpt lat="49.78208" lon="3.4107">
        <ele>21.4</ele>
        <time>2023-08-06T15:49:03Z</time>
      </trkpt>
      <trkpt lat="49.78202" lon="3.41055">
        <ele>21.2</ele>
        <time>2023-08-06T15:49:05Z</time>
      </trkpt>
      <trkpt lat="49.78199" lon="3.41048">
        <ele>21.2</ele>
        <time>2023-08-06T15:49:06Z</time>
      </trkpt>
      <trkpt lat="49.78183" lon="3.41012">
        <ele>21.4</ele>
        <time>2023-08-06T15:49:11Z</time>
      </trkpt>
      <trkpt lat="49.78156" lon="3.40959">
        <ele>21.6</ele>
        <time>2023-08-06T15:49:19Z</time>
      </trkpt>
      <trkpt lat="49.78145" lon="3.40931">
        <ele>21.4</ele>
        <time>2023-08-06T15:49:23Z</time>
      </trkpt>
      <trkpt lat="49.78142" lon="3.40923">
        <ele>21.2</ele>
        <time>2023-08-06T15:49:24Z</time>
      </trkpt>
      <trkpt lat="49.78138" lon="3.40915">
        <ele>21.2</ele>
        <time>2023-08-06T15:49:25Z</time>
      </trkpt>
      <trkpt lat="49.78135" lon="3.40908">
        <ele>21.2</ele>
        <time>2023-08-06T15:49:26Z</time>
      </trkpt>
      <trkpt lat="49.78131" lon="3.40901">
        <ele>21.2</ele>
        <time>2023-08-06T15:49:27Z</time>
      </trkpt>
      <trkpt lat="49.78128" lon="3.40894">
        <ele>21.2</ele>
        <time>2023-08-06T15:49:28Z</time>
      </trkpt>
      <trkpt lat="49.78125" lon="3.40887">
        <ele>21.2</ele>
        <time>2023-08-06T15:49:29Z</time>
      </trkpt>
      <trkpt lat="49.78122" lon="3.40881">
        <ele>21.2</ele>
        <time>2023-08-06T15:49:30Z</time>
      </trkpt>
      <trkpt lat="49.78118" lon="3.40873">
        <ele>21.2</ele>
        <time>2023-08-06T15:49:31Z</time>
      </trkpt>
      <trkpt lat="49.78112" lon="3.40858">
        <ele>21.2</ele>
        <time>2023-08-06T15:49:33Z</time>
      </trkpt>
      <trkpt lat="49.78094" lon="3.40811">
        <ele>21.2</ele>
        <time>2023-08-06T15:49:39Z</time>
      </trkpt>
      <trkpt lat="49.78076" lon="3.40766">
        <ele>21.2</ele>
        <time>2023-08-06T15:49:45Z</time>
      </trkpt>
      <trkpt lat="49.78072" lon="3.40758">
        <ele>21.2</ele>
        <time>2023-08-06T15:49:46Z</time>
      </trkpt>
      <trkpt lat="49.78062" lon="3.40739">
        <ele>21.2</ele>
        <time>2023-08-06T15:49:49Z</time>
      </trkpt>
      <trkpt lat="49.78058" lon="3.40732">
        <ele>21.2</ele>
        <time>2023-08-06T15:49:50Z</time>
      </trkpt>
      <trkpt lat="49.78054" lon="3.40725">
        <ele>21.2</ele>
        <time>2023-08-06T15:49:51Z</time>
      </trkpt>
      <trkpt lat="49.78051" lon="3.40718">
        <ele>21</ele>
        <time>2023-08-06T15:49:52Z</time>
      </trkpt>
      <trkpt lat="49.78048" lon="3.40711">
        <ele>21</ele>
        <time>2023-08-06T15:49:53Z</time>
      </trkpt>
      <trkpt lat="49.78045" lon="3.40704">
        <ele>21</ele>
        <time>2023-08-06T15:49:54Z</time>
      </trkpt>
      <trkpt lat="49.78042" lon="3.40697">
        <ele>21</ele>
        <time>2023-08-06T15:49:55Z</time>
      </trkpt>
      <trkpt lat="49.78039" lon="3.4069">
        <ele>21</ele>
        <time>2023-08-06T15:49:56Z</time>
      </trkpt>
      <trkpt lat="49.78036" lon="3.40683">
        <ele>21</ele>
        <time>2023-08-06T15:49:57Z</time>
      </trkpt>
      <trkpt lat="49.78027" lon="3.4066">
        <ele>21</ele>
        <time>2023-08-06T15:50:00Z</time>
      </trkpt>
      <trkpt lat="49.78024" lon="3.40654">
        <ele>21</ele>
        <time>2023-08-06T15:50:01Z</time>
      </trkpt>
      <trkpt lat="49.78022" lon="3.40647">
        <ele>21</ele>
        <time>2023-08-06T15:50:02Z</time>
      </trkpt>
      <trkpt lat="49.78019" lon="3.40639">
        <ele>21</ele>
        <time>2023-08-06T15:50:03Z</time>
      </trkpt>
      <trkpt lat="49.78008" lon="3.40611">
        <ele>21</ele>
        <time>2023-08-06T15:50:07Z</time>
      </trkpt>
      <trkpt lat="49.78005" lon="3.40603">
        <ele>21</ele>
        <time>2023-08-06T15:50:08Z</time>
      </trkpt>
      <trkpt lat="49.78003" lon="3.40596">
        <ele>21</ele>
        <time>2023-08-06T15:50:09Z</time>
      </trkpt>
      <trkpt lat="49.78" lon="3.40587">
        <ele>21</ele>
        <time>2023-08-06T15:50:10Z</time>
      </trkpt>
      <trkpt lat="49.77997" lon="3.40579">
        <ele>21</ele>
        <time>2023-08-06T15:50:11Z</time>
      </trkpt>
      <trkpt lat="49.77995" lon="3.40572">
        <ele>21</ele>
        <time>2023-08-06T15:50:12Z</time>
      </trkpt>
      <trkpt lat="49.77993" lon="3.40566">
        <ele>21</ele>
        <time>2023-08-06T15:50:13Z</time>
      </trkpt>
      <trkpt lat="49.77988" lon="3.40553">
        <ele>21.2</ele>
        <time>2023-08-06T15:50:15Z</time>
      </trkpt>
      <trkpt lat="49.77985" lon="3.40546">
        <ele>21.2</ele>
        <time>2023-08-06T15:50:16Z</time>
      </trkpt>
      <trkpt lat="49.77983" lon="3.40541">
        <ele>21.2</ele>
        <time>2023-08-06T15:50:17Z</time>
      </trkpt>
      <trkpt lat="49.77982" lon="3.40535">
        <ele>21.2</ele>
        <time>2023-08-06T15:50:18Z</time>
      </trkpt>
      <trkpt lat="49.77979" lon="3.40528">
        <ele>21.2</ele>
        <time>2023-08-06T15:50:19Z</time>
      </trkpt>
      <trkpt lat="49.77976" lon="3.40523">
        <ele>21.2</ele>
        <time>2023-08-06T15:50:20Z</time>
      </trkpt>
      <trkpt lat="49.77974" lon="3.40517">
        <ele>21.2</ele>
        <time>2023-08-06T15:50:21Z</time>
      </trkpt>
      <trkpt lat="49.77971" lon="3.40511">
        <ele>21.4</ele>
        <time>2023-08-06T15:50:22Z</time>
      </trkpt>
      <trkpt lat="49.77969" lon="3.40507">
        <ele>21.4</ele>
        <time>2023-08-06T15:50:23Z</time>
      </trkpt>
      <trkpt lat="49.77966" lon="3.40502">
        <ele>21.4</ele>
        <time>2023-08-06T15:50:24Z</time>
      </trkpt>
      <trkpt lat="49.77963" lon="3.40496">
        <ele>21.4</ele>
        <time>2023-08-06T15:50:25Z</time>
      </trkpt>
      <trkpt lat="49.7796" lon="3.40491">
        <ele>21.4</ele>
        <time>2023-08-06T15:50:26Z</time>
      </trkpt>
      <trkpt lat="49.7795" lon="3.40464">
        <ele>21.2</ele>
        <time>2023-08-06T15:50:31Z</time>
      </trkpt>
      <trkpt lat="49.77949" lon="3.40459">
        <ele>21.2</ele>
        <time>2023-08-06T15:50:32Z</time>
      </trkpt>
      <trkpt lat="49.77947" lon="3.40455">
        <ele>21.2</ele>
        <time>2023-08-06T15:50:33Z</time>
      </trkpt>
      <trkpt lat="49.77946" lon="3.40452">
        <ele>21.2</ele>
        <time>2023-08-06T15:50:34Z</time>
      </trkpt>
      <trkpt lat="49.77946" lon="3.40449">
        <ele>21.2</ele>
        <time>2023-08-06T15:50:35Z</time>
      </trkpt>
      <trkpt lat="49.77945" lon="3.40446">
        <ele>21.2</ele>
        <time>2023-08-06T15:50:36Z</time>
      </trkpt>
      <trkpt lat="49.77944" lon="3.40443">
        <ele>21.2</ele>
        <time>2023-08-06T15:50:37Z</time>
      </trkpt>
      <trkpt lat="49.77944" lon="3.40441">
        <ele>21.2</ele>
        <time>2023-08-06T15:50:38Z</time>
      </trkpt>
      <trkpt lat="49.77941" lon="3.40433">
        <ele>21.6</ele>
        <time>2023-08-06T15:50:41Z</time>
      </trkpt>
      <trkpt lat="49.7794" lon="3.40431">
        <ele>21.8</ele>
        <time>2023-08-06T15:50:42Z</time>
      </trkpt>
      <trkpt lat="49.77938" lon="3.40431">
        <ele>21.8</ele>
        <time>2023-08-06T15:50:43Z</time>
      </trkpt>
      <trkpt lat="49.77936" lon="3.40432">
        <ele>22</ele>
        <time>2023-08-06T15:50:44Z</time>
      </trkpt>
      <trkpt lat="49.77936" lon="3.40435">
        <ele>22</ele>
        <time>2023-08-06T15:50:45Z</time>
      </trkpt>
      <trkpt lat="49.77931" lon="3.40446">
        <ele>22.4</ele>
        <time>2023-08-06T15:50:49Z</time>
      </trkpt>
      <trkpt lat="49.7793" lon="3.40449">
        <ele>22.6</ele>
        <time>2023-08-06T15:50:50Z</time>
      </trkpt>
      <trkpt lat="49.77927" lon="3.40455">
        <ele>22.6</ele>
        <time>2023-08-06T15:50:52Z</time>
      </trkpt>
      <trkpt lat="49.77923" lon="3.40461">
        <ele>22.8</ele>
        <time>2023-08-06T15:50:54Z</time>
      </trkpt>
      <trkpt lat="49.77921" lon="3.40461">
        <ele>23</ele>
        <time>2023-08-06T15:50:55Z</time>
      </trkpt>
      <trkpt lat="49.77918" lon="3.40459">
        <ele>23</ele>
        <time>2023-08-06T15:50:56Z</time>
      </trkpt>
      <trkpt lat="49.77912" lon="3.40443">
        <ele>23</ele>
        <time>2023-08-06T15:50:59Z</time>
      </trkpt>
      <trkpt lat="49.77909" lon="3.40437">
        <ele>23</ele>
        <time>2023-08-06T15:51:00Z</time>
      </trkpt>
      <trkpt lat="49.77891" lon="3.40391">
        <ele>22.4</ele>
        <time>2023-08-06T15:51:06Z</time>
      </trkpt>
      <trkpt lat="49.77881" lon="3.40367">
        <ele>21.6</ele>
        <time>2023-08-06T15:51:09Z</time>
      </trkpt>
      <trkpt lat="49.77878" lon="3.40359">
        <ele>21.4</ele>
        <time>2023-08-06T15:51:10Z</time>
      </trkpt>
      <trkpt lat="49.77875" lon="3.40352">
        <ele>20.8</ele>
        <time>2023-08-06T15:51:11Z</time>
      </trkpt>
      <trkpt lat="49.77872" lon="3.40344">
        <ele>20.8</ele>
        <time>2023-08-06T15:51:12Z</time>
      </trkpt>
      <trkpt lat="49.77868" lon="3.40337">
        <ele>20.4</ele>
        <time>2023-08-06T15:51:13Z</time>
      </trkpt>
      <trkpt lat="49.7786" lon="3.40316">
        <ele>20</ele>
        <time>2023-08-06T15:51:16Z</time>
      </trkpt>
      <trkpt lat="49.77857" lon="3.40309">
        <ele>20</ele>
        <time>2023-08-06T15:51:17Z</time>
      </trkpt>
      <trkpt lat="49.77854" lon="3.40303">
        <ele>19.8</ele>
        <time>2023-08-06T15:51:18Z</time>
      </trkpt>
      <trkpt lat="49.77852" lon="3.40296">
        <ele>19.8</ele>
        <time>2023-08-06T15:51:19Z</time>
      </trkpt>
      <trkpt lat="49.77849" lon="3.40289">
        <ele>19.8</ele>
        <time>2023-08-06T15:51:20Z</time>
      </trkpt>
      <trkpt lat="49.77845" lon="3.40283">
        <ele>19.8</ele>
        <time>2023-08-06T15:51:21Z</time>
      </trkpt>
      <trkpt lat="49.77843" lon="3.40276">
        <ele>19.4</ele>
        <time>2023-08-06T15:51:22Z</time>
      </trkpt>
      <trkpt lat="49.7784" lon="3.4027">
        <ele>19.4</ele>
        <time>2023-08-06T15:51:23Z</time>
      </trkpt>
      <trkpt lat="49.7782" lon="3.40221">
        <ele>19.4</ele>
        <time>2023-08-06T15:51:30Z</time>
      </trkpt>
      <trkpt lat="49.77802" lon="3.40176">
        <ele>19.2</ele>
        <time>2023-08-06T15:51:36Z</time>
      </trkpt>
      <trkpt lat="49.77796" lon="3.40161">
        <ele>19.2</ele>
        <time>2023-08-06T15:51:38Z</time>
      </trkpt>
      <trkpt lat="49.77773" lon="3.40109">
        <ele>19.4</ele>
        <time>2023-08-06T15:51:45Z</time>
      </trkpt>
      <trkpt lat="49.77771" lon="3.40102">
        <ele>19.4</ele>
        <time>2023-08-06T15:51:46Z</time>
      </trkpt>
      <trkpt lat="49.77768" lon="3.40094">
        <ele>19.4</ele>
        <time>2023-08-06T15:51:47Z</time>
      </trkpt>
      <trkpt lat="49.77759" lon="3.40073">
        <ele>19.4</ele>
        <time>2023-08-06T15:51:50Z</time>
      </trkpt>
      <trkpt lat="49.77756" lon="3.40067">
        <ele>19.4</ele>
        <time>2023-08-06T15:51:51Z</time>
      </trkpt>
      <trkpt lat="49.77753" lon="3.4006">
        <ele>19.4</ele>
        <time>2023-08-06T15:51:52Z</time>
      </trkpt>
      <trkpt lat="49.7775" lon="3.40054">
        <ele>19.4</ele>
        <time>2023-08-06T15:51:53Z</time>
      </trkpt>
      <trkpt lat="49.77748" lon="3.40047">
        <ele>19.4</ele>
        <time>2023-08-06T15:51:54Z</time>
      </trkpt>
      <trkpt lat="49.77745" lon="3.4004">
        <ele>19.4</ele>
        <time>2023-08-06T15:51:55Z</time>
      </trkpt>
      <trkpt lat="49.77742" lon="3.40034">
        <ele>19.4</ele>
        <time>2023-08-06T15:51:56Z</time>
      </trkpt>
      <trkpt lat="49.7774" lon="3.40028">
        <ele>19.2</ele>
        <time>2023-08-06T15:51:57Z</time>
      </trkpt>
      <trkpt lat="49.77737" lon="3.4002">
        <ele>19.2</ele>
        <time>2023-08-06T15:51:58Z</time>
      </trkpt>
      <trkpt lat="49.77716" lon="3.39969">
        <ele>19.2</ele>
        <time>2023-08-06T15:52:05Z</time>
      </trkpt>
      <trkpt lat="49.77703" lon="3.39935">
        <ele>19.4</ele>
        <time>2023-08-06T15:52:10Z</time>
      </trkpt>
      <trkpt lat="49.77701" lon="3.3993">
        <ele>19.4</ele>
        <time>2023-08-06T15:52:11Z</time>
      </trkpt>
      <trkpt lat="49.77698" lon="3.39925">
        <ele>19.4</ele>
        <time>2023-08-06T15:52:12Z</time>
      </trkpt>
      <trkpt lat="49.77696" lon="3.3992">
        <ele>19.4</ele>
        <time>2023-08-06T15:52:13Z</time>
      </trkpt>
      <trkpt lat="49.77694" lon="3.39916">
        <ele>19.2</ele>
        <time>2023-08-06T15:52:14Z</time>
      </trkpt>
      <trkpt lat="49.77693" lon="3.3991">
        <ele>19.2</ele>
        <time>2023-08-06T15:52:15Z</time>
      </trkpt>
      <trkpt lat="49.77691" lon="3.39905">
        <ele>19.2</ele>
        <time>2023-08-06T15:52:16Z</time>
      </trkpt>
      <trkpt lat="49.7769" lon="3.39902">
        <ele>19.2</ele>
        <time>2023-08-06T15:52:17Z</time>
      </trkpt>
      <trkpt lat="49.77688" lon="3.39899">
        <ele>19.2</ele>
        <time>2023-08-06T15:52:18Z</time>
      </trkpt>
      <trkpt lat="49.77686" lon="3.39897">
        <ele>19.2</ele>
        <time>2023-08-06T15:52:19Z</time>
      </trkpt>
      <trkpt lat="49.77685" lon="3.39896">
        <ele>19</ele>
        <time>2023-08-06T15:52:20Z</time>
      </trkpt>
      <trkpt lat="49.77684" lon="3.39894">
        <ele>19</ele>
        <time>2023-08-06T15:52:21Z</time>
      </trkpt>
      <trkpt lat="49.77683" lon="3.39893">
        <ele>19</ele>
        <time>2023-08-06T15:52:22Z</time>
      </trkpt>
      <trkpt lat="49.77683" lon="3.39893">
        <ele>19</ele>
        <time>2023-08-06T15:52:23Z</time>
      </trkpt>
      <trkpt lat="49.77683" lon="3.39892">
        <ele>18.8</ele>
        <time>2023-08-06T15:52:24Z</time>
      </trkpt>
      <trkpt lat="49.77682" lon="3.39891">
        <ele>18.8</ele>
        <time>2023-08-06T15:52:25Z</time>
      </trkpt>
      <trkpt lat="49.77681" lon="3.39888">
        <ele>18.8</ele>
        <time>2023-08-06T15:52:27Z</time>
      </trkpt>
      <trkpt lat="49.7768" lon="3.39885">
        <ele>18.6</ele>
        <time>2023-08-06T15:52:29Z</time>
      </trkpt>
      <trkpt lat="49.77677" lon="3.39877">
        <ele>18.4</ele>
        <time>2023-08-06T15:52:33Z</time>
      </trkpt>
      <trkpt lat="49.77676" lon="3.39874">
        <ele>18.4</ele>
        <time>2023-08-06T15:52:34Z</time>
      </trkpt>
      <trkpt lat="49.77673" lon="3.39869">
        <ele>18.4</ele>
        <time>2023-08-06T15:52:36Z</time>
      </trkpt>
      <trkpt lat="49.77667" lon="3.39857">
        <ele>18.4</ele>
        <time>2023-08-06T15:52:39Z</time>
      </trkpt>
      <trkpt lat="49.77662" lon="3.39841">
        <ele>18.2</ele>
        <time>2023-08-06T15:52:42Z</time>
      </trkpt>
      <trkpt lat="49.77658" lon="3.39831">
        <ele>18.2</ele>
        <time>2023-08-06T15:52:44Z</time>
      </trkpt>
      <trkpt lat="49.77656" lon="3.39826">
        <ele>18.2</ele>
        <time>2023-08-06T15:52:45Z</time>
      </trkpt>
      <trkpt lat="49.77654" lon="3.3982">
        <ele>18.2</ele>
        <time>2023-08-06T15:52:46Z</time>
      </trkpt>
      <trkpt lat="49.77632" lon="3.39768">
        <ele>18.6</ele>
        <time>2023-08-06T15:52:55Z</time>
      </trkpt>
      <trkpt lat="49.77625" lon="3.39751">
        <ele>18.8</ele>
        <time>2023-08-06T15:52:58Z</time>
      </trkpt>
      <trkpt lat="49.77623" lon="3.39745">
        <ele>18.8</ele>
        <time>2023-08-06T15:52:59Z</time>
      </trkpt>
      <trkpt lat="49.77621" lon="3.39741">
        <ele>18.6</ele>
        <time>2023-08-06T15:53:00Z</time>
      </trkpt>
      <trkpt lat="49.77619" lon="3.39736">
        <ele>18.6</ele>
        <time>2023-08-06T15:53:01Z</time>
      </trkpt>
      <trkpt lat="49.77617" lon="3.3973">
        <ele>18.4</ele>
        <time>2023-08-06T15:53:02Z</time>
      </trkpt>
      <trkpt lat="49.77614" lon="3.39724">
        <ele>18.4</ele>
        <time>2023-08-06T15:53:03Z</time>
      </trkpt>
      <trkpt lat="49.77612" lon="3.39719">
        <ele>18.4</ele>
        <time>2023-08-06T15:53:04Z</time>
      </trkpt>
      <trkpt lat="49.7761" lon="3.39715">
        <ele>18.4</ele>
        <time>2023-08-06T15:53:05Z</time>
      </trkpt>
      <trkpt lat="49.77609" lon="3.3971">
        <ele>18.2</ele>
        <time>2023-08-06T15:53:06Z</time>
      </trkpt>
      <trkpt lat="49.77607" lon="3.39699">
        <ele>18.2</ele>
        <time>2023-08-06T15:53:08Z</time>
      </trkpt>
      <trkpt lat="49.77605" lon="3.39691">
        <ele>18.2</ele>
        <time>2023-08-06T15:53:10Z</time>
      </trkpt>
      <trkpt lat="49.77604" lon="3.39687">
        <ele>18.2</ele>
        <time>2023-08-06T15:53:11Z</time>
      </trkpt>
      <trkpt lat="49.77602" lon="3.39683">
        <ele>18.4</ele>
        <time>2023-08-06T15:53:12Z</time>
      </trkpt>
      <trkpt lat="49.77597" lon="3.39676">
        <ele>18.6</ele>
        <time>2023-08-06T15:53:14Z</time>
      </trkpt>
      <trkpt lat="49.77593" lon="3.39672">
        <ele>18.6</ele>
        <time>2023-08-06T15:53:15Z</time>
      </trkpt>
      <trkpt lat="49.7759" lon="3.39667">
        <ele>18.6</ele>
        <time>2023-08-06T15:53:16Z</time>
      </trkpt>
      <trkpt lat="49.77587" lon="3.39661">
        <ele>18.6</ele>
        <time>2023-08-06T15:53:17Z</time>
      </trkpt>
      <trkpt lat="49.77566" lon="3.39616">
        <ele>18.6</ele>
        <time>2023-08-06T15:53:25Z</time>
      </trkpt>
      <trkpt lat="49.77539" lon="3.3956">
        <ele>18.4</ele>
        <time>2023-08-06T15:53:34Z</time>
      </trkpt>
      <trkpt lat="49.77515" lon="3.39504">
        <ele>18.4</ele>
        <time>2023-08-06T15:53:42Z</time>
      </trkpt>
      <trkpt lat="49.77485" lon="3.39453">
        <ele>18.2</ele>
        <time>2023-08-06T15:53:50Z</time>
      </trkpt>
      <trkpt lat="49.77443" lon="3.39397">
        <ele>18</ele>
        <time>2023-08-06T15:54:00Z</time>
      </trkpt>
      <trkpt lat="49.77429" lon="3.39382">
        <ele>18.2</ele>
        <time>2023-08-06T15:54:03Z</time>
      </trkpt>
      <trkpt lat="49.77415" lon="3.39367">
        <ele>18.2</ele>
        <time>2023-08-06T15:54:06Z</time>
      </trkpt>
      <trkpt lat="49.77411" lon="3.39363">
        <ele>18.2</ele>
        <time>2023-08-06T15:54:07Z</time>
      </trkpt>
      <trkpt lat="49.77406" lon="3.39358">
        <ele>18.2</ele>
        <time>2023-08-06T15:54:08Z</time>
      </trkpt>
      <trkpt lat="49.77395" lon="3.3935">
        <ele>18.2</ele>
        <time>2023-08-06T15:54:10Z</time>
      </trkpt>
      <trkpt lat="49.7738" lon="3.39338">
        <ele>18</ele>
        <time>2023-08-06T15:54:13Z</time>
      </trkpt>
      <trkpt lat="49.77371" lon="3.39331">
        <ele>18</ele>
        <time>2023-08-06T15:54:15Z</time>
      </trkpt>
      <trkpt lat="49.77356" lon="3.39319">
        <ele>18</ele>
        <time>2023-08-06T15:54:18Z</time>
      </trkpt>
      <trkpt lat="49.77346" lon="3.39311">
        <ele>18</ele>
        <time>2023-08-06T15:54:20Z</time>
      </trkpt>
      <trkpt lat="49.77302" lon="3.39277">
        <ele>18</ele>
        <time>2023-08-06T15:54:29Z</time>
      </trkpt>
      <trkpt lat="49.77256" lon="3.39245">
        <ele>17.6</ele>
        <time>2023-08-06T15:54:38Z</time>
      </trkpt>
      <trkpt lat="49.77216" lon="3.39215">
        <ele>17.4</ele>
        <time>2023-08-06T15:54:46Z</time>
      </trkpt>
      <trkpt lat="49.7718" lon="3.39187">
        <ele>17.6</ele>
        <time>2023-08-06T15:54:53Z</time>
      </trkpt>
      <trkpt lat="49.77175" lon="3.39184">
        <ele>17.6</ele>
        <time>2023-08-06T15:54:54Z</time>
      </trkpt>
      <trkpt lat="49.77155" lon="3.39169">
        <ele>17.8</ele>
        <time>2023-08-06T15:54:58Z</time>
      </trkpt>
      <trkpt lat="49.7715" lon="3.39165">
        <ele>18</ele>
        <time>2023-08-06T15:54:59Z</time>
      </trkpt>
      <trkpt lat="49.77119" lon="3.39142">
        <ele>18</ele>
        <time>2023-08-06T15:55:05Z</time>
      </trkpt>
      <trkpt lat="49.77114" lon="3.39138">
        <ele>18</ele>
        <time>2023-08-06T15:55:06Z</time>
      </trkpt>
      <trkpt lat="49.7711" lon="3.39134">
        <ele>18</ele>
        <time>2023-08-06T15:55:07Z</time>
      </trkpt>
      <trkpt lat="49.77095" lon="3.39123">
        <ele>18.2</ele>
        <time>2023-08-06T15:55:10Z</time>
      </trkpt>
      <trkpt lat="49.7709" lon="3.39119">
        <ele>18.2</ele>
        <time>2023-08-06T15:55:11Z</time>
      </trkpt>
      <trkpt lat="49.77085" lon="3.39115">
        <ele>18.2</ele>
        <time>2023-08-06T15:55:12Z</time>
      </trkpt>
      <trkpt lat="49.7708" lon="3.39112">
        <ele>18.2</ele>
        <time>2023-08-06T15:55:13Z</time>
      </trkpt>
      <trkpt lat="49.77077" lon="3.39109">
        <ele>18.2</ele>
        <time>2023-08-06T15:55:14Z</time>
      </trkpt>
      <trkpt lat="49.77071" lon="3.39105">
        <ele>18.2</ele>
        <time>2023-08-06T15:55:15Z</time>
      </trkpt>
      <trkpt lat="49.77021" lon="3.39066">
        <ele>18.4</ele>
        <time>2023-08-06T15:55:25Z</time>
      </trkpt>
      <trkpt lat="49.77017" lon="3.39062">
        <ele>18.4</ele>
        <time>2023-08-06T15:55:26Z</time>
      </trkpt>
      <trkpt lat="49.76987" lon="3.39041">
        <ele>18.6</ele>
        <time>2023-08-06T15:55:32Z</time>
      </trkpt>
      <trkpt lat="49.76983" lon="3.39038">
        <ele>18.8</ele>
        <time>2023-08-06T15:55:33Z</time>
      </trkpt>
      <trkpt lat="49.76979" lon="3.39035">
        <ele>18.8</ele>
        <time>2023-08-06T15:55:34Z</time>
      </trkpt>
      <trkpt lat="49.76975" lon="3.39032">
        <ele>18.8</ele>
        <time>2023-08-06T15:55:35Z</time>
      </trkpt>
      <trkpt lat="49.76971" lon="3.39029">
        <ele>18.8</ele>
        <time>2023-08-06T15:55:36Z</time>
      </trkpt>
      <trkpt lat="49.76952" lon="3.39012">
        <ele>18.8</ele>
        <time>2023-08-06T15:55:41Z</time>
      </trkpt>
      <trkpt lat="49.76947" lon="3.39008">
        <ele>18.8</ele>
        <time>2023-08-06T15:55:42Z</time>
      </trkpt>
      <trkpt lat="49.76943" lon="3.39005">
        <ele>18.8</ele>
        <time>2023-08-06T15:55:43Z</time>
      </trkpt>
      <trkpt lat="49.76939" lon="3.39002">
        <ele>18.8</ele>
        <time>2023-08-06T15:55:44Z</time>
      </trkpt>
      <trkpt lat="49.76936" lon="3.39">
        <ele>18.8</ele>
        <time>2023-08-06T15:55:45Z</time>
      </trkpt>
      <trkpt lat="49.76933" lon="3.38999">
        <ele>18.8</ele>
        <time>2023-08-06T15:55:46Z</time>
      </trkpt>
      <trkpt lat="49.76931" lon="3.38998">
        <ele>18.8</ele>
        <time>2023-08-06T15:55:47Z</time>
      </trkpt>
      <trkpt lat="49.7693" lon="3.38997">
        <ele>18.8</ele>
        <time>2023-08-06T15:55:48Z</time>
      </trkpt>
      <trkpt lat="49.7693" lon="3.38997">
        <ele>19</ele>
        <time>2023-08-06T15:55:49Z</time>
      </trkpt>
      <trkpt lat="49.76929" lon="3.38996">
        <ele>19</ele>
        <time>2023-08-06T15:55:50Z</time>
      </trkpt>
      <trkpt lat="49.76928" lon="3.38994">
        <ele>19.2</ele>
        <time>2023-08-06T15:55:51Z</time>
      </trkpt>
      <trkpt lat="49.76927" lon="3.38989">
        <ele>19.4</ele>
        <time>2023-08-06T15:55:53Z</time>
      </trkpt>
      <trkpt lat="49.76928" lon="3.38986">
        <ele>19.6</ele>
        <time>2023-08-06T15:55:54Z</time>
      </trkpt>
      <trkpt lat="49.76929" lon="3.38982">
        <ele>19.8</ele>
        <time>2023-08-06T15:55:55Z</time>
      </trkpt>
      <trkpt lat="49.7693" lon="3.38979">
        <ele>19.8</ele>
        <time>2023-08-06T15:55:56Z</time>
      </trkpt>
      <trkpt lat="49.7693" lon="3.38976">
        <ele>20</ele>
        <time>2023-08-06T15:55:57Z</time>
      </trkpt>
      <trkpt lat="49.7693" lon="3.38962">
        <ele>20.2</ele>
        <time>2023-08-06T15:56:00Z</time>
      </trkpt>
      <trkpt lat="49.76928" lon="3.38957">
        <ele>20.2</ele>
        <time>2023-08-06T15:56:01Z</time>
      </trkpt>
      <trkpt lat="49.7692" lon="3.38949">
        <ele>20.2</ele>
        <time>2023-08-06T15:56:03Z</time>
      </trkpt>
      <trkpt lat="49.76897" lon="3.38931">
        <ele>19.8</ele>
        <time>2023-08-06T15:56:07Z</time>
      </trkpt>
      <trkpt lat="49.76878" lon="3.38917">
        <ele>19</ele>
        <time>2023-08-06T15:56:10Z</time>
      </trkpt>
      <trkpt lat="49.76871" lon="3.38912">
        <ele>18.8</ele>
        <time>2023-08-06T15:56:11Z</time>
      </trkpt>
      <trkpt lat="49.76865" lon="3.38908">
        <ele>18.4</ele>
        <time>2023-08-06T15:56:12Z</time>
      </trkpt>
      <trkpt lat="49.7686" lon="3.38904">
        <ele>18.2</ele>
        <time>2023-08-06T15:56:13Z</time>
      </trkpt>
      <trkpt lat="49.76848" lon="3.38895">
        <ele>18</ele>
        <time>2023-08-06T15:56:15Z</time>
      </trkpt>
      <trkpt lat="49.76843" lon="3.38891">
        <ele>18</ele>
        <time>2023-08-06T15:56:16Z</time>
      </trkpt>
      <trkpt lat="49.76838" lon="3.38888">
        <ele>17.8</ele>
        <time>2023-08-06T15:56:17Z</time>
      </trkpt>
      <trkpt lat="49.76833" lon="3.38884">
        <ele>17.8</ele>
        <time>2023-08-06T15:56:18Z</time>
      </trkpt>
      <trkpt lat="49.76828" lon="3.38881">
        <ele>17.6</ele>
        <time>2023-08-06T15:56:19Z</time>
      </trkpt>
      <trkpt lat="49.76823" lon="3.38877">
        <ele>17.6</ele>
        <time>2023-08-06T15:56:20Z</time>
      </trkpt>
      <trkpt lat="49.76819" lon="3.38874">
        <ele>17.4</ele>
        <time>2023-08-06T15:56:21Z</time>
      </trkpt>
      <trkpt lat="49.76804" lon="3.38862">
        <ele>17.4</ele>
        <time>2023-08-06T15:56:24Z</time>
      </trkpt>
      <trkpt lat="49.76789" lon="3.38851">
        <ele>17.4</ele>
        <time>2023-08-06T15:56:27Z</time>
      </trkpt>
      <trkpt lat="49.76749" lon="3.3882">
        <ele>17.2</ele>
        <time>2023-08-06T15:56:35Z</time>
      </trkpt>
      <trkpt lat="49.76698" lon="3.38782">
        <ele>17.6</ele>
        <time>2023-08-06T15:56:45Z</time>
      </trkpt>
      <trkpt lat="49.76693" lon="3.38778">
        <ele>17.6</ele>
        <time>2023-08-06T15:56:46Z</time>
      </trkpt>
      <trkpt lat="49.7665" lon="3.38746">
        <ele>17.2</ele>
        <time>2023-08-06T15:56:54Z</time>
      </trkpt>
      <trkpt lat="49.76619" lon="3.38722">
        <ele>17.4</ele>
        <time>2023-08-06T15:57:00Z</time>
      </trkpt>
      <trkpt lat="49.76614" lon="3.38718">
        <ele>17.4</ele>
        <time>2023-08-06T15:57:01Z</time>
      </trkpt>
      <trkpt lat="49.76604" lon="3.38711">
        <ele>17.4</ele>
        <time>2023-08-06T15:57:03Z</time>
      </trkpt>
      <trkpt lat="49.76589" lon="3.38698">
        <ele>17.4</ele>
        <time>2023-08-06T15:57:06Z</time>
      </trkpt>
      <trkpt lat="49.76584" lon="3.38694">
        <ele>17.4</ele>
        <time>2023-08-06T15:57:07Z</time>
      </trkpt>
      <trkpt lat="49.76579" lon="3.38691">
        <ele>17.4</ele>
        <time>2023-08-06T15:57:08Z</time>
      </trkpt>
      <trkpt lat="49.76564" lon="3.38679">
        <ele>17.2</ele>
        <time>2023-08-06T15:57:11Z</time>
      </trkpt>
      <trkpt lat="49.7654" lon="3.3866">
        <ele>17.2</ele>
        <time>2023-08-06T15:57:16Z</time>
      </trkpt>
      <trkpt lat="49.76534" lon="3.38656">
        <ele>17.2</ele>
        <time>2023-08-06T15:57:17Z</time>
      </trkpt>
      <trkpt lat="49.76529" lon="3.38652">
        <ele>17.2</ele>
        <time>2023-08-06T15:57:18Z</time>
      </trkpt>
      <trkpt lat="49.76525" lon="3.38649">
        <ele>17.2</ele>
        <time>2023-08-06T15:57:19Z</time>
      </trkpt>
      <trkpt lat="49.7652" lon="3.38646">
        <ele>17.2</ele>
        <time>2023-08-06T15:57:20Z</time>
      </trkpt>
      <trkpt lat="49.76516" lon="3.38642">
        <ele>17.2</ele>
        <time>2023-08-06T15:57:21Z</time>
      </trkpt>
      <trkpt lat="49.7651" lon="3.38638">
        <ele>17</ele>
        <time>2023-08-06T15:57:22Z</time>
      </trkpt>
      <trkpt lat="49.76505" lon="3.38635">
        <ele>17</ele>
        <time>2023-08-06T15:57:23Z</time>
      </trkpt>
      <trkpt lat="49.76495" lon="3.38628">
        <ele>17</ele>
        <time>2023-08-06T15:57:25Z</time>
      </trkpt>
      <trkpt lat="49.76485" lon="3.3862">
        <ele>16.8</ele>
        <time>2023-08-06T15:57:27Z</time>
      </trkpt>
      <trkpt lat="49.76481" lon="3.38616">
        <ele>16.8</ele>
        <time>2023-08-06T15:57:28Z</time>
      </trkpt>
      <trkpt lat="49.76461" lon="3.38602">
        <ele>16.8</ele>
        <time>2023-08-06T15:57:32Z</time>
      </trkpt>
      <trkpt lat="49.76446" lon="3.3859">
        <ele>16.8</ele>
        <time>2023-08-06T15:57:35Z</time>
      </trkpt>
      <trkpt lat="49.76441" lon="3.38587">
        <ele>17</ele>
        <time>2023-08-06T15:57:36Z</time>
      </trkpt>
      <trkpt lat="49.76416" lon="3.38568">
        <ele>17.6</ele>
        <time>2023-08-06T15:57:41Z</time>
      </trkpt>
      <trkpt lat="49.76365" lon="3.38527">
        <ele>17.2</ele>
        <time>2023-08-06T15:57:51Z</time>
      </trkpt>
      <trkpt lat="49.76331" lon="3.38501">
        <ele>16.8</ele>
        <time>2023-08-06T15:57:58Z</time>
      </trkpt>
      <trkpt lat="49.76326" lon="3.38497">
        <ele>16.8</ele>
        <time>2023-08-06T15:57:59Z</time>
      </trkpt>
      <trkpt lat="49.76322" lon="3.38494">
        <ele>16.6</ele>
        <time>2023-08-06T15:58:00Z</time>
      </trkpt>
      <trkpt lat="49.76318" lon="3.38492">
        <ele>16.6</ele>
        <time>2023-08-06T15:58:01Z</time>
      </trkpt>
      <trkpt lat="49.76314" lon="3.3849">
        <ele>16.6</ele>
        <time>2023-08-06T15:58:02Z</time>
      </trkpt>
      <trkpt lat="49.76309" lon="3.38488">
        <ele>16.6</ele>
        <time>2023-08-06T15:58:03Z</time>
      </trkpt>
      <trkpt lat="49.76304" lon="3.38486">
        <ele>16.4</ele>
        <time>2023-08-06T15:58:04Z</time>
      </trkpt>
      <trkpt lat="49.763" lon="3.38485">
        <ele>16.4</ele>
        <time>2023-08-06T15:58:05Z</time>
      </trkpt>
      <trkpt lat="49.76291" lon="3.38482">
        <ele>16.4</ele>
        <time>2023-08-06T15:58:07Z</time>
      </trkpt>
      <trkpt lat="49.76287" lon="3.38478">
        <ele>16.4</ele>
        <time>2023-08-06T15:58:08Z</time>
      </trkpt>
      <trkpt lat="49.76284" lon="3.38474">
        <ele>16.6</ele>
        <time>2023-08-06T15:58:09Z</time>
      </trkpt>
      <trkpt lat="49.76281" lon="3.38469">
        <ele>16.6</ele>
        <time>2023-08-06T15:58:10Z</time>
      </trkpt>
      <trkpt lat="49.76277" lon="3.38465">
        <ele>16.6</ele>
        <time>2023-08-06T15:58:11Z</time>
      </trkpt>
      <trkpt lat="49.76263" lon="3.38448">
        <ele>16.4</ele>
        <time>2023-08-06T15:58:15Z</time>
      </trkpt>
      <trkpt lat="49.7625" lon="3.38437">
        <ele>16.4</ele>
        <time>2023-08-06T15:58:18Z</time>
      </trkpt>
      <trkpt lat="49.7623" lon="3.38422">
        <ele>16.4</ele>
        <time>2023-08-06T15:58:22Z</time>
      </trkpt>
      <trkpt lat="49.76199" lon="3.384">
        <ele>16.4</ele>
        <time>2023-08-06T15:58:29Z</time>
      </trkpt>
      <trkpt lat="49.76195" lon="3.38397">
        <ele>16.6</ele>
        <time>2023-08-06T15:58:30Z</time>
      </trkpt>
      <trkpt lat="49.76186" lon="3.3839">
        <ele>16.6</ele>
        <time>2023-08-06T15:58:32Z</time>
      </trkpt>
      <trkpt lat="49.76182" lon="3.38386">
        <ele>16.6</ele>
        <time>2023-08-06T15:58:33Z</time>
      </trkpt>
      <trkpt lat="49.76178" lon="3.38384">
        <ele>16.6</ele>
        <time>2023-08-06T15:58:34Z</time>
      </trkpt>
      <trkpt lat="49.76174" lon="3.3838">
        <ele>16.6</ele>
        <time>2023-08-06T15:58:35Z</time>
      </trkpt>
      <trkpt lat="49.76169" lon="3.38377">
        <ele>16.6</ele>
        <time>2023-08-06T15:58:36Z</time>
      </trkpt>
      <trkpt lat="49.76165" lon="3.38374">
        <ele>16.6</ele>
        <time>2023-08-06T15:58:37Z</time>
      </trkpt>
      <trkpt lat="49.7616" lon="3.38371">
        <ele>16.6</ele>
        <time>2023-08-06T15:58:38Z</time>
      </trkpt>
      <trkpt lat="49.76157" lon="3.38369">
        <ele>16.6</ele>
        <time>2023-08-06T15:58:39Z</time>
      </trkpt>
      <trkpt lat="49.76136" lon="3.38353">
        <ele>16.6</ele>
        <time>2023-08-06T15:58:44Z</time>
      </trkpt>
      <trkpt lat="49.76133" lon="3.38351">
        <ele>16.6</ele>
        <time>2023-08-06T15:58:45Z</time>
      </trkpt>
      <trkpt lat="49.76129" lon="3.38347">
        <ele>16.6</ele>
        <time>2023-08-06T15:58:46Z</time>
      </trkpt>
      <trkpt lat="49.76124" lon="3.38343">
        <ele>16.4</ele>
        <time>2023-08-06T15:58:47Z</time>
      </trkpt>
      <trkpt lat="49.76098" lon="3.38324">
        <ele>16.2</ele>
        <time>2023-08-06T15:58:53Z</time>
      </trkpt>
      <trkpt lat="49.76069" lon="3.38302">
        <ele>16</ele>
        <time>2023-08-06T15:59:00Z</time>
      </trkpt>
      <trkpt lat="49.76066" lon="3.38299">
        <ele>16</ele>
        <time>2023-08-06T15:59:01Z</time>
      </trkpt>
      <trkpt lat="49.76063" lon="3.38295">
        <ele>15.8</ele>
        <time>2023-08-06T15:59:02Z</time>
      </trkpt>
      <trkpt lat="49.76058" lon="3.38291">
        <ele>15.8</ele>
        <time>2023-08-06T15:59:03Z</time>
      </trkpt>
      <trkpt lat="49.7604" lon="3.38278">
        <ele>15.8</ele>
        <time>2023-08-06T15:59:07Z</time>
      </trkpt>
      <trkpt lat="49.76012" lon="3.38259">
        <ele>15.8</ele>
        <time>2023-08-06T15:59:13Z</time>
      </trkpt>
      <trkpt lat="49.76004" lon="3.38252">
        <ele>16</ele>
        <time>2023-08-06T15:59:15Z</time>
      </trkpt>
      <trkpt lat="49.75986" lon="3.38239">
        <ele>16</ele>
        <time>2023-08-06T15:59:19Z</time>
      </trkpt>
      <trkpt lat="49.75975" lon="3.3823">
        <ele>16</ele>
        <time>2023-08-06T15:59:22Z</time>
      </trkpt>
      <trkpt lat="49.75971" lon="3.38227">
        <ele>15.8</ele>
        <time>2023-08-06T15:59:23Z</time>
      </trkpt>
      <trkpt lat="49.75967" lon="3.38223">
        <ele>15.8</ele>
        <time>2023-08-06T15:59:24Z</time>
      </trkpt>
      <trkpt lat="49.75954" lon="3.38215">
        <ele>15.8</ele>
        <time>2023-08-06T15:59:27Z</time>
      </trkpt>
      <trkpt lat="49.75931" lon="3.38198">
        <ele>15.8</ele>
        <time>2023-08-06T15:59:32Z</time>
      </trkpt>
      <trkpt lat="49.75918" lon="3.38187">
        <ele>15.8</ele>
        <time>2023-08-06T15:59:35Z</time>
      </trkpt>
      <trkpt lat="49.75885" lon="3.38161">
        <ele>16</ele>
        <time>2023-08-06T15:59:42Z</time>
      </trkpt>
      <trkpt lat="49.75862" lon="3.38144">
        <ele>16</ele>
        <time>2023-08-06T15:59:47Z</time>
      </trkpt>
      <trkpt lat="49.75853" lon="3.38136">
        <ele>15.8</ele>
        <time>2023-08-06T15:59:49Z</time>
      </trkpt>
      <trkpt lat="49.75847" lon="3.38132">
        <ele>15.8</ele>
        <time>2023-08-06T15:59:50Z</time>
      </trkpt>
      <trkpt lat="49.75843" lon="3.38129">
        <ele>15.8</ele>
        <time>2023-08-06T15:59:51Z</time>
      </trkpt>
      <trkpt lat="49.75838" lon="3.38125">
        <ele>15.8</ele>
        <time>2023-08-06T15:59:52Z</time>
      </trkpt>
      <trkpt lat="49.75834" lon="3.38122">
        <ele>15.8</ele>
        <time>2023-08-06T15:59:53Z</time>
      </trkpt>
      <trkpt lat="49.7583" lon="3.38118">
        <ele>15.8</ele>
        <time>2023-08-06T15:59:54Z</time>
      </trkpt>
      <trkpt lat="49.75796" lon="3.38094">
        <ele>15.6</ele>
        <time>2023-08-06T16:00:01Z</time>
      </trkpt>
      <trkpt lat="49.75777" lon="3.38081">
        <ele>15.6</ele>
        <time>2023-08-06T16:00:05Z</time>
      </trkpt>
      <trkpt lat="49.75768" lon="3.38074">
        <ele>15.6</ele>
        <time>2023-08-06T16:00:08Z</time>
      </trkpt>
      <trkpt lat="49.75725" lon="3.38039">
        <ele>15.8</ele>
        <time>2023-08-06T16:00:16Z</time>
      </trkpt>
      <trkpt lat="49.75705" lon="3.38026">
        <ele>15.8</ele>
        <time>2023-08-06T16:00:20Z</time>
      </trkpt>
      <trkpt lat="49.75695" lon="3.38018">
        <ele>15.8</ele>
        <time>2023-08-06T16:00:22Z</time>
      </trkpt>
      <trkpt lat="49.75682" lon="3.38008">
        <ele>15.6</ele>
        <time>2023-08-06T16:00:25Z</time>
      </trkpt>
      <trkpt lat="49.75663" lon="3.37994">
        <ele>15.6</ele>
        <time>2023-08-06T16:00:29Z</time>
      </trkpt>
      <trkpt lat="49.75652" lon="3.37985">
        <ele>15.6</ele>
        <time>2023-08-06T16:00:31Z</time>
      </trkpt>
      <trkpt lat="49.75647" lon="3.37981">
        <ele>15.6</ele>
        <time>2023-08-06T16:00:32Z</time>
      </trkpt>
      <trkpt lat="49.75617" lon="3.37959">
        <ele>15.6</ele>
        <time>2023-08-06T16:00:38Z</time>
      </trkpt>
      <trkpt lat="49.75612" lon="3.37955">
        <ele>15.4</ele>
        <time>2023-08-06T16:00:39Z</time>
      </trkpt>
      <trkpt lat="49.75608" lon="3.37952">
        <ele>15.4</ele>
        <time>2023-08-06T16:00:40Z</time>
      </trkpt>
      <trkpt lat="49.75588" lon="3.37937">
        <ele>15.6</ele>
        <time>2023-08-06T16:00:44Z</time>
      </trkpt>
      <trkpt lat="49.75583" lon="3.37934">
        <ele>15.6</ele>
        <time>2023-08-06T16:00:45Z</time>
      </trkpt>
      <trkpt lat="49.75579" lon="3.37931">
        <ele>15.6</ele>
        <time>2023-08-06T16:00:46Z</time>
      </trkpt>
      <trkpt lat="49.75574" lon="3.37927">
        <ele>15.6</ele>
        <time>2023-08-06T16:00:47Z</time>
      </trkpt>
      <trkpt lat="49.7557" lon="3.37923">
        <ele>15.6</ele>
        <time>2023-08-06T16:00:48Z</time>
      </trkpt>
      <trkpt lat="49.75566" lon="3.37919">
        <ele>15.4</ele>
        <time>2023-08-06T16:00:49Z</time>
      </trkpt>
      <trkpt lat="49.75561" lon="3.37916">
        <ele>15.4</ele>
        <time>2023-08-06T16:00:50Z</time>
      </trkpt>
      <trkpt lat="49.75558" lon="3.37914">
        <ele>15.4</ele>
        <time>2023-08-06T16:00:51Z</time>
      </trkpt>
      <trkpt lat="49.75552" lon="3.3791">
        <ele>15.4</ele>
        <time>2023-08-06T16:00:52Z</time>
      </trkpt>
      <trkpt lat="49.75548" lon="3.37907">
        <ele>15.4</ele>
        <time>2023-08-06T16:00:53Z</time>
      </trkpt>
      <trkpt lat="49.75543" lon="3.37904">
        <ele>15.6</ele>
        <time>2023-08-06T16:00:54Z</time>
      </trkpt>
      <trkpt lat="49.75539" lon="3.379">
        <ele>15.6</ele>
        <time>2023-08-06T16:00:55Z</time>
      </trkpt>
      <trkpt lat="49.75536" lon="3.37897">
        <ele>15.6</ele>
        <time>2023-08-06T16:00:56Z</time>
      </trkpt>
      <trkpt lat="49.75531" lon="3.37893">
        <ele>15.6</ele>
        <time>2023-08-06T16:00:57Z</time>
      </trkpt>
      <trkpt lat="49.75526" lon="3.37891">
        <ele>15.6</ele>
        <time>2023-08-06T16:00:58Z</time>
      </trkpt>
      <trkpt lat="49.75522" lon="3.37888">
        <ele>15.6</ele>
        <time>2023-08-06T16:00:59Z</time>
      </trkpt>
      <trkpt lat="49.75515" lon="3.37882">
        <ele>15.6</ele>
        <time>2023-08-06T16:01:01Z</time>
      </trkpt>
      <trkpt lat="49.75495" lon="3.37865">
        <ele>15.6</ele>
        <time>2023-08-06T16:01:06Z</time>
      </trkpt>
      <trkpt lat="49.75491" lon="3.37862">
        <ele>15.6</ele>
        <time>2023-08-06T16:01:07Z</time>
      </trkpt>
      <trkpt lat="49.75487" lon="3.37859">
        <ele>15.4</ele>
        <time>2023-08-06T16:01:08Z</time>
      </trkpt>
      <trkpt lat="49.75482" lon="3.37855">
        <ele>15.4</ele>
        <time>2023-08-06T16:01:09Z</time>
      </trkpt>
      <trkpt lat="49.75478" lon="3.37852">
        <ele>15.4</ele>
        <time>2023-08-06T16:01:10Z</time>
      </trkpt>
      <trkpt lat="49.75475" lon="3.37849">
        <ele>15.4</ele>
        <time>2023-08-06T16:01:11Z</time>
      </trkpt>
      <trkpt lat="49.7547" lon="3.37845">
        <ele>15.2</ele>
        <time>2023-08-06T16:01:12Z</time>
      </trkpt>
      <trkpt lat="49.7546" lon="3.37838">
        <ele>15.2</ele>
        <time>2023-08-06T16:01:14Z</time>
      </trkpt>
      <trkpt lat="49.75432" lon="3.37818">
        <ele>15</ele>
        <time>2023-08-06T16:01:21Z</time>
      </trkpt>
      <trkpt lat="49.75427" lon="3.37815">
        <ele>15</ele>
        <time>2023-08-06T16:01:22Z</time>
      </trkpt>
      <trkpt lat="49.75423" lon="3.3781">
        <ele>15</ele>
        <time>2023-08-06T16:01:23Z</time>
      </trkpt>
      <trkpt lat="49.75404" lon="3.37796">
        <ele>15.4</ele>
        <time>2023-08-06T16:01:27Z</time>
      </trkpt>
      <trkpt lat="49.75368" lon="3.37768">
        <ele>15.4</ele>
        <time>2023-08-06T16:01:35Z</time>
      </trkpt>
      <trkpt lat="49.75345" lon="3.37751">
        <ele>15.2</ele>
        <time>2023-08-06T16:01:40Z</time>
      </trkpt>
      <trkpt lat="49.75336" lon="3.37743">
        <ele>15.2</ele>
        <time>2023-08-06T16:01:42Z</time>
      </trkpt>
      <trkpt lat="49.75293" lon="3.37713">
        <ele>15</ele>
        <time>2023-08-06T16:01:50Z</time>
      </trkpt>
      <trkpt lat="49.75259" lon="3.37688">
        <ele>15</ele>
        <time>2023-08-06T16:01:57Z</time>
      </trkpt>
      <trkpt lat="49.7523" lon="3.37668">
        <ele>14.8</ele>
        <time>2023-08-06T16:02:03Z</time>
      </trkpt>
      <trkpt lat="49.75226" lon="3.37664">
        <ele>14.8</ele>
        <time>2023-08-06T16:02:04Z</time>
      </trkpt>
      <trkpt lat="49.75221" lon="3.3766">
        <ele>14.8</ele>
        <time>2023-08-06T16:02:05Z</time>
      </trkpt>
      <trkpt lat="49.75216" lon="3.37656">
        <ele>14.8</ele>
        <time>2023-08-06T16:02:06Z</time>
      </trkpt>
      <trkpt lat="49.75213" lon="3.37652">
        <ele>14.8</ele>
        <time>2023-08-06T16:02:07Z</time>
      </trkpt>
      <trkpt lat="49.75199" lon="3.37642">
        <ele>14.8</ele>
        <time>2023-08-06T16:02:10Z</time>
      </trkpt>
      <trkpt lat="49.75193" lon="3.37638">
        <ele>14.8</ele>
        <time>2023-08-06T16:02:11Z</time>
      </trkpt>
      <trkpt lat="49.75189" lon="3.37635">
        <ele>14.8</ele>
        <time>2023-08-06T16:02:12Z</time>
      </trkpt>
      <trkpt lat="49.75184" lon="3.37632">
        <ele>14.8</ele>
        <time>2023-08-06T16:02:13Z</time>
      </trkpt>
      <trkpt lat="49.7518" lon="3.37628">
        <ele>14.8</ele>
        <time>2023-08-06T16:02:14Z</time>
      </trkpt>
      <trkpt lat="49.75175" lon="3.37625">
        <ele>14.8</ele>
        <time>2023-08-06T16:02:15Z</time>
      </trkpt>
      <trkpt lat="49.75161" lon="3.37615">
        <ele>14.8</ele>
        <time>2023-08-06T16:02:18Z</time>
      </trkpt>
      <trkpt lat="49.75157" lon="3.37613">
        <ele>14.8</ele>
        <time>2023-08-06T16:02:19Z</time>
      </trkpt>
      <trkpt lat="49.75153" lon="3.3761">
        <ele>14.8</ele>
        <time>2023-08-06T16:02:20Z</time>
      </trkpt>
      <trkpt lat="49.75147" lon="3.37608">
        <ele>14.8</ele>
        <time>2023-08-06T16:02:21Z</time>
      </trkpt>
      <trkpt lat="49.75142" lon="3.37606">
        <ele>14.8</ele>
        <time>2023-08-06T16:02:22Z</time>
      </trkpt>
      <trkpt lat="49.75114" lon="3.37594">
        <ele>14.8</ele>
        <time>2023-08-06T16:02:28Z</time>
      </trkpt>
      <trkpt lat="49.75109" lon="3.37593">
        <ele>14.8</ele>
        <time>2023-08-06T16:02:29Z</time>
      </trkpt>
      <trkpt lat="49.75104" lon="3.37592">
        <ele>14.8</ele>
        <time>2023-08-06T16:02:30Z</time>
      </trkpt>
      <trkpt lat="49.75074" lon="3.37583">
        <ele>14.8</ele>
        <time>2023-08-06T16:02:36Z</time>
      </trkpt>
      <trkpt lat="49.7507" lon="3.3758">
        <ele>14.8</ele>
        <time>2023-08-06T16:02:37Z</time>
      </trkpt>
      <trkpt lat="49.75068" lon="3.37578">
        <ele>14.8</ele>
        <time>2023-08-06T16:02:38Z</time>
      </trkpt>
      <trkpt lat="49.75066" lon="3.37575">
        <ele>14.8</ele>
        <time>2023-08-06T16:02:39Z</time>
      </trkpt>
      <trkpt lat="49.75063" lon="3.37573">
        <ele>14.8</ele>
        <time>2023-08-06T16:02:40Z</time>
      </trkpt>
      <trkpt lat="49.75062" lon="3.37572">
        <ele>14.8</ele>
        <time>2023-08-06T16:02:41Z</time>
      </trkpt>
      <trkpt lat="49.7506" lon="3.3757">
        <ele>14.8</ele>
        <time>2023-08-06T16:02:42Z</time>
      </trkpt>
      <trkpt lat="49.75058" lon="3.3757">
        <ele>15</ele>
        <time>2023-08-06T16:02:43Z</time>
      </trkpt>
      <trkpt lat="49.75057" lon="3.37569">
        <ele>15</ele>
        <time>2023-08-06T16:02:44Z</time>
      </trkpt>
      <trkpt lat="49.75055" lon="3.37568">
        <ele>15</ele>
        <time>2023-08-06T16:02:45Z</time>
      </trkpt>
      <trkpt lat="49.75053" lon="3.37566">
        <ele>15.2</ele>
        <time>2023-08-06T16:02:47Z</time>
      </trkpt>
      <trkpt lat="49.75051" lon="3.37565">
        <ele>15.4</ele>
        <time>2023-08-06T16:02:48Z</time>
      </trkpt>
      <trkpt lat="49.75049" lon="3.37564">
        <ele>15.6</ele>
        <time>2023-08-06T16:02:49Z</time>
      </trkpt>
      <trkpt lat="49.75048" lon="3.37564">
        <ele>15.6</ele>
        <time>2023-08-06T16:02:50Z</time>
      </trkpt>
      <trkpt lat="49.75038" lon="3.3756">
        <ele>16</ele>
        <time>2023-08-06T16:02:53Z</time>
      </trkpt>
      <trkpt lat="49.7503" lon="3.37556">
        <ele>16</ele>
        <time>2023-08-06T16:02:55Z</time>
      </trkpt>
      <trkpt lat="49.75017" lon="3.3755">
        <ele>16</ele>
        <time>2023-08-06T16:02:58Z</time>
      </trkpt>
      <trkpt lat="49.75013" lon="3.37547">
        <ele>16</ele>
        <time>2023-08-06T16:02:59Z</time>
      </trkpt>
      <trkpt lat="49.75009" lon="3.37545">
        <ele>16</ele>
        <time>2023-08-06T16:03:00Z</time>
      </trkpt>
      <trkpt lat="49.75004" lon="3.37542">
        <ele>16</ele>
        <time>2023-08-06T16:03:01Z</time>
      </trkpt>
      <trkpt lat="49.74986" lon="3.37536">
        <ele>15.4</ele>
        <time>2023-08-06T16:03:05Z</time>
      </trkpt>
      <trkpt lat="49.74973" lon="3.37531">
        <ele>15.2</ele>
        <time>2023-08-06T16:03:08Z</time>
      </trkpt>
      <trkpt lat="49.74969" lon="3.37529">
        <ele>15</ele>
        <time>2023-08-06T16:03:09Z</time>
      </trkpt>
      <trkpt lat="49.74965" lon="3.37528">
        <ele>15</ele>
        <time>2023-08-06T16:03:10Z</time>
      </trkpt>
      <trkpt lat="49.74961" lon="3.37526">
        <ele>15</ele>
        <time>2023-08-06T16:03:11Z</time>
      </trkpt>
      <trkpt lat="49.74956" lon="3.37525">
        <ele>15</ele>
        <time>2023-08-06T16:03:12Z</time>
      </trkpt>
      <trkpt lat="49.74952" lon="3.37524">
        <ele>15</ele>
        <time>2023-08-06T16:03:13Z</time>
      </trkpt>
      <trkpt lat="49.74907" lon="3.37508">
        <ele>14</ele>
        <time>2023-08-06T16:03:23Z</time>
      </trkpt>
      <trkpt lat="49.74897" lon="3.37504">
        <ele>13.8</ele>
        <time>2023-08-06T16:03:25Z</time>
      </trkpt>
      <trkpt lat="49.74866" lon="3.37493">
        <ele>13.4</ele>
        <time>2023-08-06T16:03:32Z</time>
      </trkpt>
      <trkpt lat="49.7483" lon="3.37478">
        <ele>13.4</ele>
        <time>2023-08-06T16:03:40Z</time>
      </trkpt>
      <trkpt lat="49.74776" lon="3.37458">
        <ele>13.4</ele>
        <time>2023-08-06T16:03:51Z</time>
      </trkpt>
      <trkpt lat="49.74729" lon="3.37439">
        <ele>13.2</ele>
        <time>2023-08-06T16:04:00Z</time>
      </trkpt>
      <trkpt lat="49.74696" lon="3.37423">
        <ele>13</ele>
        <time>2023-08-06T16:04:07Z</time>
      </trkpt>
      <trkpt lat="49.74692" lon="3.37421">
        <ele>13</ele>
        <time>2023-08-06T16:04:08Z</time>
      </trkpt>
      <trkpt lat="49.74687" lon="3.37419">
        <ele>12.8</ele>
        <time>2023-08-06T16:04:09Z</time>
      </trkpt>
      <trkpt lat="49.74682" lon="3.37417">
        <ele>12.8</ele>
        <time>2023-08-06T16:04:10Z</time>
      </trkpt>
      <trkpt lat="49.74678" lon="3.37415">
        <ele>12.8</ele>
        <time>2023-08-06T16:04:11Z</time>
      </trkpt>
      <trkpt lat="49.74673" lon="3.37413">
        <ele>12.8</ele>
        <time>2023-08-06T16:04:12Z</time>
      </trkpt>
      <trkpt lat="49.74668" lon="3.37412">
        <ele>12.8</ele>
        <time>2023-08-06T16:04:13Z</time>
      </trkpt>
      <trkpt lat="49.74664" lon="3.3741">
        <ele>12.8</ele>
        <time>2023-08-06T16:04:14Z</time>
      </trkpt>
      <trkpt lat="49.74659" lon="3.37408">
        <ele>12.8</ele>
        <time>2023-08-06T16:04:15Z</time>
      </trkpt>
      <trkpt lat="49.74655" lon="3.37407">
        <ele>12.6</ele>
        <time>2023-08-06T16:04:16Z</time>
      </trkpt>
      <trkpt lat="49.7465" lon="3.37405">
        <ele>12.6</ele>
        <time>2023-08-06T16:04:17Z</time>
      </trkpt>
      <trkpt lat="49.74642" lon="3.37401">
        <ele>12.6</ele>
        <time>2023-08-06T16:04:19Z</time>
      </trkpt>
      <trkpt lat="49.74638" lon="3.37399">
        <ele>12.6</ele>
        <time>2023-08-06T16:04:20Z</time>
      </trkpt>
      <trkpt lat="49.74634" lon="3.37397">
        <ele>12.6</ele>
        <time>2023-08-06T16:04:21Z</time>
      </trkpt>
      <trkpt lat="49.7463" lon="3.37395">
        <ele>12.6</ele>
        <time>2023-08-06T16:04:22Z</time>
      </trkpt>
      <trkpt lat="49.74626" lon="3.37393">
        <ele>12.6</ele>
        <time>2023-08-06T16:04:23Z</time>
      </trkpt>
      <trkpt lat="49.74622" lon="3.37391">
        <ele>12.6</ele>
        <time>2023-08-06T16:04:24Z</time>
      </trkpt>
      <trkpt lat="49.74619" lon="3.37389">
        <ele>12.6</ele>
        <time>2023-08-06T16:04:25Z</time>
      </trkpt>
      <trkpt lat="49.74615" lon="3.37388">
        <ele>12.6</ele>
        <time>2023-08-06T16:04:26Z</time>
      </trkpt>
      <trkpt lat="49.7461" lon="3.37387">
        <ele>12.6</ele>
        <time>2023-08-06T16:04:27Z</time>
      </trkpt>
      <trkpt lat="49.74598" lon="3.37382">
        <ele>12.6</ele>
        <time>2023-08-06T16:04:30Z</time>
      </trkpt>
      <trkpt lat="49.74595" lon="3.37381">
        <ele>12.6</ele>
        <time>2023-08-06T16:04:31Z</time>
      </trkpt>
      <trkpt lat="49.74592" lon="3.37381">
        <ele>12.6</ele>
        <time>2023-08-06T16:04:32Z</time>
      </trkpt>
      <trkpt lat="49.74589" lon="3.3738">
        <ele>12.6</ele>
        <time>2023-08-06T16:04:33Z</time>
      </trkpt>
      <trkpt lat="49.74586" lon="3.37379">
        <ele>12.6</ele>
        <time>2023-08-06T16:04:34Z</time>
      </trkpt>
      <trkpt lat="49.7458" lon="3.37376">
        <ele>12.4</ele>
        <time>2023-08-06T16:04:36Z</time>
      </trkpt>
      <trkpt lat="49.74563" lon="3.37372">
        <ele>12.4</ele>
        <time>2023-08-06T16:04:41Z</time>
      </trkpt>
      <trkpt lat="49.74561" lon="3.3737">
        <ele>12.4</ele>
        <time>2023-08-06T16:04:42Z</time>
      </trkpt>
      <trkpt lat="49.74559" lon="3.37369">
        <ele>12.4</ele>
        <time>2023-08-06T16:04:43Z</time>
      </trkpt>
      <trkpt lat="49.74557" lon="3.37369">
        <ele>12.4</ele>
        <time>2023-08-06T16:04:44Z</time>
      </trkpt>
      <trkpt lat="49.74557" lon="3.37371">
        <ele>12.4</ele>
        <time>2023-08-06T16:04:45Z</time>
      </trkpt>
      <trkpt lat="49.74557" lon="3.37372">
        <ele>12.4</ele>
        <time>2023-08-06T16:04:46Z</time>
      </trkpt>
      <trkpt lat="49.74558" lon="3.37374">
        <ele>12.4</ele>
        <time>2023-08-06T16:04:47Z</time>
      </trkpt>
      <trkpt lat="49.74564" lon="3.37375">
        <ele>12.4</ele>
        <time>2023-08-06T16:04:50Z</time>
      </trkpt>
      <trkpt lat="49.74567" lon="3.37376">
        <ele>12.4</ele>
        <time>2023-08-06T16:04:51Z</time>
      </trkpt>
      <trkpt lat="49.74588" lon="3.37385">
        <ele>12.4</ele>
        <time>2023-08-06T16:04:57Z</time>
      </trkpt>
      <trkpt lat="49.74601" lon="3.37391">
        <ele>12.4</ele>
        <time>2023-08-06T16:05:00Z</time>
      </trkpt>
      <trkpt lat="49.74605" lon="3.37392">
        <ele>12.4</ele>
        <time>2023-08-06T16:05:01Z</time>
      </trkpt>
      <trkpt lat="49.74609" lon="3.37394">
        <ele>12.4</ele>
        <time>2023-08-06T16:05:02Z</time>
      </trkpt>
      <trkpt lat="49.74614" lon="3.37396">
        <ele>12.4</ele>
        <time>2023-08-06T16:05:03Z</time>
      </trkpt>
      <trkpt lat="49.74637" lon="3.37406">
        <ele>12</ele>
        <time>2023-08-06T16:05:08Z</time>
      </trkpt>
      <trkpt lat="49.7465" lon="3.37412">
        <ele>12</ele>
        <time>2023-08-06T16:05:11Z</time>
      </trkpt>
      <trkpt lat="49.74683" lon="3.37426">
        <ele>12.2</ele>
        <time>2023-08-06T16:05:18Z</time>
      </trkpt>
      <trkpt lat="49.74736" lon="3.37446">
        <ele>12.2</ele>
        <time>2023-08-06T16:05:29Z</time>
      </trkpt>
      <trkpt lat="49.74786" lon="3.37465">
        <ele>12.6</ele>
        <time>2023-08-06T16:05:39Z</time>
      </trkpt>
      <trkpt lat="49.74839" lon="3.37484">
        <ele>13</ele>
        <time>2023-08-06T16:05:49Z</time>
      </trkpt>
      <trkpt lat="49.7485" lon="3.37488">
        <ele>13</ele>
        <time>2023-08-06T16:05:51Z</time>
      </trkpt>
      <trkpt lat="49.74877" lon="3.37499">
        <ele>13.6</ele>
        <time>2023-08-06T16:05:56Z</time>
      </trkpt>
      <trkpt lat="49.74899" lon="3.37508">
        <ele>13.8</ele>
        <time>2023-08-06T16:06:00Z</time>
      </trkpt>
      <trkpt lat="49.74935" lon="3.37523">
        <ele>13.6</ele>
        <time>2023-08-06T16:06:07Z</time>
      </trkpt>
      <trkpt lat="49.7494" lon="3.37525">
        <ele>13.4</ele>
        <time>2023-08-06T16:06:08Z</time>
      </trkpt>
      <trkpt lat="49.74945" lon="3.37527">
        <ele>13.4</ele>
        <time>2023-08-06T16:06:09Z</time>
      </trkpt>
      <trkpt lat="49.74949" lon="3.37528">
        <ele>13.4</ele>
        <time>2023-08-06T16:06:10Z</time>
      </trkpt>
      <trkpt lat="49.74954" lon="3.3753">
        <ele>13.2</ele>
        <time>2023-08-06T16:06:11Z</time>
      </trkpt>
      <trkpt lat="49.74958" lon="3.37532">
        <ele>13.2</ele>
        <time>2023-08-06T16:06:12Z</time>
      </trkpt>
      <trkpt lat="49.74972" lon="3.37537">
        <ele>13.2</ele>
        <time>2023-08-06T16:06:15Z</time>
      </trkpt>
      <trkpt lat="49.74986" lon="3.37543">
        <ele>13.2</ele>
        <time>2023-08-06T16:06:18Z</time>
      </trkpt>
      <trkpt lat="49.7499" lon="3.37545">
        <ele>13.2</ele>
        <time>2023-08-06T16:06:19Z</time>
      </trkpt>
      <trkpt lat="49.75011" lon="3.37554">
        <ele>13.4</ele>
        <time>2023-08-06T16:06:24Z</time>
      </trkpt>
      <trkpt lat="49.75015" lon="3.37555">
        <ele>13.4</ele>
        <time>2023-08-06T16:06:25Z</time>
      </trkpt>
      <trkpt lat="49.75019" lon="3.37556">
        <ele>13.4</ele>
        <time>2023-08-06T16:06:26Z</time>
      </trkpt>
      <trkpt lat="49.75023" lon="3.37558">
        <ele>13.4</ele>
        <time>2023-08-06T16:06:27Z</time>
      </trkpt>
      <trkpt lat="49.7504" lon="3.37565">
        <ele>14</ele>
        <time>2023-08-06T16:06:32Z</time>
      </trkpt>
      <trkpt lat="49.75042" lon="3.37566">
        <ele>14</ele>
        <time>2023-08-06T16:06:33Z</time>
      </trkpt>
      <trkpt lat="49.75044" lon="3.37567">
        <ele>14.2</ele>
        <time>2023-08-06T16:06:34Z</time>
      </trkpt>
      <trkpt lat="49.75045" lon="3.37567">
        <ele>14.2</ele>
        <time>2023-08-06T16:06:35Z</time>
      </trkpt>
      <trkpt lat="49.75047" lon="3.37566">
        <ele>14.4</ele>
        <time>2023-08-06T16:06:36Z</time>
      </trkpt>
      <trkpt lat="49.75048" lon="3.37565">
        <ele>14.4</ele>
        <time>2023-08-06T16:06:37Z</time>
      </trkpt>
      <trkpt lat="49.7505" lon="3.37563">
        <ele>14.6</ele>
        <time>2023-08-06T16:06:38Z</time>
      </trkpt>
      <trkpt lat="49.75052" lon="3.3756">
        <ele>14.6</ele>
        <time>2023-08-06T16:06:39Z</time>
      </trkpt>
      <trkpt lat="49.75053" lon="3.37556">
        <ele>14.8</ele>
        <time>2023-08-06T16:06:40Z</time>
      </trkpt>
      <trkpt lat="49.75054" lon="3.37552">
        <ele>14.8</ele>
        <time>2023-08-06T16:06:41Z</time>
      </trkpt>
      <trkpt lat="49.75055" lon="3.37547">
        <ele>15</ele>
        <time>2023-08-06T16:06:42Z</time>
      </trkpt>
      <trkpt lat="49.75056" lon="3.37541">
        <ele>15</ele>
        <time>2023-08-06T16:06:43Z</time>
      </trkpt>
      <trkpt lat="49.75062" lon="3.37504">
        <ele>14.8</ele>
        <time>2023-08-06T16:06:49Z</time>
      </trkpt>
      <trkpt lat="49.75061" lon="3.37499">
        <ele>14.8</ele>
        <time>2023-08-06T16:06:50Z</time>
      </trkpt>
      <trkpt lat="49.75059" lon="3.37494">
        <ele>14.6</ele>
        <time>2023-08-06T16:06:51Z</time>
      </trkpt>
      <trkpt lat="49.75056" lon="3.37491">
        <ele>14.6</ele>
        <time>2023-08-06T16:06:52Z</time>
      </trkpt>
      <trkpt lat="49.75051" lon="3.37489">
        <ele>14.4</ele>
        <time>2023-08-06T16:06:53Z</time>
      </trkpt>
      <trkpt lat="49.75033" lon="3.37485">
        <ele>14</ele>
        <time>2023-08-06T16:06:56Z</time>
      </trkpt>
      <trkpt lat="49.75027" lon="3.37484">
        <ele>13.8</ele>
        <time>2023-08-06T16:06:57Z</time>
      </trkpt>
      <trkpt lat="49.75021" lon="3.37483">
        <ele>13.4</ele>
        <time>2023-08-06T16:06:58Z</time>
      </trkpt>
      <trkpt lat="49.75016" lon="3.37482">
        <ele>12.6</ele>
        <time>2023-08-06T16:06:59Z</time>
      </trkpt>
      <trkpt lat="49.75011" lon="3.37481">
        <ele>12.2</ele>
        <time>2023-08-06T16:07:00Z</time>
      </trkpt>
      <trkpt lat="49.75006" lon="3.37481">
        <ele>12</ele>
        <time>2023-08-06T16:07:01Z</time>
      </trkpt>
      <trkpt lat="49.75001" lon="3.3748">
        <ele>11.8</ele>
        <time>2023-08-06T16:07:02Z</time>
      </trkpt>
      <trkpt lat="49.74997" lon="3.37479">
        <ele>11.8</ele>
        <time>2023-08-06T16:07:03Z</time>
      </trkpt>
      <trkpt lat="49.74994" lon="3.37479">
        <ele>11.6</ele>
        <time>2023-08-06T16:07:04Z</time>
      </trkpt>
      <trkpt lat="49.74989" lon="3.37479">
        <ele>11.4</ele>
        <time>2023-08-06T16:07:05Z</time>
      </trkpt>
      <trkpt lat="49.74978" lon="3.37478">
        <ele>11.2</ele>
        <time>2023-08-06T16:07:08Z</time>
      </trkpt>
      <trkpt lat="49.74974" lon="3.37477">
        <ele>11.2</ele>
        <time>2023-08-06T16:07:09Z</time>
      </trkpt>
      <trkpt lat="49.74971" lon="3.37476">
        <ele>11.2</ele>
        <time>2023-08-06T16:07:10Z</time>
      </trkpt>
      <trkpt lat="49.74967" lon="3.37474">
        <ele>11.2</ele>
        <time>2023-08-06T16:07:11Z</time>
      </trkpt>
      <trkpt lat="49.74963" lon="3.37472">
        <ele>11.2</ele>
        <time>2023-08-06T16:07:12Z</time>
      </trkpt>
      <trkpt lat="49.7495" lon="3.37464">
        <ele>11.2</ele>
        <time>2023-08-06T16:07:15Z</time>
      </trkpt>
      <trkpt lat="49.74942" lon="3.3746">
        <ele>11.2</ele>
        <time>2023-08-06T16:07:17Z</time>
      </trkpt>
      <trkpt lat="49.74939" lon="3.37457">
        <ele>11.2</ele>
        <time>2023-08-06T16:07:18Z</time>
      </trkpt>
      <trkpt lat="49.74935" lon="3.37453">
        <ele>11.2</ele>
        <time>2023-08-06T16:07:19Z</time>
      </trkpt>
      <trkpt lat="49.74932" lon="3.3745">
        <ele>11.2</ele>
        <time>2023-08-06T16:07:20Z</time>
      </trkpt>
      <trkpt lat="49.74929" lon="3.37447">
        <ele>11.2</ele>
        <time>2023-08-06T16:07:21Z</time>
      </trkpt>
      <trkpt lat="49.74906" lon="3.37418">
        <ele>11.2</ele>
        <time>2023-08-06T16:07:27Z</time>
      </trkpt>
      <trkpt lat="49.74885" lon="3.37394">
        <ele>10.6</ele>
        <time>2023-08-06T16:07:33Z</time>
      </trkpt>
      <trkpt lat="49.74878" lon="3.37386">
        <ele>10.4</ele>
        <time>2023-08-06T16:07:35Z</time>
      </trkpt>
      <trkpt lat="49.74875" lon="3.37382">
        <ele>10.4</ele>
        <time>2023-08-06T16:07:36Z</time>
      </trkpt>
      <trkpt lat="49.74872" lon="3.37378">
        <ele>10.4</ele>
        <time>2023-08-06T16:07:37Z</time>
      </trkpt>
      <trkpt lat="49.74869" lon="3.37375">
        <ele>10.2</ele>
        <time>2023-08-06T16:07:38Z</time>
      </trkpt>
      <trkpt lat="49.74866" lon="3.37372">
        <ele>10.4</ele>
        <time>2023-08-06T16:07:39Z</time>
      </trkpt>
      <trkpt lat="49.74864" lon="3.37368">
        <ele>10.4</ele>
        <time>2023-08-06T16:07:40Z</time>
      </trkpt>
      <trkpt lat="49.74861" lon="3.37365">
        <ele>10.6</ele>
        <time>2023-08-06T16:07:41Z</time>
      </trkpt>
      <trkpt lat="49.74858" lon="3.37362">
        <ele>10.6</ele>
        <time>2023-08-06T16:07:42Z</time>
      </trkpt>
      <trkpt lat="49.74855" lon="3.37359">
        <ele>10.6</ele>
        <time>2023-08-06T16:07:43Z</time>
      </trkpt>
      <trkpt lat="49.74852" lon="3.37355">
        <ele>10.6</ele>
        <time>2023-08-06T16:07:44Z</time>
      </trkpt>
      <trkpt lat="49.7485" lon="3.37352">
        <ele>10.6</ele>
        <time>2023-08-06T16:07:45Z</time>
      </trkpt>
      <trkpt lat="49.74847" lon="3.37349">
        <ele>10.6</ele>
        <time>2023-08-06T16:07:46Z</time>
      </trkpt>
      <trkpt lat="49.74841" lon="3.37341">
        <ele>10.8</ele>
        <time>2023-08-06T16:07:48Z</time>
      </trkpt>
      <trkpt lat="49.74818" lon="3.37315">
        <ele>10.6</ele>
        <time>2023-08-06T16:07:56Z</time>
      </trkpt>
      <trkpt lat="49.74793" lon="3.37279">
        <ele>10.2</ele>
        <time>2023-08-06T16:08:05Z</time>
      </trkpt>
      <trkpt lat="49.74772" lon="3.37251">
        <ele>10.2</ele>
        <time>2023-08-06T16:08:12Z</time>
      </trkpt>
      <trkpt lat="49.74747" lon="3.37214">
        <ele>10.2</ele>
        <time>2023-08-06T16:08:21Z</time>
      </trkpt>
      <trkpt lat="49.74744" lon="3.37211">
        <ele>10.2</ele>
        <time>2023-08-06T16:08:22Z</time>
      </trkpt>
      <trkpt lat="49.74741" lon="3.37207">
        <ele>10.2</ele>
        <time>2023-08-06T16:08:23Z</time>
      </trkpt>
      <trkpt lat="49.74739" lon="3.37203">
        <ele>10.2</ele>
        <time>2023-08-06T16:08:24Z</time>
      </trkpt>
      <trkpt lat="49.74736" lon="3.372">
        <ele>10</ele>
        <time>2023-08-06T16:08:25Z</time>
      </trkpt>
      <trkpt lat="49.74734" lon="3.37197">
        <ele>10</ele>
        <time>2023-08-06T16:08:26Z</time>
      </trkpt>
      <trkpt lat="49.74731" lon="3.37194">
        <ele>10</ele>
        <time>2023-08-06T16:08:27Z</time>
      </trkpt>
      <trkpt lat="49.74728" lon="3.37189">
        <ele>9.8</ele>
        <time>2023-08-06T16:08:28Z</time>
      </trkpt>
      <trkpt lat="49.74726" lon="3.37186">
        <ele>10</ele>
        <time>2023-08-06T16:08:29Z</time>
      </trkpt>
      <trkpt lat="49.74724" lon="3.37182">
        <ele>10</ele>
        <time>2023-08-06T16:08:30Z</time>
      </trkpt>
      <trkpt lat="49.74722" lon="3.37178">
        <ele>9.8</ele>
        <time>2023-08-06T16:08:31Z</time>
      </trkpt>
      <trkpt lat="49.74719" lon="3.37175">
        <ele>10</ele>
        <time>2023-08-06T16:08:32Z</time>
      </trkpt>
      <trkpt lat="49.74717" lon="3.37171">
        <ele>10</ele>
        <time>2023-08-06T16:08:33Z</time>
      </trkpt>
      <trkpt lat="49.74714" lon="3.37167">
        <ele>9.8</ele>
        <time>2023-08-06T16:08:34Z</time>
      </trkpt>
      <trkpt lat="49.74711" lon="3.37161">
        <ele>9.8</ele>
        <time>2023-08-06T16:08:36Z</time>
      </trkpt>
      <trkpt lat="49.74709" lon="3.37158">
        <ele>10</ele>
        <time>2023-08-06T16:08:37Z</time>
      </trkpt>
      <trkpt lat="49.74707" lon="3.37155">
        <ele>10</ele>
        <time>2023-08-06T16:08:38Z</time>
      </trkpt>
      <trkpt lat="49.74696" lon="3.37139">
        <ele>10</ele>
        <time>2023-08-06T16:08:42Z</time>
      </trkpt>
      <trkpt lat="49.74693" lon="3.37136">
        <ele>10</ele>
        <time>2023-08-06T16:08:43Z</time>
      </trkpt>
      <trkpt lat="49.74681" lon="3.37121">
        <ele>9.8</ele>
        <time>2023-08-06T16:08:47Z</time>
      </trkpt>
      <trkpt lat="49.74672" lon="3.37111">
        <ele>9.8</ele>
        <time>2023-08-06T16:08:50Z</time>
      </trkpt>
      <trkpt lat="49.74669" lon="3.37108">
        <ele>9.8</ele>
        <time>2023-08-06T16:08:51Z</time>
      </trkpt>
      <trkpt lat="49.74666" lon="3.37106">
        <ele>9.8</ele>
        <time>2023-08-06T16:08:52Z</time>
      </trkpt>
      <trkpt lat="49.74663" lon="3.37105">
        <ele>9.8</ele>
        <time>2023-08-06T16:08:53Z</time>
      </trkpt>
      <trkpt lat="49.74659" lon="3.37103">
        <ele>9.8</ele>
        <time>2023-08-06T16:08:54Z</time>
      </trkpt>
      <trkpt lat="49.74656" lon="3.37102">
        <ele>9.8</ele>
        <time>2023-08-06T16:08:55Z</time>
      </trkpt>
      <trkpt lat="49.74653" lon="3.37102">
        <ele>9.8</ele>
        <time>2023-08-06T16:08:56Z</time>
      </trkpt>
      <trkpt lat="49.7465" lon="3.37104">
        <ele>9.8</ele>
        <time>2023-08-06T16:08:57Z</time>
      </trkpt>
      <trkpt lat="49.74645" lon="3.3711">
        <ele>10</ele>
        <time>2023-08-06T16:08:59Z</time>
      </trkpt>
      <trkpt lat="49.74643" lon="3.37114">
        <ele>10</ele>
        <time>2023-08-06T16:09:00Z</time>
      </trkpt>
      <trkpt lat="49.74642" lon="3.3712">
        <ele>10</ele>
        <time>2023-08-06T16:09:01Z</time>
      </trkpt>
      <trkpt lat="49.74641" lon="3.37125">
        <ele>10</ele>
        <time>2023-08-06T16:09:02Z</time>
      </trkpt>
      <trkpt lat="49.7464" lon="3.37129">
        <ele>10.2</ele>
        <time>2023-08-06T16:09:03Z</time>
      </trkpt>
      <trkpt lat="49.74639" lon="3.37133">
        <ele>10.2</ele>
        <time>2023-08-06T16:09:04Z</time>
      </trkpt>
      <trkpt lat="49.74638" lon="3.37136">
        <ele>10.4</ele>
        <time>2023-08-06T16:09:05Z</time>
      </trkpt>
      <trkpt lat="49.74636" lon="3.37141">
        <ele>10.4</ele>
        <time>2023-08-06T16:09:06Z</time>
      </trkpt>
      <trkpt lat="49.74635" lon="3.37145">
        <ele>10.2</ele>
        <time>2023-08-06T16:09:07Z</time>
      </trkpt>
      <trkpt lat="49.74634" lon="3.3715">
        <ele>10.4</ele>
        <time>2023-08-06T16:09:08Z</time>
      </trkpt>
      <trkpt lat="49.74633" lon="3.37153">
        <ele>10.2</ele>
        <time>2023-08-06T16:09:09Z</time>
      </trkpt>
      <trkpt lat="49.74631" lon="3.37157">
        <ele>10.2</ele>
        <time>2023-08-06T16:09:10Z</time>
      </trkpt>
      <trkpt lat="49.7463" lon="3.3716">
        <ele>10.2</ele>
        <time>2023-08-06T16:09:11Z</time>
      </trkpt>
      <trkpt lat="49.74629" lon="3.37165">
        <ele>10.2</ele>
        <time>2023-08-06T16:09:12Z</time>
      </trkpt>
      <trkpt lat="49.74627" lon="3.37169">
        <ele>10.2</ele>
        <time>2023-08-06T16:09:13Z</time>
      </trkpt>
      <trkpt lat="49.74626" lon="3.37172">
        <ele>10.2</ele>
        <time>2023-08-06T16:09:14Z</time>
      </trkpt>
      <trkpt lat="49.74624" lon="3.37175">
        <ele>10.2</ele>
        <time>2023-08-06T16:09:15Z</time>
      </trkpt>
      <trkpt lat="49.74621" lon="3.37178">
        <ele>10.2</ele>
        <time>2023-08-06T16:09:16Z</time>
      </trkpt>
      <trkpt lat="49.74618" lon="3.37181">
        <ele>10.2</ele>
        <time>2023-08-06T16:09:17Z</time>
      </trkpt>
      <trkpt lat="49.74612" lon="3.37185">
        <ele>10.2</ele>
        <time>2023-08-06T16:09:19Z</time>
      </trkpt>
      <trkpt lat="49.7461" lon="3.37187">
        <ele>10.2</ele>
        <time>2023-08-06T16:09:20Z</time>
      </trkpt>
      <trkpt lat="49.74588" lon="3.37207">
        <ele>10.4</ele>
        <time>2023-08-06T16:09:27Z</time>
      </trkpt>
      <trkpt lat="49.74566" lon="3.3722">
        <ele>10</ele>
        <time>2023-08-06T16:09:33Z</time>
      </trkpt>
      <trkpt lat="49.74549" lon="3.37224">
        <ele>9.6</ele>
        <time>2023-08-06T16:09:38Z</time>
      </trkpt>
      <trkpt lat="49.74546" lon="3.37224">
        <ele>9.6</ele>
        <time>2023-08-06T16:09:39Z</time>
      </trkpt>
      <trkpt lat="49.74543" lon="3.37223">
        <ele>9.6</ele>
        <time>2023-08-06T16:09:40Z</time>
      </trkpt>
      <trkpt lat="49.7454" lon="3.37223">
        <ele>9.6</ele>
        <time>2023-08-06T16:09:41Z</time>
      </trkpt>
      <trkpt lat="49.74537" lon="3.37222">
        <ele>9.6</ele>
        <time>2023-08-06T16:09:42Z</time>
      </trkpt>
      <trkpt lat="49.7453" lon="3.37217">
        <ele>9.6</ele>
        <time>2023-08-06T16:09:44Z</time>
      </trkpt>
      <trkpt lat="49.74528" lon="3.37214">
        <ele>9.6</ele>
        <time>2023-08-06T16:09:45Z</time>
      </trkpt>
      <trkpt lat="49.74526" lon="3.37211">
        <ele>9.8</ele>
        <time>2023-08-06T16:09:46Z</time>
      </trkpt>
      <trkpt lat="49.74524" lon="3.37208">
        <ele>9.8</ele>
        <time>2023-08-06T16:09:47Z</time>
      </trkpt>
      <trkpt lat="49.74523" lon="3.37205">
        <ele>10</ele>
        <time>2023-08-06T16:09:48Z</time>
      </trkpt>
      <trkpt lat="49.74521" lon="3.372">
        <ele>10</ele>
        <time>2023-08-06T16:09:49Z</time>
      </trkpt>
      <trkpt lat="49.74519" lon="3.37196">
        <ele>10.2</ele>
        <time>2023-08-06T16:09:50Z</time>
      </trkpt>
      <trkpt lat="49.74518" lon="3.37194">
        <ele>10.2</ele>
        <time>2023-08-06T16:09:51Z</time>
      </trkpt>
      <trkpt lat="49.74516" lon="3.3719">
        <ele>10.2</ele>
        <time>2023-08-06T16:09:52Z</time>
      </trkpt>
      <trkpt lat="49.74514" lon="3.37185">
        <ele>10.2</ele>
        <time>2023-08-06T16:09:53Z</time>
      </trkpt>
      <trkpt lat="49.74512" lon="3.37181">
        <ele>10.2</ele>
        <time>2023-08-06T16:09:54Z</time>
      </trkpt>
      <trkpt lat="49.74499" lon="3.37169">
        <ele>10.2</ele>
        <time>2023-08-06T16:09:58Z</time>
      </trkpt>
      <trkpt lat="49.74487" lon="3.37166">
        <ele>10.2</ele>
        <time>2023-08-06T16:10:01Z</time>
      </trkpt>
      <trkpt lat="49.74484" lon="3.37166">
        <ele>10.2</ele>
        <time>2023-08-06T16:10:02Z</time>
      </trkpt>
      <trkpt lat="49.74476" lon="3.37168">
        <ele>10.2</ele>
        <time>2023-08-06T16:10:04Z</time>
      </trkpt>
      <trkpt lat="49.74463" lon="3.37172">
        <ele>10.2</ele>
        <time>2023-08-06T16:10:08Z</time>
      </trkpt>
      <trkpt lat="49.74452" lon="3.37176">
        <ele>10.2</ele>
        <time>2023-08-06T16:10:11Z</time>
      </trkpt>
      <trkpt lat="49.74446" lon="3.3718">
        <ele>10.2</ele>
        <time>2023-08-06T16:10:13Z</time>
      </trkpt>
      <trkpt lat="49.74443" lon="3.37183">
        <ele>10.2</ele>
        <time>2023-08-06T16:10:14Z</time>
      </trkpt>
      <trkpt lat="49.74439" lon="3.37185">
        <ele>10.2</ele>
        <time>2023-08-06T16:10:15Z</time>
      </trkpt>
      <trkpt lat="49.74436" lon="3.37187">
        <ele>10.2</ele>
        <time>2023-08-06T16:10:16Z</time>
      </trkpt>
      <trkpt lat="49.74434" lon="3.37188">
        <ele>10.2</ele>
        <time>2023-08-06T16:10:17Z</time>
      </trkpt>
      <trkpt lat="49.74431" lon="3.3719">
        <ele>10.2</ele>
        <time>2023-08-06T16:10:18Z</time>
      </trkpt>
      <trkpt lat="49.74412" lon="3.37205">
        <ele>10.2</ele>
        <time>2023-08-06T16:10:24Z</time>
      </trkpt>
      <trkpt lat="49.74409" lon="3.37209">
        <ele>10.2</ele>
        <time>2023-08-06T16:10:25Z</time>
      </trkpt>
      <trkpt lat="49.74398" lon="3.37222">
        <ele>10.2</ele>
        <time>2023-08-06T16:10:29Z</time>
      </trkpt>
      <trkpt lat="49.7437" lon="3.37237">
        <ele>10</ele>
        <time>2023-08-06T16:10:36Z</time>
      </trkpt>
      <trkpt lat="49.74348" lon="3.37239">
        <ele>10</ele>
        <time>2023-08-06T16:10:42Z</time>
      </trkpt>
      <trkpt lat="49.74341" lon="3.37238">
        <ele>10</ele>
        <time>2023-08-06T16:10:44Z</time>
      </trkpt>
      <trkpt lat="49.74338" lon="3.37238">
        <ele>10</ele>
        <time>2023-08-06T16:10:45Z</time>
      </trkpt>
      <trkpt lat="49.74335" lon="3.37237">
        <ele>10.2</ele>
        <time>2023-08-06T16:10:46Z</time>
      </trkpt>
      <trkpt lat="49.74332" lon="3.37235">
        <ele>10.4</ele>
        <time>2023-08-06T16:10:47Z</time>
      </trkpt>
      <trkpt lat="49.74329" lon="3.3723">
        <ele>10.4</ele>
        <time>2023-08-06T16:10:48Z</time>
      </trkpt>
      <trkpt lat="49.74328" lon="3.37226">
        <ele>10.4</ele>
        <time>2023-08-06T16:10:49Z</time>
      </trkpt>
      <trkpt lat="49.74327" lon="3.37221">
        <ele>10.2</ele>
        <time>2023-08-06T16:10:50Z</time>
      </trkpt>
      <trkpt lat="49.74327" lon="3.37216">
        <ele>10</ele>
        <time>2023-08-06T16:10:51Z</time>
      </trkpt>
      <trkpt lat="49.74327" lon="3.37211">
        <ele>10</ele>
        <time>2023-08-06T16:10:52Z</time>
      </trkpt>
      <trkpt lat="49.74328" lon="3.37204">
        <ele>10</ele>
        <time>2023-08-06T16:10:53Z</time>
      </trkpt>
      <trkpt lat="49.74332" lon="3.37174">
        <ele>10.2</ele>
        <time>2023-08-06T16:10:59Z</time>
      </trkpt>
      <trkpt lat="49.7433" lon="3.3717">
        <ele>10.2</ele>
        <time>2023-08-06T16:11:00Z</time>
      </trkpt>
      <trkpt lat="49.74329" lon="3.37168">
        <ele>10.4</ele>
        <time>2023-08-06T16:11:01Z</time>
      </trkpt>
      <trkpt lat="49.74327" lon="3.37166">
        <ele>10.6</ele>
        <time>2023-08-06T16:11:02Z</time>
      </trkpt>
      <trkpt lat="49.74324" lon="3.37166">
        <ele>10.6</ele>
        <time>2023-08-06T16:11:03Z</time>
      </trkpt>
      <trkpt lat="49.74321" lon="3.37166">
        <ele>10.8</ele>
        <time>2023-08-06T16:11:04Z</time>
      </trkpt>
      <trkpt lat="49.74318" lon="3.37166">
        <ele>11</ele>
        <time>2023-08-06T16:11:05Z</time>
      </trkpt>
      <trkpt lat="49.74312" lon="3.37165">
        <ele>11</ele>
        <time>2023-08-06T16:11:07Z</time>
      </trkpt>
      <trkpt lat="49.74302" lon="3.37165">
        <ele>11.2</ele>
        <time>2023-08-06T16:11:10Z</time>
      </trkpt>
      <trkpt lat="49.74285" lon="3.3717">
        <ele>11.2</ele>
        <time>2023-08-06T16:11:15Z</time>
      </trkpt>
      <trkpt lat="49.74282" lon="3.37174">
        <ele>11.2</ele>
        <time>2023-08-06T16:11:16Z</time>
      </trkpt>
      <trkpt lat="49.7428" lon="3.37176">
        <ele>11.2</ele>
        <time>2023-08-06T16:11:17Z</time>
      </trkpt>
      <trkpt lat="49.74278" lon="3.37179">
        <ele>11.2</ele>
        <time>2023-08-06T16:11:18Z</time>
      </trkpt>
      <trkpt lat="49.74273" lon="3.37188">
        <ele>11.2</ele>
        <time>2023-08-06T16:11:20Z</time>
      </trkpt>
      <trkpt lat="49.74272" lon="3.37191">
        <ele>11</ele>
        <time>2023-08-06T16:11:21Z</time>
      </trkpt>
      <trkpt lat="49.74272" lon="3.37196">
        <ele>11</ele>
        <time>2023-08-06T16:11:22Z</time>
      </trkpt>
      <trkpt lat="49.74271" lon="3.372">
        <ele>11</ele>
        <time>2023-08-06T16:11:23Z</time>
      </trkpt>
      <trkpt lat="49.7427" lon="3.37204">
        <ele>11</ele>
        <time>2023-08-06T16:11:24Z</time>
      </trkpt>
      <trkpt lat="49.74269" lon="3.37208">
        <ele>11</ele>
        <time>2023-08-06T16:11:25Z</time>
      </trkpt>
      <trkpt lat="49.74268" lon="3.37212">
        <ele>11</ele>
        <time>2023-08-06T16:11:26Z</time>
      </trkpt>
      <trkpt lat="49.74268" lon="3.37216">
        <ele>11</ele>
        <time>2023-08-06T16:11:27Z</time>
      </trkpt>
      <trkpt lat="49.74267" lon="3.37219">
        <ele>11</ele>
        <time>2023-08-06T16:11:28Z</time>
      </trkpt>
      <trkpt lat="49.74266" lon="3.37224">
        <ele>11.2</ele>
        <time>2023-08-06T16:11:29Z</time>
      </trkpt>
      <trkpt lat="49.74266" lon="3.37228">
        <ele>11.2</ele>
        <time>2023-08-06T16:11:30Z</time>
      </trkpt>
      <trkpt lat="49.74264" lon="3.37232">
        <ele>11.2</ele>
        <time>2023-08-06T16:11:31Z</time>
      </trkpt>
      <trkpt lat="49.74264" lon="3.37235">
        <ele>11.4</ele>
        <time>2023-08-06T16:11:32Z</time>
      </trkpt>
      <trkpt lat="49.74262" lon="3.37238">
        <ele>11.4</ele>
        <time>2023-08-06T16:11:33Z</time>
      </trkpt>
      <trkpt lat="49.74262" lon="3.3724">
        <ele>11.6</ele>
        <time>2023-08-06T16:11:34Z</time>
      </trkpt>
      <trkpt lat="49.74261" lon="3.37243">
        <ele>11.6</ele>
        <time>2023-08-06T16:11:35Z</time>
      </trkpt>
      <trkpt lat="49.7426" lon="3.37246">
        <ele>11.8</ele>
        <time>2023-08-06T16:11:36Z</time>
      </trkpt>
      <trkpt lat="49.7426" lon="3.37249">
        <ele>12</ele>
        <time>2023-08-06T16:11:37Z</time>
      </trkpt>
      <trkpt lat="49.7426" lon="3.37252">
        <ele>12.4</ele>
        <time>2023-08-06T16:11:38Z</time>
      </trkpt>
      <trkpt lat="49.74259" lon="3.37255">
        <ele>12.4</ele>
        <time>2023-08-06T16:11:39Z</time>
      </trkpt>
      <trkpt lat="49.74259" lon="3.37257">
        <ele>12.8</ele>
        <time>2023-08-06T16:11:40Z</time>
      </trkpt>
      <trkpt lat="49.74258" lon="3.3726">
        <ele>12.8</ele>
        <time>2023-08-06T16:11:41Z</time>
      </trkpt>
      <trkpt lat="49.74257" lon="3.37263">
        <ele>13</ele>
        <time>2023-08-06T16:11:42Z</time>
      </trkpt>
      <trkpt lat="49.74257" lon="3.37266">
        <ele>13.2</ele>
        <time>2023-08-06T16:11:43Z</time>
      </trkpt>
      <trkpt lat="49.74256" lon="3.37269">
        <ele>13.4</ele>
        <time>2023-08-06T16:11:44Z</time>
      </trkpt>
      <trkpt lat="49.74256" lon="3.37272">
        <ele>13.6</ele>
        <time>2023-08-06T16:11:45Z</time>
      </trkpt>
      <trkpt lat="49.74256" lon="3.37273">
        <ele>13.8</ele>
        <time>2023-08-06T16:11:46Z</time>
      </trkpt>
      <trkpt lat="49.74257" lon="3.37272">
        <ele>14</ele>
        <time>2023-08-06T16:11:47Z</time>
      </trkpt>
      <trkpt lat="49.74258" lon="3.37271">
        <ele>14</ele>
        <time>2023-08-06T16:11:48Z</time>
      </trkpt>
      <trkpt lat="49.74258" lon="3.37268">
        <ele>14</ele>
        <time>2023-08-06T16:11:49Z</time>
      </trkpt>
      <trkpt lat="49.74259" lon="3.37265">
        <ele>14.2</ele>
        <time>2023-08-06T16:11:50Z</time>
      </trkpt>
      <trkpt lat="49.74259" lon="3.37261">
        <ele>14.2</ele>
        <time>2023-08-06T16:11:51Z</time>
      </trkpt>
      <trkpt lat="49.74259" lon="3.37257">
        <ele>14.2</ele>
        <time>2023-08-06T16:11:52Z</time>
      </trkpt>
      <trkpt lat="49.74259" lon="3.37253">
        <ele>14.2</ele>
        <time>2023-08-06T16:11:53Z</time>
      </trkpt>
      <trkpt lat="49.74257" lon="3.3725">
        <ele>14.4</ele>
        <time>2023-08-06T16:11:54Z</time>
      </trkpt>
      <trkpt lat="49.74254" lon="3.37248">
        <ele>14.4</ele>
        <time>2023-08-06T16:11:55Z</time>
      </trkpt>
      <trkpt lat="49.7425" lon="3.37247">
        <ele>14.4</ele>
        <time>2023-08-06T16:11:56Z</time>
      </trkpt>
      <trkpt lat="49.74246" lon="3.37245">
        <ele>14.6</ele>
        <time>2023-08-06T16:11:57Z</time>
      </trkpt>
      <trkpt lat="49.74243" lon="3.37244">
        <ele>14.6</ele>
        <time>2023-08-06T16:11:58Z</time>
      </trkpt>
      <trkpt lat="49.74239" lon="3.37242">
        <ele>14.2</ele>
        <time>2023-08-06T16:11:59Z</time>
      </trkpt>
      <trkpt lat="49.74236" lon="3.37241">
        <ele>14.2</ele>
        <time>2023-08-06T16:12:00Z</time>
      </trkpt>
      <trkpt lat="49.74233" lon="3.3724">
        <ele>14</ele>
        <time>2023-08-06T16:12:01Z</time>
      </trkpt>
      <trkpt lat="49.7423" lon="3.37239">
        <ele>13.8</ele>
        <time>2023-08-06T16:12:02Z</time>
      </trkpt>
      <trkpt lat="49.74227" lon="3.37239">
        <ele>13.4</ele>
        <time>2023-08-06T16:12:03Z</time>
      </trkpt>
      <trkpt lat="49.74217" lon="3.37236">
        <ele>12.8</ele>
        <time>2023-08-06T16:12:06Z</time>
      </trkpt>
      <trkpt lat="49.74214" lon="3.37235">
        <ele>12.6</ele>
        <time>2023-08-06T16:12:07Z</time>
      </trkpt>
      <trkpt lat="49.74211" lon="3.37233">
        <ele>12.4</ele>
        <time>2023-08-06T16:12:08Z</time>
      </trkpt>
      <trkpt lat="49.74208" lon="3.37231">
        <ele>12.2</ele>
        <time>2023-08-06T16:12:09Z</time>
      </trkpt>
      <trkpt lat="49.74205" lon="3.3723">
        <ele>12</ele>
        <time>2023-08-06T16:12:10Z</time>
      </trkpt>
      <trkpt lat="49.74187" lon="3.37221">
        <ele>11.4</ele>
        <time>2023-08-06T16:12:15Z</time>
      </trkpt>
      <trkpt lat="49.74184" lon="3.37219">
        <ele>11.4</ele>
        <time>2023-08-06T16:12:16Z</time>
      </trkpt>
      <trkpt lat="49.74156" lon="3.37203">
        <ele>11.4</ele>
        <time>2023-08-06T16:12:23Z</time>
      </trkpt>
      <trkpt lat="49.74122" lon="3.37182">
        <ele>11.2</ele>
        <time>2023-08-06T16:12:31Z</time>
      </trkpt>
      <trkpt lat="49.74096" lon="3.37167">
        <ele>11.2</ele>
        <time>2023-08-06T16:12:37Z</time>
      </trkpt>
      <trkpt lat="49.74092" lon="3.37165">
        <ele>11.2</ele>
        <time>2023-08-06T16:12:38Z</time>
      </trkpt>
      <trkpt lat="49.74088" lon="3.37162">
        <ele>11.2</ele>
        <time>2023-08-06T16:12:39Z</time>
      </trkpt>
      <trkpt lat="49.74084" lon="3.37159">
        <ele>11.2</ele>
        <time>2023-08-06T16:12:40Z</time>
      </trkpt>
      <trkpt lat="49.7408" lon="3.37157">
        <ele>11.2</ele>
        <time>2023-08-06T16:12:41Z</time>
      </trkpt>
      <trkpt lat="49.74076" lon="3.37154">
        <ele>11.4</ele>
        <time>2023-08-06T16:12:42Z</time>
      </trkpt>
      <trkpt lat="49.74068" lon="3.37149">
        <ele>11.4</ele>
        <time>2023-08-06T16:12:44Z</time>
      </trkpt>
      <trkpt lat="49.74055" lon="3.37141">
        <ele>11.4</ele>
        <time>2023-08-06T16:12:47Z</time>
      </trkpt>
      <trkpt lat="49.74017" lon="3.37116">
        <ele>11.6</ele>
        <time>2023-08-06T16:12:56Z</time>
      </trkpt>
      <trkpt lat="49.73999" lon="3.37105">
        <ele>11.6</ele>
        <time>2023-08-06T16:13:00Z</time>
      </trkpt>
      <trkpt lat="49.73991" lon="3.37099">
        <ele>11.4</ele>
        <time>2023-08-06T16:13:02Z</time>
      </trkpt>
      <trkpt lat="49.73967" lon="3.37086">
        <ele>11.4</ele>
        <time>2023-08-06T16:13:07Z</time>
      </trkpt>
      <trkpt lat="49.73958" lon="3.3708">
        <ele>11.4</ele>
        <time>2023-08-06T16:13:09Z</time>
      </trkpt>
      <trkpt lat="49.73911" lon="3.3705">
        <ele>11.4</ele>
        <time>2023-08-06T16:13:19Z</time>
      </trkpt>
      <trkpt lat="49.73878" lon="3.3703">
        <ele>11.4</ele>
        <time>2023-08-06T16:13:26Z</time>
      </trkpt>
      <trkpt lat="49.73869" lon="3.37025">
        <ele>11.4</ele>
        <time>2023-08-06T16:13:28Z</time>
      </trkpt>
      <trkpt lat="49.73835" lon="3.37005">
        <ele>11.6</ele>
        <time>2023-08-06T16:13:35Z</time>
      </trkpt>
      <trkpt lat="49.73797" lon="3.36983">
        <ele>11.6</ele>
        <time>2023-08-06T16:13:43Z</time>
      </trkpt>
      <trkpt lat="49.73792" lon="3.3698">
        <ele>11.6</ele>
        <time>2023-08-06T16:13:44Z</time>
      </trkpt>
      <trkpt lat="49.73764" lon="3.36963">
        <ele>11.6</ele>
        <time>2023-08-06T16:13:50Z</time>
      </trkpt>
      <trkpt lat="49.73759" lon="3.3696">
        <ele>11.8</ele>
        <time>2023-08-06T16:13:51Z</time>
      </trkpt>
      <trkpt lat="49.73755" lon="3.36957">
        <ele>11.8</ele>
        <time>2023-08-06T16:13:52Z</time>
      </trkpt>
      <trkpt lat="49.7375" lon="3.36955">
        <ele>11.8</ele>
        <time>2023-08-06T16:13:53Z</time>
      </trkpt>
      <trkpt lat="49.73746" lon="3.36953">
        <ele>11.8</ele>
        <time>2023-08-06T16:13:54Z</time>
      </trkpt>
      <trkpt lat="49.73741" lon="3.36952">
        <ele>11.8</ele>
        <time>2023-08-06T16:13:55Z</time>
      </trkpt>
      <trkpt lat="49.73737" lon="3.3695">
        <ele>11.8</ele>
        <time>2023-08-06T16:13:56Z</time>
      </trkpt>
      <trkpt lat="49.73733" lon="3.36947">
        <ele>12</ele>
        <time>2023-08-06T16:13:57Z</time>
      </trkpt>
      <trkpt lat="49.73723" lon="3.36942">
        <ele>12</ele>
        <time>2023-08-06T16:13:59Z</time>
      </trkpt>
      <trkpt lat="49.73713" lon="3.36937">
        <ele>11.8</ele>
        <time>2023-08-06T16:14:01Z</time>
      </trkpt>
      <trkpt lat="49.73708" lon="3.36934">
        <ele>12</ele>
        <time>2023-08-06T16:14:02Z</time>
      </trkpt>
      <trkpt lat="49.7369" lon="3.36923">
        <ele>11.8</ele>
        <time>2023-08-06T16:14:06Z</time>
      </trkpt>
      <trkpt lat="49.73647" lon="3.36892">
        <ele>11.6</ele>
        <time>2023-08-06T16:14:15Z</time>
      </trkpt>
      <trkpt lat="49.73603" lon="3.36863">
        <ele>11.6</ele>
        <time>2023-08-06T16:14:24Z</time>
      </trkpt>
      <trkpt lat="49.73563" lon="3.36841">
        <ele>11.2</ele>
        <time>2023-08-06T16:14:32Z</time>
      </trkpt>
      <trkpt lat="49.73538" lon="3.36826">
        <ele>11</ele>
        <time>2023-08-06T16:14:37Z</time>
      </trkpt>
      <trkpt lat="49.73528" lon="3.36821">
        <ele>11</ele>
        <time>2023-08-06T16:14:39Z</time>
      </trkpt>
      <trkpt lat="49.73523" lon="3.36818">
        <ele>11</ele>
        <time>2023-08-06T16:14:40Z</time>
      </trkpt>
      <trkpt lat="49.73519" lon="3.36815">
        <ele>11</ele>
        <time>2023-08-06T16:14:41Z</time>
      </trkpt>
      <trkpt lat="49.73514" lon="3.36812">
        <ele>11</ele>
        <time>2023-08-06T16:14:42Z</time>
      </trkpt>
      <trkpt lat="49.73509" lon="3.36809">
        <ele>11</ele>
        <time>2023-08-06T16:14:43Z</time>
      </trkpt>
      <trkpt lat="49.73505" lon="3.36806">
        <ele>11</ele>
        <time>2023-08-06T16:14:44Z</time>
      </trkpt>
      <trkpt lat="49.73481" lon="3.36792">
        <ele>10.8</ele>
        <time>2023-08-06T16:14:49Z</time>
      </trkpt>
      <trkpt lat="49.73437" lon="3.36766">
        <ele>10.8</ele>
        <time>2023-08-06T16:14:58Z</time>
      </trkpt>
      <trkpt lat="49.73432" lon="3.36763">
        <ele>10.8</ele>
        <time>2023-08-06T16:14:59Z</time>
      </trkpt>
      <trkpt lat="49.73376" lon="3.36729">
        <ele>10.8</ele>
        <time>2023-08-06T16:15:10Z</time>
      </trkpt>
      <trkpt lat="49.73345" lon="3.3671">
        <ele>10.8</ele>
        <time>2023-08-06T16:15:16Z</time>
      </trkpt>
      <trkpt lat="49.7334" lon="3.36707">
        <ele>10.8</ele>
        <time>2023-08-06T16:15:17Z</time>
      </trkpt>
      <trkpt lat="49.73331" lon="3.36702">
        <ele>10.6</ele>
        <time>2023-08-06T16:15:19Z</time>
      </trkpt>
      <trkpt lat="49.73322" lon="3.36697">
        <ele>10.6</ele>
        <time>2023-08-06T16:15:21Z</time>
      </trkpt>
      <trkpt lat="49.73317" lon="3.36694">
        <ele>10.6</ele>
        <time>2023-08-06T16:15:22Z</time>
      </trkpt>
      <trkpt lat="49.73312" lon="3.36691">
        <ele>10.6</ele>
        <time>2023-08-06T16:15:23Z</time>
      </trkpt>
      <trkpt lat="49.73308" lon="3.36689">
        <ele>10.6</ele>
        <time>2023-08-06T16:15:24Z</time>
      </trkpt>
      <trkpt lat="49.73304" lon="3.36685">
        <ele>10.6</ele>
        <time>2023-08-06T16:15:25Z</time>
      </trkpt>
      <trkpt lat="49.73298" lon="3.36682">
        <ele>10.4</ele>
        <time>2023-08-06T16:15:26Z</time>
      </trkpt>
      <trkpt lat="49.73293" lon="3.36679">
        <ele>10.4</ele>
        <time>2023-08-06T16:15:27Z</time>
      </trkpt>
      <trkpt lat="49.73288" lon="3.36677">
        <ele>10.4</ele>
        <time>2023-08-06T16:15:28Z</time>
      </trkpt>
      <trkpt lat="49.73268" lon="3.36664">
        <ele>10.4</ele>
        <time>2023-08-06T16:15:32Z</time>
      </trkpt>
      <trkpt lat="49.73231" lon="3.36642">
        <ele>10.4</ele>
        <time>2023-08-06T16:15:40Z</time>
      </trkpt>
      <trkpt lat="49.73226" lon="3.36639">
        <ele>10.4</ele>
        <time>2023-08-06T16:15:41Z</time>
      </trkpt>
      <trkpt lat="49.7322" lon="3.36635">
        <ele>10.4</ele>
        <time>2023-08-06T16:15:42Z</time>
      </trkpt>
      <trkpt lat="49.73216" lon="3.36632">
        <ele>10.4</ele>
        <time>2023-08-06T16:15:43Z</time>
      </trkpt>
      <trkpt lat="49.73211" lon="3.36629">
        <ele>10.4</ele>
        <time>2023-08-06T16:15:44Z</time>
      </trkpt>
      <trkpt lat="49.73207" lon="3.36627">
        <ele>10.6</ele>
        <time>2023-08-06T16:15:45Z</time>
      </trkpt>
      <trkpt lat="49.73202" lon="3.36624">
        <ele>10.6</ele>
        <time>2023-08-06T16:15:46Z</time>
      </trkpt>
      <trkpt lat="49.7319" lon="3.36617">
        <ele>10.6</ele>
        <time>2023-08-06T16:15:48Z</time>
      </trkpt>
      <trkpt lat="49.73143" lon="3.36589">
        <ele>10.6</ele>
        <time>2023-08-06T16:15:57Z</time>
      </trkpt>
      <trkpt lat="49.73101" lon="3.36564">
        <ele>10.4</ele>
        <time>2023-08-06T16:16:05Z</time>
      </trkpt>
      <trkpt lat="49.73064" lon="3.3654">
        <ele>10.4</ele>
        <time>2023-08-06T16:16:12Z</time>
      </trkpt>
      <trkpt lat="49.7306" lon="3.36538">
        <ele>10.4</ele>
        <time>2023-08-06T16:16:13Z</time>
      </trkpt>
      <trkpt lat="49.73055" lon="3.36535">
        <ele>10.4</ele>
        <time>2023-08-06T16:16:14Z</time>
      </trkpt>
      <trkpt lat="49.7305" lon="3.36532">
        <ele>10.2</ele>
        <time>2023-08-06T16:16:15Z</time>
      </trkpt>
      <trkpt lat="49.73045" lon="3.36529">
        <ele>10.2</ele>
        <time>2023-08-06T16:16:16Z</time>
      </trkpt>
      <trkpt lat="49.73041" lon="3.36527">
        <ele>10.2</ele>
        <time>2023-08-06T16:16:17Z</time>
      </trkpt>
      <trkpt lat="49.73038" lon="3.36525">
        <ele>10.2</ele>
        <time>2023-08-06T16:16:18Z</time>
      </trkpt>
      <trkpt lat="49.73036" lon="3.36524">
        <ele>10.2</ele>
        <time>2023-08-06T16:16:19Z</time>
      </trkpt>
      <trkpt lat="49.73033" lon="3.36522">
        <ele>10.2</ele>
        <time>2023-08-06T16:16:20Z</time>
      </trkpt>
      <trkpt lat="49.73032" lon="3.36521">
        <ele>10</ele>
        <time>2023-08-06T16:16:21Z</time>
      </trkpt>
      <trkpt lat="49.7303" lon="3.36521">
        <ele>10</ele>
        <time>2023-08-06T16:16:22Z</time>
      </trkpt>
      <trkpt lat="49.73029" lon="3.3652">
        <ele>10</ele>
        <time>2023-08-06T16:16:23Z</time>
      </trkpt>
      <trkpt lat="49.73028" lon="3.36518">
        <ele>9.8</ele>
        <time>2023-08-06T16:16:24Z</time>
      </trkpt>
      <trkpt lat="49.73027" lon="3.36518">
        <ele>9.8</ele>
        <time>2023-08-06T16:16:25Z</time>
      </trkpt>
      <trkpt lat="49.73025" lon="3.36517">
        <ele>9.8</ele>
        <time>2023-08-06T16:16:27Z</time>
      </trkpt>
      <trkpt lat="49.73024" lon="3.36516">
        <ele>9.8</ele>
        <time>2023-08-06T16:16:28Z</time>
      </trkpt>
      <trkpt lat="49.73023" lon="3.36515">
        <ele>9.8</ele>
        <time>2023-08-06T16:16:29Z</time>
      </trkpt>
      <trkpt lat="49.73022" lon="3.36515">
        <ele>9.6</ele>
        <time>2023-08-06T16:16:30Z</time>
      </trkpt>
      <trkpt lat="49.73021" lon="3.36515">
        <ele>9.6</ele>
        <time>2023-08-06T16:16:31Z</time>
      </trkpt>
      <trkpt lat="49.7302" lon="3.36514">
        <ele>9.6</ele>
        <time>2023-08-06T16:16:32Z</time>
      </trkpt>
      <trkpt lat="49.73018" lon="3.36513">
        <ele>9.6</ele>
        <time>2023-08-06T16:16:33Z</time>
      </trkpt>
      <trkpt lat="49.73014" lon="3.3651">
        <ele>9.4</ele>
        <time>2023-08-06T16:16:35Z</time>
      </trkpt>
      <trkpt lat="49.73012" lon="3.36509">
        <ele>9.4</ele>
        <time>2023-08-06T16:16:36Z</time>
      </trkpt>
      <trkpt lat="49.72996" lon="3.36501">
        <ele>9</ele>
        <time>2023-08-06T16:16:41Z</time>
      </trkpt>
      <trkpt lat="49.72968" lon="3.36484">
        <ele>9.2</ele>
        <time>2023-08-06T16:16:48Z</time>
      </trkpt>
      <trkpt lat="49.7295" lon="3.36475">
        <ele>9</ele>
        <time>2023-08-06T16:16:52Z</time>
      </trkpt>
      <trkpt lat="49.72941" lon="3.3647">
        <ele>9</ele>
        <time>2023-08-06T16:16:54Z</time>
      </trkpt>
      <trkpt lat="49.72933" lon="3.36465">
        <ele>9</ele>
        <time>2023-08-06T16:16:56Z</time>
      </trkpt>
      <trkpt lat="49.72916" lon="3.36457">
        <ele>9.2</ele>
        <time>2023-08-06T16:17:00Z</time>
      </trkpt>
      <trkpt lat="49.72911" lon="3.36456">
        <ele>9.2</ele>
        <time>2023-08-06T16:17:01Z</time>
      </trkpt>
      <trkpt lat="49.72907" lon="3.36454">
        <ele>9.2</ele>
        <time>2023-08-06T16:17:02Z</time>
      </trkpt>
      <trkpt lat="49.72874" lon="3.36448">
        <ele>9.4</ele>
        <time>2023-08-06T16:17:09Z</time>
      </trkpt>
      <trkpt lat="49.72864" lon="3.36448">
        <ele>9.4</ele>
        <time>2023-08-06T16:17:11Z</time>
      </trkpt>
      <trkpt lat="49.7282" lon="3.36452">
        <ele>9</ele>
        <time>2023-08-06T16:17:20Z</time>
      </trkpt>
      <trkpt lat="49.72799" lon="3.36455">
        <ele>9</ele>
        <time>2023-08-06T16:17:24Z</time>
      </trkpt>
      <trkpt lat="49.72784" lon="3.36458">
        <ele>9</ele>
        <time>2023-08-06T16:17:27Z</time>
      </trkpt>
      <trkpt lat="49.72749" lon="3.36465">
        <ele>9.2</ele>
        <time>2023-08-06T16:17:34Z</time>
      </trkpt>
      <trkpt lat="49.72744" lon="3.36466">
        <ele>9</ele>
        <time>2023-08-06T16:17:35Z</time>
      </trkpt>
      <trkpt lat="49.72739" lon="3.36467">
        <ele>9</ele>
        <time>2023-08-06T16:17:36Z</time>
      </trkpt>
      <trkpt lat="49.72734" lon="3.36468">
        <ele>9</ele>
        <time>2023-08-06T16:17:37Z</time>
      </trkpt>
      <trkpt lat="49.7273" lon="3.3647">
        <ele>9</ele>
        <time>2023-08-06T16:17:38Z</time>
      </trkpt>
      <trkpt lat="49.72693" lon="3.36477">
        <ele>9</ele>
        <time>2023-08-06T16:17:45Z</time>
      </trkpt>
      <trkpt lat="49.72649" lon="3.36487">
        <ele>8.6</ele>
        <time>2023-08-06T16:17:53Z</time>
      </trkpt>
      <trkpt lat="49.72598" lon="3.36497">
        <ele>8.2</ele>
        <time>2023-08-06T16:18:02Z</time>
      </trkpt>
      <trkpt lat="49.72563" lon="3.36504">
        <ele>8</ele>
        <time>2023-08-06T16:18:08Z</time>
      </trkpt>
      <trkpt lat="49.72503" lon="3.36516">
        <ele>8.4</ele>
        <time>2023-08-06T16:18:17Z</time>
      </trkpt>
      <trkpt lat="49.72497" lon="3.36517">
        <ele>8.6</ele>
        <time>2023-08-06T16:18:19Z</time>
      </trkpt>
      <trkpt lat="49.7248" lon="3.3652">
        <ele>8.8</ele>
        <time>2023-08-06T16:18:22Z</time>
      </trkpt>
      <trkpt lat="49.72468" lon="3.36522">
        <ele>8.8</ele>
        <time>2023-08-06T16:18:23Z</time>
      </trkpt>
      <trkpt lat="49.72468" lon="3.36522">
        <ele>8.8</ele>
        <time>2023-08-06T16:18:24Z</time>
      </trkpt>
      <trkpt lat="49.72457" lon="3.36524">
        <ele>9</ele>
        <time>2023-08-06T16:18:25Z</time>
      </trkpt>
      <trkpt lat="49.72457" lon="3.36524">
        <ele>9</ele>
        <time>2023-08-06T16:18:26Z</time>
      </trkpt>
      <trkpt lat="49.72451" lon="3.36525">
        <ele>9</ele>
        <time>2023-08-06T16:18:27Z</time>
      </trkpt>
      <trkpt lat="49.7244" lon="3.36527">
        <ele>9</ele>
        <time>2023-08-06T16:18:29Z</time>
      </trkpt>
      <trkpt lat="49.72435" lon="3.36529">
        <ele>9</ele>
        <time>2023-08-06T16:18:30Z</time>
      </trkpt>
      <trkpt lat="49.72429" lon="3.3653">
        <ele>9</ele>
        <time>2023-08-06T16:18:31Z</time>
      </trkpt>
      <trkpt lat="49.72396" lon="3.36536">
        <ele>8.8</ele>
        <time>2023-08-06T16:18:36Z</time>
      </trkpt>
      <trkpt lat="49.72351" lon="3.36544">
        <ele>8.6</ele>
        <time>2023-08-06T16:18:45Z</time>
      </trkpt>
      <trkpt lat="49.72334" lon="3.36547">
        <ele>8.4</ele>
        <time>2023-08-06T16:18:48Z</time>
      </trkpt>
      <trkpt lat="49.72295" lon="3.36555">
        <ele>8.2</ele>
        <time>2023-08-06T16:18:55Z</time>
      </trkpt>
      <trkpt lat="49.72284" lon="3.36557">
        <ele>8.2</ele>
        <time>2023-08-06T16:18:57Z</time>
      </trkpt>
      <trkpt lat="49.72273" lon="3.36559">
        <ele>8.2</ele>
        <time>2023-08-06T16:18:59Z</time>
      </trkpt>
      <trkpt lat="49.72262" lon="3.36562">
        <ele>8.2</ele>
        <time>2023-08-06T16:19:00Z</time>
      </trkpt>
      <trkpt lat="49.72247" lon="3.36564">
        <ele>8.4</ele>
        <time>2023-08-06T16:19:03Z</time>
      </trkpt>
      <trkpt lat="49.72247" lon="3.36564">
        <ele>8.4</ele>
        <time>2023-08-06T16:19:04Z</time>
      </trkpt>
      <trkpt lat="49.72237" lon="3.36565">
        <ele>8.6</ele>
        <time>2023-08-06T16:19:05Z</time>
      </trkpt>
      <trkpt lat="49.72232" lon="3.36566">
        <ele>8.6</ele>
        <time>2023-08-06T16:19:06Z</time>
      </trkpt>
      <trkpt lat="49.72232" lon="3.36566">
        <ele>8.6</ele>
        <time>2023-08-06T16:19:07Z</time>
      </trkpt>
      <trkpt lat="49.72215" lon="3.3657">
        <ele>8.8</ele>
        <time>2023-08-06T16:19:09Z</time>
      </trkpt>
      <trkpt lat="49.72156" lon="3.36582">
        <ele>8.6</ele>
        <time>2023-08-06T16:19:19Z</time>
      </trkpt>
      <trkpt lat="49.72109" lon="3.36591">
        <ele>8.6</ele>
        <time>2023-08-06T16:19:27Z</time>
      </trkpt>
      <trkpt lat="49.72109" lon="3.36591">
        <ele>8.6</ele>
        <time>2023-08-06T16:19:28Z</time>
      </trkpt>
      <trkpt lat="49.72093" lon="3.36594">
        <ele>8.4</ele>
        <time>2023-08-06T16:19:30Z</time>
      </trkpt>
      <trkpt lat="49.72077" lon="3.36597">
        <ele>8.4</ele>
        <time>2023-08-06T16:19:33Z</time>
      </trkpt>
      <trkpt lat="49.72072" lon="3.36599">
        <ele>8.4</ele>
        <time>2023-08-06T16:19:34Z</time>
      </trkpt>
      <trkpt lat="49.72067" lon="3.366">
        <ele>8.6</ele>
        <time>2023-08-06T16:19:35Z</time>
      </trkpt>
      <trkpt lat="49.72067" lon="3.366">
        <ele>8.6</ele>
        <time>2023-08-06T16:19:36Z</time>
      </trkpt>
      <trkpt lat="49.72057" lon="3.36602">
        <ele>8.6</ele>
        <time>2023-08-06T16:19:37Z</time>
      </trkpt>
      <trkpt lat="49.72052" lon="3.36603">
        <ele>8.6</ele>
        <time>2023-08-06T16:19:39Z</time>
      </trkpt>
      <trkpt lat="49.72048" lon="3.36604">
        <ele>8.6</ele>
        <time>2023-08-06T16:19:40Z</time>
      </trkpt>
      <trkpt lat="49.72038" lon="3.36606">
        <ele>8.6</ele>
        <time>2023-08-06T16:19:41Z</time>
      </trkpt>
      <trkpt lat="49.72034" lon="3.36607">
        <ele>8.8</ele>
        <time>2023-08-06T16:19:42Z</time>
      </trkpt>
      <trkpt lat="49.72029" lon="3.36608">
        <ele>8.8</ele>
        <time>2023-08-06T16:19:43Z</time>
      </trkpt>
      <trkpt lat="49.72029" lon="3.36608">
        <ele>8.8</ele>
        <time>2023-08-06T16:19:44Z</time>
      </trkpt>
      <trkpt lat="49.72019" lon="3.3661">
        <ele>8.8</ele>
        <time>2023-08-06T16:19:45Z</time>
      </trkpt>
      <trkpt lat="49.72019" lon="3.3661">
        <ele>8.8</ele>
        <time>2023-08-06T16:19:46Z</time>
      </trkpt>
      <trkpt lat="49.71974" lon="3.36619">
        <ele>8.8</ele>
        <time>2023-08-06T16:19:54Z</time>
      </trkpt>
      <trkpt lat="49.71938" lon="3.36626">
        <ele>8.4</ele>
        <time>2023-08-06T16:20:02Z</time>
      </trkpt>
      <trkpt lat="49.71923" lon="3.36629">
        <ele>8.4</ele>
        <time>2023-08-06T16:20:04Z</time>
      </trkpt>
      <trkpt lat="49.71891" lon="3.36634">
        <ele>8.6</ele>
        <time>2023-08-06T16:20:10Z</time>
      </trkpt>
      <trkpt lat="49.71835" lon="3.36645">
        <ele>8.8</ele>
        <time>2023-08-06T16:20:20Z</time>
      </trkpt>
      <trkpt lat="49.71829" lon="3.36647">
        <ele>8.8</ele>
        <time>2023-08-06T16:20:21Z</time>
      </trkpt>
      <trkpt lat="49.71793" lon="3.36655">
        <ele>8.8</ele>
        <time>2023-08-06T16:20:28Z</time>
      </trkpt>
      <trkpt lat="49.71789" lon="3.36656">
        <ele>8.8</ele>
        <time>2023-08-06T16:20:29Z</time>
      </trkpt>
      <trkpt lat="49.71784" lon="3.36657">
        <ele>8.8</ele>
        <time>2023-08-06T16:20:30Z</time>
      </trkpt>
      <trkpt lat="49.71784" lon="3.36657">
        <ele>8.8</ele>
        <time>2023-08-06T16:20:31Z</time>
      </trkpt>
      <trkpt lat="49.71774" lon="3.36659">
        <ele>8.8</ele>
        <time>2023-08-06T16:20:32Z</time>
      </trkpt>
      <trkpt lat="49.7177" lon="3.3666">
        <ele>8.8</ele>
        <time>2023-08-06T16:20:33Z</time>
      </trkpt>
      <trkpt lat="49.71765" lon="3.36662">
        <ele>8.8</ele>
        <time>2023-08-06T16:20:34Z</time>
      </trkpt>
      <trkpt lat="49.71761" lon="3.36662">
        <ele>8.8</ele>
        <time>2023-08-06T16:20:35Z</time>
      </trkpt>
      <trkpt lat="49.71757" lon="3.36663">
        <ele>8.8</ele>
        <time>2023-08-06T16:20:36Z</time>
      </trkpt>
      <trkpt lat="49.71753" lon="3.36664">
        <ele>8.8</ele>
        <time>2023-08-06T16:20:37Z</time>
      </trkpt>
      <trkpt lat="49.71745" lon="3.36666">
        <ele>8.8</ele>
        <time>2023-08-06T16:20:39Z</time>
      </trkpt>
      <trkpt lat="49.71741" lon="3.36667">
        <ele>8.8</ele>
        <time>2023-08-06T16:20:40Z</time>
      </trkpt>
      <trkpt lat="49.71736" lon="3.36668">
        <ele>8.8</ele>
        <time>2023-08-06T16:20:41Z</time>
      </trkpt>
      <trkpt lat="49.71731" lon="3.36669">
        <ele>8.8</ele>
        <time>2023-08-06T16:20:42Z</time>
      </trkpt>
      <trkpt lat="49.71726" lon="3.36671">
        <ele>8.8</ele>
        <time>2023-08-06T16:20:43Z</time>
      </trkpt>
      <trkpt lat="49.71721" lon="3.36672">
        <ele>8.8</ele>
        <time>2023-08-06T16:20:44Z</time>
      </trkpt>
      <trkpt lat="49.71711" lon="3.36674">
        <ele>8.8</ele>
        <time>2023-08-06T16:20:46Z</time>
      </trkpt>
      <trkpt lat="49.71711" lon="3.36674">
        <ele>9</ele>
        <time>2023-08-06T16:20:47Z</time>
      </trkpt>
      <trkpt lat="49.71696" lon="3.36674">
        <ele>9</ele>
        <time>2023-08-06T16:20:50Z</time>
      </trkpt>
      <trkpt lat="49.71687" lon="3.36675">
        <ele>9</ele>
        <time>2023-08-06T16:20:51Z</time>
      </trkpt>
      <trkpt lat="49.71654" lon="3.36681">
        <ele>8.8</ele>
        <time>2023-08-06T16:20:57Z</time>
      </trkpt>
      <trkpt lat="49.71605" lon="3.3669">
        <ele>8.6</ele>
        <time>2023-08-06T16:21:06Z</time>
      </trkpt>
      <trkpt lat="49.71601" lon="3.36691">
        <ele>8.6</ele>
        <time>2023-08-06T16:21:07Z</time>
      </trkpt>
      <trkpt lat="49.71596" lon="3.36692">
        <ele>8.6</ele>
        <time>2023-08-06T16:21:08Z</time>
      </trkpt>
      <trkpt lat="49.71583" lon="3.36694">
        <ele>8.6</ele>
        <time>2023-08-06T16:21:11Z</time>
      </trkpt>
      <trkpt lat="49.71579" lon="3.36695">
        <ele>8.6</ele>
        <time>2023-08-06T16:21:12Z</time>
      </trkpt>
      <trkpt lat="49.71576" lon="3.36695">
        <ele>8.6</ele>
        <time>2023-08-06T16:21:13Z</time>
      </trkpt>
      <trkpt lat="49.71576" lon="3.36695">
        <ele>8.6</ele>
        <time>2023-08-06T16:21:14Z</time>
      </trkpt>
      <trkpt lat="49.71568" lon="3.36696">
        <ele>8.4</ele>
        <time>2023-08-06T16:21:15Z</time>
      </trkpt>
      <trkpt lat="49.71563" lon="3.36697">
        <ele>8.4</ele>
        <time>2023-08-06T16:21:16Z</time>
      </trkpt>
      <trkpt lat="49.7156" lon="3.36698">
        <ele>8.4</ele>
        <time>2023-08-06T16:21:17Z</time>
      </trkpt>
      <trkpt lat="49.71556" lon="3.36698">
        <ele>8.4</ele>
        <time>2023-08-06T16:21:18Z</time>
      </trkpt>
      <trkpt lat="49.71551" lon="3.36699">
        <ele>8.4</ele>
        <time>2023-08-06T16:21:19Z</time>
      </trkpt>
      <trkpt lat="49.71547" lon="3.36699">
        <ele>8.2</ele>
        <time>2023-08-06T16:21:20Z</time>
      </trkpt>
      <trkpt lat="49.71534" lon="3.36703">
        <ele>8.2</ele>
        <time>2023-08-06T16:21:24Z</time>
      </trkpt>
      <trkpt lat="49.71492" lon="3.3671">
        <ele>8.2</ele>
        <time>2023-08-06T16:21:33Z</time>
      </trkpt>
      <trkpt lat="49.71438" lon="3.3672">
        <ele>8.6</ele>
        <time>2023-08-06T16:21:45Z</time>
      </trkpt>
      <trkpt lat="49.71436" lon="3.3672">
        <ele>8.6</ele>
        <time>2023-08-06T16:21:46Z</time>
      </trkpt>
      <trkpt lat="49.71435" lon="3.36719">
        <ele>8.6</ele>
        <time>2023-08-06T16:21:47Z</time>
      </trkpt>
      <trkpt lat="49.71435" lon="3.36719">
        <ele>8.6</ele>
        <time>2023-08-06T16:21:48Z</time>
      </trkpt>
      <trkpt lat="49.71433" lon="3.3672">
        <ele>8.4</ele>
        <time>2023-08-06T16:21:49Z</time>
      </trkpt>
      <trkpt lat="49.71433" lon="3.3672">
        <ele>8.4</ele>
        <time>2023-08-06T16:21:50Z</time>
      </trkpt>
      <trkpt lat="49.71433" lon="3.3672">
        <ele>8.2</ele>
        <time>2023-08-06T16:21:51Z</time>
      </trkpt>
      <trkpt lat="49.71427" lon="3.3672">
        <ele>7.4</ele>
        <time>2023-08-06T16:23:56Z</time>
      </trkpt>
      <trkpt lat="49.71427" lon="3.3672">
        <ele>7.4</ele>
        <time>2023-08-06T16:23:57Z</time>
      </trkpt>
      <trkpt lat="49.7142" lon="3.36724">
        <ele>7.4</ele>
        <time>2023-08-06T16:24:00Z</time>
      </trkpt>
      <trkpt lat="49.71415" lon="3.36725">
        <ele>7.4</ele>
        <time>2023-08-06T16:24:02Z</time>
      </trkpt>
      <trkpt lat="49.71413" lon="3.36726">
        <ele>7.6</ele>
        <time>2023-08-06T16:24:03Z</time>
      </trkpt>
      <trkpt lat="49.71393" lon="3.3673">
        <ele>7.6</ele>
        <time>2023-08-06T16:24:09Z</time>
      </trkpt>
      <trkpt lat="49.71382" lon="3.36732">
        <ele>7.8</ele>
        <time>2023-08-06T16:24:13Z</time>
      </trkpt>
      <trkpt lat="49.71367" lon="3.36735">
        <ele>7.6</ele>
        <time>2023-08-06T16:24:16Z</time>
      </trkpt>
      <trkpt lat="49.71341" lon="3.36742">
        <ele>7.6</ele>
        <time>2023-08-06T16:24:23Z</time>
      </trkpt>
      <trkpt lat="49.71336" lon="3.36742">
        <ele>7.6</ele>
        <time>2023-08-06T16:24:24Z</time>
      </trkpt>
      <trkpt lat="49.71328" lon="3.36742">
        <ele>7.8</ele>
        <time>2023-08-06T16:24:27Z</time>
      </trkpt>
      <trkpt lat="49.71328" lon="3.36742">
        <ele>7.8</ele>
        <time>2023-08-06T16:24:28Z</time>
      </trkpt>
      <trkpt lat="49.71323" lon="3.36742">
        <ele>7.8</ele>
        <time>2023-08-06T16:24:29Z</time>
      </trkpt>
      <trkpt lat="49.7132" lon="3.36743">
        <ele>8</ele>
        <time>2023-08-06T16:24:30Z</time>
      </trkpt>
      <trkpt lat="49.71318" lon="3.36744">
        <ele>8</ele>
        <time>2023-08-06T16:24:31Z</time>
      </trkpt>
      <trkpt lat="49.71308" lon="3.36747">
        <ele>8</ele>
        <time>2023-08-06T16:24:34Z</time>
      </trkpt>
      <trkpt lat="49.71284" lon="3.36751">
        <ele>8</ele>
        <time>2023-08-06T16:24:40Z</time>
      </trkpt>
      <trkpt lat="49.71255" lon="3.36754">
        <ele>8</ele>
        <time>2023-08-06T16:24:47Z</time>
      </trkpt>
      <trkpt lat="49.71223" lon="3.36761">
        <ele>8.2</ele>
        <time>2023-08-06T16:24:53Z</time>
      </trkpt>
      <trkpt lat="49.71217" lon="3.36763">
        <ele>8.2</ele>
        <time>2023-08-06T16:24:54Z</time>
      </trkpt>
      <trkpt lat="49.71179" lon="3.3677">
        <ele>8.2</ele>
        <time>2023-08-06T16:25:02Z</time>
      </trkpt>
      <trkpt lat="49.71176" lon="3.3677">
        <ele>8.2</ele>
        <time>2023-08-06T16:25:03Z</time>
      </trkpt>
      <trkpt lat="49.71172" lon="3.36771">
        <ele>8.2</ele>
        <time>2023-08-06T16:25:04Z</time>
      </trkpt>
      <trkpt lat="49.71169" lon="3.36772">
        <ele>8.2</ele>
        <time>2023-08-06T16:25:05Z</time>
      </trkpt>
      <trkpt lat="49.71164" lon="3.36773">
        <ele>8.2</ele>
        <time>2023-08-06T16:25:06Z</time>
      </trkpt>
      <trkpt lat="49.7115" lon="3.36776">
        <ele>8.2</ele>
        <time>2023-08-06T16:25:09Z</time>
      </trkpt>
      <trkpt lat="49.71142" lon="3.36777">
        <ele>8.2</ele>
        <time>2023-08-06T16:25:11Z</time>
      </trkpt>
      <trkpt lat="49.71138" lon="3.36778">
        <ele>8.2</ele>
        <time>2023-08-06T16:25:12Z</time>
      </trkpt>
      <trkpt lat="49.71133" lon="3.36779">
        <ele>8.2</ele>
        <time>2023-08-06T16:25:13Z</time>
      </trkpt>
      <trkpt lat="49.71114" lon="3.36782">
        <ele>8.2</ele>
        <time>2023-08-06T16:25:17Z</time>
      </trkpt>
      <trkpt lat="49.71075" lon="3.3679">
        <ele>8</ele>
        <time>2023-08-06T16:25:25Z</time>
      </trkpt>
      <trkpt lat="49.71071" lon="3.36791">
        <ele>8</ele>
        <time>2023-08-06T16:25:26Z</time>
      </trkpt>
      <trkpt lat="49.71038" lon="3.36798">
        <ele>8</ele>
        <time>2023-08-06T16:25:32Z</time>
      </trkpt>
      <trkpt lat="49.71029" lon="3.368">
        <ele>8</ele>
        <time>2023-08-06T16:25:34Z</time>
      </trkpt>
      <trkpt lat="49.7102" lon="3.36802">
        <ele>8</ele>
        <time>2023-08-06T16:25:36Z</time>
      </trkpt>
      <trkpt lat="49.71016" lon="3.36802">
        <ele>8</ele>
        <time>2023-08-06T16:25:37Z</time>
      </trkpt>
      <trkpt lat="49.71012" lon="3.36803">
        <ele>8</ele>
        <time>2023-08-06T16:25:38Z</time>
      </trkpt>
      <trkpt lat="49.71006" lon="3.36803">
        <ele>8</ele>
        <time>2023-08-06T16:25:39Z</time>
      </trkpt>
      <trkpt lat="49.71002" lon="3.36804">
        <ele>8</ele>
        <time>2023-08-06T16:25:40Z</time>
      </trkpt>
      <trkpt lat="49.70982" lon="3.36809">
        <ele>8</ele>
        <time>2023-08-06T16:25:44Z</time>
      </trkpt>
      <trkpt lat="49.70955" lon="3.36814">
        <ele>8.2</ele>
        <time>2023-08-06T16:25:50Z</time>
      </trkpt>
      <trkpt lat="49.70934" lon="3.36817">
        <ele>8.4</ele>
        <time>2023-08-06T16:25:54Z</time>
      </trkpt>
      <trkpt lat="49.70896" lon="3.36825">
        <ele>8.4</ele>
        <time>2023-08-06T16:26:02Z</time>
      </trkpt>
      <trkpt lat="49.70874" lon="3.36829">
        <ele>8.4</ele>
        <time>2023-08-06T16:26:07Z</time>
      </trkpt>
      <trkpt lat="49.70869" lon="3.3683">
        <ele>8.4</ele>
        <time>2023-08-06T16:26:08Z</time>
      </trkpt>
      <trkpt lat="49.70865" lon="3.3683">
        <ele>8.4</ele>
        <time>2023-08-06T16:26:09Z</time>
      </trkpt>
      <trkpt lat="49.7086" lon="3.36831">
        <ele>8.2</ele>
        <time>2023-08-06T16:26:10Z</time>
      </trkpt>
      <trkpt lat="49.70856" lon="3.36832">
        <ele>8.2</ele>
        <time>2023-08-06T16:26:11Z</time>
      </trkpt>
      <trkpt lat="49.70853" lon="3.36832">
        <ele>8.2</ele>
        <time>2023-08-06T16:26:12Z</time>
      </trkpt>
      <trkpt lat="49.70847" lon="3.36833">
        <ele>8.2</ele>
        <time>2023-08-06T16:26:13Z</time>
      </trkpt>
      <trkpt lat="49.70844" lon="3.36834">
        <ele>8.2</ele>
        <time>2023-08-06T16:26:14Z</time>
      </trkpt>
      <trkpt lat="49.70824" lon="3.36838">
        <ele>8.2</ele>
        <time>2023-08-06T16:26:18Z</time>
      </trkpt>
      <trkpt lat="49.70801" lon="3.36843">
        <ele>8.2</ele>
        <time>2023-08-06T16:26:23Z</time>
      </trkpt>
      <trkpt lat="49.70787" lon="3.36844">
        <ele>8.4</ele>
        <time>2023-08-06T16:26:26Z</time>
      </trkpt>
      <trkpt lat="49.70787" lon="3.36844">
        <ele>8.4</ele>
        <time>2023-08-06T16:26:27Z</time>
      </trkpt>
      <trkpt lat="49.7078" lon="3.36845">
        <ele>8.4</ele>
        <time>2023-08-06T16:26:28Z</time>
      </trkpt>
      <trkpt lat="49.70775" lon="3.36846">
        <ele>8.4</ele>
        <time>2023-08-06T16:26:29Z</time>
      </trkpt>
      <trkpt lat="49.7077" lon="3.36846">
        <ele>8.4</ele>
        <time>2023-08-06T16:26:30Z</time>
      </trkpt>
      <trkpt lat="49.70754" lon="3.3685">
        <ele>8.4</ele>
        <time>2023-08-06T16:26:33Z</time>
      </trkpt>
      <trkpt lat="49.70719" lon="3.36857">
        <ele>8.4</ele>
        <time>2023-08-06T16:26:40Z</time>
      </trkpt>
      <trkpt lat="49.70666" lon="3.36869">
        <ele>8.4</ele>
        <time>2023-08-06T16:26:50Z</time>
      </trkpt>
      <trkpt lat="49.70659" lon="3.3687">
        <ele>8.6</ele>
        <time>2023-08-06T16:26:51Z</time>
      </trkpt>
      <trkpt lat="49.70626" lon="3.36876">
        <ele>8.6</ele>
        <time>2023-08-06T16:26:58Z</time>
      </trkpt>
      <trkpt lat="49.70621" lon="3.36876">
        <ele>8.6</ele>
        <time>2023-08-06T16:26:59Z</time>
      </trkpt>
      <trkpt lat="49.70579" lon="3.36884">
        <ele>8.6</ele>
        <time>2023-08-06T16:27:07Z</time>
      </trkpt>
      <trkpt lat="49.70551" lon="3.36891">
        <ele>8.8</ele>
        <time>2023-08-06T16:27:13Z</time>
      </trkpt>
      <trkpt lat="49.70547" lon="3.36891">
        <ele>8.8</ele>
        <time>2023-08-06T16:27:14Z</time>
      </trkpt>
      <trkpt lat="49.70542" lon="3.36892">
        <ele>8.8</ele>
        <time>2023-08-06T16:27:15Z</time>
      </trkpt>
      <trkpt lat="49.70538" lon="3.36893">
        <ele>8.8</ele>
        <time>2023-08-06T16:27:16Z</time>
      </trkpt>
      <trkpt lat="49.70534" lon="3.36894">
        <ele>8.8</ele>
        <time>2023-08-06T16:27:17Z</time>
      </trkpt>
      <trkpt lat="49.70531" lon="3.36895">
        <ele>8.8</ele>
        <time>2023-08-06T16:27:18Z</time>
      </trkpt>
      <trkpt lat="49.70526" lon="3.36896">
        <ele>8.8</ele>
        <time>2023-08-06T16:27:19Z</time>
      </trkpt>
      <trkpt lat="49.70506" lon="3.369">
        <ele>8.8</ele>
        <time>2023-08-06T16:27:24Z</time>
      </trkpt>
      <trkpt lat="49.705" lon="3.36901">
        <ele>9</ele>
        <time>2023-08-06T16:27:25Z</time>
      </trkpt>
      <trkpt lat="49.70496" lon="3.36902">
        <ele>9</ele>
        <time>2023-08-06T16:27:26Z</time>
      </trkpt>
      <trkpt lat="49.70491" lon="3.36903">
        <ele>9</ele>
        <time>2023-08-06T16:27:27Z</time>
      </trkpt>
      <trkpt lat="49.70475" lon="3.36907">
        <ele>9</ele>
        <time>2023-08-06T16:27:30Z</time>
      </trkpt>
      <trkpt lat="49.70469" lon="3.36907">
        <ele>9</ele>
        <time>2023-08-06T16:27:31Z</time>
      </trkpt>
      <trkpt lat="49.70434" lon="3.36913">
        <ele>9</ele>
        <time>2023-08-06T16:27:39Z</time>
      </trkpt>
      <trkpt lat="49.70399" lon="3.36923">
        <ele>8.8</ele>
        <time>2023-08-06T16:27:45Z</time>
      </trkpt>
      <trkpt lat="49.70384" lon="3.36929">
        <ele>8.8</ele>
        <time>2023-08-06T16:27:48Z</time>
      </trkpt>
      <trkpt lat="49.70378" lon="3.36931">
        <ele>8.8</ele>
        <time>2023-08-06T16:27:49Z</time>
      </trkpt>
      <trkpt lat="49.70349" lon="3.36937">
        <ele>8.6</ele>
        <time>2023-08-06T16:27:55Z</time>
      </trkpt>
      <trkpt lat="49.70344" lon="3.36937">
        <ele>8.6</ele>
        <time>2023-08-06T16:27:56Z</time>
      </trkpt>
      <trkpt lat="49.70339" lon="3.36937">
        <ele>8.6</ele>
        <time>2023-08-06T16:27:57Z</time>
      </trkpt>
      <trkpt lat="49.70324" lon="3.36935">
        <ele>8.6</ele>
        <time>2023-08-06T16:28:00Z</time>
      </trkpt>
      <trkpt lat="49.70319" lon="3.36935">
        <ele>8.6</ele>
        <time>2023-08-06T16:28:01Z</time>
      </trkpt>
      <trkpt lat="49.70315" lon="3.36936">
        <ele>8.6</ele>
        <time>2023-08-06T16:28:02Z</time>
      </trkpt>
      <trkpt lat="49.7031" lon="3.36937">
        <ele>8.6</ele>
        <time>2023-08-06T16:28:03Z</time>
      </trkpt>
      <trkpt lat="49.703" lon="3.36939">
        <ele>8.6</ele>
        <time>2023-08-06T16:28:05Z</time>
      </trkpt>
      <trkpt lat="49.70297" lon="3.3694">
        <ele>8.6</ele>
        <time>2023-08-06T16:28:06Z</time>
      </trkpt>
      <trkpt lat="49.70294" lon="3.3694">
        <ele>8.6</ele>
        <time>2023-08-06T16:28:07Z</time>
      </trkpt>
      <trkpt lat="49.7029" lon="3.36941">
        <ele>8.6</ele>
        <time>2023-08-06T16:28:08Z</time>
      </trkpt>
      <trkpt lat="49.70285" lon="3.36942">
        <ele>8.6</ele>
        <time>2023-08-06T16:28:09Z</time>
      </trkpt>
      <trkpt lat="49.70273" lon="3.36943">
        <ele>8.6</ele>
        <time>2023-08-06T16:28:12Z</time>
      </trkpt>
      <trkpt lat="49.70269" lon="3.36943">
        <ele>8.6</ele>
        <time>2023-08-06T16:28:13Z</time>
      </trkpt>
      <trkpt lat="49.70263" lon="3.36944">
        <ele>8.6</ele>
        <time>2023-08-06T16:28:14Z</time>
      </trkpt>
      <trkpt lat="49.70258" lon="3.36946">
        <ele>8.4</ele>
        <time>2023-08-06T16:28:15Z</time>
      </trkpt>
      <trkpt lat="49.70223" lon="3.36952">
        <ele>8.2</ele>
        <time>2023-08-06T16:28:22Z</time>
      </trkpt>
      <trkpt lat="49.70195" lon="3.36957">
        <ele>8.2</ele>
        <time>2023-08-06T16:28:28Z</time>
      </trkpt>
      <trkpt lat="49.7019" lon="3.36957">
        <ele>8.2</ele>
        <time>2023-08-06T16:28:29Z</time>
      </trkpt>
      <trkpt lat="49.70185" lon="3.36958">
        <ele>8.2</ele>
        <time>2023-08-06T16:28:30Z</time>
      </trkpt>
      <trkpt lat="49.7018" lon="3.36959">
        <ele>8.4</ele>
        <time>2023-08-06T16:28:31Z</time>
      </trkpt>
      <trkpt lat="49.70148" lon="3.36965">
        <ele>8.6</ele>
        <time>2023-08-06T16:28:37Z</time>
      </trkpt>
      <trkpt lat="49.70141" lon="3.36966">
        <ele>8.6</ele>
        <time>2023-08-06T16:28:38Z</time>
      </trkpt>
      <trkpt lat="49.70124" lon="3.3697">
        <ele>8.6</ele>
        <time>2023-08-06T16:28:41Z</time>
      </trkpt>
      <trkpt lat="49.70118" lon="3.36973">
        <ele>8.6</ele>
        <time>2023-08-06T16:28:43Z</time>
      </trkpt>
      <trkpt lat="49.70091" lon="3.36977">
        <ele>8.4</ele>
        <time>2023-08-06T16:28:47Z</time>
      </trkpt>
      <trkpt lat="49.70079" lon="3.36979">
        <ele>8.4</ele>
        <time>2023-08-06T16:28:49Z</time>
      </trkpt>
      <trkpt lat="49.70071" lon="3.36982">
        <ele>8.2</ele>
        <time>2023-08-06T16:28:51Z</time>
      </trkpt>
      <trkpt lat="49.70029" lon="3.3699">
        <ele>8.2</ele>
        <time>2023-08-06T16:29:00Z</time>
      </trkpt>
      <trkpt lat="49.7" lon="3.36995">
        <ele>8</ele>
        <time>2023-08-06T16:29:04Z</time>
      </trkpt>
      <trkpt lat="49.69994" lon="3.36996">
        <ele>8</ele>
        <time>2023-08-06T16:29:05Z</time>
      </trkpt>
      <trkpt lat="49.6996" lon="3.37002">
        <ele>7.2</ele>
        <time>2023-08-06T16:29:11Z</time>
      </trkpt>
      <trkpt lat="49.69955" lon="3.37003">
        <ele>7</ele>
        <time>2023-08-06T16:29:13Z</time>
      </trkpt>
      <trkpt lat="49.69937" lon="3.37006">
        <ele>6.8</ele>
        <time>2023-08-06T16:29:15Z</time>
      </trkpt>
      <trkpt lat="49.69927" lon="3.37008">
        <ele>6.4</ele>
        <time>2023-08-06T16:29:17Z</time>
      </trkpt>
      <trkpt lat="49.69914" lon="3.37011">
        <ele>6.2</ele>
        <time>2023-08-06T16:29:19Z</time>
      </trkpt>
      <trkpt lat="49.69909" lon="3.37011">
        <ele>6.2</ele>
        <time>2023-08-06T16:29:20Z</time>
      </trkpt>
      <trkpt lat="49.69903" lon="3.37013">
        <ele>6.2</ele>
        <time>2023-08-06T16:29:21Z</time>
      </trkpt>
      <trkpt lat="49.69898" lon="3.37013">
        <ele>6.2</ele>
        <time>2023-08-06T16:29:22Z</time>
      </trkpt>
      <trkpt lat="49.69891" lon="3.37014">
        <ele>6.2</ele>
        <time>2023-08-06T16:29:23Z</time>
      </trkpt>
      <trkpt lat="49.69891" lon="3.37014">
        <ele>6.4</ele>
        <time>2023-08-06T16:29:24Z</time>
      </trkpt>
      <trkpt lat="49.6988" lon="3.37016">
        <ele>6.4</ele>
        <time>2023-08-06T16:29:25Z</time>
      </trkpt>
      <trkpt lat="49.69869" lon="3.37018">
        <ele>6.4</ele>
        <time>2023-08-06T16:29:27Z</time>
      </trkpt>
      <trkpt lat="49.6983" lon="3.37027">
        <ele>6.2</ele>
        <time>2023-08-06T16:29:33Z</time>
      </trkpt>
      <trkpt lat="49.69822" lon="3.37029">
        <ele>6.2</ele>
        <time>2023-08-06T16:29:34Z</time>
      </trkpt>
      <trkpt lat="49.69784" lon="3.37035">
        <ele>6</ele>
        <time>2023-08-06T16:29:40Z</time>
      </trkpt>
      <trkpt lat="49.69765" lon="3.37039">
        <ele>6</ele>
        <time>2023-08-06T16:29:43Z</time>
      </trkpt>
      <trkpt lat="49.69749" lon="3.37042">
        <ele>6</ele>
        <time>2023-08-06T16:29:46Z</time>
      </trkpt>
      <trkpt lat="49.69749" lon="3.37042">
        <ele>6</ele>
        <time>2023-08-06T16:29:47Z</time>
      </trkpt>
      <trkpt lat="49.69734" lon="3.37045">
        <ele>6</ele>
        <time>2023-08-06T16:29:48Z</time>
      </trkpt>
      <trkpt lat="49.69698" lon="3.37052">
        <ele>5.8</ele>
        <time>2023-08-06T16:29:54Z</time>
      </trkpt>
      <trkpt lat="49.6965" lon="3.37061">
        <ele>5.8</ele>
        <time>2023-08-06T16:30:02Z</time>
      </trkpt>
      <trkpt lat="49.69645" lon="3.37061">
        <ele>5.8</ele>
        <time>2023-08-06T16:30:03Z</time>
      </trkpt>
      <trkpt lat="49.69638" lon="3.37062">
        <ele>5.8</ele>
        <time>2023-08-06T16:30:04Z</time>
      </trkpt>
      <trkpt lat="49.69633" lon="3.37063">
        <ele>5.6</ele>
        <time>2023-08-06T16:30:05Z</time>
      </trkpt>
      <trkpt lat="49.69609" lon="3.37065">
        <ele>5.6</ele>
        <time>2023-08-06T16:30:09Z</time>
      </trkpt>
      <trkpt lat="49.6958" lon="3.37063">
        <ele>5.4</ele>
        <time>2023-08-06T16:30:14Z</time>
      </trkpt>
      <trkpt lat="49.69563" lon="3.37061">
        <ele>5.4</ele>
        <time>2023-08-06T16:30:17Z</time>
      </trkpt>
      <trkpt lat="49.69563" lon="3.37061">
        <ele>5.4</ele>
        <time>2023-08-06T16:30:18Z</time>
      </trkpt>
      <trkpt lat="49.69523" lon="3.3705">
        <ele>5.4</ele>
        <time>2023-08-06T16:30:24Z</time>
      </trkpt>
      <trkpt lat="49.69514" lon="3.37045">
        <ele>5.4</ele>
        <time>2023-08-06T16:30:26Z</time>
      </trkpt>
      <trkpt lat="49.69488" lon="3.37033">
        <ele>5.4</ele>
        <time>2023-08-06T16:30:31Z</time>
      </trkpt>
      <trkpt lat="49.69483" lon="3.37031">
        <ele>5.4</ele>
        <time>2023-08-06T16:30:32Z</time>
      </trkpt>
      <trkpt lat="49.69477" lon="3.37027">
        <ele>5.4</ele>
        <time>2023-08-06T16:30:33Z</time>
      </trkpt>
      <trkpt lat="49.69472" lon="3.37023">
        <ele>5.4</ele>
        <time>2023-08-06T16:30:34Z</time>
      </trkpt>
      <trkpt lat="49.69462" lon="3.37018">
        <ele>5.4</ele>
        <time>2023-08-06T16:30:36Z</time>
      </trkpt>
      <trkpt lat="49.69456" lon="3.37014">
        <ele>5.4</ele>
        <time>2023-08-06T16:30:37Z</time>
      </trkpt>
      <trkpt lat="49.69442" lon="3.37006">
        <ele>5.6</ele>
        <time>2023-08-06T16:30:40Z</time>
      </trkpt>
      <trkpt lat="49.69404" lon="3.36983">
        <ele>5.6</ele>
        <time>2023-08-06T16:30:47Z</time>
      </trkpt>
      <trkpt lat="49.69352" lon="3.36953">
        <ele>5.6</ele>
        <time>2023-08-06T16:30:57Z</time>
      </trkpt>
      <trkpt lat="49.69345" lon="3.3695">
        <ele>5.6</ele>
        <time>2023-08-06T16:30:58Z</time>
      </trkpt>
      <trkpt lat="49.69314" lon="3.36932">
        <ele>5.6</ele>
        <time>2023-08-06T16:31:04Z</time>
      </trkpt>
      <trkpt lat="49.69283" lon="3.36915">
        <ele>5.6</ele>
        <time>2023-08-06T16:31:10Z</time>
      </trkpt>
      <trkpt lat="49.69271" lon="3.36909">
        <ele>5.6</ele>
        <time>2023-08-06T16:31:12Z</time>
      </trkpt>
      <trkpt lat="49.69266" lon="3.36905">
        <ele>5.6</ele>
        <time>2023-08-06T16:31:13Z</time>
      </trkpt>
      <trkpt lat="49.69262" lon="3.36902">
        <ele>5.6</ele>
        <time>2023-08-06T16:31:14Z</time>
      </trkpt>
      <trkpt lat="49.69225" lon="3.36878">
        <ele>5.6</ele>
        <time>2023-08-06T16:31:21Z</time>
      </trkpt>
      <trkpt lat="49.69183" lon="3.36855">
        <ele>5.6</ele>
        <time>2023-08-06T16:31:29Z</time>
      </trkpt>
      <trkpt lat="49.69133" lon="3.36827">
        <ele>5.6</ele>
        <time>2023-08-06T16:31:38Z</time>
      </trkpt>
      <trkpt lat="49.69078" lon="3.36797">
        <ele>5.6</ele>
        <time>2023-08-06T16:31:48Z</time>
      </trkpt>
      <trkpt lat="49.6904" lon="3.36775">
        <ele>5.6</ele>
        <time>2023-08-06T16:31:55Z</time>
      </trkpt>
      <trkpt lat="49.69035" lon="3.36773">
        <ele>5.6</ele>
        <time>2023-08-06T16:31:56Z</time>
      </trkpt>
      <trkpt lat="49.69032" lon="3.36772">
        <ele>5.6</ele>
        <time>2023-08-06T16:31:57Z</time>
      </trkpt>
      <trkpt lat="49.6903" lon="3.3677">
        <ele>5.6</ele>
        <time>2023-08-06T16:31:58Z</time>
      </trkpt>
      <trkpt lat="49.69026" lon="3.36767">
        <ele>5.6</ele>
        <time>2023-08-06T16:31:59Z</time>
      </trkpt>
      <trkpt lat="49.69023" lon="3.36765">
        <ele>5.8</ele>
        <time>2023-08-06T16:32:00Z</time>
      </trkpt>
      <trkpt lat="49.68999" lon="3.36752">
        <ele>5.8</ele>
        <time>2023-08-06T16:32:05Z</time>
      </trkpt>
      <trkpt lat="49.68989" lon="3.36746">
        <ele>6</ele>
        <time>2023-08-06T16:32:07Z</time>
      </trkpt>
      <trkpt lat="49.68964" lon="3.3673">
        <ele>5.6</ele>
        <time>2023-08-06T16:32:12Z</time>
      </trkpt>
      <trkpt lat="49.68912" lon="3.367">
        <ele>5</ele>
        <time>2023-08-06T16:32:22Z</time>
      </trkpt>
      <trkpt lat="49.68901" lon="3.36694">
        <ele>5.2</ele>
        <time>2023-08-06T16:32:24Z</time>
      </trkpt>
      <trkpt lat="49.68856" lon="3.36669">
        <ele>5</ele>
        <time>2023-08-06T16:32:32Z</time>
      </trkpt>
      <trkpt lat="49.68826" lon="3.36651">
        <ele>5.2</ele>
        <time>2023-08-06T16:32:38Z</time>
      </trkpt>
      <trkpt lat="49.68822" lon="3.36648">
        <ele>5.2</ele>
        <time>2023-08-06T16:32:39Z</time>
      </trkpt>
      <trkpt lat="49.68817" lon="3.36646">
        <ele>5.2</ele>
        <time>2023-08-06T16:32:40Z</time>
      </trkpt>
      <trkpt lat="49.68813" lon="3.36644">
        <ele>5.2</ele>
        <time>2023-08-06T16:32:41Z</time>
      </trkpt>
      <trkpt lat="49.68808" lon="3.3664">
        <ele>5.2</ele>
        <time>2023-08-06T16:32:42Z</time>
      </trkpt>
      <trkpt lat="49.68805" lon="3.36638">
        <ele>5.2</ele>
        <time>2023-08-06T16:32:43Z</time>
      </trkpt>
      <trkpt lat="49.68792" lon="3.36631">
        <ele>5.2</ele>
        <time>2023-08-06T16:32:46Z</time>
      </trkpt>
      <trkpt lat="49.68787" lon="3.36629">
        <ele>5.2</ele>
        <time>2023-08-06T16:32:47Z</time>
      </trkpt>
      <trkpt lat="49.68784" lon="3.36627">
        <ele>5.4</ele>
        <time>2023-08-06T16:32:48Z</time>
      </trkpt>
      <trkpt lat="49.6878" lon="3.36625">
        <ele>5.4</ele>
        <time>2023-08-06T16:32:49Z</time>
      </trkpt>
      <trkpt lat="49.68775" lon="3.36623">
        <ele>5.4</ele>
        <time>2023-08-06T16:32:50Z</time>
      </trkpt>
      <trkpt lat="49.68749" lon="3.36608">
        <ele>5.4</ele>
        <time>2023-08-06T16:32:56Z</time>
      </trkpt>
      <trkpt lat="49.68709" lon="3.36584">
        <ele>5.2</ele>
        <time>2023-08-06T16:33:05Z</time>
      </trkpt>
      <trkpt lat="49.68678" lon="3.36567">
        <ele>5.2</ele>
        <time>2023-08-06T16:33:12Z</time>
      </trkpt>
      <trkpt lat="49.68674" lon="3.36565">
        <ele>5.2</ele>
        <time>2023-08-06T16:33:13Z</time>
      </trkpt>
      <trkpt lat="49.68666" lon="3.36561">
        <ele>5.4</ele>
        <time>2023-08-06T16:33:15Z</time>
      </trkpt>
      <trkpt lat="49.68662" lon="3.36559">
        <ele>5.4</ele>
        <time>2023-08-06T16:33:16Z</time>
      </trkpt>
      <trkpt lat="49.68656" lon="3.36557">
        <ele>5.4</ele>
        <time>2023-08-06T16:33:17Z</time>
      </trkpt>
      <trkpt lat="49.68653" lon="3.36555">
        <ele>5.4</ele>
        <time>2023-08-06T16:33:18Z</time>
      </trkpt>
      <trkpt lat="49.68649" lon="3.36553">
        <ele>5.4</ele>
        <time>2023-08-06T16:33:19Z</time>
      </trkpt>
      <trkpt lat="49.68639" lon="3.3655">
        <ele>5.4</ele>
        <time>2023-08-06T16:33:21Z</time>
      </trkpt>
      <trkpt lat="49.68625" lon="3.36546">
        <ele>5.4</ele>
        <time>2023-08-06T16:33:24Z</time>
      </trkpt>
      <trkpt lat="49.68612" lon="3.36538">
        <ele>5.4</ele>
        <time>2023-08-06T16:33:27Z</time>
      </trkpt>
      <trkpt lat="49.68583" lon="3.3652">
        <ele>5.2</ele>
        <time>2023-08-06T16:33:34Z</time>
      </trkpt>
      <trkpt lat="49.68575" lon="3.36514">
        <ele>5.2</ele>
        <time>2023-08-06T16:33:36Z</time>
      </trkpt>
      <trkpt lat="49.68572" lon="3.3651">
        <ele>5.2</ele>
        <time>2023-08-06T16:33:37Z</time>
      </trkpt>
      <trkpt lat="49.68564" lon="3.36504">
        <ele>5.2</ele>
        <time>2023-08-06T16:33:39Z</time>
      </trkpt>
      <trkpt lat="49.6856" lon="3.36501">
        <ele>5.2</ele>
        <time>2023-08-06T16:33:40Z</time>
      </trkpt>
      <trkpt lat="49.68556" lon="3.36498">
        <ele>5.2</ele>
        <time>2023-08-06T16:33:41Z</time>
      </trkpt>
      <trkpt lat="49.68551" lon="3.36495">
        <ele>5.2</ele>
        <time>2023-08-06T16:33:42Z</time>
      </trkpt>
      <trkpt lat="49.68548" lon="3.36493">
        <ele>5.2</ele>
        <time>2023-08-06T16:33:43Z</time>
      </trkpt>
      <trkpt lat="49.68544" lon="3.36491">
        <ele>5.2</ele>
        <time>2023-08-06T16:33:44Z</time>
      </trkpt>
      <trkpt lat="49.6854" lon="3.36489">
        <ele>5.2</ele>
        <time>2023-08-06T16:33:45Z</time>
      </trkpt>
      <trkpt lat="49.68536" lon="3.36486">
        <ele>5.2</ele>
        <time>2023-08-06T16:33:46Z</time>
      </trkpt>
      <trkpt lat="49.68504" lon="3.36467">
        <ele>5.4</ele>
        <time>2023-08-06T16:33:54Z</time>
      </trkpt>
      <trkpt lat="49.68496" lon="3.36463">
        <ele>5.4</ele>
        <time>2023-08-06T16:33:56Z</time>
      </trkpt>
      <trkpt lat="49.68484" lon="3.36456">
        <ele>5.4</ele>
        <time>2023-08-06T16:33:59Z</time>
      </trkpt>
      <trkpt lat="49.6848" lon="3.36453">
        <ele>5.4</ele>
        <time>2023-08-06T16:34:00Z</time>
      </trkpt>
      <trkpt lat="49.68475" lon="3.36451">
        <ele>5.4</ele>
        <time>2023-08-06T16:34:01Z</time>
      </trkpt>
      <trkpt lat="49.6846" lon="3.36442">
        <ele>5.4</ele>
        <time>2023-08-06T16:34:05Z</time>
      </trkpt>
      <trkpt lat="49.68418" lon="3.36417">
        <ele>5.2</ele>
        <time>2023-08-06T16:34:15Z</time>
      </trkpt>
      <trkpt lat="49.68402" lon="3.36407">
        <ele>5.2</ele>
        <time>2023-08-06T16:34:19Z</time>
      </trkpt>
      <trkpt lat="49.68389" lon="3.364">
        <ele>5.2</ele>
        <time>2023-08-06T16:34:22Z</time>
      </trkpt>
      <trkpt lat="49.68385" lon="3.36398">
        <ele>5.4</ele>
        <time>2023-08-06T16:34:23Z</time>
      </trkpt>
      <trkpt lat="49.68381" lon="3.36396">
        <ele>5.4</ele>
        <time>2023-08-06T16:34:24Z</time>
      </trkpt>
      <trkpt lat="49.68377" lon="3.36394">
        <ele>5.4</ele>
        <time>2023-08-06T16:34:25Z</time>
      </trkpt>
      <trkpt lat="49.68373" lon="3.36391">
        <ele>5.4</ele>
        <time>2023-08-06T16:34:26Z</time>
      </trkpt>
      <trkpt lat="49.68369" lon="3.36389">
        <ele>5.4</ele>
        <time>2023-08-06T16:34:27Z</time>
      </trkpt>
      <trkpt lat="49.68365" lon="3.36387">
        <ele>5.4</ele>
        <time>2023-08-06T16:34:28Z</time>
      </trkpt>
      <trkpt lat="49.68361" lon="3.36385">
        <ele>5.4</ele>
        <time>2023-08-06T16:34:29Z</time>
      </trkpt>
      <trkpt lat="49.68356" lon="3.36382">
        <ele>5.4</ele>
        <time>2023-08-06T16:34:30Z</time>
      </trkpt>
      <trkpt lat="49.68353" lon="3.3638">
        <ele>5.4</ele>
        <time>2023-08-06T16:34:31Z</time>
      </trkpt>
      <trkpt lat="49.68349" lon="3.36378">
        <ele>5.4</ele>
        <time>2023-08-06T16:34:32Z</time>
      </trkpt>
      <trkpt lat="49.68345" lon="3.36375">
        <ele>5.4</ele>
        <time>2023-08-06T16:34:33Z</time>
      </trkpt>
      <trkpt lat="49.68317" lon="3.36359">
        <ele>5.4</ele>
        <time>2023-08-06T16:34:40Z</time>
      </trkpt>
      <trkpt lat="49.68276" lon="3.36335">
        <ele>5.4</ele>
        <time>2023-08-06T16:34:50Z</time>
      </trkpt>
      <trkpt lat="49.68234" lon="3.36311">
        <ele>5.2</ele>
        <time>2023-08-06T16:35:00Z</time>
      </trkpt>
      <trkpt lat="49.68186" lon="3.36284">
        <ele>5</ele>
        <time>2023-08-06T16:35:11Z</time>
      </trkpt>
      <trkpt lat="49.68156" lon="3.36266">
        <ele>5.2</ele>
        <time>2023-08-06T16:35:18Z</time>
      </trkpt>
      <trkpt lat="49.68152" lon="3.36264">
        <ele>5.2</ele>
        <time>2023-08-06T16:35:19Z</time>
      </trkpt>
      <trkpt lat="49.68148" lon="3.36262">
        <ele>5.2</ele>
        <time>2023-08-06T16:35:20Z</time>
      </trkpt>
      <trkpt lat="49.68145" lon="3.36259">
        <ele>5.2</ele>
        <time>2023-08-06T16:35:21Z</time>
      </trkpt>
      <trkpt lat="49.68141" lon="3.36256">
        <ele>5.2</ele>
        <time>2023-08-06T16:35:22Z</time>
      </trkpt>
      <trkpt lat="49.68137" lon="3.36254">
        <ele>5.2</ele>
        <time>2023-08-06T16:35:23Z</time>
      </trkpt>
      <trkpt lat="49.68133" lon="3.36252">
        <ele>5.2</ele>
        <time>2023-08-06T16:35:24Z</time>
      </trkpt>
      <trkpt lat="49.68129" lon="3.3625">
        <ele>5.2</ele>
        <time>2023-08-06T16:35:25Z</time>
      </trkpt>
      <trkpt lat="49.68124" lon="3.36247">
        <ele>5.2</ele>
        <time>2023-08-06T16:35:26Z</time>
      </trkpt>
      <trkpt lat="49.68121" lon="3.36245">
        <ele>5.2</ele>
        <time>2023-08-06T16:35:27Z</time>
      </trkpt>
      <trkpt lat="49.68073" lon="3.36218">
        <ele>5.2</ele>
        <time>2023-08-06T16:35:38Z</time>
      </trkpt>
      <trkpt lat="49.68038" lon="3.36197">
        <ele>5.2</ele>
        <time>2023-08-06T16:35:46Z</time>
      </trkpt>
      <trkpt lat="49.68026" lon="3.3619">
        <ele>5.2</ele>
        <time>2023-08-06T16:35:49Z</time>
      </trkpt>
      <trkpt lat="49.68021" lon="3.36188">
        <ele>5.2</ele>
        <time>2023-08-06T16:35:50Z</time>
      </trkpt>
      <trkpt lat="49.68018" lon="3.36186">
        <ele>5.2</ele>
        <time>2023-08-06T16:35:51Z</time>
      </trkpt>
      <trkpt lat="49.68015" lon="3.36184">
        <ele>5.2</ele>
        <time>2023-08-06T16:35:52Z</time>
      </trkpt>
      <trkpt lat="49.68011" lon="3.36182">
        <ele>5.4</ele>
        <time>2023-08-06T16:35:53Z</time>
      </trkpt>
      <trkpt lat="49.68008" lon="3.3618">
        <ele>5.4</ele>
        <time>2023-08-06T16:35:54Z</time>
      </trkpt>
      <trkpt lat="49.68004" lon="3.36179">
        <ele>5.4</ele>
        <time>2023-08-06T16:35:55Z</time>
      </trkpt>
      <trkpt lat="49.68001" lon="3.36177">
        <ele>5.4</ele>
        <time>2023-08-06T16:35:56Z</time>
      </trkpt>
      <trkpt lat="49.67998" lon="3.36175">
        <ele>5.4</ele>
        <time>2023-08-06T16:35:57Z</time>
      </trkpt>
      <trkpt lat="49.67994" lon="3.36172">
        <ele>5.4</ele>
        <time>2023-08-06T16:35:58Z</time>
      </trkpt>
      <trkpt lat="49.6799" lon="3.3617">
        <ele>5.6</ele>
        <time>2023-08-06T16:35:59Z</time>
      </trkpt>
      <trkpt lat="49.67966" lon="3.36157">
        <ele>5.6</ele>
        <time>2023-08-06T16:36:05Z</time>
      </trkpt>
      <trkpt lat="49.67924" lon="3.36131">
        <ele>5.6</ele>
        <time>2023-08-06T16:36:15Z</time>
      </trkpt>
      <trkpt lat="49.67902" lon="3.36115">
        <ele>5.4</ele>
        <time>2023-08-06T16:36:21Z</time>
      </trkpt>
      <trkpt lat="49.67899" lon="3.36113">
        <ele>5.4</ele>
        <time>2023-08-06T16:36:22Z</time>
      </trkpt>
      <trkpt lat="49.67896" lon="3.36113">
        <ele>5.4</ele>
        <time>2023-08-06T16:36:23Z</time>
      </trkpt>
      <trkpt lat="49.67894" lon="3.36115">
        <ele>5.4</ele>
        <time>2023-08-06T16:36:24Z</time>
      </trkpt>
      <trkpt lat="49.67893" lon="3.36117">
        <ele>5.4</ele>
        <time>2023-08-06T16:36:25Z</time>
      </trkpt>
      <trkpt lat="49.67892" lon="3.36119">
        <ele>5.4</ele>
        <time>2023-08-06T16:36:26Z</time>
      </trkpt>
      <trkpt lat="49.67891" lon="3.36122">
        <ele>5.4</ele>
        <time>2023-08-06T16:36:27Z</time>
      </trkpt>
      <trkpt lat="49.67891" lon="3.36124">
        <ele>5.4</ele>
        <time>2023-08-06T16:36:28Z</time>
      </trkpt>
      <trkpt lat="49.6789" lon="3.36127">
        <ele>5.4</ele>
        <time>2023-08-06T16:36:29Z</time>
      </trkpt>
      <trkpt lat="49.67888" lon="3.36135">
        <ele>5.4</ele>
        <time>2023-08-06T16:36:31Z</time>
      </trkpt>
      <trkpt lat="49.67886" lon="3.36137">
        <ele>5.4</ele>
        <time>2023-08-06T16:36:32Z</time>
      </trkpt>
      <trkpt lat="49.67886" lon="3.36137">
        <ele>5.4</ele>
        <time>2023-08-06T16:36:33Z</time>
      </trkpt>
      <trkpt lat="49.67879" lon="3.36138">
        <ele>5.4</ele>
        <time>2023-08-06T16:36:34Z</time>
      </trkpt>
      <trkpt lat="49.67876" lon="3.36136">
        <ele>5.4</ele>
        <time>2023-08-06T16:36:35Z</time>
      </trkpt>
      <trkpt lat="49.67868" lon="3.3613">
        <ele>5.4</ele>
        <time>2023-08-06T16:36:37Z</time>
      </trkpt>
      <trkpt lat="49.67864" lon="3.36128">
        <ele>5.2</ele>
        <time>2023-08-06T16:36:38Z</time>
      </trkpt>
      <trkpt lat="49.6786" lon="3.36125">
        <ele>5</ele>
        <time>2023-08-06T16:36:39Z</time>
      </trkpt>
      <trkpt lat="49.67847" lon="3.36118">
        <ele>4.6</ele>
        <time>2023-08-06T16:36:42Z</time>
      </trkpt>
      <trkpt lat="49.67814" lon="3.36096">
        <ele>3.8</ele>
        <time>2023-08-06T16:36:50Z</time>
      </trkpt>
      <trkpt lat="49.67805" lon="3.3609">
        <ele>3.8</ele>
        <time>2023-08-06T16:36:52Z</time>
      </trkpt>
      <trkpt lat="49.67768" lon="3.36065">
        <ele>3.6</ele>
        <time>2023-08-06T16:37:01Z</time>
      </trkpt>
      <trkpt lat="49.67764" lon="3.36061">
        <ele>3.6</ele>
        <time>2023-08-06T16:37:02Z</time>
      </trkpt>
      <trkpt lat="49.67729" lon="3.36037">
        <ele>3.6</ele>
        <time>2023-08-06T16:37:10Z</time>
      </trkpt>
      <trkpt lat="49.67692" lon="3.36009">
        <ele>3.8</ele>
        <time>2023-08-06T16:37:19Z</time>
      </trkpt>
      <trkpt lat="49.67659" lon="3.35985">
        <ele>3.6</ele>
        <time>2023-08-06T16:37:27Z</time>
      </trkpt>
      <trkpt lat="49.67655" lon="3.35982">
        <ele>3.6</ele>
        <time>2023-08-06T16:37:28Z</time>
      </trkpt>
      <trkpt lat="49.67651" lon="3.3598">
        <ele>3.6</ele>
        <time>2023-08-06T16:37:29Z</time>
      </trkpt>
      <trkpt lat="49.67646" lon="3.35976">
        <ele>3.6</ele>
        <time>2023-08-06T16:37:30Z</time>
      </trkpt>
      <trkpt lat="49.67642" lon="3.35973">
        <ele>3.6</ele>
        <time>2023-08-06T16:37:31Z</time>
      </trkpt>
      <trkpt lat="49.67638" lon="3.35971">
        <ele>3.6</ele>
        <time>2023-08-06T16:37:32Z</time>
      </trkpt>
      <trkpt lat="49.67635" lon="3.35969">
        <ele>3.6</ele>
        <time>2023-08-06T16:37:33Z</time>
      </trkpt>
      <trkpt lat="49.67632" lon="3.35966">
        <ele>3.6</ele>
        <time>2023-08-06T16:37:34Z</time>
      </trkpt>
      <trkpt lat="49.67628" lon="3.35964">
        <ele>3.8</ele>
        <time>2023-08-06T16:37:35Z</time>
      </trkpt>
      <trkpt lat="49.67624" lon="3.35961">
        <ele>3.8</ele>
        <time>2023-08-06T16:37:36Z</time>
      </trkpt>
      <trkpt lat="49.6762" lon="3.35959">
        <ele>3.8</ele>
        <time>2023-08-06T16:37:37Z</time>
      </trkpt>
      <trkpt lat="49.67617" lon="3.35955">
        <ele>3.6</ele>
        <time>2023-08-06T16:37:38Z</time>
      </trkpt>
      <trkpt lat="49.67613" lon="3.35952">
        <ele>3.6</ele>
        <time>2023-08-06T16:37:39Z</time>
      </trkpt>
      <trkpt lat="49.67609" lon="3.3595">
        <ele>3.6</ele>
        <time>2023-08-06T16:37:40Z</time>
      </trkpt>
      <trkpt lat="49.67605" lon="3.35947">
        <ele>3.4</ele>
        <time>2023-08-06T16:37:41Z</time>
      </trkpt>
      <trkpt lat="49.67581" lon="3.35931">
        <ele>3.4</ele>
        <time>2023-08-06T16:37:47Z</time>
      </trkpt>
      <trkpt lat="49.67536" lon="3.35899">
        <ele>3.6</ele>
        <time>2023-08-06T16:37:58Z</time>
      </trkpt>
      <trkpt lat="49.67511" lon="3.35881">
        <ele>3.6</ele>
        <time>2023-08-06T16:38:04Z</time>
      </trkpt>
      <trkpt lat="49.67508" lon="3.35879">
        <ele>3.6</ele>
        <time>2023-08-06T16:38:05Z</time>
      </trkpt>
      <trkpt lat="49.67504" lon="3.35876">
        <ele>3.6</ele>
        <time>2023-08-06T16:38:06Z</time>
      </trkpt>
      <trkpt lat="49.67454" lon="3.35841">
        <ele>3.8</ele>
        <time>2023-08-06T16:38:18Z</time>
      </trkpt>
      <trkpt lat="49.67451" lon="3.35839">
        <ele>3.6</ele>
        <time>2023-08-06T16:38:19Z</time>
      </trkpt>
      <trkpt lat="49.67446" lon="3.35835">
        <ele>3.6</ele>
        <time>2023-08-06T16:38:20Z</time>
      </trkpt>
      <trkpt lat="49.67443" lon="3.35834">
        <ele>3.6</ele>
        <time>2023-08-06T16:38:21Z</time>
      </trkpt>
      <trkpt lat="49.67439" lon="3.35831">
        <ele>3.6</ele>
        <time>2023-08-06T16:38:22Z</time>
      </trkpt>
      <trkpt lat="49.67435" lon="3.35828">
        <ele>3.6</ele>
        <time>2023-08-06T16:38:23Z</time>
      </trkpt>
      <trkpt lat="49.67431" lon="3.35825">
        <ele>3.6</ele>
        <time>2023-08-06T16:38:24Z</time>
      </trkpt>
      <trkpt lat="49.67427" lon="3.35822">
        <ele>3.6</ele>
        <time>2023-08-06T16:38:25Z</time>
      </trkpt>
      <trkpt lat="49.67423" lon="3.35819">
        <ele>3.6</ele>
        <time>2023-08-06T16:38:26Z</time>
      </trkpt>
      <trkpt lat="49.67391" lon="3.35797">
        <ele>3.6</ele>
        <time>2023-08-06T16:38:34Z</time>
      </trkpt>
      <trkpt lat="49.67377" lon="3.35787">
        <ele>3.4</ele>
        <time>2023-08-06T16:38:38Z</time>
      </trkpt>
      <trkpt lat="49.67373" lon="3.35785">
        <ele>3.4</ele>
        <time>2023-08-06T16:38:39Z</time>
      </trkpt>
      <trkpt lat="49.67369" lon="3.35782">
        <ele>3.4</ele>
        <time>2023-08-06T16:38:40Z</time>
      </trkpt>
      <trkpt lat="49.67358" lon="3.35773">
        <ele>3.4</ele>
        <time>2023-08-06T16:38:43Z</time>
      </trkpt>
      <trkpt lat="49.67354" lon="3.3577">
        <ele>3.4</ele>
        <time>2023-08-06T16:38:44Z</time>
      </trkpt>
      <trkpt lat="49.67307" lon="3.35735">
        <ele>3.8</ele>
        <time>2023-08-06T16:38:56Z</time>
      </trkpt>
      <trkpt lat="49.67288" lon="3.35722">
        <ele>3.8</ele>
        <time>2023-08-06T16:39:01Z</time>
      </trkpt>
      <trkpt lat="49.67263" lon="3.35705">
        <ele>3.6</ele>
        <time>2023-08-06T16:39:07Z</time>
      </trkpt>
      <trkpt lat="49.67221" lon="3.35674">
        <ele>3.4</ele>
        <time>2023-08-06T16:39:17Z</time>
      </trkpt>
      <trkpt lat="49.67184" lon="3.35647">
        <ele>3</ele>
        <time>2023-08-06T16:39:26Z</time>
      </trkpt>
      <trkpt lat="49.6718" lon="3.35644">
        <ele>3</ele>
        <time>2023-08-06T16:39:27Z</time>
      </trkpt>
      <trkpt lat="49.67177" lon="3.35642">
        <ele>3</ele>
        <time>2023-08-06T16:39:28Z</time>
      </trkpt>
      <trkpt lat="49.67169" lon="3.35636">
        <ele>3</ele>
        <time>2023-08-06T16:39:30Z</time>
      </trkpt>
      <trkpt lat="49.67164" lon="3.35633">
        <ele>3</ele>
        <time>2023-08-06T16:39:31Z</time>
      </trkpt>
      <trkpt lat="49.6716" lon="3.3563">
        <ele>3</ele>
        <time>2023-08-06T16:39:32Z</time>
      </trkpt>
      <trkpt lat="49.67157" lon="3.35628">
        <ele>3</ele>
        <time>2023-08-06T16:39:33Z</time>
      </trkpt>
      <trkpt lat="49.67153" lon="3.35625">
        <ele>3</ele>
        <time>2023-08-06T16:39:34Z</time>
      </trkpt>
      <trkpt lat="49.67148" lon="3.35622">
        <ele>3</ele>
        <time>2023-08-06T16:39:35Z</time>
      </trkpt>
      <trkpt lat="49.67145" lon="3.35619">
        <ele>3</ele>
        <time>2023-08-06T16:39:36Z</time>
      </trkpt>
      <trkpt lat="49.67108" lon="3.35592">
        <ele>3.2</ele>
        <time>2023-08-06T16:39:45Z</time>
      </trkpt>
      <trkpt lat="49.67104" lon="3.35589">
        <ele>3.2</ele>
        <time>2023-08-06T16:39:46Z</time>
      </trkpt>
      <trkpt lat="49.67097" lon="3.35585">
        <ele>3.2</ele>
        <time>2023-08-06T16:39:48Z</time>
      </trkpt>
      <trkpt lat="49.67094" lon="3.35582">
        <ele>3.2</ele>
        <time>2023-08-06T16:39:49Z</time>
      </trkpt>
      <trkpt lat="49.67088" lon="3.3557">
        <ele>3.2</ele>
        <time>2023-08-06T16:39:51Z</time>
      </trkpt>
      <trkpt lat="49.67086" lon="3.35565">
        <ele>3.2</ele>
        <time>2023-08-06T16:39:52Z</time>
      </trkpt>
      <trkpt lat="49.67082" lon="3.3556">
        <ele>3.2</ele>
        <time>2023-08-06T16:39:53Z</time>
      </trkpt>
      <trkpt lat="49.67071" lon="3.35553">
        <ele>3.2</ele>
        <time>2023-08-06T16:39:55Z</time>
      </trkpt>
      <trkpt lat="49.67068" lon="3.35553">
        <ele>3.2</ele>
        <time>2023-08-06T16:39:56Z</time>
      </trkpt>
      <trkpt lat="49.67065" lon="3.35553">
        <ele>3.2</ele>
        <time>2023-08-06T16:39:57Z</time>
      </trkpt>
      <trkpt lat="49.67063" lon="3.35552">
        <ele>3.2</ele>
        <time>2023-08-06T16:39:58Z</time>
      </trkpt>
      <trkpt lat="49.67061" lon="3.35551">
        <ele>3.2</ele>
        <time>2023-08-06T16:39:59Z</time>
      </trkpt>
      <trkpt lat="49.67058" lon="3.35549">
        <ele>3.2</ele>
        <time>2023-08-06T16:40:00Z</time>
      </trkpt>
      <trkpt lat="49.67041" lon="3.35539">
        <ele>3.2</ele>
        <time>2023-08-06T16:40:05Z</time>
      </trkpt>
      <trkpt lat="49.6701" lon="3.35518">
        <ele>3.4</ele>
        <time>2023-08-06T16:40:13Z</time>
      </trkpt>
      <trkpt lat="49.66978" lon="3.35499">
        <ele>3</ele>
        <time>2023-08-06T16:40:20Z</time>
      </trkpt>
      <trkpt lat="49.66974" lon="3.35497">
        <ele>3</ele>
        <time>2023-08-06T16:40:21Z</time>
      </trkpt>
      <trkpt lat="49.66924" lon="3.35462">
        <ele>3.2</ele>
        <time>2023-08-06T16:40:32Z</time>
      </trkpt>
      <trkpt lat="49.66878" lon="3.35429">
        <ele>3.4</ele>
        <time>2023-08-06T16:40:42Z</time>
      </trkpt>
      <trkpt lat="49.66865" lon="3.3542">
        <ele>3.4</ele>
        <time>2023-08-06T16:40:45Z</time>
      </trkpt>
      <trkpt lat="49.66856" lon="3.35413">
        <ele>3.4</ele>
        <time>2023-08-06T16:40:47Z</time>
      </trkpt>
      <trkpt lat="49.66837" lon="3.354">
        <ele>3.4</ele>
        <time>2023-08-06T16:40:51Z</time>
      </trkpt>
      <trkpt lat="49.66833" lon="3.35397">
        <ele>3.2</ele>
        <time>2023-08-06T16:40:52Z</time>
      </trkpt>
      <trkpt lat="49.66819" lon="3.35388">
        <ele>3.2</ele>
        <time>2023-08-06T16:40:55Z</time>
      </trkpt>
      <trkpt lat="49.6681" lon="3.35382">
        <ele>3.2</ele>
        <time>2023-08-06T16:40:57Z</time>
      </trkpt>
      <trkpt lat="49.66806" lon="3.35378">
        <ele>3.2</ele>
        <time>2023-08-06T16:40:58Z</time>
      </trkpt>
      <trkpt lat="49.66796" lon="3.35371">
        <ele>3.2</ele>
        <time>2023-08-06T16:41:00Z</time>
      </trkpt>
      <trkpt lat="49.66764" lon="3.35348">
        <ele>3.2</ele>
        <time>2023-08-06T16:41:07Z</time>
      </trkpt>
      <trkpt lat="49.6675" lon="3.35339">
        <ele>3.2</ele>
        <time>2023-08-06T16:41:10Z</time>
      </trkpt>
      <trkpt lat="49.66728" lon="3.35323">
        <ele>3.2</ele>
        <time>2023-08-06T16:41:15Z</time>
      </trkpt>
      <trkpt lat="49.66705" lon="3.35308">
        <ele>3.2</ele>
        <time>2023-08-06T16:41:20Z</time>
      </trkpt>
      <trkpt lat="49.66681" lon="3.35292">
        <ele>3.4</ele>
        <time>2023-08-06T16:41:25Z</time>
      </trkpt>
      <trkpt lat="49.66654" lon="3.35271">
        <ele>3.2</ele>
        <time>2023-08-06T16:41:31Z</time>
      </trkpt>
      <trkpt lat="49.66602" lon="3.35236">
        <ele>3.4</ele>
        <time>2023-08-06T16:41:42Z</time>
      </trkpt>
      <trkpt lat="49.66565" lon="3.3521">
        <ele>3.2</ele>
        <time>2023-08-06T16:41:50Z</time>
      </trkpt>
      <trkpt lat="49.6656" lon="3.35206">
        <ele>3.4</ele>
        <time>2023-08-06T16:41:51Z</time>
      </trkpt>
      <trkpt lat="49.66515" lon="3.35174">
        <ele>3.4</ele>
        <time>2023-08-06T16:42:01Z</time>
      </trkpt>
      <trkpt lat="49.66507" lon="3.35169">
        <ele>3.6</ele>
        <time>2023-08-06T16:42:03Z</time>
      </trkpt>
      <trkpt lat="49.66502" lon="3.35165">
        <ele>3.6</ele>
        <time>2023-08-06T16:42:04Z</time>
      </trkpt>
      <trkpt lat="49.66498" lon="3.35163">
        <ele>3.4</ele>
        <time>2023-08-06T16:42:05Z</time>
      </trkpt>
      <trkpt lat="49.66494" lon="3.35162">
        <ele>3.4</ele>
        <time>2023-08-06T16:42:06Z</time>
      </trkpt>
      <trkpt lat="49.6649" lon="3.3516">
        <ele>3.4</ele>
        <time>2023-08-06T16:42:07Z</time>
      </trkpt>
      <trkpt lat="49.66486" lon="3.35159">
        <ele>3.4</ele>
        <time>2023-08-06T16:42:08Z</time>
      </trkpt>
      <trkpt lat="49.66483" lon="3.35157">
        <ele>3.6</ele>
        <time>2023-08-06T16:42:09Z</time>
      </trkpt>
      <trkpt lat="49.66481" lon="3.35155">
        <ele>3.4</ele>
        <time>2023-08-06T16:42:10Z</time>
      </trkpt>
      <trkpt lat="49.6648" lon="3.35154">
        <ele>3.2</ele>
        <time>2023-08-06T16:42:11Z</time>
      </trkpt>
      <trkpt lat="49.66479" lon="3.35154">
        <ele>3.2</ele>
        <time>2023-08-06T16:42:13Z</time>
      </trkpt>
      <trkpt lat="49.66477" lon="3.35149">
        <ele>2.2</ele>
        <time>2023-08-06T16:49:25Z</time>
      </trkpt>
      <trkpt lat="49.6647" lon="3.35145">
        <ele>2.2</ele>
        <time>2023-08-06T16:49:28Z</time>
      </trkpt>
      <trkpt lat="49.66461" lon="3.35137">
        <ele>2</ele>
        <time>2023-08-06T16:49:32Z</time>
      </trkpt>
      <trkpt lat="49.66444" lon="3.35124">
        <ele>2</ele>
        <time>2023-08-06T16:49:39Z</time>
      </trkpt>
      <trkpt lat="49.66416" lon="3.35104">
        <ele>2.2</ele>
        <time>2023-08-06T16:49:48Z</time>
      </trkpt>
      <trkpt lat="49.66388" lon="3.35084">
        <ele>2.4</ele>
        <time>2023-08-06T16:49:56Z</time>
      </trkpt>
      <trkpt lat="49.66358" lon="3.35065">
        <ele>2.4</ele>
        <time>2023-08-06T16:50:04Z</time>
      </trkpt>
      <trkpt lat="49.66333" lon="3.35061">
        <ele>2.2</ele>
        <time>2023-08-06T16:50:10Z</time>
      </trkpt>
      <trkpt lat="49.66299" lon="3.35075">
        <ele>2</ele>
        <time>2023-08-06T16:50:18Z</time>
      </trkpt>
      <trkpt lat="49.66268" lon="3.35088">
        <ele>2</ele>
        <time>2023-08-06T16:50:25Z</time>
      </trkpt>
      <trkpt lat="49.66236" lon="3.35095">
        <ele>2.2</ele>
        <time>2023-08-06T16:50:32Z</time>
      </trkpt>
      <trkpt lat="49.66224" lon="3.35097">
        <ele>2.2</ele>
        <time>2023-08-06T16:50:35Z</time>
      </trkpt>
      <trkpt lat="49.6622" lon="3.35098">
        <ele>2.4</ele>
        <time>2023-08-06T16:50:36Z</time>
      </trkpt>
      <trkpt lat="49.66216" lon="3.35099">
        <ele>2.4</ele>
        <time>2023-08-06T16:50:37Z</time>
      </trkpt>
      <trkpt lat="49.66213" lon="3.35099">
        <ele>2.4</ele>
        <time>2023-08-06T16:50:38Z</time>
      </trkpt>
      <trkpt lat="49.6621" lon="3.351">
        <ele>2.4</ele>
        <time>2023-08-06T16:50:39Z</time>
      </trkpt>
      <trkpt lat="49.66207" lon="3.351">
        <ele>2.6</ele>
        <time>2023-08-06T16:50:40Z</time>
      </trkpt>
      <trkpt lat="49.66204" lon="3.351">
        <ele>2.6</ele>
        <time>2023-08-06T16:50:41Z</time>
      </trkpt>
      <trkpt lat="49.6619" lon="3.35099">
        <ele>2.8</ele>
        <time>2023-08-06T16:50:45Z</time>
      </trkpt>
      <trkpt lat="49.66161" lon="3.35095">
        <ele>2.8</ele>
        <time>2023-08-06T16:50:51Z</time>
      </trkpt>
      <trkpt lat="49.66157" lon="3.35094">
        <ele>2.8</ele>
        <time>2023-08-06T16:50:52Z</time>
      </trkpt>
      <trkpt lat="49.66152" lon="3.35092">
        <ele>2.8</ele>
        <time>2023-08-06T16:50:53Z</time>
      </trkpt>
      <trkpt lat="49.66148" lon="3.3509">
        <ele>2.8</ele>
        <time>2023-08-06T16:50:54Z</time>
      </trkpt>
      <trkpt lat="49.66145" lon="3.35088">
        <ele>2.6</ele>
        <time>2023-08-06T16:50:55Z</time>
      </trkpt>
      <trkpt lat="49.66137" lon="3.35082">
        <ele>2.2</ele>
        <time>2023-08-06T16:50:57Z</time>
      </trkpt>
      <trkpt lat="49.66133" lon="3.3508">
        <ele>2</ele>
        <time>2023-08-06T16:50:58Z</time>
      </trkpt>
      <trkpt lat="49.66129" lon="3.35077">
        <ele>2</ele>
        <time>2023-08-06T16:50:59Z</time>
      </trkpt>
      <trkpt lat="49.66125" lon="3.35074">
        <ele>1.8</ele>
        <time>2023-08-06T16:51:00Z</time>
      </trkpt>
      <trkpt lat="49.66122" lon="3.35072">
        <ele>1.8</ele>
        <time>2023-08-06T16:51:01Z</time>
      </trkpt>
      <trkpt lat="49.66118" lon="3.35069">
        <ele>1.8</ele>
        <time>2023-08-06T16:51:02Z</time>
      </trkpt>
      <trkpt lat="49.66103" lon="3.35058">
        <ele>1.8</ele>
        <time>2023-08-06T16:51:06Z</time>
      </trkpt>
      <trkpt lat="49.66061" lon="3.3503">
        <ele>1.8</ele>
        <time>2023-08-06T16:51:16Z</time>
      </trkpt>
      <trkpt lat="49.66041" lon="3.35015">
        <ele>1.6</ele>
        <time>2023-08-06T16:51:21Z</time>
      </trkpt>
      <trkpt lat="49.66037" lon="3.35013">
        <ele>1.6</ele>
        <time>2023-08-06T16:51:22Z</time>
      </trkpt>
      <trkpt lat="49.66033" lon="3.3501">
        <ele>1.6</ele>
        <time>2023-08-06T16:51:23Z</time>
      </trkpt>
      <trkpt lat="49.66025" lon="3.35004">
        <ele>1.6</ele>
        <time>2023-08-06T16:51:25Z</time>
      </trkpt>
      <trkpt lat="49.66013" lon="3.34996">
        <ele>1.6</ele>
        <time>2023-08-06T16:51:28Z</time>
      </trkpt>
      <trkpt lat="49.65967" lon="3.34964">
        <ele>2.2</ele>
        <time>2023-08-06T16:51:39Z</time>
      </trkpt>
      <trkpt lat="49.65924" lon="3.34935">
        <ele>2.2</ele>
        <time>2023-08-06T16:51:49Z</time>
      </trkpt>
      <trkpt lat="49.65895" lon="3.34914">
        <ele>2.4</ele>
        <time>2023-08-06T16:51:56Z</time>
      </trkpt>
      <trkpt lat="49.65891" lon="3.34912">
        <ele>2.4</ele>
        <time>2023-08-06T16:51:57Z</time>
      </trkpt>
      <trkpt lat="49.65888" lon="3.34909">
        <ele>2.4</ele>
        <time>2023-08-06T16:51:58Z</time>
      </trkpt>
      <trkpt lat="49.65884" lon="3.34907">
        <ele>2.4</ele>
        <time>2023-08-06T16:51:59Z</time>
      </trkpt>
      <trkpt lat="49.65881" lon="3.34905">
        <ele>2.4</ele>
        <time>2023-08-06T16:52:00Z</time>
      </trkpt>
      <trkpt lat="49.65878" lon="3.34902">
        <ele>2.4</ele>
        <time>2023-08-06T16:52:01Z</time>
      </trkpt>
      <trkpt lat="49.65875" lon="3.34901">
        <ele>2.2</ele>
        <time>2023-08-06T16:52:02Z</time>
      </trkpt>
      <trkpt lat="49.65872" lon="3.34899">
        <ele>2.2</ele>
        <time>2023-08-06T16:52:03Z</time>
      </trkpt>
      <trkpt lat="49.6587" lon="3.34897">
        <ele>2.2</ele>
        <time>2023-08-06T16:52:04Z</time>
      </trkpt>
      <trkpt lat="49.65868" lon="3.34896">
        <ele>2.2</ele>
        <time>2023-08-06T16:52:05Z</time>
      </trkpt>
      <trkpt lat="49.65867" lon="3.34895">
        <ele>2</ele>
        <time>2023-08-06T16:52:06Z</time>
      </trkpt>
      <trkpt lat="49.65866" lon="3.34894">
        <ele>2</ele>
        <time>2023-08-06T16:52:07Z</time>
      </trkpt>
      <trkpt lat="49.65866" lon="3.34894">
        <ele>2.2</ele>
        <time>2023-08-06T16:52:09Z</time>
      </trkpt>
      <trkpt lat="49.65864" lon="3.34892">
        <ele>0.80000000000001</ele>
        <time>2023-08-06T16:54:00Z</time>
      </trkpt>
      <trkpt lat="49.6586" lon="3.34889">
        <ele>0.60000000000002</ele>
        <time>2023-08-06T16:54:03Z</time>
      </trkpt>
      <trkpt lat="49.65858" lon="3.34887">
        <ele>0.60000000000002</ele>
        <time>2023-08-06T16:54:04Z</time>
      </trkpt>
      <trkpt lat="49.65848" lon="3.34883">
        <ele>0.60000000000002</ele>
        <time>2023-08-06T16:54:08Z</time>
      </trkpt>
      <trkpt lat="49.6584" lon="3.34877">
        <ele>0.60000000000002</ele>
        <time>2023-08-06T16:54:11Z</time>
      </trkpt>
      <trkpt lat="49.65828" lon="3.34868">
        <ele>0.80000000000001</ele>
        <time>2023-08-06T16:54:15Z</time>
      </trkpt>
      <trkpt lat="49.65802" lon="3.3485">
        <ele>1.2</ele>
        <time>2023-08-06T16:54:23Z</time>
      </trkpt>
      <trkpt lat="49.65787" lon="3.34841">
        <ele>1.8</ele>
        <time>2023-08-06T16:54:27Z</time>
      </trkpt>
      <trkpt lat="49.65765" lon="3.34825">
        <ele>2</ele>
        <time>2023-08-06T16:54:33Z</time>
      </trkpt>
      <trkpt lat="49.65732" lon="3.34801">
        <ele>2.2</ele>
        <time>2023-08-06T16:54:42Z</time>
      </trkpt>
      <trkpt lat="49.65701" lon="3.3477">
        <ele>2.2</ele>
        <time>2023-08-06T16:54:51Z</time>
      </trkpt>
      <trkpt lat="49.65699" lon="3.34765">
        <ele>2.2</ele>
        <time>2023-08-06T16:54:52Z</time>
      </trkpt>
      <trkpt lat="49.65697" lon="3.34763">
        <ele>2.2</ele>
        <time>2023-08-06T16:54:53Z</time>
      </trkpt>
      <trkpt lat="49.65696" lon="3.34761">
        <ele>2</ele>
        <time>2023-08-06T16:54:54Z</time>
      </trkpt>
      <trkpt lat="49.65692" lon="3.3476">
        <ele>2</ele>
        <time>2023-08-06T16:54:55Z</time>
      </trkpt>
      <trkpt lat="49.65688" lon="3.34758">
        <ele>2</ele>
        <time>2023-08-06T16:54:56Z</time>
      </trkpt>
      <trkpt lat="49.65684" lon="3.34756">
        <ele>1.8</ele>
        <time>2023-08-06T16:54:57Z</time>
      </trkpt>
      <trkpt lat="49.6568" lon="3.34753">
        <ele>1.8</ele>
        <time>2023-08-06T16:54:58Z</time>
      </trkpt>
      <trkpt lat="49.65663" lon="3.34744">
        <ele>1.6</ele>
        <time>2023-08-06T16:55:02Z</time>
      </trkpt>
      <trkpt lat="49.65654" lon="3.34739">
        <ele>1.4</ele>
        <time>2023-08-06T16:55:04Z</time>
      </trkpt>
      <trkpt lat="49.65638" lon="3.34729">
        <ele>1</ele>
        <time>2023-08-06T16:55:08Z</time>
      </trkpt>
      <trkpt lat="49.65635" lon="3.34726">
        <ele>1</ele>
        <time>2023-08-06T16:55:09Z</time>
      </trkpt>
      <trkpt lat="49.65631" lon="3.34724">
        <ele>1</ele>
        <time>2023-08-06T16:55:10Z</time>
      </trkpt>
      <trkpt lat="49.65624" lon="3.34717">
        <ele>1</ele>
        <time>2023-08-06T16:55:12Z</time>
      </trkpt>
      <trkpt lat="49.65616" lon="3.3471">
        <ele>0.80000000000001</ele>
        <time>2023-08-06T16:55:14Z</time>
      </trkpt>
      <trkpt lat="49.65605" lon="3.34701">
        <ele>0.80000000000001</ele>
        <time>2023-08-06T16:55:17Z</time>
      </trkpt>
      <trkpt lat="49.65598" lon="3.34695">
        <ele>0.60000000000002</ele>
        <time>2023-08-06T16:55:19Z</time>
      </trkpt>
      <trkpt lat="49.6559" lon="3.34691">
        <ele>0.60000000000002</ele>
        <time>2023-08-06T16:55:21Z</time>
      </trkpt>
      <trkpt lat="49.65586" lon="3.34689">
        <ele>0.60000000000002</ele>
        <time>2023-08-06T16:55:22Z</time>
      </trkpt>
      <trkpt lat="49.65582" lon="3.34686">
        <ele>0.60000000000002</ele>
        <time>2023-08-06T16:55:23Z</time>
      </trkpt>
      <trkpt lat="49.65579" lon="3.34683">
        <ele>0.60000000000002</ele>
        <time>2023-08-06T16:55:24Z</time>
      </trkpt>
      <trkpt lat="49.65576" lon="3.3468">
        <ele>0.60000000000002</ele>
        <time>2023-08-06T16:55:25Z</time>
      </trkpt>
      <trkpt lat="49.65572" lon="3.34678">
        <ele>0.60000000000002</ele>
        <time>2023-08-06T16:55:26Z</time>
      </trkpt>
      <trkpt lat="49.65568" lon="3.34676">
        <ele>0.60000000000002</ele>
        <time>2023-08-06T16:55:27Z</time>
      </trkpt>
      <trkpt lat="49.65564" lon="3.34673">
        <ele>0.60000000000002</ele>
        <time>2023-08-06T16:55:28Z</time>
      </trkpt>
      <trkpt lat="49.6555" lon="3.34663">
        <ele>0.60000000000002</ele>
        <time>2023-08-06T16:55:32Z</time>
      </trkpt>
      <trkpt lat="49.65546" lon="3.34661">
        <ele>0.60000000000002</ele>
        <time>2023-08-06T16:55:33Z</time>
      </trkpt>
      <trkpt lat="49.65542" lon="3.34658">
        <ele>0.60000000000002</ele>
        <time>2023-08-06T16:55:34Z</time>
      </trkpt>
      <trkpt lat="49.65539" lon="3.34656">
        <ele>0.80000000000001</ele>
        <time>2023-08-06T16:55:35Z</time>
      </trkpt>
      <trkpt lat="49.65536" lon="3.34654">
        <ele>0.80000000000001</ele>
        <time>2023-08-06T16:55:36Z</time>
      </trkpt>
      <trkpt lat="49.65534" lon="3.34652">
        <ele>0.80000000000001</ele>
        <time>2023-08-06T16:55:37Z</time>
      </trkpt>
      <trkpt lat="49.65531" lon="3.34651">
        <ele>1</ele>
        <time>2023-08-06T16:55:38Z</time>
      </trkpt>
      <trkpt lat="49.65529" lon="3.34649">
        <ele>1</ele>
        <time>2023-08-06T16:55:39Z</time>
      </trkpt>
      <trkpt lat="49.65506" lon="3.34639">
        <ele>1.6</ele>
        <time>2023-08-06T16:55:46Z</time>
      </trkpt>
      <trkpt lat="49.6548" lon="3.34636">
        <ele>1</ele>
        <time>2023-08-06T16:55:53Z</time>
      </trkpt>
      <trkpt lat="49.65472" lon="3.34641">
        <ele>1</ele>
        <time>2023-08-06T16:55:55Z</time>
      </trkpt>
      <trkpt lat="49.65469" lon="3.34645">
        <ele>1</ele>
        <time>2023-08-06T16:55:56Z</time>
      </trkpt>
      <trkpt lat="49.65466" lon="3.34649">
        <ele>1</ele>
        <time>2023-08-06T16:55:57Z</time>
      </trkpt>
      <trkpt lat="49.65462" lon="3.34654">
        <ele>1</ele>
        <time>2023-08-06T16:55:58Z</time>
      </trkpt>
      <trkpt lat="49.65431" lon="3.34694">
        <ele>0.39999999999998</ele>
        <time>2023-08-06T16:56:08Z</time>
      </trkpt>
      <trkpt lat="49.65428" lon="3.34697">
        <ele>0.39999999999998</ele>
        <time>2023-08-06T16:56:09Z</time>
      </trkpt>
      <trkpt lat="49.65425" lon="3.34701">
        <ele>0.39999999999998</ele>
        <time>2023-08-06T16:56:10Z</time>
      </trkpt>
      <trkpt lat="49.65422" lon="3.34704">
        <ele>0.39999999999998</ele>
        <time>2023-08-06T16:56:11Z</time>
      </trkpt>
      <trkpt lat="49.65419" lon="3.34707">
        <ele>0.39999999999998</ele>
        <time>2023-08-06T16:56:12Z</time>
      </trkpt>
      <trkpt lat="49.65417" lon="3.3471">
        <ele>0.39999999999998</ele>
        <time>2023-08-06T16:56:13Z</time>
      </trkpt>
      <trkpt lat="49.65415" lon="3.34712">
        <ele>0.60000000000002</ele>
        <time>2023-08-06T16:56:14Z</time>
      </trkpt>
      <trkpt lat="49.65413" lon="3.34715">
        <ele>0.60000000000002</ele>
        <time>2023-08-06T16:56:15Z</time>
      </trkpt>
      <trkpt lat="49.65411" lon="3.34717">
        <ele>0.80000000000001</ele>
        <time>2023-08-06T16:56:16Z</time>
      </trkpt>
      <trkpt lat="49.65407" lon="3.34722">
        <ele>1</ele>
        <time>2023-08-06T16:56:18Z</time>
      </trkpt>
      <trkpt lat="49.65406" lon="3.34725">
        <ele>1.2</ele>
        <time>2023-08-06T16:56:19Z</time>
      </trkpt>
      <trkpt lat="49.65403" lon="3.34728">
        <ele>1.4</ele>
        <time>2023-08-06T16:56:20Z</time>
      </trkpt>
      <trkpt lat="49.65401" lon="3.34731">
        <ele>1.4</ele>
        <time>2023-08-06T16:56:21Z</time>
      </trkpt>
      <trkpt lat="49.65392" lon="3.34741">
        <ele>1.6</ele>
        <time>2023-08-06T16:56:24Z</time>
      </trkpt>
      <trkpt lat="49.65385" lon="3.34748">
        <ele>1.4</ele>
        <time>2023-08-06T16:56:26Z</time>
      </trkpt>
      <trkpt lat="49.65374" lon="3.34758">
        <ele>1.4</ele>
        <time>2023-08-06T16:56:29Z</time>
      </trkpt>
      <trkpt lat="49.65357" lon="3.3477">
        <ele>0.80000000000001</ele>
        <time>2023-08-06T16:56:33Z</time>
      </trkpt>
      <trkpt lat="49.65331" lon="3.34784">
        <ele>0.60000000000002</ele>
        <time>2023-08-06T16:56:39Z</time>
      </trkpt>
      <trkpt lat="49.65309" lon="3.34796">
        <ele>0.39999999999998</ele>
        <time>2023-08-06T16:56:44Z</time>
      </trkpt>
      <trkpt lat="49.65292" lon="3.34805">
        <ele>0.39999999999998</ele>
        <time>2023-08-06T16:56:48Z</time>
      </trkpt>
      <trkpt lat="49.65285" lon="3.34813">
        <ele>0.39999999999998</ele>
        <time>2023-08-06T16:56:50Z</time>
      </trkpt>
      <trkpt lat="49.65281" lon="3.34817">
        <ele>0.19999999999999</ele>
        <time>2023-08-06T16:56:51Z</time>
      </trkpt>
      <trkpt lat="49.65256" lon="3.34848">
        <ele>0.19999999999999</ele>
        <time>2023-08-06T16:56:58Z</time>
      </trkpt>
      <trkpt lat="49.65226" lon="3.34903">
        <ele>0.19999999999999</ele>
        <time>2023-08-06T16:57:08Z</time>
      </trkpt>
      <trkpt lat="49.65202" lon="3.34941">
        <ele>0.19999999999999</ele>
        <time>2023-08-06T16:57:15Z</time>
      </trkpt>
      <trkpt lat="49.65198" lon="3.34945">
        <ele>0.19999999999999</ele>
        <time>2023-08-06T16:57:16Z</time>
      </trkpt>
      <trkpt lat="49.65177" lon="3.34964">
        <ele>0.19999999999999</ele>
        <time>2023-08-06T16:57:21Z</time>
      </trkpt>
      <trkpt lat="49.65153" lon="3.34974">
        <ele>0.19999999999999</ele>
        <time>2023-08-06T16:57:26Z</time>
      </trkpt>
      <trkpt lat="49.65148" lon="3.34975">
        <ele>0.19999999999999</ele>
        <time>2023-08-06T16:57:27Z</time>
      </trkpt>
      <trkpt lat="49.65143" lon="3.34975">
        <ele>0.19999999999999</ele>
        <time>2023-08-06T16:57:28Z</time>
      </trkpt>
      <trkpt lat="49.65138" lon="3.34974">
        <ele>-0.19999999999999</ele>
        <time>2023-08-06T16:57:29Z</time>
      </trkpt>
      <trkpt lat="49.65119" lon="3.3497">
        <ele>-0.19999999999999</ele>
        <time>2023-08-06T16:57:33Z</time>
      </trkpt>
      <trkpt lat="49.65103" lon="3.34965">
        <ele>-0.19999999999999</ele>
        <time>2023-08-06T16:57:36Z</time>
      </trkpt>
      <trkpt lat="49.65098" lon="3.34964">
        <ele>-0.19999999999999</ele>
        <time>2023-08-06T16:57:37Z</time>
      </trkpt>
      <trkpt lat="49.65093" lon="3.34963">
        <ele>-0.19999999999999</ele>
        <time>2023-08-06T16:57:38Z</time>
      </trkpt>
      <trkpt lat="49.65089" lon="3.34962">
        <ele>-0.19999999999999</ele>
        <time>2023-08-06T16:57:39Z</time>
      </trkpt>
      <trkpt lat="49.65069" lon="3.34957">
        <ele>-0.19999999999999</ele>
        <time>2023-08-06T16:57:43Z</time>
      </trkpt>
      <trkpt lat="49.65065" lon="3.34956">
        <ele>-0.19999999999999</ele>
        <time>2023-08-06T16:57:44Z</time>
      </trkpt>
      <trkpt lat="49.6506" lon="3.34954">
        <ele>-0.19999999999999</ele>
        <time>2023-08-06T16:57:45Z</time>
      </trkpt>
      <trkpt lat="49.65056" lon="3.34952">
        <ele>-0.19999999999999</ele>
        <time>2023-08-06T16:57:46Z</time>
      </trkpt>
      <trkpt lat="49.65051" lon="3.34949">
        <ele>-0.19999999999999</ele>
        <time>2023-08-06T16:57:47Z</time>
      </trkpt>
      <trkpt lat="49.65047" lon="3.34946">
        <ele>-0.19999999999999</ele>
        <time>2023-08-06T16:57:48Z</time>
      </trkpt>
      <trkpt lat="49.6503" lon="3.34931">
        <ele>0.19999999999999</ele>
        <time>2023-08-06T16:57:52Z</time>
      </trkpt>
      <trkpt lat="49.65009" lon="3.34914">
        <ele>0.39999999999998</ele>
        <time>2023-08-06T16:57:57Z</time>
      </trkpt>
      <trkpt lat="49.65004" lon="3.34911">
        <ele>0.39999999999998</ele>
        <time>2023-08-06T16:57:58Z</time>
      </trkpt>
      <trkpt lat="49.65" lon="3.34907">
        <ele>0.39999999999998</ele>
        <time>2023-08-06T16:57:59Z</time>
      </trkpt>
      <trkpt lat="49.64988" lon="3.34897">
        <ele>0.60000000000002</ele>
        <time>2023-08-06T16:58:02Z</time>
      </trkpt>
      <trkpt lat="49.64988" lon="3.34897">
        <ele>0.60000000000002</ele>
        <time>2023-08-06T16:58:03Z</time>
      </trkpt>
      <trkpt lat="49.6498" lon="3.34891">
        <ele>0.80000000000001</ele>
        <time>2023-08-06T16:58:04Z</time>
      </trkpt>
      <trkpt lat="49.64976" lon="3.34888">
        <ele>0.80000000000001</ele>
        <time>2023-08-06T16:58:05Z</time>
      </trkpt>
      <trkpt lat="49.64972" lon="3.34886">
        <ele>0.80000000000001</ele>
        <time>2023-08-06T16:58:06Z</time>
      </trkpt>
      <trkpt lat="49.64969" lon="3.34883">
        <ele>1</ele>
        <time>2023-08-06T16:58:07Z</time>
      </trkpt>
      <trkpt lat="49.64966" lon="3.34881">
        <ele>1</ele>
        <time>2023-08-06T16:58:08Z</time>
      </trkpt>
      <trkpt lat="49.64962" lon="3.34878">
        <ele>1.2</ele>
        <time>2023-08-06T16:58:09Z</time>
      </trkpt>
      <trkpt lat="49.64959" lon="3.34876">
        <ele>1.2</ele>
        <time>2023-08-06T16:58:10Z</time>
      </trkpt>
      <trkpt lat="49.64956" lon="3.34875">
        <ele>1.2</ele>
        <time>2023-08-06T16:58:11Z</time>
      </trkpt>
      <trkpt lat="49.64952" lon="3.34874">
        <ele>1.2</ele>
        <time>2023-08-06T16:58:12Z</time>
      </trkpt>
      <trkpt lat="49.64949" lon="3.34874">
        <ele>1.2</ele>
        <time>2023-08-06T16:58:13Z</time>
      </trkpt>
      <trkpt lat="49.64945" lon="3.34876">
        <ele>1.2</ele>
        <time>2023-08-06T16:58:14Z</time>
      </trkpt>
      <trkpt lat="49.64943" lon="3.34879">
        <ele>1.2</ele>
        <time>2023-08-06T16:58:15Z</time>
      </trkpt>
      <trkpt lat="49.64941" lon="3.34884">
        <ele>1.2</ele>
        <time>2023-08-06T16:58:16Z</time>
      </trkpt>
      <trkpt lat="49.64937" lon="3.34902">
        <ele>0.80000000000001</ele>
        <time>2023-08-06T16:58:19Z</time>
      </trkpt>
      <trkpt lat="49.64936" lon="3.34908">
        <ele>1</ele>
        <time>2023-08-06T16:58:20Z</time>
      </trkpt>
      <trkpt lat="49.64929" lon="3.34954">
        <ele>1</ele>
        <time>2023-08-06T16:58:28Z</time>
      </trkpt>
      <trkpt lat="49.64927" lon="3.34966">
        <ele>1.2</ele>
        <time>2023-08-06T16:58:30Z</time>
      </trkpt>
      <trkpt lat="49.64926" lon="3.34972">
        <ele>1.4</ele>
        <time>2023-08-06T16:58:31Z</time>
      </trkpt>
      <trkpt lat="49.64922" lon="3.35002">
        <ele>1.6</ele>
        <time>2023-08-06T16:58:35Z</time>
      </trkpt>
      <trkpt lat="49.64915" lon="3.35047">
        <ele>1.2</ele>
        <time>2023-08-06T16:58:40Z</time>
      </trkpt>
      <trkpt lat="49.64914" lon="3.35056">
        <ele>1.2</ele>
        <time>2023-08-06T16:58:41Z</time>
      </trkpt>
      <trkpt lat="49.64912" lon="3.35064">
        <ele>1</ele>
        <time>2023-08-06T16:58:42Z</time>
      </trkpt>
      <trkpt lat="49.64909" lon="3.35081">
        <ele>0.60000000000002</ele>
        <time>2023-08-06T16:58:44Z</time>
      </trkpt>
      <trkpt lat="49.6491" lon="3.35087">
        <ele>0.19999999999999</ele>
        <time>2023-08-06T16:58:45Z</time>
      </trkpt>
      <trkpt lat="49.64912" lon="3.35093">
        <ele>0.19999999999999</ele>
        <time>2023-08-06T16:58:46Z</time>
      </trkpt>
      <trkpt lat="49.64915" lon="3.35099">
        <ele>0.19999999999999</ele>
        <time>2023-08-06T16:58:47Z</time>
      </trkpt>
      <trkpt lat="49.64919" lon="3.35106">
        <ele>0.19999999999999</ele>
        <time>2023-08-06T16:58:48Z</time>
      </trkpt>
      <trkpt lat="49.64922" lon="3.3511">
        <ele>-0.19999999999999</ele>
        <time>2023-08-06T16:58:49Z</time>
      </trkpt>
      <trkpt lat="49.64933" lon="3.3513">
        <ele>-0.39999999999998</ele>
        <time>2023-08-06T16:58:52Z</time>
      </trkpt>
      <trkpt lat="49.64936" lon="3.35137">
        <ele>-0.60000000000002</ele>
        <time>2023-08-06T16:58:53Z</time>
      </trkpt>
      <trkpt lat="49.64939" lon="3.35141">
        <ele>-0.60000000000002</ele>
        <time>2023-08-06T16:58:54Z</time>
      </trkpt>
      <trkpt lat="49.64947" lon="3.3516">
        <ele>-0.80000000000001</ele>
        <time>2023-08-06T16:58:57Z</time>
      </trkpt>
      <trkpt lat="49.64953" lon="3.35172">
        <ele>-0.80000000000001</ele>
        <time>2023-08-06T16:58:59Z</time>
      </trkpt>
      <trkpt lat="49.64957" lon="3.35177">
        <ele>-0.80000000000001</ele>
        <time>2023-08-06T16:59:00Z</time>
      </trkpt>
      <trkpt lat="49.6496" lon="3.35183">
        <ele>-0.80000000000001</ele>
        <time>2023-08-06T16:59:01Z</time>
      </trkpt>
      <trkpt lat="49.64963" lon="3.35188">
        <ele>-0.80000000000001</ele>
        <time>2023-08-06T16:59:02Z</time>
      </trkpt>
      <trkpt lat="49.64966" lon="3.35193">
        <ele>-1</ele>
        <time>2023-08-06T16:59:03Z</time>
      </trkpt>
      <trkpt lat="49.64969" lon="3.35198">
        <ele>-1</ele>
        <time>2023-08-06T16:59:04Z</time>
      </trkpt>
      <trkpt lat="49.64972" lon="3.35203">
        <ele>-1</ele>
        <time>2023-08-06T16:59:05Z</time>
      </trkpt>
      <trkpt lat="49.64975" lon="3.35208">
        <ele>-1</ele>
        <time>2023-08-06T16:59:06Z</time>
      </trkpt>
      <trkpt lat="49.64978" lon="3.35212">
        <ele>-1</ele>
        <time>2023-08-06T16:59:07Z</time>
      </trkpt>
      <trkpt lat="49.6498" lon="3.35216">
        <ele>-1</ele>
        <time>2023-08-06T16:59:08Z</time>
      </trkpt>
      <trkpt lat="49.64982" lon="3.3522">
        <ele>-1</ele>
        <time>2023-08-06T16:59:09Z</time>
      </trkpt>
      <trkpt lat="49.64985" lon="3.35225">
        <ele>-1</ele>
        <time>2023-08-06T16:59:10Z</time>
      </trkpt>
      <trkpt lat="49.65001" lon="3.35254">
        <ele>-1</ele>
        <time>2023-08-06T16:59:16Z</time>
      </trkpt>
      <trkpt lat="49.65003" lon="3.35259">
        <ele>-1</ele>
        <time>2023-08-06T16:59:17Z</time>
      </trkpt>
      <trkpt lat="49.65005" lon="3.35263">
        <ele>-0.80000000000001</ele>
        <time>2023-08-06T16:59:18Z</time>
      </trkpt>
      <trkpt lat="49.65008" lon="3.35268">
        <ele>-0.80000000000001</ele>
        <time>2023-08-06T16:59:19Z</time>
      </trkpt>
      <trkpt lat="49.65013" lon="3.35278">
        <ele>-0.80000000000001</ele>
        <time>2023-08-06T16:59:21Z</time>
      </trkpt>
      <trkpt lat="49.65015" lon="3.35282">
        <ele>-0.80000000000001</ele>
        <time>2023-08-06T16:59:22Z</time>
      </trkpt>
      <trkpt lat="49.65017" lon="3.35286">
        <ele>-0.80000000000001</ele>
        <time>2023-08-06T16:59:23Z</time>
      </trkpt>
      <trkpt lat="49.65019" lon="3.3529">
        <ele>-0.60000000000002</ele>
        <time>2023-08-06T16:59:24Z</time>
      </trkpt>
      <trkpt lat="49.65021" lon="3.35294">
        <ele>-0.60000000000002</ele>
        <time>2023-08-06T16:59:25Z</time>
      </trkpt>
      <trkpt lat="49.65023" lon="3.35298">
        <ele>-0.60000000000002</ele>
        <time>2023-08-06T16:59:26Z</time>
      </trkpt>
      <trkpt lat="49.65025" lon="3.35302">
        <ele>-0.39999999999998</ele>
        <time>2023-08-06T16:59:27Z</time>
      </trkpt>
      <trkpt lat="49.65028" lon="3.35307">
        <ele>-0.60000000000002</ele>
        <time>2023-08-06T16:59:28Z</time>
      </trkpt>
      <trkpt lat="49.6503" lon="3.3531">
        <ele>-0.60000000000002</ele>
        <time>2023-08-06T16:59:29Z</time>
      </trkpt>
      <trkpt lat="49.65032" lon="3.35315">
        <ele>-0.60000000000002</ele>
        <time>2023-08-06T16:59:30Z</time>
      </trkpt>
      <trkpt lat="49.65034" lon="3.35319">
        <ele>-0.60000000000002</ele>
        <time>2023-08-06T16:59:31Z</time>
      </trkpt>
      <trkpt lat="49.65036" lon="3.35323">
        <ele>-0.60000000000002</ele>
        <time>2023-08-06T16:59:32Z</time>
      </trkpt>
      <trkpt lat="49.65039" lon="3.35327">
        <ele>-0.60000000000002</ele>
        <time>2023-08-06T16:59:33Z</time>
      </trkpt>
      <trkpt lat="49.65049" lon="3.35349">
        <ele>-0.60000000000002</ele>
        <time>2023-08-06T16:59:38Z</time>
      </trkpt>
      <trkpt lat="49.65051" lon="3.35354">
        <ele>-0.60000000000002</ele>
        <time>2023-08-06T16:59:39Z</time>
      </trkpt>
      <trkpt lat="49.65053" lon="3.35358">
        <ele>-0.39999999999998</ele>
        <time>2023-08-06T16:59:40Z</time>
      </trkpt>
      <trkpt lat="49.65054" lon="3.35362">
        <ele>-0.39999999999998</ele>
        <time>2023-08-06T16:59:41Z</time>
      </trkpt>
      <trkpt lat="49.65056" lon="3.35367">
        <ele>-0.39999999999998</ele>
        <time>2023-08-06T16:59:42Z</time>
      </trkpt>
      <trkpt lat="49.65057" lon="3.35371">
        <ele>-0.39999999999998</ele>
        <time>2023-08-06T16:59:43Z</time>
      </trkpt>
      <trkpt lat="49.65059" lon="3.35375">
        <ele>-0.39999999999998</ele>
        <time>2023-08-06T16:59:44Z</time>
      </trkpt>
      <trkpt lat="49.65062" lon="3.35381">
        <ele>-0.39999999999998</ele>
        <time>2023-08-06T16:59:45Z</time>
      </trkpt>
      <trkpt lat="49.65063" lon="3.35385">
        <ele>-0.39999999999998</ele>
        <time>2023-08-06T16:59:46Z</time>
      </trkpt>
      <trkpt lat="49.65065" lon="3.3539">
        <ele>-0.39999999999998</ele>
        <time>2023-08-06T16:59:47Z</time>
      </trkpt>
      <trkpt lat="49.65068" lon="3.35399">
        <ele>-0.39999999999998</ele>
        <time>2023-08-06T16:59:49Z</time>
      </trkpt>
      <trkpt lat="49.6507" lon="3.35403">
        <ele>-0.39999999999998</ele>
        <time>2023-08-06T16:59:50Z</time>
      </trkpt>
      <trkpt lat="49.65072" lon="3.35405">
        <ele>-0.39999999999998</ele>
        <time>2023-08-06T16:59:51Z</time>
      </trkpt>
      <trkpt lat="49.65073" lon="3.35409">
        <ele>-0.39999999999998</ele>
        <time>2023-08-06T16:59:52Z</time>
      </trkpt>
      <trkpt lat="49.65073" lon="3.35413">
        <ele>-0.39999999999998</ele>
        <time>2023-08-06T16:59:53Z</time>
      </trkpt>
      <trkpt lat="49.65072" lon="3.35417">
        <ele>-0.39999999999998</ele>
        <time>2023-08-06T16:59:54Z</time>
      </trkpt>
      <trkpt lat="49.6507" lon="3.35421">
        <ele>-0.39999999999998</ele>
        <time>2023-08-06T16:59:55Z</time>
      </trkpt>
      <trkpt lat="49.65066" lon="3.35426">
        <ele>-0.39999999999998</ele>
        <time>2023-08-06T16:59:57Z</time>
      </trkpt>
      <trkpt lat="49.65064" lon="3.35429">
        <ele>-0.39999999999998</ele>
        <time>2023-08-06T16:59:58Z</time>
      </trkpt>
      <trkpt lat="49.65051" lon="3.35446">
        <ele>-0.60000000000002</ele>
        <time>2023-08-06T17:00:03Z</time>
      </trkpt>
      <trkpt lat="49.65022" lon="3.35484">
        <ele>-0.80000000000001</ele>
        <time>2023-08-06T17:00:14Z</time>
      </trkpt>
      <trkpt lat="49.65014" lon="3.35496">
        <ele>-0.80000000000001</ele>
        <time>2023-08-06T17:00:17Z</time>
      </trkpt>
      <trkpt lat="49.65011" lon="3.35499">
        <ele>-1</ele>
        <time>2023-08-06T17:00:18Z</time>
      </trkpt>
      <trkpt lat="49.65009" lon="3.35503">
        <ele>-1</ele>
        <time>2023-08-06T17:00:19Z</time>
      </trkpt>
      <trkpt lat="49.64993" lon="3.35524">
        <ele>-1.2</ele>
        <time>2023-08-06T17:00:25Z</time>
      </trkpt>
      <trkpt lat="49.64961" lon="3.35567">
        <ele>-0.80000000000001</ele>
        <time>2023-08-06T17:00:36Z</time>
      </trkpt>
      <trkpt lat="49.64956" lon="3.35575">
        <ele>-0.60000000000002</ele>
        <time>2023-08-06T17:00:38Z</time>
      </trkpt>
      <trkpt lat="49.64953" lon="3.35578">
        <ele>-0.60000000000002</ele>
        <time>2023-08-06T17:00:39Z</time>
      </trkpt>
      <trkpt lat="49.64951" lon="3.35581">
        <ele>-0.80000000000001</ele>
        <time>2023-08-06T17:00:40Z</time>
      </trkpt>
      <trkpt lat="49.64945" lon="3.3559">
        <ele>-0.80000000000001</ele>
        <time>2023-08-06T17:00:42Z</time>
      </trkpt>
      <trkpt lat="49.64926" lon="3.35614">
        <ele>-0.80000000000001</ele>
        <time>2023-08-06T17:00:49Z</time>
      </trkpt>
      <trkpt lat="49.64904" lon="3.35644">
        <ele>-1</ele>
        <time>2023-08-06T17:00:57Z</time>
      </trkpt>
      <trkpt lat="49.64902" lon="3.35647">
        <ele>-1</ele>
        <time>2023-08-06T17:00:58Z</time>
      </trkpt>
      <trkpt lat="49.649" lon="3.35651">
        <ele>-1</ele>
        <time>2023-08-06T17:00:59Z</time>
      </trkpt>
      <trkpt lat="49.64897" lon="3.35656">
        <ele>-1</ele>
        <time>2023-08-06T17:01:00Z</time>
      </trkpt>
      <trkpt lat="49.64895" lon="3.35661">
        <ele>-1</ele>
        <time>2023-08-06T17:01:01Z</time>
      </trkpt>
      <trkpt lat="49.64895" lon="3.35665">
        <ele>-1</ele>
        <time>2023-08-06T17:01:02Z</time>
      </trkpt>
      <trkpt lat="49.64894" lon="3.3567">
        <ele>-1</ele>
        <time>2023-08-06T17:01:03Z</time>
      </trkpt>
      <trkpt lat="49.64893" lon="3.35675">
        <ele>-1</ele>
        <time>2023-08-06T17:01:04Z</time>
      </trkpt>
      <trkpt lat="49.64892" lon="3.35681">
        <ele>-1</ele>
        <time>2023-08-06T17:01:05Z</time>
      </trkpt>
      <trkpt lat="49.6489" lon="3.35695">
        <ele>-1</ele>
        <time>2023-08-06T17:01:08Z</time>
      </trkpt>
      <trkpt lat="49.6489" lon="3.357">
        <ele>-1</ele>
        <time>2023-08-06T17:01:09Z</time>
      </trkpt>
      <trkpt lat="49.64889" lon="3.35705">
        <ele>-0.80000000000001</ele>
        <time>2023-08-06T17:01:10Z</time>
      </trkpt>
      <trkpt lat="49.64887" lon="3.35715">
        <ele>-0.80000000000001</ele>
        <time>2023-08-06T17:01:12Z</time>
      </trkpt>
      <trkpt lat="49.64887" lon="3.35719">
        <ele>-0.80000000000001</ele>
        <time>2023-08-06T17:01:13Z</time>
      </trkpt>
      <trkpt lat="49.6488" lon="3.3577">
        <ele>-1.6</ele>
        <time>2023-08-06T17:01:23Z</time>
      </trkpt>
      <trkpt lat="49.64872" lon="3.3582">
        <ele>-1.4</ele>
        <time>2023-08-06T17:01:32Z</time>
      </trkpt>
      <trkpt lat="49.64871" lon="3.35825">
        <ele>-1.4</ele>
        <time>2023-08-06T17:01:33Z</time>
      </trkpt>
      <trkpt lat="49.64866" lon="3.35859">
        <ele>-1.4</ele>
        <time>2023-08-06T17:01:39Z</time>
      </trkpt>
      <trkpt lat="49.64865" lon="3.35864">
        <ele>-1.4</ele>
        <time>2023-08-06T17:01:40Z</time>
      </trkpt>
      <trkpt lat="49.64862" lon="3.35872">
        <ele>-1.4</ele>
        <time>2023-08-06T17:01:42Z</time>
      </trkpt>
      <trkpt lat="49.64859" lon="3.35877">
        <ele>-1.4</ele>
        <time>2023-08-06T17:01:43Z</time>
      </trkpt>
      <trkpt lat="49.64856" lon="3.35879">
        <ele>-1.4</ele>
        <time>2023-08-06T17:01:44Z</time>
      </trkpt>
      <trkpt lat="49.64853" lon="3.35881">
        <ele>-1.4</ele>
        <time>2023-08-06T17:01:45Z</time>
      </trkpt>
      <trkpt lat="49.6485" lon="3.35884">
        <ele>-1.2</ele>
        <time>2023-08-06T17:01:46Z</time>
      </trkpt>
      <trkpt lat="49.64847" lon="3.35886">
        <ele>-1.2</ele>
        <time>2023-08-06T17:01:47Z</time>
      </trkpt>
      <trkpt lat="49.64844" lon="3.35889">
        <ele>-1.2</ele>
        <time>2023-08-06T17:01:48Z</time>
      </trkpt>
      <trkpt lat="49.64841" lon="3.35893">
        <ele>-1.2</ele>
        <time>2023-08-06T17:01:49Z</time>
      </trkpt>
      <trkpt lat="49.64841" lon="3.35897">
        <ele>-1.2</ele>
        <time>2023-08-06T17:01:50Z</time>
      </trkpt>
      <trkpt lat="49.64841" lon="3.35901">
        <ele>-1.2</ele>
        <time>2023-08-06T17:01:51Z</time>
      </trkpt>
      <trkpt lat="49.64841" lon="3.35905">
        <ele>-1.2</ele>
        <time>2023-08-06T17:01:52Z</time>
      </trkpt>
      <trkpt lat="49.64841" lon="3.3591">
        <ele>-1.2</ele>
        <time>2023-08-06T17:01:53Z</time>
      </trkpt>
      <trkpt lat="49.64842" lon="3.35916">
        <ele>-1.2</ele>
        <time>2023-08-06T17:01:54Z</time>
      </trkpt>
      <trkpt lat="49.64842" lon="3.3592">
        <ele>-1.2</ele>
        <time>2023-08-06T17:01:55Z</time>
      </trkpt>
      <trkpt lat="49.64843" lon="3.35925">
        <ele>-1.2</ele>
        <time>2023-08-06T17:01:56Z</time>
      </trkpt>
      <trkpt lat="49.64843" lon="3.3593">
        <ele>-1.2</ele>
        <time>2023-08-06T17:01:57Z</time>
      </trkpt>
      <trkpt lat="49.64843" lon="3.35935">
        <ele>-1.2</ele>
        <time>2023-08-06T17:01:58Z</time>
      </trkpt>
      <trkpt lat="49.64845" lon="3.35949">
        <ele>-1.2</ele>
        <time>2023-08-06T17:02:01Z</time>
      </trkpt>
      <trkpt lat="49.64847" lon="3.35974">
        <ele>-1</ele>
        <time>2023-08-06T17:02:06Z</time>
      </trkpt>
      <trkpt lat="49.64849" lon="3.3602">
        <ele>-1.2</ele>
        <time>2023-08-06T17:02:15Z</time>
      </trkpt>
      <trkpt lat="49.64848" lon="3.36024">
        <ele>-1.2</ele>
        <time>2023-08-06T17:02:16Z</time>
      </trkpt>
      <trkpt lat="49.64846" lon="3.36028">
        <ele>-1.2</ele>
        <time>2023-08-06T17:02:17Z</time>
      </trkpt>
      <trkpt lat="49.64843" lon="3.3603">
        <ele>-1.2</ele>
        <time>2023-08-06T17:02:18Z</time>
      </trkpt>
      <trkpt lat="49.6484" lon="3.36031">
        <ele>-1.2</ele>
        <time>2023-08-06T17:02:19Z</time>
      </trkpt>
      <trkpt lat="49.64837" lon="3.36031">
        <ele>-1.2</ele>
        <time>2023-08-06T17:02:20Z</time>
      </trkpt>
      <trkpt lat="49.64833" lon="3.36032">
        <ele>-1.2</ele>
        <time>2023-08-06T17:02:21Z</time>
      </trkpt>
      <trkpt lat="49.6483" lon="3.36032">
        <ele>-1.2</ele>
        <time>2023-08-06T17:02:22Z</time>
      </trkpt>
      <trkpt lat="49.64828" lon="3.36032">
        <ele>-1.2</ele>
        <time>2023-08-06T17:02:23Z</time>
      </trkpt>
      <trkpt lat="49.64825" lon="3.36033">
        <ele>-1.2</ele>
        <time>2023-08-06T17:02:24Z</time>
      </trkpt>
      <trkpt lat="49.64822" lon="3.36033">
        <ele>-1</ele>
        <time>2023-08-06T17:02:25Z</time>
      </trkpt>
      <trkpt lat="49.64819" lon="3.36034">
        <ele>-1.2</ele>
        <time>2023-08-06T17:02:26Z</time>
      </trkpt>
      <trkpt lat="49.64816" lon="3.36034">
        <ele>-1</ele>
        <time>2023-08-06T17:02:27Z</time>
      </trkpt>
      <trkpt lat="49.648" lon="3.36036">
        <ele>-1</ele>
        <time>2023-08-06T17:02:32Z</time>
      </trkpt>
      <trkpt lat="49.64783" lon="3.36038">
        <ele>-1</ele>
        <time>2023-08-06T17:02:38Z</time>
      </trkpt>
      <trkpt lat="49.6478" lon="3.36038">
        <ele>-1</ele>
        <time>2023-08-06T17:02:39Z</time>
      </trkpt>
      <trkpt lat="49.64777" lon="3.3604">
        <ele>-1</ele>
        <time>2023-08-06T17:02:40Z</time>
      </trkpt>
      <trkpt lat="49.64772" lon="3.36044">
        <ele>-1.2</ele>
        <time>2023-08-06T17:02:42Z</time>
      </trkpt>
      <trkpt lat="49.6477" lon="3.36047">
        <ele>-1.2</ele>
        <time>2023-08-06T17:02:43Z</time>
      </trkpt>
      <trkpt lat="49.64769" lon="3.36051">
        <ele>-1.2</ele>
        <time>2023-08-06T17:02:44Z</time>
      </trkpt>
      <trkpt lat="49.64769" lon="3.36061">
        <ele>-1.2</ele>
        <time>2023-08-06T17:02:46Z</time>
      </trkpt>
      <trkpt lat="49.6477" lon="3.36065">
        <ele>-1.2</ele>
        <time>2023-08-06T17:02:47Z</time>
      </trkpt>
      <trkpt lat="49.6477" lon="3.36068">
        <ele>-1.2</ele>
        <time>2023-08-06T17:02:48Z</time>
      </trkpt>
      <trkpt lat="49.64771" lon="3.36072">
        <ele>-1.2</ele>
        <time>2023-08-06T17:02:49Z</time>
      </trkpt>
      <trkpt lat="49.64771" lon="3.36076">
        <ele>-1.2</ele>
        <time>2023-08-06T17:02:50Z</time>
      </trkpt>
      <trkpt lat="49.64772" lon="3.3608">
        <ele>-1.2</ele>
        <time>2023-08-06T17:02:51Z</time>
      </trkpt>
      <trkpt lat="49.64772" lon="3.36084">
        <ele>-1.2</ele>
        <time>2023-08-06T17:02:52Z</time>
      </trkpt>
      <trkpt lat="49.64772" lon="3.36088">
        <ele>-1.2</ele>
        <time>2023-08-06T17:02:53Z</time>
      </trkpt>
      <trkpt lat="49.64774" lon="3.36105">
        <ele>-1.2</ele>
        <time>2023-08-06T17:02:57Z</time>
      </trkpt>
      <trkpt lat="49.64781" lon="3.36163">
        <ele>-1.6</ele>
        <time>2023-08-06T17:03:10Z</time>
      </trkpt>
      <trkpt lat="49.64783" lon="3.36191">
        <ele>-1.2</ele>
        <time>2023-08-06T17:03:17Z</time>
      </trkpt>
      <trkpt lat="49.64784" lon="3.36196">
        <ele>-1.4</ele>
        <time>2023-08-06T17:03:18Z</time>
      </trkpt>
      <trkpt lat="49.64784" lon="3.362">
        <ele>-1.4</ele>
        <time>2023-08-06T17:03:19Z</time>
      </trkpt>
      <trkpt lat="49.64785" lon="3.36204">
        <ele>-1.4</ele>
        <time>2023-08-06T17:03:20Z</time>
      </trkpt>
      <trkpt lat="49.64785" lon="3.36207">
        <ele>-1.4</ele>
        <time>2023-08-06T17:03:21Z</time>
      </trkpt>
      <trkpt lat="49.64786" lon="3.36211">
        <ele>-1.2</ele>
        <time>2023-08-06T17:03:22Z</time>
      </trkpt>
      <trkpt lat="49.64786" lon="3.36216">
        <ele>-1.2</ele>
        <time>2023-08-06T17:03:23Z</time>
      </trkpt>
      <trkpt lat="49.64788" lon="3.36241">
        <ele>-1.4</ele>
        <time>2023-08-06T17:03:29Z</time>
      </trkpt>
      <trkpt lat="49.6479" lon="3.36259">
        <ele>-1.4</ele>
        <time>2023-08-06T17:03:33Z</time>
      </trkpt>
      <trkpt lat="49.64792" lon="3.36285">
        <ele>-1.4</ele>
        <time>2023-08-06T17:03:39Z</time>
      </trkpt>
      <trkpt lat="49.64796" lon="3.3631">
        <ele>-1.6</ele>
        <time>2023-08-06T17:03:45Z</time>
      </trkpt>
      <trkpt lat="49.64796" lon="3.36313">
        <ele>-1.6</ele>
        <time>2023-08-06T17:03:46Z</time>
      </trkpt>
      <trkpt lat="49.64797" lon="3.36318">
        <ele>-1.6</ele>
        <time>2023-08-06T17:03:47Z</time>
      </trkpt>
      <trkpt lat="49.64797" lon="3.36322">
        <ele>-1.8</ele>
        <time>2023-08-06T17:03:48Z</time>
      </trkpt>
      <trkpt lat="49.64798" lon="3.36326">
        <ele>-1.8</ele>
        <time>2023-08-06T17:03:49Z</time>
      </trkpt>
      <trkpt lat="49.64798" lon="3.3633">
        <ele>-1.8</ele>
        <time>2023-08-06T17:03:50Z</time>
      </trkpt>
      <trkpt lat="49.648" lon="3.36343">
        <ele>-1.6</ele>
        <time>2023-08-06T17:03:53Z</time>
      </trkpt>
      <trkpt lat="49.64802" lon="3.36372">
        <ele>-1.4</ele>
        <time>2023-08-06T17:04:00Z</time>
      </trkpt>
      <trkpt lat="49.64804" lon="3.36384">
        <ele>-1.4</ele>
        <time>2023-08-06T17:04:03Z</time>
      </trkpt>
      <trkpt lat="49.64804" lon="3.36387">
        <ele>-1.4</ele>
        <time>2023-08-06T17:04:04Z</time>
      </trkpt>
      <trkpt lat="49.64804" lon="3.36391">
        <ele>-1.4</ele>
        <time>2023-08-06T17:04:05Z</time>
      </trkpt>
      <trkpt lat="49.64806" lon="3.364">
        <ele>-1.4</ele>
        <time>2023-08-06T17:04:07Z</time>
      </trkpt>
      <trkpt lat="49.64806" lon="3.36404">
        <ele>-1.4</ele>
        <time>2023-08-06T17:04:08Z</time>
      </trkpt>
      <trkpt lat="49.64806" lon="3.36404">
        <ele>-1.4</ele>
        <time>2023-08-06T17:04:09Z</time>
      </trkpt>
      <trkpt lat="49.64807" lon="3.36413">
        <ele>-1.4</ele>
        <time>2023-08-06T17:04:10Z</time>
      </trkpt>
      <trkpt lat="49.64809" lon="3.36431">
        <ele>-1.4</ele>
        <time>2023-08-06T17:04:14Z</time>
      </trkpt>
      <trkpt lat="49.64812" lon="3.36472">
        <ele>-1.2</ele>
        <time>2023-08-06T17:04:23Z</time>
      </trkpt>
      <trkpt lat="49.64815" lon="3.36508">
        <ele>-1.2</ele>
        <time>2023-08-06T17:04:31Z</time>
      </trkpt>
      <trkpt lat="49.64816" lon="3.36512">
        <ele>-1.6</ele>
        <time>2023-08-06T17:04:32Z</time>
      </trkpt>
      <trkpt lat="49.6482" lon="3.36549">
        <ele>-1.4</ele>
        <time>2023-08-06T17:04:40Z</time>
      </trkpt>
      <trkpt lat="49.64822" lon="3.36579">
        <ele>-1.4</ele>
        <time>2023-08-06T17:04:47Z</time>
      </trkpt>
      <trkpt lat="49.64825" lon="3.36621">
        <ele>-1.4</ele>
        <time>2023-08-06T17:04:54Z</time>
      </trkpt>
      <trkpt lat="49.64828" lon="3.36635">
        <ele>-1.2</ele>
        <time>2023-08-06T17:04:57Z</time>
      </trkpt>
      <trkpt lat="49.64829" lon="3.36639">
        <ele>-1.2</ele>
        <time>2023-08-06T17:04:58Z</time>
      </trkpt>
      <trkpt lat="49.6483" lon="3.36644">
        <ele>-1.2</ele>
        <time>2023-08-06T17:04:59Z</time>
      </trkpt>
      <trkpt lat="49.6483" lon="3.36648">
        <ele>-1.2</ele>
        <time>2023-08-06T17:05:00Z</time>
      </trkpt>
      <trkpt lat="49.6483" lon="3.36653">
        <ele>-1.2</ele>
        <time>2023-08-06T17:05:01Z</time>
      </trkpt>
      <trkpt lat="49.64831" lon="3.36657">
        <ele>-1.2</ele>
        <time>2023-08-06T17:05:02Z</time>
      </trkpt>
      <trkpt lat="49.64831" lon="3.36662">
        <ele>-1.2</ele>
        <time>2023-08-06T17:05:03Z</time>
      </trkpt>
      <trkpt lat="49.64832" lon="3.36667">
        <ele>-1.2</ele>
        <time>2023-08-06T17:05:04Z</time>
      </trkpt>
      <trkpt lat="49.64833" lon="3.36695">
        <ele>-1.2</ele>
        <time>2023-08-06T17:05:10Z</time>
      </trkpt>
      <trkpt lat="49.64832" lon="3.36698">
        <ele>-1</ele>
        <time>2023-08-06T17:05:11Z</time>
      </trkpt>
      <trkpt lat="49.6483" lon="3.36699">
        <ele>-1</ele>
        <time>2023-08-06T17:05:12Z</time>
      </trkpt>
      <trkpt lat="49.64829" lon="3.36697">
        <ele>-1</ele>
        <time>2023-08-06T17:05:13Z</time>
      </trkpt>
      <trkpt lat="49.64828" lon="3.36695">
        <ele>-1</ele>
        <time>2023-08-06T17:05:14Z</time>
      </trkpt>
      <trkpt lat="49.64827" lon="3.36693">
        <ele>-1</ele>
        <time>2023-08-06T17:05:15Z</time>
      </trkpt>
      <trkpt lat="49.64825" lon="3.36687">
        <ele>-1</ele>
        <time>2023-08-06T17:05:17Z</time>
      </trkpt>
      <trkpt lat="49.64825" lon="3.36683">
        <ele>-0.80000000000001</ele>
        <time>2023-08-06T17:05:18Z</time>
      </trkpt>
      <trkpt lat="49.64825" lon="3.3668">
        <ele>-0.80000000000001</ele>
        <time>2023-08-06T17:05:19Z</time>
      </trkpt>
      <trkpt lat="49.64825" lon="3.36677">
        <ele>-0.80000000000001</ele>
        <time>2023-08-06T17:05:21Z</time>
      </trkpt>
      <trkpt lat="49.64823" lon="3.36671">
        <ele>-0.80000000000001</ele>
        <time>2023-08-06T17:05:22Z</time>
      </trkpt>
      <trkpt lat="49.64821" lon="3.36669">
        <ele>-0.80000000000001</ele>
        <time>2023-08-06T17:05:23Z</time>
      </trkpt>
      <trkpt lat="49.6482" lon="3.36667">
        <ele>-0.80000000000001</ele>
        <time>2023-08-06T17:05:24Z</time>
      </trkpt>
      <trkpt lat="49.64819" lon="3.36667">
        <ele>-0.80000000000001</ele>
        <time>2023-08-06T17:05:25Z</time>
      </trkpt>
      <trkpt lat="49.64817" lon="3.36666">
        <ele>-0.80000000000001</ele>
        <time>2023-08-06T17:05:26Z</time>
      </trkpt>
      <trkpt lat="49.64809" lon="3.36663">
        <ele>-0.60000000000002</ele>
        <time>2023-08-06T17:05:30Z</time>
      </trkpt>
      <trkpt lat="49.64808" lon="3.36663">
        <ele>-0.60000000000002</ele>
        <time>2023-08-06T17:05:31Z</time>
      </trkpt>
      <trkpt lat="49.64807" lon="3.36663">
        <ele>-0.60000000000002</ele>
        <time>2023-08-06T17:05:32Z</time>
      </trkpt>
      <trkpt lat="49.64805" lon="3.36663">
        <ele>-0.60000000000002</ele>
        <time>2023-08-06T17:05:33Z</time>
      </trkpt>
      <trkpt lat="49.64803" lon="3.36663">
        <ele>-0.60000000000002</ele>
        <time>2023-08-06T17:05:34Z</time>
      </trkpt>
      <trkpt lat="49.64802" lon="3.36661">
        <ele>-0.60000000000002</ele>
        <time>2023-08-06T17:05:35Z</time>
      </trkpt>
      <trkpt lat="49.648" lon="3.36659">
        <ele>-0.39999999999998</ele>
        <time>2023-08-06T17:05:36Z</time>
      </trkpt>
      <trkpt lat="49.64799" lon="3.36652">
        <ele>-0.39999999999998</ele>
        <time>2023-08-06T17:05:38Z</time>
      </trkpt>
      <trkpt lat="49.64798" lon="3.36648">
        <ele>-0.39999999999998</ele>
        <time>2023-08-06T17:05:39Z</time>
      </trkpt>
      <trkpt lat="49.64797" lon="3.36645">
        <ele>-0.39999999999998</ele>
        <time>2023-08-06T17:05:40Z</time>
      </trkpt>
      <trkpt lat="49.64797" lon="3.36641">
        <ele>-0.80000000000001</ele>
        <time>2023-08-06T17:05:41Z</time>
      </trkpt>
      <trkpt lat="49.6479" lon="3.36626">
        <ele>-0.80000000000001</ele>
        <time>2023-08-06T17:05:45Z</time>
      </trkpt>
      <trkpt lat="49.64786" lon="3.3662">
        <ele>-1</ele>
        <time>2023-08-06T17:05:46Z</time>
      </trkpt>
      <trkpt lat="49.64783" lon="3.36614">
        <ele>-1</ele>
        <time>2023-08-06T17:05:47Z</time>
      </trkpt>
      <trkpt lat="49.64777" lon="3.36601">
        <ele>-1.2</ele>
        <time>2023-08-06T17:05:50Z</time>
      </trkpt>
      <trkpt lat="49.64774" lon="3.36597">
        <ele>-1.2</ele>
        <time>2023-08-06T17:05:51Z</time>
      </trkpt>
      <trkpt lat="49.64773" lon="3.36593">
        <ele>-1.4</ele>
        <time>2023-08-06T17:05:52Z</time>
      </trkpt>
      <trkpt lat="49.6477" lon="3.3659">
        <ele>-1.4</ele>
        <time>2023-08-06T17:05:53Z</time>
      </trkpt>
      <trkpt lat="49.64755" lon="3.36562">
        <ele>-1.6</ele>
        <time>2023-08-06T17:06:00Z</time>
      </trkpt>
      <trkpt lat="49.64746" lon="3.36542">
        <ele>-1.6</ele>
        <time>2023-08-06T17:06:06Z</time>
      </trkpt>
      <trkpt lat="49.64745" lon="3.36538">
        <ele>-1.6</ele>
        <time>2023-08-06T17:06:07Z</time>
      </trkpt>
      <trkpt lat="49.64743" lon="3.36535">
        <ele>-1.6</ele>
        <time>2023-08-06T17:06:08Z</time>
      </trkpt>
      <trkpt lat="49.64742" lon="3.36531">
        <ele>-1.6</ele>
        <time>2023-08-06T17:06:09Z</time>
      </trkpt>
      <trkpt lat="49.6474" lon="3.36528">
        <ele>-1.6</ele>
        <time>2023-08-06T17:06:10Z</time>
      </trkpt>
      <trkpt lat="49.64738" lon="3.36524">
        <ele>-1.6</ele>
        <time>2023-08-06T17:06:11Z</time>
      </trkpt>
      <trkpt lat="49.64736" lon="3.36521">
        <ele>-1.6</ele>
        <time>2023-08-06T17:06:12Z</time>
      </trkpt>
      <trkpt lat="49.6473" lon="3.36511">
        <ele>-1.4</ele>
        <time>2023-08-06T17:06:15Z</time>
      </trkpt>
      <trkpt lat="49.64718" lon="3.36491">
        <ele>-1.2</ele>
        <time>2023-08-06T17:06:21Z</time>
      </trkpt>
      <trkpt lat="49.64712" lon="3.36483">
        <ele>-1</ele>
        <time>2023-08-06T17:06:24Z</time>
      </trkpt>
      <trkpt lat="49.6471" lon="3.36481">
        <ele>-1</ele>
        <time>2023-08-06T17:06:25Z</time>
      </trkpt>
      <trkpt lat="49.64708" lon="3.36478">
        <ele>-1</ele>
        <time>2023-08-06T17:06:26Z</time>
      </trkpt>
      <trkpt lat="49.64706" lon="3.36476">
        <ele>-1</ele>
        <time>2023-08-06T17:06:27Z</time>
      </trkpt>
      <trkpt lat="49.64703" lon="3.36473">
        <ele>-1</ele>
        <time>2023-08-06T17:06:28Z</time>
      </trkpt>
      <trkpt lat="49.64701" lon="3.36471">
        <ele>-1</ele>
        <time>2023-08-06T17:06:29Z</time>
      </trkpt>
      <trkpt lat="49.64701" lon="3.36471">
        <ele>-1</ele>
        <time>2023-08-06T17:06:30Z</time>
      </trkpt>
      <trkpt lat="49.64699" lon="3.36469">
        <ele>-1</ele>
        <time>2023-08-06T17:06:31Z</time>
      </trkpt>
      <trkpt lat="49.64695" lon="3.36464">
        <ele>-1</ele>
        <time>2023-08-06T17:06:32Z</time>
      </trkpt>
      <trkpt lat="49.64691" lon="3.3646">
        <ele>-1</ele>
        <time>2023-08-06T17:06:34Z</time>
      </trkpt>
      <trkpt lat="49.64687" lon="3.36455">
        <ele>-1</ele>
        <time>2023-08-06T17:06:36Z</time>
      </trkpt>
      <trkpt lat="49.64672" lon="3.36437">
        <ele>-1</ele>
        <time>2023-08-06T17:06:43Z</time>
      </trkpt>
      <trkpt lat="49.64661" lon="3.36425">
        <ele>-0.80000000000001</ele>
        <time>2023-08-06T17:06:48Z</time>
      </trkpt>
      <trkpt lat="49.64659" lon="3.36423">
        <ele>-0.60000000000002</ele>
        <time>2023-08-06T17:06:49Z</time>
      </trkpt>
      <trkpt lat="49.64657" lon="3.36422">
        <ele>-0.39999999999998</ele>
        <time>2023-08-06T17:06:50Z</time>
      </trkpt>
      <trkpt lat="49.64655" lon="3.36422">
        <ele>-0.39999999999998</ele>
        <time>2023-08-06T17:06:51Z</time>
      </trkpt>
      <trkpt lat="49.64653" lon="3.36424">
        <ele>-0.19999999999999</ele>
        <time>2023-08-06T17:06:52Z</time>
      </trkpt>
      <trkpt lat="49.64652" lon="3.36426">
        <ele>-0.19999999999999</ele>
        <time>2023-08-06T17:06:53Z</time>
      </trkpt>
      <trkpt lat="49.6465" lon="3.36427">
        <ele>-0.19999999999999</ele>
        <time>2023-08-06T17:06:54Z</time>
      </trkpt>
      <trkpt lat="49.64649" lon="3.36429">
        <ele>-0.19999999999999</ele>
        <time>2023-08-06T17:06:55Z</time>
      </trkpt>
      <trkpt lat="49.64648" lon="3.36431">
        <ele>-0.19999999999999</ele>
        <time>2023-08-06T17:06:56Z</time>
      </trkpt>
      <trkpt lat="49.64647" lon="3.36433">
        <ele>-0.19999999999999</ele>
        <time>2023-08-06T17:06:57Z</time>
      </trkpt>
      <trkpt lat="49.64646" lon="3.36435">
        <ele>-0.19999999999999</ele>
        <time>2023-08-06T17:06:58Z</time>
      </trkpt>
      <trkpt lat="49.64646" lon="3.36437">
        <ele>-0.19999999999999</ele>
        <time>2023-08-06T17:06:59Z</time>
      </trkpt>
      <trkpt lat="49.64645" lon="3.36439">
        <ele>-0.19999999999999</ele>
        <time>2023-08-06T17:07:00Z</time>
      </trkpt>
      <trkpt lat="49.64645" lon="3.36439">
        <ele>-0.19999999999999</ele>
        <time>2023-08-06T17:07:01Z</time>
      </trkpt>
      <trkpt lat="49.64643" lon="3.36443">
        <ele>-0.19999999999999</ele>
        <time>2023-08-06T17:07:02Z</time>
      </trkpt>
      <trkpt lat="49.64642" lon="3.36445">
        <ele>-0.19999999999999</ele>
        <time>2023-08-06T17:07:03Z</time>
      </trkpt>
      <trkpt lat="49.64641" lon="3.36447">
        <ele>0.19999999999999</ele>
        <time>2023-08-06T17:07:04Z</time>
      </trkpt>
      <trkpt lat="49.64641" lon="3.36449">
        <ele>0.19999999999999</ele>
        <time>2023-08-06T17:07:05Z</time>
      </trkpt>
      <trkpt lat="49.6464" lon="3.36451">
        <ele>0.19999999999999</ele>
        <time>2023-08-06T17:07:06Z</time>
      </trkpt>
      <trkpt lat="49.64638" lon="3.36455">
        <ele>0.39999999999998</ele>
        <time>2023-08-06T17:07:08Z</time>
      </trkpt>
      <trkpt lat="49.64637" lon="3.36457">
        <ele>0.39999999999998</ele>
        <time>2023-08-06T17:07:09Z</time>
      </trkpt>
      <trkpt lat="49.64635" lon="3.3646">
        <ele>0.60000000000002</ele>
        <time>2023-08-06T17:07:11Z</time>
      </trkpt>
      <trkpt lat="49.64633" lon="3.36465">
        <ele>0.80000000000001</ele>
        <time>2023-08-06T17:07:13Z</time>
      </trkpt>
      <trkpt lat="49.64633" lon="3.36467">
        <ele>0.80000000000001</ele>
        <time>2023-08-06T17:07:14Z</time>
      </trkpt>
      <trkpt lat="49.64633" lon="3.36467">
        <ele>1</ele>
        <time>2023-08-06T17:07:15Z</time>
      </trkpt>
      <trkpt lat="49.6463" lon="3.36474">
        <ele>0.80000000000001</ele>
        <time>2023-08-06T17:07:17Z</time>
      </trkpt>
      <trkpt lat="49.64629" lon="3.36476">
        <ele>0.80000000000001</ele>
        <time>2023-08-06T17:07:18Z</time>
      </trkpt>
      <trkpt lat="49.64629" lon="3.36478">
        <ele>1</ele>
        <time>2023-08-06T17:07:19Z</time>
      </trkpt>
      <trkpt lat="49.64628" lon="3.36479">
        <ele>1</ele>
        <time>2023-08-06T17:07:20Z</time>
      </trkpt>
      <trkpt lat="49.64628" lon="3.36479">
        <ele>1.2</ele>
        <time>2023-08-06T17:07:21Z</time>
      </trkpt>
      <trkpt lat="49.64628" lon="3.36479">
        <ele>1.4</ele>
        <time>2023-08-06T17:07:23Z</time>
      </trkpt>
      <trkpt lat="49.64617" lon="3.365">
        <ele>3</ele>
        <time>2023-08-06T17:07:55Z</time>
      </trkpt>
      <trkpt lat="49.64613" lon="3.36506">
        <ele>3.2</ele>
        <time>2023-08-06T17:07:57Z</time>
      </trkpt>
      <trkpt lat="49.6461" lon="3.3651">
        <ele>3.4</ele>
        <time>2023-08-06T17:07:59Z</time>
      </trkpt>
      <trkpt lat="49.64609" lon="3.36512">
        <ele>3.4</ele>
        <time>2023-08-06T17:08:00Z</time>
      </trkpt>
      <trkpt lat="49.64606" lon="3.36519">
        <ele>3.8</ele>
        <time>2023-08-06T17:08:04Z</time>
      </trkpt>
      <trkpt lat="49.64605" lon="3.3652">
        <ele>4</ele>
        <time>2023-08-06T17:08:05Z</time>
      </trkpt>
      <trkpt lat="49.64603" lon="3.36524">
        <ele>4.2</ele>
        <time>2023-08-06T17:08:07Z</time>
      </trkpt>
      <trkpt lat="49.64599" lon="3.36529">
        <ele>4.4</ele>
        <time>2023-08-06T17:08:11Z</time>
      </trkpt>
      <trkpt lat="49.64595" lon="3.36536">
        <ele>4.8</ele>
        <time>2023-08-06T17:08:15Z</time>
      </trkpt>
      <trkpt lat="49.64595" lon="3.36537">
        <ele>5</ele>
        <time>2023-08-06T17:08:16Z</time>
      </trkpt>
      <trkpt lat="49.64594" lon="3.36538">
        <ele>5</ele>
        <time>2023-08-06T17:08:17Z</time>
      </trkpt>
      <trkpt lat="49.64594" lon="3.36539">
        <ele>5.2</ele>
        <time>2023-08-06T17:08:18Z</time>
      </trkpt>
      <trkpt lat="49.64592" lon="3.36542">
        <ele>5.4</ele>
        <time>2023-08-06T17:08:19Z</time>
      </trkpt>
      <trkpt lat="49.64591" lon="3.36546">
        <ele>6</ele>
        <time>2023-08-06T17:08:21Z</time>
      </trkpt>
      <trkpt lat="49.6459" lon="3.36548">
        <ele>6.2</ele>
        <time>2023-08-06T17:08:22Z</time>
      </trkpt>
      <trkpt lat="49.64589" lon="3.3655">
        <ele>6.4</ele>
        <time>2023-08-06T17:08:23Z</time>
      </trkpt>
      <trkpt lat="49.64589" lon="3.36551">
        <ele>6.6</ele>
        <time>2023-08-06T17:08:24Z</time>
      </trkpt>
      <trkpt lat="49.64588" lon="3.36553">
        <ele>6.8</ele>
        <time>2023-08-06T17:08:25Z</time>
      </trkpt>
      <trkpt lat="49.64587" lon="3.36555">
        <ele>7</ele>
        <time>2023-08-06T17:08:26Z</time>
      </trkpt>
      <trkpt lat="49.64586" lon="3.36557">
        <ele>7</ele>
        <time>2023-08-06T17:08:27Z</time>
      </trkpt>
      <trkpt lat="49.64586" lon="3.36557">
        <ele>7.2</ele>
        <time>2023-08-06T17:08:28Z</time>
      </trkpt>
      <trkpt lat="49.64585" lon="3.3656">
        <ele>7.2</ele>
        <time>2023-08-06T17:08:29Z</time>
      </trkpt>
      <trkpt lat="49.64585" lon="3.3656">
        <ele>7.4</ele>
        <time>2023-08-06T17:08:30Z</time>
      </trkpt>
      <trkpt lat="49.64584" lon="3.36563">
        <ele>7.4</ele>
        <time>2023-08-06T17:08:31Z</time>
      </trkpt>
      <trkpt lat="49.64582" lon="3.36565">
        <ele>7.6</ele>
        <time>2023-08-06T17:08:32Z</time>
      </trkpt>
      <trkpt lat="49.64581" lon="3.36566">
        <ele>7.8</ele>
        <time>2023-08-06T17:08:33Z</time>
      </trkpt>
      <trkpt lat="49.6458" lon="3.36567">
        <ele>8</ele>
        <time>2023-08-06T17:08:34Z</time>
      </trkpt>
      <trkpt lat="49.64579" lon="3.36568">
        <ele>8</ele>
        <time>2023-08-06T17:08:35Z</time>
      </trkpt>
      <trkpt lat="49.64578" lon="3.3657">
        <ele>8</ele>
        <time>2023-08-06T17:08:36Z</time>
      </trkpt>
      <trkpt lat="49.64577" lon="3.36572">
        <ele>8.4</ele>
        <time>2023-08-06T17:08:37Z</time>
      </trkpt>
      <trkpt lat="49.64575" lon="3.36573">
        <ele>8.6</ele>
        <time>2023-08-06T17:08:38Z</time>
      </trkpt>
      <trkpt lat="49.64573" lon="3.36576">
        <ele>8.8</ele>
        <time>2023-08-06T17:08:39Z</time>
      </trkpt>
      <trkpt lat="49.64572" lon="3.36579">
        <ele>8.8</ele>
        <time>2023-08-06T17:08:40Z</time>
      </trkpt>
      <trkpt lat="49.64572" lon="3.36581">
        <ele>9</ele>
        <time>2023-08-06T17:08:41Z</time>
      </trkpt>
      <trkpt lat="49.64571" lon="3.36582">
        <ele>9.2</ele>
        <time>2023-08-06T17:08:42Z</time>
      </trkpt>
      <trkpt lat="49.64571" lon="3.36583">
        <ele>9.2</ele>
        <time>2023-08-06T17:08:43Z</time>
      </trkpt>
      <trkpt lat="49.6457" lon="3.36586">
        <ele>9.4</ele>
        <time>2023-08-06T17:08:44Z</time>
      </trkpt>
      <trkpt lat="49.64569" lon="3.36587">
        <ele>9.6</ele>
        <time>2023-08-06T17:08:45Z</time>
      </trkpt>
      <trkpt lat="49.64568" lon="3.36589">
        <ele>10</ele>
        <time>2023-08-06T17:08:46Z</time>
      </trkpt>
      <trkpt lat="49.64567" lon="3.3659">
        <ele>10</ele>
        <time>2023-08-06T17:08:47Z</time>
      </trkpt>
      <trkpt lat="49.64567" lon="3.36591">
        <ele>10.2</ele>
        <time>2023-08-06T17:08:48Z</time>
      </trkpt>
      <trkpt lat="49.64566" lon="3.36593">
        <ele>10.2</ele>
        <time>2023-08-06T17:08:49Z</time>
      </trkpt>
      <trkpt lat="49.64565" lon="3.36594">
        <ele>10.2</ele>
        <time>2023-08-06T17:08:50Z</time>
      </trkpt>
      <trkpt lat="49.64565" lon="3.36596">
        <ele>10.4</ele>
        <time>2023-08-06T17:08:51Z</time>
      </trkpt>
      <trkpt lat="49.64564" lon="3.36597">
        <ele>10.4</ele>
        <time>2023-08-06T17:08:52Z</time>
      </trkpt>
      <trkpt lat="49.64563" lon="3.36599">
        <ele>10.4</ele>
        <time>2023-08-06T17:08:53Z</time>
      </trkpt>
      <trkpt lat="49.64562" lon="3.36601">
        <ele>10.6</ele>
        <time>2023-08-06T17:08:54Z</time>
      </trkpt>
      <trkpt lat="49.64561" lon="3.36603">
        <ele>10.8</ele>
        <time>2023-08-06T17:08:55Z</time>
      </trkpt>
      <trkpt lat="49.6456" lon="3.36604">
        <ele>11</ele>
        <time>2023-08-06T17:08:56Z</time>
      </trkpt>
      <trkpt lat="49.64559" lon="3.36606">
        <ele>11.4</ele>
        <time>2023-08-06T17:08:57Z</time>
      </trkpt>
      <trkpt lat="49.64559" lon="3.36606">
        <ele>11.6</ele>
        <time>2023-08-06T17:08:58Z</time>
      </trkpt>
      <trkpt lat="49.64558" lon="3.36609">
        <ele>11.6</ele>
        <time>2023-08-06T17:08:59Z</time>
      </trkpt>
      <trkpt lat="49.64557" lon="3.3661">
        <ele>11.8</ele>
        <time>2023-08-06T17:09:00Z</time>
      </trkpt>
      <trkpt lat="49.64557" lon="3.36611">
        <ele>11.8</ele>
        <time>2023-08-06T17:09:01Z</time>
      </trkpt>
      <trkpt lat="49.64557" lon="3.36613">
        <ele>12</ele>
        <time>2023-08-06T17:09:02Z</time>
      </trkpt>
      <trkpt lat="49.64556" lon="3.36614">
        <ele>12.2</ele>
        <time>2023-08-06T17:09:03Z</time>
      </trkpt>
      <trkpt lat="49.64555" lon="3.36616">
        <ele>12.4</ele>
        <time>2023-08-06T17:09:04Z</time>
      </trkpt>
      <trkpt lat="49.64554" lon="3.36618">
        <ele>12.4</ele>
        <time>2023-08-06T17:09:05Z</time>
      </trkpt>
      <trkpt lat="49.64553" lon="3.36619">
        <ele>12.6</ele>
        <time>2023-08-06T17:09:06Z</time>
      </trkpt>
      <trkpt lat="49.64552" lon="3.36621">
        <ele>12.8</ele>
        <time>2023-08-06T17:09:07Z</time>
      </trkpt>
      <trkpt lat="49.64551" lon="3.36622">
        <ele>12.8</ele>
        <time>2023-08-06T17:09:08Z</time>
      </trkpt>
      <trkpt lat="49.6455" lon="3.36623">
        <ele>13</ele>
        <time>2023-08-06T17:09:09Z</time>
      </trkpt>
      <trkpt lat="49.6455" lon="3.36623">
        <ele>13</ele>
        <time>2023-08-06T17:09:10Z</time>
      </trkpt>
      <trkpt lat="49.64549" lon="3.36626">
        <ele>13</ele>
        <time>2023-08-06T17:09:11Z</time>
      </trkpt>
      <trkpt lat="49.64548" lon="3.36627">
        <ele>13</ele>
        <time>2023-08-06T17:09:12Z</time>
      </trkpt>
      <trkpt lat="49.64548" lon="3.36627">
        <ele>13</ele>
        <time>2023-08-06T17:09:13Z</time>
      </trkpt>
      <trkpt lat="49.64547" lon="3.3663">
        <ele>13.2</ele>
        <time>2023-08-06T17:09:14Z</time>
      </trkpt>
      <trkpt lat="49.64546" lon="3.36631">
        <ele>13.2</ele>
        <time>2023-08-06T17:09:15Z</time>
      </trkpt>
      <trkpt lat="49.64545" lon="3.36633">
        <ele>13.4</ele>
        <time>2023-08-06T17:09:16Z</time>
      </trkpt>
      <trkpt lat="49.64544" lon="3.36634">
        <ele>13.6</ele>
        <time>2023-08-06T17:09:17Z</time>
      </trkpt>
      <trkpt lat="49.64544" lon="3.36636">
        <ele>13.8</ele>
        <time>2023-08-06T17:09:18Z</time>
      </trkpt>
      <trkpt lat="49.64543" lon="3.36638">
        <ele>13.8</ele>
        <time>2023-08-06T17:09:19Z</time>
      </trkpt>
      <trkpt lat="49.64542" lon="3.36639">
        <ele>13.8</ele>
        <time>2023-08-06T17:09:20Z</time>
      </trkpt>
      <trkpt lat="49.64541" lon="3.36641">
        <ele>13.8</ele>
        <time>2023-08-06T17:09:21Z</time>
      </trkpt>
      <trkpt lat="49.6454" lon="3.36644">
        <ele>14.2</ele>
        <time>2023-08-06T17:09:22Z</time>
      </trkpt>
      <trkpt lat="49.64539" lon="3.36646">
        <ele>14.4</ele>
        <time>2023-08-06T17:09:23Z</time>
      </trkpt>
      <trkpt lat="49.64538" lon="3.36648">
        <ele>14.4</ele>
        <time>2023-08-06T17:09:24Z</time>
      </trkpt>
      <trkpt lat="49.64536" lon="3.3665">
        <ele>14.6</ele>
        <time>2023-08-06T17:09:25Z</time>
      </trkpt>
      <trkpt lat="49.64535" lon="3.36652">
        <ele>14.6</ele>
        <time>2023-08-06T17:09:26Z</time>
      </trkpt>
      <trkpt lat="49.64534" lon="3.36654">
        <ele>14.8</ele>
        <time>2023-08-06T17:09:27Z</time>
      </trkpt>
      <trkpt lat="49.64533" lon="3.36657">
        <ele>14.8</ele>
        <time>2023-08-06T17:09:28Z</time>
      </trkpt>
      <trkpt lat="49.64532" lon="3.36659">
        <ele>15</ele>
        <time>2023-08-06T17:09:29Z</time>
      </trkpt>
      <trkpt lat="49.64532" lon="3.3666">
        <ele>15</ele>
        <time>2023-08-06T17:09:30Z</time>
      </trkpt>
      <trkpt lat="49.64531" lon="3.36662">
        <ele>15.2</ele>
        <time>2023-08-06T17:09:31Z</time>
      </trkpt>
      <trkpt lat="49.6453" lon="3.36664">
        <ele>15.6</ele>
        <time>2023-08-06T17:09:32Z</time>
      </trkpt>
      <trkpt lat="49.64528" lon="3.36666">
        <ele>15.8</ele>
        <time>2023-08-06T17:09:33Z</time>
      </trkpt>
      <trkpt lat="49.64527" lon="3.36667">
        <ele>16</ele>
        <time>2023-08-06T17:09:34Z</time>
      </trkpt>
      <trkpt lat="49.64526" lon="3.3667">
        <ele>16.2</ele>
        <time>2023-08-06T17:09:35Z</time>
      </trkpt>
      <trkpt lat="49.64525" lon="3.36672">
        <ele>16.4</ele>
        <time>2023-08-06T17:09:36Z</time>
      </trkpt>
      <trkpt lat="49.64524" lon="3.36673">
        <ele>16.6</ele>
        <time>2023-08-06T17:09:37Z</time>
      </trkpt>
      <trkpt lat="49.64524" lon="3.36675">
        <ele>17</ele>
        <time>2023-08-06T17:09:38Z</time>
      </trkpt>
      <trkpt lat="49.64523" lon="3.36676">
        <ele>17.2</ele>
        <time>2023-08-06T17:09:39Z</time>
      </trkpt>
      <trkpt lat="49.64522" lon="3.36677">
        <ele>17.4</ele>
        <time>2023-08-06T17:09:40Z</time>
      </trkpt>
      <trkpt lat="49.64521" lon="3.36679">
        <ele>17.6</ele>
        <time>2023-08-06T17:09:41Z</time>
      </trkpt>
      <trkpt lat="49.64521" lon="3.36679">
        <ele>17.8</ele>
        <time>2023-08-06T17:09:42Z</time>
      </trkpt>
      <trkpt lat="49.64521" lon="3.36679">
        <ele>17.8</ele>
        <time>2023-08-06T17:09:43Z</time>
      </trkpt>
      <trkpt lat="49.64448" lon="3.36747">
        <ele>30.2</ele>
        <time>2023-08-06T17:12:10Z</time>
      </trkpt>
      <trkpt lat="49.64446" lon="3.36748">
        <ele>30.2</ele>
        <time>2023-08-06T17:12:11Z</time>
      </trkpt>
      <trkpt lat="49.64445" lon="3.36749">
        <ele>30.2</ele>
        <time>2023-08-06T17:12:12Z</time>
      </trkpt>
      <trkpt lat="49.64444" lon="3.36749">
        <ele>30.2</ele>
        <time>2023-08-06T17:12:13Z</time>
      </trkpt>
      <trkpt lat="49.64432" lon="3.36757">
        <ele>30.4</ele>
        <time>2023-08-06T17:12:21Z</time>
      </trkpt>
      <trkpt lat="49.6443" lon="3.36761">
        <ele>30.4</ele>
        <time>2023-08-06T17:12:23Z</time>
      </trkpt>
      <trkpt lat="49.64429" lon="3.36763">
        <ele>30.6</ele>
        <time>2023-08-06T17:12:24Z</time>
      </trkpt>
      <trkpt lat="49.64429" lon="3.36765">
        <ele>30.6</ele>
        <time>2023-08-06T17:12:25Z</time>
      </trkpt>
      <trkpt lat="49.64428" lon="3.36768">
        <ele>30.6</ele>
        <time>2023-08-06T17:12:26Z</time>
      </trkpt>
      <trkpt lat="49.64429" lon="3.36771">
        <ele>30.8</ele>
        <time>2023-08-06T17:12:27Z</time>
      </trkpt>
      <trkpt lat="49.64429" lon="3.36774">
        <ele>30.8</ele>
        <time>2023-08-06T17:12:28Z</time>
      </trkpt>
      <trkpt lat="49.64429" lon="3.36776">
        <ele>30.8</ele>
        <time>2023-08-06T17:12:29Z</time>
      </trkpt>
      <trkpt lat="49.6443" lon="3.36796">
        <ele>31.2</ele>
        <time>2023-08-06T17:12:35Z</time>
      </trkpt>
      <trkpt lat="49.6443" lon="3.368">
        <ele>31.2</ele>
        <time>2023-08-06T17:12:36Z</time>
      </trkpt>
      <trkpt lat="49.64428" lon="3.36824">
        <ele>31.8</ele>
        <time>2023-08-06T17:12:43Z</time>
      </trkpt>
      <trkpt lat="49.64427" lon="3.36831">
        <ele>31.8</ele>
        <time>2023-08-06T17:12:45Z</time>
      </trkpt>
      <trkpt lat="49.64424" lon="3.36848">
        <ele>31.8</ele>
        <time>2023-08-06T17:12:50Z</time>
      </trkpt>
      <trkpt lat="49.64423" lon="3.36851">
        <ele>31.8</ele>
        <time>2023-08-06T17:12:51Z</time>
      </trkpt>
      <trkpt lat="49.64423" lon="3.36855">
        <ele>32</ele>
        <time>2023-08-06T17:12:52Z</time>
      </trkpt>
      <trkpt lat="49.64417" lon="3.36881">
        <ele>32.2</ele>
        <time>2023-08-06T17:12:59Z</time>
      </trkpt>
      <trkpt lat="49.64404" lon="3.36923">
        <ele>32.4</ele>
        <time>2023-08-06T17:13:09Z</time>
      </trkpt>
      <trkpt lat="49.64389" lon="3.36954">
        <ele>32.4</ele>
        <time>2023-08-06T17:13:17Z</time>
      </trkpt>
      <trkpt lat="49.64378" lon="3.36971">
        <ele>32.6</ele>
        <time>2023-08-06T17:13:22Z</time>
      </trkpt>
      <trkpt lat="49.64374" lon="3.36978">
        <ele>32.8</ele>
        <time>2023-08-06T17:13:24Z</time>
      </trkpt>
      <trkpt lat="49.64369" lon="3.36985">
        <ele>33</ele>
        <time>2023-08-06T17:13:26Z</time>
      </trkpt>
      <trkpt lat="49.6436" lon="3.36998">
        <ele>33.4</ele>
        <time>2023-08-06T17:13:30Z</time>
      </trkpt>
      <trkpt lat="49.64358" lon="3.37002">
        <ele>33.4</ele>
        <time>2023-08-06T17:13:31Z</time>
      </trkpt>
      <trkpt lat="49.64356" lon="3.37006">
        <ele>33.6</ele>
        <time>2023-08-06T17:13:32Z</time>
      </trkpt>
      <trkpt lat="49.64354" lon="3.37009">
        <ele>33.6</ele>
        <time>2023-08-06T17:13:33Z</time>
      </trkpt>
      <trkpt lat="49.64342" lon="3.37026">
        <ele>33.8</ele>
        <time>2023-08-06T17:13:38Z</time>
      </trkpt>
      <trkpt lat="49.64334" lon="3.3704">
        <ele>34</ele>
        <time>2023-08-06T17:13:42Z</time>
      </trkpt>
      <trkpt lat="49.6433" lon="3.37047">
        <ele>34</ele>
        <time>2023-08-06T17:13:44Z</time>
      </trkpt>
      <trkpt lat="49.64328" lon="3.3705">
        <ele>34</ele>
        <time>2023-08-06T17:13:45Z</time>
      </trkpt>
      <trkpt lat="49.64326" lon="3.37063">
        <ele>34.2</ele>
        <time>2023-08-06T17:13:48Z</time>
      </trkpt>
      <trkpt lat="49.64327" lon="3.37067">
        <ele>34.2</ele>
        <time>2023-08-06T17:13:49Z</time>
      </trkpt>
      <trkpt lat="49.64348" lon="3.37092">
        <ele>34.2</ele>
        <time>2023-08-06T17:13:57Z</time>
      </trkpt>
      <trkpt lat="49.64375" lon="3.3712">
        <ele>34.4</ele>
        <time>2023-08-06T17:14:06Z</time>
      </trkpt>
      <trkpt lat="49.64413" lon="3.37151">
        <ele>34.2</ele>
        <time>2023-08-06T17:14:17Z</time>
      </trkpt>
      <trkpt lat="49.64429" lon="3.37165">
        <ele>34.2</ele>
        <time>2023-08-06T17:14:22Z</time>
      </trkpt>
      <trkpt lat="49.64432" lon="3.37167">
        <ele>34</ele>
        <time>2023-08-06T17:14:23Z</time>
      </trkpt>
      <trkpt lat="49.64435" lon="3.37169">
        <ele>34</ele>
        <time>2023-08-06T17:14:24Z</time>
      </trkpt>
      <trkpt lat="49.64438" lon="3.37172">
        <ele>34</ele>
        <time>2023-08-06T17:14:25Z</time>
      </trkpt>
      <trkpt lat="49.64441" lon="3.37175">
        <ele>34</ele>
        <time>2023-08-06T17:14:26Z</time>
      </trkpt>
      <trkpt lat="49.64444" lon="3.37177">
        <ele>34</ele>
        <time>2023-08-06T17:14:27Z</time>
      </trkpt>
      <trkpt lat="49.64447" lon="3.3718">
        <ele>33.8</ele>
        <time>2023-08-06T17:14:28Z</time>
      </trkpt>
      <trkpt lat="49.6445" lon="3.37183">
        <ele>33.8</ele>
        <time>2023-08-06T17:14:29Z</time>
      </trkpt>
      <trkpt lat="49.64453" lon="3.37186">
        <ele>33.6</ele>
        <time>2023-08-06T17:14:30Z</time>
      </trkpt>
      <trkpt lat="49.64455" lon="3.37189">
        <ele>33.6</ele>
        <time>2023-08-06T17:14:31Z</time>
      </trkpt>
      <trkpt lat="49.64464" lon="3.37198">
        <ele>33.2</ele>
        <time>2023-08-06T17:14:34Z</time>
      </trkpt>
      <trkpt lat="49.64467" lon="3.37202">
        <ele>33</ele>
        <time>2023-08-06T17:14:35Z</time>
      </trkpt>
      <trkpt lat="49.64495" lon="3.37228">
        <ele>33.2</ele>
        <time>2023-08-06T17:14:43Z</time>
      </trkpt>
      <trkpt lat="49.64517" lon="3.37247">
        <ele>33.4</ele>
        <time>2023-08-06T17:14:50Z</time>
      </trkpt>
      <trkpt lat="49.64521" lon="3.37249">
        <ele>33.4</ele>
        <time>2023-08-06T17:14:51Z</time>
      </trkpt>
      <trkpt lat="49.64524" lon="3.37251">
        <ele>33.4</ele>
        <time>2023-08-06T17:14:52Z</time>
      </trkpt>
      <trkpt lat="49.64527" lon="3.37252">
        <ele>33.4</ele>
        <time>2023-08-06T17:14:53Z</time>
      </trkpt>
      <trkpt lat="49.64531" lon="3.37253">
        <ele>33.6</ele>
        <time>2023-08-06T17:14:54Z</time>
      </trkpt>
      <trkpt lat="49.64534" lon="3.37254">
        <ele>33.6</ele>
        <time>2023-08-06T17:14:55Z</time>
      </trkpt>
      <trkpt lat="49.64537" lon="3.37255">
        <ele>33.6</ele>
        <time>2023-08-06T17:14:56Z</time>
      </trkpt>
      <trkpt lat="49.64541" lon="3.37256">
        <ele>33.6</ele>
        <time>2023-08-06T17:14:57Z</time>
      </trkpt>
      <trkpt lat="49.64544" lon="3.37257">
        <ele>33.6</ele>
        <time>2023-08-06T17:14:58Z</time>
      </trkpt>
      <trkpt lat="49.64555" lon="3.3726">
        <ele>33.6</ele>
        <time>2023-08-06T17:15:01Z</time>
      </trkpt>
      <trkpt lat="49.64564" lon="3.37265">
        <ele>33.6</ele>
        <time>2023-08-06T17:15:04Z</time>
      </trkpt>
      <trkpt lat="49.64569" lon="3.37273">
        <ele>33.6</ele>
        <time>2023-08-06T17:15:06Z</time>
      </trkpt>
      <trkpt lat="49.6457" lon="3.37278">
        <ele>33.6</ele>
        <time>2023-08-06T17:15:07Z</time>
      </trkpt>
      <trkpt lat="49.64571" lon="3.37295">
        <ele>33.8</ele>
        <time>2023-08-06T17:15:10Z</time>
      </trkpt>
      <trkpt lat="49.64576" lon="3.37303">
        <ele>34</ele>
        <time>2023-08-06T17:15:12Z</time>
      </trkpt>
      <trkpt lat="49.64579" lon="3.37307">
        <ele>34</ele>
        <time>2023-08-06T17:15:13Z</time>
      </trkpt>
      <trkpt lat="49.64582" lon="3.37311">
        <ele>33.8</ele>
        <time>2023-08-06T17:15:14Z</time>
      </trkpt>
      <trkpt lat="49.64585" lon="3.37315">
        <ele>33.8</ele>
        <time>2023-08-06T17:15:15Z</time>
      </trkpt>
      <trkpt lat="49.64613" lon="3.37346">
        <ele>33.2</ele>
        <time>2023-08-06T17:15:23Z</time>
      </trkpt>
      <trkpt lat="49.6462" lon="3.37352">
        <ele>33.2</ele>
        <time>2023-08-06T17:15:25Z</time>
      </trkpt>
      <trkpt lat="49.64625" lon="3.37359">
        <ele>33</ele>
        <time>2023-08-06T17:15:27Z</time>
      </trkpt>
      <trkpt lat="49.64626" lon="3.37364">
        <ele>33</ele>
        <time>2023-08-06T17:15:28Z</time>
      </trkpt>
      <trkpt lat="49.64625" lon="3.37368">
        <ele>33</ele>
        <time>2023-08-06T17:15:29Z</time>
      </trkpt>
      <trkpt lat="49.6462" lon="3.37376">
        <ele>33</ele>
        <time>2023-08-06T17:15:31Z</time>
      </trkpt>
      <trkpt lat="49.64609" lon="3.37382">
        <ele>33</ele>
        <time>2023-08-06T17:15:34Z</time>
      </trkpt>
      <trkpt lat="49.64606" lon="3.37384">
        <ele>33</ele>
        <time>2023-08-06T17:15:35Z</time>
      </trkpt>
      <trkpt lat="49.64602" lon="3.37386">
        <ele>32.8</ele>
        <time>2023-08-06T17:15:36Z</time>
      </trkpt>
      <trkpt lat="49.64567" lon="3.37406">
        <ele>33</ele>
        <time>2023-08-06T17:15:46Z</time>
      </trkpt>
      <trkpt lat="49.64552" lon="3.37413">
        <ele>33.2</ele>
        <time>2023-08-06T17:15:50Z</time>
      </trkpt>
      <trkpt lat="49.64549" lon="3.37415">
        <ele>33.4</ele>
        <time>2023-08-06T17:15:51Z</time>
      </trkpt>
      <trkpt lat="49.64541" lon="3.37419">
        <ele>33.4</ele>
        <time>2023-08-06T17:15:53Z</time>
      </trkpt>
      <trkpt lat="49.64538" lon="3.37421">
        <ele>33.4</ele>
        <time>2023-08-06T17:15:54Z</time>
      </trkpt>
      <trkpt lat="49.64535" lon="3.37423">
        <ele>33.4</ele>
        <time>2023-08-06T17:15:55Z</time>
      </trkpt>
      <trkpt lat="49.64532" lon="3.37425">
        <ele>33.4</ele>
        <time>2023-08-06T17:15:56Z</time>
      </trkpt>
      <trkpt lat="49.645" lon="3.37443">
        <ele>33.6</ele>
        <time>2023-08-06T17:16:05Z</time>
      </trkpt>
      <trkpt lat="49.6448" lon="3.37451">
        <ele>33.6</ele>
        <time>2023-08-06T17:16:10Z</time>
      </trkpt>
      <trkpt lat="49.64478" lon="3.37452">
        <ele>33.6</ele>
        <time>2023-08-06T17:16:11Z</time>
      </trkpt>
      <trkpt lat="49.64474" lon="3.37453">
        <ele>33.6</ele>
        <time>2023-08-06T17:16:12Z</time>
      </trkpt>
      <trkpt lat="49.6447" lon="3.37454">
        <ele>33.4</ele>
        <time>2023-08-06T17:16:13Z</time>
      </trkpt>
      <trkpt lat="49.64467" lon="3.37456">
        <ele>33.4</ele>
        <time>2023-08-06T17:16:14Z</time>
      </trkpt>
      <trkpt lat="49.64464" lon="3.37457">
        <ele>33.2</ele>
        <time>2023-08-06T17:16:15Z</time>
      </trkpt>
      <trkpt lat="49.64461" lon="3.37457">
        <ele>33.2</ele>
        <time>2023-08-06T17:16:16Z</time>
      </trkpt>
      <trkpt lat="49.64458" lon="3.37458">
        <ele>33</ele>
        <time>2023-08-06T17:16:17Z</time>
      </trkpt>
      <trkpt lat="49.64454" lon="3.37459">
        <ele>33</ele>
        <time>2023-08-06T17:16:18Z</time>
      </trkpt>
      <trkpt lat="49.6445" lon="3.3746">
        <ele>33</ele>
        <time>2023-08-06T17:16:19Z</time>
      </trkpt>
      <trkpt lat="49.64444" lon="3.37461">
        <ele>33</ele>
        <time>2023-08-06T17:16:21Z</time>
      </trkpt>
      <trkpt lat="49.64436" lon="3.37463">
        <ele>33</ele>
        <time>2023-08-06T17:16:23Z</time>
      </trkpt>
      <trkpt lat="49.64433" lon="3.37463">
        <ele>33</ele>
        <time>2023-08-06T17:16:24Z</time>
      </trkpt>
      <trkpt lat="49.6442" lon="3.37466">
        <ele>33.4</ele>
        <time>2023-08-06T17:16:28Z</time>
      </trkpt>
      <trkpt lat="49.64416" lon="3.37467">
        <ele>33.6</ele>
        <time>2023-08-06T17:16:29Z</time>
      </trkpt>
      <trkpt lat="49.64409" lon="3.37468">
        <ele>33.8</ele>
        <time>2023-08-06T17:16:31Z</time>
      </trkpt>
      <trkpt lat="49.64406" lon="3.37469">
        <ele>33.8</ele>
        <time>2023-08-06T17:16:32Z</time>
      </trkpt>
      <trkpt lat="49.64402" lon="3.3747">
        <ele>33.8</ele>
        <time>2023-08-06T17:16:33Z</time>
      </trkpt>
      <trkpt lat="49.64399" lon="3.3747">
        <ele>34</ele>
        <time>2023-08-06T17:16:34Z</time>
      </trkpt>
      <trkpt lat="49.6439" lon="3.37471">
        <ele>34</ele>
        <time>2023-08-06T17:16:37Z</time>
      </trkpt>
      <trkpt lat="49.64387" lon="3.37471">
        <ele>34.2</ele>
        <time>2023-08-06T17:16:38Z</time>
      </trkpt>
      <trkpt lat="49.64384" lon="3.37472">
        <ele>34.2</ele>
        <time>2023-08-06T17:16:39Z</time>
      </trkpt>
      <trkpt lat="49.64381" lon="3.37472">
        <ele>34.2</ele>
        <time>2023-08-06T17:16:40Z</time>
      </trkpt>
      <trkpt lat="49.64377" lon="3.37473">
        <ele>34.2</ele>
        <time>2023-08-06T17:16:41Z</time>
      </trkpt>
      <trkpt lat="49.6435" lon="3.37478">
        <ele>34</ele>
        <time>2023-08-06T17:16:49Z</time>
      </trkpt>
      <trkpt lat="49.64326" lon="3.37482">
        <ele>34</ele>
        <time>2023-08-06T17:16:56Z</time>
      </trkpt>
      <trkpt lat="49.64323" lon="3.37483">
        <ele>34</ele>
        <time>2023-08-06T17:16:57Z</time>
      </trkpt>
      <trkpt lat="49.6432" lon="3.37484">
        <ele>34.2</ele>
        <time>2023-08-06T17:16:58Z</time>
      </trkpt>
      <trkpt lat="49.64311" lon="3.37487">
        <ele>34.2</ele>
        <time>2023-08-06T17:17:01Z</time>
      </trkpt>
      <trkpt lat="49.64308" lon="3.37488">
        <ele>34.2</ele>
        <time>2023-08-06T17:17:02Z</time>
      </trkpt>
      <trkpt lat="49.64305" lon="3.37488">
        <ele>34.2</ele>
        <time>2023-08-06T17:17:03Z</time>
      </trkpt>
      <trkpt lat="49.64278" lon="3.37498">
        <ele>34.8</ele>
        <time>2023-08-06T17:17:11Z</time>
      </trkpt>
      <trkpt lat="49.64271" lon="3.375">
        <ele>35</ele>
        <time>2023-08-06T17:17:13Z</time>
      </trkpt>
      <trkpt lat="49.64253" lon="3.3751">
        <ele>35.2</ele>
        <time>2023-08-06T17:17:19Z</time>
      </trkpt>
      <trkpt lat="49.6425" lon="3.37512">
        <ele>35.4</ele>
        <time>2023-08-06T17:17:20Z</time>
      </trkpt>
      <trkpt lat="49.64247" lon="3.37514">
        <ele>35.4</ele>
        <time>2023-08-06T17:17:21Z</time>
      </trkpt>
      <trkpt lat="49.64244" lon="3.37515">
        <ele>35.6</ele>
        <time>2023-08-06T17:17:22Z</time>
      </trkpt>
      <trkpt lat="49.64242" lon="3.37517">
        <ele>35.4</ele>
        <time>2023-08-06T17:17:23Z</time>
      </trkpt>
      <trkpt lat="49.64239" lon="3.37519">
        <ele>35.8</ele>
        <time>2023-08-06T17:17:24Z</time>
      </trkpt>
      <trkpt lat="49.64237" lon="3.37521">
        <ele>35.8</ele>
        <time>2023-08-06T17:17:25Z</time>
      </trkpt>
      <trkpt lat="49.64233" lon="3.37523">
        <ele>35.8</ele>
        <time>2023-08-06T17:17:26Z</time>
      </trkpt>
      <trkpt lat="49.64231" lon="3.37524">
        <ele>35.8</ele>
        <time>2023-08-06T17:17:27Z</time>
      </trkpt>
      <trkpt lat="49.64228" lon="3.37526">
        <ele>35.8</ele>
        <time>2023-08-06T17:17:28Z</time>
      </trkpt>
      <trkpt lat="49.64226" lon="3.37527">
        <ele>36</ele>
        <time>2023-08-06T17:17:29Z</time>
      </trkpt>
      <trkpt lat="49.64223" lon="3.37529">
        <ele>36</ele>
        <time>2023-08-06T17:17:30Z</time>
      </trkpt>
      <trkpt lat="49.64221" lon="3.37531">
        <ele>36.2</ele>
        <time>2023-08-06T17:17:31Z</time>
      </trkpt>
      <trkpt lat="49.64206" lon="3.37539">
        <ele>36.8</ele>
        <time>2023-08-06T17:17:36Z</time>
      </trkpt>
      <trkpt lat="49.64203" lon="3.3754">
        <ele>36.8</ele>
        <time>2023-08-06T17:17:37Z</time>
      </trkpt>
      <trkpt lat="49.64178" lon="3.37547">
        <ele>37.6</ele>
        <time>2023-08-06T17:17:46Z</time>
      </trkpt>
      <trkpt lat="49.64176" lon="3.37549">
        <ele>37.6</ele>
        <time>2023-08-06T17:17:47Z</time>
      </trkpt>
      <trkpt lat="49.64173" lon="3.3755">
        <ele>37.6</ele>
        <time>2023-08-06T17:17:48Z</time>
      </trkpt>
      <trkpt lat="49.64171" lon="3.37551">
        <ele>37.8</ele>
        <time>2023-08-06T17:17:49Z</time>
      </trkpt>
      <trkpt lat="49.64168" lon="3.37552">
        <ele>37.8</ele>
        <time>2023-08-06T17:17:50Z</time>
      </trkpt>
      <trkpt lat="49.64165" lon="3.37553">
        <ele>38</ele>
        <time>2023-08-06T17:17:51Z</time>
      </trkpt>
      <trkpt lat="49.64154" lon="3.37557">
        <ele>38.4</ele>
        <time>2023-08-06T17:17:55Z</time>
      </trkpt>
      <trkpt lat="49.64134" lon="3.37565">
        <ele>39</ele>
        <time>2023-08-06T17:18:02Z</time>
      </trkpt>
      <trkpt lat="49.64132" lon="3.37566">
        <ele>39</ele>
        <time>2023-08-06T17:18:03Z</time>
      </trkpt>
      <trkpt lat="49.64127" lon="3.37568">
        <ele>39.2</ele>
        <time>2023-08-06T17:18:05Z</time>
      </trkpt>
      <trkpt lat="49.64125" lon="3.37568">
        <ele>39.4</ele>
        <time>2023-08-06T17:18:06Z</time>
      </trkpt>
      <trkpt lat="49.64122" lon="3.37569">
        <ele>39.6</ele>
        <time>2023-08-06T17:18:07Z</time>
      </trkpt>
      <trkpt lat="49.6412" lon="3.3757">
        <ele>39.8</ele>
        <time>2023-08-06T17:18:08Z</time>
      </trkpt>
      <trkpt lat="49.64118" lon="3.3757">
        <ele>39.8</ele>
        <time>2023-08-06T17:18:09Z</time>
      </trkpt>
      <trkpt lat="49.64115" lon="3.37571">
        <ele>40</ele>
        <time>2023-08-06T17:18:10Z</time>
      </trkpt>
      <trkpt lat="49.64112" lon="3.37572">
        <ele>40.2</ele>
        <time>2023-08-06T17:18:11Z</time>
      </trkpt>
      <trkpt lat="49.6411" lon="3.37573">
        <ele>40.4</ele>
        <time>2023-08-06T17:18:12Z</time>
      </trkpt>
      <trkpt lat="49.64108" lon="3.37574">
        <ele>40.4</ele>
        <time>2023-08-06T17:18:13Z</time>
      </trkpt>
      <trkpt lat="49.64105" lon="3.37576">
        <ele>40.6</ele>
        <time>2023-08-06T17:18:14Z</time>
      </trkpt>
      <trkpt lat="49.64103" lon="3.37576">
        <ele>40.8</ele>
        <time>2023-08-06T17:18:15Z</time>
      </trkpt>
      <trkpt lat="49.641" lon="3.37578">
        <ele>41</ele>
        <time>2023-08-06T17:18:16Z</time>
      </trkpt>
      <trkpt lat="49.64097" lon="3.37578">
        <ele>41</ele>
        <time>2023-08-06T17:18:17Z</time>
      </trkpt>
      <trkpt lat="49.64095" lon="3.37579">
        <ele>41.2</ele>
        <time>2023-08-06T17:18:18Z</time>
      </trkpt>
      <trkpt lat="49.64093" lon="3.3758">
        <ele>41.2</ele>
        <time>2023-08-06T17:18:19Z</time>
      </trkpt>
      <trkpt lat="49.6409" lon="3.37581">
        <ele>41.2</ele>
        <time>2023-08-06T17:18:20Z</time>
      </trkpt>
      <trkpt lat="49.64086" lon="3.37582">
        <ele>41.2</ele>
        <time>2023-08-06T17:18:21Z</time>
      </trkpt>
      <trkpt lat="49.64084" lon="3.37583">
        <ele>41.4</ele>
        <time>2023-08-06T17:18:22Z</time>
      </trkpt>
      <trkpt lat="49.64082" lon="3.37584">
        <ele>41.4</ele>
        <time>2023-08-06T17:18:23Z</time>
      </trkpt>
      <trkpt lat="49.64079" lon="3.37585">
        <ele>41.6</ele>
        <time>2023-08-06T17:18:24Z</time>
      </trkpt>
      <trkpt lat="49.64076" lon="3.37586">
        <ele>41.8</ele>
        <time>2023-08-06T17:18:25Z</time>
      </trkpt>
      <trkpt lat="49.64073" lon="3.37588">
        <ele>42.2</ele>
        <time>2023-08-06T17:18:26Z</time>
      </trkpt>
      <trkpt lat="49.6407" lon="3.37589">
        <ele>42.2</ele>
        <time>2023-08-06T17:18:27Z</time>
      </trkpt>
      <trkpt lat="49.64068" lon="3.37589">
        <ele>42.4</ele>
        <time>2023-08-06T17:18:28Z</time>
      </trkpt>
      <trkpt lat="49.64065" lon="3.37591">
        <ele>42.4</ele>
        <time>2023-08-06T17:18:29Z</time>
      </trkpt>
      <trkpt lat="49.64061" lon="3.37592">
        <ele>42.6</ele>
        <time>2023-08-06T17:18:30Z</time>
      </trkpt>
      <trkpt lat="49.64058" lon="3.37593">
        <ele>42.6</ele>
        <time>2023-08-06T17:18:31Z</time>
      </trkpt>
      <trkpt lat="49.64055" lon="3.37595">
        <ele>42.6</ele>
        <time>2023-08-06T17:18:32Z</time>
      </trkpt>
      <trkpt lat="49.64053" lon="3.37596">
        <ele>42.6</ele>
        <time>2023-08-06T17:18:33Z</time>
      </trkpt>
      <trkpt lat="49.6405" lon="3.37597">
        <ele>42.6</ele>
        <time>2023-08-06T17:18:34Z</time>
      </trkpt>
      <trkpt lat="49.64047" lon="3.37599">
        <ele>42.8</ele>
        <time>2023-08-06T17:18:35Z</time>
      </trkpt>
      <trkpt lat="49.64044" lon="3.376">
        <ele>43</ele>
        <time>2023-08-06T17:18:36Z</time>
      </trkpt>
      <trkpt lat="49.64041" lon="3.37601">
        <ele>43</ele>
        <time>2023-08-06T17:18:37Z</time>
      </trkpt>
      <trkpt lat="49.64038" lon="3.37602">
        <ele>43</ele>
        <time>2023-08-06T17:18:38Z</time>
      </trkpt>
      <trkpt lat="49.64035" lon="3.37603">
        <ele>43</ele>
        <time>2023-08-06T17:18:39Z</time>
      </trkpt>
      <trkpt lat="49.64032" lon="3.37604">
        <ele>43</ele>
        <time>2023-08-06T17:18:40Z</time>
      </trkpt>
      <trkpt lat="49.64028" lon="3.37605">
        <ele>43</ele>
        <time>2023-08-06T17:18:41Z</time>
      </trkpt>
      <trkpt lat="49.64025" lon="3.37606">
        <ele>43</ele>
        <time>2023-08-06T17:18:42Z</time>
      </trkpt>
      <trkpt lat="49.63997" lon="3.37616">
        <ele>43.2</ele>
        <time>2023-08-06T17:18:51Z</time>
      </trkpt>
      <trkpt lat="49.63994" lon="3.37617">
        <ele>43.2</ele>
        <time>2023-08-06T17:18:52Z</time>
      </trkpt>
      <trkpt lat="49.63964" lon="3.37628">
        <ele>43.6</ele>
        <time>2023-08-06T17:19:01Z</time>
      </trkpt>
      <trkpt lat="49.63939" lon="3.37638">
        <ele>43.4</ele>
        <time>2023-08-06T17:19:07Z</time>
      </trkpt>
      <trkpt lat="49.63929" lon="3.37642">
        <ele>43.2</ele>
        <time>2023-08-06T17:19:09Z</time>
      </trkpt>
      <trkpt lat="49.63925" lon="3.37644">
        <ele>43</ele>
        <time>2023-08-06T17:19:10Z</time>
      </trkpt>
      <trkpt lat="49.63922" lon="3.37645">
        <ele>42.8</ele>
        <time>2023-08-06T17:19:11Z</time>
      </trkpt>
      <trkpt lat="49.63918" lon="3.37646">
        <ele>42.6</ele>
        <time>2023-08-06T17:19:12Z</time>
      </trkpt>
      <trkpt lat="49.63913" lon="3.37648">
        <ele>42.6</ele>
        <time>2023-08-06T17:19:13Z</time>
      </trkpt>
      <trkpt lat="49.6391" lon="3.3765">
        <ele>42.4</ele>
        <time>2023-08-06T17:19:14Z</time>
      </trkpt>
      <trkpt lat="49.63906" lon="3.37651">
        <ele>42.2</ele>
        <time>2023-08-06T17:19:15Z</time>
      </trkpt>
      <trkpt lat="49.63903" lon="3.37652">
        <ele>42</ele>
        <time>2023-08-06T17:19:16Z</time>
      </trkpt>
      <trkpt lat="49.639" lon="3.37654">
        <ele>42</ele>
        <time>2023-08-06T17:19:17Z</time>
      </trkpt>
      <trkpt lat="49.63895" lon="3.37656">
        <ele>41.8</ele>
        <time>2023-08-06T17:19:18Z</time>
      </trkpt>
      <trkpt lat="49.63891" lon="3.37658">
        <ele>41.8</ele>
        <time>2023-08-06T17:19:19Z</time>
      </trkpt>
      <trkpt lat="49.63869" lon="3.37666">
        <ele>41.4</ele>
        <time>2023-08-06T17:19:24Z</time>
      </trkpt>
      <trkpt lat="49.63832" lon="3.37678">
        <ele>40.8</ele>
        <time>2023-08-06T17:19:31Z</time>
      </trkpt>
      <trkpt lat="49.63795" lon="3.37685">
        <ele>39.8</ele>
        <time>2023-08-06T17:19:37Z</time>
      </trkpt>
      <trkpt lat="49.63789" lon="3.37685">
        <ele>39.6</ele>
        <time>2023-08-06T17:19:38Z</time>
      </trkpt>
      <trkpt lat="49.63784" lon="3.37685">
        <ele>39.2</ele>
        <time>2023-08-06T17:19:39Z</time>
      </trkpt>
      <trkpt lat="49.6378" lon="3.37685">
        <ele>39.2</ele>
        <time>2023-08-06T17:19:40Z</time>
      </trkpt>
      <trkpt lat="49.63775" lon="3.37685">
        <ele>39</ele>
        <time>2023-08-06T17:19:41Z</time>
      </trkpt>
      <trkpt lat="49.6377" lon="3.37685">
        <ele>39</ele>
        <time>2023-08-06T17:19:42Z</time>
      </trkpt>
      <trkpt lat="49.63765" lon="3.37684">
        <ele>38.8</ele>
        <time>2023-08-06T17:19:43Z</time>
      </trkpt>
      <trkpt lat="49.63762" lon="3.37684">
        <ele>38.8</ele>
        <time>2023-08-06T17:19:44Z</time>
      </trkpt>
      <trkpt lat="49.63759" lon="3.37685">
        <ele>38.8</ele>
        <time>2023-08-06T17:19:45Z</time>
      </trkpt>
      <trkpt lat="49.63754" lon="3.37685">
        <ele>38.8</ele>
        <time>2023-08-06T17:19:46Z</time>
      </trkpt>
      <trkpt lat="49.6375" lon="3.37686">
        <ele>38.8</ele>
        <time>2023-08-06T17:19:47Z</time>
      </trkpt>
      <trkpt lat="49.63739" lon="3.37689">
        <ele>38.8</ele>
        <time>2023-08-06T17:19:50Z</time>
      </trkpt>
      <trkpt lat="49.63726" lon="3.377">
        <ele>39.4</ele>
        <time>2023-08-06T17:19:54Z</time>
      </trkpt>
      <trkpt lat="49.63723" lon="3.37703">
        <ele>39.6</ele>
        <time>2023-08-06T17:19:55Z</time>
      </trkpt>
      <trkpt lat="49.63719" lon="3.37707">
        <ele>39.6</ele>
        <time>2023-08-06T17:19:56Z</time>
      </trkpt>
      <trkpt lat="49.63716" lon="3.37711">
        <ele>39.8</ele>
        <time>2023-08-06T17:19:57Z</time>
      </trkpt>
      <trkpt lat="49.63712" lon="3.37717">
        <ele>40</ele>
        <time>2023-08-06T17:19:59Z</time>
      </trkpt>
      <trkpt lat="49.63709" lon="3.37721">
        <ele>40.2</ele>
        <time>2023-08-06T17:20:00Z</time>
      </trkpt>
      <trkpt lat="49.63707" lon="3.37725">
        <ele>40.4</ele>
        <time>2023-08-06T17:20:01Z</time>
      </trkpt>
      <trkpt lat="49.63705" lon="3.37729">
        <ele>41</ele>
        <time>2023-08-06T17:20:02Z</time>
      </trkpt>
      <trkpt lat="49.63703" lon="3.37732">
        <ele>41.2</ele>
        <time>2023-08-06T17:20:03Z</time>
      </trkpt>
      <trkpt lat="49.63701" lon="3.37735">
        <ele>41.4</ele>
        <time>2023-08-06T17:20:04Z</time>
      </trkpt>
      <trkpt lat="49.63698" lon="3.37739">
        <ele>41.6</ele>
        <time>2023-08-06T17:20:05Z</time>
      </trkpt>
      <trkpt lat="49.63696" lon="3.37743">
        <ele>41.8</ele>
        <time>2023-08-06T17:20:06Z</time>
      </trkpt>
      <trkpt lat="49.63694" lon="3.37747">
        <ele>41.8</ele>
        <time>2023-08-06T17:20:07Z</time>
      </trkpt>
      <trkpt lat="49.63693" lon="3.3775">
        <ele>42</ele>
        <time>2023-08-06T17:20:08Z</time>
      </trkpt>
      <trkpt lat="49.63691" lon="3.37753">
        <ele>42.2</ele>
        <time>2023-08-06T17:20:09Z</time>
      </trkpt>
      <trkpt lat="49.63689" lon="3.37757">
        <ele>42.2</ele>
        <time>2023-08-06T17:20:10Z</time>
      </trkpt>
      <trkpt lat="49.63687" lon="3.3776">
        <ele>42.2</ele>
        <time>2023-08-06T17:20:11Z</time>
      </trkpt>
      <trkpt lat="49.63685" lon="3.37763">
        <ele>42.4</ele>
        <time>2023-08-06T17:20:12Z</time>
      </trkpt>
      <trkpt lat="49.63683" lon="3.37765">
        <ele>42.6</ele>
        <time>2023-08-06T17:20:13Z</time>
      </trkpt>
      <trkpt lat="49.63681" lon="3.37768">
        <ele>42.8</ele>
        <time>2023-08-06T17:20:14Z</time>
      </trkpt>
      <trkpt lat="49.63679" lon="3.37771">
        <ele>42.8</ele>
        <time>2023-08-06T17:20:15Z</time>
      </trkpt>
      <trkpt lat="49.63677" lon="3.37774">
        <ele>43</ele>
        <time>2023-08-06T17:20:16Z</time>
      </trkpt>
      <trkpt lat="49.63675" lon="3.37777">
        <ele>43.2</ele>
        <time>2023-08-06T17:20:17Z</time>
      </trkpt>
      <trkpt lat="49.63674" lon="3.37779">
        <ele>43.6</ele>
        <time>2023-08-06T17:20:18Z</time>
      </trkpt>
      <trkpt lat="49.63672" lon="3.37782">
        <ele>43.8</ele>
        <time>2023-08-06T17:20:19Z</time>
      </trkpt>
      <trkpt lat="49.63669" lon="3.37785">
        <ele>44</ele>
        <time>2023-08-06T17:20:20Z</time>
      </trkpt>
      <trkpt lat="49.63667" lon="3.37787">
        <ele>44.2</ele>
        <time>2023-08-06T17:20:21Z</time>
      </trkpt>
      <trkpt lat="49.63665" lon="3.37789">
        <ele>44.4</ele>
        <time>2023-08-06T17:20:22Z</time>
      </trkpt>
      <trkpt lat="49.63663" lon="3.37792">
        <ele>44.6</ele>
        <time>2023-08-06T17:20:23Z</time>
      </trkpt>
      <trkpt lat="49.63661" lon="3.37794">
        <ele>44.8</ele>
        <time>2023-08-06T17:20:24Z</time>
      </trkpt>
      <trkpt lat="49.63659" lon="3.37797">
        <ele>45</ele>
        <time>2023-08-06T17:20:25Z</time>
      </trkpt>
      <trkpt lat="49.63657" lon="3.37799">
        <ele>45.2</ele>
        <time>2023-08-06T17:20:26Z</time>
      </trkpt>
      <trkpt lat="49.63656" lon="3.37802">
        <ele>45.4</ele>
        <time>2023-08-06T17:20:27Z</time>
      </trkpt>
      <trkpt lat="49.63654" lon="3.37804">
        <ele>45.6</ele>
        <time>2023-08-06T17:20:28Z</time>
      </trkpt>
      <trkpt lat="49.63653" lon="3.37806">
        <ele>45.6</ele>
        <time>2023-08-06T17:20:29Z</time>
      </trkpt>
      <trkpt lat="49.63651" lon="3.37808">
        <ele>45.8</ele>
        <time>2023-08-06T17:20:30Z</time>
      </trkpt>
      <trkpt lat="49.63649" lon="3.3781">
        <ele>46</ele>
        <time>2023-08-06T17:20:31Z</time>
      </trkpt>
      <trkpt lat="49.63648" lon="3.37811">
        <ele>46</ele>
        <time>2023-08-06T17:20:32Z</time>
      </trkpt>
      <trkpt lat="49.63646" lon="3.37812">
        <ele>46.2</ele>
        <time>2023-08-06T17:20:33Z</time>
      </trkpt>
      <trkpt lat="49.63643" lon="3.37814">
        <ele>46.6</ele>
        <time>2023-08-06T17:20:34Z</time>
      </trkpt>
      <trkpt lat="49.63641" lon="3.37815">
        <ele>46.6</ele>
        <time>2023-08-06T17:20:35Z</time>
      </trkpt>
      <trkpt lat="49.63639" lon="3.37816">
        <ele>47</ele>
        <time>2023-08-06T17:20:36Z</time>
      </trkpt>
      <trkpt lat="49.63637" lon="3.37817">
        <ele>47.2</ele>
        <time>2023-08-06T17:20:37Z</time>
      </trkpt>
      <trkpt lat="49.63635" lon="3.37819">
        <ele>47.4</ele>
        <time>2023-08-06T17:20:38Z</time>
      </trkpt>
      <trkpt lat="49.63632" lon="3.37821">
        <ele>47.4</ele>
        <time>2023-08-06T17:20:39Z</time>
      </trkpt>
      <trkpt lat="49.6363" lon="3.37823">
        <ele>47.6</ele>
        <time>2023-08-06T17:20:40Z</time>
      </trkpt>
      <trkpt lat="49.63628" lon="3.37825">
        <ele>47.8</ele>
        <time>2023-08-06T17:20:41Z</time>
      </trkpt>
      <trkpt lat="49.63626" lon="3.37827">
        <ele>48</ele>
        <time>2023-08-06T17:20:42Z</time>
      </trkpt>
      <trkpt lat="49.63623" lon="3.37829">
        <ele>48</ele>
        <time>2023-08-06T17:20:43Z</time>
      </trkpt>
      <trkpt lat="49.63621" lon="3.37831">
        <ele>48</ele>
        <time>2023-08-06T17:20:44Z</time>
      </trkpt>
      <trkpt lat="49.63618" lon="3.37832">
        <ele>48</ele>
        <time>2023-08-06T17:20:45Z</time>
      </trkpt>
      <trkpt lat="49.63616" lon="3.37833">
        <ele>48.2</ele>
        <time>2023-08-06T17:20:46Z</time>
      </trkpt>
      <trkpt lat="49.63613" lon="3.37835">
        <ele>48.2</ele>
        <time>2023-08-06T17:20:47Z</time>
      </trkpt>
      <trkpt lat="49.6361" lon="3.37836">
        <ele>48.2</ele>
        <time>2023-08-06T17:20:48Z</time>
      </trkpt>
      <trkpt lat="49.63607" lon="3.37837">
        <ele>48.2</ele>
        <time>2023-08-06T17:20:49Z</time>
      </trkpt>
      <trkpt lat="49.63605" lon="3.37839">
        <ele>48.2</ele>
        <time>2023-08-06T17:20:50Z</time>
      </trkpt>
      <trkpt lat="49.63602" lon="3.3784">
        <ele>48.2</ele>
        <time>2023-08-06T17:20:51Z</time>
      </trkpt>
      <trkpt lat="49.636" lon="3.37841">
        <ele>48.4</ele>
        <time>2023-08-06T17:20:52Z</time>
      </trkpt>
      <trkpt lat="49.63596" lon="3.37844">
        <ele>48.4</ele>
        <time>2023-08-06T17:20:53Z</time>
      </trkpt>
      <trkpt lat="49.63593" lon="3.37845">
        <ele>48.4</ele>
        <time>2023-08-06T17:20:54Z</time>
      </trkpt>
      <trkpt lat="49.63591" lon="3.37847">
        <ele>48.4</ele>
        <time>2023-08-06T17:20:55Z</time>
      </trkpt>
      <trkpt lat="49.63589" lon="3.37848">
        <ele>48.4</ele>
        <time>2023-08-06T17:20:56Z</time>
      </trkpt>
      <trkpt lat="49.63586" lon="3.3785">
        <ele>48.4</ele>
        <time>2023-08-06T17:20:57Z</time>
      </trkpt>
      <trkpt lat="49.63583" lon="3.37851">
        <ele>48.4</ele>
        <time>2023-08-06T17:20:58Z</time>
      </trkpt>
      <trkpt lat="49.6358" lon="3.37852">
        <ele>48.4</ele>
        <time>2023-08-06T17:20:59Z</time>
      </trkpt>
      <trkpt lat="49.63576" lon="3.37854">
        <ele>48.4</ele>
        <time>2023-08-06T17:21:01Z</time>
      </trkpt>
      <trkpt lat="49.63573" lon="3.37855">
        <ele>48.4</ele>
        <time>2023-08-06T17:21:02Z</time>
      </trkpt>
      <trkpt lat="49.6357" lon="3.37856">
        <ele>48.4</ele>
        <time>2023-08-06T17:21:03Z</time>
      </trkpt>
      <trkpt lat="49.63568" lon="3.37858">
        <ele>48.4</ele>
        <time>2023-08-06T17:21:04Z</time>
      </trkpt>
      <trkpt lat="49.63566" lon="3.3786">
        <ele>48.4</ele>
        <time>2023-08-06T17:21:05Z</time>
      </trkpt>
      <trkpt lat="49.63564" lon="3.37862">
        <ele>48.4</ele>
        <time>2023-08-06T17:21:06Z</time>
      </trkpt>
      <trkpt lat="49.63563" lon="3.37866">
        <ele>48.4</ele>
        <time>2023-08-06T17:21:07Z</time>
      </trkpt>
      <trkpt lat="49.63562" lon="3.37869">
        <ele>48.4</ele>
        <time>2023-08-06T17:21:08Z</time>
      </trkpt>
      <trkpt lat="49.63562" lon="3.37872">
        <ele>48.4</ele>
        <time>2023-08-06T17:21:09Z</time>
      </trkpt>
      <trkpt lat="49.63562" lon="3.37875">
        <ele>48.4</ele>
        <time>2023-08-06T17:21:10Z</time>
      </trkpt>
      <trkpt lat="49.63563" lon="3.37878">
        <ele>48.2</ele>
        <time>2023-08-06T17:21:11Z</time>
      </trkpt>
      <trkpt lat="49.63564" lon="3.37883">
        <ele>48.2</ele>
        <time>2023-08-06T17:21:12Z</time>
      </trkpt>
      <trkpt lat="49.63564" lon="3.37886">
        <ele>48.2</ele>
        <time>2023-08-06T17:21:13Z</time>
      </trkpt>
      <trkpt lat="49.63565" lon="3.3789">
        <ele>48.2</ele>
        <time>2023-08-06T17:21:14Z</time>
      </trkpt>
      <trkpt lat="49.63566" lon="3.37892">
        <ele>48.2</ele>
        <time>2023-08-06T17:21:15Z</time>
      </trkpt>
      <trkpt lat="49.63568" lon="3.37895">
        <ele>48.2</ele>
        <time>2023-08-06T17:21:16Z</time>
      </trkpt>
      <trkpt lat="49.63581" lon="3.37921">
        <ele>48.4</ele>
        <time>2023-08-06T17:21:24Z</time>
      </trkpt>
      <trkpt lat="49.63583" lon="3.37924">
        <ele>48.6</ele>
        <time>2023-08-06T17:21:25Z</time>
      </trkpt>
      <trkpt lat="49.63596" lon="3.37947">
        <ele>48.8</ele>
        <time>2023-08-06T17:21:32Z</time>
      </trkpt>
      <trkpt lat="49.63611" lon="3.37974">
        <ele>49.6</ele>
        <time>2023-08-06T17:21:40Z</time>
      </trkpt>
      <trkpt lat="49.63632" lon="3.38013">
        <ele>50.2</ele>
        <time>2023-08-06T17:21:51Z</time>
      </trkpt>
      <trkpt lat="49.6364" lon="3.38027">
        <ele>50.4</ele>
        <time>2023-08-06T17:21:55Z</time>
      </trkpt>
      <trkpt lat="49.63644" lon="3.38039">
        <ele>50.8</ele>
        <time>2023-08-06T17:21:58Z</time>
      </trkpt>
      <trkpt lat="49.63645" lon="3.38043">
        <ele>50.8</ele>
        <time>2023-08-06T17:21:59Z</time>
      </trkpt>
      <trkpt lat="49.63646" lon="3.38047">
        <ele>51</ele>
        <time>2023-08-06T17:22:00Z</time>
      </trkpt>
      <trkpt lat="49.63646" lon="3.38051">
        <ele>51</ele>
        <time>2023-08-06T17:22:01Z</time>
      </trkpt>
      <trkpt lat="49.63645" lon="3.38054">
        <ele>51.2</ele>
        <time>2023-08-06T17:22:02Z</time>
      </trkpt>
      <trkpt lat="49.63643" lon="3.38056">
        <ele>51.2</ele>
        <time>2023-08-06T17:22:03Z</time>
      </trkpt>
      <trkpt lat="49.63641" lon="3.38061">
        <ele>51.2</ele>
        <time>2023-08-06T17:22:04Z</time>
      </trkpt>
      <trkpt lat="49.63639" lon="3.38064">
        <ele>51.4</ele>
        <time>2023-08-06T17:22:05Z</time>
      </trkpt>
      <trkpt lat="49.63638" lon="3.38066">
        <ele>51.6</ele>
        <time>2023-08-06T17:22:06Z</time>
      </trkpt>
      <trkpt lat="49.63636" lon="3.38069">
        <ele>51.6</ele>
        <time>2023-08-06T17:22:07Z</time>
      </trkpt>
      <trkpt lat="49.63626" lon="3.38088">
        <ele>52</ele>
        <time>2023-08-06T17:22:12Z</time>
      </trkpt>
      <trkpt lat="49.63608" lon="3.38117">
        <ele>52.6</ele>
        <time>2023-08-06T17:22:20Z</time>
      </trkpt>
      <trkpt lat="49.63586" lon="3.38153">
        <ele>52.6</ele>
        <time>2023-08-06T17:22:29Z</time>
      </trkpt>
      <trkpt lat="49.63567" lon="3.38185">
        <ele>52.6</ele>
        <time>2023-08-06T17:22:37Z</time>
      </trkpt>
      <trkpt lat="49.63549" lon="3.38219">
        <ele>52.8</ele>
        <time>2023-08-06T17:22:45Z</time>
      </trkpt>
      <trkpt lat="49.63538" lon="3.38238">
        <ele>52.6</ele>
        <time>2023-08-06T17:22:50Z</time>
      </trkpt>
      <trkpt lat="49.63535" lon="3.38242">
        <ele>52.6</ele>
        <time>2023-08-06T17:22:51Z</time>
      </trkpt>
      <trkpt lat="49.63533" lon="3.38247">
        <ele>52.6</ele>
        <time>2023-08-06T17:22:52Z</time>
      </trkpt>
      <trkpt lat="49.63531" lon="3.38251">
        <ele>52.6</ele>
        <time>2023-08-06T17:22:53Z</time>
      </trkpt>
      <trkpt lat="49.63529" lon="3.38254">
        <ele>52.8</ele>
        <time>2023-08-06T17:22:54Z</time>
      </trkpt>
      <trkpt lat="49.63527" lon="3.38258">
        <ele>52.8</ele>
        <time>2023-08-06T17:22:55Z</time>
      </trkpt>
      <trkpt lat="49.63525" lon="3.38263">
        <ele>52.8</ele>
        <time>2023-08-06T17:22:56Z</time>
      </trkpt>
      <trkpt lat="49.63514" lon="3.38284">
        <ele>53</ele>
        <time>2023-08-06T17:23:01Z</time>
      </trkpt>
      <trkpt lat="49.63506" lon="3.38299">
        <ele>53.2</ele>
        <time>2023-08-06T17:23:05Z</time>
      </trkpt>
      <trkpt lat="49.63503" lon="3.38303">
        <ele>53.2</ele>
        <time>2023-08-06T17:23:06Z</time>
      </trkpt>
      <trkpt lat="49.63501" lon="3.38307">
        <ele>53.2</ele>
        <time>2023-08-06T17:23:07Z</time>
      </trkpt>
      <trkpt lat="49.635" lon="3.3831">
        <ele>53.2</ele>
        <time>2023-08-06T17:23:08Z</time>
      </trkpt>
      <trkpt lat="49.63498" lon="3.38313">
        <ele>53.4</ele>
        <time>2023-08-06T17:23:09Z</time>
      </trkpt>
      <trkpt lat="49.63495" lon="3.38318">
        <ele>53.6</ele>
        <time>2023-08-06T17:23:10Z</time>
      </trkpt>
      <trkpt lat="49.63493" lon="3.38321">
        <ele>53.6</ele>
        <time>2023-08-06T17:23:11Z</time>
      </trkpt>
      <trkpt lat="49.63491" lon="3.38325">
        <ele>53.4</ele>
        <time>2023-08-06T17:23:12Z</time>
      </trkpt>
      <trkpt lat="49.63475" lon="3.38353">
        <ele>53.4</ele>
        <time>2023-08-06T17:23:19Z</time>
      </trkpt>
      <trkpt lat="49.63453" lon="3.38391">
        <ele>53</ele>
        <time>2023-08-06T17:23:27Z</time>
      </trkpt>
      <trkpt lat="49.63436" lon="3.38418">
        <ele>53</ele>
        <time>2023-08-06T17:23:33Z</time>
      </trkpt>
      <trkpt lat="49.63433" lon="3.38423">
        <ele>52.8</ele>
        <time>2023-08-06T17:23:34Z</time>
      </trkpt>
      <trkpt lat="49.63425" lon="3.38436">
        <ele>52.6</ele>
        <time>2023-08-06T17:23:37Z</time>
      </trkpt>
      <trkpt lat="49.63422" lon="3.38441">
        <ele>52.4</ele>
        <time>2023-08-06T17:23:38Z</time>
      </trkpt>
      <trkpt lat="49.63394" lon="3.38481">
        <ele>51.2</ele>
        <time>2023-08-06T17:23:47Z</time>
      </trkpt>
      <trkpt lat="49.63383" lon="3.38499">
        <ele>50.8</ele>
        <time>2023-08-06T17:23:51Z</time>
      </trkpt>
      <trkpt lat="49.63381" lon="3.38503">
        <ele>50.8</ele>
        <time>2023-08-06T17:23:52Z</time>
      </trkpt>
      <trkpt lat="49.63378" lon="3.38507">
        <ele>50.6</ele>
        <time>2023-08-06T17:23:53Z</time>
      </trkpt>
      <trkpt lat="49.63375" lon="3.38513">
        <ele>50.6</ele>
        <time>2023-08-06T17:23:54Z</time>
      </trkpt>
      <trkpt lat="49.63372" lon="3.38517">
        <ele>50.6</ele>
        <time>2023-08-06T17:23:55Z</time>
      </trkpt>
      <trkpt lat="49.63367" lon="3.38526">
        <ele>50.6</ele>
        <time>2023-08-06T17:23:57Z</time>
      </trkpt>
      <trkpt lat="49.63354" lon="3.38555">
        <ele>50.6</ele>
        <time>2023-08-06T17:24:02Z</time>
      </trkpt>
      <trkpt lat="49.63351" lon="3.38562">
        <ele>50.4</ele>
        <time>2023-08-06T17:24:03Z</time>
      </trkpt>
      <trkpt lat="49.63347" lon="3.38575">
        <ele>50.2</ele>
        <time>2023-08-06T17:24:05Z</time>
      </trkpt>
      <trkpt lat="49.63344" lon="3.38589">
        <ele>50</ele>
        <time>2023-08-06T17:24:07Z</time>
      </trkpt>
      <trkpt lat="49.63344" lon="3.38596">
        <ele>49.8</ele>
        <time>2023-08-06T17:24:08Z</time>
      </trkpt>
      <trkpt lat="49.63344" lon="3.38601">
        <ele>49.8</ele>
        <time>2023-08-06T17:24:09Z</time>
      </trkpt>
      <trkpt lat="49.63344" lon="3.38607">
        <ele>49.8</ele>
        <time>2023-08-06T17:24:10Z</time>
      </trkpt>
      <trkpt lat="49.63344" lon="3.38612">
        <ele>49.6</ele>
        <time>2023-08-06T17:24:11Z</time>
      </trkpt>
      <trkpt lat="49.63345" lon="3.38616">
        <ele>49.6</ele>
        <time>2023-08-06T17:24:12Z</time>
      </trkpt>
      <trkpt lat="49.63345" lon="3.38622">
        <ele>49.6</ele>
        <time>2023-08-06T17:24:13Z</time>
      </trkpt>
      <trkpt lat="49.63345" lon="3.38626">
        <ele>49.6</ele>
        <time>2023-08-06T17:24:14Z</time>
      </trkpt>
      <trkpt lat="49.63345" lon="3.38636">
        <ele>49.8</ele>
        <time>2023-08-06T17:24:16Z</time>
      </trkpt>
      <trkpt lat="49.63345" lon="3.3864">
        <ele>49.8</ele>
        <time>2023-08-06T17:24:17Z</time>
      </trkpt>
      <trkpt lat="49.63345" lon="3.38644">
        <ele>49.8</ele>
        <time>2023-08-06T17:24:18Z</time>
      </trkpt>
      <trkpt lat="49.63346" lon="3.38648">
        <ele>49.8</ele>
        <time>2023-08-06T17:24:19Z</time>
      </trkpt>
      <trkpt lat="49.63346" lon="3.38653">
        <ele>49.8</ele>
        <time>2023-08-06T17:24:20Z</time>
      </trkpt>
      <trkpt lat="49.63347" lon="3.38656">
        <ele>49.8</ele>
        <time>2023-08-06T17:24:21Z</time>
      </trkpt>
      <trkpt lat="49.63348" lon="3.38676">
        <ele>50.2</ele>
        <time>2023-08-06T17:24:25Z</time>
      </trkpt>
      <trkpt lat="49.6335" lon="3.38704">
        <ele>50.6</ele>
        <time>2023-08-06T17:24:31Z</time>
      </trkpt>
      <trkpt lat="49.63354" lon="3.38743">
        <ele>51</ele>
        <time>2023-08-06T17:24:39Z</time>
      </trkpt>
      <trkpt lat="49.63357" lon="3.38774">
        <ele>51</ele>
        <time>2023-08-06T17:24:45Z</time>
      </trkpt>
      <trkpt lat="49.63359" lon="3.38789">
        <ele>50.8</ele>
        <time>2023-08-06T17:24:48Z</time>
      </trkpt>
      <trkpt lat="49.63359" lon="3.38794">
        <ele>50.8</ele>
        <time>2023-08-06T17:24:49Z</time>
      </trkpt>
      <trkpt lat="49.63359" lon="3.38799">
        <ele>50.8</ele>
        <time>2023-08-06T17:24:50Z</time>
      </trkpt>
      <trkpt lat="49.6336" lon="3.38804">
        <ele>50.8</ele>
        <time>2023-08-06T17:24:51Z</time>
      </trkpt>
      <trkpt lat="49.63362" lon="3.38817">
        <ele>51</ele>
        <time>2023-08-06T17:24:54Z</time>
      </trkpt>
      <trkpt lat="49.63363" lon="3.38832">
        <ele>51</ele>
        <time>2023-08-06T17:24:57Z</time>
      </trkpt>
      <trkpt lat="49.63365" lon="3.38842">
        <ele>51.4</ele>
        <time>2023-08-06T17:24:59Z</time>
      </trkpt>
      <trkpt lat="49.63369" lon="3.38875">
        <ele>51.6</ele>
        <time>2023-08-06T17:25:06Z</time>
      </trkpt>
      <trkpt lat="49.63369" lon="3.38884">
        <ele>51.6</ele>
        <time>2023-08-06T17:25:08Z</time>
      </trkpt>
      <trkpt lat="49.63369" lon="3.3889">
        <ele>51.6</ele>
        <time>2023-08-06T17:25:09Z</time>
      </trkpt>
      <trkpt lat="49.6337" lon="3.38895">
        <ele>51.6</ele>
        <time>2023-08-06T17:25:10Z</time>
      </trkpt>
      <trkpt lat="49.63371" lon="3.38929">
        <ele>51.8</ele>
        <time>2023-08-06T17:25:17Z</time>
      </trkpt>
      <trkpt lat="49.63373" lon="3.38974">
        <ele>52</ele>
        <time>2023-08-06T17:25:26Z</time>
      </trkpt>
      <trkpt lat="49.63373" lon="3.38978">
        <ele>52</ele>
        <time>2023-08-06T17:25:27Z</time>
      </trkpt>
      <trkpt lat="49.63371" lon="3.38981">
        <ele>51.8</ele>
        <time>2023-08-06T17:25:28Z</time>
      </trkpt>
      <trkpt lat="49.6337" lon="3.38983">
        <ele>51.8</ele>
        <time>2023-08-06T17:25:29Z</time>
      </trkpt>
      <trkpt lat="49.63368" lon="3.38984">
        <ele>51.8</ele>
        <time>2023-08-06T17:25:30Z</time>
      </trkpt>
      <trkpt lat="49.63366" lon="3.38985">
        <ele>51.8</ele>
        <time>2023-08-06T17:25:31Z</time>
      </trkpt>
      <trkpt lat="49.63364" lon="3.38987">
        <ele>51.6</ele>
        <time>2023-08-06T17:25:32Z</time>
      </trkpt>
      <trkpt lat="49.63363" lon="3.38988">
        <ele>51.6</ele>
        <time>2023-08-06T17:25:33Z</time>
      </trkpt>
      <trkpt lat="49.63357" lon="3.38994">
        <ele>51.6</ele>
        <time>2023-08-06T17:25:36Z</time>
      </trkpt>
      <trkpt lat="49.63342" lon="3.39012">
        <ele>52</ele>
        <time>2023-08-06T17:25:43Z</time>
      </trkpt>
      <trkpt lat="49.63327" lon="3.39034">
        <ele>52</ele>
        <time>2023-08-06T17:25:50Z</time>
      </trkpt>
      <trkpt lat="49.63302" lon="3.39069">
        <ele>52.2</ele>
        <time>2023-08-06T17:26:00Z</time>
      </trkpt>
      <trkpt lat="49.63275" lon="3.39108">
        <ele>52</ele>
        <time>2023-08-06T17:26:10Z</time>
      </trkpt>
      <trkpt lat="49.6325" lon="3.39144">
        <ele>51.8</ele>
        <time>2023-08-06T17:26:18Z</time>
      </trkpt>
      <trkpt lat="49.63228" lon="3.39177">
        <ele>51.6</ele>
        <time>2023-08-06T17:26:25Z</time>
      </trkpt>
      <trkpt lat="49.63194" lon="3.39228">
        <ele>51</ele>
        <time>2023-08-06T17:26:36Z</time>
      </trkpt>
      <trkpt lat="49.63161" lon="3.39283">
        <ele>50.6</ele>
        <time>2023-08-06T17:26:47Z</time>
      </trkpt>
      <trkpt lat="49.6315" lon="3.39296">
        <ele>50.4</ele>
        <time>2023-08-06T17:26:50Z</time>
      </trkpt>
      <trkpt lat="49.63141" lon="3.39301">
        <ele>50.4</ele>
        <time>2023-08-06T17:26:52Z</time>
      </trkpt>
      <trkpt lat="49.63136" lon="3.39302">
        <ele>50.4</ele>
        <time>2023-08-06T17:26:53Z</time>
      </trkpt>
      <trkpt lat="49.63131" lon="3.39302">
        <ele>50.2</ele>
        <time>2023-08-06T17:26:54Z</time>
      </trkpt>
      <trkpt lat="49.63107" lon="3.39302">
        <ele>49.8</ele>
        <time>2023-08-06T17:26:59Z</time>
      </trkpt>
      <trkpt lat="49.63098" lon="3.39304">
        <ele>49.6</ele>
        <time>2023-08-06T17:27:01Z</time>
      </trkpt>
      <trkpt lat="49.63089" lon="3.39304">
        <ele>49.6</ele>
        <time>2023-08-06T17:27:03Z</time>
      </trkpt>
      <trkpt lat="49.63084" lon="3.39303">
        <ele>49.4</ele>
        <time>2023-08-06T17:27:04Z</time>
      </trkpt>
      <trkpt lat="49.6305" lon="3.39304">
        <ele>49.4</ele>
        <time>2023-08-06T17:27:11Z</time>
      </trkpt>
      <trkpt lat="49.6304" lon="3.39305">
        <ele>49.2</ele>
        <time>2023-08-06T17:27:13Z</time>
      </trkpt>
      <trkpt lat="49.62996" lon="3.39307">
        <ele>48.6</ele>
        <time>2023-08-06T17:27:22Z</time>
      </trkpt>
      <trkpt lat="49.62982" lon="3.39307">
        <ele>48.6</ele>
        <time>2023-08-06T17:27:25Z</time>
      </trkpt>
      <trkpt lat="49.62978" lon="3.39307">
        <ele>48.6</ele>
        <time>2023-08-06T17:27:26Z</time>
      </trkpt>
      <trkpt lat="49.62974" lon="3.39306">
        <ele>48.2</ele>
        <time>2023-08-06T17:27:27Z</time>
      </trkpt>
      <trkpt lat="49.6297" lon="3.39306">
        <ele>48.4</ele>
        <time>2023-08-06T17:27:28Z</time>
      </trkpt>
      <trkpt lat="49.62966" lon="3.39305">
        <ele>48.4</ele>
        <time>2023-08-06T17:27:29Z</time>
      </trkpt>
      <trkpt lat="49.62963" lon="3.39304">
        <ele>48.4</ele>
        <time>2023-08-06T17:27:30Z</time>
      </trkpt>
      <trkpt lat="49.6296" lon="3.39304">
        <ele>48.4</ele>
        <time>2023-08-06T17:27:31Z</time>
      </trkpt>
      <trkpt lat="49.62957" lon="3.39303">
        <ele>48.4</ele>
        <time>2023-08-06T17:27:32Z</time>
      </trkpt>
      <trkpt lat="49.62954" lon="3.39303">
        <ele>48.4</ele>
        <time>2023-08-06T17:27:33Z</time>
      </trkpt>
      <trkpt lat="49.6295" lon="3.39302">
        <ele>48.2</ele>
        <time>2023-08-06T17:27:34Z</time>
      </trkpt>
      <trkpt lat="49.62936" lon="3.393">
        <ele>48</ele>
        <time>2023-08-06T17:27:38Z</time>
      </trkpt>
      <trkpt lat="49.62928" lon="3.39298">
        <ele>48</ele>
        <time>2023-08-06T17:27:40Z</time>
      </trkpt>
      <trkpt lat="49.62885" lon="3.39287">
        <ele>47.6</ele>
        <time>2023-08-06T17:27:50Z</time>
      </trkpt>
      <trkpt lat="49.62854" lon="3.3928">
        <ele>47.4</ele>
        <time>2023-08-06T17:27:57Z</time>
      </trkpt>
      <trkpt lat="49.6285" lon="3.39279">
        <ele>47.2</ele>
        <time>2023-08-06T17:27:58Z</time>
      </trkpt>
      <trkpt lat="49.62846" lon="3.39279">
        <ele>47.2</ele>
        <time>2023-08-06T17:27:59Z</time>
      </trkpt>
      <trkpt lat="49.62837" lon="3.39279">
        <ele>47.2</ele>
        <time>2023-08-06T17:28:01Z</time>
      </trkpt>
      <trkpt lat="49.62833" lon="3.39279">
        <ele>47</ele>
        <time>2023-08-06T17:28:02Z</time>
      </trkpt>
      <trkpt lat="49.62829" lon="3.39279">
        <ele>47</ele>
        <time>2023-08-06T17:28:03Z</time>
      </trkpt>
      <trkpt lat="49.62825" lon="3.3928">
        <ele>47</ele>
        <time>2023-08-06T17:28:04Z</time>
      </trkpt>
      <trkpt lat="49.62822" lon="3.3928">
        <ele>47</ele>
        <time>2023-08-06T17:28:05Z</time>
      </trkpt>
      <trkpt lat="49.62818" lon="3.3928">
        <ele>47</ele>
        <time>2023-08-06T17:28:06Z</time>
      </trkpt>
      <trkpt lat="49.62814" lon="3.39281">
        <ele>47</ele>
        <time>2023-08-06T17:28:07Z</time>
      </trkpt>
      <trkpt lat="49.62811" lon="3.39281">
        <ele>47</ele>
        <time>2023-08-06T17:28:08Z</time>
      </trkpt>
      <trkpt lat="49.62807" lon="3.39282">
        <ele>47</ele>
        <time>2023-08-06T17:28:09Z</time>
      </trkpt>
      <trkpt lat="49.62804" lon="3.39283">
        <ele>47</ele>
        <time>2023-08-06T17:28:10Z</time>
      </trkpt>
      <trkpt lat="49.628" lon="3.39283">
        <ele>47</ele>
        <time>2023-08-06T17:28:11Z</time>
      </trkpt>
      <trkpt lat="49.62797" lon="3.39284">
        <ele>47</ele>
        <time>2023-08-06T17:28:12Z</time>
      </trkpt>
      <trkpt lat="49.62794" lon="3.39285">
        <ele>47</ele>
        <time>2023-08-06T17:28:13Z</time>
      </trkpt>
      <trkpt lat="49.62791" lon="3.39286">
        <ele>47.2</ele>
        <time>2023-08-06T17:28:14Z</time>
      </trkpt>
      <trkpt lat="49.62788" lon="3.39286">
        <ele>47.2</ele>
        <time>2023-08-06T17:28:15Z</time>
      </trkpt>
      <trkpt lat="49.62785" lon="3.39287">
        <ele>47.2</ele>
        <time>2023-08-06T17:28:16Z</time>
      </trkpt>
      <trkpt lat="49.62782" lon="3.39287">
        <ele>47.2</ele>
        <time>2023-08-06T17:28:17Z</time>
      </trkpt>
      <trkpt lat="49.62779" lon="3.39287">
        <ele>47.2</ele>
        <time>2023-08-06T17:28:18Z</time>
      </trkpt>
      <trkpt lat="49.62777" lon="3.39286">
        <ele>47.2</ele>
        <time>2023-08-06T17:28:19Z</time>
      </trkpt>
      <trkpt lat="49.62775" lon="3.39286">
        <ele>47.2</ele>
        <time>2023-08-06T17:28:20Z</time>
      </trkpt>
      <trkpt lat="49.62773" lon="3.39286">
        <ele>47.2</ele>
        <time>2023-08-06T17:28:21Z</time>
      </trkpt>
      <trkpt lat="49.62771" lon="3.39287">
        <ele>47.2</ele>
        <time>2023-08-06T17:28:22Z</time>
      </trkpt>
      <trkpt lat="49.6277" lon="3.39288">
        <ele>47.2</ele>
        <time>2023-08-06T17:28:23Z</time>
      </trkpt>
      <trkpt lat="49.6277" lon="3.39288">
        <ele>47.2</ele>
        <time>2023-08-06T17:28:24Z</time>
      </trkpt>
      <trkpt lat="49.6277" lon="3.39288">
        <ele>47.2</ele>
        <time>2023-08-06T17:28:25Z</time>
      </trkpt>
      <trkpt lat="49.62763" lon="3.3929">
        <ele>47.2</ele>
        <time>2023-08-06T17:28:45Z</time>
      </trkpt>
      <trkpt lat="49.6276" lon="3.3929">
        <ele>47.2</ele>
        <time>2023-08-06T17:28:46Z</time>
      </trkpt>
      <trkpt lat="49.62755" lon="3.3929">
        <ele>47.4</ele>
        <time>2023-08-06T17:28:48Z</time>
      </trkpt>
      <trkpt lat="49.62748" lon="3.39292">
        <ele>47.6</ele>
        <time>2023-08-06T17:28:51Z</time>
      </trkpt>
      <trkpt lat="49.62734" lon="3.39296">
        <ele>47.8</ele>
        <time>2023-08-06T17:28:56Z</time>
      </trkpt>
      <trkpt lat="49.62722" lon="3.39298">
        <ele>48</ele>
        <time>2023-08-06T17:29:00Z</time>
      </trkpt>
      <trkpt lat="49.62705" lon="3.39302">
        <ele>48.2</ele>
        <time>2023-08-06T17:29:05Z</time>
      </trkpt>
      <trkpt lat="49.6267" lon="3.39312">
        <ele>48.2</ele>
        <time>2023-08-06T17:29:15Z</time>
      </trkpt>
      <trkpt lat="49.6263" lon="3.39322">
        <ele>48.4</ele>
        <time>2023-08-06T17:29:25Z</time>
      </trkpt>
      <trkpt lat="49.62588" lon="3.39333">
        <ele>48.4</ele>
        <time>2023-08-06T17:29:34Z</time>
      </trkpt>
      <trkpt lat="49.62566" lon="3.39338">
        <ele>47.8</ele>
        <time>2023-08-06T17:29:39Z</time>
      </trkpt>
      <trkpt lat="49.62562" lon="3.39339">
        <ele>47.8</ele>
        <time>2023-08-06T17:29:40Z</time>
      </trkpt>
      <trkpt lat="49.62558" lon="3.3934">
        <ele>47.8</ele>
        <time>2023-08-06T17:29:41Z</time>
      </trkpt>
      <trkpt lat="49.62554" lon="3.39341">
        <ele>47.8</ele>
        <time>2023-08-06T17:29:42Z</time>
      </trkpt>
      <trkpt lat="49.62551" lon="3.39342">
        <ele>47.8</ele>
        <time>2023-08-06T17:29:43Z</time>
      </trkpt>
      <trkpt lat="49.62547" lon="3.39342">
        <ele>47.8</ele>
        <time>2023-08-06T17:29:44Z</time>
      </trkpt>
      <trkpt lat="49.62543" lon="3.39343">
        <ele>47.8</ele>
        <time>2023-08-06T17:29:45Z</time>
      </trkpt>
      <trkpt lat="49.62539" lon="3.39344">
        <ele>47.8</ele>
        <time>2023-08-06T17:29:46Z</time>
      </trkpt>
      <trkpt lat="49.62535" lon="3.39345">
        <ele>47.8</ele>
        <time>2023-08-06T17:29:47Z</time>
      </trkpt>
      <trkpt lat="49.62517" lon="3.3935">
        <ele>47.8</ele>
        <time>2023-08-06T17:29:52Z</time>
      </trkpt>
      <trkpt lat="49.62506" lon="3.39353">
        <ele>47.8</ele>
        <time>2023-08-06T17:29:55Z</time>
      </trkpt>
      <trkpt lat="49.62503" lon="3.39353">
        <ele>47.8</ele>
        <time>2023-08-06T17:29:56Z</time>
      </trkpt>
      <trkpt lat="49.625" lon="3.39354">
        <ele>47.8</ele>
        <time>2023-08-06T17:29:57Z</time>
      </trkpt>
      <trkpt lat="49.62497" lon="3.39355">
        <ele>47.8</ele>
        <time>2023-08-06T17:29:58Z</time>
      </trkpt>
      <trkpt lat="49.62494" lon="3.39356">
        <ele>47.6</ele>
        <time>2023-08-06T17:29:59Z</time>
      </trkpt>
      <trkpt lat="49.62491" lon="3.39356">
        <ele>47.6</ele>
        <time>2023-08-06T17:30:00Z</time>
      </trkpt>
      <trkpt lat="49.62489" lon="3.39357">
        <ele>47.6</ele>
        <time>2023-08-06T17:30:01Z</time>
      </trkpt>
      <trkpt lat="49.62486" lon="3.39357">
        <ele>47.6</ele>
        <time>2023-08-06T17:30:02Z</time>
      </trkpt>
      <trkpt lat="49.62482" lon="3.39358">
        <ele>47.6</ele>
        <time>2023-08-06T17:30:03Z</time>
      </trkpt>
      <trkpt lat="49.6248" lon="3.39359">
        <ele>47.6</ele>
        <time>2023-08-06T17:30:04Z</time>
      </trkpt>
      <trkpt lat="49.62477" lon="3.39359">
        <ele>47.6</ele>
        <time>2023-08-06T17:30:05Z</time>
      </trkpt>
      <trkpt lat="49.62474" lon="3.3936">
        <ele>47.6</ele>
        <time>2023-08-06T17:30:06Z</time>
      </trkpt>
      <trkpt lat="49.62471" lon="3.39361">
        <ele>47.6</ele>
        <time>2023-08-06T17:30:07Z</time>
      </trkpt>
      <trkpt lat="49.62469" lon="3.39361">
        <ele>47.6</ele>
        <time>2023-08-06T17:30:08Z</time>
      </trkpt>
      <trkpt lat="49.62464" lon="3.39363">
        <ele>47.6</ele>
        <time>2023-08-06T17:30:10Z</time>
      </trkpt>
      <trkpt lat="49.62461" lon="3.39363">
        <ele>47.6</ele>
        <time>2023-08-06T17:30:11Z</time>
      </trkpt>
      <trkpt lat="49.62459" lon="3.39365">
        <ele>47.6</ele>
        <time>2023-08-06T17:30:12Z</time>
      </trkpt>
      <trkpt lat="49.62456" lon="3.39365">
        <ele>47.8</ele>
        <time>2023-08-06T17:30:13Z</time>
      </trkpt>
      <trkpt lat="49.6245" lon="3.39368">
        <ele>48</ele>
        <time>2023-08-06T17:30:15Z</time>
      </trkpt>
      <trkpt lat="49.62448" lon="3.39368">
        <ele>48</ele>
        <time>2023-08-06T17:30:16Z</time>
      </trkpt>
      <trkpt lat="49.62445" lon="3.39369">
        <ele>48</ele>
        <time>2023-08-06T17:30:17Z</time>
      </trkpt>
      <trkpt lat="49.62429" lon="3.39374">
        <ele>48</ele>
        <time>2023-08-06T17:30:23Z</time>
      </trkpt>
      <trkpt lat="49.62427" lon="3.39375">
        <ele>48.2</ele>
        <time>2023-08-06T17:30:24Z</time>
      </trkpt>
      <trkpt lat="49.62424" lon="3.39376">
        <ele>48.2</ele>
        <time>2023-08-06T17:30:25Z</time>
      </trkpt>
      <trkpt lat="49.62422" lon="3.39377">
        <ele>48.2</ele>
        <time>2023-08-06T17:30:26Z</time>
      </trkpt>
      <trkpt lat="49.6242" lon="3.39378">
        <ele>48.2</ele>
        <time>2023-08-06T17:30:27Z</time>
      </trkpt>
      <trkpt lat="49.62407" lon="3.39383">
        <ele>48.4</ele>
        <time>2023-08-06T17:30:32Z</time>
      </trkpt>
      <trkpt lat="49.62377" lon="3.39398">
        <ele>48.8</ele>
        <time>2023-08-06T17:30:43Z</time>
      </trkpt>
      <trkpt lat="49.62366" lon="3.39404">
        <ele>49</ele>
        <time>2023-08-06T17:30:48Z</time>
      </trkpt>
      <trkpt lat="49.62363" lon="3.39404">
        <ele>49</ele>
        <time>2023-08-06T17:30:49Z</time>
      </trkpt>
      <trkpt lat="49.62352" lon="3.39408">
        <ele>49</ele>
        <time>2023-08-06T17:30:53Z</time>
      </trkpt>
      <trkpt lat="49.62333" lon="3.39405">
        <ele>48.8</ele>
        <time>2023-08-06T17:31:00Z</time>
      </trkpt>
      <trkpt lat="49.6233" lon="3.39404">
        <ele>48.8</ele>
        <time>2023-08-06T17:31:01Z</time>
      </trkpt>
      <trkpt lat="49.62317" lon="3.39391">
        <ele>49</ele>
        <time>2023-08-06T17:31:07Z</time>
      </trkpt>
      <trkpt lat="49.62316" lon="3.39389">
        <ele>49</ele>
        <time>2023-08-06T17:31:08Z</time>
      </trkpt>
      <trkpt lat="49.62314" lon="3.39387">
        <ele>49</ele>
        <time>2023-08-06T17:31:09Z</time>
      </trkpt>
      <trkpt lat="49.62313" lon="3.39386">
        <ele>49.2</ele>
        <time>2023-08-06T17:31:10Z</time>
      </trkpt>
      <trkpt lat="49.62311" lon="3.39385">
        <ele>49.4</ele>
        <time>2023-08-06T17:31:11Z</time>
      </trkpt>
      <trkpt lat="49.623" lon="3.39373">
        <ele>49.8</ele>
        <time>2023-08-06T17:31:17Z</time>
      </trkpt>
      <trkpt lat="49.62293" lon="3.39366">
        <ele>50</ele>
        <time>2023-08-06T17:31:20Z</time>
      </trkpt>
      <trkpt lat="49.62291" lon="3.39364">
        <ele>50</ele>
        <time>2023-08-06T17:31:21Z</time>
      </trkpt>
      <trkpt lat="49.62288" lon="3.39362">
        <ele>50</ele>
        <time>2023-08-06T17:31:22Z</time>
      </trkpt>
      <trkpt lat="49.62286" lon="3.3936">
        <ele>50</ele>
        <time>2023-08-06T17:31:23Z</time>
      </trkpt>
      <trkpt lat="49.6228" lon="3.39354">
        <ele>50.4</ele>
        <time>2023-08-06T17:31:26Z</time>
      </trkpt>
      <trkpt lat="49.62278" lon="3.39352">
        <ele>50.4</ele>
        <time>2023-08-06T17:31:27Z</time>
      </trkpt>
      <trkpt lat="49.62276" lon="3.3935">
        <ele>50.6</ele>
        <time>2023-08-06T17:31:28Z</time>
      </trkpt>
      <trkpt lat="49.62274" lon="3.39348">
        <ele>50.6</ele>
        <time>2023-08-06T17:31:29Z</time>
      </trkpt>
      <trkpt lat="49.62272" lon="3.39347">
        <ele>50.6</ele>
        <time>2023-08-06T17:31:30Z</time>
      </trkpt>
      <trkpt lat="49.6227" lon="3.39345">
        <ele>50.6</ele>
        <time>2023-08-06T17:31:31Z</time>
      </trkpt>
      <trkpt lat="49.62268" lon="3.39343">
        <ele>50.6</ele>
        <time>2023-08-06T17:31:32Z</time>
      </trkpt>
      <trkpt lat="49.62266" lon="3.39341">
        <ele>50.6</ele>
        <time>2023-08-06T17:31:33Z</time>
      </trkpt>
      <trkpt lat="49.62262" lon="3.39337">
        <ele>50.6</ele>
        <time>2023-08-06T17:31:35Z</time>
      </trkpt>
      <trkpt lat="49.62242" lon="3.39321">
        <ele>50.6</ele>
        <time>2023-08-06T17:31:44Z</time>
      </trkpt>
      <trkpt lat="49.62228" lon="3.39309">
        <ele>51</ele>
        <time>2023-08-06T17:31:51Z</time>
      </trkpt>
      <trkpt lat="49.62216" lon="3.39299">
        <ele>51.4</ele>
        <time>2023-08-06T17:31:56Z</time>
      </trkpt>
      <trkpt lat="49.62206" lon="3.3929">
        <ele>51.6</ele>
        <time>2023-08-06T17:32:01Z</time>
      </trkpt>
      <trkpt lat="49.62204" lon="3.39288">
        <ele>51.6</ele>
        <time>2023-08-06T17:32:02Z</time>
      </trkpt>
      <trkpt lat="49.62202" lon="3.39287">
        <ele>51.6</ele>
        <time>2023-08-06T17:32:03Z</time>
      </trkpt>
      <trkpt lat="49.622" lon="3.39285">
        <ele>51.6</ele>
        <time>2023-08-06T17:32:04Z</time>
      </trkpt>
      <trkpt lat="49.62198" lon="3.39284">
        <ele>51.6</ele>
        <time>2023-08-06T17:32:05Z</time>
      </trkpt>
      <trkpt lat="49.62191" lon="3.39278">
        <ele>51.8</ele>
        <time>2023-08-06T17:32:08Z</time>
      </trkpt>
      <trkpt lat="49.62187" lon="3.39274">
        <ele>52</ele>
        <time>2023-08-06T17:32:10Z</time>
      </trkpt>
      <trkpt lat="49.62181" lon="3.3927">
        <ele>52.2</ele>
        <time>2023-08-06T17:32:13Z</time>
      </trkpt>
      <trkpt lat="49.62169" lon="3.3926">
        <ele>52.8</ele>
        <time>2023-08-06T17:32:19Z</time>
      </trkpt>
      <trkpt lat="49.6216" lon="3.39252">
        <ele>53</ele>
        <time>2023-08-06T17:32:23Z</time>
      </trkpt>
      <trkpt lat="49.62145" lon="3.3924">
        <ele>53.6</ele>
        <time>2023-08-06T17:32:30Z</time>
      </trkpt>
      <trkpt lat="49.62126" lon="3.39227">
        <ele>54</ele>
        <time>2023-08-06T17:32:38Z</time>
      </trkpt>
      <trkpt lat="49.62119" lon="3.39223">
        <ele>54.4</ele>
        <time>2023-08-06T17:32:41Z</time>
      </trkpt>
      <trkpt lat="49.62097" lon="3.39213">
        <ele>55</ele>
        <time>2023-08-06T17:32:50Z</time>
      </trkpt>
      <trkpt lat="49.62095" lon="3.39212">
        <ele>55.2</ele>
        <time>2023-08-06T17:32:51Z</time>
      </trkpt>
      <trkpt lat="49.62092" lon="3.3921">
        <ele>55.2</ele>
        <time>2023-08-06T17:32:52Z</time>
      </trkpt>
      <trkpt lat="49.6209" lon="3.39209">
        <ele>55.4</ele>
        <time>2023-08-06T17:32:53Z</time>
      </trkpt>
      <trkpt lat="49.62088" lon="3.39208">
        <ele>55.4</ele>
        <time>2023-08-06T17:32:54Z</time>
      </trkpt>
      <trkpt lat="49.62086" lon="3.39207">
        <ele>55.4</ele>
        <time>2023-08-06T17:32:55Z</time>
      </trkpt>
      <trkpt lat="49.62084" lon="3.39206">
        <ele>55.6</ele>
        <time>2023-08-06T17:32:56Z</time>
      </trkpt>
      <trkpt lat="49.62082" lon="3.39205">
        <ele>55.6</ele>
        <time>2023-08-06T17:32:57Z</time>
      </trkpt>
      <trkpt lat="49.6208" lon="3.39204">
        <ele>55.8</ele>
        <time>2023-08-06T17:32:58Z</time>
      </trkpt>
      <trkpt lat="49.62078" lon="3.39203">
        <ele>55.8</ele>
        <time>2023-08-06T17:32:59Z</time>
      </trkpt>
      <trkpt lat="49.62076" lon="3.39202">
        <ele>56</ele>
        <time>2023-08-06T17:33:00Z</time>
      </trkpt>
      <trkpt lat="49.62074" lon="3.39201">
        <ele>56.2</ele>
        <time>2023-08-06T17:33:01Z</time>
      </trkpt>
      <trkpt lat="49.62071" lon="3.392">
        <ele>56.4</ele>
        <time>2023-08-06T17:33:02Z</time>
      </trkpt>
      <trkpt lat="49.62059" lon="3.39194">
        <ele>57</ele>
        <time>2023-08-06T17:33:08Z</time>
      </trkpt>
      <trkpt lat="49.62057" lon="3.39193">
        <ele>57</ele>
        <time>2023-08-06T17:33:09Z</time>
      </trkpt>
      <trkpt lat="49.62052" lon="3.39192">
        <ele>57.4</ele>
        <time>2023-08-06T17:33:11Z</time>
      </trkpt>
      <trkpt lat="49.62046" lon="3.39189">
        <ele>57.6</ele>
        <time>2023-08-06T17:33:14Z</time>
      </trkpt>
      <trkpt lat="49.62044" lon="3.39189">
        <ele>57.6</ele>
        <time>2023-08-06T17:33:15Z</time>
      </trkpt>
      <trkpt lat="49.62042" lon="3.39189">
        <ele>57.6</ele>
        <time>2023-08-06T17:33:16Z</time>
      </trkpt>
      <trkpt lat="49.6204" lon="3.39188">
        <ele>57.6</ele>
        <time>2023-08-06T17:33:17Z</time>
      </trkpt>
      <trkpt lat="49.62033" lon="3.39185">
        <ele>58</ele>
        <time>2023-08-06T17:33:21Z</time>
      </trkpt>
      <trkpt lat="49.62031" lon="3.39183">
        <ele>58.2</ele>
        <time>2023-08-06T17:33:22Z</time>
      </trkpt>
      <trkpt lat="49.6203" lon="3.39181">
        <ele>58.4</ele>
        <time>2023-08-06T17:33:23Z</time>
      </trkpt>
      <trkpt lat="49.62029" lon="3.3918">
        <ele>58.4</ele>
        <time>2023-08-06T17:33:24Z</time>
      </trkpt>
      <trkpt lat="49.62027" lon="3.39179">
        <ele>58.6</ele>
        <time>2023-08-06T17:33:25Z</time>
      </trkpt>
      <trkpt lat="49.62026" lon="3.39178">
        <ele>58.6</ele>
        <time>2023-08-06T17:33:26Z</time>
      </trkpt>
      <trkpt lat="49.62025" lon="3.39177">
        <ele>58.8</ele>
        <time>2023-08-06T17:33:27Z</time>
      </trkpt>
      <trkpt lat="49.62023" lon="3.39176">
        <ele>58.8</ele>
        <time>2023-08-06T17:33:28Z</time>
      </trkpt>
      <trkpt lat="49.62022" lon="3.39175">
        <ele>58.8</ele>
        <time>2023-08-06T17:33:29Z</time>
      </trkpt>
      <trkpt lat="49.62021" lon="3.39175">
        <ele>59</ele>
        <time>2023-08-06T17:33:30Z</time>
      </trkpt>
      <trkpt lat="49.6202" lon="3.39174">
        <ele>59</ele>
        <time>2023-08-06T17:33:31Z</time>
      </trkpt>
      <trkpt lat="49.62018" lon="3.39174">
        <ele>59</ele>
        <time>2023-08-06T17:33:32Z</time>
      </trkpt>
      <trkpt lat="49.62005" lon="3.39169">
        <ele>59.2</ele>
        <time>2023-08-06T17:33:38Z</time>
      </trkpt>
      <trkpt lat="49.62003" lon="3.39168">
        <ele>59.2</ele>
        <time>2023-08-06T17:33:39Z</time>
      </trkpt>
      <trkpt lat="49.61982" lon="3.39162">
        <ele>58.6</ele>
        <time>2023-08-06T17:33:46Z</time>
      </trkpt>
      <trkpt lat="49.61956" lon="3.39155">
        <ele>57.4</ele>
        <time>2023-08-06T17:33:52Z</time>
      </trkpt>
      <trkpt lat="49.61951" lon="3.39154">
        <ele>57</ele>
        <time>2023-08-06T17:33:53Z</time>
      </trkpt>
      <trkpt lat="49.61946" lon="3.39153">
        <ele>57</ele>
        <time>2023-08-06T17:33:54Z</time>
      </trkpt>
      <trkpt lat="49.61941" lon="3.39152">
        <ele>56.8</ele>
        <time>2023-08-06T17:33:55Z</time>
      </trkpt>
      <trkpt lat="49.61926" lon="3.39151">
        <ele>56.4</ele>
        <time>2023-08-06T17:33:58Z</time>
      </trkpt>
      <trkpt lat="49.61921" lon="3.39151">
        <ele>56.2</ele>
        <time>2023-08-06T17:33:59Z</time>
      </trkpt>
      <trkpt lat="49.61905" lon="3.3915">
        <ele>54.8</ele>
        <time>2023-08-06T17:34:02Z</time>
      </trkpt>
      <trkpt lat="49.61885" lon="3.39151">
        <ele>53.2</ele>
        <time>2023-08-06T17:34:06Z</time>
      </trkpt>
      <trkpt lat="49.61876" lon="3.39151">
        <ele>53</ele>
        <time>2023-08-06T17:34:08Z</time>
      </trkpt>
      <trkpt lat="49.61872" lon="3.39151">
        <ele>52.8</ele>
        <time>2023-08-06T17:34:09Z</time>
      </trkpt>
      <trkpt lat="49.61868" lon="3.39151">
        <ele>52.8</ele>
        <time>2023-08-06T17:34:10Z</time>
      </trkpt>
      <trkpt lat="49.61859" lon="3.39151">
        <ele>52.2</ele>
        <time>2023-08-06T17:34:12Z</time>
      </trkpt>
      <trkpt lat="49.61856" lon="3.39152">
        <ele>52</ele>
        <time>2023-08-06T17:34:13Z</time>
      </trkpt>
      <trkpt lat="49.61852" lon="3.39152">
        <ele>51.8</ele>
        <time>2023-08-06T17:34:14Z</time>
      </trkpt>
      <trkpt lat="49.61848" lon="3.39152">
        <ele>51.6</ele>
        <time>2023-08-06T17:34:15Z</time>
      </trkpt>
      <trkpt lat="49.61844" lon="3.39152">
        <ele>51.4</ele>
        <time>2023-08-06T17:34:16Z</time>
      </trkpt>
      <trkpt lat="49.61841" lon="3.39152">
        <ele>51.4</ele>
        <time>2023-08-06T17:34:17Z</time>
      </trkpt>
      <trkpt lat="49.61837" lon="3.39152">
        <ele>51.4</ele>
        <time>2023-08-06T17:34:18Z</time>
      </trkpt>
      <trkpt lat="49.6183" lon="3.39151">
        <ele>51.2</ele>
        <time>2023-08-06T17:34:20Z</time>
      </trkpt>
      <trkpt lat="49.61818" lon="3.39151">
        <ele>51.2</ele>
        <time>2023-08-06T17:34:23Z</time>
      </trkpt>
      <trkpt lat="49.61784" lon="3.39146">
        <ele>51</ele>
        <time>2023-08-06T17:34:32Z</time>
      </trkpt>
      <trkpt lat="49.61782" lon="3.39145">
        <ele>51</ele>
        <time>2023-08-06T17:34:33Z</time>
      </trkpt>
      <trkpt lat="49.61779" lon="3.39144">
        <ele>50.8</ele>
        <time>2023-08-06T17:34:34Z</time>
      </trkpt>
      <trkpt lat="49.61777" lon="3.39143">
        <ele>50.8</ele>
        <time>2023-08-06T17:34:35Z</time>
      </trkpt>
      <trkpt lat="49.61774" lon="3.39142">
        <ele>50.6</ele>
        <time>2023-08-06T17:34:36Z</time>
      </trkpt>
      <trkpt lat="49.61769" lon="3.39138">
        <ele>50.4</ele>
        <time>2023-08-06T17:34:38Z</time>
      </trkpt>
      <trkpt lat="49.6176" lon="3.39134">
        <ele>50</ele>
        <time>2023-08-06T17:34:41Z</time>
      </trkpt>
      <trkpt lat="49.61738" lon="3.39125">
        <ele>49.8</ele>
        <time>2023-08-06T17:34:47Z</time>
      </trkpt>
      <trkpt lat="49.61713" lon="3.39113">
        <ele>48.8</ele>
        <time>2023-08-06T17:34:54Z</time>
      </trkpt>
      <trkpt lat="49.6171" lon="3.39112">
        <ele>48.8</ele>
        <time>2023-08-06T17:34:55Z</time>
      </trkpt>
      <trkpt lat="49.61707" lon="3.39111">
        <ele>48.6</ele>
        <time>2023-08-06T17:34:56Z</time>
      </trkpt>
      <trkpt lat="49.61703" lon="3.3911">
        <ele>48.6</ele>
        <time>2023-08-06T17:34:57Z</time>
      </trkpt>
      <trkpt lat="49.61682" lon="3.39107">
        <ele>48</ele>
        <time>2023-08-06T17:35:01Z</time>
      </trkpt>
      <trkpt lat="49.61676" lon="3.39106">
        <ele>47.8</ele>
        <time>2023-08-06T17:35:02Z</time>
      </trkpt>
      <trkpt lat="49.61655" lon="3.39104">
        <ele>46.6</ele>
        <time>2023-08-06T17:35:05Z</time>
      </trkpt>
      <trkpt lat="49.61648" lon="3.39104">
        <ele>45.8</ele>
        <time>2023-08-06T17:35:06Z</time>
      </trkpt>
      <trkpt lat="49.6164" lon="3.39102">
        <ele>45.6</ele>
        <time>2023-08-06T17:35:07Z</time>
      </trkpt>
      <trkpt lat="49.61616" lon="3.39099">
        <ele>44.2</ele>
        <time>2023-08-06T17:35:10Z</time>
      </trkpt>
      <trkpt lat="49.61609" lon="3.39098">
        <ele>43.8</ele>
        <time>2023-08-06T17:35:11Z</time>
      </trkpt>
      <trkpt lat="49.61602" lon="3.39098">
        <ele>43.6</ele>
        <time>2023-08-06T17:35:12Z</time>
      </trkpt>
      <trkpt lat="49.61596" lon="3.39097">
        <ele>43.2</ele>
        <time>2023-08-06T17:35:13Z</time>
      </trkpt>
      <trkpt lat="49.61589" lon="3.39097">
        <ele>43.2</ele>
        <time>2023-08-06T17:35:14Z</time>
      </trkpt>
      <trkpt lat="49.61583" lon="3.39096">
        <ele>42.2</ele>
        <time>2023-08-06T17:35:15Z</time>
      </trkpt>
      <trkpt lat="49.61576" lon="3.39096">
        <ele>41.6</ele>
        <time>2023-08-06T17:35:16Z</time>
      </trkpt>
      <trkpt lat="49.6157" lon="3.39095">
        <ele>40.8</ele>
        <time>2023-08-06T17:35:17Z</time>
      </trkpt>
      <trkpt lat="49.61556" lon="3.39091">
        <ele>40</ele>
        <time>2023-08-06T17:35:19Z</time>
      </trkpt>
      <trkpt lat="49.61543" lon="3.39084">
        <ele>39</ele>
        <time>2023-08-06T17:35:21Z</time>
      </trkpt>
      <trkpt lat="49.61525" lon="3.3907">
        <ele>38</ele>
        <time>2023-08-06T17:35:24Z</time>
      </trkpt>
      <trkpt lat="49.61515" lon="3.3906">
        <ele>37.2</ele>
        <time>2023-08-06T17:35:26Z</time>
      </trkpt>
      <trkpt lat="49.6151" lon="3.39055">
        <ele>36.6</ele>
        <time>2023-08-06T17:35:27Z</time>
      </trkpt>
      <trkpt lat="49.61505" lon="3.3905">
        <ele>36.6</ele>
        <time>2023-08-06T17:35:28Z</time>
      </trkpt>
      <trkpt lat="49.61501" lon="3.39045">
        <ele>36.2</ele>
        <time>2023-08-06T17:35:29Z</time>
      </trkpt>
      <trkpt lat="49.61498" lon="3.39039">
        <ele>36</ele>
        <time>2023-08-06T17:35:30Z</time>
      </trkpt>
      <trkpt lat="49.61496" lon="3.39033">
        <ele>35.6</ele>
        <time>2023-08-06T17:35:31Z</time>
      </trkpt>
      <trkpt lat="49.61494" lon="3.39026">
        <ele>35.4</ele>
        <time>2023-08-06T17:35:32Z</time>
      </trkpt>
      <trkpt lat="49.61493" lon="3.39019">
        <ele>35</ele>
        <time>2023-08-06T17:35:33Z</time>
      </trkpt>
      <trkpt lat="49.61492" lon="3.39013">
        <ele>34.8</ele>
        <time>2023-08-06T17:35:34Z</time>
      </trkpt>
      <trkpt lat="49.6149" lon="3.39006">
        <ele>34.6</ele>
        <time>2023-08-06T17:35:35Z</time>
      </trkpt>
      <trkpt lat="49.61489" lon="3.39">
        <ele>34.4</ele>
        <time>2023-08-06T17:35:36Z</time>
      </trkpt>
      <trkpt lat="49.61487" lon="3.38994">
        <ele>34.4</ele>
        <time>2023-08-06T17:35:37Z</time>
      </trkpt>
      <trkpt lat="49.61486" lon="3.38988">
        <ele>34.2</ele>
        <time>2023-08-06T17:35:38Z</time>
      </trkpt>
      <trkpt lat="49.6148" lon="3.38979">
        <ele>33.8</ele>
        <time>2023-08-06T17:35:40Z</time>
      </trkpt>
      <trkpt lat="49.61476" lon="3.38977">
        <ele>33.6</ele>
        <time>2023-08-06T17:35:41Z</time>
      </trkpt>
      <trkpt lat="49.61468" lon="3.38976">
        <ele>33</ele>
        <time>2023-08-06T17:35:43Z</time>
      </trkpt>
      <trkpt lat="49.61465" lon="3.38975">
        <ele>32.8</ele>
        <time>2023-08-06T17:35:44Z</time>
      </trkpt>
      <trkpt lat="49.61461" lon="3.38975">
        <ele>32.6</ele>
        <time>2023-08-06T17:35:45Z</time>
      </trkpt>
      <trkpt lat="49.61457" lon="3.38975">
        <ele>32.4</ele>
        <time>2023-08-06T17:35:46Z</time>
      </trkpt>
      <trkpt lat="49.61453" lon="3.38975">
        <ele>32.2</ele>
        <time>2023-08-06T17:35:47Z</time>
      </trkpt>
      <trkpt lat="49.61449" lon="3.38975">
        <ele>32</ele>
        <time>2023-08-06T17:35:48Z</time>
      </trkpt>
      <trkpt lat="49.61446" lon="3.38975">
        <ele>32</ele>
        <time>2023-08-06T17:35:49Z</time>
      </trkpt>
      <trkpt lat="49.61442" lon="3.38974">
        <ele>31.8</ele>
        <time>2023-08-06T17:35:50Z</time>
      </trkpt>
      <trkpt lat="49.61439" lon="3.38974">
        <ele>31.8</ele>
        <time>2023-08-06T17:35:51Z</time>
      </trkpt>
      <trkpt lat="49.61435" lon="3.38973">
        <ele>31.8</ele>
        <time>2023-08-06T17:35:52Z</time>
      </trkpt>
      <trkpt lat="49.61418" lon="3.38972">
        <ele>31.4</ele>
        <time>2023-08-06T17:35:57Z</time>
      </trkpt>
      <trkpt lat="49.614" lon="3.38969">
        <ele>30.8</ele>
        <time>2023-08-06T17:36:02Z</time>
      </trkpt>
      <trkpt lat="49.6139" lon="3.38965">
        <ele>30.6</ele>
        <time>2023-08-06T17:36:05Z</time>
      </trkpt>
      <trkpt lat="49.61387" lon="3.38964">
        <ele>30.6</ele>
        <time>2023-08-06T17:36:06Z</time>
      </trkpt>
      <trkpt lat="49.61383" lon="3.38962">
        <ele>30.4</ele>
        <time>2023-08-06T17:36:07Z</time>
      </trkpt>
      <trkpt lat="49.61381" lon="3.3896">
        <ele>30.4</ele>
        <time>2023-08-06T17:36:08Z</time>
      </trkpt>
      <trkpt lat="49.61378" lon="3.38958">
        <ele>30.4</ele>
        <time>2023-08-06T17:36:09Z</time>
      </trkpt>
      <trkpt lat="49.61375" lon="3.38956">
        <ele>30.4</ele>
        <time>2023-08-06T17:36:10Z</time>
      </trkpt>
      <trkpt lat="49.61372" lon="3.38954">
        <ele>30.4</ele>
        <time>2023-08-06T17:36:11Z</time>
      </trkpt>
      <trkpt lat="49.6137" lon="3.38953">
        <ele>30.6</ele>
        <time>2023-08-06T17:36:12Z</time>
      </trkpt>
      <trkpt lat="49.61366" lon="3.38951">
        <ele>30.8</ele>
        <time>2023-08-06T17:36:13Z</time>
      </trkpt>
      <trkpt lat="49.61364" lon="3.38949">
        <ele>30.8</ele>
        <time>2023-08-06T17:36:14Z</time>
      </trkpt>
      <trkpt lat="49.61361" lon="3.38948">
        <ele>30.8</ele>
        <time>2023-08-06T17:36:15Z</time>
      </trkpt>
      <trkpt lat="49.61358" lon="3.38945">
        <ele>30.8</ele>
        <time>2023-08-06T17:36:16Z</time>
      </trkpt>
      <trkpt lat="49.61356" lon="3.38943">
        <ele>30.8</ele>
        <time>2023-08-06T17:36:17Z</time>
      </trkpt>
      <trkpt lat="49.61353" lon="3.38941">
        <ele>31</ele>
        <time>2023-08-06T17:36:18Z</time>
      </trkpt>
      <trkpt lat="49.61351" lon="3.38939">
        <ele>31</ele>
        <time>2023-08-06T17:36:19Z</time>
      </trkpt>
      <trkpt lat="49.61348" lon="3.38938">
        <ele>31.2</ele>
        <time>2023-08-06T17:36:20Z</time>
      </trkpt>
      <trkpt lat="49.61346" lon="3.38936">
        <ele>31.2</ele>
        <time>2023-08-06T17:36:21Z</time>
      </trkpt>
      <trkpt lat="49.61343" lon="3.38934">
        <ele>31.2</ele>
        <time>2023-08-06T17:36:22Z</time>
      </trkpt>
      <trkpt lat="49.6134" lon="3.38933">
        <ele>31.2</ele>
        <time>2023-08-06T17:36:23Z</time>
      </trkpt>
      <trkpt lat="49.61338" lon="3.38932">
        <ele>31.4</ele>
        <time>2023-08-06T17:36:24Z</time>
      </trkpt>
      <trkpt lat="49.61333" lon="3.38932">
        <ele>31.6</ele>
        <time>2023-08-06T17:36:26Z</time>
      </trkpt>
      <trkpt lat="49.61331" lon="3.38933">
        <ele>31.8</ele>
        <time>2023-08-06T17:36:27Z</time>
      </trkpt>
      <trkpt lat="49.61329" lon="3.38934">
        <ele>32</ele>
        <time>2023-08-06T17:36:28Z</time>
      </trkpt>
      <trkpt lat="49.61328" lon="3.38936">
        <ele>32</ele>
        <time>2023-08-06T17:36:29Z</time>
      </trkpt>
      <trkpt lat="49.61327" lon="3.38938">
        <ele>32.2</ele>
        <time>2023-08-06T17:36:30Z</time>
      </trkpt>
      <trkpt lat="49.61326" lon="3.38941">
        <ele>32.2</ele>
        <time>2023-08-06T17:36:31Z</time>
      </trkpt>
      <trkpt lat="49.61325" lon="3.38943">
        <ele>32.4</ele>
        <time>2023-08-06T17:36:32Z</time>
      </trkpt>
      <trkpt lat="49.61322" lon="3.38951">
        <ele>32.8</ele>
        <time>2023-08-06T17:36:35Z</time>
      </trkpt>
      <trkpt lat="49.61322" lon="3.38953">
        <ele>32.8</ele>
        <time>2023-08-06T17:36:36Z</time>
      </trkpt>
      <trkpt lat="49.61321" lon="3.38956">
        <ele>33</ele>
        <time>2023-08-06T17:36:37Z</time>
      </trkpt>
      <trkpt lat="49.6132" lon="3.38958">
        <ele>33</ele>
        <time>2023-08-06T17:36:38Z</time>
      </trkpt>
      <trkpt lat="49.61317" lon="3.38973">
        <ele>33.8</ele>
        <time>2023-08-06T17:36:43Z</time>
      </trkpt>
      <trkpt lat="49.61316" lon="3.38976">
        <ele>33.8</ele>
        <time>2023-08-06T17:36:44Z</time>
      </trkpt>
      <trkpt lat="49.61314" lon="3.38981">
        <ele>34</ele>
        <time>2023-08-06T17:36:46Z</time>
      </trkpt>
      <trkpt lat="49.61313" lon="3.38983">
        <ele>34</ele>
        <time>2023-08-06T17:36:47Z</time>
      </trkpt>
      <trkpt lat="49.61312" lon="3.38986">
        <ele>34.2</ele>
        <time>2023-08-06T17:36:48Z</time>
      </trkpt>
      <trkpt lat="49.61312" lon="3.38988">
        <ele>34.2</ele>
        <time>2023-08-06T17:36:49Z</time>
      </trkpt>
      <trkpt lat="49.61311" lon="3.38991">
        <ele>34.4</ele>
        <time>2023-08-06T17:36:50Z</time>
      </trkpt>
      <trkpt lat="49.6131" lon="3.38994">
        <ele>34.4</ele>
        <time>2023-08-06T17:36:51Z</time>
      </trkpt>
      <trkpt lat="49.61309" lon="3.38996">
        <ele>34.4</ele>
        <time>2023-08-06T17:36:52Z</time>
      </trkpt>
      <trkpt lat="49.61308" lon="3.38999">
        <ele>34.6</ele>
        <time>2023-08-06T17:36:53Z</time>
      </trkpt>
      <trkpt lat="49.61307" lon="3.39002">
        <ele>34.6</ele>
        <time>2023-08-06T17:36:54Z</time>
      </trkpt>
      <trkpt lat="49.61303" lon="3.39012">
        <ele>35</ele>
        <time>2023-08-06T17:36:58Z</time>
      </trkpt>
      <trkpt lat="49.61294" lon="3.3903">
        <ele>35.6</ele>
        <time>2023-08-06T17:37:05Z</time>
      </trkpt>
      <trkpt lat="49.61288" lon="3.39038">
        <ele>35.8</ele>
        <time>2023-08-06T17:37:09Z</time>
      </trkpt>
      <trkpt lat="49.61284" lon="3.39044">
        <ele>36</ele>
        <time>2023-08-06T17:37:12Z</time>
      </trkpt>
      <trkpt lat="49.61279" lon="3.3905">
        <ele>36</ele>
        <time>2023-08-06T17:37:15Z</time>
      </trkpt>
      <trkpt lat="49.61274" lon="3.39056">
        <ele>36.2</ele>
        <time>2023-08-06T17:37:18Z</time>
      </trkpt>
      <trkpt lat="49.61263" lon="3.39072">
        <ele>36.8</ele>
        <time>2023-08-06T17:37:25Z</time>
      </trkpt>
      <trkpt lat="49.61249" lon="3.39092">
        <ele>36.8</ele>
        <time>2023-08-06T17:37:33Z</time>
      </trkpt>
      <trkpt lat="49.61226" lon="3.39118">
        <ele>36.8</ele>
        <time>2023-08-06T17:37:44Z</time>
      </trkpt>
      <trkpt lat="49.612" lon="3.39144">
        <ele>37</ele>
        <time>2023-08-06T17:37:56Z</time>
      </trkpt>
      <trkpt lat="49.61193" lon="3.3915">
        <ele>37</ele>
        <time>2023-08-06T17:37:59Z</time>
      </trkpt>
      <trkpt lat="49.61189" lon="3.39154">
        <ele>37.2</ele>
        <time>2023-08-06T17:38:01Z</time>
      </trkpt>
      <trkpt lat="49.61178" lon="3.39163">
        <ele>37.2</ele>
        <time>2023-08-06T17:38:06Z</time>
      </trkpt>
      <trkpt lat="49.61173" lon="3.39167">
        <ele>37.4</ele>
        <time>2023-08-06T17:38:08Z</time>
      </trkpt>
      <trkpt lat="49.61171" lon="3.39169">
        <ele>37.4</ele>
        <time>2023-08-06T17:38:09Z</time>
      </trkpt>
      <trkpt lat="49.61169" lon="3.39171">
        <ele>37.4</ele>
        <time>2023-08-06T17:38:10Z</time>
      </trkpt>
      <trkpt lat="49.61167" lon="3.39173">
        <ele>37.6</ele>
        <time>2023-08-06T17:38:11Z</time>
      </trkpt>
      <trkpt lat="49.61165" lon="3.39175">
        <ele>37.6</ele>
        <time>2023-08-06T17:38:12Z</time>
      </trkpt>
      <trkpt lat="49.61163" lon="3.39177">
        <ele>37.6</ele>
        <time>2023-08-06T17:38:13Z</time>
      </trkpt>
      <trkpt lat="49.61161" lon="3.39179">
        <ele>37.8</ele>
        <time>2023-08-06T17:38:14Z</time>
      </trkpt>
      <trkpt lat="49.61159" lon="3.39181">
        <ele>37.8</ele>
        <time>2023-08-06T17:38:15Z</time>
      </trkpt>
      <trkpt lat="49.61157" lon="3.39183">
        <ele>38</ele>
        <time>2023-08-06T17:38:16Z</time>
      </trkpt>
      <trkpt lat="49.61151" lon="3.39189">
        <ele>38.2</ele>
        <time>2023-08-06T17:38:19Z</time>
      </trkpt>
      <trkpt lat="49.61149" lon="3.3919">
        <ele>38.2</ele>
        <time>2023-08-06T17:38:20Z</time>
      </trkpt>
      <trkpt lat="49.61146" lon="3.39192">
        <ele>38.2</ele>
        <time>2023-08-06T17:38:21Z</time>
      </trkpt>
      <trkpt lat="49.61123" lon="3.39201">
        <ele>39</ele>
        <time>2023-08-06T17:38:31Z</time>
      </trkpt>
      <trkpt lat="49.6112" lon="3.39201">
        <ele>39</ele>
        <time>2023-08-06T17:38:32Z</time>
      </trkpt>
      <trkpt lat="49.61113" lon="3.39203">
        <ele>39.4</ele>
        <time>2023-08-06T17:38:35Z</time>
      </trkpt>
      <trkpt lat="49.61109" lon="3.39204">
        <ele>39.4</ele>
        <time>2023-08-06T17:38:37Z</time>
      </trkpt>
      <trkpt lat="49.61107" lon="3.39204">
        <ele>39.6</ele>
        <time>2023-08-06T17:38:38Z</time>
      </trkpt>
      <trkpt lat="49.61105" lon="3.39205">
        <ele>39.8</ele>
        <time>2023-08-06T17:38:39Z</time>
      </trkpt>
      <trkpt lat="49.61103" lon="3.39205">
        <ele>40</ele>
        <time>2023-08-06T17:38:40Z</time>
      </trkpt>
      <trkpt lat="49.611" lon="3.39206">
        <ele>40</ele>
        <time>2023-08-06T17:38:41Z</time>
      </trkpt>
      <trkpt lat="49.61098" lon="3.39206">
        <ele>40.2</ele>
        <time>2023-08-06T17:38:42Z</time>
      </trkpt>
      <trkpt lat="49.61094" lon="3.39207">
        <ele>40.2</ele>
        <time>2023-08-06T17:38:44Z</time>
      </trkpt>
      <trkpt lat="49.6109" lon="3.39209">
        <ele>40.4</ele>
        <time>2023-08-06T17:38:46Z</time>
      </trkpt>
      <trkpt lat="49.61088" lon="3.3921">
        <ele>40.6</ele>
        <time>2023-08-06T17:38:47Z</time>
      </trkpt>
      <trkpt lat="49.61082" lon="3.39212">
        <ele>41</ele>
        <time>2023-08-06T17:38:50Z</time>
      </trkpt>
      <trkpt lat="49.6108" lon="3.39212">
        <ele>41.2</ele>
        <time>2023-08-06T17:38:51Z</time>
      </trkpt>
      <trkpt lat="49.61078" lon="3.39213">
        <ele>41.2</ele>
        <time>2023-08-06T17:38:52Z</time>
      </trkpt>
      <trkpt lat="49.61074" lon="3.39215">
        <ele>41.4</ele>
        <time>2023-08-06T17:38:54Z</time>
      </trkpt>
      <trkpt lat="49.61072" lon="3.39216">
        <ele>41.6</ele>
        <time>2023-08-06T17:38:55Z</time>
      </trkpt>
      <trkpt lat="49.61071" lon="3.39217">
        <ele>41.6</ele>
        <time>2023-08-06T17:38:56Z</time>
      </trkpt>
      <trkpt lat="49.61069" lon="3.39218">
        <ele>41.8</ele>
        <time>2023-08-06T17:38:57Z</time>
      </trkpt>
      <trkpt lat="49.61067" lon="3.3922">
        <ele>41.8</ele>
        <time>2023-08-06T17:38:58Z</time>
      </trkpt>
      <trkpt lat="49.61065" lon="3.39221">
        <ele>42</ele>
        <time>2023-08-06T17:38:59Z</time>
      </trkpt>
      <trkpt lat="49.61063" lon="3.39223">
        <ele>42.2</ele>
        <time>2023-08-06T17:39:00Z</time>
      </trkpt>
      <trkpt lat="49.61061" lon="3.39225">
        <ele>42.2</ele>
        <time>2023-08-06T17:39:01Z</time>
      </trkpt>
      <trkpt lat="49.6106" lon="3.39228">
        <ele>42.2</ele>
        <time>2023-08-06T17:39:02Z</time>
      </trkpt>
      <trkpt lat="49.61059" lon="3.3923">
        <ele>42.2</ele>
        <time>2023-08-06T17:39:03Z</time>
      </trkpt>
      <trkpt lat="49.61058" lon="3.39234">
        <ele>42.4</ele>
        <time>2023-08-06T17:39:04Z</time>
      </trkpt>
      <trkpt lat="49.61058" lon="3.39237">
        <ele>42.4</ele>
        <time>2023-08-06T17:39:05Z</time>
      </trkpt>
      <trkpt lat="49.61058" lon="3.39241">
        <ele>42.4</ele>
        <time>2023-08-06T17:39:06Z</time>
      </trkpt>
      <trkpt lat="49.61059" lon="3.39243">
        <ele>42.4</ele>
        <time>2023-08-06T17:39:07Z</time>
      </trkpt>
      <trkpt lat="49.6106" lon="3.39246">
        <ele>42.6</ele>
        <time>2023-08-06T17:39:08Z</time>
      </trkpt>
      <trkpt lat="49.61061" lon="3.39248">
        <ele>42.6</ele>
        <time>2023-08-06T17:39:09Z</time>
      </trkpt>
      <trkpt lat="49.61061" lon="3.39251">
        <ele>42.6</ele>
        <time>2023-08-06T17:39:10Z</time>
      </trkpt>
      <trkpt lat="49.61062" lon="3.39253">
        <ele>42.6</ele>
        <time>2023-08-06T17:39:11Z</time>
      </trkpt>
      <trkpt lat="49.61063" lon="3.39256">
        <ele>42.6</ele>
        <time>2023-08-06T17:39:12Z</time>
      </trkpt>
      <trkpt lat="49.61064" lon="3.39258">
        <ele>42.8</ele>
        <time>2023-08-06T17:39:13Z</time>
      </trkpt>
      <trkpt lat="49.61065" lon="3.39261">
        <ele>42.8</ele>
        <time>2023-08-06T17:39:14Z</time>
      </trkpt>
      <trkpt lat="49.61066" lon="3.39263">
        <ele>43</ele>
        <time>2023-08-06T17:39:15Z</time>
      </trkpt>
      <trkpt lat="49.61067" lon="3.39265">
        <ele>43</ele>
        <time>2023-08-06T17:39:16Z</time>
      </trkpt>
      <trkpt lat="49.61068" lon="3.39268">
        <ele>43.2</ele>
        <time>2023-08-06T17:39:17Z</time>
      </trkpt>
      <trkpt lat="49.61069" lon="3.3927">
        <ele>43.4</ele>
        <time>2023-08-06T17:39:18Z</time>
      </trkpt>
      <trkpt lat="49.61075" lon="3.39284">
        <ele>44.4</ele>
        <time>2023-08-06T17:39:24Z</time>
      </trkpt>
      <trkpt lat="49.61076" lon="3.39289">
        <ele>44.6</ele>
        <time>2023-08-06T17:39:26Z</time>
      </trkpt>
      <trkpt lat="49.61076" lon="3.39292">
        <ele>44.8</ele>
        <time>2023-08-06T17:39:27Z</time>
      </trkpt>
      <trkpt lat="49.61077" lon="3.39294">
        <ele>45</ele>
        <time>2023-08-06T17:39:28Z</time>
      </trkpt>
      <trkpt lat="49.61078" lon="3.39297">
        <ele>45</ele>
        <time>2023-08-06T17:39:29Z</time>
      </trkpt>
      <trkpt lat="49.61078" lon="3.393">
        <ele>45.2</ele>
        <time>2023-08-06T17:39:30Z</time>
      </trkpt>
      <trkpt lat="49.61078" lon="3.39303">
        <ele>45.6</ele>
        <time>2023-08-06T17:39:31Z</time>
      </trkpt>
      <trkpt lat="49.61078" lon="3.39306">
        <ele>45.6</ele>
        <time>2023-08-06T17:39:32Z</time>
      </trkpt>
      <trkpt lat="49.61078" lon="3.39309">
        <ele>45.8</ele>
        <time>2023-08-06T17:39:33Z</time>
      </trkpt>
      <trkpt lat="49.61077" lon="3.39311">
        <ele>46</ele>
        <time>2023-08-06T17:39:34Z</time>
      </trkpt>
      <trkpt lat="49.61077" lon="3.39314">
        <ele>46</ele>
        <time>2023-08-06T17:39:35Z</time>
      </trkpt>
      <trkpt lat="49.61076" lon="3.39316">
        <ele>46.2</ele>
        <time>2023-08-06T17:39:36Z</time>
      </trkpt>
      <trkpt lat="49.61076" lon="3.39319">
        <ele>46.2</ele>
        <time>2023-08-06T17:39:37Z</time>
      </trkpt>
      <trkpt lat="49.61075" lon="3.39322">
        <ele>46.4</ele>
        <time>2023-08-06T17:39:38Z</time>
      </trkpt>
      <trkpt lat="49.61074" lon="3.39324">
        <ele>46.6</ele>
        <time>2023-08-06T17:39:39Z</time>
      </trkpt>
      <trkpt lat="49.61074" lon="3.39327">
        <ele>46.8</ele>
        <time>2023-08-06T17:39:40Z</time>
      </trkpt>
      <trkpt lat="49.61073" lon="3.39329">
        <ele>46.8</ele>
        <time>2023-08-06T17:39:41Z</time>
      </trkpt>
      <trkpt lat="49.61072" lon="3.39332">
        <ele>46.8</ele>
        <time>2023-08-06T17:39:42Z</time>
      </trkpt>
      <trkpt lat="49.61071" lon="3.39335">
        <ele>47</ele>
        <time>2023-08-06T17:39:43Z</time>
      </trkpt>
      <trkpt lat="49.61069" lon="3.39337">
        <ele>47</ele>
        <time>2023-08-06T17:39:44Z</time>
      </trkpt>
      <trkpt lat="49.61068" lon="3.39339">
        <ele>47.2</ele>
        <time>2023-08-06T17:39:45Z</time>
      </trkpt>
      <trkpt lat="49.61067" lon="3.39341">
        <ele>47.2</ele>
        <time>2023-08-06T17:39:46Z</time>
      </trkpt>
      <trkpt lat="49.61065" lon="3.39343">
        <ele>47.4</ele>
        <time>2023-08-06T17:39:47Z</time>
      </trkpt>
      <trkpt lat="49.61064" lon="3.39344">
        <ele>47.4</ele>
        <time>2023-08-06T17:39:48Z</time>
      </trkpt>
      <trkpt lat="49.61062" lon="3.39346">
        <ele>47.4</ele>
        <time>2023-08-06T17:39:49Z</time>
      </trkpt>
      <trkpt lat="49.6106" lon="3.39347">
        <ele>47.6</ele>
        <time>2023-08-06T17:39:50Z</time>
      </trkpt>
      <trkpt lat="49.61059" lon="3.39349">
        <ele>47.6</ele>
        <time>2023-08-06T17:39:51Z</time>
      </trkpt>
      <trkpt lat="49.61057" lon="3.39351">
        <ele>47.8</ele>
        <time>2023-08-06T17:39:52Z</time>
      </trkpt>
      <trkpt lat="49.61056" lon="3.39353">
        <ele>47.8</ele>
        <time>2023-08-06T17:39:53Z</time>
      </trkpt>
      <trkpt lat="49.61054" lon="3.39355">
        <ele>48</ele>
        <time>2023-08-06T17:39:54Z</time>
      </trkpt>
      <trkpt lat="49.61052" lon="3.39357">
        <ele>48</ele>
        <time>2023-08-06T17:39:55Z</time>
      </trkpt>
      <trkpt lat="49.61051" lon="3.39359">
        <ele>48</ele>
        <time>2023-08-06T17:39:56Z</time>
      </trkpt>
      <trkpt lat="49.6105" lon="3.39361">
        <ele>48.2</ele>
        <time>2023-08-06T17:39:57Z</time>
      </trkpt>
      <trkpt lat="49.61048" lon="3.39363">
        <ele>48.2</ele>
        <time>2023-08-06T17:39:58Z</time>
      </trkpt>
      <trkpt lat="49.61047" lon="3.39365">
        <ele>48.2</ele>
        <time>2023-08-06T17:39:59Z</time>
      </trkpt>
      <trkpt lat="49.61045" lon="3.39368">
        <ele>48.2</ele>
        <time>2023-08-06T17:40:00Z</time>
      </trkpt>
      <trkpt lat="49.61044" lon="3.3937">
        <ele>48.4</ele>
        <time>2023-08-06T17:40:01Z</time>
      </trkpt>
      <trkpt lat="49.61042" lon="3.39373">
        <ele>48.4</ele>
        <time>2023-08-06T17:40:02Z</time>
      </trkpt>
      <trkpt lat="49.61035" lon="3.39386">
        <ele>48.4</ele>
        <time>2023-08-06T17:40:07Z</time>
      </trkpt>
      <trkpt lat="49.61024" lon="3.39403">
        <ele>48.4</ele>
        <time>2023-08-06T17:40:14Z</time>
      </trkpt>
      <trkpt lat="49.61019" lon="3.3941">
        <ele>48.6</ele>
        <time>2023-08-06T17:40:17Z</time>
      </trkpt>
      <trkpt lat="49.61009" lon="3.39421">
        <ele>48.8</ele>
        <time>2023-08-06T17:40:22Z</time>
      </trkpt>
      <trkpt lat="49.61003" lon="3.39425">
        <ele>48.8</ele>
        <time>2023-08-06T17:40:25Z</time>
      </trkpt>
      <trkpt lat="49.61001" lon="3.39426">
        <ele>48.8</ele>
        <time>2023-08-06T17:40:26Z</time>
      </trkpt>
      <trkpt lat="49.60997" lon="3.39428">
        <ele>49</ele>
        <time>2023-08-06T17:40:28Z</time>
      </trkpt>
      <trkpt lat="49.60994" lon="3.39429">
        <ele>49</ele>
        <time>2023-08-06T17:40:29Z</time>
      </trkpt>
      <trkpt lat="49.60992" lon="3.3943">
        <ele>49</ele>
        <time>2023-08-06T17:40:30Z</time>
      </trkpt>
      <trkpt lat="49.60976" lon="3.39444">
        <ele>49.2</ele>
        <time>2023-08-06T17:40:38Z</time>
      </trkpt>
      <trkpt lat="49.60973" lon="3.39448">
        <ele>49.2</ele>
        <time>2023-08-06T17:40:40Z</time>
      </trkpt>
      <trkpt lat="49.60969" lon="3.39451">
        <ele>49.4</ele>
        <time>2023-08-06T17:40:42Z</time>
      </trkpt>
      <trkpt lat="49.60967" lon="3.39453">
        <ele>49.4</ele>
        <time>2023-08-06T17:40:43Z</time>
      </trkpt>
      <trkpt lat="49.60964" lon="3.39457">
        <ele>49.8</ele>
        <time>2023-08-06T17:40:45Z</time>
      </trkpt>
      <trkpt lat="49.60962" lon="3.39459">
        <ele>49.8</ele>
        <time>2023-08-06T17:40:46Z</time>
      </trkpt>
      <trkpt lat="49.60954" lon="3.39477">
        <ele>50.4</ele>
        <time>2023-08-06T17:40:52Z</time>
      </trkpt>
      <trkpt lat="49.60947" lon="3.39494">
        <ele>50.6</ele>
        <time>2023-08-06T17:40:58Z</time>
      </trkpt>
      <trkpt lat="49.60947" lon="3.39496">
        <ele>50.6</ele>
        <time>2023-08-06T17:40:59Z</time>
      </trkpt>
      <trkpt lat="49.60946" lon="3.39498">
        <ele>50.8</ele>
        <time>2023-08-06T17:41:00Z</time>
      </trkpt>
      <trkpt lat="49.60945" lon="3.395">
        <ele>50.8</ele>
        <time>2023-08-06T17:41:01Z</time>
      </trkpt>
      <trkpt lat="49.60945" lon="3.39502">
        <ele>51</ele>
        <time>2023-08-06T17:41:02Z</time>
      </trkpt>
      <trkpt lat="49.60944" lon="3.39505">
        <ele>51.2</ele>
        <time>2023-08-06T17:41:04Z</time>
      </trkpt>
      <trkpt lat="49.60943" lon="3.39507">
        <ele>51.4</ele>
        <time>2023-08-06T17:41:05Z</time>
      </trkpt>
      <trkpt lat="49.60943" lon="3.39509">
        <ele>51.4</ele>
        <time>2023-08-06T17:41:06Z</time>
      </trkpt>
      <trkpt lat="49.60942" lon="3.39511">
        <ele>51.6</ele>
        <time>2023-08-06T17:41:07Z</time>
      </trkpt>
      <trkpt lat="49.60941" lon="3.39513">
        <ele>51.6</ele>
        <time>2023-08-06T17:41:08Z</time>
      </trkpt>
      <trkpt lat="49.60941" lon="3.39514">
        <ele>51.8</ele>
        <time>2023-08-06T17:41:09Z</time>
      </trkpt>
      <trkpt lat="49.60937" lon="3.39521">
        <ele>52.2</ele>
        <time>2023-08-06T17:41:13Z</time>
      </trkpt>
      <trkpt lat="49.60931" lon="3.39524">
        <ele>52.8</ele>
        <time>2023-08-06T17:41:18Z</time>
      </trkpt>
      <trkpt lat="49.6093" lon="3.39523">
        <ele>52.8</ele>
        <time>2023-08-06T17:41:19Z</time>
      </trkpt>
      <trkpt lat="49.60929" lon="3.39521">
        <ele>52.8</ele>
        <time>2023-08-06T17:41:20Z</time>
      </trkpt>
      <trkpt lat="49.60927" lon="3.39519">
        <ele>52.8</ele>
        <time>2023-08-06T17:41:21Z</time>
      </trkpt>
      <trkpt lat="49.60925" lon="3.39518">
        <ele>52.8</ele>
        <time>2023-08-06T17:41:22Z</time>
      </trkpt>
      <trkpt lat="49.60922" lon="3.39518">
        <ele>53</ele>
        <time>2023-08-06T17:41:24Z</time>
      </trkpt>
      <trkpt lat="49.6092" lon="3.39517">
        <ele>53.2</ele>
        <time>2023-08-06T17:41:25Z</time>
      </trkpt>
      <trkpt lat="49.60918" lon="3.39518">
        <ele>53.2</ele>
        <time>2023-08-06T17:41:26Z</time>
      </trkpt>
      <trkpt lat="49.60916" lon="3.39518">
        <ele>53.2</ele>
        <time>2023-08-06T17:41:27Z</time>
      </trkpt>
      <trkpt lat="49.609" lon="3.39523">
        <ele>53.6</ele>
        <time>2023-08-06T17:41:34Z</time>
      </trkpt>
      <trkpt lat="49.60893" lon="3.39525">
        <ele>53.8</ele>
        <time>2023-08-06T17:41:37Z</time>
      </trkpt>
      <trkpt lat="49.60885" lon="3.39529">
        <ele>54</ele>
        <time>2023-08-06T17:41:41Z</time>
      </trkpt>
      <trkpt lat="49.60878" lon="3.39532">
        <ele>54.4</ele>
        <time>2023-08-06T17:41:44Z</time>
      </trkpt>
      <trkpt lat="49.60872" lon="3.39534">
        <ele>54.4</ele>
        <time>2023-08-06T17:41:47Z</time>
      </trkpt>
      <trkpt lat="49.6087" lon="3.39535">
        <ele>54.4</ele>
        <time>2023-08-06T17:41:48Z</time>
      </trkpt>
      <trkpt lat="49.60868" lon="3.39535">
        <ele>54.6</ele>
        <time>2023-08-06T17:41:49Z</time>
      </trkpt>
      <trkpt lat="49.60866" lon="3.39536">
        <ele>54.6</ele>
        <time>2023-08-06T17:41:50Z</time>
      </trkpt>
      <trkpt lat="49.60865" lon="3.39537">
        <ele>54.8</ele>
        <time>2023-08-06T17:41:51Z</time>
      </trkpt>
      <trkpt lat="49.60863" lon="3.39538">
        <ele>55</ele>
        <time>2023-08-06T17:41:52Z</time>
      </trkpt>
      <trkpt lat="49.60857" lon="3.3954">
        <ele>55.4</ele>
        <time>2023-08-06T17:41:56Z</time>
      </trkpt>
      <trkpt lat="49.60855" lon="3.39541">
        <ele>55.6</ele>
        <time>2023-08-06T17:41:57Z</time>
      </trkpt>
      <trkpt lat="49.60854" lon="3.39541">
        <ele>55.6</ele>
        <time>2023-08-06T17:41:58Z</time>
      </trkpt>
      <trkpt lat="49.60851" lon="3.39541">
        <ele>55.8</ele>
        <time>2023-08-06T17:41:59Z</time>
      </trkpt>
      <trkpt lat="49.60849" lon="3.39542">
        <ele>55.8</ele>
        <time>2023-08-06T17:42:00Z</time>
      </trkpt>
      <trkpt lat="49.60847" lon="3.39541">
        <ele>56</ele>
        <time>2023-08-06T17:42:01Z</time>
      </trkpt>
      <trkpt lat="49.60842" lon="3.39542">
        <ele>56.4</ele>
        <time>2023-08-06T17:42:04Z</time>
      </trkpt>
      <trkpt lat="49.6084" lon="3.39543">
        <ele>56.4</ele>
        <time>2023-08-06T17:42:05Z</time>
      </trkpt>
      <trkpt lat="49.60838" lon="3.39544">
        <ele>56.6</ele>
        <time>2023-08-06T17:42:06Z</time>
      </trkpt>
      <trkpt lat="49.60837" lon="3.39545">
        <ele>56.8</ele>
        <time>2023-08-06T17:42:07Z</time>
      </trkpt>
      <trkpt lat="49.60835" lon="3.39545">
        <ele>57</ele>
        <time>2023-08-06T17:42:08Z</time>
      </trkpt>
      <trkpt lat="49.60833" lon="3.39546">
        <ele>57.2</ele>
        <time>2023-08-06T17:42:09Z</time>
      </trkpt>
      <trkpt lat="49.60831" lon="3.39548">
        <ele>57.4</ele>
        <time>2023-08-06T17:42:10Z</time>
      </trkpt>
      <trkpt lat="49.6083" lon="3.39549">
        <ele>57.4</ele>
        <time>2023-08-06T17:42:11Z</time>
      </trkpt>
      <trkpt lat="49.60828" lon="3.39549">
        <ele>57.6</ele>
        <time>2023-08-06T17:42:12Z</time>
      </trkpt>
      <trkpt lat="49.60825" lon="3.39549">
        <ele>57.8</ele>
        <time>2023-08-06T17:42:13Z</time>
      </trkpt>
      <trkpt lat="49.60823" lon="3.39549">
        <ele>58</ele>
        <time>2023-08-06T17:42:14Z</time>
      </trkpt>
      <trkpt lat="49.6082" lon="3.39549">
        <ele>58.2</ele>
        <time>2023-08-06T17:42:15Z</time>
      </trkpt>
      <trkpt lat="49.60818" lon="3.3955">
        <ele>58.4</ele>
        <time>2023-08-06T17:42:16Z</time>
      </trkpt>
      <trkpt lat="49.60817" lon="3.39551">
        <ele>58.4</ele>
        <time>2023-08-06T17:42:17Z</time>
      </trkpt>
      <trkpt lat="49.60815" lon="3.39551">
        <ele>58.4</ele>
        <time>2023-08-06T17:42:18Z</time>
      </trkpt>
      <trkpt lat="49.60815" lon="3.39551">
        <ele>58.6</ele>
        <time>2023-08-06T17:42:19Z</time>
      </trkpt>
      <trkpt lat="49.60813" lon="3.39553">
        <ele>58.8</ele>
        <time>2023-08-06T17:42:20Z</time>
      </trkpt>
      <trkpt lat="49.60811" lon="3.39552">
        <ele>59</ele>
        <time>2023-08-06T17:42:21Z</time>
      </trkpt>
      <trkpt lat="49.6081" lon="3.39553">
        <ele>59.2</ele>
        <time>2023-08-06T17:42:22Z</time>
      </trkpt>
      <trkpt lat="49.60808" lon="3.39553">
        <ele>59.4</ele>
        <time>2023-08-06T17:42:23Z</time>
      </trkpt>
      <trkpt lat="49.60807" lon="3.39554">
        <ele>59.4</ele>
        <time>2023-08-06T17:42:24Z</time>
      </trkpt>
      <trkpt lat="49.60805" lon="3.39554">
        <ele>59.6</ele>
        <time>2023-08-06T17:42:25Z</time>
      </trkpt>
      <trkpt lat="49.60803" lon="3.39555">
        <ele>59.6</ele>
        <time>2023-08-06T17:42:26Z</time>
      </trkpt>
      <trkpt lat="49.60802" lon="3.39556">
        <ele>59.8</ele>
        <time>2023-08-06T17:42:27Z</time>
      </trkpt>
      <trkpt lat="49.60801" lon="3.39556">
        <ele>59.8</ele>
        <time>2023-08-06T17:42:28Z</time>
      </trkpt>
      <trkpt lat="49.60799" lon="3.39557">
        <ele>59.8</ele>
        <time>2023-08-06T17:42:29Z</time>
      </trkpt>
      <trkpt lat="49.60797" lon="3.39558">
        <ele>60</ele>
        <time>2023-08-06T17:42:30Z</time>
      </trkpt>
      <trkpt lat="49.60795" lon="3.39559">
        <ele>60</ele>
        <time>2023-08-06T17:42:31Z</time>
      </trkpt>
      <trkpt lat="49.60793" lon="3.39561">
        <ele>60.2</ele>
        <time>2023-08-06T17:42:32Z</time>
      </trkpt>
      <trkpt lat="49.60791" lon="3.39561">
        <ele>60.2</ele>
        <time>2023-08-06T17:42:33Z</time>
      </trkpt>
      <trkpt lat="49.60789" lon="3.39563">
        <ele>60.4</ele>
        <time>2023-08-06T17:42:34Z</time>
      </trkpt>
      <trkpt lat="49.60787" lon="3.39564">
        <ele>60.4</ele>
        <time>2023-08-06T17:42:35Z</time>
      </trkpt>
      <trkpt lat="49.60784" lon="3.39565">
        <ele>60.6</ele>
        <time>2023-08-06T17:42:36Z</time>
      </trkpt>
      <trkpt lat="49.60782" lon="3.39565">
        <ele>60.6</ele>
        <time>2023-08-06T17:42:37Z</time>
      </trkpt>
      <trkpt lat="49.6078" lon="3.39566">
        <ele>60.6</ele>
        <time>2023-08-06T17:42:38Z</time>
      </trkpt>
      <trkpt lat="49.60777" lon="3.39567">
        <ele>60.6</ele>
        <time>2023-08-06T17:42:39Z</time>
      </trkpt>
      <trkpt lat="49.60774" lon="3.39568">
        <ele>60.6</ele>
        <time>2023-08-06T17:42:40Z</time>
      </trkpt>
      <trkpt lat="49.60772" lon="3.39569">
        <ele>60.6</ele>
        <time>2023-08-06T17:42:41Z</time>
      </trkpt>
      <trkpt lat="49.60769" lon="3.39571">
        <ele>60.6</ele>
        <time>2023-08-06T17:42:42Z</time>
      </trkpt>
      <trkpt lat="49.60765" lon="3.39572">
        <ele>60.6</ele>
        <time>2023-08-06T17:42:43Z</time>
      </trkpt>
      <trkpt lat="49.60761" lon="3.39573">
        <ele>60.6</ele>
        <time>2023-08-06T17:42:44Z</time>
      </trkpt>
      <trkpt lat="49.60747" lon="3.39578">
        <ele>60.2</ele>
        <time>2023-08-06T17:42:47Z</time>
      </trkpt>
      <trkpt lat="49.60713" lon="3.39594">
        <ele>59.6</ele>
        <time>2023-08-06T17:42:53Z</time>
      </trkpt>
      <trkpt lat="49.60701" lon="3.39599">
        <ele>58.8</ele>
        <time>2023-08-06T17:42:55Z</time>
      </trkpt>
      <trkpt lat="49.60681" lon="3.39608">
        <ele>57.6</ele>
        <time>2023-08-06T17:42:58Z</time>
      </trkpt>
      <trkpt lat="49.60668" lon="3.39613">
        <ele>57.4</ele>
        <time>2023-08-06T17:43:00Z</time>
      </trkpt>
      <trkpt lat="49.60657" lon="3.39618">
        <ele>57.4</ele>
        <time>2023-08-06T17:43:02Z</time>
      </trkpt>
      <trkpt lat="49.60633" lon="3.39628">
        <ele>56.4</ele>
        <time>2023-08-06T17:43:06Z</time>
      </trkpt>
      <trkpt lat="49.60628" lon="3.39629">
        <ele>56.2</ele>
        <time>2023-08-06T17:43:07Z</time>
      </trkpt>
      <trkpt lat="49.60616" lon="3.39632">
        <ele>55.6</ele>
        <time>2023-08-06T17:43:09Z</time>
      </trkpt>
      <trkpt lat="49.6061" lon="3.39634">
        <ele>55.2</ele>
        <time>2023-08-06T17:43:10Z</time>
      </trkpt>
      <trkpt lat="49.60594" lon="3.3964">
        <ele>54.8</ele>
        <time>2023-08-06T17:43:13Z</time>
      </trkpt>
      <trkpt lat="49.60577" lon="3.39648">
        <ele>54.4</ele>
        <time>2023-08-06T17:43:16Z</time>
      </trkpt>
      <trkpt lat="49.60572" lon="3.39649">
        <ele>54.4</ele>
        <time>2023-08-06T17:43:17Z</time>
      </trkpt>
      <trkpt lat="49.60567" lon="3.39652">
        <ele>54.4</ele>
        <time>2023-08-06T17:43:18Z</time>
      </trkpt>
      <trkpt lat="49.60557" lon="3.39658">
        <ele>54.2</ele>
        <time>2023-08-06T17:43:20Z</time>
      </trkpt>
      <trkpt lat="49.60547" lon="3.39662">
        <ele>54.2</ele>
        <time>2023-08-06T17:43:22Z</time>
      </trkpt>
      <trkpt lat="49.60541" lon="3.39663">
        <ele>54.2</ele>
        <time>2023-08-06T17:43:23Z</time>
      </trkpt>
      <trkpt lat="49.60493" lon="3.3968">
        <ele>53.4</ele>
        <time>2023-08-06T17:43:32Z</time>
      </trkpt>
      <trkpt lat="49.60487" lon="3.39682">
        <ele>53.2</ele>
        <time>2023-08-06T17:43:33Z</time>
      </trkpt>
      <trkpt lat="49.60454" lon="3.39693">
        <ele>52</ele>
        <time>2023-08-06T17:43:38Z</time>
      </trkpt>
      <trkpt lat="49.60417" lon="3.39707">
        <ele>50.6</ele>
        <time>2023-08-06T17:43:43Z</time>
      </trkpt>
      <trkpt lat="49.6041" lon="3.39709">
        <ele>50.4</ele>
        <time>2023-08-06T17:43:44Z</time>
      </trkpt>
      <trkpt lat="49.60403" lon="3.39712">
        <ele>50</ele>
        <time>2023-08-06T17:43:45Z</time>
      </trkpt>
      <trkpt lat="49.60396" lon="3.39715">
        <ele>49.8</ele>
        <time>2023-08-06T17:43:46Z</time>
      </trkpt>
      <trkpt lat="49.6039" lon="3.39718">
        <ele>49.4</ele>
        <time>2023-08-06T17:43:47Z</time>
      </trkpt>
      <trkpt lat="49.60384" lon="3.3972">
        <ele>49.2</ele>
        <time>2023-08-06T17:43:48Z</time>
      </trkpt>
      <trkpt lat="49.60378" lon="3.39723">
        <ele>49</ele>
        <time>2023-08-06T17:43:49Z</time>
      </trkpt>
      <trkpt lat="49.60372" lon="3.39725">
        <ele>48.8</ele>
        <time>2023-08-06T17:43:50Z</time>
      </trkpt>
      <trkpt lat="49.6036" lon="3.39728">
        <ele>48.6</ele>
        <time>2023-08-06T17:43:52Z</time>
      </trkpt>
      <trkpt lat="49.60355" lon="3.3973">
        <ele>48.4</ele>
        <time>2023-08-06T17:43:53Z</time>
      </trkpt>
      <trkpt lat="49.6035" lon="3.39732">
        <ele>48.4</ele>
        <time>2023-08-06T17:43:54Z</time>
      </trkpt>
      <trkpt lat="49.60345" lon="3.39733">
        <ele>48.2</ele>
        <time>2023-08-06T17:43:55Z</time>
      </trkpt>
      <trkpt lat="49.60341" lon="3.39735">
        <ele>48.2</ele>
        <time>2023-08-06T17:43:56Z</time>
      </trkpt>
      <trkpt lat="49.60337" lon="3.39737">
        <ele>48</ele>
        <time>2023-08-06T17:43:57Z</time>
      </trkpt>
      <trkpt lat="49.60335" lon="3.39741">
        <ele>47.8</ele>
        <time>2023-08-06T17:43:58Z</time>
      </trkpt>
      <trkpt lat="49.60334" lon="3.39746">
        <ele>47.8</ele>
        <time>2023-08-06T17:43:59Z</time>
      </trkpt>
      <trkpt lat="49.60334" lon="3.39752">
        <ele>47.8</ele>
        <time>2023-08-06T17:44:00Z</time>
      </trkpt>
      <trkpt lat="49.60335" lon="3.39757">
        <ele>47.6</ele>
        <time>2023-08-06T17:44:01Z</time>
      </trkpt>
      <trkpt lat="49.60338" lon="3.39766">
        <ele>47.6</ele>
        <time>2023-08-06T17:44:03Z</time>
      </trkpt>
      <trkpt lat="49.6034" lon="3.3977">
        <ele>47.6</ele>
        <time>2023-08-06T17:44:04Z</time>
      </trkpt>
      <trkpt lat="49.60341" lon="3.39774">
        <ele>47.6</ele>
        <time>2023-08-06T17:44:05Z</time>
      </trkpt>
      <trkpt lat="49.60342" lon="3.39777">
        <ele>47.6</ele>
        <time>2023-08-06T17:44:06Z</time>
      </trkpt>
      <trkpt lat="49.60344" lon="3.3978">
        <ele>47.6</ele>
        <time>2023-08-06T17:44:07Z</time>
      </trkpt>
      <trkpt lat="49.60345" lon="3.39782">
        <ele>47.6</ele>
        <time>2023-08-06T17:44:08Z</time>
      </trkpt>
      <trkpt lat="49.60346" lon="3.39785">
        <ele>47.6</ele>
        <time>2023-08-06T17:44:09Z</time>
      </trkpt>
      <trkpt lat="49.60348" lon="3.39791">
        <ele>47.6</ele>
        <time>2023-08-06T17:44:11Z</time>
      </trkpt>
      <trkpt lat="49.60349" lon="3.39794">
        <ele>47.6</ele>
        <time>2023-08-06T17:44:12Z</time>
      </trkpt>
      <trkpt lat="49.6035" lon="3.39797">
        <ele>47.6</ele>
        <time>2023-08-06T17:44:13Z</time>
      </trkpt>
      <trkpt lat="49.60361" lon="3.39822">
        <ele>47.8</ele>
        <time>2023-08-06T17:44:21Z</time>
      </trkpt>
      <trkpt lat="49.60369" lon="3.3985">
        <ele>48.4</ele>
        <time>2023-08-06T17:44:29Z</time>
      </trkpt>
      <trkpt lat="49.60369" lon="3.39853">
        <ele>48.6</ele>
        <time>2023-08-06T17:44:30Z</time>
      </trkpt>
      <trkpt lat="49.60369" lon="3.39857">
        <ele>48.6</ele>
        <time>2023-08-06T17:44:31Z</time>
      </trkpt>
      <trkpt lat="49.6037" lon="3.3986">
        <ele>48.8</ele>
        <time>2023-08-06T17:44:32Z</time>
      </trkpt>
      <trkpt lat="49.60371" lon="3.39867">
        <ele>48.8</ele>
        <time>2023-08-06T17:44:34Z</time>
      </trkpt>
      <trkpt lat="49.60371" lon="3.3987">
        <ele>48.8</ele>
        <time>2023-08-06T17:44:35Z</time>
      </trkpt>
      <trkpt lat="49.60371" lon="3.39874">
        <ele>49</ele>
        <time>2023-08-06T17:44:36Z</time>
      </trkpt>
      <trkpt lat="49.60372" lon="3.39881">
        <ele>49.2</ele>
        <time>2023-08-06T17:44:38Z</time>
      </trkpt>
      <trkpt lat="49.60373" lon="3.39884">
        <ele>49.2</ele>
        <time>2023-08-06T17:44:39Z</time>
      </trkpt>
      <trkpt lat="49.60373" lon="3.39888">
        <ele>49.4</ele>
        <time>2023-08-06T17:44:40Z</time>
      </trkpt>
      <trkpt lat="49.60374" lon="3.39904">
        <ele>50</ele>
        <time>2023-08-06T17:44:44Z</time>
      </trkpt>
      <trkpt lat="49.6038" lon="3.39934">
        <ele>50.4</ele>
        <time>2023-08-06T17:44:51Z</time>
      </trkpt>
      <trkpt lat="49.6038" lon="3.39938">
        <ele>50.4</ele>
        <time>2023-08-06T17:44:52Z</time>
      </trkpt>
      <trkpt lat="49.60381" lon="3.39956">
        <ele>50.6</ele>
        <time>2023-08-06T17:44:56Z</time>
      </trkpt>
      <trkpt lat="49.60385" lon="3.39983">
        <ele>51</ele>
        <time>2023-08-06T17:45:02Z</time>
      </trkpt>
      <trkpt lat="49.60387" lon="3.4002">
        <ele>51.2</ele>
        <time>2023-08-06T17:45:10Z</time>
      </trkpt>
      <trkpt lat="49.60387" lon="3.40027">
        <ele>51.2</ele>
        <time>2023-08-06T17:45:12Z</time>
      </trkpt>
      <trkpt lat="49.60388" lon="3.4003">
        <ele>51.2</ele>
        <time>2023-08-06T17:45:13Z</time>
      </trkpt>
      <trkpt lat="49.60388" lon="3.40034">
        <ele>51.2</ele>
        <time>2023-08-06T17:45:14Z</time>
      </trkpt>
      <trkpt lat="49.60388" lon="3.40037">
        <ele>51.4</ele>
        <time>2023-08-06T17:45:15Z</time>
      </trkpt>
      <trkpt lat="49.60389" lon="3.4004">
        <ele>51.4</ele>
        <time>2023-08-06T17:45:16Z</time>
      </trkpt>
      <trkpt lat="49.60389" lon="3.40044">
        <ele>51.4</ele>
        <time>2023-08-06T17:45:17Z</time>
      </trkpt>
      <trkpt lat="49.60388" lon="3.40047">
        <ele>51.4</ele>
        <time>2023-08-06T17:45:18Z</time>
      </trkpt>
      <trkpt lat="49.60388" lon="3.4005">
        <ele>51.6</ele>
        <time>2023-08-06T17:45:19Z</time>
      </trkpt>
      <trkpt lat="49.60388" lon="3.40053">
        <ele>51.8</ele>
        <time>2023-08-06T17:45:20Z</time>
      </trkpt>
      <trkpt lat="49.60388" lon="3.40056">
        <ele>51.8</ele>
        <time>2023-08-06T17:45:21Z</time>
      </trkpt>
      <trkpt lat="49.60389" lon="3.4006">
        <ele>52</ele>
        <time>2023-08-06T17:45:22Z</time>
      </trkpt>
      <trkpt lat="49.60389" lon="3.40063">
        <ele>52</ele>
        <time>2023-08-06T17:45:23Z</time>
      </trkpt>
      <trkpt lat="49.60389" lon="3.40066">
        <ele>52</ele>
        <time>2023-08-06T17:45:24Z</time>
      </trkpt>
      <trkpt lat="49.60389" lon="3.40069">
        <ele>52.2</ele>
        <time>2023-08-06T17:45:25Z</time>
      </trkpt>
      <trkpt lat="49.6039" lon="3.40072">
        <ele>52.2</ele>
        <time>2023-08-06T17:45:26Z</time>
      </trkpt>
      <trkpt lat="49.6039" lon="3.40078">
        <ele>52.6</ele>
        <time>2023-08-06T17:45:28Z</time>
      </trkpt>
      <trkpt lat="49.60391" lon="3.40096">
        <ele>53.4</ele>
        <time>2023-08-06T17:45:34Z</time>
      </trkpt>
      <trkpt lat="49.60392" lon="3.40102">
        <ele>53.6</ele>
        <time>2023-08-06T17:45:36Z</time>
      </trkpt>
      <trkpt lat="49.60393" lon="3.40107">
        <ele>53.8</ele>
        <time>2023-08-06T17:45:38Z</time>
      </trkpt>
      <trkpt lat="49.60393" lon="3.40113">
        <ele>54.2</ele>
        <time>2023-08-06T17:45:40Z</time>
      </trkpt>
      <trkpt lat="49.60393" lon="3.40116">
        <ele>54.2</ele>
        <time>2023-08-06T17:45:41Z</time>
      </trkpt>
      <trkpt lat="49.60393" lon="3.40118">
        <ele>54.4</ele>
        <time>2023-08-06T17:45:42Z</time>
      </trkpt>
      <trkpt lat="49.60393" lon="3.40121">
        <ele>54.6</ele>
        <time>2023-08-06T17:45:43Z</time>
      </trkpt>
      <trkpt lat="49.60393" lon="3.40124">
        <ele>55</ele>
        <time>2023-08-06T17:45:44Z</time>
      </trkpt>
      <trkpt lat="49.60394" lon="3.40127">
        <ele>55</ele>
        <time>2023-08-06T17:45:45Z</time>
      </trkpt>
      <trkpt lat="49.60394" lon="3.4013">
        <ele>55.2</ele>
        <time>2023-08-06T17:45:46Z</time>
      </trkpt>
      <trkpt lat="49.60395" lon="3.40133">
        <ele>55.2</ele>
        <time>2023-08-06T17:45:47Z</time>
      </trkpt>
      <trkpt lat="49.60395" lon="3.40136">
        <ele>55.4</ele>
        <time>2023-08-06T17:45:48Z</time>
      </trkpt>
      <trkpt lat="49.60396" lon="3.40139">
        <ele>55.4</ele>
        <time>2023-08-06T17:45:49Z</time>
      </trkpt>
      <trkpt lat="49.60396" lon="3.40142">
        <ele>55.6</ele>
        <time>2023-08-06T17:45:50Z</time>
      </trkpt>
      <trkpt lat="49.60396" lon="3.40145">
        <ele>55.8</ele>
        <time>2023-08-06T17:45:51Z</time>
      </trkpt>
      <trkpt lat="49.60396" lon="3.40147">
        <ele>56</ele>
        <time>2023-08-06T17:45:52Z</time>
      </trkpt>
      <trkpt lat="49.60397" lon="3.4015">
        <ele>56.2</ele>
        <time>2023-08-06T17:45:53Z</time>
      </trkpt>
      <trkpt lat="49.60397" lon="3.40153">
        <ele>56.4</ele>
        <time>2023-08-06T17:45:54Z</time>
      </trkpt>
      <trkpt lat="49.60397" lon="3.40156">
        <ele>56.8</ele>
        <time>2023-08-06T17:45:55Z</time>
      </trkpt>
      <trkpt lat="49.60397" lon="3.40159">
        <ele>56.8</ele>
        <time>2023-08-06T17:45:56Z</time>
      </trkpt>
      <trkpt lat="49.60398" lon="3.40162">
        <ele>56.8</ele>
        <time>2023-08-06T17:45:57Z</time>
      </trkpt>
      <trkpt lat="49.60398" lon="3.40165">
        <ele>57</ele>
        <time>2023-08-06T17:45:58Z</time>
      </trkpt>
      <trkpt lat="49.60398" lon="3.40168">
        <ele>57</ele>
        <time>2023-08-06T17:45:59Z</time>
      </trkpt>
      <trkpt lat="49.60399" lon="3.40171">
        <ele>57</ele>
        <time>2023-08-06T17:46:00Z</time>
      </trkpt>
      <trkpt lat="49.60399" lon="3.40174">
        <ele>57.2</ele>
        <time>2023-08-06T17:46:01Z</time>
      </trkpt>
      <trkpt lat="49.60399" lon="3.40178">
        <ele>57.4</ele>
        <time>2023-08-06T17:46:02Z</time>
      </trkpt>
      <trkpt lat="49.604" lon="3.40181">
        <ele>57.4</ele>
        <time>2023-08-06T17:46:03Z</time>
      </trkpt>
      <trkpt lat="49.604" lon="3.40184">
        <ele>57.6</ele>
        <time>2023-08-06T17:46:04Z</time>
      </trkpt>
      <trkpt lat="49.604" lon="3.40187">
        <ele>57.8</ele>
        <time>2023-08-06T17:46:05Z</time>
      </trkpt>
      <trkpt lat="49.604" lon="3.40191">
        <ele>57.8</ele>
        <time>2023-08-06T17:46:06Z</time>
      </trkpt>
      <trkpt lat="49.604" lon="3.40194">
        <ele>58</ele>
        <time>2023-08-06T17:46:07Z</time>
      </trkpt>
      <trkpt lat="49.604" lon="3.40197">
        <ele>58.2</ele>
        <time>2023-08-06T17:46:08Z</time>
      </trkpt>
      <trkpt lat="49.604" lon="3.40201">
        <ele>58.4</ele>
        <time>2023-08-06T17:46:09Z</time>
      </trkpt>
      <trkpt lat="49.60401" lon="3.40204">
        <ele>58.4</ele>
        <time>2023-08-06T17:46:10Z</time>
      </trkpt>
      <trkpt lat="49.60401" lon="3.40207">
        <ele>58.6</ele>
        <time>2023-08-06T17:46:11Z</time>
      </trkpt>
      <trkpt lat="49.60401" lon="3.4021">
        <ele>58.6</ele>
        <time>2023-08-06T17:46:12Z</time>
      </trkpt>
      <trkpt lat="49.60402" lon="3.40214">
        <ele>58.8</ele>
        <time>2023-08-06T17:46:13Z</time>
      </trkpt>
      <trkpt lat="49.60402" lon="3.40217">
        <ele>58.8</ele>
        <time>2023-08-06T17:46:14Z</time>
      </trkpt>
      <trkpt lat="49.60402" lon="3.40221">
        <ele>58.8</ele>
        <time>2023-08-06T17:46:15Z</time>
      </trkpt>
      <trkpt lat="49.60403" lon="3.40224">
        <ele>58.8</ele>
        <time>2023-08-06T17:46:16Z</time>
      </trkpt>
      <trkpt lat="49.60403" lon="3.40228">
        <ele>58.8</ele>
        <time>2023-08-06T17:46:17Z</time>
      </trkpt>
      <trkpt lat="49.60403" lon="3.40231">
        <ele>59</ele>
        <time>2023-08-06T17:46:18Z</time>
      </trkpt>
      <trkpt lat="49.60403" lon="3.40235">
        <ele>59</ele>
        <time>2023-08-06T17:46:19Z</time>
      </trkpt>
      <trkpt lat="49.60402" lon="3.40238">
        <ele>59</ele>
        <time>2023-08-06T17:46:20Z</time>
      </trkpt>
      <trkpt lat="49.60402" lon="3.40241">
        <ele>59</ele>
        <time>2023-08-06T17:46:21Z</time>
      </trkpt>
      <trkpt lat="49.60402" lon="3.40244">
        <ele>59.2</ele>
        <time>2023-08-06T17:46:22Z</time>
      </trkpt>
      <trkpt lat="49.60402" lon="3.40247">
        <ele>59.2</ele>
        <time>2023-08-06T17:46:23Z</time>
      </trkpt>
      <trkpt lat="49.60402" lon="3.4025">
        <ele>59.2</ele>
        <time>2023-08-06T17:46:24Z</time>
      </trkpt>
      <trkpt lat="49.60403" lon="3.40252">
        <ele>59.2</ele>
        <time>2023-08-06T17:46:25Z</time>
      </trkpt>
      <trkpt lat="49.60403" lon="3.40253">
        <ele>59.2</ele>
        <time>2023-08-06T17:46:26Z</time>
      </trkpt>
      <trkpt lat="49.60403" lon="3.40253">
        <ele>59.2</ele>
        <time>2023-08-06T17:46:28Z</time>
      </trkpt>
      <trkpt lat="49.60407" lon="3.40259">
        <ele>58.4</ele>
        <time>2023-08-06T17:50:18Z</time>
      </trkpt>
      <trkpt lat="49.60407" lon="3.40261">
        <ele>58.4</ele>
        <time>2023-08-06T17:50:19Z</time>
      </trkpt>
      <trkpt lat="49.60407" lon="3.40263">
        <ele>58.4</ele>
        <time>2023-08-06T17:50:20Z</time>
      </trkpt>
      <trkpt lat="49.60407" lon="3.40266">
        <ele>58.4</ele>
        <time>2023-08-06T17:50:21Z</time>
      </trkpt>
      <trkpt lat="49.60407" lon="3.4027">
        <ele>58.4</ele>
        <time>2023-08-06T17:50:22Z</time>
      </trkpt>
      <trkpt lat="49.60406" lon="3.40281">
        <ele>58.2</ele>
        <time>2023-08-06T17:50:25Z</time>
      </trkpt>
      <trkpt lat="49.60406" lon="3.40288">
        <ele>58.2</ele>
        <time>2023-08-06T17:50:27Z</time>
      </trkpt>
      <trkpt lat="49.60407" lon="3.40308">
        <ele>58</ele>
        <time>2023-08-06T17:50:32Z</time>
      </trkpt>
      <trkpt lat="49.60408" lon="3.40333">
        <ele>57.8</ele>
        <time>2023-08-06T17:50:37Z</time>
      </trkpt>
      <trkpt lat="49.60408" lon="3.40343">
        <ele>58</ele>
        <time>2023-08-06T17:50:39Z</time>
      </trkpt>
      <trkpt lat="49.6041" lon="3.40375">
        <ele>57.6</ele>
        <time>2023-08-06T17:50:44Z</time>
      </trkpt>
      <trkpt lat="49.60412" lon="3.40396">
        <ele>57.2</ele>
        <time>2023-08-06T17:50:47Z</time>
      </trkpt>
      <trkpt lat="49.60414" lon="3.40412">
        <ele>57</ele>
        <time>2023-08-06T17:50:49Z</time>
      </trkpt>
      <trkpt lat="49.60415" lon="3.40437">
        <ele>56.4</ele>
        <time>2023-08-06T17:50:52Z</time>
      </trkpt>
      <trkpt lat="49.60417" lon="3.40454">
        <ele>56</ele>
        <time>2023-08-06T17:50:54Z</time>
      </trkpt>
      <trkpt lat="49.60419" lon="3.40473">
        <ele>55.8</ele>
        <time>2023-08-06T17:50:56Z</time>
      </trkpt>
      <trkpt lat="49.60422" lon="3.40527">
        <ele>54.2</ele>
        <time>2023-08-06T17:51:01Z</time>
      </trkpt>
      <trkpt lat="49.60424" lon="3.4055">
        <ele>53.2</ele>
        <time>2023-08-06T17:51:03Z</time>
      </trkpt>
      <trkpt lat="49.60425" lon="3.40562">
        <ele>52.8</ele>
        <time>2023-08-06T17:51:04Z</time>
      </trkpt>
      <trkpt lat="49.6043" lon="3.40611">
        <ele>51.4</ele>
        <time>2023-08-06T17:51:08Z</time>
      </trkpt>
      <trkpt lat="49.60431" lon="3.40623">
        <ele>51.2</ele>
        <time>2023-08-06T17:51:09Z</time>
      </trkpt>
      <trkpt lat="49.60434" lon="3.4066">
        <ele>49.8</ele>
        <time>2023-08-06T17:51:12Z</time>
      </trkpt>
      <trkpt lat="49.60437" lon="3.40697">
        <ele>48.4</ele>
        <time>2023-08-06T17:51:15Z</time>
      </trkpt>
      <trkpt lat="49.60438" lon="3.40709">
        <ele>48.2</ele>
        <time>2023-08-06T17:51:16Z</time>
      </trkpt>
      <trkpt lat="49.60438" lon="3.40719">
        <ele>47.4</ele>
        <time>2023-08-06T17:51:17Z</time>
      </trkpt>
      <trkpt lat="49.60439" lon="3.40728">
        <ele>46.4</ele>
        <time>2023-08-06T17:51:18Z</time>
      </trkpt>
      <trkpt lat="49.60439" lon="3.40736">
        <ele>45.4</ele>
        <time>2023-08-06T17:51:19Z</time>
      </trkpt>
      <trkpt lat="49.60437" lon="3.40742">
        <ele>44.8</ele>
        <time>2023-08-06T17:51:20Z</time>
      </trkpt>
      <trkpt lat="49.60435" lon="3.40745">
        <ele>44.2</ele>
        <time>2023-08-06T17:51:21Z</time>
      </trkpt>
      <trkpt lat="49.60433" lon="3.40746">
        <ele>43.4</ele>
        <time>2023-08-06T17:51:22Z</time>
      </trkpt>
      <trkpt lat="49.60431" lon="3.40745">
        <ele>42.8</ele>
        <time>2023-08-06T17:51:23Z</time>
      </trkpt>
      <trkpt lat="49.60428" lon="3.40744">
        <ele>41.2</ele>
        <time>2023-08-06T17:51:24Z</time>
      </trkpt>
      <trkpt lat="49.60425" lon="3.40743">
        <ele>40.8</ele>
        <time>2023-08-06T17:51:25Z</time>
      </trkpt>
      <trkpt lat="49.60423" lon="3.40742">
        <ele>40.4</ele>
        <time>2023-08-06T17:51:26Z</time>
      </trkpt>
      <trkpt lat="49.60421" lon="3.4074">
        <ele>40.2</ele>
        <time>2023-08-06T17:51:27Z</time>
      </trkpt>
      <trkpt lat="49.60415" lon="3.40736">
        <ele>39.6</ele>
        <time>2023-08-06T17:51:29Z</time>
      </trkpt>
      <trkpt lat="49.60413" lon="3.40735">
        <ele>39.6</ele>
        <time>2023-08-06T17:51:30Z</time>
      </trkpt>
      <trkpt lat="49.6041" lon="3.40733">
        <ele>39.6</ele>
        <time>2023-08-06T17:51:31Z</time>
      </trkpt>
      <trkpt lat="49.6039" lon="3.40719">
        <ele>39.4</ele>
        <time>2023-08-06T17:51:38Z</time>
      </trkpt>
      <trkpt lat="49.60362" lon="3.40705">
        <ele>39.4</ele>
        <time>2023-08-06T17:51:46Z</time>
      </trkpt>
      <trkpt lat="49.6035" lon="3.40698">
        <ele>39.4</ele>
        <time>2023-08-06T17:51:50Z</time>
      </trkpt>
      <trkpt lat="49.60349" lon="3.40697">
        <ele>39.4</ele>
        <time>2023-08-06T17:51:51Z</time>
      </trkpt>
      <trkpt lat="49.60347" lon="3.40696">
        <ele>39.4</ele>
        <time>2023-08-06T17:51:52Z</time>
      </trkpt>
      <trkpt lat="49.60334" lon="3.4069">
        <ele>39.4</ele>
        <time>2023-08-06T17:51:56Z</time>
      </trkpt>
      <trkpt lat="49.60324" lon="3.40685">
        <ele>39.4</ele>
        <time>2023-08-06T17:51:59Z</time>
      </trkpt>
      <trkpt lat="49.60319" lon="3.40683">
        <ele>39.4</ele>
        <time>2023-08-06T17:52:00Z</time>
      </trkpt>
      <trkpt lat="49.60317" lon="3.40682">
        <ele>39.4</ele>
        <time>2023-08-06T17:52:01Z</time>
      </trkpt>
      <trkpt lat="49.6031" lon="3.40678">
        <ele>39.4</ele>
        <time>2023-08-06T17:52:03Z</time>
      </trkpt>
      <trkpt lat="49.603" lon="3.40674">
        <ele>39.4</ele>
        <time>2023-08-06T17:52:06Z</time>
      </trkpt>
      <trkpt lat="49.60297" lon="3.40673">
        <ele>39.6</ele>
        <time>2023-08-06T17:52:07Z</time>
      </trkpt>
      <trkpt lat="49.60294" lon="3.40671">
        <ele>39.6</ele>
        <time>2023-08-06T17:52:08Z</time>
      </trkpt>
      <trkpt lat="49.60291" lon="3.40669">
        <ele>39.6</ele>
        <time>2023-08-06T17:52:09Z</time>
      </trkpt>
      <trkpt lat="49.60288" lon="3.40668">
        <ele>39.6</ele>
        <time>2023-08-06T17:52:10Z</time>
      </trkpt>
      <trkpt lat="49.60286" lon="3.40666">
        <ele>39.6</ele>
        <time>2023-08-06T17:52:11Z</time>
      </trkpt>
      <trkpt lat="49.60283" lon="3.40664">
        <ele>39.8</ele>
        <time>2023-08-06T17:52:12Z</time>
      </trkpt>
      <trkpt lat="49.6028" lon="3.40663">
        <ele>39.8</ele>
        <time>2023-08-06T17:52:13Z</time>
      </trkpt>
      <trkpt lat="49.60277" lon="3.40662">
        <ele>39.8</ele>
        <time>2023-08-06T17:52:14Z</time>
      </trkpt>
      <trkpt lat="49.60274" lon="3.40661">
        <ele>39.8</ele>
        <time>2023-08-06T17:52:15Z</time>
      </trkpt>
      <trkpt lat="49.60271" lon="3.4066">
        <ele>39.8</ele>
        <time>2023-08-06T17:52:16Z</time>
      </trkpt>
      <trkpt lat="49.60269" lon="3.40659">
        <ele>40</ele>
        <time>2023-08-06T17:52:17Z</time>
      </trkpt>
      <trkpt lat="49.60264" lon="3.40657">
        <ele>40</ele>
        <time>2023-08-06T17:52:19Z</time>
      </trkpt>
      <trkpt lat="49.60262" lon="3.40655">
        <ele>40</ele>
        <time>2023-08-06T17:52:20Z</time>
      </trkpt>
      <trkpt lat="49.60259" lon="3.40653">
        <ele>40.2</ele>
        <time>2023-08-06T17:52:21Z</time>
      </trkpt>
      <trkpt lat="49.60256" lon="3.40651">
        <ele>40.2</ele>
        <time>2023-08-06T17:52:22Z</time>
      </trkpt>
      <trkpt lat="49.60254" lon="3.40648">
        <ele>40.4</ele>
        <time>2023-08-06T17:52:23Z</time>
      </trkpt>
      <trkpt lat="49.60252" lon="3.40647">
        <ele>40.4</ele>
        <time>2023-08-06T17:52:24Z</time>
      </trkpt>
      <trkpt lat="49.6025" lon="3.40645">
        <ele>40.4</ele>
        <time>2023-08-06T17:52:25Z</time>
      </trkpt>
      <trkpt lat="49.60249" lon="3.40644">
        <ele>40.6</ele>
        <time>2023-08-06T17:52:26Z</time>
      </trkpt>
      <trkpt lat="49.60247" lon="3.40643">
        <ele>40.6</ele>
        <time>2023-08-06T17:52:27Z</time>
      </trkpt>
      <trkpt lat="49.60245" lon="3.40642">
        <ele>40.8</ele>
        <time>2023-08-06T17:52:28Z</time>
      </trkpt>
      <trkpt lat="49.60242" lon="3.4064">
        <ele>40.8</ele>
        <time>2023-08-06T17:52:29Z</time>
      </trkpt>
      <trkpt lat="49.6024" lon="3.40638">
        <ele>41</ele>
        <time>2023-08-06T17:52:30Z</time>
      </trkpt>
      <trkpt lat="49.60239" lon="3.4064">
        <ele>41</ele>
        <time>2023-08-06T17:52:31Z</time>
      </trkpt>
      <trkpt lat="49.60234" lon="3.40636">
        <ele>41.2</ele>
        <time>2023-08-06T17:52:33Z</time>
      </trkpt>
      <trkpt lat="49.60227" lon="3.40633">
        <ele>41.6</ele>
        <time>2023-08-06T17:52:37Z</time>
      </trkpt>
      <trkpt lat="49.60225" lon="3.40633">
        <ele>41.6</ele>
        <time>2023-08-06T17:52:38Z</time>
      </trkpt>
      <trkpt lat="49.60218" lon="3.40628">
        <ele>42</ele>
        <time>2023-08-06T17:52:41Z</time>
      </trkpt>
      <trkpt lat="49.60216" lon="3.40627">
        <ele>42.2</ele>
        <time>2023-08-06T17:52:42Z</time>
      </trkpt>
      <trkpt lat="49.60208" lon="3.40624">
        <ele>42.4</ele>
        <time>2023-08-06T17:52:46Z</time>
      </trkpt>
      <trkpt lat="49.60203" lon="3.40622">
        <ele>42.6</ele>
        <time>2023-08-06T17:52:48Z</time>
      </trkpt>
      <trkpt lat="49.60186" lon="3.40615">
        <ele>43.4</ele>
        <time>2023-08-06T17:52:55Z</time>
      </trkpt>
      <trkpt lat="49.60184" lon="3.40614">
        <ele>43.4</ele>
        <time>2023-08-06T17:52:56Z</time>
      </trkpt>
      <trkpt lat="49.60168" lon="3.40606">
        <ele>43.8</ele>
        <time>2023-08-06T17:53:03Z</time>
      </trkpt>
      <trkpt lat="49.60166" lon="3.40604">
        <ele>43.8</ele>
        <time>2023-08-06T17:53:04Z</time>
      </trkpt>
      <trkpt lat="49.60164" lon="3.40603">
        <ele>44</ele>
        <time>2023-08-06T17:53:05Z</time>
      </trkpt>
      <trkpt lat="49.60161" lon="3.40602">
        <ele>44.2</ele>
        <time>2023-08-06T17:53:06Z</time>
      </trkpt>
      <trkpt lat="49.60159" lon="3.40601">
        <ele>44.2</ele>
        <time>2023-08-06T17:53:07Z</time>
      </trkpt>
      <trkpt lat="49.60158" lon="3.406">
        <ele>44.4</ele>
        <time>2023-08-06T17:53:08Z</time>
      </trkpt>
      <trkpt lat="49.60156" lon="3.40598">
        <ele>44.6</ele>
        <time>2023-08-06T17:53:09Z</time>
      </trkpt>
      <trkpt lat="49.60153" lon="3.40597">
        <ele>44.6</ele>
        <time>2023-08-06T17:53:10Z</time>
      </trkpt>
      <trkpt lat="49.60152" lon="3.40596">
        <ele>44.6</ele>
        <time>2023-08-06T17:53:11Z</time>
      </trkpt>
      <trkpt lat="49.60151" lon="3.40596">
        <ele>44.8</ele>
        <time>2023-08-06T17:53:12Z</time>
      </trkpt>
      <trkpt lat="49.60149" lon="3.40596">
        <ele>45</ele>
        <time>2023-08-06T17:53:13Z</time>
      </trkpt>
      <trkpt lat="49.60143" lon="3.40593">
        <ele>45.4</ele>
        <time>2023-08-06T17:53:17Z</time>
      </trkpt>
      <trkpt lat="49.60141" lon="3.40592">
        <ele>45.6</ele>
        <time>2023-08-06T17:53:18Z</time>
      </trkpt>
      <trkpt lat="49.60139" lon="3.40591">
        <ele>45.6</ele>
        <time>2023-08-06T17:53:19Z</time>
      </trkpt>
      <trkpt lat="49.60138" lon="3.4059">
        <ele>45.6</ele>
        <time>2023-08-06T17:53:20Z</time>
      </trkpt>
      <trkpt lat="49.60137" lon="3.4059">
        <ele>45.8</ele>
        <time>2023-08-06T17:53:21Z</time>
      </trkpt>
      <trkpt lat="49.60131" lon="3.40587">
        <ele>46.2</ele>
        <time>2023-08-06T17:53:25Z</time>
      </trkpt>
      <trkpt lat="49.6013" lon="3.40586">
        <ele>46.2</ele>
        <time>2023-08-06T17:53:26Z</time>
      </trkpt>
      <trkpt lat="49.60128" lon="3.40585">
        <ele>46.4</ele>
        <time>2023-08-06T17:53:27Z</time>
      </trkpt>
      <trkpt lat="49.60127" lon="3.40584">
        <ele>46.6</ele>
        <time>2023-08-06T17:53:28Z</time>
      </trkpt>
      <trkpt lat="49.60125" lon="3.40583">
        <ele>46.8</ele>
        <time>2023-08-06T17:53:29Z</time>
      </trkpt>
      <trkpt lat="49.60124" lon="3.40582">
        <ele>46.8</ele>
        <time>2023-08-06T17:53:30Z</time>
      </trkpt>
      <trkpt lat="49.60122" lon="3.40582">
        <ele>47</ele>
        <time>2023-08-06T17:53:31Z</time>
      </trkpt>
      <trkpt lat="49.60121" lon="3.40581">
        <ele>47</ele>
        <time>2023-08-06T17:53:32Z</time>
      </trkpt>
      <trkpt lat="49.6012" lon="3.40581">
        <ele>47.2</ele>
        <time>2023-08-06T17:53:33Z</time>
      </trkpt>
      <trkpt lat="49.60119" lon="3.4058">
        <ele>47.2</ele>
        <time>2023-08-06T17:53:34Z</time>
      </trkpt>
      <trkpt lat="49.60117" lon="3.40579">
        <ele>47.4</ele>
        <time>2023-08-06T17:53:35Z</time>
      </trkpt>
      <trkpt lat="49.60116" lon="3.40579">
        <ele>47.4</ele>
        <time>2023-08-06T17:53:36Z</time>
      </trkpt>
      <trkpt lat="49.60115" lon="3.40578">
        <ele>47.2</ele>
        <time>2023-08-06T17:53:37Z</time>
      </trkpt>
      <trkpt lat="49.60113" lon="3.40578">
        <ele>47.4</ele>
        <time>2023-08-06T17:53:38Z</time>
      </trkpt>
      <trkpt lat="49.60112" lon="3.40577">
        <ele>47.6</ele>
        <time>2023-08-06T17:53:39Z</time>
      </trkpt>
      <trkpt lat="49.60111" lon="3.40577">
        <ele>47.6</ele>
        <time>2023-08-06T17:53:40Z</time>
      </trkpt>
      <trkpt lat="49.6011" lon="3.40576">
        <ele>47.6</ele>
        <time>2023-08-06T17:53:41Z</time>
      </trkpt>
      <trkpt lat="49.60108" lon="3.40575">
        <ele>47.6</ele>
        <time>2023-08-06T17:53:42Z</time>
      </trkpt>
      <trkpt lat="49.60107" lon="3.40574">
        <ele>47.8</ele>
        <time>2023-08-06T17:53:43Z</time>
      </trkpt>
      <trkpt lat="49.60106" lon="3.40574">
        <ele>47.8</ele>
        <time>2023-08-06T17:53:44Z</time>
      </trkpt>
      <trkpt lat="49.60104" lon="3.40574">
        <ele>47.8</ele>
        <time>2023-08-06T17:53:45Z</time>
      </trkpt>
      <trkpt lat="49.60102" lon="3.40573">
        <ele>48</ele>
        <time>2023-08-06T17:53:46Z</time>
      </trkpt>
      <trkpt lat="49.60096" lon="3.40569">
        <ele>48.6</ele>
        <time>2023-08-06T17:53:51Z</time>
      </trkpt>
      <trkpt lat="49.60095" lon="3.40568">
        <ele>48.8</ele>
        <time>2023-08-06T17:53:52Z</time>
      </trkpt>
      <trkpt lat="49.60093" lon="3.40567">
        <ele>49</ele>
        <time>2023-08-06T17:53:53Z</time>
      </trkpt>
      <trkpt lat="49.60092" lon="3.40567">
        <ele>49</ele>
        <time>2023-08-06T17:53:54Z</time>
      </trkpt>
      <trkpt lat="49.60091" lon="3.40566">
        <ele>49.2</ele>
        <time>2023-08-06T17:53:55Z</time>
      </trkpt>
      <trkpt lat="49.6009" lon="3.40566">
        <ele>49.2</ele>
        <time>2023-08-06T17:53:56Z</time>
      </trkpt>
      <trkpt lat="49.60089" lon="3.40565">
        <ele>49.4</ele>
        <time>2023-08-06T17:53:57Z</time>
      </trkpt>
      <trkpt lat="49.60087" lon="3.40564">
        <ele>49.4</ele>
        <time>2023-08-06T17:53:58Z</time>
      </trkpt>
      <trkpt lat="49.60085" lon="3.40563">
        <ele>49.6</ele>
        <time>2023-08-06T17:53:59Z</time>
      </trkpt>
      <trkpt lat="49.60084" lon="3.40563">
        <ele>49.8</ele>
        <time>2023-08-06T17:54:00Z</time>
      </trkpt>
      <trkpt lat="49.60082" lon="3.40562">
        <ele>50</ele>
        <time>2023-08-06T17:54:01Z</time>
      </trkpt>
      <trkpt lat="49.6008" lon="3.40561">
        <ele>50.2</ele>
        <time>2023-08-06T17:54:02Z</time>
      </trkpt>
      <trkpt lat="49.60079" lon="3.4056">
        <ele>50.4</ele>
        <time>2023-08-06T17:54:03Z</time>
      </trkpt>
      <trkpt lat="49.60078" lon="3.40559">
        <ele>50.6</ele>
        <time>2023-08-06T17:54:04Z</time>
      </trkpt>
      <trkpt lat="49.60077" lon="3.40559">
        <ele>50.6</ele>
        <time>2023-08-06T17:54:05Z</time>
      </trkpt>
      <trkpt lat="49.60075" lon="3.40558">
        <ele>51</ele>
        <time>2023-08-06T17:54:06Z</time>
      </trkpt>
      <trkpt lat="49.60074" lon="3.40557">
        <ele>51</ele>
        <time>2023-08-06T17:54:07Z</time>
      </trkpt>
      <trkpt lat="49.60073" lon="3.40556">
        <ele>51.2</ele>
        <time>2023-08-06T17:54:08Z</time>
      </trkpt>
      <trkpt lat="49.6007" lon="3.40555">
        <ele>51.4</ele>
        <time>2023-08-06T17:54:09Z</time>
      </trkpt>
      <trkpt lat="49.60069" lon="3.40554">
        <ele>51.4</ele>
        <time>2023-08-06T17:54:10Z</time>
      </trkpt>
      <trkpt lat="49.60068" lon="3.40553">
        <ele>51.6</ele>
        <time>2023-08-06T17:54:11Z</time>
      </trkpt>
      <trkpt lat="49.60067" lon="3.40553">
        <ele>51.6</ele>
        <time>2023-08-06T17:54:12Z</time>
      </trkpt>
      <trkpt lat="49.60066" lon="3.40552">
        <ele>52</ele>
        <time>2023-08-06T17:54:13Z</time>
      </trkpt>
      <trkpt lat="49.60065" lon="3.40552">
        <ele>52.2</ele>
        <time>2023-08-06T17:54:14Z</time>
      </trkpt>
      <trkpt lat="49.60064" lon="3.40552">
        <ele>52.4</ele>
        <time>2023-08-06T17:54:15Z</time>
      </trkpt>
      <trkpt lat="49.60062" lon="3.40551">
        <ele>52.6</ele>
        <time>2023-08-06T17:54:16Z</time>
      </trkpt>
      <trkpt lat="49.60061" lon="3.40551">
        <ele>52.6</ele>
        <time>2023-08-06T17:54:17Z</time>
      </trkpt>
      <trkpt lat="49.6006" lon="3.4055">
        <ele>52.6</ele>
        <time>2023-08-06T17:54:18Z</time>
      </trkpt>
      <trkpt lat="49.60059" lon="3.4055">
        <ele>52.8</ele>
        <time>2023-08-06T17:54:19Z</time>
      </trkpt>
      <trkpt lat="49.60058" lon="3.4055">
        <ele>53</ele>
        <time>2023-08-06T17:54:20Z</time>
      </trkpt>
      <trkpt lat="49.60057" lon="3.40549">
        <ele>53.2</ele>
        <time>2023-08-06T17:54:21Z</time>
      </trkpt>
      <trkpt lat="49.60056" lon="3.40548">
        <ele>53.4</ele>
        <time>2023-08-06T17:54:22Z</time>
      </trkpt>
      <trkpt lat="49.60054" lon="3.40548">
        <ele>53.4</ele>
        <time>2023-08-06T17:54:23Z</time>
      </trkpt>
      <trkpt lat="49.60053" lon="3.40547">
        <ele>53.6</ele>
        <time>2023-08-06T17:54:24Z</time>
      </trkpt>
      <trkpt lat="49.60052" lon="3.40546">
        <ele>53.8</ele>
        <time>2023-08-06T17:54:25Z</time>
      </trkpt>
      <trkpt lat="49.60052" lon="3.40546">
        <ele>54</ele>
        <time>2023-08-06T17:54:26Z</time>
      </trkpt>
      <trkpt lat="49.6005" lon="3.40545">
        <ele>54.2</ele>
        <time>2023-08-06T17:54:27Z</time>
      </trkpt>
      <trkpt lat="49.60048" lon="3.40545">
        <ele>54.2</ele>
        <time>2023-08-06T17:54:28Z</time>
      </trkpt>
      <trkpt lat="49.60047" lon="3.40544">
        <ele>54.2</ele>
        <time>2023-08-06T17:54:29Z</time>
      </trkpt>
      <trkpt lat="49.60046" lon="3.40544">
        <ele>54.4</ele>
        <time>2023-08-06T17:54:30Z</time>
      </trkpt>
      <trkpt lat="49.60045" lon="3.40544">
        <ele>54.4</ele>
        <time>2023-08-06T17:54:31Z</time>
      </trkpt>
      <trkpt lat="49.60043" lon="3.40543">
        <ele>54.6</ele>
        <time>2023-08-06T17:54:32Z</time>
      </trkpt>
      <trkpt lat="49.60041" lon="3.40542">
        <ele>54.8</ele>
        <time>2023-08-06T17:54:33Z</time>
      </trkpt>
      <trkpt lat="49.6004" lon="3.40542">
        <ele>54.8</ele>
        <time>2023-08-06T17:54:34Z</time>
      </trkpt>
      <trkpt lat="49.60038" lon="3.40541">
        <ele>54.8</ele>
        <time>2023-08-06T17:54:35Z</time>
      </trkpt>
      <trkpt lat="49.60038" lon="3.40541">
        <ele>55</ele>
        <time>2023-08-06T17:54:36Z</time>
      </trkpt>
      <trkpt lat="49.60035" lon="3.40539">
        <ele>55</ele>
        <time>2023-08-06T17:54:37Z</time>
      </trkpt>
      <trkpt lat="49.60033" lon="3.40538">
        <ele>55</ele>
        <time>2023-08-06T17:54:38Z</time>
      </trkpt>
      <trkpt lat="49.60031" lon="3.40538">
        <ele>55</ele>
        <time>2023-08-06T17:54:39Z</time>
      </trkpt>
      <trkpt lat="49.60029" lon="3.40537">
        <ele>55</ele>
        <time>2023-08-06T17:54:40Z</time>
      </trkpt>
      <trkpt lat="49.60027" lon="3.40537">
        <ele>55.2</ele>
        <time>2023-08-06T17:54:41Z</time>
      </trkpt>
      <trkpt lat="49.60025" lon="3.40536">
        <ele>55.2</ele>
        <time>2023-08-06T17:54:42Z</time>
      </trkpt>
      <trkpt lat="49.60024" lon="3.40535">
        <ele>55.4</ele>
        <time>2023-08-06T17:54:43Z</time>
      </trkpt>
      <trkpt lat="49.60021" lon="3.40533">
        <ele>55.4</ele>
        <time>2023-08-06T17:54:44Z</time>
      </trkpt>
      <trkpt lat="49.60019" lon="3.40532">
        <ele>55.6</ele>
        <time>2023-08-06T17:54:45Z</time>
      </trkpt>
      <trkpt lat="49.60017" lon="3.40531">
        <ele>55.6</ele>
        <time>2023-08-06T17:54:46Z</time>
      </trkpt>
      <trkpt lat="49.60014" lon="3.4053">
        <ele>55.6</ele>
        <time>2023-08-06T17:54:47Z</time>
      </trkpt>
      <trkpt lat="49.60014" lon="3.4053">
        <ele>55.6</ele>
        <time>2023-08-06T17:54:48Z</time>
      </trkpt>
      <trkpt lat="49.60004" lon="3.40525">
        <ele>55.6</ele>
        <time>2023-08-06T17:54:51Z</time>
      </trkpt>
      <trkpt lat="49.59984" lon="3.40515">
        <ele>55.4</ele>
        <time>2023-08-06T17:54:58Z</time>
      </trkpt>
      <trkpt lat="49.59964" lon="3.40507">
        <ele>55</ele>
        <time>2023-08-06T17:55:04Z</time>
      </trkpt>
      <trkpt lat="49.59949" lon="3.40501">
        <ele>54.8</ele>
        <time>2023-08-06T17:55:09Z</time>
      </trkpt>
      <trkpt lat="49.59946" lon="3.40498">
        <ele>54.8</ele>
        <time>2023-08-06T17:55:10Z</time>
      </trkpt>
      <trkpt lat="49.59943" lon="3.40497">
        <ele>54.8</ele>
        <time>2023-08-06T17:55:11Z</time>
      </trkpt>
      <trkpt lat="49.59942" lon="3.40495">
        <ele>54.8</ele>
        <time>2023-08-06T17:55:12Z</time>
      </trkpt>
      <trkpt lat="49.5994" lon="3.40494">
        <ele>54.8</ele>
        <time>2023-08-06T17:55:13Z</time>
      </trkpt>
      <trkpt lat="49.59937" lon="3.40493">
        <ele>54.8</ele>
        <time>2023-08-06T17:55:14Z</time>
      </trkpt>
      <trkpt lat="49.59934" lon="3.40492">
        <ele>54.8</ele>
        <time>2023-08-06T17:55:15Z</time>
      </trkpt>
      <trkpt lat="49.59932" lon="3.40489">
        <ele>54.8</ele>
        <time>2023-08-06T17:55:16Z</time>
      </trkpt>
      <trkpt lat="49.59927" lon="3.40485">
        <ele>54.8</ele>
        <time>2023-08-06T17:55:18Z</time>
      </trkpt>
      <trkpt lat="49.59925" lon="3.40483">
        <ele>55</ele>
        <time>2023-08-06T17:55:19Z</time>
      </trkpt>
      <trkpt lat="49.59923" lon="3.40481">
        <ele>55</ele>
        <time>2023-08-06T17:55:20Z</time>
      </trkpt>
      <trkpt lat="49.59921" lon="3.4048">
        <ele>55</ele>
        <time>2023-08-06T17:55:21Z</time>
      </trkpt>
      <trkpt lat="49.59917" lon="3.40477">
        <ele>55</ele>
        <time>2023-08-06T17:55:22Z</time>
      </trkpt>
      <trkpt lat="49.59914" lon="3.40475">
        <ele>55.2</ele>
        <time>2023-08-06T17:55:23Z</time>
      </trkpt>
      <trkpt lat="49.59912" lon="3.40473">
        <ele>55.2</ele>
        <time>2023-08-06T17:55:24Z</time>
      </trkpt>
      <trkpt lat="49.59909" lon="3.40471">
        <ele>55.2</ele>
        <time>2023-08-06T17:55:25Z</time>
      </trkpt>
      <trkpt lat="49.59903" lon="3.40467">
        <ele>55.6</ele>
        <time>2023-08-06T17:55:27Z</time>
      </trkpt>
      <trkpt lat="49.59901" lon="3.40465">
        <ele>55.8</ele>
        <time>2023-08-06T17:55:28Z</time>
      </trkpt>
      <trkpt lat="49.59899" lon="3.40465">
        <ele>56</ele>
        <time>2023-08-06T17:55:29Z</time>
      </trkpt>
      <trkpt lat="49.59896" lon="3.40464">
        <ele>56</ele>
        <time>2023-08-06T17:55:30Z</time>
      </trkpt>
      <trkpt lat="49.59894" lon="3.40463">
        <ele>56.2</ele>
        <time>2023-08-06T17:55:31Z</time>
      </trkpt>
      <trkpt lat="49.59891" lon="3.40462">
        <ele>56.4</ele>
        <time>2023-08-06T17:55:32Z</time>
      </trkpt>
      <trkpt lat="49.59889" lon="3.40461">
        <ele>56.6</ele>
        <time>2023-08-06T17:55:33Z</time>
      </trkpt>
      <trkpt lat="49.59889" lon="3.40461">
        <ele>56.8</ele>
        <time>2023-08-06T17:55:34Z</time>
      </trkpt>
      <trkpt lat="49.59885" lon="3.40459">
        <ele>57</ele>
        <time>2023-08-06T17:55:35Z</time>
      </trkpt>
      <trkpt lat="49.59883" lon="3.40457">
        <ele>57.4</ele>
        <time>2023-08-06T17:55:36Z</time>
      </trkpt>
      <trkpt lat="49.5988" lon="3.40456">
        <ele>57.6</ele>
        <time>2023-08-06T17:55:38Z</time>
      </trkpt>
      <trkpt lat="49.59874" lon="3.40455">
        <ele>58</ele>
        <time>2023-08-06T17:55:41Z</time>
      </trkpt>
      <trkpt lat="49.59872" lon="3.40456">
        <ele>58.2</ele>
        <time>2023-08-06T17:55:42Z</time>
      </trkpt>
      <trkpt lat="49.5987" lon="3.40456">
        <ele>58.4</ele>
        <time>2023-08-06T17:55:43Z</time>
      </trkpt>
      <trkpt lat="49.59868" lon="3.40456">
        <ele>58.4</ele>
        <time>2023-08-06T17:55:44Z</time>
      </trkpt>
      <trkpt lat="49.59866" lon="3.40456">
        <ele>58.6</ele>
        <time>2023-08-06T17:55:45Z</time>
      </trkpt>
      <trkpt lat="49.59864" lon="3.40457">
        <ele>58.8</ele>
        <time>2023-08-06T17:55:46Z</time>
      </trkpt>
      <trkpt lat="49.59863" lon="3.40458">
        <ele>58.8</ele>
        <time>2023-08-06T17:55:47Z</time>
      </trkpt>
      <trkpt lat="49.59861" lon="3.4046">
        <ele>59</ele>
        <time>2023-08-06T17:55:48Z</time>
      </trkpt>
      <trkpt lat="49.5986" lon="3.40462">
        <ele>59</ele>
        <time>2023-08-06T17:55:49Z</time>
      </trkpt>
      <trkpt lat="49.5986" lon="3.40464">
        <ele>59.2</ele>
        <time>2023-08-06T17:55:50Z</time>
      </trkpt>
      <trkpt lat="49.59859" lon="3.40467">
        <ele>59.6</ele>
        <time>2023-08-06T17:55:51Z</time>
      </trkpt>
      <trkpt lat="49.59858" lon="3.40469">
        <ele>59.8</ele>
        <time>2023-08-06T17:55:52Z</time>
      </trkpt>
      <trkpt lat="49.59858" lon="3.40472">
        <ele>60</ele>
        <time>2023-08-06T17:55:53Z</time>
      </trkpt>
      <trkpt lat="49.59857" lon="3.40475">
        <ele>60.2</ele>
        <time>2023-08-06T17:55:54Z</time>
      </trkpt>
      <trkpt lat="49.59856" lon="3.40477">
        <ele>60.2</ele>
        <time>2023-08-06T17:55:55Z</time>
      </trkpt>
      <trkpt lat="49.59856" lon="3.4048">
        <ele>60.4</ele>
        <time>2023-08-06T17:55:56Z</time>
      </trkpt>
      <trkpt lat="49.59855" lon="3.40482">
        <ele>60.2</ele>
        <time>2023-08-06T17:55:57Z</time>
      </trkpt>
      <trkpt lat="49.59854" lon="3.40485">
        <ele>60.4</ele>
        <time>2023-08-06T17:55:58Z</time>
      </trkpt>
      <trkpt lat="49.59853" lon="3.40488">
        <ele>60.6</ele>
        <time>2023-08-06T17:55:59Z</time>
      </trkpt>
      <trkpt lat="49.59852" lon="3.4049">
        <ele>60.8</ele>
        <time>2023-08-06T17:56:00Z</time>
      </trkpt>
      <trkpt lat="49.59852" lon="3.40492">
        <ele>60.6</ele>
        <time>2023-08-06T17:56:01Z</time>
      </trkpt>
      <trkpt lat="49.59851" lon="3.40494">
        <ele>60.8</ele>
        <time>2023-08-06T17:56:02Z</time>
      </trkpt>
      <trkpt lat="49.59849" lon="3.40497">
        <ele>60.8</ele>
        <time>2023-08-06T17:56:03Z</time>
      </trkpt>
      <trkpt lat="49.59849" lon="3.40499">
        <ele>61</ele>
        <time>2023-08-06T17:56:04Z</time>
      </trkpt>
      <trkpt lat="49.59848" lon="3.40501">
        <ele>61.4</ele>
        <time>2023-08-06T17:56:05Z</time>
      </trkpt>
      <trkpt lat="49.59847" lon="3.40504">
        <ele>61.4</ele>
        <time>2023-08-06T17:56:06Z</time>
      </trkpt>
      <trkpt lat="49.59848" lon="3.40507">
        <ele>61.8</ele>
        <time>2023-08-06T17:56:07Z</time>
      </trkpt>
      <trkpt lat="49.59847" lon="3.40509">
        <ele>62</ele>
        <time>2023-08-06T17:56:08Z</time>
      </trkpt>
      <trkpt lat="49.59847" lon="3.40509">
        <ele>62</ele>
        <time>2023-08-06T17:56:09Z</time>
      </trkpt>
      <trkpt lat="49.59848" lon="3.40514">
        <ele>62</ele>
        <time>2023-08-06T17:56:10Z</time>
      </trkpt>
      <trkpt lat="49.59848" lon="3.40516">
        <ele>62.2</ele>
        <time>2023-08-06T17:56:11Z</time>
      </trkpt>
      <trkpt lat="49.59847" lon="3.40518">
        <ele>62.2</ele>
        <time>2023-08-06T17:56:12Z</time>
      </trkpt>
      <trkpt lat="49.59847" lon="3.4052">
        <ele>62.4</ele>
        <time>2023-08-06T17:56:13Z</time>
      </trkpt>
      <trkpt lat="49.59846" lon="3.40522">
        <ele>62.4</ele>
        <time>2023-08-06T17:56:14Z</time>
      </trkpt>
      <trkpt lat="49.59845" lon="3.40524">
        <ele>62.6</ele>
        <time>2023-08-06T17:56:15Z</time>
      </trkpt>
      <trkpt lat="49.59845" lon="3.40527">
        <ele>62.6</ele>
        <time>2023-08-06T17:56:16Z</time>
      </trkpt>
      <trkpt lat="49.59844" lon="3.40529">
        <ele>62.6</ele>
        <time>2023-08-06T17:56:17Z</time>
      </trkpt>
      <trkpt lat="49.59844" lon="3.40532">
        <ele>62.6</ele>
        <time>2023-08-06T17:56:18Z</time>
      </trkpt>
      <trkpt lat="49.59844" lon="3.40532">
        <ele>62.6</ele>
        <time>2023-08-06T17:56:19Z</time>
      </trkpt>
      <trkpt lat="49.59843" lon="3.40536">
        <ele>62.6</ele>
        <time>2023-08-06T17:56:20Z</time>
      </trkpt>
      <trkpt lat="49.59842" lon="3.40539">
        <ele>62.8</ele>
        <time>2023-08-06T17:56:21Z</time>
      </trkpt>
      <trkpt lat="49.59842" lon="3.40541">
        <ele>62.8</ele>
        <time>2023-08-06T17:56:22Z</time>
      </trkpt>
      <trkpt lat="49.59841" lon="3.40543">
        <ele>63</ele>
        <time>2023-08-06T17:56:23Z</time>
      </trkpt>
      <trkpt lat="49.59841" lon="3.40545">
        <ele>63</ele>
        <time>2023-08-06T17:56:24Z</time>
      </trkpt>
      <trkpt lat="49.59841" lon="3.40548">
        <ele>63.2</ele>
        <time>2023-08-06T17:56:25Z</time>
      </trkpt>
      <trkpt lat="49.59841" lon="3.4055">
        <ele>63.4</ele>
        <time>2023-08-06T17:56:26Z</time>
      </trkpt>
      <trkpt lat="49.5984" lon="3.40552">
        <ele>63.6</ele>
        <time>2023-08-06T17:56:27Z</time>
      </trkpt>
      <trkpt lat="49.5984" lon="3.40554">
        <ele>63.8</ele>
        <time>2023-08-06T17:56:28Z</time>
      </trkpt>
      <trkpt lat="49.5984" lon="3.40556">
        <ele>63.8</ele>
        <time>2023-08-06T17:56:29Z</time>
      </trkpt>
      <trkpt lat="49.59839" lon="3.40558">
        <ele>64</ele>
        <time>2023-08-06T17:56:30Z</time>
      </trkpt>
      <trkpt lat="49.59839" lon="3.40559">
        <ele>64.2</ele>
        <time>2023-08-06T17:56:31Z</time>
      </trkpt>
      <trkpt lat="49.59838" lon="3.40561">
        <ele>64.4</ele>
        <time>2023-08-06T17:56:32Z</time>
      </trkpt>
      <trkpt lat="49.5984" lon="3.40564">
        <ele>64.4</ele>
        <time>2023-08-06T17:56:33Z</time>
      </trkpt>
      <trkpt lat="49.5984" lon="3.40567">
        <ele>64.4</ele>
        <time>2023-08-06T17:56:34Z</time>
      </trkpt>
      <trkpt lat="49.5984" lon="3.40568">
        <ele>64.6</ele>
        <time>2023-08-06T17:56:35Z</time>
      </trkpt>
      <trkpt lat="49.5984" lon="3.4057">
        <ele>64.6</ele>
        <time>2023-08-06T17:56:36Z</time>
      </trkpt>
      <trkpt lat="49.59839" lon="3.40574">
        <ele>64.8</ele>
        <time>2023-08-06T17:56:37Z</time>
      </trkpt>
      <trkpt lat="49.59837" lon="3.40577">
        <ele>64.8</ele>
        <time>2023-08-06T17:56:38Z</time>
      </trkpt>
      <trkpt lat="49.59835" lon="3.4058">
        <ele>65.2</ele>
        <time>2023-08-06T17:56:39Z</time>
      </trkpt>
      <trkpt lat="49.59835" lon="3.40581">
        <ele>65.4</ele>
        <time>2023-08-06T17:56:40Z</time>
      </trkpt>
      <trkpt lat="49.59834" lon="3.40584">
        <ele>65.4</ele>
        <time>2023-08-06T17:56:41Z</time>
      </trkpt>
      <trkpt lat="49.59834" lon="3.40586">
        <ele>65.6</ele>
        <time>2023-08-06T17:56:42Z</time>
      </trkpt>
      <trkpt lat="49.59832" lon="3.40588">
        <ele>65.6</ele>
        <time>2023-08-06T17:56:43Z</time>
      </trkpt>
      <trkpt lat="49.59832" lon="3.4059">
        <ele>65.8</ele>
        <time>2023-08-06T17:56:44Z</time>
      </trkpt>
      <trkpt lat="49.59832" lon="3.40592">
        <ele>66</ele>
        <time>2023-08-06T17:56:45Z</time>
      </trkpt>
      <trkpt lat="49.59831" lon="3.40595">
        <ele>66.2</ele>
        <time>2023-08-06T17:56:46Z</time>
      </trkpt>
      <trkpt lat="49.5983" lon="3.40598">
        <ele>66.2</ele>
        <time>2023-08-06T17:56:47Z</time>
      </trkpt>
      <trkpt lat="49.5983" lon="3.406">
        <ele>66.4</ele>
        <time>2023-08-06T17:56:48Z</time>
      </trkpt>
      <trkpt lat="49.5983" lon="3.40602">
        <ele>66.4</ele>
        <time>2023-08-06T17:56:49Z</time>
      </trkpt>
      <trkpt lat="49.59829" lon="3.40604">
        <ele>66.6</ele>
        <time>2023-08-06T17:56:50Z</time>
      </trkpt>
      <trkpt lat="49.59829" lon="3.40606">
        <ele>66.8</ele>
        <time>2023-08-06T17:56:51Z</time>
      </trkpt>
      <trkpt lat="49.59829" lon="3.40608">
        <ele>66.8</ele>
        <time>2023-08-06T17:56:52Z</time>
      </trkpt>
      <trkpt lat="49.59828" lon="3.4061">
        <ele>67</ele>
        <time>2023-08-06T17:56:53Z</time>
      </trkpt>
      <trkpt lat="49.59828" lon="3.40612">
        <ele>67.2</ele>
        <time>2023-08-06T17:56:54Z</time>
      </trkpt>
      <trkpt lat="49.59828" lon="3.40612">
        <ele>67.4</ele>
        <time>2023-08-06T17:56:55Z</time>
      </trkpt>
      <trkpt lat="49.59827" lon="3.40615">
        <ele>67.6</ele>
        <time>2023-08-06T17:56:56Z</time>
      </trkpt>
      <trkpt lat="49.59827" lon="3.40618">
        <ele>67.6</ele>
        <time>2023-08-06T17:56:57Z</time>
      </trkpt>
      <trkpt lat="49.59827" lon="3.40619">
        <ele>67.8</ele>
        <time>2023-08-06T17:56:58Z</time>
      </trkpt>
      <trkpt lat="49.59827" lon="3.40621">
        <ele>67.8</ele>
        <time>2023-08-06T17:56:59Z</time>
      </trkpt>
      <trkpt lat="49.59827" lon="3.40623">
        <ele>67.8</ele>
        <time>2023-08-06T17:57:00Z</time>
      </trkpt>
      <trkpt lat="49.59827" lon="3.40625">
        <ele>67.8</ele>
        <time>2023-08-06T17:57:01Z</time>
      </trkpt>
      <trkpt lat="49.59827" lon="3.40626">
        <ele>67.8</ele>
        <time>2023-08-06T17:57:02Z</time>
      </trkpt>
      <trkpt lat="49.59827" lon="3.40628">
        <ele>67.8</ele>
        <time>2023-08-06T17:57:03Z</time>
      </trkpt>
      <trkpt lat="49.59827" lon="3.40629">
        <ele>67.8</ele>
        <time>2023-08-06T17:57:04Z</time>
      </trkpt>
      <trkpt lat="49.59826" lon="3.40631">
        <ele>67.8</ele>
        <time>2023-08-06T17:57:05Z</time>
      </trkpt>
      <trkpt lat="49.59825" lon="3.40633">
        <ele>67.8</ele>
        <time>2023-08-06T17:57:06Z</time>
      </trkpt>
      <trkpt lat="49.59824" lon="3.40637">
        <ele>67.8</ele>
        <time>2023-08-06T17:57:07Z</time>
      </trkpt>
      <trkpt lat="49.59823" lon="3.40641">
        <ele>67.8</ele>
        <time>2023-08-06T17:57:08Z</time>
      </trkpt>
      <trkpt lat="49.59822" lon="3.40645">
        <ele>67.8</ele>
        <time>2023-08-06T17:57:09Z</time>
      </trkpt>
      <trkpt lat="49.59819" lon="3.40659">
        <ele>67.8</ele>
        <time>2023-08-06T17:57:13Z</time>
      </trkpt>
      <trkpt lat="49.59815" lon="3.40672">
        <ele>67.6</ele>
        <time>2023-08-06T17:57:15Z</time>
      </trkpt>
      <trkpt lat="49.59811" lon="3.4068">
        <ele>67.4</ele>
        <time>2023-08-06T17:57:16Z</time>
      </trkpt>
      <trkpt lat="49.59809" lon="3.40687">
        <ele>67.2</ele>
        <time>2023-08-06T17:57:17Z</time>
      </trkpt>
      <trkpt lat="49.59805" lon="3.40696">
        <ele>66</ele>
        <time>2023-08-06T17:57:18Z</time>
      </trkpt>
      <trkpt lat="49.59803" lon="3.40706">
        <ele>65</ele>
        <time>2023-08-06T17:57:19Z</time>
      </trkpt>
      <trkpt lat="49.598" lon="3.40715">
        <ele>63.6</ele>
        <time>2023-08-06T17:57:21Z</time>
      </trkpt>
      <trkpt lat="49.59788" lon="3.40733">
        <ele>63.2</ele>
        <time>2023-08-06T17:57:22Z</time>
      </trkpt>
      <trkpt lat="49.59783" lon="3.40743">
        <ele>62.8</ele>
        <time>2023-08-06T17:57:23Z</time>
      </trkpt>
      <trkpt lat="49.59779" lon="3.40752">
        <ele>62.6</ele>
        <time>2023-08-06T17:57:24Z</time>
      </trkpt>
      <trkpt lat="49.59778" lon="3.40755">
        <ele>62</ele>
        <time>2023-08-06T17:57:25Z</time>
      </trkpt>
      <trkpt lat="49.59778" lon="3.40758">
        <ele>62</ele>
        <time>2023-08-06T17:57:26Z</time>
      </trkpt>
      <trkpt lat="49.59778" lon="3.4076">
        <ele>61.8</ele>
        <time>2023-08-06T17:57:27Z</time>
      </trkpt>
      <trkpt lat="49.59777" lon="3.40761">
        <ele>61.8</ele>
        <time>2023-08-06T17:57:28Z</time>
      </trkpt>
      <trkpt lat="49.59777" lon="3.40761">
        <ele>61.8</ele>
        <time>2023-08-06T17:57:29Z</time>
      </trkpt>
      <trkpt lat="49.59777" lon="3.40761">
        <ele>61.8</ele>
        <time>2023-08-06T17:57:30Z</time>
      </trkpt>
      <trkpt lat="49.59779" lon="3.40764">
        <ele>61.8</ele>
        <time>2023-08-06T17:57:31Z</time>
      </trkpt>
      <trkpt lat="49.5978" lon="3.40768">
        <ele>61.8</ele>
        <time>2023-08-06T17:57:32Z</time>
      </trkpt>
      <trkpt lat="49.59779" lon="3.40771">
        <ele>61.8</ele>
        <time>2023-08-06T17:57:33Z</time>
      </trkpt>
      <trkpt lat="49.59777" lon="3.40774">
        <ele>62.2</ele>
        <time>2023-08-06T17:57:34Z</time>
      </trkpt>
      <trkpt lat="49.59776" lon="3.40777">
        <ele>62.4</ele>
        <time>2023-08-06T17:57:35Z</time>
      </trkpt>
      <trkpt lat="49.59776" lon="3.4078">
        <ele>62.6</ele>
        <time>2023-08-06T17:57:36Z</time>
      </trkpt>
      <trkpt lat="49.59776" lon="3.40783">
        <ele>62.8</ele>
        <time>2023-08-06T17:57:37Z</time>
      </trkpt>
      <trkpt lat="49.59775" lon="3.40786">
        <ele>63</ele>
        <time>2023-08-06T17:57:38Z</time>
      </trkpt>
      <trkpt lat="49.59774" lon="3.40791">
        <ele>63</ele>
        <time>2023-08-06T17:57:39Z</time>
      </trkpt>
      <trkpt lat="49.59773" lon="3.40799">
        <ele>63.2</ele>
        <time>2023-08-06T17:57:41Z</time>
      </trkpt>
      <trkpt lat="49.59771" lon="3.40807">
        <ele>63.4</ele>
        <time>2023-08-06T17:57:43Z</time>
      </trkpt>
      <trkpt lat="49.59768" lon="3.40819">
        <ele>63.6</ele>
        <time>2023-08-06T17:57:46Z</time>
      </trkpt>
      <trkpt lat="49.59767" lon="3.40824">
        <ele>63.6</ele>
        <time>2023-08-06T17:57:47Z</time>
      </trkpt>
      <trkpt lat="49.59762" lon="3.40837">
        <ele>63.6</ele>
        <time>2023-08-06T17:57:49Z</time>
      </trkpt>
      <trkpt lat="49.5976" lon="3.40845">
        <ele>63.4</ele>
        <time>2023-08-06T17:57:50Z</time>
      </trkpt>
      <trkpt lat="49.59761" lon="3.4085">
        <ele>63.4</ele>
        <time>2023-08-06T17:57:51Z</time>
      </trkpt>
      <trkpt lat="49.59762" lon="3.40856">
        <ele>63.2</ele>
        <time>2023-08-06T17:57:52Z</time>
      </trkpt>
      <trkpt lat="49.59763" lon="3.40865">
        <ele>63</ele>
        <time>2023-08-06T17:57:53Z</time>
      </trkpt>
      <trkpt lat="49.59763" lon="3.40871">
        <ele>62.8</ele>
        <time>2023-08-06T17:57:54Z</time>
      </trkpt>
      <trkpt lat="49.59762" lon="3.40889">
        <ele>62.4</ele>
        <time>2023-08-06T17:57:57Z</time>
      </trkpt>
      <trkpt lat="49.59763" lon="3.40893">
        <ele>62.2</ele>
        <time>2023-08-06T17:57:58Z</time>
      </trkpt>
      <trkpt lat="49.59762" lon="3.40897">
        <ele>62</ele>
        <time>2023-08-06T17:57:59Z</time>
      </trkpt>
      <trkpt lat="49.59762" lon="3.40901">
        <ele>61.2</ele>
        <time>2023-08-06T17:58:00Z</time>
      </trkpt>
      <trkpt lat="49.59762" lon="3.40901">
        <ele>61</ele>
        <time>2023-08-06T17:58:01Z</time>
      </trkpt>
      <trkpt lat="49.59761" lon="3.40905">
        <ele>60.4</ele>
        <time>2023-08-06T17:58:02Z</time>
      </trkpt>
      <trkpt lat="49.59761" lon="3.40907">
        <ele>60.2</ele>
        <time>2023-08-06T17:58:03Z</time>
      </trkpt>
      <trkpt lat="49.59761" lon="3.4091">
        <ele>60</ele>
        <time>2023-08-06T17:58:04Z</time>
      </trkpt>
      <trkpt lat="49.59758" lon="3.40927">
        <ele>59.8</ele>
        <time>2023-08-06T17:58:09Z</time>
      </trkpt>
      <trkpt lat="49.59758" lon="3.4093">
        <ele>59.8</ele>
        <time>2023-08-06T17:58:10Z</time>
      </trkpt>
      <trkpt lat="49.59757" lon="3.40932">
        <ele>59.8</ele>
        <time>2023-08-06T17:58:11Z</time>
      </trkpt>
      <trkpt lat="49.59755" lon="3.40934">
        <ele>59.8</ele>
        <time>2023-08-06T17:58:12Z</time>
      </trkpt>
      <trkpt lat="49.5975" lon="3.40937">
        <ele>59.8</ele>
        <time>2023-08-06T17:58:14Z</time>
      </trkpt>
      <trkpt lat="49.59749" lon="3.40939">
        <ele>59.8</ele>
        <time>2023-08-06T17:58:15Z</time>
      </trkpt>
      <trkpt lat="49.59748" lon="3.40939">
        <ele>59.8</ele>
        <time>2023-08-06T17:58:16Z</time>
      </trkpt>
      <trkpt lat="49.59743" lon="3.40943">
        <ele>60</ele>
        <time>2023-08-06T17:58:19Z</time>
      </trkpt>
      <trkpt lat="49.59742" lon="3.40944">
        <ele>60.2</ele>
        <time>2023-08-06T17:58:20Z</time>
      </trkpt>
      <trkpt lat="49.59736" lon="3.40945">
        <ele>60.8</ele>
        <time>2023-08-06T17:58:24Z</time>
      </trkpt>
      <trkpt lat="49.59734" lon="3.40946">
        <ele>61</ele>
        <time>2023-08-06T17:58:25Z</time>
      </trkpt>
      <trkpt lat="49.59731" lon="3.40947">
        <ele>61.2</ele>
        <time>2023-08-06T17:58:27Z</time>
      </trkpt>
      <trkpt lat="49.59731" lon="3.40947">
        <ele>61.2</ele>
        <time>2023-08-06T17:58:28Z</time>
      </trkpt>
      <trkpt lat="49.59729" lon="3.4095">
        <ele>61.2</ele>
        <time>2023-08-06T17:58:29Z</time>
      </trkpt>
      <trkpt lat="49.59727" lon="3.40951">
        <ele>61.4</ele>
        <time>2023-08-06T17:58:30Z</time>
      </trkpt>
      <trkpt lat="49.59725" lon="3.40952">
        <ele>61.8</ele>
        <time>2023-08-06T17:58:32Z</time>
      </trkpt>
      <trkpt lat="49.59725" lon="3.40953">
        <ele>61.8</ele>
        <time>2023-08-06T17:58:33Z</time>
      </trkpt>
      <trkpt lat="49.59724" lon="3.40954">
        <ele>62</ele>
        <time>2023-08-06T17:58:34Z</time>
      </trkpt>
      <trkpt lat="49.59722" lon="3.40954">
        <ele>62</ele>
        <time>2023-08-06T17:58:36Z</time>
      </trkpt>
      <trkpt lat="49.59721" lon="3.40956">
        <ele>62.2</ele>
        <time>2023-08-06T17:58:37Z</time>
      </trkpt>
      <trkpt lat="49.59717" lon="3.40958">
        <ele>62.2</ele>
        <time>2023-08-06T17:58:39Z</time>
      </trkpt>
      <trkpt lat="49.59716" lon="3.4096">
        <ele>62.4</ele>
        <time>2023-08-06T17:58:40Z</time>
      </trkpt>
      <trkpt lat="49.59715" lon="3.40961">
        <ele>62.6</ele>
        <time>2023-08-06T17:58:41Z</time>
      </trkpt>
      <trkpt lat="49.59714" lon="3.40962">
        <ele>62.6</ele>
        <time>2023-08-06T17:58:42Z</time>
      </trkpt>
      <trkpt lat="49.59714" lon="3.40964">
        <ele>62.8</ele>
        <time>2023-08-06T17:58:43Z</time>
      </trkpt>
      <trkpt lat="49.59713" lon="3.40966">
        <ele>62.8</ele>
        <time>2023-08-06T17:58:44Z</time>
      </trkpt>
      <trkpt lat="49.59713" lon="3.40967">
        <ele>63</ele>
        <time>2023-08-06T17:58:45Z</time>
      </trkpt>
      <trkpt lat="49.59713" lon="3.40968">
        <ele>63.2</ele>
        <time>2023-08-06T17:58:46Z</time>
      </trkpt>
      <trkpt lat="49.59713" lon="3.40968">
        <ele>63.4</ele>
        <time>2023-08-06T17:58:47Z</time>
      </trkpt>
      <trkpt lat="49.59712" lon="3.40972">
        <ele>63.6</ele>
        <time>2023-08-06T17:58:49Z</time>
      </trkpt>
      <trkpt lat="49.5971" lon="3.40973">
        <ele>63.8</ele>
        <time>2023-08-06T17:58:50Z</time>
      </trkpt>
      <trkpt lat="49.59709" lon="3.40974">
        <ele>63.8</ele>
        <time>2023-08-06T17:58:51Z</time>
      </trkpt>
      <trkpt lat="49.59708" lon="3.40976">
        <ele>64</ele>
        <time>2023-08-06T17:58:52Z</time>
      </trkpt>
      <trkpt lat="49.59706" lon="3.40978">
        <ele>64</ele>
        <time>2023-08-06T17:58:53Z</time>
      </trkpt>
      <trkpt lat="49.59705" lon="3.4098">
        <ele>64.2</ele>
        <time>2023-08-06T17:58:54Z</time>
      </trkpt>
      <trkpt lat="49.59704" lon="3.40981">
        <ele>64.2</ele>
        <time>2023-08-06T17:58:55Z</time>
      </trkpt>
      <trkpt lat="49.59702" lon="3.40983">
        <ele>64.6</ele>
        <time>2023-08-06T17:58:56Z</time>
      </trkpt>
      <trkpt lat="49.59701" lon="3.40984">
        <ele>64.8</ele>
        <time>2023-08-06T17:58:57Z</time>
      </trkpt>
      <trkpt lat="49.597" lon="3.40985">
        <ele>65</ele>
        <time>2023-08-06T17:58:58Z</time>
      </trkpt>
      <trkpt lat="49.59699" lon="3.40986">
        <ele>65.2</ele>
        <time>2023-08-06T17:58:59Z</time>
      </trkpt>
      <trkpt lat="49.59699" lon="3.40986">
        <ele>65.2</ele>
        <time>2023-08-06T17:59:00Z</time>
      </trkpt>
      <trkpt lat="49.59698" lon="3.4099">
        <ele>65.4</ele>
        <time>2023-08-06T17:59:01Z</time>
      </trkpt>
      <trkpt lat="49.59697" lon="3.40991">
        <ele>65.4</ele>
        <time>2023-08-06T17:59:02Z</time>
      </trkpt>
      <trkpt lat="49.59696" lon="3.40993">
        <ele>65.6</ele>
        <time>2023-08-06T17:59:03Z</time>
      </trkpt>
      <trkpt lat="49.59695" lon="3.40995">
        <ele>65.8</ele>
        <time>2023-08-06T17:59:04Z</time>
      </trkpt>
      <trkpt lat="49.59694" lon="3.40996">
        <ele>65.8</ele>
        <time>2023-08-06T17:59:05Z</time>
      </trkpt>
      <trkpt lat="49.59693" lon="3.40999">
        <ele>66</ele>
        <time>2023-08-06T17:59:06Z</time>
      </trkpt>
      <trkpt lat="49.59691" lon="3.41">
        <ele>66</ele>
        <time>2023-08-06T17:59:07Z</time>
      </trkpt>
      <trkpt lat="49.5969" lon="3.41">
        <ele>66.2</ele>
        <time>2023-08-06T17:59:08Z</time>
      </trkpt>
      <trkpt lat="49.59689" lon="3.41001">
        <ele>66.2</ele>
        <time>2023-08-06T17:59:09Z</time>
      </trkpt>
      <trkpt lat="49.59689" lon="3.41003">
        <ele>66.4</ele>
        <time>2023-08-06T17:59:10Z</time>
      </trkpt>
      <trkpt lat="49.59688" lon="3.41004">
        <ele>66.4</ele>
        <time>2023-08-06T17:59:11Z</time>
      </trkpt>
      <trkpt lat="49.59688" lon="3.41006">
        <ele>66.6</ele>
        <time>2023-08-06T17:59:12Z</time>
      </trkpt>
      <trkpt lat="49.59687" lon="3.41007">
        <ele>67</ele>
        <time>2023-08-06T17:59:13Z</time>
      </trkpt>
      <trkpt lat="49.59687" lon="3.4101">
        <ele>67</ele>
        <time>2023-08-06T17:59:14Z</time>
      </trkpt>
      <trkpt lat="49.59686" lon="3.41012">
        <ele>67.2</ele>
        <time>2023-08-06T17:59:15Z</time>
      </trkpt>
      <trkpt lat="49.59684" lon="3.41014">
        <ele>67.2</ele>
        <time>2023-08-06T17:59:16Z</time>
      </trkpt>
      <trkpt lat="49.59684" lon="3.41014">
        <ele>67.4</ele>
        <time>2023-08-06T17:59:17Z</time>
      </trkpt>
      <trkpt lat="49.59681" lon="3.41018">
        <ele>67.6</ele>
        <time>2023-08-06T17:59:18Z</time>
      </trkpt>
      <trkpt lat="49.5968" lon="3.4102">
        <ele>67.4</ele>
        <time>2023-08-06T17:59:19Z</time>
      </trkpt>
      <trkpt lat="49.59679" lon="3.41021">
        <ele>67.8</ele>
        <time>2023-08-06T17:59:20Z</time>
      </trkpt>
      <trkpt lat="49.59678" lon="3.41023">
        <ele>67.8</ele>
        <time>2023-08-06T17:59:21Z</time>
      </trkpt>
      <trkpt lat="49.59676" lon="3.41025">
        <ele>68</ele>
        <time>2023-08-06T17:59:22Z</time>
      </trkpt>
      <trkpt lat="49.59675" lon="3.41026">
        <ele>68</ele>
        <time>2023-08-06T17:59:23Z</time>
      </trkpt>
      <trkpt lat="49.59675" lon="3.41027">
        <ele>68.2</ele>
        <time>2023-08-06T17:59:24Z</time>
      </trkpt>
      <trkpt lat="49.59674" lon="3.41029">
        <ele>68.2</ele>
        <time>2023-08-06T17:59:25Z</time>
      </trkpt>
      <trkpt lat="49.59674" lon="3.41031">
        <ele>68.4</ele>
        <time>2023-08-06T17:59:26Z</time>
      </trkpt>
      <trkpt lat="49.59673" lon="3.41032">
        <ele>68.4</ele>
        <time>2023-08-06T17:59:27Z</time>
      </trkpt>
      <trkpt lat="49.59673" lon="3.41034">
        <ele>68.8</ele>
        <time>2023-08-06T17:59:28Z</time>
      </trkpt>
      <trkpt lat="49.59672" lon="3.41036">
        <ele>69</ele>
        <time>2023-08-06T17:59:29Z</time>
      </trkpt>
      <trkpt lat="49.59671" lon="3.41038">
        <ele>69.2</ele>
        <time>2023-08-06T17:59:30Z</time>
      </trkpt>
      <trkpt lat="49.59671" lon="3.41038">
        <ele>69.6</ele>
        <time>2023-08-06T17:59:31Z</time>
      </trkpt>
      <trkpt lat="49.59669" lon="3.41043">
        <ele>69.6</ele>
        <time>2023-08-06T17:59:32Z</time>
      </trkpt>
      <trkpt lat="49.59668" lon="3.41045">
        <ele>69.8</ele>
        <time>2023-08-06T17:59:33Z</time>
      </trkpt>
      <trkpt lat="49.59667" lon="3.41046">
        <ele>70</ele>
        <time>2023-08-06T17:59:34Z</time>
      </trkpt>
      <trkpt lat="49.59666" lon="3.41048">
        <ele>70.2</ele>
        <time>2023-08-06T17:59:35Z</time>
      </trkpt>
      <trkpt lat="49.59665" lon="3.4105">
        <ele>70.4</ele>
        <time>2023-08-06T17:59:36Z</time>
      </trkpt>
      <trkpt lat="49.59666" lon="3.41052">
        <ele>70.4</ele>
        <time>2023-08-06T17:59:37Z</time>
      </trkpt>
      <trkpt lat="49.59666" lon="3.41054">
        <ele>70.6</ele>
        <time>2023-08-06T17:59:38Z</time>
      </trkpt>
      <trkpt lat="49.59666" lon="3.41056">
        <ele>70.8</ele>
        <time>2023-08-06T17:59:39Z</time>
      </trkpt>
      <trkpt lat="49.59666" lon="3.41058">
        <ele>71</ele>
        <time>2023-08-06T17:59:40Z</time>
      </trkpt>
      <trkpt lat="49.59666" lon="3.4106">
        <ele>71</ele>
        <time>2023-08-06T17:59:41Z</time>
      </trkpt>
      <trkpt lat="49.59666" lon="3.4106">
        <ele>71.2</ele>
        <time>2023-08-06T17:59:42Z</time>
      </trkpt>
      <trkpt lat="49.59665" lon="3.41063">
        <ele>71.2</ele>
        <time>2023-08-06T17:59:43Z</time>
      </trkpt>
      <trkpt lat="49.59663" lon="3.41064">
        <ele>71.4</ele>
        <time>2023-08-06T17:59:44Z</time>
      </trkpt>
      <trkpt lat="49.59663" lon="3.41065">
        <ele>71.6</ele>
        <time>2023-08-06T17:59:45Z</time>
      </trkpt>
      <trkpt lat="49.59662" lon="3.41066">
        <ele>71.8</ele>
        <time>2023-08-06T17:59:46Z</time>
      </trkpt>
      <trkpt lat="49.59662" lon="3.41069">
        <ele>71.8</ele>
        <time>2023-08-06T17:59:47Z</time>
      </trkpt>
      <trkpt lat="49.59662" lon="3.41072">
        <ele>72</ele>
        <time>2023-08-06T17:59:48Z</time>
      </trkpt>
      <trkpt lat="49.5966" lon="3.41074">
        <ele>72.2</ele>
        <time>2023-08-06T17:59:49Z</time>
      </trkpt>
      <trkpt lat="49.5966" lon="3.41075">
        <ele>72.2</ele>
        <time>2023-08-06T17:59:50Z</time>
      </trkpt>
      <trkpt lat="49.59659" lon="3.41076">
        <ele>72.4</ele>
        <time>2023-08-06T17:59:51Z</time>
      </trkpt>
      <trkpt lat="49.59659" lon="3.41078">
        <ele>72.6</ele>
        <time>2023-08-06T17:59:52Z</time>
      </trkpt>
      <trkpt lat="49.59658" lon="3.4108">
        <ele>72.8</ele>
        <time>2023-08-06T17:59:53Z</time>
      </trkpt>
      <trkpt lat="49.59656" lon="3.41082">
        <ele>73.2</ele>
        <time>2023-08-06T17:59:54Z</time>
      </trkpt>
      <trkpt lat="49.59655" lon="3.41084">
        <ele>73.2</ele>
        <time>2023-08-06T17:59:55Z</time>
      </trkpt>
      <trkpt lat="49.59653" lon="3.41085">
        <ele>73.4</ele>
        <time>2023-08-06T17:59:56Z</time>
      </trkpt>
      <trkpt lat="49.59651" lon="3.41087">
        <ele>73.6</ele>
        <time>2023-08-06T17:59:57Z</time>
      </trkpt>
      <trkpt lat="49.5965" lon="3.41089">
        <ele>74</ele>
        <time>2023-08-06T17:59:58Z</time>
      </trkpt>
      <trkpt lat="49.59647" lon="3.41093">
        <ele>74</ele>
        <time>2023-08-06T17:59:59Z</time>
      </trkpt>
      <trkpt lat="49.59646" lon="3.41095">
        <ele>74.4</ele>
        <time>2023-08-06T18:00:00Z</time>
      </trkpt>
      <trkpt lat="49.59645" lon="3.41098">
        <ele>74.6</ele>
        <time>2023-08-06T18:00:01Z</time>
      </trkpt>
      <trkpt lat="49.59644" lon="3.411">
        <ele>74.8</ele>
        <time>2023-08-06T18:00:02Z</time>
      </trkpt>
      <trkpt lat="49.59644" lon="3.41102">
        <ele>75</ele>
        <time>2023-08-06T18:00:03Z</time>
      </trkpt>
      <trkpt lat="49.59643" lon="3.41102">
        <ele>75</ele>
        <time>2023-08-06T18:00:04Z</time>
      </trkpt>
      <trkpt lat="49.59641" lon="3.41103">
        <ele>75.2</ele>
        <time>2023-08-06T18:00:05Z</time>
      </trkpt>
      <trkpt lat="49.5964" lon="3.41104">
        <ele>75.2</ele>
        <time>2023-08-06T18:00:06Z</time>
      </trkpt>
      <trkpt lat="49.59639" lon="3.41106">
        <ele>75.4</ele>
        <time>2023-08-06T18:00:07Z</time>
      </trkpt>
      <trkpt lat="49.59638" lon="3.41107">
        <ele>75.6</ele>
        <time>2023-08-06T18:00:08Z</time>
      </trkpt>
      <trkpt lat="49.59637" lon="3.41108">
        <ele>75.8</ele>
        <time>2023-08-06T18:00:09Z</time>
      </trkpt>
      <trkpt lat="49.59636" lon="3.41109">
        <ele>76</ele>
        <time>2023-08-06T18:00:10Z</time>
      </trkpt>
      <trkpt lat="49.59635" lon="3.4111">
        <ele>76</ele>
        <time>2023-08-06T18:00:11Z</time>
      </trkpt>
      <trkpt lat="49.59634" lon="3.41111">
        <ele>76.4</ele>
        <time>2023-08-06T18:00:12Z</time>
      </trkpt>
      <trkpt lat="49.59634" lon="3.41112">
        <ele>76.4</ele>
        <time>2023-08-06T18:00:13Z</time>
      </trkpt>
      <trkpt lat="49.59634" lon="3.41114">
        <ele>76.6</ele>
        <time>2023-08-06T18:00:14Z</time>
      </trkpt>
      <trkpt lat="49.59634" lon="3.41114">
        <ele>76.6</ele>
        <time>2023-08-06T18:00:15Z</time>
      </trkpt>
      <trkpt lat="49.59633" lon="3.41115">
        <ele>76.6</ele>
        <time>2023-08-06T18:00:16Z</time>
      </trkpt>
      <trkpt lat="49.59632" lon="3.41116">
        <ele>76.8</ele>
        <time>2023-08-06T18:00:17Z</time>
      </trkpt>
      <trkpt lat="49.59632" lon="3.41119">
        <ele>76.8</ele>
        <time>2023-08-06T18:00:18Z</time>
      </trkpt>
      <trkpt lat="49.59631" lon="3.41121">
        <ele>77</ele>
        <time>2023-08-06T18:00:19Z</time>
      </trkpt>
      <trkpt lat="49.5963" lon="3.41123">
        <ele>77</ele>
        <time>2023-08-06T18:00:20Z</time>
      </trkpt>
      <trkpt lat="49.59629" lon="3.41125">
        <ele>77.2</ele>
        <time>2023-08-06T18:00:21Z</time>
      </trkpt>
      <trkpt lat="49.59628" lon="3.41127">
        <ele>77.4</ele>
        <time>2023-08-06T18:00:22Z</time>
      </trkpt>
      <trkpt lat="49.59628" lon="3.41129">
        <ele>77.6</ele>
        <time>2023-08-06T18:00:23Z</time>
      </trkpt>
      <trkpt lat="49.59627" lon="3.41131">
        <ele>77.8</ele>
        <time>2023-08-06T18:00:24Z</time>
      </trkpt>
      <trkpt lat="49.59627" lon="3.41134">
        <ele>77.8</ele>
        <time>2023-08-06T18:00:25Z</time>
      </trkpt>
      <trkpt lat="49.59627" lon="3.41136">
        <ele>78</ele>
        <time>2023-08-06T18:00:26Z</time>
      </trkpt>
      <trkpt lat="49.59626" lon="3.41137">
        <ele>78</ele>
        <time>2023-08-06T18:00:27Z</time>
      </trkpt>
      <trkpt lat="49.59626" lon="3.41138">
        <ele>78.2</ele>
        <time>2023-08-06T18:00:28Z</time>
      </trkpt>
      <trkpt lat="49.59626" lon="3.4114">
        <ele>78.4</ele>
        <time>2023-08-06T18:00:29Z</time>
      </trkpt>
      <trkpt lat="49.59626" lon="3.41142">
        <ele>78.6</ele>
        <time>2023-08-06T18:00:30Z</time>
      </trkpt>
      <trkpt lat="49.59626" lon="3.41143">
        <ele>78.6</ele>
        <time>2023-08-06T18:00:31Z</time>
      </trkpt>
      <trkpt lat="49.59625" lon="3.41145">
        <ele>78.8</ele>
        <time>2023-08-06T18:00:32Z</time>
      </trkpt>
      <trkpt lat="49.59625" lon="3.41149">
        <ele>78.8</ele>
        <time>2023-08-06T18:00:33Z</time>
      </trkpt>
      <trkpt lat="49.59624" lon="3.41151">
        <ele>79</ele>
        <time>2023-08-06T18:00:34Z</time>
      </trkpt>
      <trkpt lat="49.59624" lon="3.41153">
        <ele>79.2</ele>
        <time>2023-08-06T18:00:35Z</time>
      </trkpt>
      <trkpt lat="49.59624" lon="3.41155">
        <ele>79.2</ele>
        <time>2023-08-06T18:00:36Z</time>
      </trkpt>
      <trkpt lat="49.59623" lon="3.41157">
        <ele>79.4</ele>
        <time>2023-08-06T18:00:37Z</time>
      </trkpt>
      <trkpt lat="49.59622" lon="3.4116">
        <ele>79.6</ele>
        <time>2023-08-06T18:00:38Z</time>
      </trkpt>
      <trkpt lat="49.59621" lon="3.41162">
        <ele>79.6</ele>
        <time>2023-08-06T18:00:39Z</time>
      </trkpt>
      <trkpt lat="49.5962" lon="3.41165">
        <ele>79.6</ele>
        <time>2023-08-06T18:00:40Z</time>
      </trkpt>
      <trkpt lat="49.59619" lon="3.41167">
        <ele>79.8</ele>
        <time>2023-08-06T18:00:41Z</time>
      </trkpt>
      <trkpt lat="49.59619" lon="3.41168">
        <ele>79.8</ele>
        <time>2023-08-06T18:00:42Z</time>
      </trkpt>
      <trkpt lat="49.59619" lon="3.41169">
        <ele>79.8</ele>
        <time>2023-08-06T18:00:43Z</time>
      </trkpt>
      <trkpt lat="49.5962" lon="3.41171">
        <ele>80</ele>
        <time>2023-08-06T18:00:44Z</time>
      </trkpt>
      <trkpt lat="49.59622" lon="3.41174">
        <ele>80.2</ele>
        <time>2023-08-06T18:00:45Z</time>
      </trkpt>
      <trkpt lat="49.59622" lon="3.41175">
        <ele>80.2</ele>
        <time>2023-08-06T18:00:46Z</time>
      </trkpt>
      <trkpt lat="49.59622" lon="3.41175">
        <ele>80.4</ele>
        <time>2023-08-06T18:00:47Z</time>
      </trkpt>
      <trkpt lat="49.59621" lon="3.41176">
        <ele>80.4</ele>
        <time>2023-08-06T18:00:48Z</time>
      </trkpt>
      <trkpt lat="49.59621" lon="3.41177">
        <ele>80.6</ele>
        <time>2023-08-06T18:00:49Z</time>
      </trkpt>
      <trkpt lat="49.5962" lon="3.41177">
        <ele>80.6</ele>
        <time>2023-08-06T18:00:50Z</time>
      </trkpt>
      <trkpt lat="49.5962" lon="3.41179">
        <ele>81</ele>
        <time>2023-08-06T18:00:51Z</time>
      </trkpt>
      <trkpt lat="49.5962" lon="3.41179">
        <ele>81</ele>
        <time>2023-08-06T18:00:52Z</time>
      </trkpt>
      <trkpt lat="49.59619" lon="3.4118">
        <ele>81.2</ele>
        <time>2023-08-06T18:00:53Z</time>
      </trkpt>
      <trkpt lat="49.59619" lon="3.41181">
        <ele>81.2</ele>
        <time>2023-08-06T18:00:54Z</time>
      </trkpt>
      <trkpt lat="49.59619" lon="3.41182">
        <ele>81.4</ele>
        <time>2023-08-06T18:00:55Z</time>
      </trkpt>
      <trkpt lat="49.59619" lon="3.41183">
        <ele>81.4</ele>
        <time>2023-08-06T18:00:56Z</time>
      </trkpt>
      <trkpt lat="49.59618" lon="3.41184">
        <ele>81.6</ele>
        <time>2023-08-06T18:00:57Z</time>
      </trkpt>
      <trkpt lat="49.59618" lon="3.41185">
        <ele>82</ele>
        <time>2023-08-06T18:00:58Z</time>
      </trkpt>
      <trkpt lat="49.59618" lon="3.41186">
        <ele>82.2</ele>
        <time>2023-08-06T18:00:59Z</time>
      </trkpt>
      <trkpt lat="49.59618" lon="3.41186">
        <ele>82.4</ele>
        <time>2023-08-06T18:01:00Z</time>
      </trkpt>
      <trkpt lat="49.59618" lon="3.41186">
        <ele>82.6</ele>
        <time>2023-08-06T18:01:01Z</time>
      </trkpt>
      <trkpt lat="49.59618" lon="3.41188">
        <ele>82.8</ele>
        <time>2023-08-06T18:01:02Z</time>
      </trkpt>
      <trkpt lat="49.59618" lon="3.41189">
        <ele>83</ele>
        <time>2023-08-06T18:01:03Z</time>
      </trkpt>
      <trkpt lat="49.59618" lon="3.4119">
        <ele>83.2</ele>
        <time>2023-08-06T18:01:04Z</time>
      </trkpt>
      <trkpt lat="49.59617" lon="3.41191">
        <ele>83.2</ele>
        <time>2023-08-06T18:01:05Z</time>
      </trkpt>
      <trkpt lat="49.59617" lon="3.41192">
        <ele>83.4</ele>
        <time>2023-08-06T18:01:06Z</time>
      </trkpt>
      <trkpt lat="49.59617" lon="3.41193">
        <ele>83.6</ele>
        <time>2023-08-06T18:01:07Z</time>
      </trkpt>
      <trkpt lat="49.59616" lon="3.41194">
        <ele>83.6</ele>
        <time>2023-08-06T18:01:08Z</time>
      </trkpt>
      <trkpt lat="49.59616" lon="3.41194">
        <ele>84</ele>
        <time>2023-08-06T18:01:09Z</time>
      </trkpt>
      <trkpt lat="49.59615" lon="3.41195">
        <ele>84</ele>
        <time>2023-08-06T18:01:10Z</time>
      </trkpt>
      <trkpt lat="49.59615" lon="3.41195">
        <ele>84.2</ele>
        <time>2023-08-06T18:01:12Z</time>
      </trkpt>
      <trkpt lat="49.59615" lon="3.41196">
        <ele>84.4</ele>
        <time>2023-08-06T18:01:13Z</time>
      </trkpt>
      <trkpt lat="49.59615" lon="3.41197">
        <ele>84.8</ele>
        <time>2023-08-06T18:01:14Z</time>
      </trkpt>
      <trkpt lat="49.59615" lon="3.41198">
        <ele>84.8</ele>
        <time>2023-08-06T18:01:15Z</time>
      </trkpt>
      <trkpt lat="49.59614" lon="3.412">
        <ele>85</ele>
        <time>2023-08-06T18:01:16Z</time>
      </trkpt>
      <trkpt lat="49.59614" lon="3.41201">
        <ele>85</ele>
        <time>2023-08-06T18:01:17Z</time>
      </trkpt>
      <trkpt lat="49.59614" lon="3.41203">
        <ele>85</ele>
        <time>2023-08-06T18:01:18Z</time>
      </trkpt>
      <trkpt lat="49.59614" lon="3.41205">
        <ele>85.2</ele>
        <time>2023-08-06T18:01:19Z</time>
      </trkpt>
      <trkpt lat="49.59614" lon="3.41206">
        <ele>85.4</ele>
        <time>2023-08-06T18:01:20Z</time>
      </trkpt>
      <trkpt lat="49.59615" lon="3.41207">
        <ele>85.6</ele>
        <time>2023-08-06T18:01:21Z</time>
      </trkpt>
      <trkpt lat="49.59615" lon="3.41208">
        <ele>85.6</ele>
        <time>2023-08-06T18:01:22Z</time>
      </trkpt>
      <trkpt lat="49.59615" lon="3.4121">
        <ele>85.8</ele>
        <time>2023-08-06T18:01:23Z</time>
      </trkpt>
      <trkpt lat="49.59614" lon="3.41211">
        <ele>85.8</ele>
        <time>2023-08-06T18:01:24Z</time>
      </trkpt>
      <trkpt lat="49.59614" lon="3.41212">
        <ele>86</ele>
        <time>2023-08-06T18:01:25Z</time>
      </trkpt>
      <trkpt lat="49.59614" lon="3.41214">
        <ele>86</ele>
        <time>2023-08-06T18:01:26Z</time>
      </trkpt>
      <trkpt lat="49.59613" lon="3.41215">
        <ele>86.2</ele>
        <time>2023-08-06T18:01:27Z</time>
      </trkpt>
      <trkpt lat="49.59613" lon="3.41216">
        <ele>86.2</ele>
        <time>2023-08-06T18:01:28Z</time>
      </trkpt>
      <trkpt lat="49.59613" lon="3.41216">
        <ele>86.2</ele>
        <time>2023-08-06T18:01:29Z</time>
      </trkpt>
      <trkpt lat="49.59613" lon="3.41219">
        <ele>86.4</ele>
        <time>2023-08-06T18:01:30Z</time>
      </trkpt>
      <trkpt lat="49.59613" lon="3.41221">
        <ele>86.4</ele>
        <time>2023-08-06T18:01:31Z</time>
      </trkpt>
      <trkpt lat="49.59613" lon="3.41222">
        <ele>86.4</ele>
        <time>2023-08-06T18:01:32Z</time>
      </trkpt>
      <trkpt lat="49.59612" lon="3.41224">
        <ele>86.6</ele>
        <time>2023-08-06T18:01:33Z</time>
      </trkpt>
      <trkpt lat="49.59612" lon="3.41225">
        <ele>86.8</ele>
        <time>2023-08-06T18:01:34Z</time>
      </trkpt>
      <trkpt lat="49.59612" lon="3.41227">
        <ele>86.6</ele>
        <time>2023-08-06T18:01:35Z</time>
      </trkpt>
      <trkpt lat="49.59612" lon="3.41228">
        <ele>87</ele>
        <time>2023-08-06T18:01:36Z</time>
      </trkpt>
      <trkpt lat="49.59611" lon="3.41229">
        <ele>87.4</ele>
        <time>2023-08-06T18:01:37Z</time>
      </trkpt>
      <trkpt lat="49.59611" lon="3.4123">
        <ele>87.6</ele>
        <time>2023-08-06T18:01:38Z</time>
      </trkpt>
      <trkpt lat="49.59611" lon="3.41231">
        <ele>88.2</ele>
        <time>2023-08-06T18:01:39Z</time>
      </trkpt>
      <trkpt lat="49.59611" lon="3.41232">
        <ele>88.2</ele>
        <time>2023-08-06T18:01:40Z</time>
      </trkpt>
      <trkpt lat="49.59611" lon="3.41233">
        <ele>88.6</ele>
        <time>2023-08-06T18:01:41Z</time>
      </trkpt>
      <trkpt lat="49.59611" lon="3.41234">
        <ele>88.6</ele>
        <time>2023-08-06T18:01:42Z</time>
      </trkpt>
      <trkpt lat="49.59611" lon="3.41235">
        <ele>88.8</ele>
        <time>2023-08-06T18:01:43Z</time>
      </trkpt>
      <trkpt lat="49.59611" lon="3.41235">
        <ele>89</ele>
        <time>2023-08-06T18:01:44Z</time>
      </trkpt>
      <trkpt lat="49.59611" lon="3.41235">
        <ele>89.2</ele>
        <time>2023-08-06T18:01:45Z</time>
      </trkpt>
      <trkpt lat="49.59611" lon="3.41236">
        <ele>89.4</ele>
        <time>2023-08-06T18:01:47Z</time>
      </trkpt>
      <trkpt lat="49.59633" lon="3.41305">
        <ele>101.4</ele>
        <time>2023-08-06T18:02:58Z</time>
      </trkpt>
      <trkpt lat="49.59633" lon="3.41306">
        <ele>101.6</ele>
        <time>2023-08-06T18:02:59Z</time>
      </trkpt>
      <trkpt lat="49.59633" lon="3.41306">
        <ele>101.8</ele>
        <time>2023-08-06T18:03:00Z</time>
      </trkpt>
      <trkpt lat="49.59634" lon="3.41308">
        <ele>102</ele>
        <time>2023-08-06T18:03:01Z</time>
      </trkpt>
      <trkpt lat="49.59634" lon="3.4131">
        <ele>102</ele>
        <time>2023-08-06T18:03:02Z</time>
      </trkpt>
      <trkpt lat="49.59634" lon="3.4131">
        <ele>102.2</ele>
        <time>2023-08-06T18:03:03Z</time>
      </trkpt>
      <trkpt lat="49.59635" lon="3.41311">
        <ele>102.4</ele>
        <time>2023-08-06T18:03:04Z</time>
      </trkpt>
      <trkpt lat="49.59635" lon="3.41311">
        <ele>102.4</ele>
        <time>2023-08-06T18:03:05Z</time>
      </trkpt>
      <trkpt lat="49.59636" lon="3.41313">
        <ele>102.6</ele>
        <time>2023-08-06T18:03:06Z</time>
      </trkpt>
      <trkpt lat="49.59636" lon="3.41315">
        <ele>102.6</ele>
        <time>2023-08-06T18:03:07Z</time>
      </trkpt>
      <trkpt lat="49.59636" lon="3.41315">
        <ele>102.8</ele>
        <time>2023-08-06T18:03:08Z</time>
      </trkpt>
      <trkpt lat="49.59636" lon="3.41317">
        <ele>103</ele>
        <time>2023-08-06T18:03:09Z</time>
      </trkpt>
      <trkpt lat="49.59637" lon="3.41318">
        <ele>103.4</ele>
        <time>2023-08-06T18:03:10Z</time>
      </trkpt>
      <trkpt lat="49.59637" lon="3.4132">
        <ele>103.4</ele>
        <time>2023-08-06T18:03:11Z</time>
      </trkpt>
      <trkpt lat="49.59637" lon="3.41321">
        <ele>103.6</ele>
        <time>2023-08-06T18:03:12Z</time>
      </trkpt>
      <trkpt lat="49.59637" lon="3.41321">
        <ele>103.8</ele>
        <time>2023-08-06T18:03:13Z</time>
      </trkpt>
      <trkpt lat="49.59638" lon="3.41324">
        <ele>103.8</ele>
        <time>2023-08-06T18:03:14Z</time>
      </trkpt>
      <trkpt lat="49.59638" lon="3.41325">
        <ele>104</ele>
        <time>2023-08-06T18:03:15Z</time>
      </trkpt>
      <trkpt lat="49.59638" lon="3.41326">
        <ele>104.2</ele>
        <time>2023-08-06T18:03:16Z</time>
      </trkpt>
      <trkpt lat="49.59638" lon="3.41327">
        <ele>104.6</ele>
        <time>2023-08-06T18:03:17Z</time>
      </trkpt>
      <trkpt lat="49.59638" lon="3.41327">
        <ele>104.8</ele>
        <time>2023-08-06T18:03:18Z</time>
      </trkpt>
      <trkpt lat="49.59638" lon="3.4133">
        <ele>104.8</ele>
        <time>2023-08-06T18:03:19Z</time>
      </trkpt>
      <trkpt lat="49.59638" lon="3.4133">
        <ele>105</ele>
        <time>2023-08-06T18:03:20Z</time>
      </trkpt>
      <trkpt lat="49.59638" lon="3.41333">
        <ele>105</ele>
        <time>2023-08-06T18:03:21Z</time>
      </trkpt>
      <trkpt lat="49.59638" lon="3.41334">
        <ele>105.2</ele>
        <time>2023-08-06T18:03:22Z</time>
      </trkpt>
      <trkpt lat="49.59638" lon="3.41335">
        <ele>105.2</ele>
        <time>2023-08-06T18:03:23Z</time>
      </trkpt>
      <trkpt lat="49.59638" lon="3.41337">
        <ele>105.2</ele>
        <time>2023-08-06T18:03:24Z</time>
      </trkpt>
      <trkpt lat="49.59637" lon="3.41338">
        <ele>105.2</ele>
        <time>2023-08-06T18:03:25Z</time>
      </trkpt>
      <trkpt lat="49.59637" lon="3.41339">
        <ele>105.2</ele>
        <time>2023-08-06T18:03:26Z</time>
      </trkpt>
      <trkpt lat="49.59637" lon="3.41341">
        <ele>105.2</ele>
        <time>2023-08-06T18:03:27Z</time>
      </trkpt>
      <trkpt lat="49.59637" lon="3.41342">
        <ele>105.4</ele>
        <time>2023-08-06T18:03:28Z</time>
      </trkpt>
      <trkpt lat="49.59637" lon="3.41343">
        <ele>105.4</ele>
        <time>2023-08-06T18:03:29Z</time>
      </trkpt>
      <trkpt lat="49.59636" lon="3.41345">
        <ele>105.6</ele>
        <time>2023-08-06T18:03:30Z</time>
      </trkpt>
      <trkpt lat="49.59636" lon="3.41346">
        <ele>105.6</ele>
        <time>2023-08-06T18:03:31Z</time>
      </trkpt>
      <trkpt lat="49.59636" lon="3.41346">
        <ele>105.8</ele>
        <time>2023-08-06T18:03:32Z</time>
      </trkpt>
      <trkpt lat="49.59636" lon="3.41349">
        <ele>106</ele>
        <time>2023-08-06T18:03:33Z</time>
      </trkpt>
      <trkpt lat="49.59636" lon="3.41351">
        <ele>106</ele>
        <time>2023-08-06T18:03:34Z</time>
      </trkpt>
      <trkpt lat="49.59637" lon="3.41353">
        <ele>106</ele>
        <time>2023-08-06T18:03:35Z</time>
      </trkpt>
      <trkpt lat="49.59637" lon="3.41354">
        <ele>106.2</ele>
        <time>2023-08-06T18:03:36Z</time>
      </trkpt>
      <trkpt lat="49.59637" lon="3.41354">
        <ele>106.2</ele>
        <time>2023-08-06T18:03:37Z</time>
      </trkpt>
      <trkpt lat="49.59637" lon="3.41358">
        <ele>106.4</ele>
        <time>2023-08-06T18:03:38Z</time>
      </trkpt>
      <trkpt lat="49.59637" lon="3.41358">
        <ele>106.4</ele>
        <time>2023-08-06T18:03:39Z</time>
      </trkpt>
      <trkpt lat="49.59636" lon="3.4136">
        <ele>106.6</ele>
        <time>2023-08-06T18:03:40Z</time>
      </trkpt>
      <trkpt lat="49.59637" lon="3.41362">
        <ele>106.6</ele>
        <time>2023-08-06T18:03:41Z</time>
      </trkpt>
      <trkpt lat="49.59637" lon="3.41364">
        <ele>106.8</ele>
        <time>2023-08-06T18:03:42Z</time>
      </trkpt>
      <trkpt lat="49.59637" lon="3.41366">
        <ele>106.8</ele>
        <time>2023-08-06T18:03:43Z</time>
      </trkpt>
      <trkpt lat="49.59637" lon="3.41367">
        <ele>106.8</ele>
        <time>2023-08-06T18:03:44Z</time>
      </trkpt>
      <trkpt lat="49.59637" lon="3.41368">
        <ele>107</ele>
        <time>2023-08-06T18:03:45Z</time>
      </trkpt>
      <trkpt lat="49.59636" lon="3.4137">
        <ele>107</ele>
        <time>2023-08-06T18:03:46Z</time>
      </trkpt>
      <trkpt lat="49.59636" lon="3.41372">
        <ele>107.2</ele>
        <time>2023-08-06T18:03:47Z</time>
      </trkpt>
      <trkpt lat="49.59636" lon="3.41373">
        <ele>107.2</ele>
        <time>2023-08-06T18:03:48Z</time>
      </trkpt>
      <trkpt lat="49.59636" lon="3.41375">
        <ele>107.4</ele>
        <time>2023-08-06T18:03:49Z</time>
      </trkpt>
      <trkpt lat="49.59636" lon="3.41376">
        <ele>107.4</ele>
        <time>2023-08-06T18:03:51Z</time>
      </trkpt>
      <trkpt lat="49.59636" lon="3.4138">
        <ele>107.4</ele>
        <time>2023-08-06T18:03:52Z</time>
      </trkpt>
      <trkpt lat="49.59636" lon="3.41382">
        <ele>107.6</ele>
        <time>2023-08-06T18:03:54Z</time>
      </trkpt>
      <trkpt lat="49.59636" lon="3.41386">
        <ele>107.6</ele>
        <time>2023-08-06T18:03:56Z</time>
      </trkpt>
      <trkpt lat="49.59636" lon="3.41391">
        <ele>107.8</ele>
        <time>2023-08-06T18:03:59Z</time>
      </trkpt>
      <trkpt lat="49.59636" lon="3.41393">
        <ele>108</ele>
        <time>2023-08-06T18:04:00Z</time>
      </trkpt>
      <trkpt lat="49.59636" lon="3.41393">
        <ele>108</ele>
        <time>2023-08-06T18:04:01Z</time>
      </trkpt>
      <trkpt lat="49.59636" lon="3.41392">
        <ele>108</ele>
        <time>2023-08-06T18:04:02Z</time>
      </trkpt>
      <trkpt lat="49.59636" lon="3.41392">
        <ele>108.2</ele>
        <time>2023-08-06T18:04:03Z</time>
      </trkpt>
      <trkpt lat="49.59636" lon="3.41393">
        <ele>108.4</ele>
        <time>2023-08-06T18:04:04Z</time>
      </trkpt>
      <trkpt lat="49.59636" lon="3.41394">
        <ele>108.6</ele>
        <time>2023-08-06T18:04:05Z</time>
      </trkpt>
      <trkpt lat="49.59636" lon="3.41394">
        <ele>108.6</ele>
        <time>2023-08-06T18:04:06Z</time>
      </trkpt>
      <trkpt lat="49.59636" lon="3.41396">
        <ele>108.8</ele>
        <time>2023-08-06T18:04:07Z</time>
      </trkpt>
      <trkpt lat="49.59636" lon="3.41401">
        <ele>108.8</ele>
        <time>2023-08-06T18:04:10Z</time>
      </trkpt>
      <trkpt lat="49.59636" lon="3.41404">
        <ele>108.8</ele>
        <time>2023-08-06T18:04:12Z</time>
      </trkpt>
      <trkpt lat="49.59635" lon="3.41412">
        <ele>109.4</ele>
        <time>2023-08-06T18:04:17Z</time>
      </trkpt>
      <trkpt lat="49.59635" lon="3.41413">
        <ele>109.4</ele>
        <time>2023-08-06T18:04:18Z</time>
      </trkpt>
      <trkpt lat="49.59635" lon="3.41418">
        <ele>109.8</ele>
        <time>2023-08-06T18:04:21Z</time>
      </trkpt>
      <trkpt lat="49.59635" lon="3.41419">
        <ele>109.8</ele>
        <time>2023-08-06T18:04:22Z</time>
      </trkpt>
      <trkpt lat="49.59635" lon="3.4142">
        <ele>110</ele>
        <time>2023-08-06T18:04:23Z</time>
      </trkpt>
      <trkpt lat="49.59636" lon="3.41422">
        <ele>110.2</ele>
        <time>2023-08-06T18:04:24Z</time>
      </trkpt>
      <trkpt lat="49.59636" lon="3.41424">
        <ele>110.2</ele>
        <time>2023-08-06T18:04:25Z</time>
      </trkpt>
      <trkpt lat="49.59636" lon="3.41426">
        <ele>110.4</ele>
        <time>2023-08-06T18:04:27Z</time>
      </trkpt>
      <trkpt lat="49.59636" lon="3.41432">
        <ele>111</ele>
        <time>2023-08-06T18:04:32Z</time>
      </trkpt>
      <trkpt lat="49.59636" lon="3.41435">
        <ele>111.2</ele>
        <time>2023-08-06T18:04:33Z</time>
      </trkpt>
      <trkpt lat="49.59637" lon="3.41436">
        <ele>111.4</ele>
        <time>2023-08-06T18:04:34Z</time>
      </trkpt>
      <trkpt lat="49.59637" lon="3.41438">
        <ele>111.6</ele>
        <time>2023-08-06T18:04:35Z</time>
      </trkpt>
      <trkpt lat="49.59637" lon="3.41439">
        <ele>111.6</ele>
        <time>2023-08-06T18:04:36Z</time>
      </trkpt>
      <trkpt lat="49.59637" lon="3.4144">
        <ele>111.8</ele>
        <time>2023-08-06T18:04:37Z</time>
      </trkpt>
      <trkpt lat="49.59637" lon="3.4144">
        <ele>111.8</ele>
        <time>2023-08-06T18:04:38Z</time>
      </trkpt>
      <trkpt lat="49.59638" lon="3.41444">
        <ele>112</ele>
        <time>2023-08-06T18:04:39Z</time>
      </trkpt>
      <trkpt lat="49.59638" lon="3.41444">
        <ele>112</ele>
        <time>2023-08-06T18:04:40Z</time>
      </trkpt>
      <trkpt lat="49.59638" lon="3.41447">
        <ele>112</ele>
        <time>2023-08-06T18:04:41Z</time>
      </trkpt>
      <trkpt lat="49.59639" lon="3.41448">
        <ele>112</ele>
        <time>2023-08-06T18:04:42Z</time>
      </trkpt>
      <trkpt lat="49.59639" lon="3.41449">
        <ele>112</ele>
        <time>2023-08-06T18:04:43Z</time>
      </trkpt>
      <trkpt lat="49.59639" lon="3.41451">
        <ele>112.2</ele>
        <time>2023-08-06T18:04:44Z</time>
      </trkpt>
      <trkpt lat="49.59638" lon="3.41452">
        <ele>112.2</ele>
        <time>2023-08-06T18:04:45Z</time>
      </trkpt>
      <trkpt lat="49.59638" lon="3.41453">
        <ele>112.2</ele>
        <time>2023-08-06T18:04:46Z</time>
      </trkpt>
      <trkpt lat="49.59638" lon="3.41453">
        <ele>112.2</ele>
        <time>2023-08-06T18:04:47Z</time>
      </trkpt>
      <trkpt lat="49.59639" lon="3.41456">
        <ele>112.4</ele>
        <time>2023-08-06T18:04:48Z</time>
      </trkpt>
      <trkpt lat="49.59639" lon="3.41456">
        <ele>112.4</ele>
        <time>2023-08-06T18:04:49Z</time>
      </trkpt>
      <trkpt lat="49.59639" lon="3.41463">
        <ele>112.8</ele>
        <time>2023-08-06T18:04:54Z</time>
      </trkpt>
      <trkpt lat="49.59639" lon="3.41464">
        <ele>112.8</ele>
        <time>2023-08-06T18:04:55Z</time>
      </trkpt>
      <trkpt lat="49.59638" lon="3.41465">
        <ele>113</ele>
        <time>2023-08-06T18:04:56Z</time>
      </trkpt>
      <trkpt lat="49.59638" lon="3.41466">
        <ele>113</ele>
        <time>2023-08-06T18:04:57Z</time>
      </trkpt>
      <trkpt lat="49.59637" lon="3.41467">
        <ele>113.2</ele>
        <time>2023-08-06T18:04:58Z</time>
      </trkpt>
      <trkpt lat="49.59636" lon="3.41468">
        <ele>113.2</ele>
        <time>2023-08-06T18:04:59Z</time>
      </trkpt>
      <trkpt lat="49.59636" lon="3.41468">
        <ele>113.2</ele>
        <time>2023-08-06T18:05:00Z</time>
      </trkpt>
      <trkpt lat="49.59635" lon="3.41468">
        <ele>113.4</ele>
        <time>2023-08-06T18:05:01Z</time>
      </trkpt>
      <trkpt lat="49.59634" lon="3.41469">
        <ele>113.4</ele>
        <time>2023-08-06T18:05:02Z</time>
      </trkpt>
      <trkpt lat="49.59634" lon="3.41469">
        <ele>113.6</ele>
        <time>2023-08-06T18:05:03Z</time>
      </trkpt>
      <trkpt lat="49.59632" lon="3.4147">
        <ele>113.8</ele>
        <time>2023-08-06T18:05:05Z</time>
      </trkpt>
      <trkpt lat="49.59631" lon="3.41471">
        <ele>113.8</ele>
        <time>2023-08-06T18:05:06Z</time>
      </trkpt>
      <trkpt lat="49.59631" lon="3.41472">
        <ele>114</ele>
        <time>2023-08-06T18:05:07Z</time>
      </trkpt>
      <trkpt lat="49.59631" lon="3.41472">
        <ele>114.2</ele>
        <time>2023-08-06T18:05:08Z</time>
      </trkpt>
      <trkpt lat="49.59629" lon="3.41475">
        <ele>114.2</ele>
        <time>2023-08-06T18:05:09Z</time>
      </trkpt>
      <trkpt lat="49.59629" lon="3.41476">
        <ele>114.2</ele>
        <time>2023-08-06T18:05:10Z</time>
      </trkpt>
      <trkpt lat="49.59628" lon="3.41477">
        <ele>114.4</ele>
        <time>2023-08-06T18:05:11Z</time>
      </trkpt>
      <trkpt lat="49.59627" lon="3.41481">
        <ele>114.8</ele>
        <time>2023-08-06T18:05:14Z</time>
      </trkpt>
      <trkpt lat="49.59627" lon="3.41482">
        <ele>115.2</ele>
        <time>2023-08-06T18:05:15Z</time>
      </trkpt>
      <trkpt lat="49.59626" lon="3.41483">
        <ele>115.2</ele>
        <time>2023-08-06T18:05:16Z</time>
      </trkpt>
      <trkpt lat="49.59626" lon="3.41484">
        <ele>115.4</ele>
        <time>2023-08-06T18:05:17Z</time>
      </trkpt>
      <trkpt lat="49.59626" lon="3.41484">
        <ele>115.6</ele>
        <time>2023-08-06T18:05:19Z</time>
      </trkpt>
      <trkpt lat="49.5963" lon="3.41497">
        <ele>115.8</ele>
        <time>2023-08-06T18:09:19Z</time>
      </trkpt>
      <trkpt lat="49.5963" lon="3.41499">
        <ele>116</ele>
        <time>2023-08-06T18:09:20Z</time>
      </trkpt>
      <trkpt lat="49.5963" lon="3.41501">
        <ele>116</ele>
        <time>2023-08-06T18:09:21Z</time>
      </trkpt>
      <trkpt lat="49.5963" lon="3.41502">
        <ele>116.2</ele>
        <time>2023-08-06T18:09:22Z</time>
      </trkpt>
      <trkpt lat="49.5963" lon="3.41503">
        <ele>116.2</ele>
        <time>2023-08-06T18:09:23Z</time>
      </trkpt>
      <trkpt lat="49.5963" lon="3.41505">
        <ele>116.2</ele>
        <time>2023-08-06T18:09:24Z</time>
      </trkpt>
      <trkpt lat="49.5963" lon="3.4151">
        <ele>116.2</ele>
        <time>2023-08-06T18:09:27Z</time>
      </trkpt>
      <trkpt lat="49.5963" lon="3.41511">
        <ele>116.2</ele>
        <time>2023-08-06T18:09:28Z</time>
      </trkpt>
      <trkpt lat="49.59629" lon="3.41512">
        <ele>116.4</ele>
        <time>2023-08-06T18:09:29Z</time>
      </trkpt>
      <trkpt lat="49.59628" lon="3.41513">
        <ele>116.4</ele>
        <time>2023-08-06T18:09:30Z</time>
      </trkpt>
      <trkpt lat="49.59627" lon="3.41515">
        <ele>116.6</ele>
        <time>2023-08-06T18:09:31Z</time>
      </trkpt>
      <trkpt lat="49.59626" lon="3.41521">
        <ele>116.8</ele>
        <time>2023-08-06T18:09:34Z</time>
      </trkpt>
      <trkpt lat="49.59625" lon="3.41525">
        <ele>116.8</ele>
        <time>2023-08-06T18:09:36Z</time>
      </trkpt>
      <trkpt lat="49.59625" lon="3.41527">
        <ele>116.8</ele>
        <time>2023-08-06T18:09:37Z</time>
      </trkpt>
      <trkpt lat="49.59625" lon="3.41527">
        <ele>117</ele>
        <time>2023-08-06T18:09:38Z</time>
      </trkpt>
      <trkpt lat="49.59623" lon="3.41532">
        <ele>117.2</ele>
        <time>2023-08-06T18:09:40Z</time>
      </trkpt>
      <trkpt lat="49.59623" lon="3.41533">
        <ele>117.2</ele>
        <time>2023-08-06T18:09:41Z</time>
      </trkpt>
      <trkpt lat="49.59622" lon="3.41534">
        <ele>117.4</ele>
        <time>2023-08-06T18:09:42Z</time>
      </trkpt>
      <trkpt lat="49.59622" lon="3.41535">
        <ele>117.6</ele>
        <time>2023-08-06T18:09:43Z</time>
      </trkpt>
      <trkpt lat="49.59621" lon="3.41536">
        <ele>117.8</ele>
        <time>2023-08-06T18:09:44Z</time>
      </trkpt>
      <trkpt lat="49.59621" lon="3.41538">
        <ele>117.8</ele>
        <time>2023-08-06T18:09:45Z</time>
      </trkpt>
      <trkpt lat="49.5962" lon="3.41539">
        <ele>118.2</ele>
        <time>2023-08-06T18:09:46Z</time>
      </trkpt>
      <trkpt lat="49.59619" lon="3.41541">
        <ele>118.2</ele>
        <time>2023-08-06T18:09:47Z</time>
      </trkpt>
      <trkpt lat="49.59619" lon="3.41543">
        <ele>118.4</ele>
        <time>2023-08-06T18:09:48Z</time>
      </trkpt>
      <trkpt lat="49.59616" lon="3.4155">
        <ele>118.6</ele>
        <time>2023-08-06T18:09:52Z</time>
      </trkpt>
      <trkpt lat="49.59614" lon="3.4156">
        <ele>119</ele>
        <time>2023-08-06T18:09:57Z</time>
      </trkpt>
      <trkpt lat="49.59614" lon="3.41563">
        <ele>119</ele>
        <time>2023-08-06T18:09:58Z</time>
      </trkpt>
      <trkpt lat="49.59613" lon="3.41567">
        <ele>119.4</ele>
        <time>2023-08-06T18:10:00Z</time>
      </trkpt>
      <trkpt lat="49.59611" lon="3.41581">
        <ele>120</ele>
        <time>2023-08-06T18:10:05Z</time>
      </trkpt>
      <trkpt lat="49.59612" lon="3.41584">
        <ele>120</ele>
        <time>2023-08-06T18:10:06Z</time>
      </trkpt>
      <trkpt lat="49.59612" lon="3.41588">
        <ele>120</ele>
        <time>2023-08-06T18:10:07Z</time>
      </trkpt>
      <trkpt lat="49.59612" lon="3.41591">
        <ele>120</ele>
        <time>2023-08-06T18:10:08Z</time>
      </trkpt>
      <trkpt lat="49.59611" lon="3.41598">
        <ele>120.2</ele>
        <time>2023-08-06T18:10:11Z</time>
      </trkpt>
      <trkpt lat="49.59611" lon="3.416">
        <ele>120.4</ele>
        <time>2023-08-06T18:10:12Z</time>
      </trkpt>
      <trkpt lat="49.5961" lon="3.41602">
        <ele>120.4</ele>
        <time>2023-08-06T18:10:13Z</time>
      </trkpt>
      <trkpt lat="49.59605" lon="3.41617">
        <ele>120.6</ele>
        <time>2023-08-06T18:10:20Z</time>
      </trkpt>
      <trkpt lat="49.59604" lon="3.41619">
        <ele>120.6</ele>
        <time>2023-08-06T18:10:21Z</time>
      </trkpt>
      <trkpt lat="49.59603" lon="3.41623">
        <ele>120.8</ele>
        <time>2023-08-06T18:10:23Z</time>
      </trkpt>
      <trkpt lat="49.59603" lon="3.41625">
        <ele>120.8</ele>
        <time>2023-08-06T18:10:24Z</time>
      </trkpt>
      <trkpt lat="49.59602" lon="3.41626">
        <ele>121</ele>
        <time>2023-08-06T18:10:25Z</time>
      </trkpt>
      <trkpt lat="49.59602" lon="3.41628">
        <ele>121.2</ele>
        <time>2023-08-06T18:10:26Z</time>
      </trkpt>
      <trkpt lat="49.59602" lon="3.41629">
        <ele>121.2</ele>
        <time>2023-08-06T18:10:27Z</time>
      </trkpt>
      <trkpt lat="49.59602" lon="3.41631">
        <ele>121.4</ele>
        <time>2023-08-06T18:10:28Z</time>
      </trkpt>
      <trkpt lat="49.59601" lon="3.41631">
        <ele>121.6</ele>
        <time>2023-08-06T18:10:29Z</time>
      </trkpt>
      <trkpt lat="49.596" lon="3.41632">
        <ele>121.6</ele>
        <time>2023-08-06T18:10:30Z</time>
      </trkpt>
      <trkpt lat="49.59599" lon="3.41633">
        <ele>121.8</ele>
        <time>2023-08-06T18:10:31Z</time>
      </trkpt>
      <trkpt lat="49.59598" lon="3.41633">
        <ele>121.8</ele>
        <time>2023-08-06T18:10:32Z</time>
      </trkpt>
      <trkpt lat="49.59596" lon="3.41634">
        <ele>121.8</ele>
        <time>2023-08-06T18:10:33Z</time>
      </trkpt>
      <trkpt lat="49.59595" lon="3.41635">
        <ele>122</ele>
        <time>2023-08-06T18:10:34Z</time>
      </trkpt>
      <trkpt lat="49.59594" lon="3.41636">
        <ele>122</ele>
        <time>2023-08-06T18:10:35Z</time>
      </trkpt>
      <trkpt lat="49.59594" lon="3.41636">
        <ele>122</ele>
        <time>2023-08-06T18:10:36Z</time>
      </trkpt>
      <trkpt lat="49.59592" lon="3.41641">
        <ele>122</ele>
        <time>2023-08-06T18:10:37Z</time>
      </trkpt>
      <trkpt lat="49.59591" lon="3.41644">
        <ele>122</ele>
        <time>2023-08-06T18:10:38Z</time>
      </trkpt>
      <trkpt lat="49.59588" lon="3.4165">
        <ele>122.2</ele>
        <time>2023-08-06T18:10:41Z</time>
      </trkpt>
      <trkpt lat="49.59587" lon="3.41652">
        <ele>122.2</ele>
        <time>2023-08-06T18:10:42Z</time>
      </trkpt>
      <trkpt lat="49.59588" lon="3.41654">
        <ele>122.2</ele>
        <time>2023-08-06T18:10:43Z</time>
      </trkpt>
      <trkpt lat="49.59588" lon="3.41655">
        <ele>122.2</ele>
        <time>2023-08-06T18:10:44Z</time>
      </trkpt>
      <trkpt lat="49.59588" lon="3.41655">
        <ele>122.2</ele>
        <time>2023-08-06T18:10:45Z</time>
      </trkpt>
      <trkpt lat="49.59588" lon="3.41658">
        <ele>122.2</ele>
        <time>2023-08-06T18:10:46Z</time>
      </trkpt>
      <trkpt lat="49.59588" lon="3.41659">
        <ele>122.2</ele>
        <time>2023-08-06T18:10:47Z</time>
      </trkpt>
      <trkpt lat="49.59588" lon="3.41661">
        <ele>122.2</ele>
        <time>2023-08-06T18:10:48Z</time>
      </trkpt>
      <trkpt lat="49.59588" lon="3.41663">
        <ele>122.2</ele>
        <time>2023-08-06T18:10:49Z</time>
      </trkpt>
      <trkpt lat="49.59589" lon="3.41665">
        <ele>122.4</ele>
        <time>2023-08-06T18:10:50Z</time>
      </trkpt>
      <trkpt lat="49.5959" lon="3.41667">
        <ele>122.4</ele>
        <time>2023-08-06T18:10:51Z</time>
      </trkpt>
      <trkpt lat="49.5959" lon="3.41669">
        <ele>122.4</ele>
        <time>2023-08-06T18:10:52Z</time>
      </trkpt>
      <trkpt lat="49.59591" lon="3.41671">
        <ele>122.4</ele>
        <time>2023-08-06T18:10:53Z</time>
      </trkpt>
      <trkpt lat="49.59591" lon="3.41672">
        <ele>122.4</ele>
        <time>2023-08-06T18:10:54Z</time>
      </trkpt>
      <trkpt lat="49.59592" lon="3.41678">
        <ele>122.6</ele>
        <time>2023-08-06T18:10:57Z</time>
      </trkpt>
      <trkpt lat="49.59592" lon="3.41684">
        <ele>122.6</ele>
        <time>2023-08-06T18:11:00Z</time>
      </trkpt>
      <trkpt lat="49.59592" lon="3.41685">
        <ele>122.6</ele>
        <time>2023-08-06T18:11:01Z</time>
      </trkpt>
      <trkpt lat="49.59591" lon="3.41687">
        <ele>122.6</ele>
        <time>2023-08-06T18:11:02Z</time>
      </trkpt>
      <trkpt lat="49.59591" lon="3.41695">
        <ele>122.6</ele>
        <time>2023-08-06T18:11:05Z</time>
      </trkpt>
      <trkpt lat="49.59591" lon="3.41695">
        <ele>122.6</ele>
        <time>2023-08-06T18:11:06Z</time>
      </trkpt>
      <trkpt lat="49.59592" lon="3.417">
        <ele>122.6</ele>
        <time>2023-08-06T18:11:07Z</time>
      </trkpt>
      <trkpt lat="49.59593" lon="3.41703">
        <ele>122.6</ele>
        <time>2023-08-06T18:11:08Z</time>
      </trkpt>
      <trkpt lat="49.59593" lon="3.41712">
        <ele>122.6</ele>
        <time>2023-08-06T18:11:11Z</time>
      </trkpt>
      <trkpt lat="49.59594" lon="3.41715">
        <ele>122.6</ele>
        <time>2023-08-06T18:11:12Z</time>
      </trkpt>
      <trkpt lat="49.59594" lon="3.41722">
        <ele>122.6</ele>
        <time>2023-08-06T18:11:15Z</time>
      </trkpt>
      <trkpt lat="49.59594" lon="3.41725">
        <ele>122.6</ele>
        <time>2023-08-06T18:11:17Z</time>
      </trkpt>
      <trkpt lat="49.59595" lon="3.41729">
        <ele>122.6</ele>
        <time>2023-08-06T18:11:18Z</time>
      </trkpt>
      <trkpt lat="49.59595" lon="3.41732">
        <ele>122.6</ele>
        <time>2023-08-06T18:11:19Z</time>
      </trkpt>
      <trkpt lat="49.59595" lon="3.41735">
        <ele>122.6</ele>
        <time>2023-08-06T18:11:20Z</time>
      </trkpt>
      <trkpt lat="49.59595" lon="3.41739">
        <ele>122.6</ele>
        <time>2023-08-06T18:11:21Z</time>
      </trkpt>
      <trkpt lat="49.59595" lon="3.41739">
        <ele>122.6</ele>
        <time>2023-08-06T18:11:22Z</time>
      </trkpt>
      <trkpt lat="49.59595" lon="3.41755">
        <ele>122.2</ele>
        <time>2023-08-06T18:11:26Z</time>
      </trkpt>
      <trkpt lat="49.596" lon="3.41787">
        <ele>121.8</ele>
        <time>2023-08-06T18:11:32Z</time>
      </trkpt>
      <trkpt lat="49.596" lon="3.41792">
        <ele>121.8</ele>
        <time>2023-08-06T18:11:33Z</time>
      </trkpt>
      <trkpt lat="49.59601" lon="3.418">
        <ele>121.8</ele>
        <time>2023-08-06T18:11:36Z</time>
      </trkpt>
      <trkpt lat="49.59601" lon="3.41812">
        <ele>121.8</ele>
        <time>2023-08-06T18:11:38Z</time>
      </trkpt>
      <trkpt lat="49.59602" lon="3.41816">
        <ele>121.8</ele>
        <time>2023-08-06T18:11:39Z</time>
      </trkpt>
      <trkpt lat="49.59602" lon="3.4182">
        <ele>121.8</ele>
        <time>2023-08-06T18:11:40Z</time>
      </trkpt>
      <trkpt lat="49.59604" lon="3.41823">
        <ele>121.8</ele>
        <time>2023-08-06T18:11:41Z</time>
      </trkpt>
      <trkpt lat="49.59604" lon="3.41828">
        <ele>121.8</ele>
        <time>2023-08-06T18:11:42Z</time>
      </trkpt>
      <trkpt lat="49.59604" lon="3.41828">
        <ele>121.8</ele>
        <time>2023-08-06T18:11:43Z</time>
      </trkpt>
      <trkpt lat="49.59606" lon="3.4184">
        <ele>121.8</ele>
        <time>2023-08-06T18:11:45Z</time>
      </trkpt>
      <trkpt lat="49.5961" lon="3.41857">
        <ele>121.4</ele>
        <time>2023-08-06T18:11:49Z</time>
      </trkpt>
      <trkpt lat="49.59612" lon="3.41867">
        <ele>121.2</ele>
        <time>2023-08-06T18:11:51Z</time>
      </trkpt>
      <trkpt lat="49.59613" lon="3.41869">
        <ele>121.2</ele>
        <time>2023-08-06T18:11:52Z</time>
      </trkpt>
      <trkpt lat="49.59613" lon="3.41872">
        <ele>121.2</ele>
        <time>2023-08-06T18:11:53Z</time>
      </trkpt>
      <trkpt lat="49.59611" lon="3.41878">
        <ele>121</ele>
        <time>2023-08-06T18:11:54Z</time>
      </trkpt>
      <trkpt lat="49.5961" lon="3.41883">
        <ele>121</ele>
        <time>2023-08-06T18:11:55Z</time>
      </trkpt>
      <trkpt lat="49.59611" lon="3.41888">
        <ele>120.8</ele>
        <time>2023-08-06T18:11:56Z</time>
      </trkpt>
      <trkpt lat="49.59611" lon="3.41888">
        <ele>120.8</ele>
        <time>2023-08-06T18:11:57Z</time>
      </trkpt>
      <trkpt lat="49.59614" lon="3.41894">
        <ele>120.8</ele>
        <time>2023-08-06T18:11:58Z</time>
      </trkpt>
      <trkpt lat="49.59614" lon="3.41894">
        <ele>120.6</ele>
        <time>2023-08-06T18:11:59Z</time>
      </trkpt>
      <trkpt lat="49.59616" lon="3.41906">
        <ele>120.6</ele>
        <time>2023-08-06T18:12:01Z</time>
      </trkpt>
      <trkpt lat="49.59617" lon="3.41909">
        <ele>120.4</ele>
        <time>2023-08-06T18:12:02Z</time>
      </trkpt>
      <trkpt lat="49.59617" lon="3.41914">
        <ele>120.2</ele>
        <time>2023-08-06T18:12:03Z</time>
      </trkpt>
      <trkpt lat="49.59618" lon="3.41939">
        <ele>119.8</ele>
        <time>2023-08-06T18:12:07Z</time>
      </trkpt>
      <trkpt lat="49.59613" lon="3.41954">
        <ele>119.6</ele>
        <time>2023-08-06T18:12:09Z</time>
      </trkpt>
      <trkpt lat="49.59612" lon="3.41975">
        <ele>119.6</ele>
        <time>2023-08-06T18:12:12Z</time>
      </trkpt>
      <trkpt lat="49.59611" lon="3.41981">
        <ele>119.4</ele>
        <time>2023-08-06T18:12:13Z</time>
      </trkpt>
      <trkpt lat="49.5961" lon="3.41985">
        <ele>119.2</ele>
        <time>2023-08-06T18:12:14Z</time>
      </trkpt>
      <trkpt lat="49.59611" lon="3.42002">
        <ele>118.6</ele>
        <time>2023-08-06T18:12:17Z</time>
      </trkpt>
      <trkpt lat="49.59612" lon="3.42015">
        <ele>118.2</ele>
        <time>2023-08-06T18:12:20Z</time>
      </trkpt>
      <trkpt lat="49.59612" lon="3.42026">
        <ele>118</ele>
        <time>2023-08-06T18:12:21Z</time>
      </trkpt>
      <trkpt lat="49.59612" lon="3.42029">
        <ele>117.8</ele>
        <time>2023-08-06T18:12:22Z</time>
      </trkpt>
      <trkpt lat="49.59611" lon="3.42032">
        <ele>117.6</ele>
        <time>2023-08-06T18:12:23Z</time>
      </trkpt>
      <trkpt lat="49.5961" lon="3.42037">
        <ele>117.4</ele>
        <time>2023-08-06T18:12:24Z</time>
      </trkpt>
      <trkpt lat="49.59606" lon="3.42044">
        <ele>117.4</ele>
        <time>2023-08-06T18:12:25Z</time>
      </trkpt>
      <trkpt lat="49.59605" lon="3.4205">
        <ele>117.2</ele>
        <time>2023-08-06T18:12:26Z</time>
      </trkpt>
      <trkpt lat="49.59605" lon="3.4205">
        <ele>117.2</ele>
        <time>2023-08-06T18:12:27Z</time>
      </trkpt>
      <trkpt lat="49.59606" lon="3.42059">
        <ele>117.2</ele>
        <time>2023-08-06T18:12:28Z</time>
      </trkpt>
      <trkpt lat="49.59605" lon="3.42064">
        <ele>117.2</ele>
        <time>2023-08-06T18:12:29Z</time>
      </trkpt>
      <trkpt lat="49.59606" lon="3.4207">
        <ele>117</ele>
        <time>2023-08-06T18:12:30Z</time>
      </trkpt>
      <trkpt lat="49.59606" lon="3.4207">
        <ele>117</ele>
        <time>2023-08-06T18:12:31Z</time>
      </trkpt>
      <trkpt lat="49.59602" lon="3.42097">
        <ele>116.6</ele>
        <time>2023-08-06T18:12:35Z</time>
      </trkpt>
      <trkpt lat="49.59602" lon="3.42097">
        <ele>116.6</ele>
        <time>2023-08-06T18:12:36Z</time>
      </trkpt>
      <trkpt lat="49.59601" lon="3.42109">
        <ele>116.6</ele>
        <time>2023-08-06T18:12:37Z</time>
      </trkpt>
      <trkpt lat="49.59597" lon="3.42125">
        <ele>116.4</ele>
        <time>2023-08-06T18:12:40Z</time>
      </trkpt>
      <trkpt lat="49.59597" lon="3.42131">
        <ele>116.2</ele>
        <time>2023-08-06T18:12:41Z</time>
      </trkpt>
      <trkpt lat="49.59597" lon="3.42134">
        <ele>116</ele>
        <time>2023-08-06T18:12:42Z</time>
      </trkpt>
      <trkpt lat="49.59597" lon="3.42134">
        <ele>116</ele>
        <time>2023-08-06T18:12:43Z</time>
      </trkpt>
      <trkpt lat="49.59597" lon="3.42141">
        <ele>115.8</ele>
        <time>2023-08-06T18:12:44Z</time>
      </trkpt>
      <trkpt lat="49.59599" lon="3.42143">
        <ele>115.6</ele>
        <time>2023-08-06T18:12:45Z</time>
      </trkpt>
      <trkpt lat="49.59599" lon="3.42145">
        <ele>115.6</ele>
        <time>2023-08-06T18:12:46Z</time>
      </trkpt>
      <trkpt lat="49.59599" lon="3.42148">
        <ele>115.4</ele>
        <time>2023-08-06T18:12:47Z</time>
      </trkpt>
      <trkpt lat="49.59598" lon="3.42151">
        <ele>115.2</ele>
        <time>2023-08-06T18:12:48Z</time>
      </trkpt>
      <trkpt lat="49.59599" lon="3.42151">
        <ele>115</ele>
        <time>2023-08-06T18:12:50Z</time>
      </trkpt>
      <trkpt lat="49.59593" lon="3.4216">
        <ele>114.4</ele>
        <time>2023-08-06T18:12:56Z</time>
      </trkpt>
      <trkpt lat="49.59592" lon="3.42166">
        <ele>114.2</ele>
        <time>2023-08-06T18:12:58Z</time>
      </trkpt>
      <trkpt lat="49.59592" lon="3.42169">
        <ele>114.2</ele>
        <time>2023-08-06T18:12:59Z</time>
      </trkpt>
      <trkpt lat="49.59591" lon="3.42173">
        <ele>114</ele>
        <time>2023-08-06T18:13:01Z</time>
      </trkpt>
      <trkpt lat="49.5959" lon="3.42176">
        <ele>114</ele>
        <time>2023-08-06T18:13:02Z</time>
      </trkpt>
      <trkpt lat="49.59589" lon="3.42179">
        <ele>114</ele>
        <time>2023-08-06T18:13:03Z</time>
      </trkpt>
      <trkpt lat="49.59589" lon="3.42188">
        <ele>113.8</ele>
        <time>2023-08-06T18:13:06Z</time>
      </trkpt>
      <trkpt lat="49.5959" lon="3.42191">
        <ele>113.8</ele>
        <time>2023-08-06T18:13:07Z</time>
      </trkpt>
      <trkpt lat="49.59589" lon="3.42198">
        <ele>113.4</ele>
        <time>2023-08-06T18:13:10Z</time>
      </trkpt>
      <trkpt lat="49.59588" lon="3.42201">
        <ele>113.2</ele>
        <time>2023-08-06T18:13:12Z</time>
      </trkpt>
      <trkpt lat="49.59588" lon="3.42203">
        <ele>113</ele>
        <time>2023-08-06T18:13:13Z</time>
      </trkpt>
      <trkpt lat="49.59589" lon="3.42206">
        <ele>113</ele>
        <time>2023-08-06T18:13:14Z</time>
      </trkpt>
      <trkpt lat="49.5959" lon="3.42206">
        <ele>112.8</ele>
        <time>2023-08-06T18:13:15Z</time>
      </trkpt>
      <trkpt lat="49.5959" lon="3.42206">
        <ele>112.8</ele>
        <time>2023-08-06T18:13:17Z</time>
      </trkpt>
      <trkpt lat="49.59593" lon="3.42194">
        <ele>112.6</ele>
        <time>2023-08-06T18:13:25Z</time>
      </trkpt>
      <trkpt lat="49.59594" lon="3.42191">
        <ele>112.6</ele>
        <time>2023-08-06T18:13:26Z</time>
      </trkpt>
      <trkpt lat="49.59594" lon="3.42191">
        <ele>112.6</ele>
        <time>2023-08-06T18:13:27Z</time>
      </trkpt>
      <trkpt lat="49.59595" lon="3.42185">
        <ele>112.6</ele>
        <time>2023-08-06T18:13:28Z</time>
      </trkpt>
      <trkpt lat="49.59598" lon="3.42171">
        <ele>113.2</ele>
        <time>2023-08-06T18:13:35Z</time>
      </trkpt>
      <trkpt lat="49.59599" lon="3.42171">
        <ele>113.2</ele>
        <time>2023-08-06T18:13:36Z</time>
      </trkpt>
      <trkpt lat="49.596" lon="3.42172">
        <ele>113.4</ele>
        <time>2023-08-06T18:13:37Z</time>
      </trkpt>
      <trkpt lat="49.596" lon="3.42172">
        <ele>113.6</ele>
        <time>2023-08-06T18:13:38Z</time>
      </trkpt>
      <trkpt lat="49.59601" lon="3.42173">
        <ele>113.6</ele>
        <time>2023-08-06T18:13:39Z</time>
      </trkpt>
      <trkpt lat="49.59601" lon="3.42174">
        <ele>113.6</ele>
        <time>2023-08-06T18:13:40Z</time>
      </trkpt>
      <trkpt lat="49.59602" lon="3.42175">
        <ele>113.6</ele>
        <time>2023-08-06T18:13:41Z</time>
      </trkpt>
      <trkpt lat="49.59602" lon="3.42175">
        <ele>113.8</ele>
        <time>2023-08-06T18:13:43Z</time>
      </trkpt>
      <trkpt lat="49.59639" lon="3.42208">
        <ele>112.6</ele>
        <time>2023-08-06T18:14:40Z</time>
      </trkpt>
      <trkpt lat="49.59639" lon="3.42212">
        <ele>112.6</ele>
        <time>2023-08-06T18:14:41Z</time>
      </trkpt>
      <trkpt lat="49.59638" lon="3.42215">
        <ele>112.4</ele>
        <time>2023-08-06T18:14:42Z</time>
      </trkpt>
      <trkpt lat="49.59638" lon="3.42224">
        <ele>111.8</ele>
        <time>2023-08-06T18:14:45Z</time>
      </trkpt>
      <trkpt lat="49.59638" lon="3.42228">
        <ele>111.6</ele>
        <time>2023-08-06T18:14:46Z</time>
      </trkpt>
      <trkpt lat="49.59638" lon="3.42231">
        <ele>111.2</ele>
        <time>2023-08-06T18:14:47Z</time>
      </trkpt>
      <trkpt lat="49.59638" lon="3.42231">
        <ele>110.8</ele>
        <time>2023-08-06T18:14:48Z</time>
      </trkpt>
      <trkpt lat="49.59636" lon="3.42238">
        <ele>110.4</ele>
        <time>2023-08-06T18:14:49Z</time>
      </trkpt>
      <trkpt lat="49.59637" lon="3.42244">
        <ele>110</ele>
        <time>2023-08-06T18:14:50Z</time>
      </trkpt>
      <trkpt lat="49.59638" lon="3.42249">
        <ele>109.6</ele>
        <time>2023-08-06T18:14:51Z</time>
      </trkpt>
      <trkpt lat="49.5964" lon="3.42258">
        <ele>108.8</ele>
        <time>2023-08-06T18:14:53Z</time>
      </trkpt>
      <trkpt lat="49.59643" lon="3.4226">
        <ele>108.6</ele>
        <time>2023-08-06T18:14:54Z</time>
      </trkpt>
      <trkpt lat="49.59645" lon="3.4226">
        <ele>108.4</ele>
        <time>2023-08-06T18:14:55Z</time>
      </trkpt>
      <trkpt lat="49.59648" lon="3.42259">
        <ele>107.6</ele>
        <time>2023-08-06T18:14:56Z</time>
      </trkpt>
      <trkpt lat="49.59652" lon="3.42257">
        <ele>107.2</ele>
        <time>2023-08-06T18:14:57Z</time>
      </trkpt>
      <trkpt lat="49.5966" lon="3.42253">
        <ele>106.2</ele>
        <time>2023-08-06T18:15:01Z</time>
      </trkpt>
      <trkpt lat="49.59662" lon="3.42252">
        <ele>105.8</ele>
        <time>2023-08-06T18:15:02Z</time>
      </trkpt>
      <trkpt lat="49.59666" lon="3.42252">
        <ele>105.4</ele>
        <time>2023-08-06T18:15:04Z</time>
      </trkpt>
      <trkpt lat="49.59668" lon="3.42255">
        <ele>105</ele>
        <time>2023-08-06T18:15:05Z</time>
      </trkpt>
      <trkpt lat="49.59668" lon="3.42258">
        <ele>104.8</ele>
        <time>2023-08-06T18:15:06Z</time>
      </trkpt>
      <trkpt lat="49.59668" lon="3.4226">
        <ele>104.6</ele>
        <time>2023-08-06T18:15:07Z</time>
      </trkpt>
      <trkpt lat="49.59665" lon="3.42265">
        <ele>104.2</ele>
        <time>2023-08-06T18:15:09Z</time>
      </trkpt>
      <trkpt lat="49.59664" lon="3.42267">
        <ele>104</ele>
        <time>2023-08-06T18:15:10Z</time>
      </trkpt>
      <trkpt lat="49.59664" lon="3.42268">
        <ele>103.4</ele>
        <time>2023-08-06T18:15:11Z</time>
      </trkpt>
      <trkpt lat="49.59662" lon="3.42274">
        <ele>102.8</ele>
        <time>2023-08-06T18:15:13Z</time>
      </trkpt>
      <trkpt lat="49.59661" lon="3.42276">
        <ele>102.4</ele>
        <time>2023-08-06T18:15:14Z</time>
      </trkpt>
      <trkpt lat="49.5966" lon="3.42282">
        <ele>101.8</ele>
        <time>2023-08-06T18:15:16Z</time>
      </trkpt>
      <trkpt lat="49.59658" lon="3.42289">
        <ele>100.6</ele>
        <time>2023-08-06T18:15:19Z</time>
      </trkpt>
      <trkpt lat="49.59657" lon="3.4229">
        <ele>100.2</ele>
        <time>2023-08-06T18:15:20Z</time>
      </trkpt>
      <trkpt lat="49.59655" lon="3.42292">
        <ele>99.6</ele>
        <time>2023-08-06T18:15:21Z</time>
      </trkpt>
      <trkpt lat="49.59655" lon="3.42294">
        <ele>99.4</ele>
        <time>2023-08-06T18:15:22Z</time>
      </trkpt>
      <trkpt lat="49.59656" lon="3.42295">
        <ele>99</ele>
        <time>2023-08-06T18:15:23Z</time>
      </trkpt>
      <trkpt lat="49.59657" lon="3.42296">
        <ele>98.6</ele>
        <time>2023-08-06T18:15:24Z</time>
      </trkpt>
      <trkpt lat="49.59658" lon="3.42296">
        <ele>97.8</ele>
        <time>2023-08-06T18:15:25Z</time>
      </trkpt>
      <trkpt lat="49.59659" lon="3.42296">
        <ele>97.6</ele>
        <time>2023-08-06T18:15:26Z</time>
      </trkpt>
      <trkpt lat="49.5966" lon="3.42295">
        <ele>96.8</ele>
        <time>2023-08-06T18:15:27Z</time>
      </trkpt>
      <trkpt lat="49.59662" lon="3.42294">
        <ele>96.4</ele>
        <time>2023-08-06T18:15:28Z</time>
      </trkpt>
      <trkpt lat="49.59664" lon="3.42293">
        <ele>96.2</ele>
        <time>2023-08-06T18:15:29Z</time>
      </trkpt>
      <trkpt lat="49.59666" lon="3.4229">
        <ele>95.6</ele>
        <time>2023-08-06T18:15:31Z</time>
      </trkpt>
      <trkpt lat="49.59672" lon="3.42282">
        <ele>95</ele>
        <time>2023-08-06T18:15:35Z</time>
      </trkpt>
      <trkpt lat="49.59674" lon="3.42281">
        <ele>95</ele>
        <time>2023-08-06T18:15:36Z</time>
      </trkpt>
      <trkpt lat="49.59676" lon="3.4228">
        <ele>95</ele>
        <time>2023-08-06T18:15:37Z</time>
      </trkpt>
      <trkpt lat="49.59679" lon="3.42279">
        <ele>94.8</ele>
        <time>2023-08-06T18:15:38Z</time>
      </trkpt>
      <trkpt lat="49.59682" lon="3.42277">
        <ele>94.8</ele>
        <time>2023-08-06T18:15:39Z</time>
      </trkpt>
      <trkpt lat="49.59693" lon="3.42271">
        <ele>94.6</ele>
        <time>2023-08-06T18:15:44Z</time>
      </trkpt>
      <trkpt lat="49.59695" lon="3.42272">
        <ele>94.6</ele>
        <time>2023-08-06T18:15:45Z</time>
      </trkpt>
      <trkpt lat="49.59697" lon="3.42273">
        <ele>94.6</ele>
        <time>2023-08-06T18:15:46Z</time>
      </trkpt>
      <trkpt lat="49.59698" lon="3.42275">
        <ele>94.6</ele>
        <time>2023-08-06T18:15:47Z</time>
      </trkpt>
      <trkpt lat="49.59699" lon="3.42278">
        <ele>94.6</ele>
        <time>2023-08-06T18:15:48Z</time>
      </trkpt>
      <trkpt lat="49.597" lon="3.42281">
        <ele>94.6</ele>
        <time>2023-08-06T18:15:49Z</time>
      </trkpt>
      <trkpt lat="49.59701" lon="3.42285">
        <ele>94.6</ele>
        <time>2023-08-06T18:15:50Z</time>
      </trkpt>
      <trkpt lat="49.59703" lon="3.42288">
        <ele>94.6</ele>
        <time>2023-08-06T18:15:51Z</time>
      </trkpt>
      <trkpt lat="49.59706" lon="3.42291">
        <ele>94.6</ele>
        <time>2023-08-06T18:15:52Z</time>
      </trkpt>
      <trkpt lat="49.59709" lon="3.42293">
        <ele>94.4</ele>
        <time>2023-08-06T18:15:53Z</time>
      </trkpt>
      <trkpt lat="49.59712" lon="3.42294">
        <ele>94.4</ele>
        <time>2023-08-06T18:15:54Z</time>
      </trkpt>
      <trkpt lat="49.59715" lon="3.42295">
        <ele>94.2</ele>
        <time>2023-08-06T18:15:55Z</time>
      </trkpt>
      <trkpt lat="49.59719" lon="3.42297">
        <ele>94</ele>
        <time>2023-08-06T18:15:56Z</time>
      </trkpt>
      <trkpt lat="49.59725" lon="3.42298">
        <ele>93.6</ele>
        <time>2023-08-06T18:15:58Z</time>
      </trkpt>
      <trkpt lat="49.59732" lon="3.423">
        <ele>93</ele>
        <time>2023-08-06T18:16:00Z</time>
      </trkpt>
      <trkpt lat="49.59735" lon="3.42297">
        <ele>93</ele>
        <time>2023-08-06T18:16:01Z</time>
      </trkpt>
      <trkpt lat="49.59737" lon="3.42296">
        <ele>92.8</ele>
        <time>2023-08-06T18:16:02Z</time>
      </trkpt>
      <trkpt lat="49.59739" lon="3.42294">
        <ele>92.6</ele>
        <time>2023-08-06T18:16:03Z</time>
      </trkpt>
      <trkpt lat="49.59744" lon="3.42292">
        <ele>92.6</ele>
        <time>2023-08-06T18:16:04Z</time>
      </trkpt>
      <trkpt lat="49.59751" lon="3.42289">
        <ele>92.4</ele>
        <time>2023-08-06T18:16:06Z</time>
      </trkpt>
      <trkpt lat="49.59753" lon="3.42288">
        <ele>92.2</ele>
        <time>2023-08-06T18:16:07Z</time>
      </trkpt>
      <trkpt lat="49.59754" lon="3.42287">
        <ele>92</ele>
        <time>2023-08-06T18:16:08Z</time>
      </trkpt>
      <trkpt lat="49.59756" lon="3.42284">
        <ele>91.8</ele>
        <time>2023-08-06T18:16:09Z</time>
      </trkpt>
      <trkpt lat="49.59758" lon="3.42284">
        <ele>91.8</ele>
        <time>2023-08-06T18:16:10Z</time>
      </trkpt>
      <trkpt lat="49.59758" lon="3.42284">
        <ele>91.6</ele>
        <time>2023-08-06T18:16:11Z</time>
      </trkpt>
      <trkpt lat="49.59758" lon="3.42284">
        <ele>91.6</ele>
        <time>2023-08-06T18:16:13Z</time>
      </trkpt>
      <trkpt lat="49.59772" lon="3.42279">
        <ele>90.6</ele>
        <time>2023-08-06T18:16:59Z</time>
      </trkpt>
      <trkpt lat="49.59776" lon="3.42279">
        <ele>90.4</ele>
        <time>2023-08-06T18:17:01Z</time>
      </trkpt>
      <trkpt lat="49.59777" lon="3.4228">
        <ele>90.4</ele>
        <time>2023-08-06T18:17:02Z</time>
      </trkpt>
      <trkpt lat="49.59779" lon="3.42279">
        <ele>90.2</ele>
        <time>2023-08-06T18:17:03Z</time>
      </trkpt>
      <trkpt lat="49.59786" lon="3.42281">
        <ele>90</ele>
        <time>2023-08-06T18:17:07Z</time>
      </trkpt>
      <trkpt lat="49.59788" lon="3.42281">
        <ele>89.8</ele>
        <time>2023-08-06T18:17:08Z</time>
      </trkpt>
      <trkpt lat="49.59789" lon="3.42282">
        <ele>89.8</ele>
        <time>2023-08-06T18:17:09Z</time>
      </trkpt>
      <trkpt lat="49.59791" lon="3.42283">
        <ele>89.8</ele>
        <time>2023-08-06T18:17:10Z</time>
      </trkpt>
      <trkpt lat="49.59793" lon="3.42284">
        <ele>89.8</ele>
        <time>2023-08-06T18:17:11Z</time>
      </trkpt>
      <trkpt lat="49.59795" lon="3.42285">
        <ele>89.8</ele>
        <time>2023-08-06T18:17:12Z</time>
      </trkpt>
      <trkpt lat="49.59807" lon="3.42296">
        <ele>89.6</ele>
        <time>2023-08-06T18:17:18Z</time>
      </trkpt>
      <trkpt lat="49.59813" lon="3.423">
        <ele>89.6</ele>
        <time>2023-08-06T18:17:20Z</time>
      </trkpt>
      <trkpt lat="49.59821" lon="3.42311">
        <ele>89.4</ele>
        <time>2023-08-06T18:17:24Z</time>
      </trkpt>
      <trkpt lat="49.59823" lon="3.42313">
        <ele>89.4</ele>
        <time>2023-08-06T18:17:25Z</time>
      </trkpt>
      <trkpt lat="49.59825" lon="3.42315">
        <ele>89.4</ele>
        <time>2023-08-06T18:17:26Z</time>
      </trkpt>
      <trkpt lat="49.59826" lon="3.42316">
        <ele>89.2</ele>
        <time>2023-08-06T18:17:27Z</time>
      </trkpt>
      <trkpt lat="49.59829" lon="3.42319">
        <ele>89.2</ele>
        <time>2023-08-06T18:17:28Z</time>
      </trkpt>
      <trkpt lat="49.59831" lon="3.42319">
        <ele>89.2</ele>
        <time>2023-08-06T18:17:29Z</time>
      </trkpt>
      <trkpt lat="49.59831" lon="3.4232">
        <ele>89.2</ele>
        <time>2023-08-06T18:17:30Z</time>
      </trkpt>
      <trkpt lat="49.59832" lon="3.42321">
        <ele>89.2</ele>
        <time>2023-08-06T18:17:31Z</time>
      </trkpt>
      <trkpt lat="49.59833" lon="3.42322">
        <ele>89.2</ele>
        <time>2023-08-06T18:17:32Z</time>
      </trkpt>
      <trkpt lat="49.59835" lon="3.42323">
        <ele>89.2</ele>
        <time>2023-08-06T18:17:33Z</time>
      </trkpt>
      <trkpt lat="49.59837" lon="3.42326">
        <ele>89.2</ele>
        <time>2023-08-06T18:17:34Z</time>
      </trkpt>
      <trkpt lat="49.5984" lon="3.42329">
        <ele>89.2</ele>
        <time>2023-08-06T18:17:35Z</time>
      </trkpt>
      <trkpt lat="49.59842" lon="3.42331">
        <ele>89.2</ele>
        <time>2023-08-06T18:17:36Z</time>
      </trkpt>
      <trkpt lat="49.59857" lon="3.42352">
        <ele>89.2</ele>
        <time>2023-08-06T18:17:42Z</time>
      </trkpt>
      <trkpt lat="49.59859" lon="3.42355">
        <ele>89</ele>
        <time>2023-08-06T18:17:43Z</time>
      </trkpt>
      <trkpt lat="49.59862" lon="3.42359">
        <ele>89</ele>
        <time>2023-08-06T18:17:44Z</time>
      </trkpt>
      <trkpt lat="49.59864" lon="3.42362">
        <ele>89</ele>
        <time>2023-08-06T18:17:45Z</time>
      </trkpt>
      <trkpt lat="49.59871" lon="3.42374">
        <ele>89</ele>
        <time>2023-08-06T18:17:48Z</time>
      </trkpt>
      <trkpt lat="49.59875" lon="3.42382">
        <ele>88.8</ele>
        <time>2023-08-06T18:17:50Z</time>
      </trkpt>
      <trkpt lat="49.59876" lon="3.42385">
        <ele>88.8</ele>
        <time>2023-08-06T18:17:51Z</time>
      </trkpt>
      <trkpt lat="49.59877" lon="3.42388">
        <ele>88.4</ele>
        <time>2023-08-06T18:17:52Z</time>
      </trkpt>
      <trkpt lat="49.59878" lon="3.42391">
        <ele>88.4</ele>
        <time>2023-08-06T18:17:53Z</time>
      </trkpt>
      <trkpt lat="49.59878" lon="3.42395">
        <ele>88.2</ele>
        <time>2023-08-06T18:17:54Z</time>
      </trkpt>
      <trkpt lat="49.5988" lon="3.42402">
        <ele>88</ele>
        <time>2023-08-06T18:17:56Z</time>
      </trkpt>
      <trkpt lat="49.59883" lon="3.42405">
        <ele>87.8</ele>
        <time>2023-08-06T18:17:57Z</time>
      </trkpt>
      <trkpt lat="49.59884" lon="3.4241">
        <ele>87.8</ele>
        <time>2023-08-06T18:17:58Z</time>
      </trkpt>
      <trkpt lat="49.59889" lon="3.42425">
        <ele>87.2</ele>
        <time>2023-08-06T18:18:00Z</time>
      </trkpt>
      <trkpt lat="49.59898" lon="3.42439">
        <ele>85.6</ele>
        <time>2023-08-06T18:18:03Z</time>
      </trkpt>
      <trkpt lat="49.599" lon="3.42442">
        <ele>85.4</ele>
        <time>2023-08-06T18:18:04Z</time>
      </trkpt>
      <trkpt lat="49.59903" lon="3.42446">
        <ele>85</ele>
        <time>2023-08-06T18:18:05Z</time>
      </trkpt>
      <trkpt lat="49.59904" lon="3.42451">
        <ele>84.6</ele>
        <time>2023-08-06T18:18:06Z</time>
      </trkpt>
      <trkpt lat="49.59906" lon="3.42455">
        <ele>84.4</ele>
        <time>2023-08-06T18:18:07Z</time>
      </trkpt>
      <trkpt lat="49.59907" lon="3.42459">
        <ele>83.6</ele>
        <time>2023-08-06T18:18:08Z</time>
      </trkpt>
      <trkpt lat="49.59907" lon="3.42462">
        <ele>83.2</ele>
        <time>2023-08-06T18:18:09Z</time>
      </trkpt>
      <trkpt lat="49.59906" lon="3.42465">
        <ele>82.4</ele>
        <time>2023-08-06T18:18:10Z</time>
      </trkpt>
      <trkpt lat="49.59907" lon="3.42468">
        <ele>82.2</ele>
        <time>2023-08-06T18:18:11Z</time>
      </trkpt>
      <trkpt lat="49.59907" lon="3.42471">
        <ele>81.4</ele>
        <time>2023-08-06T18:18:12Z</time>
      </trkpt>
      <trkpt lat="49.59908" lon="3.42473">
        <ele>80.8</ele>
        <time>2023-08-06T18:18:13Z</time>
      </trkpt>
      <trkpt lat="49.59909" lon="3.42479">
        <ele>80.6</ele>
        <time>2023-08-06T18:18:14Z</time>
      </trkpt>
      <trkpt lat="49.59909" lon="3.42486">
        <ele>80</ele>
        <time>2023-08-06T18:18:15Z</time>
      </trkpt>
      <trkpt lat="49.59908" lon="3.4249">
        <ele>79.8</ele>
        <time>2023-08-06T18:18:16Z</time>
      </trkpt>
      <trkpt lat="49.59909" lon="3.42494">
        <ele>79.2</ele>
        <time>2023-08-06T18:18:17Z</time>
      </trkpt>
      <trkpt lat="49.59909" lon="3.42499">
        <ele>79</ele>
        <time>2023-08-06T18:18:18Z</time>
      </trkpt>
      <trkpt lat="49.59909" lon="3.42504">
        <ele>77.8</ele>
        <time>2023-08-06T18:18:19Z</time>
      </trkpt>
      <trkpt lat="49.59909" lon="3.42508">
        <ele>77.6</ele>
        <time>2023-08-06T18:18:20Z</time>
      </trkpt>
      <trkpt lat="49.59912" lon="3.42517">
        <ele>76.4</ele>
        <time>2023-08-06T18:18:22Z</time>
      </trkpt>
      <trkpt lat="49.59913" lon="3.42522">
        <ele>75.6</ele>
        <time>2023-08-06T18:18:23Z</time>
      </trkpt>
      <trkpt lat="49.59913" lon="3.42527">
        <ele>74.6</ele>
        <time>2023-08-06T18:18:24Z</time>
      </trkpt>
      <trkpt lat="49.59911" lon="3.42539">
        <ele>73.6</ele>
        <time>2023-08-06T18:18:26Z</time>
      </trkpt>
      <trkpt lat="49.59912" lon="3.42544">
        <ele>73</ele>
        <time>2023-08-06T18:18:27Z</time>
      </trkpt>
      <trkpt lat="49.59913" lon="3.42549">
        <ele>71.8</ele>
        <time>2023-08-06T18:18:28Z</time>
      </trkpt>
      <trkpt lat="49.59914" lon="3.42553">
        <ele>71</ele>
        <time>2023-08-06T18:18:29Z</time>
      </trkpt>
      <trkpt lat="49.59913" lon="3.42557">
        <ele>70.6</ele>
        <time>2023-08-06T18:18:30Z</time>
      </trkpt>
      <trkpt lat="49.59913" lon="3.42561">
        <ele>69.6</ele>
        <time>2023-08-06T18:18:31Z</time>
      </trkpt>
      <trkpt lat="49.59912" lon="3.42566">
        <ele>69.2</ele>
        <time>2023-08-06T18:18:32Z</time>
      </trkpt>
      <trkpt lat="49.59913" lon="3.42571">
        <ele>68.4</ele>
        <time>2023-08-06T18:18:33Z</time>
      </trkpt>
      <trkpt lat="49.59913" lon="3.42574">
        <ele>68</ele>
        <time>2023-08-06T18:18:34Z</time>
      </trkpt>
      <trkpt lat="49.59915" lon="3.42577">
        <ele>67.6</ele>
        <time>2023-08-06T18:18:35Z</time>
      </trkpt>
      <trkpt lat="49.59916" lon="3.42583">
        <ele>67.4</ele>
        <time>2023-08-06T18:18:36Z</time>
      </trkpt>
      <trkpt lat="49.59915" lon="3.42587">
        <ele>66.8</ele>
        <time>2023-08-06T18:18:37Z</time>
      </trkpt>
      <trkpt lat="49.59915" lon="3.42591">
        <ele>66.2</ele>
        <time>2023-08-06T18:18:38Z</time>
      </trkpt>
      <trkpt lat="49.59915" lon="3.42594">
        <ele>66</ele>
        <time>2023-08-06T18:18:39Z</time>
      </trkpt>
      <trkpt lat="49.59915" lon="3.42598">
        <ele>65.4</ele>
        <time>2023-08-06T18:18:40Z</time>
      </trkpt>
      <trkpt lat="49.59918" lon="3.42605">
        <ele>64.8</ele>
        <time>2023-08-06T18:18:41Z</time>
      </trkpt>
      <trkpt lat="49.59921" lon="3.4261">
        <ele>64.4</ele>
        <time>2023-08-06T18:18:42Z</time>
      </trkpt>
      <trkpt lat="49.59924" lon="3.42616">
        <ele>64.2</ele>
        <time>2023-08-06T18:18:43Z</time>
      </trkpt>
      <trkpt lat="49.59924" lon="3.4262">
        <ele>63.8</ele>
        <time>2023-08-06T18:18:44Z</time>
      </trkpt>
      <trkpt lat="49.59924" lon="3.42625">
        <ele>63</ele>
        <time>2023-08-06T18:18:45Z</time>
      </trkpt>
      <trkpt lat="49.59927" lon="3.4263">
        <ele>62.6</ele>
        <time>2023-08-06T18:18:46Z</time>
      </trkpt>
      <trkpt lat="49.5993" lon="3.42634">
        <ele>62</ele>
        <time>2023-08-06T18:18:47Z</time>
      </trkpt>
      <trkpt lat="49.59932" lon="3.42638">
        <ele>62</ele>
        <time>2023-08-06T18:18:48Z</time>
      </trkpt>
      <trkpt lat="49.59934" lon="3.42642">
        <ele>61.4</ele>
        <time>2023-08-06T18:18:49Z</time>
      </trkpt>
      <trkpt lat="49.59938" lon="3.4265">
        <ele>60.6</ele>
        <time>2023-08-06T18:18:51Z</time>
      </trkpt>
      <trkpt lat="49.59939" lon="3.42654">
        <ele>60.2</ele>
        <time>2023-08-06T18:18:52Z</time>
      </trkpt>
      <trkpt lat="49.59942" lon="3.42662">
        <ele>59.2</ele>
        <time>2023-08-06T18:18:54Z</time>
      </trkpt>
      <trkpt lat="49.59942" lon="3.42671">
        <ele>58.8</ele>
        <time>2023-08-06T18:18:56Z</time>
      </trkpt>
      <trkpt lat="49.59942" lon="3.42675">
        <ele>58.6</ele>
        <time>2023-08-06T18:18:57Z</time>
      </trkpt>
      <trkpt lat="49.59944" lon="3.42679">
        <ele>58</ele>
        <time>2023-08-06T18:18:58Z</time>
      </trkpt>
      <trkpt lat="49.59946" lon="3.42682">
        <ele>57.8</ele>
        <time>2023-08-06T18:18:59Z</time>
      </trkpt>
      <trkpt lat="49.59948" lon="3.42685">
        <ele>57.4</ele>
        <time>2023-08-06T18:19:00Z</time>
      </trkpt>
      <trkpt lat="49.5995" lon="3.42689">
        <ele>57</ele>
        <time>2023-08-06T18:19:01Z</time>
      </trkpt>
      <trkpt lat="49.59953" lon="3.42695">
        <ele>56.8</ele>
        <time>2023-08-06T18:19:02Z</time>
      </trkpt>
      <trkpt lat="49.59955" lon="3.42698">
        <ele>56.2</ele>
        <time>2023-08-06T18:19:03Z</time>
      </trkpt>
      <trkpt lat="49.59955" lon="3.42701">
        <ele>56</ele>
        <time>2023-08-06T18:19:04Z</time>
      </trkpt>
      <trkpt lat="49.59955" lon="3.42705">
        <ele>55.6</ele>
        <time>2023-08-06T18:19:05Z</time>
      </trkpt>
      <trkpt lat="49.59954" lon="3.4271">
        <ele>55.2</ele>
        <time>2023-08-06T18:19:06Z</time>
      </trkpt>
      <trkpt lat="49.59955" lon="3.42712">
        <ele>54.8</ele>
        <time>2023-08-06T18:19:07Z</time>
      </trkpt>
      <trkpt lat="49.59956" lon="3.42715">
        <ele>54.6</ele>
        <time>2023-08-06T18:19:08Z</time>
      </trkpt>
      <trkpt lat="49.59958" lon="3.42719">
        <ele>54.2</ele>
        <time>2023-08-06T18:19:09Z</time>
      </trkpt>
      <trkpt lat="49.5996" lon="3.42723">
        <ele>53.4</ele>
        <time>2023-08-06T18:19:10Z</time>
      </trkpt>
      <trkpt lat="49.59962" lon="3.42728">
        <ele>53.2</ele>
        <time>2023-08-06T18:19:11Z</time>
      </trkpt>
      <trkpt lat="49.59964" lon="3.4273">
        <ele>52.6</ele>
        <time>2023-08-06T18:19:12Z</time>
      </trkpt>
      <trkpt lat="49.59966" lon="3.42732">
        <ele>52.2</ele>
        <time>2023-08-06T18:19:13Z</time>
      </trkpt>
      <trkpt lat="49.59974" lon="3.42742">
        <ele>51.2</ele>
        <time>2023-08-06T18:19:16Z</time>
      </trkpt>
      <trkpt lat="49.59975" lon="3.42746">
        <ele>51</ele>
        <time>2023-08-06T18:19:17Z</time>
      </trkpt>
      <trkpt lat="49.59977" lon="3.42749">
        <ele>50.8</ele>
        <time>2023-08-06T18:19:18Z</time>
      </trkpt>
      <trkpt lat="49.59986" lon="3.42758">
        <ele>50</ele>
        <time>2023-08-06T18:19:21Z</time>
      </trkpt>
      <trkpt lat="49.59988" lon="3.4276">
        <ele>49.8</ele>
        <time>2023-08-06T18:19:22Z</time>
      </trkpt>
      <trkpt lat="49.59991" lon="3.42767">
        <ele>49</ele>
        <time>2023-08-06T18:19:24Z</time>
      </trkpt>
      <trkpt lat="49.59991" lon="3.42771">
        <ele>48.8</ele>
        <time>2023-08-06T18:19:25Z</time>
      </trkpt>
      <trkpt lat="49.59989" lon="3.42774">
        <ele>48.6</ele>
        <time>2023-08-06T18:19:26Z</time>
      </trkpt>
      <trkpt lat="49.59988" lon="3.42778">
        <ele>48.4</ele>
        <time>2023-08-06T18:19:27Z</time>
      </trkpt>
      <trkpt lat="49.59987" lon="3.42783">
        <ele>48</ele>
        <time>2023-08-06T18:19:28Z</time>
      </trkpt>
      <trkpt lat="49.59981" lon="3.42792">
        <ele>47.2</ele>
        <time>2023-08-06T18:19:31Z</time>
      </trkpt>
      <trkpt lat="49.59978" lon="3.42794">
        <ele>46.8</ele>
        <time>2023-08-06T18:19:32Z</time>
      </trkpt>
      <trkpt lat="49.59976" lon="3.42795">
        <ele>46.6</ele>
        <time>2023-08-06T18:19:33Z</time>
      </trkpt>
      <trkpt lat="49.59974" lon="3.42796">
        <ele>46.6</ele>
        <time>2023-08-06T18:19:34Z</time>
      </trkpt>
      <trkpt lat="49.59972" lon="3.42798">
        <ele>46.4</ele>
        <time>2023-08-06T18:19:35Z</time>
      </trkpt>
      <trkpt lat="49.5997" lon="3.42799">
        <ele>46.4</ele>
        <time>2023-08-06T18:19:36Z</time>
      </trkpt>
      <trkpt lat="49.59968" lon="3.428">
        <ele>46.2</ele>
        <time>2023-08-06T18:19:37Z</time>
      </trkpt>
      <trkpt lat="49.59967" lon="3.42802">
        <ele>46.2</ele>
        <time>2023-08-06T18:19:38Z</time>
      </trkpt>
      <trkpt lat="49.59964" lon="3.42803">
        <ele>46.2</ele>
        <time>2023-08-06T18:19:39Z</time>
      </trkpt>
      <trkpt lat="49.59962" lon="3.42805">
        <ele>46</ele>
        <time>2023-08-06T18:19:40Z</time>
      </trkpt>
      <trkpt lat="49.5996" lon="3.42806">
        <ele>46</ele>
        <time>2023-08-06T18:19:41Z</time>
      </trkpt>
      <trkpt lat="49.59947" lon="3.42814">
        <ele>45.8</ele>
        <time>2023-08-06T18:19:46Z</time>
      </trkpt>
      <trkpt lat="49.59928" lon="3.42836">
        <ele>45.8</ele>
        <time>2023-08-06T18:19:55Z</time>
      </trkpt>
      <trkpt lat="49.59927" lon="3.42839">
        <ele>45.8</ele>
        <time>2023-08-06T18:19:56Z</time>
      </trkpt>
      <trkpt lat="49.59924" lon="3.42841">
        <ele>45.8</ele>
        <time>2023-08-06T18:19:57Z</time>
      </trkpt>
      <trkpt lat="49.59922" lon="3.42844">
        <ele>45.8</ele>
        <time>2023-08-06T18:19:58Z</time>
      </trkpt>
      <trkpt lat="49.59916" lon="3.42854">
        <ele>45.8</ele>
        <time>2023-08-06T18:20:01Z</time>
      </trkpt>
      <trkpt lat="49.59899" lon="3.42885">
        <ele>45.4</ele>
        <time>2023-08-06T18:20:09Z</time>
      </trkpt>
      <trkpt lat="49.59885" lon="3.42905">
        <ele>44.8</ele>
        <time>2023-08-06T18:20:14Z</time>
      </trkpt>
      <trkpt lat="49.59862" lon="3.42933">
        <ele>43.8</ele>
        <time>2023-08-06T18:20:21Z</time>
      </trkpt>
      <trkpt lat="49.59854" lon="3.42941">
        <ele>43.6</ele>
        <time>2023-08-06T18:20:23Z</time>
      </trkpt>
      <trkpt lat="49.5984" lon="3.42952">
        <ele>43</ele>
        <time>2023-08-06T18:20:26Z</time>
      </trkpt>
      <trkpt lat="49.59836" lon="3.42955">
        <ele>42.4</ele>
        <time>2023-08-06T18:20:27Z</time>
      </trkpt>
      <trkpt lat="49.59816" lon="3.42965">
        <ele>41.4</ele>
        <time>2023-08-06T18:20:31Z</time>
      </trkpt>
      <trkpt lat="49.598" lon="3.42972">
        <ele>40.2</ele>
        <time>2023-08-06T18:20:34Z</time>
      </trkpt>
      <trkpt lat="49.59789" lon="3.42976">
        <ele>39.6</ele>
        <time>2023-08-06T18:20:36Z</time>
      </trkpt>
      <trkpt lat="49.59783" lon="3.42976">
        <ele>38.8</ele>
        <time>2023-08-06T18:20:37Z</time>
      </trkpt>
      <trkpt lat="49.59778" lon="3.42975">
        <ele>38.4</ele>
        <time>2023-08-06T18:20:38Z</time>
      </trkpt>
      <trkpt lat="49.59773" lon="3.42972">
        <ele>38</ele>
        <time>2023-08-06T18:20:39Z</time>
      </trkpt>
      <trkpt lat="49.59768" lon="3.42968">
        <ele>37.8</ele>
        <time>2023-08-06T18:20:40Z</time>
      </trkpt>
      <trkpt lat="49.59764" lon="3.42962">
        <ele>37.4</ele>
        <time>2023-08-06T18:20:41Z</time>
      </trkpt>
      <trkpt lat="49.5976" lon="3.42957">
        <ele>37.2</ele>
        <time>2023-08-06T18:20:42Z</time>
      </trkpt>
      <trkpt lat="49.59757" lon="3.42951">
        <ele>36.6</ele>
        <time>2023-08-06T18:20:43Z</time>
      </trkpt>
      <trkpt lat="49.59753" lon="3.42945">
        <ele>36.2</ele>
        <time>2023-08-06T18:20:44Z</time>
      </trkpt>
      <trkpt lat="49.59739" lon="3.42919">
        <ele>35</ele>
        <time>2023-08-06T18:20:48Z</time>
      </trkpt>
      <trkpt lat="49.59724" lon="3.42897">
        <ele>34.8</ele>
        <time>2023-08-06T18:20:52Z</time>
      </trkpt>
      <trkpt lat="49.59715" lon="3.42888">
        <ele>34.6</ele>
        <time>2023-08-06T18:20:54Z</time>
      </trkpt>
      <trkpt lat="49.59702" lon="3.42879">
        <ele>34.4</ele>
        <time>2023-08-06T18:20:57Z</time>
      </trkpt>
      <trkpt lat="49.59702" lon="3.42879">
        <ele>34.4</ele>
        <time>2023-08-06T18:20:58Z</time>
      </trkpt>
      <trkpt lat="49.59693" lon="3.42875">
        <ele>34.4</ele>
        <time>2023-08-06T18:20:59Z</time>
      </trkpt>
      <trkpt lat="49.59689" lon="3.42874">
        <ele>34.4</ele>
        <time>2023-08-06T18:21:00Z</time>
      </trkpt>
      <trkpt lat="49.59685" lon="3.42873">
        <ele>34.4</ele>
        <time>2023-08-06T18:21:01Z</time>
      </trkpt>
      <trkpt lat="49.5968" lon="3.42873">
        <ele>34.2</ele>
        <time>2023-08-06T18:21:02Z</time>
      </trkpt>
      <trkpt lat="49.59676" lon="3.42874">
        <ele>34.2</ele>
        <time>2023-08-06T18:21:03Z</time>
      </trkpt>
      <trkpt lat="49.59672" lon="3.42875">
        <ele>34.2</ele>
        <time>2023-08-06T18:21:04Z</time>
      </trkpt>
      <trkpt lat="49.59668" lon="3.42876">
        <ele>34.2</ele>
        <time>2023-08-06T18:21:05Z</time>
      </trkpt>
      <trkpt lat="49.59663" lon="3.42878">
        <ele>34.2</ele>
        <time>2023-08-06T18:21:06Z</time>
      </trkpt>
      <trkpt lat="49.59656" lon="3.42885">
        <ele>34.2</ele>
        <time>2023-08-06T18:21:08Z</time>
      </trkpt>
      <trkpt lat="49.59649" lon="3.42894">
        <ele>34.2</ele>
        <time>2023-08-06T18:21:10Z</time>
      </trkpt>
      <trkpt lat="49.59646" lon="3.42899">
        <ele>34</ele>
        <time>2023-08-06T18:21:11Z</time>
      </trkpt>
      <trkpt lat="49.59643" lon="3.42905">
        <ele>34</ele>
        <time>2023-08-06T18:21:12Z</time>
      </trkpt>
      <trkpt lat="49.59641" lon="3.42911">
        <ele>34</ele>
        <time>2023-08-06T18:21:13Z</time>
      </trkpt>
      <trkpt lat="49.59632" lon="3.42935">
        <ele>33.8</ele>
        <time>2023-08-06T18:21:18Z</time>
      </trkpt>
      <trkpt lat="49.59616" lon="3.42974">
        <ele>33.6</ele>
        <time>2023-08-06T18:21:24Z</time>
      </trkpt>
      <trkpt lat="49.59614" lon="3.42979">
        <ele>33.6</ele>
        <time>2023-08-06T18:21:25Z</time>
      </trkpt>
      <trkpt lat="49.59605" lon="3.43001">
        <ele>33.8</ele>
        <time>2023-08-06T18:21:29Z</time>
      </trkpt>
      <trkpt lat="49.59603" lon="3.43007">
        <ele>33.8</ele>
        <time>2023-08-06T18:21:30Z</time>
      </trkpt>
      <trkpt lat="49.59602" lon="3.43012">
        <ele>33.8</ele>
        <time>2023-08-06T18:21:31Z</time>
      </trkpt>
      <trkpt lat="49.596" lon="3.43018">
        <ele>33.8</ele>
        <time>2023-08-06T18:21:32Z</time>
      </trkpt>
      <trkpt lat="49.59598" lon="3.43023">
        <ele>33.8</ele>
        <time>2023-08-06T18:21:33Z</time>
      </trkpt>
      <trkpt lat="49.59596" lon="3.43028">
        <ele>33.8</ele>
        <time>2023-08-06T18:21:34Z</time>
      </trkpt>
      <trkpt lat="49.59595" lon="3.43033">
        <ele>34</ele>
        <time>2023-08-06T18:21:35Z</time>
      </trkpt>
      <trkpt lat="49.59593" lon="3.43038">
        <ele>34</ele>
        <time>2023-08-06T18:21:36Z</time>
      </trkpt>
      <trkpt lat="49.59592" lon="3.43043">
        <ele>34</ele>
        <time>2023-08-06T18:21:37Z</time>
      </trkpt>
      <trkpt lat="49.59592" lon="3.43043">
        <ele>34</ele>
        <time>2023-08-06T18:21:38Z</time>
      </trkpt>
      <trkpt lat="49.5959" lon="3.43054">
        <ele>34.2</ele>
        <time>2023-08-06T18:21:39Z</time>
      </trkpt>
      <trkpt lat="49.59588" lon="3.43059">
        <ele>34.2</ele>
        <time>2023-08-06T18:21:40Z</time>
      </trkpt>
      <trkpt lat="49.59587" lon="3.43064">
        <ele>34.2</ele>
        <time>2023-08-06T18:21:41Z</time>
      </trkpt>
      <trkpt lat="49.59586" lon="3.43069">
        <ele>34.4</ele>
        <time>2023-08-06T18:21:42Z</time>
      </trkpt>
      <trkpt lat="49.59585" lon="3.43074">
        <ele>34.4</ele>
        <time>2023-08-06T18:21:43Z</time>
      </trkpt>
      <trkpt lat="49.59583" lon="3.43078">
        <ele>34.4</ele>
        <time>2023-08-06T18:21:44Z</time>
      </trkpt>
      <trkpt lat="49.59582" lon="3.43081">
        <ele>34.4</ele>
        <time>2023-08-06T18:21:45Z</time>
      </trkpt>
      <trkpt lat="49.59581" lon="3.43084">
        <ele>34.6</ele>
        <time>2023-08-06T18:21:46Z</time>
      </trkpt>
      <trkpt lat="49.59579" lon="3.43087">
        <ele>34.6</ele>
        <time>2023-08-06T18:21:47Z</time>
      </trkpt>
      <trkpt lat="49.59578" lon="3.4309">
        <ele>34.8</ele>
        <time>2023-08-06T18:21:48Z</time>
      </trkpt>
      <trkpt lat="49.59576" lon="3.43092">
        <ele>35</ele>
        <time>2023-08-06T18:21:49Z</time>
      </trkpt>
      <trkpt lat="49.59575" lon="3.43095">
        <ele>35</ele>
        <time>2023-08-06T18:21:50Z</time>
      </trkpt>
      <trkpt lat="49.59565" lon="3.43106">
        <ele>35.8</ele>
        <time>2023-08-06T18:21:55Z</time>
      </trkpt>
      <trkpt lat="49.59561" lon="3.4311">
        <ele>36.4</ele>
        <time>2023-08-06T18:21:57Z</time>
      </trkpt>
      <trkpt lat="49.5954" lon="3.43128">
        <ele>36.6</ele>
        <time>2023-08-06T18:22:06Z</time>
      </trkpt>
      <trkpt lat="49.5953" lon="3.43135">
        <ele>37</ele>
        <time>2023-08-06T18:22:10Z</time>
      </trkpt>
      <trkpt lat="49.59524" lon="3.4314">
        <ele>37.2</ele>
        <time>2023-08-06T18:22:13Z</time>
      </trkpt>
      <trkpt lat="49.59522" lon="3.43141">
        <ele>37.2</ele>
        <time>2023-08-06T18:22:14Z</time>
      </trkpt>
      <trkpt lat="49.5952" lon="3.43143">
        <ele>37.2</ele>
        <time>2023-08-06T18:22:15Z</time>
      </trkpt>
      <trkpt lat="49.59518" lon="3.43144">
        <ele>37.2</ele>
        <time>2023-08-06T18:22:16Z</time>
      </trkpt>
      <trkpt lat="49.59516" lon="3.43146">
        <ele>37.2</ele>
        <time>2023-08-06T18:22:17Z</time>
      </trkpt>
      <trkpt lat="49.59516" lon="3.43146">
        <ele>37.2</ele>
        <time>2023-08-06T18:22:18Z</time>
      </trkpt>
      <trkpt lat="49.59512" lon="3.4315">
        <ele>37.2</ele>
        <time>2023-08-06T18:22:19Z</time>
      </trkpt>
      <trkpt lat="49.59508" lon="3.43161">
        <ele>37.2</ele>
        <time>2023-08-06T18:22:22Z</time>
      </trkpt>
      <trkpt lat="49.59508" lon="3.43166">
        <ele>37.2</ele>
        <time>2023-08-06T18:22:23Z</time>
      </trkpt>
      <trkpt lat="49.59508" lon="3.43171">
        <ele>37</ele>
        <time>2023-08-06T18:22:24Z</time>
      </trkpt>
      <trkpt lat="49.59508" lon="3.43176">
        <ele>37</ele>
        <time>2023-08-06T18:22:25Z</time>
      </trkpt>
      <trkpt lat="49.5951" lon="3.43181">
        <ele>36.8</ele>
        <time>2023-08-06T18:22:26Z</time>
      </trkpt>
      <trkpt lat="49.59512" lon="3.43187">
        <ele>36.8</ele>
        <time>2023-08-06T18:22:27Z</time>
      </trkpt>
      <trkpt lat="49.59514" lon="3.43192">
        <ele>36.6</ele>
        <time>2023-08-06T18:22:28Z</time>
      </trkpt>
      <trkpt lat="49.59519" lon="3.43204">
        <ele>36.4</ele>
        <time>2023-08-06T18:22:30Z</time>
      </trkpt>
      <trkpt lat="49.59524" lon="3.43216">
        <ele>35.6</ele>
        <time>2023-08-06T18:22:32Z</time>
      </trkpt>
      <trkpt lat="49.59526" lon="3.43222">
        <ele>35.6</ele>
        <time>2023-08-06T18:22:33Z</time>
      </trkpt>
      <trkpt lat="49.59534" lon="3.43242">
        <ele>34.8</ele>
        <time>2023-08-06T18:22:36Z</time>
      </trkpt>
      <trkpt lat="49.59537" lon="3.43248">
        <ele>34.6</ele>
        <time>2023-08-06T18:22:37Z</time>
      </trkpt>
      <trkpt lat="49.59541" lon="3.43261">
        <ele>34.2</ele>
        <time>2023-08-06T18:22:39Z</time>
      </trkpt>
      <trkpt lat="49.59542" lon="3.43275">
        <ele>33.8</ele>
        <time>2023-08-06T18:22:41Z</time>
      </trkpt>
      <trkpt lat="49.59541" lon="3.43282">
        <ele>33.8</ele>
        <time>2023-08-06T18:22:42Z</time>
      </trkpt>
      <trkpt lat="49.59541" lon="3.43288">
        <ele>33.6</ele>
        <time>2023-08-06T18:22:43Z</time>
      </trkpt>
      <trkpt lat="49.5954" lon="3.43294">
        <ele>33.6</ele>
        <time>2023-08-06T18:22:44Z</time>
      </trkpt>
      <trkpt lat="49.59539" lon="3.433">
        <ele>33.4</ele>
        <time>2023-08-06T18:22:45Z</time>
      </trkpt>
      <trkpt lat="49.59539" lon="3.43306">
        <ele>33.4</ele>
        <time>2023-08-06T18:22:46Z</time>
      </trkpt>
      <trkpt lat="49.59539" lon="3.43311">
        <ele>33.4</ele>
        <time>2023-08-06T18:22:47Z</time>
      </trkpt>
      <trkpt lat="49.59538" lon="3.43316">
        <ele>33.2</ele>
        <time>2023-08-06T18:22:48Z</time>
      </trkpt>
      <trkpt lat="49.59537" lon="3.4332">
        <ele>33.2</ele>
        <time>2023-08-06T18:22:49Z</time>
      </trkpt>
      <trkpt lat="49.59536" lon="3.43324">
        <ele>33.2</ele>
        <time>2023-08-06T18:22:50Z</time>
      </trkpt>
      <trkpt lat="49.59536" lon="3.43328">
        <ele>33.2</ele>
        <time>2023-08-06T18:22:51Z</time>
      </trkpt>
      <trkpt lat="49.59536" lon="3.43332">
        <ele>33.2</ele>
        <time>2023-08-06T18:22:52Z</time>
      </trkpt>
      <trkpt lat="49.59536" lon="3.43336">
        <ele>33.2</ele>
        <time>2023-08-06T18:22:53Z</time>
      </trkpt>
      <trkpt lat="49.59535" lon="3.43342">
        <ele>33.2</ele>
        <time>2023-08-06T18:22:55Z</time>
      </trkpt>
      <trkpt lat="49.59535" lon="3.43345">
        <ele>33.2</ele>
        <time>2023-08-06T18:22:56Z</time>
      </trkpt>
      <trkpt lat="49.59534" lon="3.43348">
        <ele>33.2</ele>
        <time>2023-08-06T18:22:57Z</time>
      </trkpt>
      <trkpt lat="49.59534" lon="3.43352">
        <ele>33.4</ele>
        <time>2023-08-06T18:22:58Z</time>
      </trkpt>
      <trkpt lat="49.59533" lon="3.43355">
        <ele>33.6</ele>
        <time>2023-08-06T18:22:59Z</time>
      </trkpt>
      <trkpt lat="49.59532" lon="3.43358">
        <ele>33.6</ele>
        <time>2023-08-06T18:23:00Z</time>
      </trkpt>
      <trkpt lat="49.59531" lon="3.43362">
        <ele>33.8</ele>
        <time>2023-08-06T18:23:01Z</time>
      </trkpt>
      <trkpt lat="49.59529" lon="3.43368">
        <ele>33.8</ele>
        <time>2023-08-06T18:23:03Z</time>
      </trkpt>
      <trkpt lat="49.59528" lon="3.4337">
        <ele>34</ele>
        <time>2023-08-06T18:23:04Z</time>
      </trkpt>
      <trkpt lat="49.59527" lon="3.43373">
        <ele>34</ele>
        <time>2023-08-06T18:23:05Z</time>
      </trkpt>
      <trkpt lat="49.59527" lon="3.43376">
        <ele>34.2</ele>
        <time>2023-08-06T18:23:06Z</time>
      </trkpt>
      <trkpt lat="49.59526" lon="3.43379">
        <ele>34.4</ele>
        <time>2023-08-06T18:23:07Z</time>
      </trkpt>
      <trkpt lat="49.59525" lon="3.43382">
        <ele>34.4</ele>
        <time>2023-08-06T18:23:08Z</time>
      </trkpt>
      <trkpt lat="49.59523" lon="3.43385">
        <ele>34.4</ele>
        <time>2023-08-06T18:23:09Z</time>
      </trkpt>
      <trkpt lat="49.59522" lon="3.43388">
        <ele>34.6</ele>
        <time>2023-08-06T18:23:10Z</time>
      </trkpt>
      <trkpt lat="49.59521" lon="3.43391">
        <ele>34.6</ele>
        <time>2023-08-06T18:23:11Z</time>
      </trkpt>
      <trkpt lat="49.5952" lon="3.43394">
        <ele>34.8</ele>
        <time>2023-08-06T18:23:12Z</time>
      </trkpt>
      <trkpt lat="49.5952" lon="3.43396">
        <ele>35</ele>
        <time>2023-08-06T18:23:13Z</time>
      </trkpt>
      <trkpt lat="49.59519" lon="3.43399">
        <ele>35</ele>
        <time>2023-08-06T18:23:14Z</time>
      </trkpt>
      <trkpt lat="49.59517" lon="3.43405">
        <ele>35.2</ele>
        <time>2023-08-06T18:23:16Z</time>
      </trkpt>
      <trkpt lat="49.59515" lon="3.43412">
        <ele>35.4</ele>
        <time>2023-08-06T18:23:18Z</time>
      </trkpt>
      <trkpt lat="49.5951" lon="3.43426">
        <ele>35.8</ele>
        <time>2023-08-06T18:23:22Z</time>
      </trkpt>
      <trkpt lat="49.59508" lon="3.43429">
        <ele>35.8</ele>
        <time>2023-08-06T18:23:23Z</time>
      </trkpt>
      <trkpt lat="49.59507" lon="3.43432">
        <ele>35.8</ele>
        <time>2023-08-06T18:23:24Z</time>
      </trkpt>
      <trkpt lat="49.59506" lon="3.43434">
        <ele>36</ele>
        <time>2023-08-06T18:23:25Z</time>
      </trkpt>
      <trkpt lat="49.59504" lon="3.43438">
        <ele>36</ele>
        <time>2023-08-06T18:23:26Z</time>
      </trkpt>
      <trkpt lat="49.595" lon="3.4345">
        <ele>36</ele>
        <time>2023-08-06T18:23:29Z</time>
      </trkpt>
      <trkpt lat="49.59495" lon="3.43462">
        <ele>36.2</ele>
        <time>2023-08-06T18:23:32Z</time>
      </trkpt>
      <trkpt lat="49.59497" lon="3.43466">
        <ele>36.4</ele>
        <time>2023-08-06T18:23:33Z</time>
      </trkpt>
      <trkpt lat="49.59497" lon="3.4347">
        <ele>36.4</ele>
        <time>2023-08-06T18:23:34Z</time>
      </trkpt>
      <trkpt lat="49.59497" lon="3.43472">
        <ele>36.6</ele>
        <time>2023-08-06T18:23:35Z</time>
      </trkpt>
      <trkpt lat="49.59495" lon="3.43476">
        <ele>36.6</ele>
        <time>2023-08-06T18:23:36Z</time>
      </trkpt>
      <trkpt lat="49.59493" lon="3.43479">
        <ele>36.6</ele>
        <time>2023-08-06T18:23:37Z</time>
      </trkpt>
      <trkpt lat="49.59494" lon="3.43483">
        <ele>36.8</ele>
        <time>2023-08-06T18:23:38Z</time>
      </trkpt>
      <trkpt lat="49.59494" lon="3.43489">
        <ele>36.8</ele>
        <time>2023-08-06T18:23:40Z</time>
      </trkpt>
      <trkpt lat="49.59494" lon="3.43492">
        <ele>36.8</ele>
        <time>2023-08-06T18:23:41Z</time>
      </trkpt>
      <trkpt lat="49.59493" lon="3.43495">
        <ele>37</ele>
        <time>2023-08-06T18:23:42Z</time>
      </trkpt>
      <trkpt lat="49.59492" lon="3.43501">
        <ele>37.2</ele>
        <time>2023-08-06T18:23:43Z</time>
      </trkpt>
      <trkpt lat="49.59493" lon="3.43504">
        <ele>37.2</ele>
        <time>2023-08-06T18:23:44Z</time>
      </trkpt>
      <trkpt lat="49.59494" lon="3.43515">
        <ele>37.4</ele>
        <time>2023-08-06T18:23:47Z</time>
      </trkpt>
      <trkpt lat="49.59495" lon="3.43516">
        <ele>37.6</ele>
        <time>2023-08-06T18:23:48Z</time>
      </trkpt>
      <trkpt lat="49.59497" lon="3.43518">
        <ele>37.6</ele>
        <time>2023-08-06T18:23:49Z</time>
      </trkpt>
      <trkpt lat="49.59499" lon="3.43519">
        <ele>37.8</ele>
        <time>2023-08-06T18:23:50Z</time>
      </trkpt>
      <trkpt lat="49.59501" lon="3.4352">
        <ele>37.8</ele>
        <time>2023-08-06T18:23:51Z</time>
      </trkpt>
      <trkpt lat="49.59507" lon="3.4352">
        <ele>38</ele>
        <time>2023-08-06T18:23:54Z</time>
      </trkpt>
      <trkpt lat="49.5951" lon="3.43519">
        <ele>38</ele>
        <time>2023-08-06T18:23:55Z</time>
      </trkpt>
      <trkpt lat="49.59512" lon="3.4352">
        <ele>38.2</ele>
        <time>2023-08-06T18:23:56Z</time>
      </trkpt>
      <trkpt lat="49.59514" lon="3.43521">
        <ele>38.2</ele>
        <time>2023-08-06T18:23:57Z</time>
      </trkpt>
      <trkpt lat="49.59515" lon="3.43522">
        <ele>38.4</ele>
        <time>2023-08-06T18:23:58Z</time>
      </trkpt>
      <trkpt lat="49.59516" lon="3.43522">
        <ele>38.4</ele>
        <time>2023-08-06T18:23:59Z</time>
      </trkpt>
      <trkpt lat="49.59519" lon="3.43525">
        <ele>38.4</ele>
        <time>2023-08-06T18:24:01Z</time>
      </trkpt>
      <trkpt lat="49.5952" lon="3.43526">
        <ele>38.6</ele>
        <time>2023-08-06T18:24:02Z</time>
      </trkpt>
      <trkpt lat="49.59521" lon="3.43526">
        <ele>38.6</ele>
        <time>2023-08-06T18:24:03Z</time>
      </trkpt>
      <trkpt lat="49.59523" lon="3.43527">
        <ele>38.6</ele>
        <time>2023-08-06T18:24:04Z</time>
      </trkpt>
      <trkpt lat="49.59524" lon="3.43527">
        <ele>38.8</ele>
        <time>2023-08-06T18:24:05Z</time>
      </trkpt>
      <trkpt lat="49.59525" lon="3.43528">
        <ele>38.8</ele>
        <time>2023-08-06T18:24:06Z</time>
      </trkpt>
      <trkpt lat="49.59526" lon="3.43528">
        <ele>39</ele>
        <time>2023-08-06T18:24:07Z</time>
      </trkpt>
      <trkpt lat="49.59529" lon="3.43529">
        <ele>39.2</ele>
        <time>2023-08-06T18:24:09Z</time>
      </trkpt>
      <trkpt lat="49.5953" lon="3.43529">
        <ele>39.2</ele>
        <time>2023-08-06T18:24:10Z</time>
      </trkpt>
      <trkpt lat="49.5953" lon="3.43531">
        <ele>39.2</ele>
        <time>2023-08-06T18:24:11Z</time>
      </trkpt>
      <trkpt lat="49.59531" lon="3.43531">
        <ele>39.4</ele>
        <time>2023-08-06T18:24:12Z</time>
      </trkpt>
      <trkpt lat="49.59532" lon="3.43532">
        <ele>39.4</ele>
        <time>2023-08-06T18:24:13Z</time>
      </trkpt>
      <trkpt lat="49.59533" lon="3.43533">
        <ele>39.6</ele>
        <time>2023-08-06T18:24:14Z</time>
      </trkpt>
      <trkpt lat="49.59534" lon="3.43533">
        <ele>39.8</ele>
        <time>2023-08-06T18:24:15Z</time>
      </trkpt>
      <trkpt lat="49.59535" lon="3.43534">
        <ele>40</ele>
        <time>2023-08-06T18:24:16Z</time>
      </trkpt>
      <trkpt lat="49.59536" lon="3.43534">
        <ele>40</ele>
        <time>2023-08-06T18:24:17Z</time>
      </trkpt>
      <trkpt lat="49.59537" lon="3.43534">
        <ele>40.2</ele>
        <time>2023-08-06T18:24:18Z</time>
      </trkpt>
      <trkpt lat="49.59539" lon="3.43534">
        <ele>40.2</ele>
        <time>2023-08-06T18:24:19Z</time>
      </trkpt>
      <trkpt lat="49.59541" lon="3.43535">
        <ele>40.6</ele>
        <time>2023-08-06T18:24:21Z</time>
      </trkpt>
      <trkpt lat="49.59543" lon="3.43536">
        <ele>40.8</ele>
        <time>2023-08-06T18:24:22Z</time>
      </trkpt>
      <trkpt lat="49.59544" lon="3.43537">
        <ele>41</ele>
        <time>2023-08-06T18:24:23Z</time>
      </trkpt>
      <trkpt lat="49.59545" lon="3.43537">
        <ele>41.2</ele>
        <time>2023-08-06T18:24:24Z</time>
      </trkpt>
      <trkpt lat="49.59546" lon="3.43537">
        <ele>41.2</ele>
        <time>2023-08-06T18:24:25Z</time>
      </trkpt>
      <trkpt lat="49.59547" lon="3.43538">
        <ele>41.4</ele>
        <time>2023-08-06T18:24:26Z</time>
      </trkpt>
      <trkpt lat="49.59549" lon="3.43538">
        <ele>41.6</ele>
        <time>2023-08-06T18:24:27Z</time>
      </trkpt>
      <trkpt lat="49.5955" lon="3.43539">
        <ele>41.8</ele>
        <time>2023-08-06T18:24:28Z</time>
      </trkpt>
      <trkpt lat="49.59551" lon="3.43539">
        <ele>41.8</ele>
        <time>2023-08-06T18:24:29Z</time>
      </trkpt>
      <trkpt lat="49.59553" lon="3.4354">
        <ele>42</ele>
        <time>2023-08-06T18:24:30Z</time>
      </trkpt>
      <trkpt lat="49.59554" lon="3.4354">
        <ele>42.2</ele>
        <time>2023-08-06T18:24:31Z</time>
      </trkpt>
      <trkpt lat="49.59556" lon="3.43541">
        <ele>42.4</ele>
        <time>2023-08-06T18:24:32Z</time>
      </trkpt>
      <trkpt lat="49.59557" lon="3.4354">
        <ele>42.6</ele>
        <time>2023-08-06T18:24:33Z</time>
      </trkpt>
      <trkpt lat="49.59558" lon="3.4354">
        <ele>42.8</ele>
        <time>2023-08-06T18:24:34Z</time>
      </trkpt>
      <trkpt lat="49.59559" lon="3.4354">
        <ele>43.2</ele>
        <time>2023-08-06T18:24:35Z</time>
      </trkpt>
      <trkpt lat="49.5956" lon="3.4354">
        <ele>43.4</ele>
        <time>2023-08-06T18:24:36Z</time>
      </trkpt>
      <trkpt lat="49.59561" lon="3.4354">
        <ele>43.4</ele>
        <time>2023-08-06T18:24:37Z</time>
      </trkpt>
      <trkpt lat="49.59562" lon="3.43541">
        <ele>43.6</ele>
        <time>2023-08-06T18:24:38Z</time>
      </trkpt>
      <trkpt lat="49.59563" lon="3.4354">
        <ele>43.6</ele>
        <time>2023-08-06T18:24:39Z</time>
      </trkpt>
      <trkpt lat="49.59564" lon="3.4354">
        <ele>43.8</ele>
        <time>2023-08-06T18:24:40Z</time>
      </trkpt>
      <trkpt lat="49.59566" lon="3.4354">
        <ele>43.8</ele>
        <time>2023-08-06T18:24:41Z</time>
      </trkpt>
      <trkpt lat="49.59567" lon="3.4354">
        <ele>43.8</ele>
        <time>2023-08-06T18:24:42Z</time>
      </trkpt>
      <trkpt lat="49.59568" lon="3.4354">
        <ele>43.8</ele>
        <time>2023-08-06T18:24:43Z</time>
      </trkpt>
      <trkpt lat="49.59569" lon="3.4354">
        <ele>43.8</ele>
        <time>2023-08-06T18:24:44Z</time>
      </trkpt>
      <trkpt lat="49.5957" lon="3.4354">
        <ele>44</ele>
        <time>2023-08-06T18:24:45Z</time>
      </trkpt>
      <trkpt lat="49.59571" lon="3.4354">
        <ele>44</ele>
        <time>2023-08-06T18:24:46Z</time>
      </trkpt>
      <trkpt lat="49.59573" lon="3.4354">
        <ele>44.2</ele>
        <time>2023-08-06T18:24:47Z</time>
      </trkpt>
      <trkpt lat="49.59574" lon="3.4354">
        <ele>44.2</ele>
        <time>2023-08-06T18:24:48Z</time>
      </trkpt>
      <trkpt lat="49.59575" lon="3.4354">
        <ele>44.4</ele>
        <time>2023-08-06T18:24:49Z</time>
      </trkpt>
      <trkpt lat="49.59576" lon="3.4354">
        <ele>44.4</ele>
        <time>2023-08-06T18:24:50Z</time>
      </trkpt>
      <trkpt lat="49.59577" lon="3.4354">
        <ele>44.8</ele>
        <time>2023-08-06T18:24:51Z</time>
      </trkpt>
      <trkpt lat="49.59577" lon="3.4354">
        <ele>44.8</ele>
        <time>2023-08-06T18:24:52Z</time>
      </trkpt>
      <trkpt lat="49.59579" lon="3.43539">
        <ele>45.4</ele>
        <time>2023-08-06T18:24:53Z</time>
      </trkpt>
      <trkpt lat="49.5958" lon="3.4354">
        <ele>45.6</ele>
        <time>2023-08-06T18:24:54Z</time>
      </trkpt>
      <trkpt lat="49.59582" lon="3.4354">
        <ele>45.6</ele>
        <time>2023-08-06T18:24:55Z</time>
      </trkpt>
      <trkpt lat="49.59583" lon="3.4354">
        <ele>45.6</ele>
        <time>2023-08-06T18:24:56Z</time>
      </trkpt>
      <trkpt lat="49.59584" lon="3.4354">
        <ele>46</ele>
        <time>2023-08-06T18:24:57Z</time>
      </trkpt>
      <trkpt lat="49.59586" lon="3.43539">
        <ele>46</ele>
        <time>2023-08-06T18:24:58Z</time>
      </trkpt>
      <trkpt lat="49.59587" lon="3.43539">
        <ele>46</ele>
        <time>2023-08-06T18:24:59Z</time>
      </trkpt>
      <trkpt lat="49.59588" lon="3.43539">
        <ele>46</ele>
        <time>2023-08-06T18:25:00Z</time>
      </trkpt>
      <trkpt lat="49.59589" lon="3.43538">
        <ele>46</ele>
        <time>2023-08-06T18:25:01Z</time>
      </trkpt>
      <trkpt lat="49.59591" lon="3.43538">
        <ele>45.8</ele>
        <time>2023-08-06T18:25:02Z</time>
      </trkpt>
      <trkpt lat="49.59592" lon="3.43538">
        <ele>45.8</ele>
        <time>2023-08-06T18:25:03Z</time>
      </trkpt>
      <trkpt lat="49.59593" lon="3.43538">
        <ele>45.8</ele>
        <time>2023-08-06T18:25:04Z</time>
      </trkpt>
      <trkpt lat="49.59594" lon="3.43538">
        <ele>45.8</ele>
        <time>2023-08-06T18:25:05Z</time>
      </trkpt>
      <trkpt lat="49.59595" lon="3.43538">
        <ele>45.8</ele>
        <time>2023-08-06T18:25:06Z</time>
      </trkpt>
      <trkpt lat="49.59596" lon="3.43538">
        <ele>45.8</ele>
        <time>2023-08-06T18:25:07Z</time>
      </trkpt>
      <trkpt lat="49.59598" lon="3.43538">
        <ele>45.8</ele>
        <time>2023-08-06T18:25:08Z</time>
      </trkpt>
      <trkpt lat="49.596" lon="3.43538">
        <ele>45.8</ele>
        <time>2023-08-06T18:25:10Z</time>
      </trkpt>
      <trkpt lat="49.59605" lon="3.43537">
        <ele>46.2</ele>
        <time>2023-08-06T18:25:14Z</time>
      </trkpt>
      <trkpt lat="49.59609" lon="3.43536">
        <ele>46.6</ele>
        <time>2023-08-06T18:25:17Z</time>
      </trkpt>
      <trkpt lat="49.5961" lon="3.43536">
        <ele>46.6</ele>
        <time>2023-08-06T18:25:18Z</time>
      </trkpt>
      <trkpt lat="49.59611" lon="3.43536">
        <ele>46.8</ele>
        <time>2023-08-06T18:25:19Z</time>
      </trkpt>
      <trkpt lat="49.59614" lon="3.43535">
        <ele>46.8</ele>
        <time>2023-08-06T18:25:21Z</time>
      </trkpt>
      <trkpt lat="49.5962" lon="3.43535">
        <ele>47.4</ele>
        <time>2023-08-06T18:25:26Z</time>
      </trkpt>
      <trkpt lat="49.59621" lon="3.43535">
        <ele>47.4</ele>
        <time>2023-08-06T18:25:27Z</time>
      </trkpt>
      <trkpt lat="49.59622" lon="3.43534">
        <ele>47.4</ele>
        <time>2023-08-06T18:25:28Z</time>
      </trkpt>
      <trkpt lat="49.59623" lon="3.43534">
        <ele>47.6</ele>
        <time>2023-08-06T18:25:29Z</time>
      </trkpt>
      <trkpt lat="49.59623" lon="3.43534">
        <ele>47.8</ele>
        <time>2023-08-06T18:25:30Z</time>
      </trkpt>
      <trkpt lat="49.59624" lon="3.43534">
        <ele>47.8</ele>
        <time>2023-08-06T18:25:31Z</time>
      </trkpt>
      <trkpt lat="49.59625" lon="3.43534">
        <ele>47.8</ele>
        <time>2023-08-06T18:25:32Z</time>
      </trkpt>
      <trkpt lat="49.59626" lon="3.43534">
        <ele>47.8</ele>
        <time>2023-08-06T18:25:33Z</time>
      </trkpt>
      <trkpt lat="49.59628" lon="3.43535">
        <ele>48</ele>
        <time>2023-08-06T18:25:34Z</time>
      </trkpt>
      <trkpt lat="49.59629" lon="3.43535">
        <ele>48</ele>
        <time>2023-08-06T18:25:35Z</time>
      </trkpt>
      <trkpt lat="49.59633" lon="3.43534">
        <ele>48.2</ele>
        <time>2023-08-06T18:25:38Z</time>
      </trkpt>
      <trkpt lat="49.59639" lon="3.43533">
        <ele>48.4</ele>
        <time>2023-08-06T18:25:42Z</time>
      </trkpt>
      <trkpt lat="49.59648" lon="3.43534">
        <ele>48.8</ele>
        <time>2023-08-06T18:25:48Z</time>
      </trkpt>
      <trkpt lat="49.59649" lon="3.43535">
        <ele>48.8</ele>
        <time>2023-08-06T18:25:49Z</time>
      </trkpt>
      <trkpt lat="49.5965" lon="3.43536">
        <ele>48.8</ele>
        <time>2023-08-06T18:25:50Z</time>
      </trkpt>
      <trkpt lat="49.59651" lon="3.43537">
        <ele>49</ele>
        <time>2023-08-06T18:25:51Z</time>
      </trkpt>
      <trkpt lat="49.59652" lon="3.43539">
        <ele>49.2</ele>
        <time>2023-08-06T18:25:52Z</time>
      </trkpt>
      <trkpt lat="49.59653" lon="3.4354">
        <ele>49.2</ele>
        <time>2023-08-06T18:25:53Z</time>
      </trkpt>
      <trkpt lat="49.59654" lon="3.43544">
        <ele>49.4</ele>
        <time>2023-08-06T18:25:55Z</time>
      </trkpt>
      <trkpt lat="49.59655" lon="3.43546">
        <ele>49.4</ele>
        <time>2023-08-06T18:25:56Z</time>
      </trkpt>
      <trkpt lat="49.59655" lon="3.43547">
        <ele>49.4</ele>
        <time>2023-08-06T18:25:57Z</time>
      </trkpt>
      <trkpt lat="49.59655" lon="3.43549">
        <ele>49.4</ele>
        <time>2023-08-06T18:25:58Z</time>
      </trkpt>
      <trkpt lat="49.59655" lon="3.43553">
        <ele>49.6</ele>
        <time>2023-08-06T18:26:00Z</time>
      </trkpt>
      <trkpt lat="49.59654" lon="3.43555">
        <ele>49.6</ele>
        <time>2023-08-06T18:26:01Z</time>
      </trkpt>
      <trkpt lat="49.59654" lon="3.43557">
        <ele>49.6</ele>
        <time>2023-08-06T18:26:02Z</time>
      </trkpt>
      <trkpt lat="49.59653" lon="3.43558">
        <ele>49.6</ele>
        <time>2023-08-06T18:26:03Z</time>
      </trkpt>
      <trkpt lat="49.59651" lon="3.43569">
        <ele>49.8</ele>
        <time>2023-08-06T18:26:08Z</time>
      </trkpt>
      <trkpt lat="49.59649" lon="3.43575">
        <ele>50</ele>
        <time>2023-08-06T18:26:11Z</time>
      </trkpt>
      <trkpt lat="49.59648" lon="3.43576">
        <ele>50.2</ele>
        <time>2023-08-06T18:26:12Z</time>
      </trkpt>
      <trkpt lat="49.59648" lon="3.43575">
        <ele>50.2</ele>
        <time>2023-08-06T18:26:13Z</time>
      </trkpt>
      <trkpt lat="49.59648" lon="3.43575">
        <ele>50.2</ele>
        <time>2023-08-06T18:26:14Z</time>
      </trkpt>
      <trkpt lat="49.59648" lon="3.43576">
        <ele>50.2</ele>
        <time>2023-08-06T18:26:15Z</time>
      </trkpt>
      <trkpt lat="49.59644" lon="3.43591">
        <ele>50.4</ele>
        <time>2023-08-06T18:32:26Z</time>
      </trkpt>
      <trkpt lat="49.59643" lon="3.43595">
        <ele>50.4</ele>
        <time>2023-08-06T18:32:28Z</time>
      </trkpt>
      <trkpt lat="49.59637" lon="3.43608">
        <ele>50.6</ele>
        <time>2023-08-06T18:32:35Z</time>
      </trkpt>
      <trkpt lat="49.59634" lon="3.43613">
        <ele>50.8</ele>
        <time>2023-08-06T18:32:38Z</time>
      </trkpt>
      <trkpt lat="49.59631" lon="3.4362">
        <ele>51.2</ele>
        <time>2023-08-06T18:32:42Z</time>
      </trkpt>
      <trkpt lat="49.5963" lon="3.43622">
        <ele>51.2</ele>
        <time>2023-08-06T18:32:43Z</time>
      </trkpt>
      <trkpt lat="49.59626" lon="3.43632">
        <ele>51.6</ele>
        <time>2023-08-06T18:32:48Z</time>
      </trkpt>
      <trkpt lat="49.59626" lon="3.43633">
        <ele>51.6</ele>
        <time>2023-08-06T18:32:49Z</time>
      </trkpt>
      <trkpt lat="49.59624" lon="3.43635">
        <ele>51.8</ele>
        <time>2023-08-06T18:32:51Z</time>
      </trkpt>
      <trkpt lat="49.59623" lon="3.43637">
        <ele>51.8</ele>
        <time>2023-08-06T18:32:52Z</time>
      </trkpt>
      <trkpt lat="49.59622" lon="3.43638">
        <ele>52</ele>
        <time>2023-08-06T18:32:53Z</time>
      </trkpt>
      <trkpt lat="49.59622" lon="3.43639">
        <ele>52.2</ele>
        <time>2023-08-06T18:32:54Z</time>
      </trkpt>
      <trkpt lat="49.59621" lon="3.4364">
        <ele>52.2</ele>
        <time>2023-08-06T18:32:55Z</time>
      </trkpt>
      <trkpt lat="49.59621" lon="3.43641">
        <ele>52.2</ele>
        <time>2023-08-06T18:32:56Z</time>
      </trkpt>
      <trkpt lat="49.59621" lon="3.43642">
        <ele>52.4</ele>
        <time>2023-08-06T18:32:57Z</time>
      </trkpt>
      <trkpt lat="49.5962" lon="3.43643">
        <ele>52.6</ele>
        <time>2023-08-06T18:32:58Z</time>
      </trkpt>
      <trkpt lat="49.59618" lon="3.4365">
        <ele>52.8</ele>
        <time>2023-08-06T18:33:01Z</time>
      </trkpt>
      <trkpt lat="49.59615" lon="3.43656">
        <ele>53.2</ele>
        <time>2023-08-06T18:33:04Z</time>
      </trkpt>
      <trkpt lat="49.59614" lon="3.43658">
        <ele>53.2</ele>
        <time>2023-08-06T18:33:05Z</time>
      </trkpt>
      <trkpt lat="49.59613" lon="3.4366">
        <ele>53.4</ele>
        <time>2023-08-06T18:33:06Z</time>
      </trkpt>
      <trkpt lat="49.59611" lon="3.43665">
        <ele>53.6</ele>
        <time>2023-08-06T18:33:08Z</time>
      </trkpt>
      <trkpt lat="49.59611" lon="3.43667">
        <ele>53.6</ele>
        <time>2023-08-06T18:33:09Z</time>
      </trkpt>
      <trkpt lat="49.59609" lon="3.43671">
        <ele>53.8</ele>
        <time>2023-08-06T18:33:11Z</time>
      </trkpt>
      <trkpt lat="49.59609" lon="3.43672">
        <ele>54</ele>
        <time>2023-08-06T18:33:12Z</time>
      </trkpt>
      <trkpt lat="49.59606" lon="3.43676">
        <ele>54</ele>
        <time>2023-08-06T18:33:14Z</time>
      </trkpt>
      <trkpt lat="49.59602" lon="3.43686">
        <ele>54.6</ele>
        <time>2023-08-06T18:33:19Z</time>
      </trkpt>
      <trkpt lat="49.59602" lon="3.43687">
        <ele>54.6</ele>
        <time>2023-08-06T18:33:20Z</time>
      </trkpt>
      <trkpt lat="49.59599" lon="3.43692">
        <ele>54.8</ele>
        <time>2023-08-06T18:33:23Z</time>
      </trkpt>
      <trkpt lat="49.59598" lon="3.43693">
        <ele>54.8</ele>
        <time>2023-08-06T18:33:24Z</time>
      </trkpt>
      <trkpt lat="49.59597" lon="3.43696">
        <ele>55</ele>
        <time>2023-08-06T18:33:26Z</time>
      </trkpt>
      <trkpt lat="49.59595" lon="3.43702">
        <ele>55</ele>
        <time>2023-08-06T18:33:29Z</time>
      </trkpt>
      <trkpt lat="49.59594" lon="3.43706">
        <ele>55.2</ele>
        <time>2023-08-06T18:33:31Z</time>
      </trkpt>
      <trkpt lat="49.59594" lon="3.43707">
        <ele>55.4</ele>
        <time>2023-08-06T18:33:32Z</time>
      </trkpt>
      <trkpt lat="49.59593" lon="3.43708">
        <ele>55.4</ele>
        <time>2023-08-06T18:33:33Z</time>
      </trkpt>
      <trkpt lat="49.59591" lon="3.43712">
        <ele>55.8</ele>
        <time>2023-08-06T18:33:35Z</time>
      </trkpt>
      <trkpt lat="49.59591" lon="3.43714">
        <ele>55.8</ele>
        <time>2023-08-06T18:33:36Z</time>
      </trkpt>
      <trkpt lat="49.5959" lon="3.43716">
        <ele>56</ele>
        <time>2023-08-06T18:33:37Z</time>
      </trkpt>
      <trkpt lat="49.59589" lon="3.43718">
        <ele>56</ele>
        <time>2023-08-06T18:33:38Z</time>
      </trkpt>
      <trkpt lat="49.59588" lon="3.4372">
        <ele>56</ele>
        <time>2023-08-06T18:33:39Z</time>
      </trkpt>
      <trkpt lat="49.59585" lon="3.43732">
        <ele>56.4</ele>
        <time>2023-08-06T18:33:43Z</time>
      </trkpt>
      <trkpt lat="49.59582" lon="3.43738">
        <ele>56.4</ele>
        <time>2023-08-06T18:33:45Z</time>
      </trkpt>
      <trkpt lat="49.5958" lon="3.43741">
        <ele>56.4</ele>
        <time>2023-08-06T18:33:46Z</time>
      </trkpt>
      <trkpt lat="49.59578" lon="3.43744">
        <ele>56.4</ele>
        <time>2023-08-06T18:33:47Z</time>
      </trkpt>
      <trkpt lat="49.59577" lon="3.43746">
        <ele>56.4</ele>
        <time>2023-08-06T18:33:48Z</time>
      </trkpt>
      <trkpt lat="49.59576" lon="3.43748">
        <ele>56.4</ele>
        <time>2023-08-06T18:33:49Z</time>
      </trkpt>
      <trkpt lat="49.59574" lon="3.43749">
        <ele>56.4</ele>
        <time>2023-08-06T18:33:50Z</time>
      </trkpt>
      <trkpt lat="49.59572" lon="3.43751">
        <ele>56.4</ele>
        <time>2023-08-06T18:33:51Z</time>
      </trkpt>
      <trkpt lat="49.59571" lon="3.43753">
        <ele>56.4</ele>
        <time>2023-08-06T18:33:52Z</time>
      </trkpt>
      <trkpt lat="49.59569" lon="3.43756">
        <ele>56.4</ele>
        <time>2023-08-06T18:33:53Z</time>
      </trkpt>
      <trkpt lat="49.59559" lon="3.43768">
        <ele>56.2</ele>
        <time>2023-08-06T18:33:58Z</time>
      </trkpt>
      <trkpt lat="49.59558" lon="3.4377">
        <ele>56.2</ele>
        <time>2023-08-06T18:33:59Z</time>
      </trkpt>
      <trkpt lat="49.59557" lon="3.43772">
        <ele>56.2</ele>
        <time>2023-08-06T18:34:00Z</time>
      </trkpt>
      <trkpt lat="49.59555" lon="3.43774">
        <ele>56.2</ele>
        <time>2023-08-06T18:34:01Z</time>
      </trkpt>
      <trkpt lat="49.59552" lon="3.4378">
        <ele>56.2</ele>
        <time>2023-08-06T18:34:03Z</time>
      </trkpt>
      <trkpt lat="49.59548" lon="3.43782">
        <ele>56.2</ele>
        <time>2023-08-06T18:34:04Z</time>
      </trkpt>
      <trkpt lat="49.59541" lon="3.43787">
        <ele>56.2</ele>
        <time>2023-08-06T18:34:06Z</time>
      </trkpt>
      <trkpt lat="49.59541" lon="3.43787">
        <ele>56.2</ele>
        <time>2023-08-06T18:34:07Z</time>
      </trkpt>
      <trkpt lat="49.59535" lon="3.43792">
        <ele>56.2</ele>
        <time>2023-08-06T18:34:08Z</time>
      </trkpt>
      <trkpt lat="49.59532" lon="3.43794">
        <ele>56.2</ele>
        <time>2023-08-06T18:34:09Z</time>
      </trkpt>
      <trkpt lat="49.59531" lon="3.43796">
        <ele>56.2</ele>
        <time>2023-08-06T18:34:10Z</time>
      </trkpt>
      <trkpt lat="49.5953" lon="3.43797">
        <ele>56.2</ele>
        <time>2023-08-06T18:34:11Z</time>
      </trkpt>
      <trkpt lat="49.59528" lon="3.43796">
        <ele>56.2</ele>
        <time>2023-08-06T18:34:12Z</time>
      </trkpt>
      <trkpt lat="49.59527" lon="3.43798">
        <ele>56.2</ele>
        <time>2023-08-06T18:34:13Z</time>
      </trkpt>
      <trkpt lat="49.59526" lon="3.43798">
        <ele>56.2</ele>
        <time>2023-08-06T18:34:14Z</time>
      </trkpt>
      <trkpt lat="49.59526" lon="3.43799">
        <ele>56.2</ele>
        <time>2023-08-06T18:34:15Z</time>
      </trkpt>
      <trkpt lat="49.59525" lon="3.438">
        <ele>56.2</ele>
        <time>2023-08-06T18:34:16Z</time>
      </trkpt>
      <trkpt lat="49.59524" lon="3.43801">
        <ele>56.2</ele>
        <time>2023-08-06T18:34:17Z</time>
      </trkpt>
      <trkpt lat="49.59523" lon="3.43803">
        <ele>56.4</ele>
        <time>2023-08-06T18:34:18Z</time>
      </trkpt>
      <trkpt lat="49.59522" lon="3.43804">
        <ele>56.4</ele>
        <time>2023-08-06T18:34:19Z</time>
      </trkpt>
      <trkpt lat="49.59515" lon="3.43811">
        <ele>56.4</ele>
        <time>2023-08-06T18:34:24Z</time>
      </trkpt>
      <trkpt lat="49.59504" lon="3.43819">
        <ele>56.8</ele>
        <time>2023-08-06T18:34:30Z</time>
      </trkpt>
      <trkpt lat="49.59496" lon="3.43826">
        <ele>56.8</ele>
        <time>2023-08-06T18:34:34Z</time>
      </trkpt>
      <trkpt lat="49.59491" lon="3.4383">
        <ele>57.4</ele>
        <time>2023-08-06T18:34:37Z</time>
      </trkpt>
      <trkpt lat="49.5949" lon="3.43831">
        <ele>57.6</ele>
        <time>2023-08-06T18:34:38Z</time>
      </trkpt>
      <trkpt lat="49.59488" lon="3.43834">
        <ele>57.8</ele>
        <time>2023-08-06T18:34:39Z</time>
      </trkpt>
      <trkpt lat="49.59486" lon="3.43835">
        <ele>57.8</ele>
        <time>2023-08-06T18:34:40Z</time>
      </trkpt>
      <trkpt lat="49.59484" lon="3.43837">
        <ele>58</ele>
        <time>2023-08-06T18:34:41Z</time>
      </trkpt>
      <trkpt lat="49.59483" lon="3.43839">
        <ele>58.2</ele>
        <time>2023-08-06T18:34:42Z</time>
      </trkpt>
      <trkpt lat="49.59482" lon="3.43841">
        <ele>58.2</ele>
        <time>2023-08-06T18:34:43Z</time>
      </trkpt>
      <trkpt lat="49.59481" lon="3.43843">
        <ele>58.2</ele>
        <time>2023-08-06T18:34:44Z</time>
      </trkpt>
      <trkpt lat="49.59478" lon="3.43846">
        <ele>58.4</ele>
        <time>2023-08-06T18:34:45Z</time>
      </trkpt>
      <trkpt lat="49.59476" lon="3.43849">
        <ele>58.6</ele>
        <time>2023-08-06T18:34:46Z</time>
      </trkpt>
      <trkpt lat="49.59475" lon="3.43851">
        <ele>58.6</ele>
        <time>2023-08-06T18:34:47Z</time>
      </trkpt>
      <trkpt lat="49.59474" lon="3.43854">
        <ele>58.6</ele>
        <time>2023-08-06T18:34:48Z</time>
      </trkpt>
      <trkpt lat="49.59473" lon="3.43856">
        <ele>58.8</ele>
        <time>2023-08-06T18:34:49Z</time>
      </trkpt>
      <trkpt lat="49.59472" lon="3.43857">
        <ele>58.8</ele>
        <time>2023-08-06T18:34:50Z</time>
      </trkpt>
      <trkpt lat="49.59471" lon="3.43859">
        <ele>59</ele>
        <time>2023-08-06T18:34:51Z</time>
      </trkpt>
      <trkpt lat="49.59469" lon="3.43861">
        <ele>59</ele>
        <time>2023-08-06T18:34:52Z</time>
      </trkpt>
      <trkpt lat="49.59468" lon="3.43861">
        <ele>59.2</ele>
        <time>2023-08-06T18:34:53Z</time>
      </trkpt>
      <trkpt lat="49.59466" lon="3.43862">
        <ele>59.4</ele>
        <time>2023-08-06T18:34:54Z</time>
      </trkpt>
      <trkpt lat="49.59465" lon="3.43862">
        <ele>59.6</ele>
        <time>2023-08-06T18:34:55Z</time>
      </trkpt>
      <trkpt lat="49.59464" lon="3.43863">
        <ele>59.6</ele>
        <time>2023-08-06T18:34:56Z</time>
      </trkpt>
      <trkpt lat="49.59464" lon="3.43865">
        <ele>59.8</ele>
        <time>2023-08-06T18:34:57Z</time>
      </trkpt>
      <trkpt lat="49.59463" lon="3.43866">
        <ele>59.6</ele>
        <time>2023-08-06T18:34:58Z</time>
      </trkpt>
      <trkpt lat="49.59461" lon="3.43868">
        <ele>59.8</ele>
        <time>2023-08-06T18:34:59Z</time>
      </trkpt>
      <trkpt lat="49.5946" lon="3.4387">
        <ele>60</ele>
        <time>2023-08-06T18:35:00Z</time>
      </trkpt>
      <trkpt lat="49.5946" lon="3.43871">
        <ele>60</ele>
        <time>2023-08-06T18:35:01Z</time>
      </trkpt>
      <trkpt lat="49.59459" lon="3.43873">
        <ele>60</ele>
        <time>2023-08-06T18:35:02Z</time>
      </trkpt>
      <trkpt lat="49.59458" lon="3.43875">
        <ele>60</ele>
        <time>2023-08-06T18:35:03Z</time>
      </trkpt>
      <trkpt lat="49.59457" lon="3.43877">
        <ele>60</ele>
        <time>2023-08-06T18:35:04Z</time>
      </trkpt>
      <trkpt lat="49.59457" lon="3.43879">
        <ele>60.2</ele>
        <time>2023-08-06T18:35:05Z</time>
      </trkpt>
      <trkpt lat="49.59456" lon="3.43881">
        <ele>60.4</ele>
        <time>2023-08-06T18:35:06Z</time>
      </trkpt>
      <trkpt lat="49.59455" lon="3.43882">
        <ele>60.4</ele>
        <time>2023-08-06T18:35:07Z</time>
      </trkpt>
      <trkpt lat="49.59454" lon="3.43884">
        <ele>60.6</ele>
        <time>2023-08-06T18:35:08Z</time>
      </trkpt>
      <trkpt lat="49.59453" lon="3.43887">
        <ele>60.6</ele>
        <time>2023-08-06T18:35:09Z</time>
      </trkpt>
      <trkpt lat="49.59452" lon="3.43888">
        <ele>60.6</ele>
        <time>2023-08-06T18:35:10Z</time>
      </trkpt>
      <trkpt lat="49.59451" lon="3.43891">
        <ele>60.8</ele>
        <time>2023-08-06T18:35:11Z</time>
      </trkpt>
      <trkpt lat="49.59451" lon="3.43893">
        <ele>60.8</ele>
        <time>2023-08-06T18:35:12Z</time>
      </trkpt>
      <trkpt lat="49.5945" lon="3.43895">
        <ele>60.8</ele>
        <time>2023-08-06T18:35:13Z</time>
      </trkpt>
      <trkpt lat="49.59449" lon="3.43897">
        <ele>61</ele>
        <time>2023-08-06T18:35:14Z</time>
      </trkpt>
      <trkpt lat="49.59448" lon="3.439">
        <ele>61.2</ele>
        <time>2023-08-06T18:35:15Z</time>
      </trkpt>
      <trkpt lat="49.59447" lon="3.43903">
        <ele>61.4</ele>
        <time>2023-08-06T18:35:16Z</time>
      </trkpt>
      <trkpt lat="49.59445" lon="3.43905">
        <ele>61.4</ele>
        <time>2023-08-06T18:35:17Z</time>
      </trkpt>
      <trkpt lat="49.59443" lon="3.43907">
        <ele>61.6</ele>
        <time>2023-08-06T18:35:18Z</time>
      </trkpt>
      <trkpt lat="49.59443" lon="3.43907">
        <ele>61.6</ele>
        <time>2023-08-06T18:35:19Z</time>
      </trkpt>
      <trkpt lat="49.59442" lon="3.43911">
        <ele>61.8</ele>
        <time>2023-08-06T18:35:20Z</time>
      </trkpt>
      <trkpt lat="49.59441" lon="3.43914">
        <ele>62</ele>
        <time>2023-08-06T18:35:21Z</time>
      </trkpt>
      <trkpt lat="49.59439" lon="3.43918">
        <ele>62</ele>
        <time>2023-08-06T18:35:22Z</time>
      </trkpt>
      <trkpt lat="49.59438" lon="3.43921">
        <ele>62.2</ele>
        <time>2023-08-06T18:35:23Z</time>
      </trkpt>
      <trkpt lat="49.59437" lon="3.43922">
        <ele>62.2</ele>
        <time>2023-08-06T18:35:24Z</time>
      </trkpt>
      <trkpt lat="49.59436" lon="3.43924">
        <ele>62.4</ele>
        <time>2023-08-06T18:35:25Z</time>
      </trkpt>
      <trkpt lat="49.59436" lon="3.43926">
        <ele>62.4</ele>
        <time>2023-08-06T18:35:26Z</time>
      </trkpt>
      <trkpt lat="49.59436" lon="3.43928">
        <ele>62.6</ele>
        <time>2023-08-06T18:35:27Z</time>
      </trkpt>
      <trkpt lat="49.59435" lon="3.4393">
        <ele>62.6</ele>
        <time>2023-08-06T18:35:28Z</time>
      </trkpt>
      <trkpt lat="49.59434" lon="3.43932">
        <ele>62.8</ele>
        <time>2023-08-06T18:35:29Z</time>
      </trkpt>
      <trkpt lat="49.59434" lon="3.43935">
        <ele>63</ele>
        <time>2023-08-06T18:35:30Z</time>
      </trkpt>
      <trkpt lat="49.59433" lon="3.43936">
        <ele>63</ele>
        <time>2023-08-06T18:35:31Z</time>
      </trkpt>
      <trkpt lat="49.59433" lon="3.43937">
        <ele>63.2</ele>
        <time>2023-08-06T18:35:32Z</time>
      </trkpt>
      <trkpt lat="49.59432" lon="3.43938">
        <ele>63.2</ele>
        <time>2023-08-06T18:35:33Z</time>
      </trkpt>
      <trkpt lat="49.59432" lon="3.4394">
        <ele>63.2</ele>
        <time>2023-08-06T18:35:34Z</time>
      </trkpt>
      <trkpt lat="49.59431" lon="3.43942">
        <ele>63.4</ele>
        <time>2023-08-06T18:35:35Z</time>
      </trkpt>
      <trkpt lat="49.5943" lon="3.43944">
        <ele>63.4</ele>
        <time>2023-08-06T18:35:36Z</time>
      </trkpt>
      <trkpt lat="49.5943" lon="3.43946">
        <ele>63.6</ele>
        <time>2023-08-06T18:35:37Z</time>
      </trkpt>
      <trkpt lat="49.59429" lon="3.43948">
        <ele>63.6</ele>
        <time>2023-08-06T18:35:38Z</time>
      </trkpt>
      <trkpt lat="49.59428" lon="3.4395">
        <ele>63.6</ele>
        <time>2023-08-06T18:35:39Z</time>
      </trkpt>
      <trkpt lat="49.59427" lon="3.43951">
        <ele>63.6</ele>
        <time>2023-08-06T18:35:40Z</time>
      </trkpt>
      <trkpt lat="49.59427" lon="3.43953">
        <ele>63.8</ele>
        <time>2023-08-06T18:35:41Z</time>
      </trkpt>
      <trkpt lat="49.59426" lon="3.43954">
        <ele>63.6</ele>
        <time>2023-08-06T18:35:42Z</time>
      </trkpt>
      <trkpt lat="49.59424" lon="3.43958">
        <ele>64</ele>
        <time>2023-08-06T18:35:44Z</time>
      </trkpt>
      <trkpt lat="49.59421" lon="3.43964">
        <ele>64.2</ele>
        <time>2023-08-06T18:35:47Z</time>
      </trkpt>
      <trkpt lat="49.59419" lon="3.43968">
        <ele>64.4</ele>
        <time>2023-08-06T18:35:49Z</time>
      </trkpt>
      <trkpt lat="49.59412" lon="3.43984">
        <ele>65</ele>
        <time>2023-08-06T18:35:55Z</time>
      </trkpt>
      <trkpt lat="49.59411" lon="3.43988">
        <ele>65</ele>
        <time>2023-08-06T18:35:57Z</time>
      </trkpt>
      <trkpt lat="49.59406" lon="3.43999">
        <ele>65.4</ele>
        <time>2023-08-06T18:36:02Z</time>
      </trkpt>
      <trkpt lat="49.59401" lon="3.44008">
        <ele>65.4</ele>
        <time>2023-08-06T18:36:06Z</time>
      </trkpt>
      <trkpt lat="49.59399" lon="3.44017">
        <ele>65.8</ele>
        <time>2023-08-06T18:36:10Z</time>
      </trkpt>
      <trkpt lat="49.59393" lon="3.44034">
        <ele>65.8</ele>
        <time>2023-08-06T18:36:15Z</time>
      </trkpt>
      <trkpt lat="49.5939" lon="3.44041">
        <ele>65.8</ele>
        <time>2023-08-06T18:36:16Z</time>
      </trkpt>
      <trkpt lat="49.59388" lon="3.44044">
        <ele>65.6</ele>
        <time>2023-08-06T18:36:17Z</time>
      </trkpt>
      <trkpt lat="49.59387" lon="3.44047">
        <ele>65.6</ele>
        <time>2023-08-06T18:36:18Z</time>
      </trkpt>
      <trkpt lat="49.59385" lon="3.44052">
        <ele>65.6</ele>
        <time>2023-08-06T18:36:19Z</time>
      </trkpt>
      <trkpt lat="49.5938" lon="3.44064">
        <ele>65.4</ele>
        <time>2023-08-06T18:36:21Z</time>
      </trkpt>
      <trkpt lat="49.59377" lon="3.44072">
        <ele>65.4</ele>
        <time>2023-08-06T18:36:22Z</time>
      </trkpt>
      <trkpt lat="49.59369" lon="3.44086">
        <ele>64.8</ele>
        <time>2023-08-06T18:36:24Z</time>
      </trkpt>
      <trkpt lat="49.59365" lon="3.44098">
        <ele>64.6</ele>
        <time>2023-08-06T18:36:26Z</time>
      </trkpt>
      <trkpt lat="49.59361" lon="3.44112">
        <ele>64.4</ele>
        <time>2023-08-06T18:36:28Z</time>
      </trkpt>
      <trkpt lat="49.59359" lon="3.44117">
        <ele>64.4</ele>
        <time>2023-08-06T18:36:29Z</time>
      </trkpt>
      <trkpt lat="49.59356" lon="3.44123">
        <ele>64.4</ele>
        <time>2023-08-06T18:36:30Z</time>
      </trkpt>
      <trkpt lat="49.59355" lon="3.44127">
        <ele>64.4</ele>
        <time>2023-08-06T18:36:31Z</time>
      </trkpt>
      <trkpt lat="49.59353" lon="3.4413">
        <ele>64.4</ele>
        <time>2023-08-06T18:36:32Z</time>
      </trkpt>
      <trkpt lat="49.59351" lon="3.44134">
        <ele>64.4</ele>
        <time>2023-08-06T18:36:33Z</time>
      </trkpt>
      <trkpt lat="49.5935" lon="3.44136">
        <ele>64.4</ele>
        <time>2023-08-06T18:36:34Z</time>
      </trkpt>
      <trkpt lat="49.59348" lon="3.44139">
        <ele>64.4</ele>
        <time>2023-08-06T18:36:35Z</time>
      </trkpt>
      <trkpt lat="49.59347" lon="3.44142">
        <ele>64.2</ele>
        <time>2023-08-06T18:36:36Z</time>
      </trkpt>
      <trkpt lat="49.59346" lon="3.44146">
        <ele>64.2</ele>
        <time>2023-08-06T18:36:37Z</time>
      </trkpt>
      <trkpt lat="49.59345" lon="3.44148">
        <ele>64.2</ele>
        <time>2023-08-06T18:36:38Z</time>
      </trkpt>
      <trkpt lat="49.59343" lon="3.4415">
        <ele>64.2</ele>
        <time>2023-08-06T18:36:39Z</time>
      </trkpt>
      <trkpt lat="49.59342" lon="3.44155">
        <ele>64</ele>
        <time>2023-08-06T18:36:40Z</time>
      </trkpt>
      <trkpt lat="49.5934" lon="3.44159">
        <ele>64</ele>
        <time>2023-08-06T18:36:41Z</time>
      </trkpt>
      <trkpt lat="49.5933" lon="3.44176">
        <ele>64.2</ele>
        <time>2023-08-06T18:36:47Z</time>
      </trkpt>
      <trkpt lat="49.59329" lon="3.44178">
        <ele>64.2</ele>
        <time>2023-08-06T18:36:48Z</time>
      </trkpt>
      <trkpt lat="49.59327" lon="3.44183">
        <ele>64.4</ele>
        <time>2023-08-06T18:36:50Z</time>
      </trkpt>
      <trkpt lat="49.59326" lon="3.44186">
        <ele>64.4</ele>
        <time>2023-08-06T18:36:51Z</time>
      </trkpt>
      <trkpt lat="49.59326" lon="3.44188">
        <ele>64.4</ele>
        <time>2023-08-06T18:36:52Z</time>
      </trkpt>
      <trkpt lat="49.59326" lon="3.4419">
        <ele>64.4</ele>
        <time>2023-08-06T18:36:53Z</time>
      </trkpt>
      <trkpt lat="49.59325" lon="3.44191">
        <ele>64.4</ele>
        <time>2023-08-06T18:36:54Z</time>
      </trkpt>
      <trkpt lat="49.59324" lon="3.44192">
        <ele>64.6</ele>
        <time>2023-08-06T18:36:55Z</time>
      </trkpt>
      <trkpt lat="49.59323" lon="3.44194">
        <ele>64.6</ele>
        <time>2023-08-06T18:36:56Z</time>
      </trkpt>
      <trkpt lat="49.59322" lon="3.44195">
        <ele>64.8</ele>
        <time>2023-08-06T18:36:57Z</time>
      </trkpt>
      <trkpt lat="49.5932" lon="3.44197">
        <ele>64.8</ele>
        <time>2023-08-06T18:36:58Z</time>
      </trkpt>
      <trkpt lat="49.59319" lon="3.44199">
        <ele>65</ele>
        <time>2023-08-06T18:36:59Z</time>
      </trkpt>
      <trkpt lat="49.59317" lon="3.44202">
        <ele>65.2</ele>
        <time>2023-08-06T18:37:01Z</time>
      </trkpt>
      <trkpt lat="49.59316" lon="3.44203">
        <ele>65.2</ele>
        <time>2023-08-06T18:37:02Z</time>
      </trkpt>
      <trkpt lat="49.59314" lon="3.44204">
        <ele>65.4</ele>
        <time>2023-08-06T18:37:03Z</time>
      </trkpt>
      <trkpt lat="49.59313" lon="3.44206">
        <ele>65.6</ele>
        <time>2023-08-06T18:37:04Z</time>
      </trkpt>
      <trkpt lat="49.59311" lon="3.44207">
        <ele>65.6</ele>
        <time>2023-08-06T18:37:05Z</time>
      </trkpt>
      <trkpt lat="49.59309" lon="3.44209">
        <ele>65.6</ele>
        <time>2023-08-06T18:37:06Z</time>
      </trkpt>
      <trkpt lat="49.59308" lon="3.4421">
        <ele>65.6</ele>
        <time>2023-08-06T18:37:07Z</time>
      </trkpt>
      <trkpt lat="49.59306" lon="3.4421">
        <ele>65.8</ele>
        <time>2023-08-06T18:37:08Z</time>
      </trkpt>
      <trkpt lat="49.59304" lon="3.44211">
        <ele>65.6</ele>
        <time>2023-08-06T18:37:09Z</time>
      </trkpt>
      <trkpt lat="49.59302" lon="3.4421">
        <ele>65.6</ele>
        <time>2023-08-06T18:37:10Z</time>
      </trkpt>
      <trkpt lat="49.59299" lon="3.4421">
        <ele>65.6</ele>
        <time>2023-08-06T18:37:11Z</time>
      </trkpt>
      <trkpt lat="49.59282" lon="3.44211">
        <ele>65.8</ele>
        <time>2023-08-06T18:37:17Z</time>
      </trkpt>
      <trkpt lat="49.59271" lon="3.44211">
        <ele>66</ele>
        <time>2023-08-06T18:37:23Z</time>
      </trkpt>
      <trkpt lat="49.59268" lon="3.44211">
        <ele>66</ele>
        <time>2023-08-06T18:37:24Z</time>
      </trkpt>
      <trkpt lat="49.59266" lon="3.44211">
        <ele>66.2</ele>
        <time>2023-08-06T18:37:25Z</time>
      </trkpt>
      <trkpt lat="49.59265" lon="3.44211">
        <ele>66.2</ele>
        <time>2023-08-06T18:37:26Z</time>
      </trkpt>
      <trkpt lat="49.59264" lon="3.4421">
        <ele>66.2</ele>
        <time>2023-08-06T18:37:27Z</time>
      </trkpt>
      <trkpt lat="49.59264" lon="3.4421">
        <ele>66.2</ele>
        <time>2023-08-06T18:37:28Z</time>
      </trkpt>
      <trkpt lat="49.59263" lon="3.4421">
        <ele>66.2</ele>
        <time>2023-08-06T18:37:29Z</time>
      </trkpt>
      <trkpt lat="49.59262" lon="3.4421">
        <ele>66.2</ele>
        <time>2023-08-06T18:37:30Z</time>
      </trkpt>
      <trkpt lat="49.59261" lon="3.44209">
        <ele>66.4</ele>
        <time>2023-08-06T18:37:31Z</time>
      </trkpt>
      <trkpt lat="49.5926" lon="3.44207">
        <ele>66.4</ele>
        <time>2023-08-06T18:37:32Z</time>
      </trkpt>
      <trkpt lat="49.59259" lon="3.44206">
        <ele>66.4</ele>
        <time>2023-08-06T18:37:33Z</time>
      </trkpt>
      <trkpt lat="49.59257" lon="3.44205">
        <ele>66.4</ele>
        <time>2023-08-06T18:37:34Z</time>
      </trkpt>
      <trkpt lat="49.59256" lon="3.44205">
        <ele>66.6</ele>
        <time>2023-08-06T18:37:35Z</time>
      </trkpt>
      <trkpt lat="49.59255" lon="3.44204">
        <ele>66.8</ele>
        <time>2023-08-06T18:37:36Z</time>
      </trkpt>
      <trkpt lat="49.59254" lon="3.44203">
        <ele>66.8</ele>
        <time>2023-08-06T18:37:37Z</time>
      </trkpt>
      <trkpt lat="49.59252" lon="3.44203">
        <ele>66.8</ele>
        <time>2023-08-06T18:37:38Z</time>
      </trkpt>
      <trkpt lat="49.59251" lon="3.44202">
        <ele>67</ele>
        <time>2023-08-06T18:37:39Z</time>
      </trkpt>
      <trkpt lat="49.5925" lon="3.44202">
        <ele>67</ele>
        <time>2023-08-06T18:37:40Z</time>
      </trkpt>
      <trkpt lat="49.59249" lon="3.44202">
        <ele>67.2</ele>
        <time>2023-08-06T18:37:41Z</time>
      </trkpt>
      <trkpt lat="49.59247" lon="3.44203">
        <ele>67.4</ele>
        <time>2023-08-06T18:37:43Z</time>
      </trkpt>
      <trkpt lat="49.59247" lon="3.44204">
        <ele>67.6</ele>
        <time>2023-08-06T18:37:44Z</time>
      </trkpt>
      <trkpt lat="49.59246" lon="3.44205">
        <ele>67.8</ele>
        <time>2023-08-06T18:37:45Z</time>
      </trkpt>
      <trkpt lat="49.59246" lon="3.44207">
        <ele>68</ele>
        <time>2023-08-06T18:37:46Z</time>
      </trkpt>
      <trkpt lat="49.59244" lon="3.44213">
        <ele>68.4</ele>
        <time>2023-08-06T18:37:50Z</time>
      </trkpt>
      <trkpt lat="49.59244" lon="3.44215">
        <ele>68.4</ele>
        <time>2023-08-06T18:37:51Z</time>
      </trkpt>
      <trkpt lat="49.59242" lon="3.4422">
        <ele>68.4</ele>
        <time>2023-08-06T18:37:53Z</time>
      </trkpt>
      <trkpt lat="49.59242" lon="3.44223">
        <ele>68.6</ele>
        <time>2023-08-06T18:37:55Z</time>
      </trkpt>
      <trkpt lat="49.59242" lon="3.44228">
        <ele>68.8</ele>
        <time>2023-08-06T18:37:58Z</time>
      </trkpt>
      <trkpt lat="49.5924" lon="3.4423">
        <ele>68.8</ele>
        <time>2023-08-06T18:37:59Z</time>
      </trkpt>
      <trkpt lat="49.5924" lon="3.44231">
        <ele>68.8</ele>
        <time>2023-08-06T18:38:00Z</time>
      </trkpt>
      <trkpt lat="49.59239" lon="3.44233">
        <ele>68.8</ele>
        <time>2023-08-06T18:38:01Z</time>
      </trkpt>
      <trkpt lat="49.59239" lon="3.44236">
        <ele>68.8</ele>
        <time>2023-08-06T18:38:02Z</time>
      </trkpt>
      <trkpt lat="49.59237" lon="3.44241">
        <ele>68.8</ele>
        <time>2023-08-06T18:38:04Z</time>
      </trkpt>
      <trkpt lat="49.59236" lon="3.44244">
        <ele>68.8</ele>
        <time>2023-08-06T18:38:05Z</time>
      </trkpt>
      <trkpt lat="49.59235" lon="3.44247">
        <ele>69</ele>
        <time>2023-08-06T18:38:06Z</time>
      </trkpt>
      <trkpt lat="49.59234" lon="3.44251">
        <ele>69</ele>
        <time>2023-08-06T18:38:08Z</time>
      </trkpt>
      <trkpt lat="49.59233" lon="3.44261">
        <ele>69.4</ele>
        <time>2023-08-06T18:38:11Z</time>
      </trkpt>
      <trkpt lat="49.59231" lon="3.44266">
        <ele>69.4</ele>
        <time>2023-08-06T18:38:12Z</time>
      </trkpt>
      <trkpt lat="49.59231" lon="3.44268">
        <ele>69.4</ele>
        <time>2023-08-06T18:38:13Z</time>
      </trkpt>
      <trkpt lat="49.5923" lon="3.44269">
        <ele>69.6</ele>
        <time>2023-08-06T18:38:14Z</time>
      </trkpt>
      <trkpt lat="49.59228" lon="3.44272">
        <ele>69.6</ele>
        <time>2023-08-06T18:38:15Z</time>
      </trkpt>
      <trkpt lat="49.59224" lon="3.44282">
        <ele>69.8</ele>
        <time>2023-08-06T18:38:20Z</time>
      </trkpt>
      <trkpt lat="49.59224" lon="3.44284">
        <ele>69.8</ele>
        <time>2023-08-06T18:38:21Z</time>
      </trkpt>
      <trkpt lat="49.59223" lon="3.44286">
        <ele>70</ele>
        <time>2023-08-06T18:38:22Z</time>
      </trkpt>
      <trkpt lat="49.59221" lon="3.44291">
        <ele>70.2</ele>
        <time>2023-08-06T18:38:25Z</time>
      </trkpt>
      <trkpt lat="49.5922" lon="3.44295">
        <ele>70.2</ele>
        <time>2023-08-06T18:38:27Z</time>
      </trkpt>
      <trkpt lat="49.5922" lon="3.44297">
        <ele>70.4</ele>
        <time>2023-08-06T18:38:28Z</time>
      </trkpt>
      <trkpt lat="49.59219" lon="3.44298">
        <ele>70.4</ele>
        <time>2023-08-06T18:38:29Z</time>
      </trkpt>
      <trkpt lat="49.59219" lon="3.44299">
        <ele>70.4</ele>
        <time>2023-08-06T18:38:30Z</time>
      </trkpt>
      <trkpt lat="49.59217" lon="3.44301">
        <ele>70.4</ele>
        <time>2023-08-06T18:38:31Z</time>
      </trkpt>
      <trkpt lat="49.59216" lon="3.44302">
        <ele>70.6</ele>
        <time>2023-08-06T18:38:32Z</time>
      </trkpt>
      <trkpt lat="49.59214" lon="3.44308">
        <ele>70.8</ele>
        <time>2023-08-06T18:38:35Z</time>
      </trkpt>
      <trkpt lat="49.59213" lon="3.44309">
        <ele>70.8</ele>
        <time>2023-08-06T18:38:36Z</time>
      </trkpt>
      <trkpt lat="49.59212" lon="3.4431">
        <ele>70.8</ele>
        <time>2023-08-06T18:38:37Z</time>
      </trkpt>
      <trkpt lat="49.59212" lon="3.44312">
        <ele>71</ele>
        <time>2023-08-06T18:38:38Z</time>
      </trkpt>
      <trkpt lat="49.59208" lon="3.4432">
        <ele>71.2</ele>
        <time>2023-08-06T18:38:42Z</time>
      </trkpt>
      <trkpt lat="49.59207" lon="3.44321">
        <ele>71.2</ele>
        <time>2023-08-06T18:38:43Z</time>
      </trkpt>
      <trkpt lat="49.59206" lon="3.44324">
        <ele>71.4</ele>
        <time>2023-08-06T18:38:45Z</time>
      </trkpt>
      <trkpt lat="49.59206" lon="3.44326">
        <ele>71.4</ele>
        <time>2023-08-06T18:38:46Z</time>
      </trkpt>
      <trkpt lat="49.59205" lon="3.44328">
        <ele>71.6</ele>
        <time>2023-08-06T18:38:47Z</time>
      </trkpt>
      <trkpt lat="49.59204" lon="3.4433">
        <ele>71.8</ele>
        <time>2023-08-06T18:38:48Z</time>
      </trkpt>
      <trkpt lat="49.59203" lon="3.44332">
        <ele>71.8</ele>
        <time>2023-08-06T18:38:49Z</time>
      </trkpt>
      <trkpt lat="49.59202" lon="3.44336">
        <ele>72.2</ele>
        <time>2023-08-06T18:38:51Z</time>
      </trkpt>
      <trkpt lat="49.59201" lon="3.44338">
        <ele>72.2</ele>
        <time>2023-08-06T18:38:52Z</time>
      </trkpt>
      <trkpt lat="49.592" lon="3.44342">
        <ele>72.2</ele>
        <time>2023-08-06T18:38:53Z</time>
      </trkpt>
      <trkpt lat="49.59198" lon="3.44345">
        <ele>72.4</ele>
        <time>2023-08-06T18:38:54Z</time>
      </trkpt>
      <trkpt lat="49.59196" lon="3.44347">
        <ele>72.4</ele>
        <time>2023-08-06T18:38:55Z</time>
      </trkpt>
      <trkpt lat="49.59196" lon="3.4435">
        <ele>72.6</ele>
        <time>2023-08-06T18:38:58Z</time>
      </trkpt>
      <trkpt lat="49.59196" lon="3.4435">
        <ele>72.6</ele>
        <time>2023-08-06T18:38:59Z</time>
      </trkpt>
      <trkpt lat="49.59196" lon="3.44351">
        <ele>72.8</ele>
        <time>2023-08-06T18:39:00Z</time>
      </trkpt>
      <trkpt lat="49.59195" lon="3.44353">
        <ele>72.8</ele>
        <time>2023-08-06T18:39:01Z</time>
      </trkpt>
      <trkpt lat="49.59195" lon="3.44354">
        <ele>72.8</ele>
        <time>2023-08-06T18:39:02Z</time>
      </trkpt>
      <trkpt lat="49.59195" lon="3.44356">
        <ele>73</ele>
        <time>2023-08-06T18:39:03Z</time>
      </trkpt>
      <trkpt lat="49.59194" lon="3.44357">
        <ele>73</ele>
        <time>2023-08-06T18:39:04Z</time>
      </trkpt>
      <trkpt lat="49.59194" lon="3.44358">
        <ele>73</ele>
        <time>2023-08-06T18:39:05Z</time>
      </trkpt>
      <trkpt lat="49.59193" lon="3.44363">
        <ele>73.2</ele>
        <time>2023-08-06T18:39:08Z</time>
      </trkpt>
      <trkpt lat="49.59192" lon="3.44364">
        <ele>73.4</ele>
        <time>2023-08-06T18:39:09Z</time>
      </trkpt>
      <trkpt lat="49.59192" lon="3.44366">
        <ele>73.4</ele>
        <time>2023-08-06T18:39:10Z</time>
      </trkpt>
      <trkpt lat="49.59192" lon="3.44367">
        <ele>73.6</ele>
        <time>2023-08-06T18:39:11Z</time>
      </trkpt>
      <trkpt lat="49.59191" lon="3.44368">
        <ele>73.8</ele>
        <time>2023-08-06T18:39:13Z</time>
      </trkpt>
      <trkpt lat="49.59191" lon="3.4437">
        <ele>74</ele>
        <time>2023-08-06T18:39:14Z</time>
      </trkpt>
      <trkpt lat="49.5919" lon="3.44372">
        <ele>74</ele>
        <time>2023-08-06T18:39:15Z</time>
      </trkpt>
      <trkpt lat="49.5919" lon="3.44374">
        <ele>74.2</ele>
        <time>2023-08-06T18:39:16Z</time>
      </trkpt>
      <trkpt lat="49.59187" lon="3.44382">
        <ele>75</ele>
        <time>2023-08-06T18:39:20Z</time>
      </trkpt>
      <trkpt lat="49.59187" lon="3.44384">
        <ele>75.2</ele>
        <time>2023-08-06T18:39:21Z</time>
      </trkpt>
      <trkpt lat="49.59185" lon="3.44386">
        <ele>75.2</ele>
        <time>2023-08-06T18:39:22Z</time>
      </trkpt>
      <trkpt lat="49.59184" lon="3.44387">
        <ele>75.2</ele>
        <time>2023-08-06T18:39:23Z</time>
      </trkpt>
      <trkpt lat="49.59184" lon="3.44389">
        <ele>75.4</ele>
        <time>2023-08-06T18:39:24Z</time>
      </trkpt>
      <trkpt lat="49.59183" lon="3.4439">
        <ele>75.4</ele>
        <time>2023-08-06T18:39:25Z</time>
      </trkpt>
      <trkpt lat="49.59183" lon="3.44391">
        <ele>75.4</ele>
        <time>2023-08-06T18:39:26Z</time>
      </trkpt>
      <trkpt lat="49.59182" lon="3.44392">
        <ele>75.6</ele>
        <time>2023-08-06T18:39:27Z</time>
      </trkpt>
      <trkpt lat="49.59182" lon="3.44394">
        <ele>75.6</ele>
        <time>2023-08-06T18:39:28Z</time>
      </trkpt>
      <trkpt lat="49.59181" lon="3.44395">
        <ele>75.6</ele>
        <time>2023-08-06T18:39:29Z</time>
      </trkpt>
      <trkpt lat="49.59181" lon="3.44397">
        <ele>75.8</ele>
        <time>2023-08-06T18:39:30Z</time>
      </trkpt>
      <trkpt lat="49.5918" lon="3.44399">
        <ele>75.8</ele>
        <time>2023-08-06T18:39:31Z</time>
      </trkpt>
      <trkpt lat="49.5918" lon="3.444">
        <ele>75.8</ele>
        <time>2023-08-06T18:39:32Z</time>
      </trkpt>
      <trkpt lat="49.5918" lon="3.44402">
        <ele>76</ele>
        <time>2023-08-06T18:39:33Z</time>
      </trkpt>
      <trkpt lat="49.59179" lon="3.44403">
        <ele>76.2</ele>
        <time>2023-08-06T18:39:34Z</time>
      </trkpt>
      <trkpt lat="49.59178" lon="3.44405">
        <ele>76.2</ele>
        <time>2023-08-06T18:39:35Z</time>
      </trkpt>
      <trkpt lat="49.59177" lon="3.44407">
        <ele>76.2</ele>
        <time>2023-08-06T18:39:36Z</time>
      </trkpt>
      <trkpt lat="49.59171" lon="3.4442">
        <ele>76.4</ele>
        <time>2023-08-06T18:39:42Z</time>
      </trkpt>
      <trkpt lat="49.59171" lon="3.44422">
        <ele>76.6</ele>
        <time>2023-08-06T18:39:43Z</time>
      </trkpt>
      <trkpt lat="49.59172" lon="3.44425">
        <ele>76.6</ele>
        <time>2023-08-06T18:39:44Z</time>
      </trkpt>
      <trkpt lat="49.59172" lon="3.44427">
        <ele>76.8</ele>
        <time>2023-08-06T18:39:45Z</time>
      </trkpt>
      <trkpt lat="49.59172" lon="3.44428">
        <ele>76.8</ele>
        <time>2023-08-06T18:39:46Z</time>
      </trkpt>
      <trkpt lat="49.59172" lon="3.44429">
        <ele>77</ele>
        <time>2023-08-06T18:39:47Z</time>
      </trkpt>
      <trkpt lat="49.59171" lon="3.44431">
        <ele>77</ele>
        <time>2023-08-06T18:39:48Z</time>
      </trkpt>
      <trkpt lat="49.5917" lon="3.44433">
        <ele>77.2</ele>
        <time>2023-08-06T18:39:50Z</time>
      </trkpt>
      <trkpt lat="49.59169" lon="3.44434">
        <ele>77.2</ele>
        <time>2023-08-06T18:39:51Z</time>
      </trkpt>
      <trkpt lat="49.59169" lon="3.44436">
        <ele>77.4</ele>
        <time>2023-08-06T18:39:52Z</time>
      </trkpt>
      <trkpt lat="49.59168" lon="3.44437">
        <ele>77.4</ele>
        <time>2023-08-06T18:39:53Z</time>
      </trkpt>
      <trkpt lat="49.59168" lon="3.44438">
        <ele>77.4</ele>
        <time>2023-08-06T18:39:54Z</time>
      </trkpt>
      <trkpt lat="49.59168" lon="3.4444">
        <ele>77.6</ele>
        <time>2023-08-06T18:39:55Z</time>
      </trkpt>
      <trkpt lat="49.59168" lon="3.44443">
        <ele>77.8</ele>
        <time>2023-08-06T18:39:57Z</time>
      </trkpt>
      <trkpt lat="49.59167" lon="3.44449">
        <ele>78</ele>
        <time>2023-08-06T18:40:00Z</time>
      </trkpt>
      <trkpt lat="49.59166" lon="3.44451">
        <ele>78</ele>
        <time>2023-08-06T18:40:01Z</time>
      </trkpt>
      <trkpt lat="49.59165" lon="3.44453">
        <ele>78.2</ele>
        <time>2023-08-06T18:40:02Z</time>
      </trkpt>
      <trkpt lat="49.59165" lon="3.44455">
        <ele>78.2</ele>
        <time>2023-08-06T18:40:03Z</time>
      </trkpt>
      <trkpt lat="49.59165" lon="3.44456">
        <ele>78.4</ele>
        <time>2023-08-06T18:40:04Z</time>
      </trkpt>
      <trkpt lat="49.59164" lon="3.44457">
        <ele>78.4</ele>
        <time>2023-08-06T18:40:05Z</time>
      </trkpt>
      <trkpt lat="49.59163" lon="3.4446">
        <ele>78.8</ele>
        <time>2023-08-06T18:40:07Z</time>
      </trkpt>
      <trkpt lat="49.59162" lon="3.44461">
        <ele>78.8</ele>
        <time>2023-08-06T18:40:08Z</time>
      </trkpt>
      <trkpt lat="49.59162" lon="3.44464">
        <ele>79</ele>
        <time>2023-08-06T18:40:09Z</time>
      </trkpt>
      <trkpt lat="49.59159" lon="3.44469">
        <ele>79.4</ele>
        <time>2023-08-06T18:40:12Z</time>
      </trkpt>
      <trkpt lat="49.59159" lon="3.4447">
        <ele>79.6</ele>
        <time>2023-08-06T18:40:13Z</time>
      </trkpt>
      <trkpt lat="49.59158" lon="3.44472">
        <ele>79.6</ele>
        <time>2023-08-06T18:40:14Z</time>
      </trkpt>
      <trkpt lat="49.59157" lon="3.44473">
        <ele>79.6</ele>
        <time>2023-08-06T18:40:15Z</time>
      </trkpt>
      <trkpt lat="49.59156" lon="3.44479">
        <ele>80</ele>
        <time>2023-08-06T18:40:18Z</time>
      </trkpt>
      <trkpt lat="49.59155" lon="3.4448">
        <ele>80.2</ele>
        <time>2023-08-06T18:40:19Z</time>
      </trkpt>
      <trkpt lat="49.59154" lon="3.44481">
        <ele>80.2</ele>
        <time>2023-08-06T18:40:20Z</time>
      </trkpt>
      <trkpt lat="49.59154" lon="3.44483">
        <ele>80.2</ele>
        <time>2023-08-06T18:40:21Z</time>
      </trkpt>
      <trkpt lat="49.59153" lon="3.44485">
        <ele>80.4</ele>
        <time>2023-08-06T18:40:22Z</time>
      </trkpt>
      <trkpt lat="49.59152" lon="3.44487">
        <ele>80.6</ele>
        <time>2023-08-06T18:40:23Z</time>
      </trkpt>
      <trkpt lat="49.59151" lon="3.44489">
        <ele>80.6</ele>
        <time>2023-08-06T18:40:24Z</time>
      </trkpt>
      <trkpt lat="49.5915" lon="3.44491">
        <ele>80.8</ele>
        <time>2023-08-06T18:40:25Z</time>
      </trkpt>
      <trkpt lat="49.59149" lon="3.44493">
        <ele>80.8</ele>
        <time>2023-08-06T18:40:26Z</time>
      </trkpt>
      <trkpt lat="49.59148" lon="3.44495">
        <ele>81</ele>
        <time>2023-08-06T18:40:27Z</time>
      </trkpt>
      <trkpt lat="49.59148" lon="3.44497">
        <ele>81</ele>
        <time>2023-08-06T18:40:28Z</time>
      </trkpt>
      <trkpt lat="49.59147" lon="3.44499">
        <ele>81.2</ele>
        <time>2023-08-06T18:40:29Z</time>
      </trkpt>
      <trkpt lat="49.59146" lon="3.445">
        <ele>81.2</ele>
        <time>2023-08-06T18:40:30Z</time>
      </trkpt>
      <trkpt lat="49.59146" lon="3.44501">
        <ele>81.4</ele>
        <time>2023-08-06T18:40:31Z</time>
      </trkpt>
      <trkpt lat="49.59145" lon="3.44503">
        <ele>81.4</ele>
        <time>2023-08-06T18:40:32Z</time>
      </trkpt>
      <trkpt lat="49.59144" lon="3.44504">
        <ele>81.6</ele>
        <time>2023-08-06T18:40:33Z</time>
      </trkpt>
      <trkpt lat="49.59143" lon="3.44506">
        <ele>81.8</ele>
        <time>2023-08-06T18:40:34Z</time>
      </trkpt>
      <trkpt lat="49.59143" lon="3.44507">
        <ele>81.8</ele>
        <time>2023-08-06T18:40:35Z</time>
      </trkpt>
      <trkpt lat="49.59142" lon="3.44509">
        <ele>82</ele>
        <time>2023-08-06T18:40:36Z</time>
      </trkpt>
      <trkpt lat="49.59142" lon="3.44511">
        <ele>82.2</ele>
        <time>2023-08-06T18:40:37Z</time>
      </trkpt>
      <trkpt lat="49.59141" lon="3.44512">
        <ele>82.4</ele>
        <time>2023-08-06T18:40:38Z</time>
      </trkpt>
      <trkpt lat="49.5914" lon="3.44514">
        <ele>82.4</ele>
        <time>2023-08-06T18:40:39Z</time>
      </trkpt>
      <trkpt lat="49.5914" lon="3.44515">
        <ele>82.6</ele>
        <time>2023-08-06T18:40:40Z</time>
      </trkpt>
      <trkpt lat="49.59139" lon="3.44517">
        <ele>82.8</ele>
        <time>2023-08-06T18:40:41Z</time>
      </trkpt>
      <trkpt lat="49.59138" lon="3.44518">
        <ele>83</ele>
        <time>2023-08-06T18:40:42Z</time>
      </trkpt>
      <trkpt lat="49.59137" lon="3.4452">
        <ele>83</ele>
        <time>2023-08-06T18:40:43Z</time>
      </trkpt>
      <trkpt lat="49.59136" lon="3.4452">
        <ele>83.2</ele>
        <time>2023-08-06T18:40:44Z</time>
      </trkpt>
      <trkpt lat="49.59135" lon="3.44521">
        <ele>83.2</ele>
        <time>2023-08-06T18:40:45Z</time>
      </trkpt>
      <trkpt lat="49.59134" lon="3.44522">
        <ele>83.4</ele>
        <time>2023-08-06T18:40:46Z</time>
      </trkpt>
      <trkpt lat="49.59134" lon="3.44524">
        <ele>83.6</ele>
        <time>2023-08-06T18:40:47Z</time>
      </trkpt>
      <trkpt lat="49.59133" lon="3.44525">
        <ele>83.6</ele>
        <time>2023-08-06T18:40:48Z</time>
      </trkpt>
      <trkpt lat="49.59132" lon="3.44526">
        <ele>83.8</ele>
        <time>2023-08-06T18:40:49Z</time>
      </trkpt>
      <trkpt lat="49.59131" lon="3.44528">
        <ele>84</ele>
        <time>2023-08-06T18:40:50Z</time>
      </trkpt>
      <trkpt lat="49.5913" lon="3.44528">
        <ele>84</ele>
        <time>2023-08-06T18:40:51Z</time>
      </trkpt>
      <trkpt lat="49.5913" lon="3.4453">
        <ele>84.2</ele>
        <time>2023-08-06T18:40:52Z</time>
      </trkpt>
      <trkpt lat="49.59129" lon="3.4453">
        <ele>84.2</ele>
        <time>2023-08-06T18:40:53Z</time>
      </trkpt>
      <trkpt lat="49.59128" lon="3.44531">
        <ele>84.2</ele>
        <time>2023-08-06T18:40:54Z</time>
      </trkpt>
      <trkpt lat="49.59127" lon="3.44532">
        <ele>84.4</ele>
        <time>2023-08-06T18:40:55Z</time>
      </trkpt>
      <trkpt lat="49.59126" lon="3.44534">
        <ele>84.6</ele>
        <time>2023-08-06T18:40:56Z</time>
      </trkpt>
      <trkpt lat="49.59126" lon="3.44535">
        <ele>84.6</ele>
        <time>2023-08-06T18:40:57Z</time>
      </trkpt>
      <trkpt lat="49.59125" lon="3.44535">
        <ele>84.8</ele>
        <time>2023-08-06T18:40:58Z</time>
      </trkpt>
      <trkpt lat="49.59124" lon="3.44537">
        <ele>84.8</ele>
        <time>2023-08-06T18:40:59Z</time>
      </trkpt>
      <trkpt lat="49.59123" lon="3.44538">
        <ele>84.8</ele>
        <time>2023-08-06T18:41:00Z</time>
      </trkpt>
      <trkpt lat="49.59121" lon="3.44539">
        <ele>85</ele>
        <time>2023-08-06T18:41:01Z</time>
      </trkpt>
      <trkpt lat="49.5912" lon="3.4454">
        <ele>85</ele>
        <time>2023-08-06T18:41:02Z</time>
      </trkpt>
      <trkpt lat="49.59119" lon="3.4454">
        <ele>85</ele>
        <time>2023-08-06T18:41:03Z</time>
      </trkpt>
      <trkpt lat="49.59118" lon="3.44542">
        <ele>85.2</ele>
        <time>2023-08-06T18:41:04Z</time>
      </trkpt>
      <trkpt lat="49.59118" lon="3.44543">
        <ele>85.4</ele>
        <time>2023-08-06T18:41:05Z</time>
      </trkpt>
      <trkpt lat="49.59117" lon="3.44545">
        <ele>85.4</ele>
        <time>2023-08-06T18:41:06Z</time>
      </trkpt>
      <trkpt lat="49.59116" lon="3.44546">
        <ele>85.6</ele>
        <time>2023-08-06T18:41:07Z</time>
      </trkpt>
      <trkpt lat="49.59116" lon="3.44548">
        <ele>85.6</ele>
        <time>2023-08-06T18:41:08Z</time>
      </trkpt>
      <trkpt lat="49.59115" lon="3.4455">
        <ele>85.8</ele>
        <time>2023-08-06T18:41:09Z</time>
      </trkpt>
      <trkpt lat="49.59115" lon="3.44551">
        <ele>85.8</ele>
        <time>2023-08-06T18:41:10Z</time>
      </trkpt>
      <trkpt lat="49.59114" lon="3.44553">
        <ele>86</ele>
        <time>2023-08-06T18:41:11Z</time>
      </trkpt>
      <trkpt lat="49.59113" lon="3.44554">
        <ele>86.2</ele>
        <time>2023-08-06T18:41:12Z</time>
      </trkpt>
      <trkpt lat="49.59113" lon="3.44555">
        <ele>86.4</ele>
        <time>2023-08-06T18:41:13Z</time>
      </trkpt>
      <trkpt lat="49.59112" lon="3.44557">
        <ele>86.4</ele>
        <time>2023-08-06T18:41:14Z</time>
      </trkpt>
      <trkpt lat="49.59112" lon="3.44559">
        <ele>86.6</ele>
        <time>2023-08-06T18:41:15Z</time>
      </trkpt>
      <trkpt lat="49.59111" lon="3.4456">
        <ele>86.6</ele>
        <time>2023-08-06T18:41:16Z</time>
      </trkpt>
      <trkpt lat="49.5911" lon="3.44561">
        <ele>86.8</ele>
        <time>2023-08-06T18:41:17Z</time>
      </trkpt>
      <trkpt lat="49.5911" lon="3.44562">
        <ele>86.8</ele>
        <time>2023-08-06T18:41:18Z</time>
      </trkpt>
      <trkpt lat="49.5911" lon="3.44564">
        <ele>87</ele>
        <time>2023-08-06T18:41:19Z</time>
      </trkpt>
      <trkpt lat="49.59109" lon="3.44565">
        <ele>87.2</ele>
        <time>2023-08-06T18:41:20Z</time>
      </trkpt>
      <trkpt lat="49.59108" lon="3.44566">
        <ele>87.2</ele>
        <time>2023-08-06T18:41:21Z</time>
      </trkpt>
      <trkpt lat="49.59108" lon="3.44568">
        <ele>87.4</ele>
        <time>2023-08-06T18:41:22Z</time>
      </trkpt>
      <trkpt lat="49.59107" lon="3.44569">
        <ele>87.4</ele>
        <time>2023-08-06T18:41:23Z</time>
      </trkpt>
      <trkpt lat="49.59107" lon="3.4457">
        <ele>87.6</ele>
        <time>2023-08-06T18:41:24Z</time>
      </trkpt>
      <trkpt lat="49.59106" lon="3.44572">
        <ele>87.6</ele>
        <time>2023-08-06T18:41:25Z</time>
      </trkpt>
      <trkpt lat="49.59106" lon="3.44575">
        <ele>87.6</ele>
        <time>2023-08-06T18:41:26Z</time>
      </trkpt>
      <trkpt lat="49.59106" lon="3.44577">
        <ele>87.6</ele>
        <time>2023-08-06T18:41:27Z</time>
      </trkpt>
      <trkpt lat="49.59106" lon="3.44579">
        <ele>87.6</ele>
        <time>2023-08-06T18:41:28Z</time>
      </trkpt>
      <trkpt lat="49.59105" lon="3.44582">
        <ele>87.8</ele>
        <time>2023-08-06T18:41:29Z</time>
      </trkpt>
      <trkpt lat="49.59105" lon="3.44585">
        <ele>87.8</ele>
        <time>2023-08-06T18:41:30Z</time>
      </trkpt>
      <trkpt lat="49.59104" lon="3.44587">
        <ele>88</ele>
        <time>2023-08-06T18:41:31Z</time>
      </trkpt>
      <trkpt lat="49.59103" lon="3.4459">
        <ele>88</ele>
        <time>2023-08-06T18:41:32Z</time>
      </trkpt>
      <trkpt lat="49.59102" lon="3.44591">
        <ele>88.2</ele>
        <time>2023-08-06T18:41:33Z</time>
      </trkpt>
      <trkpt lat="49.59102" lon="3.44593">
        <ele>88.2</ele>
        <time>2023-08-06T18:41:34Z</time>
      </trkpt>
      <trkpt lat="49.59102" lon="3.44594">
        <ele>88.4</ele>
        <time>2023-08-06T18:41:35Z</time>
      </trkpt>
      <trkpt lat="49.59102" lon="3.44595">
        <ele>88.4</ele>
        <time>2023-08-06T18:41:36Z</time>
      </trkpt>
      <trkpt lat="49.59102" lon="3.44597">
        <ele>88.6</ele>
        <time>2023-08-06T18:41:37Z</time>
      </trkpt>
      <trkpt lat="49.59101" lon="3.446">
        <ele>88.6</ele>
        <time>2023-08-06T18:41:38Z</time>
      </trkpt>
      <trkpt lat="49.59101" lon="3.44602">
        <ele>88.6</ele>
        <time>2023-08-06T18:41:39Z</time>
      </trkpt>
      <trkpt lat="49.591" lon="3.44605">
        <ele>88.8</ele>
        <time>2023-08-06T18:41:40Z</time>
      </trkpt>
      <trkpt lat="49.591" lon="3.44608">
        <ele>89</ele>
        <time>2023-08-06T18:41:41Z</time>
      </trkpt>
      <trkpt lat="49.59099" lon="3.4461">
        <ele>89</ele>
        <time>2023-08-06T18:41:42Z</time>
      </trkpt>
      <trkpt lat="49.59098" lon="3.44612">
        <ele>89</ele>
        <time>2023-08-06T18:41:43Z</time>
      </trkpt>
      <trkpt lat="49.59097" lon="3.44613">
        <ele>89.2</ele>
        <time>2023-08-06T18:41:44Z</time>
      </trkpt>
      <trkpt lat="49.59096" lon="3.44614">
        <ele>89.2</ele>
        <time>2023-08-06T18:41:45Z</time>
      </trkpt>
      <trkpt lat="49.59097" lon="3.44616">
        <ele>89.4</ele>
        <time>2023-08-06T18:41:46Z</time>
      </trkpt>
      <trkpt lat="49.59097" lon="3.44618">
        <ele>89.4</ele>
        <time>2023-08-06T18:41:47Z</time>
      </trkpt>
      <trkpt lat="49.59097" lon="3.44621">
        <ele>89.6</ele>
        <time>2023-08-06T18:41:48Z</time>
      </trkpt>
      <trkpt lat="49.59097" lon="3.44623">
        <ele>89.8</ele>
        <time>2023-08-06T18:41:49Z</time>
      </trkpt>
      <trkpt lat="49.59097" lon="3.44625">
        <ele>89.8</ele>
        <time>2023-08-06T18:41:50Z</time>
      </trkpt>
      <trkpt lat="49.59095" lon="3.4463">
        <ele>90.2</ele>
        <time>2023-08-06T18:41:52Z</time>
      </trkpt>
      <trkpt lat="49.59095" lon="3.44631">
        <ele>90.4</ele>
        <time>2023-08-06T18:41:53Z</time>
      </trkpt>
      <trkpt lat="49.59095" lon="3.44635">
        <ele>90.4</ele>
        <time>2023-08-06T18:41:54Z</time>
      </trkpt>
      <trkpt lat="49.59095" lon="3.44637">
        <ele>90.6</ele>
        <time>2023-08-06T18:41:55Z</time>
      </trkpt>
      <trkpt lat="49.59097" lon="3.4464">
        <ele>90.8</ele>
        <time>2023-08-06T18:41:56Z</time>
      </trkpt>
      <trkpt lat="49.59099" lon="3.44643">
        <ele>90.8</ele>
        <time>2023-08-06T18:41:57Z</time>
      </trkpt>
      <trkpt lat="49.59098" lon="3.44646">
        <ele>91</ele>
        <time>2023-08-06T18:41:58Z</time>
      </trkpt>
      <trkpt lat="49.59098" lon="3.44649">
        <ele>91</ele>
        <time>2023-08-06T18:41:59Z</time>
      </trkpt>
      <trkpt lat="49.59099" lon="3.44652">
        <ele>91</ele>
        <time>2023-08-06T18:42:00Z</time>
      </trkpt>
      <trkpt lat="49.591" lon="3.44654">
        <ele>91.4</ele>
        <time>2023-08-06T18:42:01Z</time>
      </trkpt>
      <trkpt lat="49.591" lon="3.44655">
        <ele>91.4</ele>
        <time>2023-08-06T18:42:02Z</time>
      </trkpt>
      <trkpt lat="49.59101" lon="3.44656">
        <ele>91.4</ele>
        <time>2023-08-06T18:42:03Z</time>
      </trkpt>
      <trkpt lat="49.59102" lon="3.44657">
        <ele>91.4</ele>
        <time>2023-08-06T18:42:04Z</time>
      </trkpt>
      <trkpt lat="49.59103" lon="3.44659">
        <ele>91.6</ele>
        <time>2023-08-06T18:42:05Z</time>
      </trkpt>
      <trkpt lat="49.59104" lon="3.4466">
        <ele>92</ele>
        <time>2023-08-06T18:42:06Z</time>
      </trkpt>
      <trkpt lat="49.59104" lon="3.44662">
        <ele>92</ele>
        <time>2023-08-06T18:42:07Z</time>
      </trkpt>
      <trkpt lat="49.59105" lon="3.44662">
        <ele>92</ele>
        <time>2023-08-06T18:42:08Z</time>
      </trkpt>
      <trkpt lat="49.59106" lon="3.44664">
        <ele>92</ele>
        <time>2023-08-06T18:42:09Z</time>
      </trkpt>
      <trkpt lat="49.59106" lon="3.44665">
        <ele>92</ele>
        <time>2023-08-06T18:42:10Z</time>
      </trkpt>
      <trkpt lat="49.59107" lon="3.44666">
        <ele>92</ele>
        <time>2023-08-06T18:42:11Z</time>
      </trkpt>
      <trkpt lat="49.59108" lon="3.44668">
        <ele>92.2</ele>
        <time>2023-08-06T18:42:12Z</time>
      </trkpt>
      <trkpt lat="49.59109" lon="3.4467">
        <ele>92.2</ele>
        <time>2023-08-06T18:42:13Z</time>
      </trkpt>
      <trkpt lat="49.59109" lon="3.44672">
        <ele>92.2</ele>
        <time>2023-08-06T18:42:14Z</time>
      </trkpt>
      <trkpt lat="49.59109" lon="3.44673">
        <ele>92.4</ele>
        <time>2023-08-06T18:42:15Z</time>
      </trkpt>
      <trkpt lat="49.59111" lon="3.44682">
        <ele>92.6</ele>
        <time>2023-08-06T18:42:19Z</time>
      </trkpt>
      <trkpt lat="49.59116" lon="3.44701">
        <ele>93</ele>
        <time>2023-08-06T18:42:27Z</time>
      </trkpt>
      <trkpt lat="49.59116" lon="3.44703">
        <ele>93</ele>
        <time>2023-08-06T18:42:28Z</time>
      </trkpt>
      <trkpt lat="49.59119" lon="3.44713">
        <ele>93.2</ele>
        <time>2023-08-06T18:42:32Z</time>
      </trkpt>
      <trkpt lat="49.5912" lon="3.44715">
        <ele>93.4</ele>
        <time>2023-08-06T18:42:33Z</time>
      </trkpt>
      <trkpt lat="49.59121" lon="3.44718">
        <ele>93.4</ele>
        <time>2023-08-06T18:42:34Z</time>
      </trkpt>
      <trkpt lat="49.59122" lon="3.44721">
        <ele>93.6</ele>
        <time>2023-08-06T18:42:35Z</time>
      </trkpt>
      <trkpt lat="49.59122" lon="3.44723">
        <ele>93.6</ele>
        <time>2023-08-06T18:42:36Z</time>
      </trkpt>
      <trkpt lat="49.59123" lon="3.44726">
        <ele>93.8</ele>
        <time>2023-08-06T18:42:37Z</time>
      </trkpt>
      <trkpt lat="49.59123" lon="3.44728">
        <ele>93.8</ele>
        <time>2023-08-06T18:42:38Z</time>
      </trkpt>
      <trkpt lat="49.59123" lon="3.44731">
        <ele>94</ele>
        <time>2023-08-06T18:42:39Z</time>
      </trkpt>
      <trkpt lat="49.59123" lon="3.44731">
        <ele>94.2</ele>
        <time>2023-08-06T18:42:40Z</time>
      </trkpt>
      <trkpt lat="49.59123" lon="3.44731">
        <ele>94.4</ele>
        <time>2023-08-06T18:42:43Z</time>
      </trkpt>
      <trkpt lat="49.59123" lon="3.44731">
        <ele>94.4</ele>
        <time>2023-08-06T18:42:44Z</time>
      </trkpt>
      <trkpt lat="49.59189" lon="3.4497">
        <ele>113.8</ele>
        <time>2023-08-06T18:46:14Z</time>
      </trkpt>
      <trkpt lat="49.59195" lon="3.44968">
        <ele>113.6</ele>
        <time>2023-08-06T18:46:16Z</time>
      </trkpt>
      <trkpt lat="49.59206" lon="3.44964">
        <ele>113.4</ele>
        <time>2023-08-06T18:46:19Z</time>
      </trkpt>
      <trkpt lat="49.5921" lon="3.44963">
        <ele>113.4</ele>
        <time>2023-08-06T18:46:20Z</time>
      </trkpt>
      <trkpt lat="49.59214" lon="3.44961">
        <ele>113.4</ele>
        <time>2023-08-06T18:46:21Z</time>
      </trkpt>
      <trkpt lat="49.59217" lon="3.4496">
        <ele>113.2</ele>
        <time>2023-08-06T18:46:22Z</time>
      </trkpt>
      <trkpt lat="49.59219" lon="3.4496">
        <ele>113.2</ele>
        <time>2023-08-06T18:46:23Z</time>
      </trkpt>
      <trkpt lat="49.59221" lon="3.44959">
        <ele>113.2</ele>
        <time>2023-08-06T18:46:24Z</time>
      </trkpt>
      <trkpt lat="49.59222" lon="3.44958">
        <ele>113.2</ele>
        <time>2023-08-06T18:46:25Z</time>
      </trkpt>
      <trkpt lat="49.59224" lon="3.44957">
        <ele>113.2</ele>
        <time>2023-08-06T18:46:26Z</time>
      </trkpt>
      <trkpt lat="49.59225" lon="3.44957">
        <ele>113.2</ele>
        <time>2023-08-06T18:46:27Z</time>
      </trkpt>
      <trkpt lat="49.59227" lon="3.44957">
        <ele>113.2</ele>
        <time>2023-08-06T18:46:28Z</time>
      </trkpt>
      <trkpt lat="49.59228" lon="3.44957">
        <ele>113.2</ele>
        <time>2023-08-06T18:46:29Z</time>
      </trkpt>
      <trkpt lat="49.59229" lon="3.44957">
        <ele>113.4</ele>
        <time>2023-08-06T18:46:30Z</time>
      </trkpt>
      <trkpt lat="49.59231" lon="3.44957">
        <ele>113.6</ele>
        <time>2023-08-06T18:46:32Z</time>
      </trkpt>
      <trkpt lat="49.59232" lon="3.44957">
        <ele>113.6</ele>
        <time>2023-08-06T18:46:33Z</time>
      </trkpt>
      <trkpt lat="49.59234" lon="3.44956">
        <ele>113.8</ele>
        <time>2023-08-06T18:46:34Z</time>
      </trkpt>
      <trkpt lat="49.59235" lon="3.44956">
        <ele>114</ele>
        <time>2023-08-06T18:46:35Z</time>
      </trkpt>
      <trkpt lat="49.59236" lon="3.44955">
        <ele>114</ele>
        <time>2023-08-06T18:46:36Z</time>
      </trkpt>
      <trkpt lat="49.59237" lon="3.44955">
        <ele>114</ele>
        <time>2023-08-06T18:46:37Z</time>
      </trkpt>
      <trkpt lat="49.59239" lon="3.44955">
        <ele>114</ele>
        <time>2023-08-06T18:46:38Z</time>
      </trkpt>
      <trkpt lat="49.5924" lon="3.44954">
        <ele>114.2</ele>
        <time>2023-08-06T18:46:39Z</time>
      </trkpt>
      <trkpt lat="49.59243" lon="3.44953">
        <ele>114.6</ele>
        <time>2023-08-06T18:46:41Z</time>
      </trkpt>
      <trkpt lat="49.59244" lon="3.44953">
        <ele>114.8</ele>
        <time>2023-08-06T18:46:42Z</time>
      </trkpt>
      <trkpt lat="49.59248" lon="3.44952">
        <ele>115</ele>
        <time>2023-08-06T18:46:45Z</time>
      </trkpt>
      <trkpt lat="49.59251" lon="3.4495">
        <ele>115.2</ele>
        <time>2023-08-06T18:46:48Z</time>
      </trkpt>
      <trkpt lat="49.59252" lon="3.44949">
        <ele>115.2</ele>
        <time>2023-08-06T18:46:49Z</time>
      </trkpt>
      <trkpt lat="49.59254" lon="3.44949">
        <ele>115.2</ele>
        <time>2023-08-06T18:46:50Z</time>
      </trkpt>
      <trkpt lat="49.59259" lon="3.44946">
        <ele>115.4</ele>
        <time>2023-08-06T18:46:55Z</time>
      </trkpt>
      <trkpt lat="49.59261" lon="3.44946">
        <ele>115.4</ele>
        <time>2023-08-06T18:46:56Z</time>
      </trkpt>
      <trkpt lat="49.59262" lon="3.44945">
        <ele>115.4</ele>
        <time>2023-08-06T18:46:57Z</time>
      </trkpt>
      <trkpt lat="49.59265" lon="3.44946">
        <ele>115.4</ele>
        <time>2023-08-06T18:47:00Z</time>
      </trkpt>
      <trkpt lat="49.59266" lon="3.44948">
        <ele>115.4</ele>
        <time>2023-08-06T18:47:01Z</time>
      </trkpt>
      <trkpt lat="49.59267" lon="3.44949">
        <ele>115.6</ele>
        <time>2023-08-06T18:47:02Z</time>
      </trkpt>
      <trkpt lat="49.59268" lon="3.44951">
        <ele>115.6</ele>
        <time>2023-08-06T18:47:03Z</time>
      </trkpt>
      <trkpt lat="49.59268" lon="3.44953">
        <ele>115.6</ele>
        <time>2023-08-06T18:47:04Z</time>
      </trkpt>
      <trkpt lat="49.59269" lon="3.44956">
        <ele>115.6</ele>
        <time>2023-08-06T18:47:06Z</time>
      </trkpt>
      <trkpt lat="49.59269" lon="3.44958">
        <ele>115.6</ele>
        <time>2023-08-06T18:47:07Z</time>
      </trkpt>
      <trkpt lat="49.59271" lon="3.44964">
        <ele>115.6</ele>
        <time>2023-08-06T18:47:11Z</time>
      </trkpt>
      <trkpt lat="49.59271" lon="3.44965">
        <ele>115.6</ele>
        <time>2023-08-06T18:47:12Z</time>
      </trkpt>
      <trkpt lat="49.59272" lon="3.44965">
        <ele>115.6</ele>
        <time>2023-08-06T18:47:13Z</time>
      </trkpt>
      <trkpt lat="49.59272" lon="3.44965">
        <ele>115.8</ele>
        <time>2023-08-06T18:47:15Z</time>
      </trkpt>
      <trkpt lat="49.59274" lon="3.4497">
        <ele>112.4</ele>
        <time>2023-08-06T18:48:46Z</time>
      </trkpt>
      <trkpt lat="49.59273" lon="3.44971">
        <ele>112.4</ele>
        <time>2023-08-06T18:48:47Z</time>
      </trkpt>
      <trkpt lat="49.59273" lon="3.44973">
        <ele>112.4</ele>
        <time>2023-08-06T18:48:48Z</time>
      </trkpt>
      <trkpt lat="49.59274" lon="3.44973">
        <ele>112.4</ele>
        <time>2023-08-06T18:48:50Z</time>
      </trkpt>
      <trkpt lat="49.59276" lon="3.44987">
        <ele>112.6</ele>
        <time>2023-08-06T18:49:06Z</time>
      </trkpt>
      <trkpt lat="49.59277" lon="3.44989">
        <ele>112.6</ele>
        <time>2023-08-06T18:49:07Z</time>
      </trkpt>
      <trkpt lat="49.5928" lon="3.45007">
        <ele>112.4</ele>
        <time>2023-08-06T18:49:15Z</time>
      </trkpt>
      <trkpt lat="49.59281" lon="3.45012">
        <ele>112.6</ele>
        <time>2023-08-06T18:49:17Z</time>
      </trkpt>
      <trkpt lat="49.59283" lon="3.45023">
        <ele>112.8</ele>
        <time>2023-08-06T18:49:22Z</time>
      </trkpt>
      <trkpt lat="49.59286" lon="3.45048">
        <ele>113.2</ele>
        <time>2023-08-06T18:49:32Z</time>
      </trkpt>
      <trkpt lat="49.59286" lon="3.45054">
        <ele>113.4</ele>
        <time>2023-08-06T18:49:35Z</time>
      </trkpt>
      <trkpt lat="49.59286" lon="3.45056">
        <ele>113.6</ele>
        <time>2023-08-06T18:49:36Z</time>
      </trkpt>
      <trkpt lat="49.59286" lon="3.45058">
        <ele>113.6</ele>
        <time>2023-08-06T18:49:37Z</time>
      </trkpt>
      <trkpt lat="49.59288" lon="3.45065">
        <ele>113.8</ele>
        <time>2023-08-06T18:49:40Z</time>
      </trkpt>
      <trkpt lat="49.59288" lon="3.45067">
        <ele>113.8</ele>
        <time>2023-08-06T18:49:41Z</time>
      </trkpt>
      <trkpt lat="49.59288" lon="3.45069">
        <ele>113.8</ele>
        <time>2023-08-06T18:49:42Z</time>
      </trkpt>
      <trkpt lat="49.59289" lon="3.45076">
        <ele>114</ele>
        <time>2023-08-06T18:49:45Z</time>
      </trkpt>
      <trkpt lat="49.59289" lon="3.45079">
        <ele>114</ele>
        <time>2023-08-06T18:49:46Z</time>
      </trkpt>
      <trkpt lat="49.5929" lon="3.45081">
        <ele>114</ele>
        <time>2023-08-06T18:49:47Z</time>
      </trkpt>
      <trkpt lat="49.59292" lon="3.45092">
        <ele>114.2</ele>
        <time>2023-08-06T18:49:52Z</time>
      </trkpt>
      <trkpt lat="49.59293" lon="3.45096">
        <ele>114.4</ele>
        <time>2023-08-06T18:49:54Z</time>
      </trkpt>
      <trkpt lat="49.59293" lon="3.45097">
        <ele>114.4</ele>
        <time>2023-08-06T18:49:55Z</time>
      </trkpt>
      <trkpt lat="49.59294" lon="3.45097">
        <ele>114.4</ele>
        <time>2023-08-06T18:49:56Z</time>
      </trkpt>
      <trkpt lat="49.59294" lon="3.45099">
        <ele>114.6</ele>
        <time>2023-08-06T18:49:57Z</time>
      </trkpt>
      <trkpt lat="49.59295" lon="3.45101">
        <ele>114.6</ele>
        <time>2023-08-06T18:49:58Z</time>
      </trkpt>
      <trkpt lat="49.59295" lon="3.45104">
        <ele>114.6</ele>
        <time>2023-08-06T18:49:59Z</time>
      </trkpt>
      <trkpt lat="49.59296" lon="3.45106">
        <ele>114.8</ele>
        <time>2023-08-06T18:50:00Z</time>
      </trkpt>
      <trkpt lat="49.59297" lon="3.45111">
        <ele>115</ele>
        <time>2023-08-06T18:50:02Z</time>
      </trkpt>
      <trkpt lat="49.59297" lon="3.45113">
        <ele>115</ele>
        <time>2023-08-06T18:50:03Z</time>
      </trkpt>
      <trkpt lat="49.59297" lon="3.45115">
        <ele>115</ele>
        <time>2023-08-06T18:50:04Z</time>
      </trkpt>
      <trkpt lat="49.59299" lon="3.45117">
        <ele>115</ele>
        <time>2023-08-06T18:50:05Z</time>
      </trkpt>
      <trkpt lat="49.593" lon="3.45124">
        <ele>115.2</ele>
        <time>2023-08-06T18:50:08Z</time>
      </trkpt>
      <trkpt lat="49.59301" lon="3.45126">
        <ele>115.2</ele>
        <time>2023-08-06T18:50:09Z</time>
      </trkpt>
      <trkpt lat="49.59301" lon="3.45128">
        <ele>115.4</ele>
        <time>2023-08-06T18:50:10Z</time>
      </trkpt>
      <trkpt lat="49.59302" lon="3.45131">
        <ele>115.4</ele>
        <time>2023-08-06T18:50:11Z</time>
      </trkpt>
      <trkpt lat="49.59302" lon="3.45132">
        <ele>115.4</ele>
        <time>2023-08-06T18:50:12Z</time>
      </trkpt>
      <trkpt lat="49.59303" lon="3.45134">
        <ele>115.6</ele>
        <time>2023-08-06T18:50:13Z</time>
      </trkpt>
      <trkpt lat="49.59304" lon="3.45139">
        <ele>115.6</ele>
        <time>2023-08-06T18:50:15Z</time>
      </trkpt>
      <trkpt lat="49.59305" lon="3.45145">
        <ele>115.8</ele>
        <time>2023-08-06T18:50:18Z</time>
      </trkpt>
      <trkpt lat="49.59305" lon="3.45147">
        <ele>115.8</ele>
        <time>2023-08-06T18:50:19Z</time>
      </trkpt>
      <trkpt lat="49.59308" lon="3.45165">
        <ele>116</ele>
        <time>2023-08-06T18:50:25Z</time>
      </trkpt>
      <trkpt lat="49.59309" lon="3.45172">
        <ele>115.8</ele>
        <time>2023-08-06T18:50:27Z</time>
      </trkpt>
      <trkpt lat="49.59309" lon="3.45175">
        <ele>115.8</ele>
        <time>2023-08-06T18:50:28Z</time>
      </trkpt>
      <trkpt lat="49.5931" lon="3.45182">
        <ele>116</ele>
        <time>2023-08-06T18:50:31Z</time>
      </trkpt>
      <trkpt lat="49.5931" lon="3.45184">
        <ele>116</ele>
        <time>2023-08-06T18:50:32Z</time>
      </trkpt>
      <trkpt lat="49.59311" lon="3.45184">
        <ele>116</ele>
        <time>2023-08-06T18:50:33Z</time>
      </trkpt>
      <trkpt lat="49.59313" lon="3.45187">
        <ele>116</ele>
        <time>2023-08-06T18:50:34Z</time>
      </trkpt>
      <trkpt lat="49.59314" lon="3.4519">
        <ele>116.2</ele>
        <time>2023-08-06T18:50:35Z</time>
      </trkpt>
      <trkpt lat="49.59315" lon="3.45192">
        <ele>116.2</ele>
        <time>2023-08-06T18:50:36Z</time>
      </trkpt>
      <trkpt lat="49.59315" lon="3.45193">
        <ele>116.2</ele>
        <time>2023-08-06T18:50:37Z</time>
      </trkpt>
      <trkpt lat="49.59315" lon="3.45194">
        <ele>116.2</ele>
        <time>2023-08-06T18:50:38Z</time>
      </trkpt>
      <trkpt lat="49.59316" lon="3.45196">
        <ele>116.4</ele>
        <time>2023-08-06T18:50:39Z</time>
      </trkpt>
      <trkpt lat="49.59316" lon="3.45198">
        <ele>116.4</ele>
        <time>2023-08-06T18:50:40Z</time>
      </trkpt>
      <trkpt lat="49.59316" lon="3.452">
        <ele>116.4</ele>
        <time>2023-08-06T18:50:41Z</time>
      </trkpt>
      <trkpt lat="49.59316" lon="3.45201">
        <ele>116.4</ele>
        <time>2023-08-06T18:50:42Z</time>
      </trkpt>
      <trkpt lat="49.59316" lon="3.45203">
        <ele>116.4</ele>
        <time>2023-08-06T18:50:43Z</time>
      </trkpt>
      <trkpt lat="49.5932" lon="3.45217">
        <ele>116.6</ele>
        <time>2023-08-06T18:50:48Z</time>
      </trkpt>
      <trkpt lat="49.5932" lon="3.45224">
        <ele>116.6</ele>
        <time>2023-08-06T18:50:50Z</time>
      </trkpt>
      <trkpt lat="49.59321" lon="3.45227">
        <ele>116.8</ele>
        <time>2023-08-06T18:50:51Z</time>
      </trkpt>
      <trkpt lat="49.59321" lon="3.45244">
        <ele>117</ele>
        <time>2023-08-06T18:50:56Z</time>
      </trkpt>
      <trkpt lat="49.59322" lon="3.4525">
        <ele>117.2</ele>
        <time>2023-08-06T18:50:58Z</time>
      </trkpt>
      <trkpt lat="49.59322" lon="3.45253">
        <ele>117.2</ele>
        <time>2023-08-06T18:50:59Z</time>
      </trkpt>
      <trkpt lat="49.59323" lon="3.45256">
        <ele>117.2</ele>
        <time>2023-08-06T18:51:00Z</time>
      </trkpt>
      <trkpt lat="49.59323" lon="3.45259">
        <ele>117.4</ele>
        <time>2023-08-06T18:51:01Z</time>
      </trkpt>
      <trkpt lat="49.59324" lon="3.45262">
        <ele>117.4</ele>
        <time>2023-08-06T18:51:02Z</time>
      </trkpt>
      <trkpt lat="49.59325" lon="3.45264">
        <ele>117.6</ele>
        <time>2023-08-06T18:51:03Z</time>
      </trkpt>
      <trkpt lat="49.59325" lon="3.45268">
        <ele>117.6</ele>
        <time>2023-08-06T18:51:04Z</time>
      </trkpt>
      <trkpt lat="49.59325" lon="3.45272">
        <ele>117.6</ele>
        <time>2023-08-06T18:51:05Z</time>
      </trkpt>
      <trkpt lat="49.59326" lon="3.45274">
        <ele>117.6</ele>
        <time>2023-08-06T18:51:06Z</time>
      </trkpt>
      <trkpt lat="49.59326" lon="3.45277">
        <ele>117.8</ele>
        <time>2023-08-06T18:51:07Z</time>
      </trkpt>
      <trkpt lat="49.59326" lon="3.45284">
        <ele>117.8</ele>
        <time>2023-08-06T18:51:09Z</time>
      </trkpt>
      <trkpt lat="49.59326" lon="3.45288">
        <ele>117.8</ele>
        <time>2023-08-06T18:51:10Z</time>
      </trkpt>
      <trkpt lat="49.59326" lon="3.45292">
        <ele>117.8</ele>
        <time>2023-08-06T18:51:11Z</time>
      </trkpt>
      <trkpt lat="49.59326" lon="3.45296">
        <ele>118</ele>
        <time>2023-08-06T18:51:12Z</time>
      </trkpt>
      <trkpt lat="49.59326" lon="3.45302">
        <ele>118</ele>
        <time>2023-08-06T18:51:14Z</time>
      </trkpt>
      <trkpt lat="49.59327" lon="3.45305">
        <ele>118</ele>
        <time>2023-08-06T18:51:15Z</time>
      </trkpt>
      <trkpt lat="49.59328" lon="3.45307">
        <ele>118</ele>
        <time>2023-08-06T18:51:16Z</time>
      </trkpt>
      <trkpt lat="49.5933" lon="3.45311">
        <ele>118</ele>
        <time>2023-08-06T18:51:18Z</time>
      </trkpt>
      <trkpt lat="49.5933" lon="3.45313">
        <ele>118</ele>
        <time>2023-08-06T18:51:19Z</time>
      </trkpt>
      <trkpt lat="49.5933" lon="3.45314">
        <ele>118</ele>
        <time>2023-08-06T18:51:20Z</time>
      </trkpt>
      <trkpt lat="49.5933" lon="3.45315">
        <ele>118</ele>
        <time>2023-08-06T18:51:21Z</time>
      </trkpt>
      <trkpt lat="49.59331" lon="3.45317">
        <ele>118.2</ele>
        <time>2023-08-06T18:51:22Z</time>
      </trkpt>
      <trkpt lat="49.59331" lon="3.45319">
        <ele>118.2</ele>
        <time>2023-08-06T18:51:23Z</time>
      </trkpt>
      <trkpt lat="49.59332" lon="3.45321">
        <ele>118.2</ele>
        <time>2023-08-06T18:51:24Z</time>
      </trkpt>
      <trkpt lat="49.59332" lon="3.45323">
        <ele>118.2</ele>
        <time>2023-08-06T18:51:25Z</time>
      </trkpt>
      <trkpt lat="49.59332" lon="3.45325">
        <ele>118.2</ele>
        <time>2023-08-06T18:51:26Z</time>
      </trkpt>
      <trkpt lat="49.59333" lon="3.45328">
        <ele>118.6</ele>
        <time>2023-08-06T18:51:27Z</time>
      </trkpt>
      <trkpt lat="49.59334" lon="3.45332">
        <ele>118.6</ele>
        <time>2023-08-06T18:51:29Z</time>
      </trkpt>
      <trkpt lat="49.59335" lon="3.45338">
        <ele>118.6</ele>
        <time>2023-08-06T18:51:31Z</time>
      </trkpt>
      <trkpt lat="49.59335" lon="3.4534">
        <ele>118.6</ele>
        <time>2023-08-06T18:51:32Z</time>
      </trkpt>
      <trkpt lat="49.59335" lon="3.45342">
        <ele>118.6</ele>
        <time>2023-08-06T18:51:33Z</time>
      </trkpt>
      <trkpt lat="49.59338" lon="3.45355">
        <ele>118.8</ele>
        <time>2023-08-06T18:51:39Z</time>
      </trkpt>
      <trkpt lat="49.59339" lon="3.45357">
        <ele>118.8</ele>
        <time>2023-08-06T18:51:40Z</time>
      </trkpt>
      <trkpt lat="49.59339" lon="3.4536">
        <ele>119</ele>
        <time>2023-08-06T18:51:41Z</time>
      </trkpt>
      <trkpt lat="49.5934" lon="3.45362">
        <ele>119</ele>
        <time>2023-08-06T18:51:42Z</time>
      </trkpt>
      <trkpt lat="49.5934" lon="3.45364">
        <ele>119</ele>
        <time>2023-08-06T18:51:43Z</time>
      </trkpt>
      <trkpt lat="49.59342" lon="3.4537">
        <ele>119.2</ele>
        <time>2023-08-06T18:51:45Z</time>
      </trkpt>
      <trkpt lat="49.59342" lon="3.45373">
        <ele>119.2</ele>
        <time>2023-08-06T18:51:46Z</time>
      </trkpt>
      <trkpt lat="49.59342" lon="3.45376">
        <ele>119.2</ele>
        <time>2023-08-06T18:51:47Z</time>
      </trkpt>
      <trkpt lat="49.59342" lon="3.45379">
        <ele>119.2</ele>
        <time>2023-08-06T18:51:48Z</time>
      </trkpt>
      <trkpt lat="49.59344" lon="3.45392">
        <ele>119.6</ele>
        <time>2023-08-06T18:51:52Z</time>
      </trkpt>
      <trkpt lat="49.59345" lon="3.45394">
        <ele>119.8</ele>
        <time>2023-08-06T18:51:53Z</time>
      </trkpt>
      <trkpt lat="49.59345" lon="3.45397">
        <ele>119.8</ele>
        <time>2023-08-06T18:51:54Z</time>
      </trkpt>
      <trkpt lat="49.59345" lon="3.45402">
        <ele>120</ele>
        <time>2023-08-06T18:51:55Z</time>
      </trkpt>
      <trkpt lat="49.59344" lon="3.45407">
        <ele>120.6</ele>
        <time>2023-08-06T18:51:57Z</time>
      </trkpt>
      <trkpt lat="49.59342" lon="3.45411">
        <ele>120.8</ele>
        <time>2023-08-06T18:51:58Z</time>
      </trkpt>
      <trkpt lat="49.59342" lon="3.45415">
        <ele>121</ele>
        <time>2023-08-06T18:51:59Z</time>
      </trkpt>
      <trkpt lat="49.59342" lon="3.45418">
        <ele>121</ele>
        <time>2023-08-06T18:52:00Z</time>
      </trkpt>
      <trkpt lat="49.59343" lon="3.45421">
        <ele>121.2</ele>
        <time>2023-08-06T18:52:01Z</time>
      </trkpt>
      <trkpt lat="49.59343" lon="3.45424">
        <ele>121.2</ele>
        <time>2023-08-06T18:52:02Z</time>
      </trkpt>
      <trkpt lat="49.59344" lon="3.45426">
        <ele>121.4</ele>
        <time>2023-08-06T18:52:03Z</time>
      </trkpt>
      <trkpt lat="49.59345" lon="3.45429">
        <ele>121.8</ele>
        <time>2023-08-06T18:52:04Z</time>
      </trkpt>
      <trkpt lat="49.59346" lon="3.45432">
        <ele>121.8</ele>
        <time>2023-08-06T18:52:05Z</time>
      </trkpt>
      <trkpt lat="49.59347" lon="3.45434">
        <ele>122</ele>
        <time>2023-08-06T18:52:06Z</time>
      </trkpt>
      <trkpt lat="49.59347" lon="3.45437">
        <ele>122.2</ele>
        <time>2023-08-06T18:52:07Z</time>
      </trkpt>
      <trkpt lat="49.59347" lon="3.45439">
        <ele>122.2</ele>
        <time>2023-08-06T18:52:08Z</time>
      </trkpt>
      <trkpt lat="49.59347" lon="3.45441">
        <ele>122.4</ele>
        <time>2023-08-06T18:52:09Z</time>
      </trkpt>
      <trkpt lat="49.59349" lon="3.45443">
        <ele>122.6</ele>
        <time>2023-08-06T18:52:10Z</time>
      </trkpt>
      <trkpt lat="49.5935" lon="3.45445">
        <ele>122.8</ele>
        <time>2023-08-06T18:52:11Z</time>
      </trkpt>
      <trkpt lat="49.59351" lon="3.45447">
        <ele>123</ele>
        <time>2023-08-06T18:52:12Z</time>
      </trkpt>
      <trkpt lat="49.59351" lon="3.45448">
        <ele>123.2</ele>
        <time>2023-08-06T18:52:13Z</time>
      </trkpt>
      <trkpt lat="49.59352" lon="3.4545">
        <ele>123.2</ele>
        <time>2023-08-06T18:52:14Z</time>
      </trkpt>
      <trkpt lat="49.59352" lon="3.45451">
        <ele>123.4</ele>
        <time>2023-08-06T18:52:15Z</time>
      </trkpt>
      <trkpt lat="49.59353" lon="3.45453">
        <ele>123.4</ele>
        <time>2023-08-06T18:52:16Z</time>
      </trkpt>
      <trkpt lat="49.59353" lon="3.45455">
        <ele>123.4</ele>
        <time>2023-08-06T18:52:17Z</time>
      </trkpt>
      <trkpt lat="49.59353" lon="3.45457">
        <ele>123.4</ele>
        <time>2023-08-06T18:52:18Z</time>
      </trkpt>
      <trkpt lat="49.59354" lon="3.45459">
        <ele>123.4</ele>
        <time>2023-08-06T18:52:19Z</time>
      </trkpt>
      <trkpt lat="49.59354" lon="3.45461">
        <ele>123.6</ele>
        <time>2023-08-06T18:52:20Z</time>
      </trkpt>
      <trkpt lat="49.59354" lon="3.45463">
        <ele>123.6</ele>
        <time>2023-08-06T18:52:21Z</time>
      </trkpt>
      <trkpt lat="49.59354" lon="3.45465">
        <ele>123.4</ele>
        <time>2023-08-06T18:52:22Z</time>
      </trkpt>
      <trkpt lat="49.59355" lon="3.45467">
        <ele>123.4</ele>
        <time>2023-08-06T18:52:23Z</time>
      </trkpt>
      <trkpt lat="49.59356" lon="3.4547">
        <ele>123.4</ele>
        <time>2023-08-06T18:52:24Z</time>
      </trkpt>
      <trkpt lat="49.59356" lon="3.45472">
        <ele>123.4</ele>
        <time>2023-08-06T18:52:25Z</time>
      </trkpt>
      <trkpt lat="49.59356" lon="3.45475">
        <ele>123.4</ele>
        <time>2023-08-06T18:52:26Z</time>
      </trkpt>
      <trkpt lat="49.59357" lon="3.45477">
        <ele>123.4</ele>
        <time>2023-08-06T18:52:27Z</time>
      </trkpt>
      <trkpt lat="49.59358" lon="3.4548">
        <ele>123.4</ele>
        <time>2023-08-06T18:52:28Z</time>
      </trkpt>
      <trkpt lat="49.59359" lon="3.45482">
        <ele>123.4</ele>
        <time>2023-08-06T18:52:29Z</time>
      </trkpt>
      <trkpt lat="49.59359" lon="3.45484">
        <ele>123.4</ele>
        <time>2023-08-06T18:52:30Z</time>
      </trkpt>
      <trkpt lat="49.5936" lon="3.45485">
        <ele>123.4</ele>
        <time>2023-08-06T18:52:31Z</time>
      </trkpt>
      <trkpt lat="49.5936" lon="3.45488">
        <ele>123.4</ele>
        <time>2023-08-06T18:52:32Z</time>
      </trkpt>
      <trkpt lat="49.59363" lon="3.45503">
        <ele>123.2</ele>
        <time>2023-08-06T18:52:37Z</time>
      </trkpt>
      <trkpt lat="49.59364" lon="3.45505">
        <ele>123.2</ele>
        <time>2023-08-06T18:52:38Z</time>
      </trkpt>
      <trkpt lat="49.59363" lon="3.45508">
        <ele>123</ele>
        <time>2023-08-06T18:52:39Z</time>
      </trkpt>
      <trkpt lat="49.59364" lon="3.45511">
        <ele>123</ele>
        <time>2023-08-06T18:52:40Z</time>
      </trkpt>
      <trkpt lat="49.59364" lon="3.45514">
        <ele>123</ele>
        <time>2023-08-06T18:52:41Z</time>
      </trkpt>
      <trkpt lat="49.59363" lon="3.45528">
        <ele>123</ele>
        <time>2023-08-06T18:52:45Z</time>
      </trkpt>
      <trkpt lat="49.59364" lon="3.45533">
        <ele>123</ele>
        <time>2023-08-06T18:52:46Z</time>
      </trkpt>
      <trkpt lat="49.59367" lon="3.45537">
        <ele>123</ele>
        <time>2023-08-06T18:52:47Z</time>
      </trkpt>
      <trkpt lat="49.59368" lon="3.4554">
        <ele>123</ele>
        <time>2023-08-06T18:52:48Z</time>
      </trkpt>
      <trkpt lat="49.59369" lon="3.45542">
        <ele>122.8</ele>
        <time>2023-08-06T18:52:49Z</time>
      </trkpt>
      <trkpt lat="49.59369" lon="3.45544">
        <ele>122.8</ele>
        <time>2023-08-06T18:52:50Z</time>
      </trkpt>
      <trkpt lat="49.59369" lon="3.45548">
        <ele>122.8</ele>
        <time>2023-08-06T18:52:51Z</time>
      </trkpt>
      <trkpt lat="49.59369" lon="3.4555">
        <ele>122.6</ele>
        <time>2023-08-06T18:52:52Z</time>
      </trkpt>
      <trkpt lat="49.59371" lon="3.45553">
        <ele>122.6</ele>
        <time>2023-08-06T18:52:53Z</time>
      </trkpt>
      <trkpt lat="49.59371" lon="3.45564">
        <ele>122.6</ele>
        <time>2023-08-06T18:52:56Z</time>
      </trkpt>
      <trkpt lat="49.59371" lon="3.45567">
        <ele>122.6</ele>
        <time>2023-08-06T18:52:57Z</time>
      </trkpt>
      <trkpt lat="49.59372" lon="3.4557">
        <ele>122.6</ele>
        <time>2023-08-06T18:52:58Z</time>
      </trkpt>
      <trkpt lat="49.59372" lon="3.45574">
        <ele>122.4</ele>
        <time>2023-08-06T18:52:59Z</time>
      </trkpt>
      <trkpt lat="49.59372" lon="3.45579">
        <ele>122.4</ele>
        <time>2023-08-06T18:53:01Z</time>
      </trkpt>
      <trkpt lat="49.59372" lon="3.45581">
        <ele>122.4</ele>
        <time>2023-08-06T18:53:02Z</time>
      </trkpt>
      <trkpt lat="49.59375" lon="3.45592">
        <ele>122.2</ele>
        <time>2023-08-06T18:53:05Z</time>
      </trkpt>
      <trkpt lat="49.59375" lon="3.456">
        <ele>122.2</ele>
        <time>2023-08-06T18:53:07Z</time>
      </trkpt>
      <trkpt lat="49.59376" lon="3.45602">
        <ele>122.2</ele>
        <time>2023-08-06T18:53:08Z</time>
      </trkpt>
      <trkpt lat="49.59376" lon="3.45606">
        <ele>121.8</ele>
        <time>2023-08-06T18:53:09Z</time>
      </trkpt>
      <trkpt lat="49.59378" lon="3.4561">
        <ele>121.8</ele>
        <time>2023-08-06T18:53:10Z</time>
      </trkpt>
      <trkpt lat="49.59381" lon="3.4562">
        <ele>122</ele>
        <time>2023-08-06T18:53:13Z</time>
      </trkpt>
      <trkpt lat="49.5938" lon="3.45624">
        <ele>122</ele>
        <time>2023-08-06T18:53:14Z</time>
      </trkpt>
      <trkpt lat="49.5938" lon="3.45628">
        <ele>121.8</ele>
        <time>2023-08-06T18:53:15Z</time>
      </trkpt>
      <trkpt lat="49.59383" lon="3.45638">
        <ele>122</ele>
        <time>2023-08-06T18:53:18Z</time>
      </trkpt>
      <trkpt lat="49.59384" lon="3.4564">
        <ele>121.8</ele>
        <time>2023-08-06T18:53:19Z</time>
      </trkpt>
      <trkpt lat="49.59386" lon="3.45644">
        <ele>121.8</ele>
        <time>2023-08-06T18:53:20Z</time>
      </trkpt>
      <trkpt lat="49.59388" lon="3.45652">
        <ele>121.8</ele>
        <time>2023-08-06T18:53:22Z</time>
      </trkpt>
      <trkpt lat="49.59392" lon="3.45659">
        <ele>121.8</ele>
        <time>2023-08-06T18:53:24Z</time>
      </trkpt>
      <trkpt lat="49.59395" lon="3.45661">
        <ele>121.8</ele>
        <time>2023-08-06T18:53:25Z</time>
      </trkpt>
      <trkpt lat="49.59398" lon="3.45663">
        <ele>121.6</ele>
        <time>2023-08-06T18:53:26Z</time>
      </trkpt>
      <trkpt lat="49.59413" lon="3.45677">
        <ele>121.6</ele>
        <time>2023-08-06T18:53:32Z</time>
      </trkpt>
      <trkpt lat="49.59415" lon="3.45678">
        <ele>121.6</ele>
        <time>2023-08-06T18:53:33Z</time>
      </trkpt>
      <trkpt lat="49.59418" lon="3.45682">
        <ele>121.8</ele>
        <time>2023-08-06T18:53:34Z</time>
      </trkpt>
      <trkpt lat="49.59421" lon="3.45684">
        <ele>121.8</ele>
        <time>2023-08-06T18:53:35Z</time>
      </trkpt>
      <trkpt lat="49.59422" lon="3.45684">
        <ele>121.8</ele>
        <time>2023-08-06T18:53:36Z</time>
      </trkpt>
      <trkpt lat="49.59423" lon="3.45685">
        <ele>121.8</ele>
        <time>2023-08-06T18:53:37Z</time>
      </trkpt>
      <trkpt lat="49.59425" lon="3.45685">
        <ele>121.8</ele>
        <time>2023-08-06T18:53:38Z</time>
      </trkpt>
      <trkpt lat="49.59427" lon="3.45686">
        <ele>121.8</ele>
        <time>2023-08-06T18:53:39Z</time>
      </trkpt>
      <trkpt lat="49.59428" lon="3.45688">
        <ele>121.8</ele>
        <time>2023-08-06T18:53:40Z</time>
      </trkpt>
      <trkpt lat="49.59428" lon="3.45689">
        <ele>121.8</ele>
        <time>2023-08-06T18:53:41Z</time>
      </trkpt>
      <trkpt lat="49.59429" lon="3.45691">
        <ele>121.8</ele>
        <time>2023-08-06T18:53:42Z</time>
      </trkpt>
      <trkpt lat="49.59429" lon="3.45693">
        <ele>121.8</ele>
        <time>2023-08-06T18:53:43Z</time>
      </trkpt>
      <trkpt lat="49.59429" lon="3.45695">
        <ele>121.8</ele>
        <time>2023-08-06T18:53:44Z</time>
      </trkpt>
      <trkpt lat="49.59429" lon="3.45696">
        <ele>121.8</ele>
        <time>2023-08-06T18:53:45Z</time>
      </trkpt>
      <trkpt lat="49.59429" lon="3.45698">
        <ele>122</ele>
        <time>2023-08-06T18:53:46Z</time>
      </trkpt>
      <trkpt lat="49.59428" lon="3.457">
        <ele>122</ele>
        <time>2023-08-06T18:53:47Z</time>
      </trkpt>
      <trkpt lat="49.59427" lon="3.45702">
        <ele>122</ele>
        <time>2023-08-06T18:53:48Z</time>
      </trkpt>
      <trkpt lat="49.59426" lon="3.45704">
        <ele>122</ele>
        <time>2023-08-06T18:53:49Z</time>
      </trkpt>
      <trkpt lat="49.59425" lon="3.45706">
        <ele>122</ele>
        <time>2023-08-06T18:53:50Z</time>
      </trkpt>
      <trkpt lat="49.59425" lon="3.45708">
        <ele>122</ele>
        <time>2023-08-06T18:53:51Z</time>
      </trkpt>
      <trkpt lat="49.59425" lon="3.4571">
        <ele>122</ele>
        <time>2023-08-06T18:53:52Z</time>
      </trkpt>
      <trkpt lat="49.59424" lon="3.45712">
        <ele>122</ele>
        <time>2023-08-06T18:53:53Z</time>
      </trkpt>
      <trkpt lat="49.59423" lon="3.45715">
        <ele>122</ele>
        <time>2023-08-06T18:53:54Z</time>
      </trkpt>
      <trkpt lat="49.59419" lon="3.45718">
        <ele>122</ele>
        <time>2023-08-06T18:53:55Z</time>
      </trkpt>
      <trkpt lat="49.59415" lon="3.45722">
        <ele>121.8</ele>
        <time>2023-08-06T18:53:56Z</time>
      </trkpt>
      <trkpt lat="49.59413" lon="3.45725">
        <ele>121.8</ele>
        <time>2023-08-06T18:53:57Z</time>
      </trkpt>
      <trkpt lat="49.59411" lon="3.45727">
        <ele>121.6</ele>
        <time>2023-08-06T18:53:58Z</time>
      </trkpt>
      <trkpt lat="49.5941" lon="3.45729">
        <ele>121.6</ele>
        <time>2023-08-06T18:53:59Z</time>
      </trkpt>
      <trkpt lat="49.59408" lon="3.4573">
        <ele>121.6</ele>
        <time>2023-08-06T18:54:00Z</time>
      </trkpt>
      <trkpt lat="49.59406" lon="3.45731">
        <ele>121.6</ele>
        <time>2023-08-06T18:54:01Z</time>
      </trkpt>
      <trkpt lat="49.59406" lon="3.45733">
        <ele>121.6</ele>
        <time>2023-08-06T18:54:02Z</time>
      </trkpt>
      <trkpt lat="49.59405" lon="3.45735">
        <ele>121.6</ele>
        <time>2023-08-06T18:54:03Z</time>
      </trkpt>
      <trkpt lat="49.59404" lon="3.45736">
        <ele>121.4</ele>
        <time>2023-08-06T18:54:04Z</time>
      </trkpt>
      <trkpt lat="49.59402" lon="3.4574">
        <ele>121.4</ele>
        <time>2023-08-06T18:54:06Z</time>
      </trkpt>
      <trkpt lat="49.59399" lon="3.45744">
        <ele>121.4</ele>
        <time>2023-08-06T18:54:07Z</time>
      </trkpt>
      <trkpt lat="49.59398" lon="3.45747">
        <ele>121.4</ele>
        <time>2023-08-06T18:54:08Z</time>
      </trkpt>
      <trkpt lat="49.59395" lon="3.4575">
        <ele>121.4</ele>
        <time>2023-08-06T18:54:09Z</time>
      </trkpt>
      <trkpt lat="49.59393" lon="3.45752">
        <ele>121.4</ele>
        <time>2023-08-06T18:54:10Z</time>
      </trkpt>
      <trkpt lat="49.59392" lon="3.45752">
        <ele>121.4</ele>
        <time>2023-08-06T18:54:11Z</time>
      </trkpt>
      <trkpt lat="49.59391" lon="3.45754">
        <ele>121.4</ele>
        <time>2023-08-06T18:54:12Z</time>
      </trkpt>
      <trkpt lat="49.5939" lon="3.45756">
        <ele>121.4</ele>
        <time>2023-08-06T18:54:13Z</time>
      </trkpt>
      <trkpt lat="49.59386" lon="3.45762">
        <ele>121.4</ele>
        <time>2023-08-06T18:54:15Z</time>
      </trkpt>
      <trkpt lat="49.59384" lon="3.45765">
        <ele>121.6</ele>
        <time>2023-08-06T18:54:16Z</time>
      </trkpt>
      <trkpt lat="49.59373" lon="3.4578">
        <ele>121.6</ele>
        <time>2023-08-06T18:54:19Z</time>
      </trkpt>
      <trkpt lat="49.59372" lon="3.45782">
        <ele>121.8</ele>
        <time>2023-08-06T18:54:20Z</time>
      </trkpt>
      <trkpt lat="49.59373" lon="3.45788">
        <ele>122</ele>
        <time>2023-08-06T18:54:22Z</time>
      </trkpt>
      <trkpt lat="49.59374" lon="3.45791">
        <ele>122</ele>
        <time>2023-08-06T18:54:23Z</time>
      </trkpt>
      <trkpt lat="49.59371" lon="3.45801">
        <ele>122.6</ele>
        <time>2023-08-06T18:54:25Z</time>
      </trkpt>
      <trkpt lat="49.5937" lon="3.45806">
        <ele>122.6</ele>
        <time>2023-08-06T18:54:26Z</time>
      </trkpt>
      <trkpt lat="49.5937" lon="3.45809">
        <ele>123</ele>
        <time>2023-08-06T18:54:27Z</time>
      </trkpt>
      <trkpt lat="49.59367" lon="3.45843">
        <ele>123.2</ele>
        <time>2023-08-06T18:54:33Z</time>
      </trkpt>
      <trkpt lat="49.59371" lon="3.45856">
        <ele>123.2</ele>
        <time>2023-08-06T18:54:36Z</time>
      </trkpt>
      <trkpt lat="49.59373" lon="3.45865">
        <ele>123</ele>
        <time>2023-08-06T18:54:38Z</time>
      </trkpt>
      <trkpt lat="49.59377" lon="3.45874">
        <ele>122.8</ele>
        <time>2023-08-06T18:54:40Z</time>
      </trkpt>
      <trkpt lat="49.59381" lon="3.45886">
        <ele>122.6</ele>
        <time>2023-08-06T18:54:43Z</time>
      </trkpt>
      <trkpt lat="49.59383" lon="3.45889">
        <ele>122.6</ele>
        <time>2023-08-06T18:54:44Z</time>
      </trkpt>
      <trkpt lat="49.59384" lon="3.45891">
        <ele>122.4</ele>
        <time>2023-08-06T18:54:45Z</time>
      </trkpt>
      <trkpt lat="49.59384" lon="3.45894">
        <ele>122.4</ele>
        <time>2023-08-06T18:54:46Z</time>
      </trkpt>
      <trkpt lat="49.59385" lon="3.45895">
        <ele>122.4</ele>
        <time>2023-08-06T18:54:47Z</time>
      </trkpt>
      <trkpt lat="49.59385" lon="3.45897">
        <ele>122.6</ele>
        <time>2023-08-06T18:54:48Z</time>
      </trkpt>
      <trkpt lat="49.59388" lon="3.45908">
        <ele>122.4</ele>
        <time>2023-08-06T18:54:52Z</time>
      </trkpt>
      <trkpt lat="49.59389" lon="3.45909">
        <ele>122.4</ele>
        <time>2023-08-06T18:54:53Z</time>
      </trkpt>
      <trkpt lat="49.59388" lon="3.45912">
        <ele>122.4</ele>
        <time>2023-08-06T18:54:54Z</time>
      </trkpt>
      <trkpt lat="49.5939" lon="3.45915">
        <ele>122.4</ele>
        <time>2023-08-06T18:54:55Z</time>
      </trkpt>
      <trkpt lat="49.5939" lon="3.45915">
        <ele>122.4</ele>
        <time>2023-08-06T18:54:56Z</time>
      </trkpt>
      <trkpt lat="49.59391" lon="3.45917">
        <ele>122.4</ele>
        <time>2023-08-06T18:54:57Z</time>
      </trkpt>
      <trkpt lat="49.59391" lon="3.45917">
        <ele>122.4</ele>
        <time>2023-08-06T18:54:58Z</time>
      </trkpt>
      <trkpt lat="49.59396" lon="3.45922">
        <ele>122.4</ele>
        <time>2023-08-06T18:55:00Z</time>
      </trkpt>
      <trkpt lat="49.59399" lon="3.45938">
        <ele>122.2</ele>
        <time>2023-08-06T18:55:06Z</time>
      </trkpt>
      <trkpt lat="49.59401" lon="3.45939">
        <ele>122.2</ele>
        <time>2023-08-06T18:55:07Z</time>
      </trkpt>
      <trkpt lat="49.59401" lon="3.45941">
        <ele>122.4</ele>
        <time>2023-08-06T18:55:08Z</time>
      </trkpt>
      <trkpt lat="49.59402" lon="3.45945">
        <ele>122.2</ele>
        <time>2023-08-06T18:55:10Z</time>
      </trkpt>
      <trkpt lat="49.59404" lon="3.45947">
        <ele>122.4</ele>
        <time>2023-08-06T18:55:11Z</time>
      </trkpt>
      <trkpt lat="49.59406" lon="3.45949">
        <ele>122.4</ele>
        <time>2023-08-06T18:55:12Z</time>
      </trkpt>
      <trkpt lat="49.59406" lon="3.45952">
        <ele>122.4</ele>
        <time>2023-08-06T18:55:13Z</time>
      </trkpt>
      <trkpt lat="49.59406" lon="3.45957">
        <ele>122.6</ele>
        <time>2023-08-06T18:55:15Z</time>
      </trkpt>
      <trkpt lat="49.59406" lon="3.45959">
        <ele>122.6</ele>
        <time>2023-08-06T18:55:16Z</time>
      </trkpt>
      <trkpt lat="49.59406" lon="3.45961">
        <ele>122.6</ele>
        <time>2023-08-06T18:55:17Z</time>
      </trkpt>
      <trkpt lat="49.59406" lon="3.45966">
        <ele>122.6</ele>
        <time>2023-08-06T18:55:18Z</time>
      </trkpt>
      <trkpt lat="49.59406" lon="3.45967">
        <ele>122.6</ele>
        <time>2023-08-06T18:55:19Z</time>
      </trkpt>
      <trkpt lat="49.59405" lon="3.4597">
        <ele>122.6</ele>
        <time>2023-08-06T18:55:20Z</time>
      </trkpt>
      <trkpt lat="49.59404" lon="3.45973">
        <ele>122.8</ele>
        <time>2023-08-06T18:55:21Z</time>
      </trkpt>
      <trkpt lat="49.59403" lon="3.45976">
        <ele>122.8</ele>
        <time>2023-08-06T18:55:22Z</time>
      </trkpt>
      <trkpt lat="49.59404" lon="3.4598">
        <ele>122.8</ele>
        <time>2023-08-06T18:55:23Z</time>
      </trkpt>
      <trkpt lat="49.59404" lon="3.45983">
        <ele>122.8</ele>
        <time>2023-08-06T18:55:24Z</time>
      </trkpt>
      <trkpt lat="49.59406" lon="3.45986">
        <ele>122.8</ele>
        <time>2023-08-06T18:55:25Z</time>
      </trkpt>
      <trkpt lat="49.59407" lon="3.45999">
        <ele>122.8</ele>
        <time>2023-08-06T18:55:29Z</time>
      </trkpt>
      <trkpt lat="49.59408" lon="3.46002">
        <ele>122.8</ele>
        <time>2023-08-06T18:55:30Z</time>
      </trkpt>
      <trkpt lat="49.59409" lon="3.46005">
        <ele>122.8</ele>
        <time>2023-08-06T18:55:31Z</time>
      </trkpt>
      <trkpt lat="49.59409" lon="3.46008">
        <ele>123</ele>
        <time>2023-08-06T18:55:32Z</time>
      </trkpt>
      <trkpt lat="49.5941" lon="3.46011">
        <ele>123</ele>
        <time>2023-08-06T18:55:33Z</time>
      </trkpt>
      <trkpt lat="49.59409" lon="3.46017">
        <ele>123</ele>
        <time>2023-08-06T18:55:34Z</time>
      </trkpt>
      <trkpt lat="49.59408" lon="3.46021">
        <ele>123</ele>
        <time>2023-08-06T18:55:35Z</time>
      </trkpt>
      <trkpt lat="49.59408" lon="3.46024">
        <ele>123</ele>
        <time>2023-08-06T18:55:36Z</time>
      </trkpt>
      <trkpt lat="49.59411" lon="3.46034">
        <ele>122.8</ele>
        <time>2023-08-06T18:55:38Z</time>
      </trkpt>
      <trkpt lat="49.59411" lon="3.46037">
        <ele>122.8</ele>
        <time>2023-08-06T18:55:39Z</time>
      </trkpt>
      <trkpt lat="49.5941" lon="3.46041">
        <ele>122.8</ele>
        <time>2023-08-06T18:55:40Z</time>
      </trkpt>
      <trkpt lat="49.59409" lon="3.46044">
        <ele>122.8</ele>
        <time>2023-08-06T18:55:41Z</time>
      </trkpt>
      <trkpt lat="49.59409" lon="3.46047">
        <ele>122.8</ele>
        <time>2023-08-06T18:55:42Z</time>
      </trkpt>
      <trkpt lat="49.59409" lon="3.4605">
        <ele>122.8</ele>
        <time>2023-08-06T18:55:43Z</time>
      </trkpt>
      <trkpt lat="49.5941" lon="3.46053">
        <ele>122.8</ele>
        <time>2023-08-06T18:55:44Z</time>
      </trkpt>
      <trkpt lat="49.59412" lon="3.46057">
        <ele>122.6</ele>
        <time>2023-08-06T18:55:45Z</time>
      </trkpt>
      <trkpt lat="49.59413" lon="3.46061">
        <ele>122.6</ele>
        <time>2023-08-06T18:55:46Z</time>
      </trkpt>
      <trkpt lat="49.59412" lon="3.46069">
        <ele>122.6</ele>
        <time>2023-08-06T18:55:48Z</time>
      </trkpt>
      <trkpt lat="49.5941" lon="3.46073">
        <ele>122.8</ele>
        <time>2023-08-06T18:55:49Z</time>
      </trkpt>
      <trkpt lat="49.5941" lon="3.46075">
        <ele>122.8</ele>
        <time>2023-08-06T18:55:50Z</time>
      </trkpt>
      <trkpt lat="49.59409" lon="3.46079">
        <ele>122.6</ele>
        <time>2023-08-06T18:55:51Z</time>
      </trkpt>
      <trkpt lat="49.59409" lon="3.46087">
        <ele>122.6</ele>
        <time>2023-08-06T18:55:53Z</time>
      </trkpt>
      <trkpt lat="49.59409" lon="3.46092">
        <ele>122.6</ele>
        <time>2023-08-06T18:55:55Z</time>
      </trkpt>
      <trkpt lat="49.59408" lon="3.46096">
        <ele>122.6</ele>
        <time>2023-08-06T18:55:56Z</time>
      </trkpt>
      <trkpt lat="49.59407" lon="3.46099">
        <ele>122.6</ele>
        <time>2023-08-06T18:55:57Z</time>
      </trkpt>
      <trkpt lat="49.59407" lon="3.46102">
        <ele>122.6</ele>
        <time>2023-08-06T18:55:58Z</time>
      </trkpt>
      <trkpt lat="49.59406" lon="3.46106">
        <ele>122.6</ele>
        <time>2023-08-06T18:55:59Z</time>
      </trkpt>
      <trkpt lat="49.59406" lon="3.4611">
        <ele>122.6</ele>
        <time>2023-08-06T18:56:00Z</time>
      </trkpt>
      <trkpt lat="49.59407" lon="3.46113">
        <ele>122.6</ele>
        <time>2023-08-06T18:56:01Z</time>
      </trkpt>
      <trkpt lat="49.5941" lon="3.46136">
        <ele>122.6</ele>
        <time>2023-08-06T18:56:06Z</time>
      </trkpt>
      <trkpt lat="49.59411" lon="3.4614">
        <ele>122.6</ele>
        <time>2023-08-06T18:56:07Z</time>
      </trkpt>
      <trkpt lat="49.5941" lon="3.46145">
        <ele>122.6</ele>
        <time>2023-08-06T18:56:08Z</time>
      </trkpt>
      <trkpt lat="49.5941" lon="3.4615">
        <ele>122.6</ele>
        <time>2023-08-06T18:56:09Z</time>
      </trkpt>
      <trkpt lat="49.59409" lon="3.46153">
        <ele>122.6</ele>
        <time>2023-08-06T18:56:10Z</time>
      </trkpt>
      <trkpt lat="49.59408" lon="3.4616">
        <ele>122.6</ele>
        <time>2023-08-06T18:56:12Z</time>
      </trkpt>
      <trkpt lat="49.59409" lon="3.46165">
        <ele>122.6</ele>
        <time>2023-08-06T18:56:13Z</time>
      </trkpt>
      <trkpt lat="49.59409" lon="3.46186">
        <ele>122.6</ele>
        <time>2023-08-06T18:56:18Z</time>
      </trkpt>
      <trkpt lat="49.5941" lon="3.46191">
        <ele>122.6</ele>
        <time>2023-08-06T18:56:19Z</time>
      </trkpt>
      <trkpt lat="49.5941" lon="3.46195">
        <ele>122.6</ele>
        <time>2023-08-06T18:56:20Z</time>
      </trkpt>
      <trkpt lat="49.5941" lon="3.46198">
        <ele>122.8</ele>
        <time>2023-08-06T18:56:21Z</time>
      </trkpt>
      <trkpt lat="49.59411" lon="3.46205">
        <ele>122.8</ele>
        <time>2023-08-06T18:56:23Z</time>
      </trkpt>
      <trkpt lat="49.59412" lon="3.46209">
        <ele>122.8</ele>
        <time>2023-08-06T18:56:24Z</time>
      </trkpt>
      <trkpt lat="49.59413" lon="3.46212">
        <ele>122.8</ele>
        <time>2023-08-06T18:56:25Z</time>
      </trkpt>
      <trkpt lat="49.59414" lon="3.46215">
        <ele>123</ele>
        <time>2023-08-06T18:56:26Z</time>
      </trkpt>
      <trkpt lat="49.59415" lon="3.46216">
        <ele>123.2</ele>
        <time>2023-08-06T18:56:27Z</time>
      </trkpt>
      <trkpt lat="49.59415" lon="3.4622">
        <ele>123.2</ele>
        <time>2023-08-06T18:56:28Z</time>
      </trkpt>
      <trkpt lat="49.59416" lon="3.46223">
        <ele>123.2</ele>
        <time>2023-08-06T18:56:29Z</time>
      </trkpt>
      <trkpt lat="49.59416" lon="3.46227">
        <ele>123.2</ele>
        <time>2023-08-06T18:56:30Z</time>
      </trkpt>
      <trkpt lat="49.59417" lon="3.46231">
        <ele>123.2</ele>
        <time>2023-08-06T18:56:31Z</time>
      </trkpt>
      <trkpt lat="49.59418" lon="3.46234">
        <ele>123.4</ele>
        <time>2023-08-06T18:56:32Z</time>
      </trkpt>
      <trkpt lat="49.59418" lon="3.46236">
        <ele>123.4</ele>
        <time>2023-08-06T18:56:33Z</time>
      </trkpt>
      <trkpt lat="49.59418" lon="3.46239">
        <ele>123.4</ele>
        <time>2023-08-06T18:56:34Z</time>
      </trkpt>
      <trkpt lat="49.59419" lon="3.46244">
        <ele>123.4</ele>
        <time>2023-08-06T18:56:36Z</time>
      </trkpt>
      <trkpt lat="49.59422" lon="3.46253">
        <ele>123.4</ele>
        <time>2023-08-06T18:56:39Z</time>
      </trkpt>
      <trkpt lat="49.59422" lon="3.46255">
        <ele>123.6</ele>
        <time>2023-08-06T18:56:40Z</time>
      </trkpt>
      <trkpt lat="49.59422" lon="3.46257">
        <ele>123.8</ele>
        <time>2023-08-06T18:56:41Z</time>
      </trkpt>
      <trkpt lat="49.59423" lon="3.4626">
        <ele>124</ele>
        <time>2023-08-06T18:56:42Z</time>
      </trkpt>
      <trkpt lat="49.59423" lon="3.46265">
        <ele>124.2</ele>
        <time>2023-08-06T18:56:44Z</time>
      </trkpt>
      <trkpt lat="49.59423" lon="3.46268">
        <ele>124.4</ele>
        <time>2023-08-06T18:56:45Z</time>
      </trkpt>
      <trkpt lat="49.59424" lon="3.4627">
        <ele>124.4</ele>
        <time>2023-08-06T18:56:46Z</time>
      </trkpt>
      <trkpt lat="49.59423" lon="3.46272">
        <ele>124.8</ele>
        <time>2023-08-06T18:56:47Z</time>
      </trkpt>
      <trkpt lat="49.59423" lon="3.46274">
        <ele>125</ele>
        <time>2023-08-06T18:56:48Z</time>
      </trkpt>
      <trkpt lat="49.59423" lon="3.46277">
        <ele>125</ele>
        <time>2023-08-06T18:56:49Z</time>
      </trkpt>
      <trkpt lat="49.59424" lon="3.46279">
        <ele>125</ele>
        <time>2023-08-06T18:56:50Z</time>
      </trkpt>
      <trkpt lat="49.59425" lon="3.46282">
        <ele>125</ele>
        <time>2023-08-06T18:56:51Z</time>
      </trkpt>
      <trkpt lat="49.59426" lon="3.46285">
        <ele>125.2</ele>
        <time>2023-08-06T18:56:52Z</time>
      </trkpt>
      <trkpt lat="49.59426" lon="3.46288">
        <ele>125.2</ele>
        <time>2023-08-06T18:56:53Z</time>
      </trkpt>
      <trkpt lat="49.59426" lon="3.46291">
        <ele>125.2</ele>
        <time>2023-08-06T18:56:54Z</time>
      </trkpt>
      <trkpt lat="49.59427" lon="3.46295">
        <ele>125.2</ele>
        <time>2023-08-06T18:56:55Z</time>
      </trkpt>
      <trkpt lat="49.59427" lon="3.46298">
        <ele>125.2</ele>
        <time>2023-08-06T18:56:56Z</time>
      </trkpt>
      <trkpt lat="49.59427" lon="3.46301">
        <ele>125.2</ele>
        <time>2023-08-06T18:56:57Z</time>
      </trkpt>
      <trkpt lat="49.59431" lon="3.46317">
        <ele>125.2</ele>
        <time>2023-08-06T18:57:01Z</time>
      </trkpt>
      <trkpt lat="49.59432" lon="3.4632">
        <ele>125.2</ele>
        <time>2023-08-06T18:57:02Z</time>
      </trkpt>
      <trkpt lat="49.59431" lon="3.46326">
        <ele>125</ele>
        <time>2023-08-06T18:57:04Z</time>
      </trkpt>
      <trkpt lat="49.59433" lon="3.46343">
        <ele>125</ele>
        <time>2023-08-06T18:57:08Z</time>
      </trkpt>
      <trkpt lat="49.59433" lon="3.46347">
        <ele>125</ele>
        <time>2023-08-06T18:57:09Z</time>
      </trkpt>
      <trkpt lat="49.59433" lon="3.46349">
        <ele>125</ele>
        <time>2023-08-06T18:57:10Z</time>
      </trkpt>
      <trkpt lat="49.59433" lon="3.46351">
        <ele>125</ele>
        <time>2023-08-06T18:57:11Z</time>
      </trkpt>
      <trkpt lat="49.59431" lon="3.46355">
        <ele>125</ele>
        <time>2023-08-06T18:57:12Z</time>
      </trkpt>
      <trkpt lat="49.59431" lon="3.46359">
        <ele>125</ele>
        <time>2023-08-06T18:57:13Z</time>
      </trkpt>
      <trkpt lat="49.59431" lon="3.46364">
        <ele>125</ele>
        <time>2023-08-06T18:57:15Z</time>
      </trkpt>
      <trkpt lat="49.59431" lon="3.46369">
        <ele>125</ele>
        <time>2023-08-06T18:57:17Z</time>
      </trkpt>
      <trkpt lat="49.59429" lon="3.46372">
        <ele>125</ele>
        <time>2023-08-06T18:57:18Z</time>
      </trkpt>
      <trkpt lat="49.59427" lon="3.46375">
        <ele>125</ele>
        <time>2023-08-06T18:57:19Z</time>
      </trkpt>
      <trkpt lat="49.59425" lon="3.46378">
        <ele>125</ele>
        <time>2023-08-06T18:57:20Z</time>
      </trkpt>
      <trkpt lat="49.59425" lon="3.46382">
        <ele>125</ele>
        <time>2023-08-06T18:57:21Z</time>
      </trkpt>
      <trkpt lat="49.59427" lon="3.46385">
        <ele>125</ele>
        <time>2023-08-06T18:57:22Z</time>
      </trkpt>
      <trkpt lat="49.59427" lon="3.46393">
        <ele>125</ele>
        <time>2023-08-06T18:57:26Z</time>
      </trkpt>
      <trkpt lat="49.59426" lon="3.46396">
        <ele>125</ele>
        <time>2023-08-06T18:57:27Z</time>
      </trkpt>
      <trkpt lat="49.59425" lon="3.46399">
        <ele>125</ele>
        <time>2023-08-06T18:57:28Z</time>
      </trkpt>
      <trkpt lat="49.59424" lon="3.46405">
        <ele>125</ele>
        <time>2023-08-06T18:57:30Z</time>
      </trkpt>
      <trkpt lat="49.59423" lon="3.46409">
        <ele>125</ele>
        <time>2023-08-06T18:57:31Z</time>
      </trkpt>
      <trkpt lat="49.59422" lon="3.46413">
        <ele>124.8</ele>
        <time>2023-08-06T18:57:32Z</time>
      </trkpt>
      <trkpt lat="49.59421" lon="3.46418">
        <ele>124.8</ele>
        <time>2023-08-06T18:57:34Z</time>
      </trkpt>
      <trkpt lat="49.59422" lon="3.46421">
        <ele>124.8</ele>
        <time>2023-08-06T18:57:35Z</time>
      </trkpt>
      <trkpt lat="49.59423" lon="3.46423">
        <ele>124.8</ele>
        <time>2023-08-06T18:57:36Z</time>
      </trkpt>
      <trkpt lat="49.59423" lon="3.46425">
        <ele>124.8</ele>
        <time>2023-08-06T18:57:37Z</time>
      </trkpt>
      <trkpt lat="49.59424" lon="3.46428">
        <ele>124.8</ele>
        <time>2023-08-06T18:57:38Z</time>
      </trkpt>
      <trkpt lat="49.59424" lon="3.46431">
        <ele>124.8</ele>
        <time>2023-08-06T18:57:39Z</time>
      </trkpt>
      <trkpt lat="49.59424" lon="3.46434">
        <ele>124.8</ele>
        <time>2023-08-06T18:57:40Z</time>
      </trkpt>
      <trkpt lat="49.59423" lon="3.46438">
        <ele>125</ele>
        <time>2023-08-06T18:57:41Z</time>
      </trkpt>
      <trkpt lat="49.59424" lon="3.4644">
        <ele>125</ele>
        <time>2023-08-06T18:57:42Z</time>
      </trkpt>
      <trkpt lat="49.59424" lon="3.46443">
        <ele>125</ele>
        <time>2023-08-06T18:57:43Z</time>
      </trkpt>
      <trkpt lat="49.59425" lon="3.46445">
        <ele>125</ele>
        <time>2023-08-06T18:57:44Z</time>
      </trkpt>
      <trkpt lat="49.59425" lon="3.46447">
        <ele>125</ele>
        <time>2023-08-06T18:57:45Z</time>
      </trkpt>
      <trkpt lat="49.59426" lon="3.46449">
        <ele>125</ele>
        <time>2023-08-06T18:57:46Z</time>
      </trkpt>
      <trkpt lat="49.59427" lon="3.46456">
        <ele>125</ele>
        <time>2023-08-06T18:57:48Z</time>
      </trkpt>
      <trkpt lat="49.59429" lon="3.46459">
        <ele>125</ele>
        <time>2023-08-06T18:57:49Z</time>
      </trkpt>
      <trkpt lat="49.59431" lon="3.46464">
        <ele>124.8</ele>
        <time>2023-08-06T18:57:50Z</time>
      </trkpt>
      <trkpt lat="49.59434" lon="3.46468">
        <ele>124.8</ele>
        <time>2023-08-06T18:57:51Z</time>
      </trkpt>
      <trkpt lat="49.59436" lon="3.46471">
        <ele>124.6</ele>
        <time>2023-08-06T18:57:52Z</time>
      </trkpt>
      <trkpt lat="49.5944" lon="3.46476">
        <ele>124.6</ele>
        <time>2023-08-06T18:57:53Z</time>
      </trkpt>
      <trkpt lat="49.59441" lon="3.46481">
        <ele>124.4</ele>
        <time>2023-08-06T18:57:54Z</time>
      </trkpt>
      <trkpt lat="49.59441" lon="3.46486">
        <ele>124.4</ele>
        <time>2023-08-06T18:57:55Z</time>
      </trkpt>
      <trkpt lat="49.59443" lon="3.4649">
        <ele>124.2</ele>
        <time>2023-08-06T18:57:56Z</time>
      </trkpt>
      <trkpt lat="49.59444" lon="3.46495">
        <ele>124.2</ele>
        <time>2023-08-06T18:57:57Z</time>
      </trkpt>
      <trkpt lat="49.59446" lon="3.465">
        <ele>124</ele>
        <time>2023-08-06T18:57:58Z</time>
      </trkpt>
      <trkpt lat="49.59449" lon="3.46504">
        <ele>124</ele>
        <time>2023-08-06T18:57:59Z</time>
      </trkpt>
      <trkpt lat="49.59451" lon="3.46509">
        <ele>123.8</ele>
        <time>2023-08-06T18:58:00Z</time>
      </trkpt>
      <trkpt lat="49.59458" lon="3.46522">
        <ele>123.8</ele>
        <time>2023-08-06T18:58:04Z</time>
      </trkpt>
      <trkpt lat="49.59458" lon="3.46525">
        <ele>123.8</ele>
        <time>2023-08-06T18:58:05Z</time>
      </trkpt>
      <trkpt lat="49.59461" lon="3.46528">
        <ele>123.6</ele>
        <time>2023-08-06T18:58:06Z</time>
      </trkpt>
      <trkpt lat="49.59464" lon="3.46533">
        <ele>123.6</ele>
        <time>2023-08-06T18:58:07Z</time>
      </trkpt>
      <trkpt lat="49.59466" lon="3.46537">
        <ele>123.4</ele>
        <time>2023-08-06T18:58:08Z</time>
      </trkpt>
      <trkpt lat="49.59468" lon="3.46543">
        <ele>123.4</ele>
        <time>2023-08-06T18:58:09Z</time>
      </trkpt>
      <trkpt lat="49.5947" lon="3.46546">
        <ele>123.2</ele>
        <time>2023-08-06T18:58:10Z</time>
      </trkpt>
      <trkpt lat="49.59471" lon="3.4655">
        <ele>123.2</ele>
        <time>2023-08-06T18:58:11Z</time>
      </trkpt>
      <trkpt lat="49.59471" lon="3.46554">
        <ele>123.2</ele>
        <time>2023-08-06T18:58:12Z</time>
      </trkpt>
      <trkpt lat="49.5947" lon="3.46557">
        <ele>123</ele>
        <time>2023-08-06T18:58:13Z</time>
      </trkpt>
      <trkpt lat="49.5947" lon="3.46566">
        <ele>123</ele>
        <time>2023-08-06T18:58:15Z</time>
      </trkpt>
      <trkpt lat="49.5947" lon="3.46571">
        <ele>123</ele>
        <time>2023-08-06T18:58:16Z</time>
      </trkpt>
      <trkpt lat="49.59467" lon="3.46587">
        <ele>122.8</ele>
        <time>2023-08-06T18:58:19Z</time>
      </trkpt>
      <trkpt lat="49.59465" lon="3.46595">
        <ele>122.2</ele>
        <time>2023-08-06T18:58:21Z</time>
      </trkpt>
      <trkpt lat="49.59458" lon="3.46623">
        <ele>121.4</ele>
        <time>2023-08-06T18:58:26Z</time>
      </trkpt>
      <trkpt lat="49.59457" lon="3.46648">
        <ele>121.2</ele>
        <time>2023-08-06T18:58:30Z</time>
      </trkpt>
      <trkpt lat="49.59456" lon="3.46655">
        <ele>121.2</ele>
        <time>2023-08-06T18:58:31Z</time>
      </trkpt>
      <trkpt lat="49.5946" lon="3.46679">
        <ele>120.8</ele>
        <time>2023-08-06T18:58:35Z</time>
      </trkpt>
      <trkpt lat="49.59461" lon="3.46686">
        <ele>120.6</ele>
        <time>2023-08-06T18:58:36Z</time>
      </trkpt>
      <trkpt lat="49.59461" lon="3.467">
        <ele>120.4</ele>
        <time>2023-08-06T18:58:38Z</time>
      </trkpt>
      <trkpt lat="49.59462" lon="3.46707">
        <ele>120.4</ele>
        <time>2023-08-06T18:58:39Z</time>
      </trkpt>
      <trkpt lat="49.59463" lon="3.46725">
        <ele>120</ele>
        <time>2023-08-06T18:58:42Z</time>
      </trkpt>
      <trkpt lat="49.59464" lon="3.46736">
        <ele>119.8</ele>
        <time>2023-08-06T18:58:44Z</time>
      </trkpt>
      <trkpt lat="49.59463" lon="3.46741">
        <ele>119.2</ele>
        <time>2023-08-06T18:58:45Z</time>
      </trkpt>
      <trkpt lat="49.59464" lon="3.46746">
        <ele>119</ele>
        <time>2023-08-06T18:58:46Z</time>
      </trkpt>
      <trkpt lat="49.59466" lon="3.46756">
        <ele>119</ele>
        <time>2023-08-06T18:58:48Z</time>
      </trkpt>
      <trkpt lat="49.59468" lon="3.46767">
        <ele>118.4</ele>
        <time>2023-08-06T18:58:50Z</time>
      </trkpt>
      <trkpt lat="49.5947" lon="3.46776">
        <ele>118.2</ele>
        <time>2023-08-06T18:58:52Z</time>
      </trkpt>
      <trkpt lat="49.59471" lon="3.46781">
        <ele>118.2</ele>
        <time>2023-08-06T18:58:53Z</time>
      </trkpt>
      <trkpt lat="49.59472" lon="3.46785">
        <ele>118</ele>
        <time>2023-08-06T18:58:54Z</time>
      </trkpt>
      <trkpt lat="49.59473" lon="3.46788">
        <ele>118</ele>
        <time>2023-08-06T18:58:55Z</time>
      </trkpt>
      <trkpt lat="49.59474" lon="3.46791">
        <ele>117.8</ele>
        <time>2023-08-06T18:58:56Z</time>
      </trkpt>
      <trkpt lat="49.59475" lon="3.46794">
        <ele>117.6</ele>
        <time>2023-08-06T18:58:57Z</time>
      </trkpt>
      <trkpt lat="49.59475" lon="3.46798">
        <ele>117.4</ele>
        <time>2023-08-06T18:58:58Z</time>
      </trkpt>
      <trkpt lat="49.59476" lon="3.46802">
        <ele>117.2</ele>
        <time>2023-08-06T18:58:59Z</time>
      </trkpt>
      <trkpt lat="49.59477" lon="3.46805">
        <ele>117</ele>
        <time>2023-08-06T18:59:00Z</time>
      </trkpt>
      <trkpt lat="49.59478" lon="3.46808">
        <ele>116.6</ele>
        <time>2023-08-06T18:59:01Z</time>
      </trkpt>
      <trkpt lat="49.5948" lon="3.46812">
        <ele>116.4</ele>
        <time>2023-08-06T18:59:02Z</time>
      </trkpt>
      <trkpt lat="49.59481" lon="3.46815">
        <ele>116.2</ele>
        <time>2023-08-06T18:59:03Z</time>
      </trkpt>
      <trkpt lat="49.59487" lon="3.46832">
        <ele>115.2</ele>
        <time>2023-08-06T18:59:08Z</time>
      </trkpt>
      <trkpt lat="49.59488" lon="3.46835">
        <ele>115.2</ele>
        <time>2023-08-06T18:59:09Z</time>
      </trkpt>
      <trkpt lat="49.59488" lon="3.46839">
        <ele>115.2</ele>
        <time>2023-08-06T18:59:10Z</time>
      </trkpt>
      <trkpt lat="49.59491" lon="3.46842">
        <ele>115</ele>
        <time>2023-08-06T18:59:11Z</time>
      </trkpt>
      <trkpt lat="49.59494" lon="3.46847">
        <ele>115</ele>
        <time>2023-08-06T18:59:12Z</time>
      </trkpt>
      <trkpt lat="49.59508" lon="3.46859">
        <ele>114.8</ele>
        <time>2023-08-06T18:59:15Z</time>
      </trkpt>
      <trkpt lat="49.59511" lon="3.46862">
        <ele>114.8</ele>
        <time>2023-08-06T18:59:16Z</time>
      </trkpt>
      <trkpt lat="49.59515" lon="3.46865">
        <ele>114.4</ele>
        <time>2023-08-06T18:59:17Z</time>
      </trkpt>
      <trkpt lat="49.59519" lon="3.46867">
        <ele>114.4</ele>
        <time>2023-08-06T18:59:18Z</time>
      </trkpt>
      <trkpt lat="49.59521" lon="3.46869">
        <ele>114.2</ele>
        <time>2023-08-06T18:59:19Z</time>
      </trkpt>
      <trkpt lat="49.59543" lon="3.46879">
        <ele>113.6</ele>
        <time>2023-08-06T18:59:24Z</time>
      </trkpt>
      <trkpt lat="49.59563" lon="3.46891">
        <ele>113.2</ele>
        <time>2023-08-06T18:59:30Z</time>
      </trkpt>
      <trkpt lat="49.59564" lon="3.46893">
        <ele>113</ele>
        <time>2023-08-06T18:59:31Z</time>
      </trkpt>
      <trkpt lat="49.59569" lon="3.46898">
        <ele>112.8</ele>
        <time>2023-08-06T18:59:32Z</time>
      </trkpt>
      <trkpt lat="49.59572" lon="3.46904">
        <ele>112.8</ele>
        <time>2023-08-06T18:59:33Z</time>
      </trkpt>
      <trkpt lat="49.59578" lon="3.46919">
        <ele>112.4</ele>
        <time>2023-08-06T18:59:35Z</time>
      </trkpt>
      <trkpt lat="49.59579" lon="3.46923">
        <ele>112.4</ele>
        <time>2023-08-06T18:59:36Z</time>
      </trkpt>
      <trkpt lat="49.5958" lon="3.46928">
        <ele>112.2</ele>
        <time>2023-08-06T18:59:37Z</time>
      </trkpt>
      <trkpt lat="49.5958" lon="3.46932">
        <ele>112.2</ele>
        <time>2023-08-06T18:59:38Z</time>
      </trkpt>
      <trkpt lat="49.59581" lon="3.46936">
        <ele>112</ele>
        <time>2023-08-06T18:59:39Z</time>
      </trkpt>
      <trkpt lat="49.59582" lon="3.4694">
        <ele>111.8</ele>
        <time>2023-08-06T18:59:40Z</time>
      </trkpt>
      <trkpt lat="49.59583" lon="3.46945">
        <ele>112</ele>
        <time>2023-08-06T18:59:41Z</time>
      </trkpt>
      <trkpt lat="49.59584" lon="3.4695">
        <ele>111.8</ele>
        <time>2023-08-06T18:59:42Z</time>
      </trkpt>
      <trkpt lat="49.59585" lon="3.46954">
        <ele>111.8</ele>
        <time>2023-08-06T18:59:43Z</time>
      </trkpt>
      <trkpt lat="49.59586" lon="3.46959">
        <ele>111.8</ele>
        <time>2023-08-06T18:59:44Z</time>
      </trkpt>
      <trkpt lat="49.59588" lon="3.46963">
        <ele>111.8</ele>
        <time>2023-08-06T18:59:45Z</time>
      </trkpt>
      <trkpt lat="49.59591" lon="3.46974">
        <ele>111.6</ele>
        <time>2023-08-06T18:59:47Z</time>
      </trkpt>
      <trkpt lat="49.59591" lon="3.46979">
        <ele>111.6</ele>
        <time>2023-08-06T18:59:48Z</time>
      </trkpt>
      <trkpt lat="49.59591" lon="3.46984">
        <ele>111.6</ele>
        <time>2023-08-06T18:59:49Z</time>
      </trkpt>
      <trkpt lat="49.59591" lon="3.46988">
        <ele>111.8</ele>
        <time>2023-08-06T18:59:50Z</time>
      </trkpt>
      <trkpt lat="49.59591" lon="3.46992">
        <ele>111.6</ele>
        <time>2023-08-06T18:59:51Z</time>
      </trkpt>
      <trkpt lat="49.5959" lon="3.46996">
        <ele>111.6</ele>
        <time>2023-08-06T18:59:52Z</time>
      </trkpt>
      <trkpt lat="49.59591" lon="3.47">
        <ele>111.6</ele>
        <time>2023-08-06T18:59:53Z</time>
      </trkpt>
      <trkpt lat="49.59591" lon="3.47004">
        <ele>111.6</ele>
        <time>2023-08-06T18:59:54Z</time>
      </trkpt>
      <trkpt lat="49.59591" lon="3.47007">
        <ele>111.6</ele>
        <time>2023-08-06T18:59:55Z</time>
      </trkpt>
      <trkpt lat="49.59593" lon="3.47023">
        <ele>111.8</ele>
        <time>2023-08-06T18:59:58Z</time>
      </trkpt>
      <trkpt lat="49.59593" lon="3.47034">
        <ele>111.8</ele>
        <time>2023-08-06T19:00:00Z</time>
      </trkpt>
      <trkpt lat="49.59593" lon="3.4704">
        <ele>111.6</ele>
        <time>2023-08-06T19:00:01Z</time>
      </trkpt>
      <trkpt lat="49.59593" lon="3.47046">
        <ele>111.6</ele>
        <time>2023-08-06T19:00:02Z</time>
      </trkpt>
      <trkpt lat="49.59594" lon="3.47062">
        <ele>111.6</ele>
        <time>2023-08-06T19:00:04Z</time>
      </trkpt>
      <trkpt lat="49.59599" lon="3.47094">
        <ele>111.6</ele>
        <time>2023-08-06T19:00:09Z</time>
      </trkpt>
      <trkpt lat="49.59601" lon="3.47101">
        <ele>111.4</ele>
        <time>2023-08-06T19:00:10Z</time>
      </trkpt>
      <trkpt lat="49.59607" lon="3.47127">
        <ele>111.2</ele>
        <time>2023-08-06T19:00:13Z</time>
      </trkpt>
      <trkpt lat="49.5961" lon="3.47136">
        <ele>111.2</ele>
        <time>2023-08-06T19:00:14Z</time>
      </trkpt>
      <trkpt lat="49.59613" lon="3.47152">
        <ele>111.2</ele>
        <time>2023-08-06T19:00:16Z</time>
      </trkpt>
      <trkpt lat="49.59615" lon="3.4716">
        <ele>111.4</ele>
        <time>2023-08-06T19:00:17Z</time>
      </trkpt>
      <trkpt lat="49.59616" lon="3.47167">
        <ele>111.4</ele>
        <time>2023-08-06T19:00:18Z</time>
      </trkpt>
      <trkpt lat="49.59619" lon="3.47174">
        <ele>111.2</ele>
        <time>2023-08-06T19:00:19Z</time>
      </trkpt>
      <trkpt lat="49.59621" lon="3.47181">
        <ele>111</ele>
        <time>2023-08-06T19:00:20Z</time>
      </trkpt>
      <trkpt lat="49.59622" lon="3.47187">
        <ele>111</ele>
        <time>2023-08-06T19:00:21Z</time>
      </trkpt>
      <trkpt lat="49.59624" lon="3.47193">
        <ele>111</ele>
        <time>2023-08-06T19:00:22Z</time>
      </trkpt>
      <trkpt lat="49.59626" lon="3.47197">
        <ele>111</ele>
        <time>2023-08-06T19:00:23Z</time>
      </trkpt>
      <trkpt lat="49.59629" lon="3.47201">
        <ele>111</ele>
        <time>2023-08-06T19:00:24Z</time>
      </trkpt>
      <trkpt lat="49.59633" lon="3.47205">
        <ele>111</ele>
        <time>2023-08-06T19:00:25Z</time>
      </trkpt>
      <trkpt lat="49.59637" lon="3.47209">
        <ele>111</ele>
        <time>2023-08-06T19:00:26Z</time>
      </trkpt>
      <trkpt lat="49.59655" lon="3.47222">
        <ele>110.8</ele>
        <time>2023-08-06T19:00:30Z</time>
      </trkpt>
      <trkpt lat="49.59691" lon="3.47245">
        <ele>110.6</ele>
        <time>2023-08-06T19:00:38Z</time>
      </trkpt>
      <trkpt lat="49.59696" lon="3.47248">
        <ele>110.6</ele>
        <time>2023-08-06T19:00:39Z</time>
      </trkpt>
      <trkpt lat="49.59719" lon="3.47264">
        <ele>110.6</ele>
        <time>2023-08-06T19:00:43Z</time>
      </trkpt>
      <trkpt lat="49.5973" lon="3.47274">
        <ele>110.6</ele>
        <time>2023-08-06T19:00:45Z</time>
      </trkpt>
      <trkpt lat="49.59752" lon="3.47294">
        <ele>110.4</ele>
        <time>2023-08-06T19:00:49Z</time>
      </trkpt>
      <trkpt lat="49.59758" lon="3.47299">
        <ele>110.4</ele>
        <time>2023-08-06T19:00:50Z</time>
      </trkpt>
      <trkpt lat="49.59768" lon="3.4731">
        <ele>110.2</ele>
        <time>2023-08-06T19:00:52Z</time>
      </trkpt>
      <trkpt lat="49.59778" lon="3.4732">
        <ele>110.4</ele>
        <time>2023-08-06T19:00:54Z</time>
      </trkpt>
      <trkpt lat="49.59782" lon="3.47326">
        <ele>110.4</ele>
        <time>2023-08-06T19:00:55Z</time>
      </trkpt>
      <trkpt lat="49.59786" lon="3.4733">
        <ele>110.4</ele>
        <time>2023-08-06T19:00:56Z</time>
      </trkpt>
      <trkpt lat="49.59791" lon="3.47335">
        <ele>110.4</ele>
        <time>2023-08-06T19:00:57Z</time>
      </trkpt>
      <trkpt lat="49.59795" lon="3.4734">
        <ele>110.4</ele>
        <time>2023-08-06T19:00:58Z</time>
      </trkpt>
      <trkpt lat="49.59798" lon="3.47345">
        <ele>110.4</ele>
        <time>2023-08-06T19:00:59Z</time>
      </trkpt>
      <trkpt lat="49.59806" lon="3.47356">
        <ele>110.4</ele>
        <time>2023-08-06T19:01:01Z</time>
      </trkpt>
      <trkpt lat="49.5981" lon="3.47361">
        <ele>110.4</ele>
        <time>2023-08-06T19:01:02Z</time>
      </trkpt>
      <trkpt lat="49.59815" lon="3.47367">
        <ele>110.2</ele>
        <time>2023-08-06T19:01:03Z</time>
      </trkpt>
      <trkpt lat="49.59825" lon="3.47379">
        <ele>110.2</ele>
        <time>2023-08-06T19:01:05Z</time>
      </trkpt>
      <trkpt lat="49.59834" lon="3.4739">
        <ele>110</ele>
        <time>2023-08-06T19:01:07Z</time>
      </trkpt>
      <trkpt lat="49.59838" lon="3.47396">
        <ele>110.2</ele>
        <time>2023-08-06T19:01:08Z</time>
      </trkpt>
      <trkpt lat="49.59842" lon="3.47401">
        <ele>110.2</ele>
        <time>2023-08-06T19:01:09Z</time>
      </trkpt>
      <trkpt lat="49.59846" lon="3.47406">
        <ele>110</ele>
        <time>2023-08-06T19:01:10Z</time>
      </trkpt>
      <trkpt lat="49.59849" lon="3.4741">
        <ele>110</ele>
        <time>2023-08-06T19:01:11Z</time>
      </trkpt>
      <trkpt lat="49.59853" lon="3.47415">
        <ele>110</ele>
        <time>2023-08-06T19:01:12Z</time>
      </trkpt>
      <trkpt lat="49.59856" lon="3.4742">
        <ele>109.8</ele>
        <time>2023-08-06T19:01:13Z</time>
      </trkpt>
      <trkpt lat="49.5986" lon="3.47426">
        <ele>110</ele>
        <time>2023-08-06T19:01:14Z</time>
      </trkpt>
      <trkpt lat="49.59866" lon="3.47435">
        <ele>110</ele>
        <time>2023-08-06T19:01:16Z</time>
      </trkpt>
      <trkpt lat="49.59869" lon="3.4744">
        <ele>110</ele>
        <time>2023-08-06T19:01:17Z</time>
      </trkpt>
      <trkpt lat="49.59873" lon="3.47446">
        <ele>110</ele>
        <time>2023-08-06T19:01:18Z</time>
      </trkpt>
      <trkpt lat="49.59882" lon="3.47459">
        <ele>110</ele>
        <time>2023-08-06T19:01:20Z</time>
      </trkpt>
      <trkpt lat="49.59887" lon="3.47464">
        <ele>110.2</ele>
        <time>2023-08-06T19:01:21Z</time>
      </trkpt>
      <trkpt lat="49.59892" lon="3.4747">
        <ele>110.2</ele>
        <time>2023-08-06T19:01:22Z</time>
      </trkpt>
      <trkpt lat="49.59904" lon="3.47488">
        <ele>110</ele>
        <time>2023-08-06T19:01:25Z</time>
      </trkpt>
      <trkpt lat="49.59907" lon="3.47494">
        <ele>110</ele>
        <time>2023-08-06T19:01:26Z</time>
      </trkpt>
      <trkpt lat="49.59911" lon="3.47501">
        <ele>110</ele>
        <time>2023-08-06T19:01:27Z</time>
      </trkpt>
      <trkpt lat="49.59915" lon="3.47508">
        <ele>110</ele>
        <time>2023-08-06T19:01:28Z</time>
      </trkpt>
      <trkpt lat="49.59925" lon="3.47519">
        <ele>109.8</ele>
        <time>2023-08-06T19:01:30Z</time>
      </trkpt>
      <trkpt lat="49.59934" lon="3.47529">
        <ele>110</ele>
        <time>2023-08-06T19:01:32Z</time>
      </trkpt>
      <trkpt lat="49.59937" lon="3.47535">
        <ele>109.8</ele>
        <time>2023-08-06T19:01:33Z</time>
      </trkpt>
      <trkpt lat="49.59946" lon="3.47548">
        <ele>110</ele>
        <time>2023-08-06T19:01:35Z</time>
      </trkpt>
      <trkpt lat="49.59961" lon="3.47571">
        <ele>109.8</ele>
        <time>2023-08-06T19:01:39Z</time>
      </trkpt>
      <trkpt lat="49.59964" lon="3.47577">
        <ele>109.8</ele>
        <time>2023-08-06T19:01:40Z</time>
      </trkpt>
      <trkpt lat="49.59969" lon="3.47589">
        <ele>109.8</ele>
        <time>2023-08-06T19:01:42Z</time>
      </trkpt>
      <trkpt lat="49.5998" lon="3.47613">
        <ele>109.8</ele>
        <time>2023-08-06T19:01:46Z</time>
      </trkpt>
      <trkpt lat="49.59997" lon="3.47652">
        <ele>109.4</ele>
        <time>2023-08-06T19:01:52Z</time>
      </trkpt>
      <trkpt lat="49.59998" lon="3.47658">
        <ele>109.4</ele>
        <time>2023-08-06T19:01:53Z</time>
      </trkpt>
      <trkpt lat="49.60003" lon="3.47677">
        <ele>109.4</ele>
        <time>2023-08-06T19:01:56Z</time>
      </trkpt>
      <trkpt lat="49.60004" lon="3.47683">
        <ele>109.4</ele>
        <time>2023-08-06T19:01:57Z</time>
      </trkpt>
      <trkpt lat="49.60005" lon="3.47689">
        <ele>109.4</ele>
        <time>2023-08-06T19:01:58Z</time>
      </trkpt>
      <trkpt lat="49.60007" lon="3.47696">
        <ele>109.2</ele>
        <time>2023-08-06T19:01:59Z</time>
      </trkpt>
      <trkpt lat="49.60008" lon="3.47701">
        <ele>109.2</ele>
        <time>2023-08-06T19:02:00Z</time>
      </trkpt>
      <trkpt lat="49.60009" lon="3.47707">
        <ele>109.2</ele>
        <time>2023-08-06T19:02:01Z</time>
      </trkpt>
      <trkpt lat="49.60021" lon="3.47758">
        <ele>109.2</ele>
        <time>2023-08-06T19:02:08Z</time>
      </trkpt>
      <trkpt lat="49.60026" lon="3.47782">
        <ele>109</ele>
        <time>2023-08-06T19:02:11Z</time>
      </trkpt>
      <trkpt lat="49.60028" lon="3.47789">
        <ele>109</ele>
        <time>2023-08-06T19:02:12Z</time>
      </trkpt>
      <trkpt lat="49.60029" lon="3.47796">
        <ele>108.8</ele>
        <time>2023-08-06T19:02:13Z</time>
      </trkpt>
      <trkpt lat="49.6003" lon="3.47804">
        <ele>108.8</ele>
        <time>2023-08-06T19:02:14Z</time>
      </trkpt>
      <trkpt lat="49.60033" lon="3.47818">
        <ele>108.8</ele>
        <time>2023-08-06T19:02:16Z</time>
      </trkpt>
      <trkpt lat="49.60034" lon="3.47825">
        <ele>109</ele>
        <time>2023-08-06T19:02:17Z</time>
      </trkpt>
      <trkpt lat="49.60035" lon="3.47834">
        <ele>109</ele>
        <time>2023-08-06T19:02:18Z</time>
      </trkpt>
      <trkpt lat="49.60036" lon="3.4784">
        <ele>108.8</ele>
        <time>2023-08-06T19:02:19Z</time>
      </trkpt>
      <trkpt lat="49.60038" lon="3.47871">
        <ele>108.6</ele>
        <time>2023-08-06T19:02:23Z</time>
      </trkpt>
      <trkpt lat="49.6004" lon="3.47916">
        <ele>108.4</ele>
        <time>2023-08-06T19:02:29Z</time>
      </trkpt>
      <trkpt lat="49.6004" lon="3.47953">
        <ele>108.4</ele>
        <time>2023-08-06T19:02:34Z</time>
      </trkpt>
      <trkpt lat="49.60042" lon="3.47973">
        <ele>108.6</ele>
        <time>2023-08-06T19:02:37Z</time>
      </trkpt>
      <trkpt lat="49.60043" lon="3.47979">
        <ele>108.4</ele>
        <time>2023-08-06T19:02:38Z</time>
      </trkpt>
      <trkpt lat="49.60044" lon="3.47992">
        <ele>108.6</ele>
        <time>2023-08-06T19:02:40Z</time>
      </trkpt>
      <trkpt lat="49.60044" lon="3.47999">
        <ele>108.6</ele>
        <time>2023-08-06T19:02:41Z</time>
      </trkpt>
      <trkpt lat="49.60044" lon="3.48006">
        <ele>108.4</ele>
        <time>2023-08-06T19:02:42Z</time>
      </trkpt>
      <trkpt lat="49.60044" lon="3.48011">
        <ele>108.4</ele>
        <time>2023-08-06T19:02:43Z</time>
      </trkpt>
      <trkpt lat="49.60045" lon="3.48017">
        <ele>108.4</ele>
        <time>2023-08-06T19:02:44Z</time>
      </trkpt>
      <trkpt lat="49.60045" lon="3.48022">
        <ele>108.6</ele>
        <time>2023-08-06T19:02:45Z</time>
      </trkpt>
      <trkpt lat="49.60045" lon="3.48028">
        <ele>108.4</ele>
        <time>2023-08-06T19:02:46Z</time>
      </trkpt>
      <trkpt lat="49.60046" lon="3.48032">
        <ele>108.4</ele>
        <time>2023-08-06T19:02:47Z</time>
      </trkpt>
      <trkpt lat="49.60046" lon="3.48037">
        <ele>108.4</ele>
        <time>2023-08-06T19:02:48Z</time>
      </trkpt>
      <trkpt lat="49.60046" lon="3.48042">
        <ele>108.4</ele>
        <time>2023-08-06T19:02:49Z</time>
      </trkpt>
      <trkpt lat="49.60046" lon="3.48047">
        <ele>108.4</ele>
        <time>2023-08-06T19:02:50Z</time>
      </trkpt>
      <trkpt lat="49.60046" lon="3.48051">
        <ele>108.2</ele>
        <time>2023-08-06T19:02:51Z</time>
      </trkpt>
      <trkpt lat="49.60047" lon="3.48056">
        <ele>108.4</ele>
        <time>2023-08-06T19:02:52Z</time>
      </trkpt>
      <trkpt lat="49.60046" lon="3.48061">
        <ele>108.4</ele>
        <time>2023-08-06T19:02:53Z</time>
      </trkpt>
      <trkpt lat="49.60046" lon="3.48066">
        <ele>108.4</ele>
        <time>2023-08-06T19:02:54Z</time>
      </trkpt>
      <trkpt lat="49.60047" lon="3.48071">
        <ele>108.2</ele>
        <time>2023-08-06T19:02:55Z</time>
      </trkpt>
      <trkpt lat="49.60047" lon="3.48075">
        <ele>108.4</ele>
        <time>2023-08-06T19:02:56Z</time>
      </trkpt>
      <trkpt lat="49.60046" lon="3.48079">
        <ele>108.4</ele>
        <time>2023-08-06T19:02:57Z</time>
      </trkpt>
      <trkpt lat="49.60044" lon="3.48083">
        <ele>108.4</ele>
        <time>2023-08-06T19:02:58Z</time>
      </trkpt>
      <trkpt lat="49.60042" lon="3.48085">
        <ele>108.4</ele>
        <time>2023-08-06T19:02:59Z</time>
      </trkpt>
      <trkpt lat="49.60037" lon="3.48086">
        <ele>108.2</ele>
        <time>2023-08-06T19:03:01Z</time>
      </trkpt>
      <trkpt lat="49.60034" lon="3.48086">
        <ele>108.2</ele>
        <time>2023-08-06T19:03:02Z</time>
      </trkpt>
      <trkpt lat="49.60031" lon="3.48086">
        <ele>108.2</ele>
        <time>2023-08-06T19:03:03Z</time>
      </trkpt>
      <trkpt lat="49.60029" lon="3.48086">
        <ele>108.2</ele>
        <time>2023-08-06T19:03:04Z</time>
      </trkpt>
      <trkpt lat="49.60026" lon="3.48085">
        <ele>108.2</ele>
        <time>2023-08-06T19:03:05Z</time>
      </trkpt>
      <trkpt lat="49.60023" lon="3.48085">
        <ele>108.2</ele>
        <time>2023-08-06T19:03:06Z</time>
      </trkpt>
      <trkpt lat="49.60021" lon="3.48085">
        <ele>108.2</ele>
        <time>2023-08-06T19:03:07Z</time>
      </trkpt>
      <trkpt lat="49.60018" lon="3.48085">
        <ele>108.2</ele>
        <time>2023-08-06T19:03:08Z</time>
      </trkpt>
      <trkpt lat="49.59998" lon="3.48084">
        <ele>108.2</ele>
        <time>2023-08-06T19:03:15Z</time>
      </trkpt>
      <trkpt lat="49.59993" lon="3.48085">
        <ele>108</ele>
        <time>2023-08-06T19:03:17Z</time>
      </trkpt>
      <trkpt lat="49.59986" lon="3.48085">
        <ele>108</ele>
        <time>2023-08-06T19:03:20Z</time>
      </trkpt>
      <trkpt lat="49.59983" lon="3.48085">
        <ele>108</ele>
        <time>2023-08-06T19:03:21Z</time>
      </trkpt>
      <trkpt lat="49.5998" lon="3.48085">
        <ele>107.8</ele>
        <time>2023-08-06T19:03:22Z</time>
      </trkpt>
      <trkpt lat="49.59978" lon="3.48085">
        <ele>107.8</ele>
        <time>2023-08-06T19:03:23Z</time>
      </trkpt>
      <trkpt lat="49.59972" lon="3.48086">
        <ele>108</ele>
        <time>2023-08-06T19:03:25Z</time>
      </trkpt>
      <trkpt lat="49.59958" lon="3.48089">
        <ele>107.4</ele>
        <time>2023-08-06T19:03:30Z</time>
      </trkpt>
      <trkpt lat="49.59947" lon="3.48091">
        <ele>107.2</ele>
        <time>2023-08-06T19:03:34Z</time>
      </trkpt>
      <trkpt lat="49.59939" lon="3.48093">
        <ele>107</ele>
        <time>2023-08-06T19:03:37Z</time>
      </trkpt>
      <trkpt lat="49.59926" lon="3.48098">
        <ele>107</ele>
        <time>2023-08-06T19:03:42Z</time>
      </trkpt>
      <trkpt lat="49.59922" lon="3.481">
        <ele>107</ele>
        <time>2023-08-06T19:03:44Z</time>
      </trkpt>
      <trkpt lat="49.59919" lon="3.48101">
        <ele>107</ele>
        <time>2023-08-06T19:03:45Z</time>
      </trkpt>
      <trkpt lat="49.59915" lon="3.48103">
        <ele>107</ele>
        <time>2023-08-06T19:03:47Z</time>
      </trkpt>
      <trkpt lat="49.59913" lon="3.48105">
        <ele>107</ele>
        <time>2023-08-06T19:03:48Z</time>
      </trkpt>
      <trkpt lat="49.59912" lon="3.48108">
        <ele>107</ele>
        <time>2023-08-06T19:03:49Z</time>
      </trkpt>
      <trkpt lat="49.59911" lon="3.4811">
        <ele>107.2</ele>
        <time>2023-08-06T19:03:50Z</time>
      </trkpt>
      <trkpt lat="49.59911" lon="3.48112">
        <ele>107.2</ele>
        <time>2023-08-06T19:03:51Z</time>
      </trkpt>
      <trkpt lat="49.59912" lon="3.48114">
        <ele>107</ele>
        <time>2023-08-06T19:03:52Z</time>
      </trkpt>
      <trkpt lat="49.59912" lon="3.48116">
        <ele>107</ele>
        <time>2023-08-06T19:03:53Z</time>
      </trkpt>
      <trkpt lat="49.59913" lon="3.48117">
        <ele>107</ele>
        <time>2023-08-06T19:03:54Z</time>
      </trkpt>
      <trkpt lat="49.59914" lon="3.48119">
        <ele>107</ele>
        <time>2023-08-06T19:03:55Z</time>
      </trkpt>
      <trkpt lat="49.59921" lon="3.48136">
        <ele>106.6</ele>
        <time>2023-08-06T19:04:03Z</time>
      </trkpt>
      <trkpt lat="49.59922" lon="3.48138">
        <ele>106.6</ele>
        <time>2023-08-06T19:04:04Z</time>
      </trkpt>
      <trkpt lat="49.59932" lon="3.48154">
        <ele>106.4</ele>
        <time>2023-08-06T19:04:13Z</time>
      </trkpt>
      <trkpt lat="49.59933" lon="3.48155">
        <ele>106.4</ele>
        <time>2023-08-06T19:04:14Z</time>
      </trkpt>
      <trkpt lat="49.59934" lon="3.48157">
        <ele>106.4</ele>
        <time>2023-08-06T19:04:15Z</time>
      </trkpt>
      <trkpt lat="49.59934" lon="3.48158">
        <ele>106.2</ele>
        <time>2023-08-06T19:04:16Z</time>
      </trkpt>
      <trkpt lat="49.59935" lon="3.4816">
        <ele>106.2</ele>
        <time>2023-08-06T19:04:17Z</time>
      </trkpt>
      <trkpt lat="49.59936" lon="3.48162">
        <ele>106</ele>
        <time>2023-08-06T19:04:18Z</time>
      </trkpt>
      <trkpt lat="49.59937" lon="3.48164">
        <ele>106</ele>
        <time>2023-08-06T19:04:19Z</time>
      </trkpt>
      <trkpt lat="49.59938" lon="3.48166">
        <ele>106.2</ele>
        <time>2023-08-06T19:04:20Z</time>
      </trkpt>
      <trkpt lat="49.59939" lon="3.48168">
        <ele>106.2</ele>
        <time>2023-08-06T19:04:21Z</time>
      </trkpt>
      <trkpt lat="49.5994" lon="3.48172">
        <ele>106</ele>
        <time>2023-08-06T19:04:23Z</time>
      </trkpt>
      <trkpt lat="49.59948" lon="3.48187">
        <ele>105.8</ele>
        <time>2023-08-06T19:04:31Z</time>
      </trkpt>
      <trkpt lat="49.59948" lon="3.48189">
        <ele>105.8</ele>
        <time>2023-08-06T19:04:32Z</time>
      </trkpt>
      <trkpt lat="49.5995" lon="3.48193">
        <ele>105.6</ele>
        <time>2023-08-06T19:04:34Z</time>
      </trkpt>
      <trkpt lat="49.59952" lon="3.48196">
        <ele>105.6</ele>
        <time>2023-08-06T19:04:36Z</time>
      </trkpt>
      <trkpt lat="49.59952" lon="3.48197">
        <ele>105.6</ele>
        <time>2023-08-06T19:04:37Z</time>
      </trkpt>
      <trkpt lat="49.59952" lon="3.48198">
        <ele>105.4</ele>
        <time>2023-08-06T19:04:38Z</time>
      </trkpt>
      <trkpt lat="49.59953" lon="3.48199">
        <ele>105.4</ele>
        <time>2023-08-06T19:04:39Z</time>
      </trkpt>
      <trkpt lat="49.59953" lon="3.48201">
        <ele>105.2</ele>
        <time>2023-08-06T19:04:40Z</time>
      </trkpt>
      <trkpt lat="49.59954" lon="3.48202">
        <ele>105.4</ele>
        <time>2023-08-06T19:04:41Z</time>
      </trkpt>
      <trkpt lat="49.59955" lon="3.48204">
        <ele>105.2</ele>
        <time>2023-08-06T19:04:42Z</time>
      </trkpt>
      <trkpt lat="49.59956" lon="3.48206">
        <ele>105.2</ele>
        <time>2023-08-06T19:04:43Z</time>
      </trkpt>
      <trkpt lat="49.59956" lon="3.48208">
        <ele>105.2</ele>
        <time>2023-08-06T19:04:44Z</time>
      </trkpt>
      <trkpt lat="49.59959" lon="3.48214">
        <ele>104.8</ele>
        <time>2023-08-06T19:04:47Z</time>
      </trkpt>
      <trkpt lat="49.5996" lon="3.48219">
        <ele>104.8</ele>
        <time>2023-08-06T19:04:50Z</time>
      </trkpt>
      <trkpt lat="49.59961" lon="3.48221">
        <ele>104.8</ele>
        <time>2023-08-06T19:04:51Z</time>
      </trkpt>
      <trkpt lat="49.59961" lon="3.48223">
        <ele>104.8</ele>
        <time>2023-08-06T19:04:52Z</time>
      </trkpt>
      <trkpt lat="49.59961" lon="3.48226">
        <ele>104.6</ele>
        <time>2023-08-06T19:04:54Z</time>
      </trkpt>
      <trkpt lat="49.59962" lon="3.48228">
        <ele>104.6</ele>
        <time>2023-08-06T19:04:55Z</time>
      </trkpt>
      <trkpt lat="49.59962" lon="3.48229">
        <ele>104.6</ele>
        <time>2023-08-06T19:04:56Z</time>
      </trkpt>
      <trkpt lat="49.59963" lon="3.48231">
        <ele>104.6</ele>
        <time>2023-08-06T19:04:57Z</time>
      </trkpt>
      <trkpt lat="49.59963" lon="3.48233">
        <ele>104.6</ele>
        <time>2023-08-06T19:04:58Z</time>
      </trkpt>
      <trkpt lat="49.59964" lon="3.48235">
        <ele>104.4</ele>
        <time>2023-08-06T19:04:59Z</time>
      </trkpt>
      <trkpt lat="49.59965" lon="3.48243">
        <ele>104.4</ele>
        <time>2023-08-06T19:05:03Z</time>
      </trkpt>
      <trkpt lat="49.59966" lon="3.48246">
        <ele>104.2</ele>
        <time>2023-08-06T19:05:05Z</time>
      </trkpt>
      <trkpt lat="49.59966" lon="3.48247">
        <ele>104.2</ele>
        <time>2023-08-06T19:05:06Z</time>
      </trkpt>
      <trkpt lat="49.59966" lon="3.48249">
        <ele>104.2</ele>
        <time>2023-08-06T19:05:07Z</time>
      </trkpt>
      <trkpt lat="49.59967" lon="3.4825">
        <ele>104.2</ele>
        <time>2023-08-06T19:05:08Z</time>
      </trkpt>
      <trkpt lat="49.59967" lon="3.48252">
        <ele>104.4</ele>
        <time>2023-08-06T19:05:09Z</time>
      </trkpt>
      <trkpt lat="49.59967" lon="3.48254">
        <ele>104.6</ele>
        <time>2023-08-06T19:05:10Z</time>
      </trkpt>
      <trkpt lat="49.59967" lon="3.48256">
        <ele>104.6</ele>
        <time>2023-08-06T19:05:11Z</time>
      </trkpt>
      <trkpt lat="49.59967" lon="3.48259">
        <ele>104.6</ele>
        <time>2023-08-06T19:05:13Z</time>
      </trkpt>
      <trkpt lat="49.59968" lon="3.4827">
        <ele>105.2</ele>
        <time>2023-08-06T19:05:19Z</time>
      </trkpt>
      <trkpt lat="49.59966" lon="3.48288">
        <ele>105.8</ele>
        <time>2023-08-06T19:05:28Z</time>
      </trkpt>
      <trkpt lat="49.59966" lon="3.48295">
        <ele>106</ele>
        <time>2023-08-06T19:05:31Z</time>
      </trkpt>
      <trkpt lat="49.59965" lon="3.483">
        <ele>106.2</ele>
        <time>2023-08-06T19:05:33Z</time>
      </trkpt>
      <trkpt lat="49.59965" lon="3.48303">
        <ele>106.2</ele>
        <time>2023-08-06T19:05:34Z</time>
      </trkpt>
      <trkpt lat="49.59965" lon="3.48305">
        <ele>106.4</ele>
        <time>2023-08-06T19:05:35Z</time>
      </trkpt>
      <trkpt lat="49.59965" lon="3.4831">
        <ele>106.4</ele>
        <time>2023-08-06T19:05:37Z</time>
      </trkpt>
      <trkpt lat="49.59965" lon="3.48313">
        <ele>106.4</ele>
        <time>2023-08-06T19:05:38Z</time>
      </trkpt>
      <trkpt lat="49.59965" lon="3.48316">
        <ele>106.8</ele>
        <time>2023-08-06T19:05:39Z</time>
      </trkpt>
      <trkpt lat="49.59965" lon="3.4833">
        <ele>107.2</ele>
        <time>2023-08-06T19:05:45Z</time>
      </trkpt>
      <trkpt lat="49.59965" lon="3.48335">
        <ele>107.4</ele>
        <time>2023-08-06T19:05:47Z</time>
      </trkpt>
      <trkpt lat="49.59965" lon="3.48345">
        <ele>107.8</ele>
        <time>2023-08-06T19:05:51Z</time>
      </trkpt>
      <trkpt lat="49.59965" lon="3.48347">
        <ele>107.8</ele>
        <time>2023-08-06T19:05:52Z</time>
      </trkpt>
      <trkpt lat="49.59965" lon="3.4835">
        <ele>108.2</ele>
        <time>2023-08-06T19:05:53Z</time>
      </trkpt>
      <trkpt lat="49.59965" lon="3.48353">
        <ele>108.2</ele>
        <time>2023-08-06T19:05:54Z</time>
      </trkpt>
      <trkpt lat="49.59965" lon="3.48356">
        <ele>108.2</ele>
        <time>2023-08-06T19:05:55Z</time>
      </trkpt>
      <trkpt lat="49.59965" lon="3.48359">
        <ele>108.4</ele>
        <time>2023-08-06T19:05:56Z</time>
      </trkpt>
      <trkpt lat="49.59965" lon="3.48361">
        <ele>108.4</ele>
        <time>2023-08-06T19:05:57Z</time>
      </trkpt>
      <trkpt lat="49.59964" lon="3.48363">
        <ele>108.4</ele>
        <time>2023-08-06T19:05:58Z</time>
      </trkpt>
      <trkpt lat="49.59964" lon="3.48367">
        <ele>108.6</ele>
        <time>2023-08-06T19:05:59Z</time>
      </trkpt>
      <trkpt lat="49.59962" lon="3.48371">
        <ele>108.6</ele>
        <time>2023-08-06T19:06:00Z</time>
      </trkpt>
      <trkpt lat="49.59961" lon="3.48378">
        <ele>108.4</ele>
        <time>2023-08-06T19:06:02Z</time>
      </trkpt>
      <trkpt lat="49.59959" lon="3.48386">
        <ele>108.6</ele>
        <time>2023-08-06T19:06:04Z</time>
      </trkpt>
      <trkpt lat="49.59959" lon="3.48388">
        <ele>108.6</ele>
        <time>2023-08-06T19:06:05Z</time>
      </trkpt>
      <trkpt lat="49.59958" lon="3.48403">
        <ele>109</ele>
        <time>2023-08-06T19:06:09Z</time>
      </trkpt>
      <trkpt lat="49.59958" lon="3.48409">
        <ele>109</ele>
        <time>2023-08-06T19:06:10Z</time>
      </trkpt>
      <trkpt lat="49.59959" lon="3.4842">
        <ele>109</ele>
        <time>2023-08-06T19:06:12Z</time>
      </trkpt>
      <trkpt lat="49.59958" lon="3.48428">
        <ele>109</ele>
        <time>2023-08-06T19:06:14Z</time>
      </trkpt>
      <trkpt lat="49.59954" lon="3.48456">
        <ele>108.8</ele>
        <time>2023-08-06T19:06:21Z</time>
      </trkpt>
      <trkpt lat="49.59953" lon="3.48465">
        <ele>108.8</ele>
        <time>2023-08-06T19:06:24Z</time>
      </trkpt>
      <trkpt lat="49.59952" lon="3.48469">
        <ele>108.6</ele>
        <time>2023-08-06T19:06:25Z</time>
      </trkpt>
      <trkpt lat="49.59951" lon="3.48472">
        <ele>108.4</ele>
        <time>2023-08-06T19:06:26Z</time>
      </trkpt>
      <trkpt lat="49.59951" lon="3.48475">
        <ele>108.4</ele>
        <time>2023-08-06T19:06:27Z</time>
      </trkpt>
      <trkpt lat="49.59951" lon="3.48478">
        <ele>108.4</ele>
        <time>2023-08-06T19:06:28Z</time>
      </trkpt>
      <trkpt lat="49.59951" lon="3.48481">
        <ele>108.4</ele>
        <time>2023-08-06T19:06:29Z</time>
      </trkpt>
      <trkpt lat="49.59951" lon="3.48484">
        <ele>108.4</ele>
        <time>2023-08-06T19:06:30Z</time>
      </trkpt>
      <trkpt lat="49.59951" lon="3.48486">
        <ele>108.2</ele>
        <time>2023-08-06T19:06:31Z</time>
      </trkpt>
      <trkpt lat="49.59951" lon="3.4849">
        <ele>108.2</ele>
        <time>2023-08-06T19:06:32Z</time>
      </trkpt>
      <trkpt lat="49.59951" lon="3.48493">
        <ele>108.2</ele>
        <time>2023-08-06T19:06:33Z</time>
      </trkpt>
      <trkpt lat="49.59951" lon="3.48496">
        <ele>108</ele>
        <time>2023-08-06T19:06:34Z</time>
      </trkpt>
      <trkpt lat="49.59952" lon="3.48507">
        <ele>108.2</ele>
        <time>2023-08-06T19:06:37Z</time>
      </trkpt>
      <trkpt lat="49.59952" lon="3.48515">
        <ele>108</ele>
        <time>2023-08-06T19:06:39Z</time>
      </trkpt>
      <trkpt lat="49.59953" lon="3.48522">
        <ele>107.8</ele>
        <time>2023-08-06T19:06:41Z</time>
      </trkpt>
      <trkpt lat="49.59957" lon="3.48548">
        <ele>107.8</ele>
        <time>2023-08-06T19:06:46Z</time>
      </trkpt>
      <trkpt lat="49.59963" lon="3.48572">
        <ele>107.6</ele>
        <time>2023-08-06T19:06:50Z</time>
      </trkpt>
      <trkpt lat="49.59965" lon="3.48579">
        <ele>107.6</ele>
        <time>2023-08-06T19:06:51Z</time>
      </trkpt>
      <trkpt lat="49.59967" lon="3.48585">
        <ele>107.2</ele>
        <time>2023-08-06T19:06:52Z</time>
      </trkpt>
      <trkpt lat="49.5997" lon="3.48589">
        <ele>107</ele>
        <time>2023-08-06T19:06:53Z</time>
      </trkpt>
      <trkpt lat="49.59973" lon="3.48592">
        <ele>107</ele>
        <time>2023-08-06T19:06:54Z</time>
      </trkpt>
      <trkpt lat="49.59977" lon="3.48594">
        <ele>106.8</ele>
        <time>2023-08-06T19:06:55Z</time>
      </trkpt>
      <trkpt lat="49.59981" lon="3.48595">
        <ele>106.8</ele>
        <time>2023-08-06T19:06:56Z</time>
      </trkpt>
      <trkpt lat="49.59986" lon="3.48595">
        <ele>107</ele>
        <time>2023-08-06T19:06:57Z</time>
      </trkpt>
      <trkpt lat="49.59994" lon="3.48596">
        <ele>107</ele>
        <time>2023-08-06T19:06:59Z</time>
      </trkpt>
      <trkpt lat="49.60021" lon="3.48599">
        <ele>107</ele>
        <time>2023-08-06T19:07:05Z</time>
      </trkpt>
      <trkpt lat="49.60024" lon="3.48602">
        <ele>107</ele>
        <time>2023-08-06T19:07:06Z</time>
      </trkpt>
      <trkpt lat="49.60026" lon="3.48606">
        <ele>107</ele>
        <time>2023-08-06T19:07:07Z</time>
      </trkpt>
      <trkpt lat="49.60028" lon="3.48612">
        <ele>106.8</ele>
        <time>2023-08-06T19:07:08Z</time>
      </trkpt>
      <trkpt lat="49.60028" lon="3.48616">
        <ele>106.6</ele>
        <time>2023-08-06T19:07:09Z</time>
      </trkpt>
      <trkpt lat="49.60028" lon="3.48621">
        <ele>106.6</ele>
        <time>2023-08-06T19:07:10Z</time>
      </trkpt>
      <trkpt lat="49.60027" lon="3.48626">
        <ele>106.4</ele>
        <time>2023-08-06T19:07:11Z</time>
      </trkpt>
      <trkpt lat="49.60027" lon="3.4863">
        <ele>106.4</ele>
        <time>2023-08-06T19:07:12Z</time>
      </trkpt>
      <trkpt lat="49.60026" lon="3.48634">
        <ele>106.4</ele>
        <time>2023-08-06T19:07:13Z</time>
      </trkpt>
      <trkpt lat="49.60026" lon="3.48638">
        <ele>106.4</ele>
        <time>2023-08-06T19:07:14Z</time>
      </trkpt>
      <trkpt lat="49.60026" lon="3.48648">
        <ele>106.4</ele>
        <time>2023-08-06T19:07:16Z</time>
      </trkpt>
      <trkpt lat="49.60026" lon="3.48651">
        <ele>106.4</ele>
        <time>2023-08-06T19:07:17Z</time>
      </trkpt>
      <trkpt lat="49.60026" lon="3.48673">
        <ele>106.2</ele>
        <time>2023-08-06T19:07:22Z</time>
      </trkpt>
      <trkpt lat="49.60028" lon="3.4871">
        <ele>106</ele>
        <time>2023-08-06T19:07:30Z</time>
      </trkpt>
      <trkpt lat="49.60029" lon="3.48724">
        <ele>105.8</ele>
        <time>2023-08-06T19:07:33Z</time>
      </trkpt>
      <trkpt lat="49.60031" lon="3.48745">
        <ele>105.6</ele>
        <time>2023-08-06T19:07:38Z</time>
      </trkpt>
      <trkpt lat="49.60032" lon="3.48749">
        <ele>105.6</ele>
        <time>2023-08-06T19:07:39Z</time>
      </trkpt>
      <trkpt lat="49.60032" lon="3.48753">
        <ele>105.6</ele>
        <time>2023-08-06T19:07:40Z</time>
      </trkpt>
      <trkpt lat="49.60033" lon="3.48758">
        <ele>105.6</ele>
        <time>2023-08-06T19:07:41Z</time>
      </trkpt>
      <trkpt lat="49.60034" lon="3.48769">
        <ele>105.6</ele>
        <time>2023-08-06T19:07:44Z</time>
      </trkpt>
      <trkpt lat="49.60035" lon="3.48773">
        <ele>105.6</ele>
        <time>2023-08-06T19:07:45Z</time>
      </trkpt>
      <trkpt lat="49.60036" lon="3.48784">
        <ele>105.6</ele>
        <time>2023-08-06T19:07:48Z</time>
      </trkpt>
      <trkpt lat="49.60037" lon="3.48787">
        <ele>105.4</ele>
        <time>2023-08-06T19:07:49Z</time>
      </trkpt>
      <trkpt lat="49.60037" lon="3.4879">
        <ele>105.6</ele>
        <time>2023-08-06T19:07:50Z</time>
      </trkpt>
      <trkpt lat="49.60038" lon="3.48793">
        <ele>105.6</ele>
        <time>2023-08-06T19:07:51Z</time>
      </trkpt>
      <trkpt lat="49.60038" lon="3.48796">
        <ele>105.6</ele>
        <time>2023-08-06T19:07:52Z</time>
      </trkpt>
      <trkpt lat="49.60039" lon="3.48799">
        <ele>105.6</ele>
        <time>2023-08-06T19:07:53Z</time>
      </trkpt>
      <trkpt lat="49.60039" lon="3.48802">
        <ele>105.6</ele>
        <time>2023-08-06T19:07:54Z</time>
      </trkpt>
      <trkpt lat="49.6004" lon="3.48805">
        <ele>105.6</ele>
        <time>2023-08-06T19:07:55Z</time>
      </trkpt>
      <trkpt lat="49.6004" lon="3.48808">
        <ele>105.6</ele>
        <time>2023-08-06T19:07:56Z</time>
      </trkpt>
      <trkpt lat="49.60041" lon="3.48811">
        <ele>105.6</ele>
        <time>2023-08-06T19:07:57Z</time>
      </trkpt>
      <trkpt lat="49.60041" lon="3.48814">
        <ele>105.6</ele>
        <time>2023-08-06T19:07:58Z</time>
      </trkpt>
      <trkpt lat="49.60041" lon="3.48817">
        <ele>105.6</ele>
        <time>2023-08-06T19:07:59Z</time>
      </trkpt>
      <trkpt lat="49.60042" lon="3.48821">
        <ele>105.6</ele>
        <time>2023-08-06T19:08:00Z</time>
      </trkpt>
      <trkpt lat="49.60042" lon="3.48823">
        <ele>105.6</ele>
        <time>2023-08-06T19:08:01Z</time>
      </trkpt>
      <trkpt lat="49.60045" lon="3.48843">
        <ele>105.4</ele>
        <time>2023-08-06T19:08:07Z</time>
      </trkpt>
      <trkpt lat="49.60047" lon="3.48865">
        <ele>105.4</ele>
        <time>2023-08-06T19:08:14Z</time>
      </trkpt>
      <trkpt lat="49.60047" lon="3.48868">
        <ele>105.4</ele>
        <time>2023-08-06T19:08:15Z</time>
      </trkpt>
      <trkpt lat="49.60048" lon="3.48871">
        <ele>105.6</ele>
        <time>2023-08-06T19:08:16Z</time>
      </trkpt>
      <trkpt lat="49.6005" lon="3.48892">
        <ele>106.2</ele>
        <time>2023-08-06T19:08:23Z</time>
      </trkpt>
      <trkpt lat="49.60054" lon="3.48918">
        <ele>107.2</ele>
        <time>2023-08-06T19:08:31Z</time>
      </trkpt>
      <trkpt lat="49.60054" lon="3.48921">
        <ele>107.2</ele>
        <time>2023-08-06T19:08:32Z</time>
      </trkpt>
      <trkpt lat="49.60054" lon="3.48924">
        <ele>107.4</ele>
        <time>2023-08-06T19:08:33Z</time>
      </trkpt>
      <trkpt lat="49.60055" lon="3.48927">
        <ele>107.4</ele>
        <time>2023-08-06T19:08:34Z</time>
      </trkpt>
      <trkpt lat="49.60055" lon="3.4893">
        <ele>107.6</ele>
        <time>2023-08-06T19:08:35Z</time>
      </trkpt>
      <trkpt lat="49.60056" lon="3.48931">
        <ele>107.6</ele>
        <time>2023-08-06T19:08:36Z</time>
      </trkpt>
      <trkpt lat="49.60056" lon="3.48934">
        <ele>107.6</ele>
        <time>2023-08-06T19:08:37Z</time>
      </trkpt>
      <trkpt lat="49.60056" lon="3.48936">
        <ele>107.8</ele>
        <time>2023-08-06T19:08:38Z</time>
      </trkpt>
      <trkpt lat="49.60056" lon="3.48942">
        <ele>108.2</ele>
        <time>2023-08-06T19:08:40Z</time>
      </trkpt>
      <trkpt lat="49.60056" lon="3.48953">
        <ele>108.6</ele>
        <time>2023-08-06T19:08:44Z</time>
      </trkpt>
      <trkpt lat="49.60056" lon="3.48955">
        <ele>108.6</ele>
        <time>2023-08-06T19:08:45Z</time>
      </trkpt>
      <trkpt lat="49.60056" lon="3.48961">
        <ele>109</ele>
        <time>2023-08-06T19:08:47Z</time>
      </trkpt>
      <trkpt lat="49.60054" lon="3.48991">
        <ele>110</ele>
        <time>2023-08-06T19:08:57Z</time>
      </trkpt>
      <trkpt lat="49.60054" lon="3.48994">
        <ele>110.2</ele>
        <time>2023-08-06T19:08:58Z</time>
      </trkpt>
      <trkpt lat="49.6005" lon="3.49023">
        <ele>111.2</ele>
        <time>2023-08-06T19:09:08Z</time>
      </trkpt>
      <trkpt lat="49.60049" lon="3.49032">
        <ele>111.6</ele>
        <time>2023-08-06T19:09:11Z</time>
      </trkpt>
      <trkpt lat="49.60046" lon="3.49051">
        <ele>112.2</ele>
        <time>2023-08-06T19:09:17Z</time>
      </trkpt>
      <trkpt lat="49.60045" lon="3.49063">
        <ele>112.8</ele>
        <time>2023-08-06T19:09:21Z</time>
      </trkpt>
      <trkpt lat="49.60042" lon="3.49081">
        <ele>113.2</ele>
        <time>2023-08-06T19:09:27Z</time>
      </trkpt>
      <trkpt lat="49.60039" lon="3.49098">
        <ele>113.8</ele>
        <time>2023-08-06T19:09:33Z</time>
      </trkpt>
      <trkpt lat="49.60038" lon="3.49101">
        <ele>114</ele>
        <time>2023-08-06T19:09:34Z</time>
      </trkpt>
      <trkpt lat="49.60038" lon="3.49104">
        <ele>114</ele>
        <time>2023-08-06T19:09:35Z</time>
      </trkpt>
      <trkpt lat="49.60038" lon="3.49108">
        <ele>114</ele>
        <time>2023-08-06T19:09:36Z</time>
      </trkpt>
      <trkpt lat="49.60036" lon="3.49129">
        <ele>114.8</ele>
        <time>2023-08-06T19:09:43Z</time>
      </trkpt>
      <trkpt lat="49.60035" lon="3.49132">
        <ele>114.8</ele>
        <time>2023-08-06T19:09:44Z</time>
      </trkpt>
      <trkpt lat="49.60034" lon="3.49141">
        <ele>115</ele>
        <time>2023-08-06T19:09:47Z</time>
      </trkpt>
      <trkpt lat="49.60034" lon="3.49156">
        <ele>115.2</ele>
        <time>2023-08-06T19:09:52Z</time>
      </trkpt>
      <trkpt lat="49.60034" lon="3.49162">
        <ele>115.2</ele>
        <time>2023-08-06T19:09:54Z</time>
      </trkpt>
      <trkpt lat="49.60034" lon="3.49165">
        <ele>115.4</ele>
        <time>2023-08-06T19:09:55Z</time>
      </trkpt>
      <trkpt lat="49.60034" lon="3.49189">
        <ele>116.2</ele>
        <time>2023-08-06T19:10:02Z</time>
      </trkpt>
      <trkpt lat="49.60039" lon="3.49218">
        <ele>116.4</ele>
        <time>2023-08-06T19:10:09Z</time>
      </trkpt>
      <trkpt lat="49.60046" lon="3.49239">
        <ele>116.6</ele>
        <time>2023-08-06T19:10:13Z</time>
      </trkpt>
      <trkpt lat="49.60048" lon="3.49244">
        <ele>116.8</ele>
        <time>2023-08-06T19:10:14Z</time>
      </trkpt>
      <trkpt lat="49.60064" lon="3.49276">
        <ele>116.6</ele>
        <time>2023-08-06T19:10:19Z</time>
      </trkpt>
      <trkpt lat="49.60086" lon="3.49317">
        <ele>116</ele>
        <time>2023-08-06T19:10:25Z</time>
      </trkpt>
      <trkpt lat="49.6009" lon="3.49325">
        <ele>116</ele>
        <time>2023-08-06T19:10:26Z</time>
      </trkpt>
      <trkpt lat="49.60106" lon="3.49359">
        <ele>115.8</ele>
        <time>2023-08-06T19:10:30Z</time>
      </trkpt>
      <trkpt lat="49.60125" lon="3.49397">
        <ele>115.2</ele>
        <time>2023-08-06T19:10:34Z</time>
      </trkpt>
      <trkpt lat="49.6013" lon="3.49407">
        <ele>115.2</ele>
        <time>2023-08-06T19:10:35Z</time>
      </trkpt>
      <trkpt lat="49.60146" lon="3.49439">
        <ele>114.8</ele>
        <time>2023-08-06T19:10:38Z</time>
      </trkpt>
      <trkpt lat="49.60178" lon="3.4951">
        <ele>114.6</ele>
        <time>2023-08-06T19:10:45Z</time>
      </trkpt>
      <trkpt lat="49.60182" lon="3.49521">
        <ele>114.4</ele>
        <time>2023-08-06T19:10:46Z</time>
      </trkpt>
      <trkpt lat="49.60187" lon="3.49534">
        <ele>114.4</ele>
        <time>2023-08-06T19:10:47Z</time>
      </trkpt>
      <trkpt lat="49.60198" lon="3.49564">
        <ele>114.2</ele>
        <time>2023-08-06T19:10:50Z</time>
      </trkpt>
      <trkpt lat="49.60201" lon="3.49572">
        <ele>114.2</ele>
        <time>2023-08-06T19:10:51Z</time>
      </trkpt>
      <trkpt lat="49.60206" lon="3.49584">
        <ele>114</ele>
        <time>2023-08-06T19:10:52Z</time>
      </trkpt>
      <trkpt lat="49.6021" lon="3.49593">
        <ele>114</ele>
        <time>2023-08-06T19:10:53Z</time>
      </trkpt>
      <trkpt lat="49.60214" lon="3.49602">
        <ele>114</ele>
        <time>2023-08-06T19:10:54Z</time>
      </trkpt>
      <trkpt lat="49.60218" lon="3.49609">
        <ele>113.8</ele>
        <time>2023-08-06T19:10:55Z</time>
      </trkpt>
      <trkpt lat="49.60223" lon="3.4962">
        <ele>113.8</ele>
        <time>2023-08-06T19:10:56Z</time>
      </trkpt>
      <trkpt lat="49.60227" lon="3.49629">
        <ele>113.8</ele>
        <time>2023-08-06T19:10:57Z</time>
      </trkpt>
      <trkpt lat="49.60231" lon="3.49638">
        <ele>113.8</ele>
        <time>2023-08-06T19:10:58Z</time>
      </trkpt>
      <trkpt lat="49.60235" lon="3.49647">
        <ele>113.6</ele>
        <time>2023-08-06T19:10:59Z</time>
      </trkpt>
      <trkpt lat="49.60239" lon="3.49654">
        <ele>113.6</ele>
        <time>2023-08-06T19:11:00Z</time>
      </trkpt>
      <trkpt lat="49.60243" lon="3.49664">
        <ele>113.4</ele>
        <time>2023-08-06T19:11:01Z</time>
      </trkpt>
      <trkpt lat="49.60247" lon="3.49673">
        <ele>113.6</ele>
        <time>2023-08-06T19:11:02Z</time>
      </trkpt>
      <trkpt lat="49.60251" lon="3.49682">
        <ele>113.4</ele>
        <time>2023-08-06T19:11:03Z</time>
      </trkpt>
      <trkpt lat="49.60257" lon="3.49699">
        <ele>113.4</ele>
        <time>2023-08-06T19:11:05Z</time>
      </trkpt>
      <trkpt lat="49.6026" lon="3.49707">
        <ele>113.4</ele>
        <time>2023-08-06T19:11:06Z</time>
      </trkpt>
      <trkpt lat="49.60262" lon="3.49716">
        <ele>113.6</ele>
        <time>2023-08-06T19:11:07Z</time>
      </trkpt>
      <trkpt lat="49.60265" lon="3.49724">
        <ele>113.4</ele>
        <time>2023-08-06T19:11:08Z</time>
      </trkpt>
      <trkpt lat="49.60267" lon="3.49731">
        <ele>113.4</ele>
        <time>2023-08-06T19:11:09Z</time>
      </trkpt>
      <trkpt lat="49.60269" lon="3.49739">
        <ele>113.2</ele>
        <time>2023-08-06T19:11:10Z</time>
      </trkpt>
      <trkpt lat="49.60271" lon="3.49749">
        <ele>113.2</ele>
        <time>2023-08-06T19:11:11Z</time>
      </trkpt>
      <trkpt lat="49.60273" lon="3.49757">
        <ele>113.2</ele>
        <time>2023-08-06T19:11:12Z</time>
      </trkpt>
      <trkpt lat="49.60275" lon="3.49765">
        <ele>113.2</ele>
        <time>2023-08-06T19:11:13Z</time>
      </trkpt>
      <trkpt lat="49.60277" lon="3.49773">
        <ele>113.2</ele>
        <time>2023-08-06T19:11:14Z</time>
      </trkpt>
      <trkpt lat="49.60278" lon="3.49781">
        <ele>113</ele>
        <time>2023-08-06T19:11:15Z</time>
      </trkpt>
      <trkpt lat="49.6028" lon="3.49789">
        <ele>113.2</ele>
        <time>2023-08-06T19:11:16Z</time>
      </trkpt>
      <trkpt lat="49.60285" lon="3.49813">
        <ele>113</ele>
        <time>2023-08-06T19:11:19Z</time>
      </trkpt>
      <trkpt lat="49.60291" lon="3.49843">
        <ele>112.8</ele>
        <time>2023-08-06T19:11:22Z</time>
      </trkpt>
      <trkpt lat="49.60301" lon="3.49898">
        <ele>112.6</ele>
        <time>2023-08-06T19:11:27Z</time>
      </trkpt>
      <trkpt lat="49.60307" lon="3.4997">
        <ele>112.4</ele>
        <time>2023-08-06T19:11:33Z</time>
      </trkpt>
      <trkpt lat="49.60308" lon="3.49986">
        <ele>112.4</ele>
        <time>2023-08-06T19:11:34Z</time>
      </trkpt>
      <trkpt lat="49.60319" lon="3.50077">
        <ele>112</ele>
        <time>2023-08-06T19:11:41Z</time>
      </trkpt>
      <trkpt lat="49.60321" lon="3.5009">
        <ele>112</ele>
        <time>2023-08-06T19:11:42Z</time>
      </trkpt>
      <trkpt lat="49.60329" lon="3.50128">
        <ele>111.8</ele>
        <time>2023-08-06T19:11:45Z</time>
      </trkpt>
      <trkpt lat="49.60346" lon="3.50213">
        <ele>111.4</ele>
        <time>2023-08-06T19:11:52Z</time>
      </trkpt>
      <trkpt lat="49.60351" lon="3.50239">
        <ele>111.2</ele>
        <time>2023-08-06T19:11:54Z</time>
      </trkpt>
      <trkpt lat="49.60353" lon="3.50252">
        <ele>111.2</ele>
        <time>2023-08-06T19:11:55Z</time>
      </trkpt>
      <trkpt lat="49.60356" lon="3.50264">
        <ele>111.2</ele>
        <time>2023-08-06T19:11:56Z</time>
      </trkpt>
      <trkpt lat="49.60364" lon="3.50298">
        <ele>111</ele>
        <time>2023-08-06T19:11:59Z</time>
      </trkpt>
      <trkpt lat="49.6037" lon="3.50321">
        <ele>111</ele>
        <time>2023-08-06T19:12:01Z</time>
      </trkpt>
      <trkpt lat="49.60375" lon="3.50343">
        <ele>111</ele>
        <time>2023-08-06T19:12:03Z</time>
      </trkpt>
      <trkpt lat="49.60378" lon="3.50354">
        <ele>111</ele>
        <time>2023-08-06T19:12:04Z</time>
      </trkpt>
      <trkpt lat="49.60381" lon="3.50365">
        <ele>111</ele>
        <time>2023-08-06T19:12:05Z</time>
      </trkpt>
      <trkpt lat="49.60383" lon="3.50374">
        <ele>110.8</ele>
        <time>2023-08-06T19:12:06Z</time>
      </trkpt>
      <trkpt lat="49.60387" lon="3.50386">
        <ele>111</ele>
        <time>2023-08-06T19:12:07Z</time>
      </trkpt>
      <trkpt lat="49.6039" lon="3.50396">
        <ele>110.8</ele>
        <time>2023-08-06T19:12:08Z</time>
      </trkpt>
      <trkpt lat="49.60393" lon="3.50406">
        <ele>110.8</ele>
        <time>2023-08-06T19:12:09Z</time>
      </trkpt>
      <trkpt lat="49.60396" lon="3.50416">
        <ele>110.8</ele>
        <time>2023-08-06T19:12:10Z</time>
      </trkpt>
      <trkpt lat="49.604" lon="3.50426">
        <ele>110.8</ele>
        <time>2023-08-06T19:12:11Z</time>
      </trkpt>
      <trkpt lat="49.60403" lon="3.50436">
        <ele>110.6</ele>
        <time>2023-08-06T19:12:12Z</time>
      </trkpt>
      <trkpt lat="49.60412" lon="3.50466">
        <ele>110.6</ele>
        <time>2023-08-06T19:12:15Z</time>
      </trkpt>
      <trkpt lat="49.60414" lon="3.50474">
        <ele>110.4</ele>
        <time>2023-08-06T19:12:16Z</time>
      </trkpt>
      <trkpt lat="49.60417" lon="3.50486">
        <ele>110.4</ele>
        <time>2023-08-06T19:12:17Z</time>
      </trkpt>
      <trkpt lat="49.60426" lon="3.50516">
        <ele>110.2</ele>
        <time>2023-08-06T19:12:20Z</time>
      </trkpt>
      <trkpt lat="49.60429" lon="3.50526">
        <ele>110.2</ele>
        <time>2023-08-06T19:12:21Z</time>
      </trkpt>
      <trkpt lat="49.60449" lon="3.50583">
        <ele>109.8</ele>
        <time>2023-08-06T19:12:27Z</time>
      </trkpt>
      <trkpt lat="49.60456" lon="3.50602">
        <ele>109.8</ele>
        <time>2023-08-06T19:12:29Z</time>
      </trkpt>
      <trkpt lat="49.60459" lon="3.50611">
        <ele>109.6</ele>
        <time>2023-08-06T19:12:30Z</time>
      </trkpt>
      <trkpt lat="49.60463" lon="3.5062">
        <ele>109.6</ele>
        <time>2023-08-06T19:12:31Z</time>
      </trkpt>
      <trkpt lat="49.60466" lon="3.50629">
        <ele>109.4</ele>
        <time>2023-08-06T19:12:32Z</time>
      </trkpt>
      <trkpt lat="49.6048" lon="3.50666">
        <ele>109.2</ele>
        <time>2023-08-06T19:12:36Z</time>
      </trkpt>
      <trkpt lat="49.60493" lon="3.50713">
        <ele>109</ele>
        <time>2023-08-06T19:12:41Z</time>
      </trkpt>
      <trkpt lat="49.60494" lon="3.50721">
        <ele>109.2</ele>
        <time>2023-08-06T19:12:42Z</time>
      </trkpt>
      <trkpt lat="49.60496" lon="3.50729">
        <ele>109</ele>
        <time>2023-08-06T19:12:43Z</time>
      </trkpt>
      <trkpt lat="49.60497" lon="3.50735">
        <ele>109</ele>
        <time>2023-08-06T19:12:44Z</time>
      </trkpt>
      <trkpt lat="49.60498" lon="3.50742">
        <ele>109</ele>
        <time>2023-08-06T19:12:45Z</time>
      </trkpt>
      <trkpt lat="49.60499" lon="3.50748">
        <ele>109.2</ele>
        <time>2023-08-06T19:12:46Z</time>
      </trkpt>
      <trkpt lat="49.605" lon="3.50755">
        <ele>109</ele>
        <time>2023-08-06T19:12:47Z</time>
      </trkpt>
      <trkpt lat="49.60501" lon="3.50761">
        <ele>109</ele>
        <time>2023-08-06T19:12:48Z</time>
      </trkpt>
      <trkpt lat="49.60509" lon="3.50819">
        <ele>109</ele>
        <time>2023-08-06T19:12:56Z</time>
      </trkpt>
      <trkpt lat="49.60515" lon="3.50887">
        <ele>109.6</ele>
        <time>2023-08-06T19:13:04Z</time>
      </trkpt>
      <trkpt lat="49.60522" lon="3.50941">
        <ele>109.4</ele>
        <time>2023-08-06T19:13:10Z</time>
      </trkpt>
      <trkpt lat="49.6053" lon="3.51005">
        <ele>109.2</ele>
        <time>2023-08-06T19:13:17Z</time>
      </trkpt>
      <trkpt lat="49.60532" lon="3.51013">
        <ele>109</ele>
        <time>2023-08-06T19:13:18Z</time>
      </trkpt>
      <trkpt lat="49.60536" lon="3.51037">
        <ele>108.8</ele>
        <time>2023-08-06T19:13:21Z</time>
      </trkpt>
      <trkpt lat="49.60537" lon="3.51046">
        <ele>108.8</ele>
        <time>2023-08-06T19:13:22Z</time>
      </trkpt>
      <trkpt lat="49.60538" lon="3.51053">
        <ele>108.8</ele>
        <time>2023-08-06T19:13:23Z</time>
      </trkpt>
      <trkpt lat="49.60539" lon="3.51061">
        <ele>108.6</ele>
        <time>2023-08-06T19:13:24Z</time>
      </trkpt>
      <trkpt lat="49.60539" lon="3.51069">
        <ele>108.6</ele>
        <time>2023-08-06T19:13:25Z</time>
      </trkpt>
      <trkpt lat="49.6054" lon="3.51076">
        <ele>108.4</ele>
        <time>2023-08-06T19:13:26Z</time>
      </trkpt>
      <trkpt lat="49.60541" lon="3.51086">
        <ele>108.4</ele>
        <time>2023-08-06T19:13:27Z</time>
      </trkpt>
      <trkpt lat="49.60543" lon="3.51093">
        <ele>108.4</ele>
        <time>2023-08-06T19:13:28Z</time>
      </trkpt>
      <trkpt lat="49.60544" lon="3.51101">
        <ele>108.4</ele>
        <time>2023-08-06T19:13:29Z</time>
      </trkpt>
      <trkpt lat="49.60545" lon="3.51107">
        <ele>108.2</ele>
        <time>2023-08-06T19:13:30Z</time>
      </trkpt>
      <trkpt lat="49.60546" lon="3.51115">
        <ele>108.2</ele>
        <time>2023-08-06T19:13:31Z</time>
      </trkpt>
      <trkpt lat="49.60549" lon="3.51131">
        <ele>108</ele>
        <time>2023-08-06T19:13:33Z</time>
      </trkpt>
      <trkpt lat="49.60553" lon="3.51143">
        <ele>107.8</ele>
        <time>2023-08-06T19:13:35Z</time>
      </trkpt>
      <trkpt lat="49.60555" lon="3.51149">
        <ele>107.8</ele>
        <time>2023-08-06T19:13:36Z</time>
      </trkpt>
      <trkpt lat="49.60558" lon="3.51156">
        <ele>107.8</ele>
        <time>2023-08-06T19:13:37Z</time>
      </trkpt>
      <trkpt lat="49.60561" lon="3.51162">
        <ele>107.4</ele>
        <time>2023-08-06T19:13:38Z</time>
      </trkpt>
      <trkpt lat="49.60564" lon="3.51167">
        <ele>107.4</ele>
        <time>2023-08-06T19:13:39Z</time>
      </trkpt>
      <trkpt lat="49.60566" lon="3.51172">
        <ele>107.2</ele>
        <time>2023-08-06T19:13:40Z</time>
      </trkpt>
      <trkpt lat="49.60569" lon="3.51177">
        <ele>107</ele>
        <time>2023-08-06T19:13:41Z</time>
      </trkpt>
      <trkpt lat="49.60573" lon="3.51183">
        <ele>107.2</ele>
        <time>2023-08-06T19:13:42Z</time>
      </trkpt>
      <trkpt lat="49.60576" lon="3.51188">
        <ele>107</ele>
        <time>2023-08-06T19:13:43Z</time>
      </trkpt>
      <trkpt lat="49.60579" lon="3.51192">
        <ele>107</ele>
        <time>2023-08-06T19:13:44Z</time>
      </trkpt>
      <trkpt lat="49.60581" lon="3.51196">
        <ele>107</ele>
        <time>2023-08-06T19:13:45Z</time>
      </trkpt>
      <trkpt lat="49.60592" lon="3.51217">
        <ele>106.8</ele>
        <time>2023-08-06T19:13:49Z</time>
      </trkpt>
      <trkpt lat="49.60595" lon="3.51222">
        <ele>106.8</ele>
        <time>2023-08-06T19:13:50Z</time>
      </trkpt>
      <trkpt lat="49.60596" lon="3.51227">
        <ele>106.8</ele>
        <time>2023-08-06T19:13:51Z</time>
      </trkpt>
      <trkpt lat="49.60597" lon="3.51234">
        <ele>106.6</ele>
        <time>2023-08-06T19:13:52Z</time>
      </trkpt>
      <trkpt lat="49.60597" lon="3.51239">
        <ele>106.6</ele>
        <time>2023-08-06T19:13:53Z</time>
      </trkpt>
      <trkpt lat="49.60596" lon="3.51245">
        <ele>106.8</ele>
        <time>2023-08-06T19:13:54Z</time>
      </trkpt>
      <trkpt lat="49.60596" lon="3.51251">
        <ele>106.4</ele>
        <time>2023-08-06T19:13:55Z</time>
      </trkpt>
      <trkpt lat="49.60594" lon="3.51257">
        <ele>106.4</ele>
        <time>2023-08-06T19:13:56Z</time>
      </trkpt>
      <trkpt lat="49.60591" lon="3.51264">
        <ele>106.2</ele>
        <time>2023-08-06T19:13:57Z</time>
      </trkpt>
      <trkpt lat="49.60588" lon="3.51268">
        <ele>106</ele>
        <time>2023-08-06T19:13:58Z</time>
      </trkpt>
      <trkpt lat="49.60585" lon="3.51272">
        <ele>106</ele>
        <time>2023-08-06T19:13:59Z</time>
      </trkpt>
      <trkpt lat="49.60582" lon="3.51276">
        <ele>106</ele>
        <time>2023-08-06T19:14:00Z</time>
      </trkpt>
      <trkpt lat="49.60546" lon="3.51314">
        <ele>105.4</ele>
        <time>2023-08-06T19:14:09Z</time>
      </trkpt>
      <trkpt lat="49.60534" lon="3.51328">
        <ele>105.4</ele>
        <time>2023-08-06T19:14:12Z</time>
      </trkpt>
      <trkpt lat="49.60516" lon="3.51353">
        <ele>105.4</ele>
        <time>2023-08-06T19:14:17Z</time>
      </trkpt>
      <trkpt lat="49.60479" lon="3.514">
        <ele>104.8</ele>
        <time>2023-08-06T19:14:26Z</time>
      </trkpt>
      <trkpt lat="49.60471" lon="3.51408">
        <ele>104.6</ele>
        <time>2023-08-06T19:14:28Z</time>
      </trkpt>
      <trkpt lat="49.60434" lon="3.51444">
        <ele>104.4</ele>
        <time>2023-08-06T19:14:36Z</time>
      </trkpt>
      <trkpt lat="49.60415" lon="3.51457">
        <ele>104.4</ele>
        <time>2023-08-06T19:14:40Z</time>
      </trkpt>
      <trkpt lat="49.6041" lon="3.5146">
        <ele>104.4</ele>
        <time>2023-08-06T19:14:41Z</time>
      </trkpt>
      <trkpt lat="49.60405" lon="3.51462">
        <ele>104.4</ele>
        <time>2023-08-06T19:14:42Z</time>
      </trkpt>
      <trkpt lat="49.60402" lon="3.51465">
        <ele>104.4</ele>
        <time>2023-08-06T19:14:43Z</time>
      </trkpt>
      <trkpt lat="49.60397" lon="3.51468">
        <ele>104.4</ele>
        <time>2023-08-06T19:14:44Z</time>
      </trkpt>
      <trkpt lat="49.60392" lon="3.51471">
        <ele>104.4</ele>
        <time>2023-08-06T19:14:45Z</time>
      </trkpt>
      <trkpt lat="49.60388" lon="3.51473">
        <ele>104.4</ele>
        <time>2023-08-06T19:14:46Z</time>
      </trkpt>
      <trkpt lat="49.60384" lon="3.51475">
        <ele>104.2</ele>
        <time>2023-08-06T19:14:47Z</time>
      </trkpt>
      <trkpt lat="49.6038" lon="3.51478">
        <ele>104.2</ele>
        <time>2023-08-06T19:14:48Z</time>
      </trkpt>
      <trkpt lat="49.60374" lon="3.51481">
        <ele>104</ele>
        <time>2023-08-06T19:14:49Z</time>
      </trkpt>
      <trkpt lat="49.6037" lon="3.51484">
        <ele>104.2</ele>
        <time>2023-08-06T19:14:50Z</time>
      </trkpt>
      <trkpt lat="49.60366" lon="3.51486">
        <ele>104.2</ele>
        <time>2023-08-06T19:14:51Z</time>
      </trkpt>
      <trkpt lat="49.60363" lon="3.51488">
        <ele>104</ele>
        <time>2023-08-06T19:14:52Z</time>
      </trkpt>
      <trkpt lat="49.60359" lon="3.5149">
        <ele>104</ele>
        <time>2023-08-06T19:14:53Z</time>
      </trkpt>
      <trkpt lat="49.60354" lon="3.51493">
        <ele>104</ele>
        <time>2023-08-06T19:14:54Z</time>
      </trkpt>
      <trkpt lat="49.60349" lon="3.51496">
        <ele>104</ele>
        <time>2023-08-06T19:14:55Z</time>
      </trkpt>
      <trkpt lat="49.60331" lon="3.51507">
        <ele>104</ele>
        <time>2023-08-06T19:14:59Z</time>
      </trkpt>
      <trkpt lat="49.60294" lon="3.51526">
        <ele>104</ele>
        <time>2023-08-06T19:15:06Z</time>
      </trkpt>
      <trkpt lat="49.60255" lon="3.51541">
        <ele>104.4</ele>
        <time>2023-08-06T19:15:13Z</time>
      </trkpt>
      <trkpt lat="49.60231" lon="3.51543">
        <ele>104</ele>
        <time>2023-08-06T19:15:17Z</time>
      </trkpt>
      <trkpt lat="49.60214" lon="3.51543">
        <ele>103.8</ele>
        <time>2023-08-06T19:15:20Z</time>
      </trkpt>
      <trkpt lat="49.60204" lon="3.51543">
        <ele>103.8</ele>
        <time>2023-08-06T19:15:22Z</time>
      </trkpt>
      <trkpt lat="49.60198" lon="3.51543">
        <ele>103.8</ele>
        <time>2023-08-06T19:15:23Z</time>
      </trkpt>
      <trkpt lat="49.60192" lon="3.51542">
        <ele>103.6</ele>
        <time>2023-08-06T19:15:24Z</time>
      </trkpt>
      <trkpt lat="49.60187" lon="3.51543">
        <ele>103.6</ele>
        <time>2023-08-06T19:15:25Z</time>
      </trkpt>
      <trkpt lat="49.60183" lon="3.51544">
        <ele>103.4</ele>
        <time>2023-08-06T19:15:26Z</time>
      </trkpt>
      <trkpt lat="49.60178" lon="3.51547">
        <ele>103.4</ele>
        <time>2023-08-06T19:15:27Z</time>
      </trkpt>
      <trkpt lat="49.60173" lon="3.51549">
        <ele>103.2</ele>
        <time>2023-08-06T19:15:28Z</time>
      </trkpt>
      <trkpt lat="49.60168" lon="3.51552">
        <ele>103.2</ele>
        <time>2023-08-06T19:15:29Z</time>
      </trkpt>
      <trkpt lat="49.60163" lon="3.51554">
        <ele>103.4</ele>
        <time>2023-08-06T19:15:30Z</time>
      </trkpt>
      <trkpt lat="49.60158" lon="3.51556">
        <ele>103.2</ele>
        <time>2023-08-06T19:15:31Z</time>
      </trkpt>
      <trkpt lat="49.60148" lon="3.51561">
        <ele>103.2</ele>
        <time>2023-08-06T19:15:33Z</time>
      </trkpt>
      <trkpt lat="49.60124" lon="3.51572">
        <ele>103</ele>
        <time>2023-08-06T19:15:38Z</time>
      </trkpt>
      <trkpt lat="49.6012" lon="3.51574">
        <ele>103</ele>
        <time>2023-08-06T19:15:39Z</time>
      </trkpt>
      <trkpt lat="49.60106" lon="3.51581">
        <ele>102.8</ele>
        <time>2023-08-06T19:15:42Z</time>
      </trkpt>
      <trkpt lat="49.60102" lon="3.51583">
        <ele>102.6</ele>
        <time>2023-08-06T19:15:43Z</time>
      </trkpt>
      <trkpt lat="49.60098" lon="3.51585">
        <ele>102.8</ele>
        <time>2023-08-06T19:15:44Z</time>
      </trkpt>
      <trkpt lat="49.60093" lon="3.51589">
        <ele>102.6</ele>
        <time>2023-08-06T19:15:45Z</time>
      </trkpt>
      <trkpt lat="49.60089" lon="3.51593">
        <ele>102.6</ele>
        <time>2023-08-06T19:15:46Z</time>
      </trkpt>
      <trkpt lat="49.60086" lon="3.51598">
        <ele>102.4</ele>
        <time>2023-08-06T19:15:47Z</time>
      </trkpt>
      <trkpt lat="49.60083" lon="3.51603">
        <ele>102.6</ele>
        <time>2023-08-06T19:15:48Z</time>
      </trkpt>
      <trkpt lat="49.60081" lon="3.51608">
        <ele>102.6</ele>
        <time>2023-08-06T19:15:49Z</time>
      </trkpt>
      <trkpt lat="49.6008" lon="3.51615">
        <ele>102.6</ele>
        <time>2023-08-06T19:15:50Z</time>
      </trkpt>
      <trkpt lat="49.6008" lon="3.51622">
        <ele>102.4</ele>
        <time>2023-08-06T19:15:51Z</time>
      </trkpt>
      <trkpt lat="49.6008" lon="3.51629">
        <ele>102.2</ele>
        <time>2023-08-06T19:15:52Z</time>
      </trkpt>
      <trkpt lat="49.60082" lon="3.51635">
        <ele>102.2</ele>
        <time>2023-08-06T19:15:53Z</time>
      </trkpt>
      <trkpt lat="49.60082" lon="3.51641">
        <ele>102.2</ele>
        <time>2023-08-06T19:15:54Z</time>
      </trkpt>
      <trkpt lat="49.60083" lon="3.51647">
        <ele>102.2</ele>
        <time>2023-08-06T19:15:55Z</time>
      </trkpt>
      <trkpt lat="49.60082" lon="3.51651">
        <ele>102</ele>
        <time>2023-08-06T19:15:56Z</time>
      </trkpt>
      <trkpt lat="49.60081" lon="3.51655">
        <ele>102</ele>
        <time>2023-08-06T19:15:57Z</time>
      </trkpt>
      <trkpt lat="49.6008" lon="3.51659">
        <ele>101.8</ele>
        <time>2023-08-06T19:15:58Z</time>
      </trkpt>
      <trkpt lat="49.60079" lon="3.51663">
        <ele>101.8</ele>
        <time>2023-08-06T19:15:59Z</time>
      </trkpt>
      <trkpt lat="49.60077" lon="3.51687">
        <ele>101.6</ele>
        <time>2023-08-06T19:16:04Z</time>
      </trkpt>
      <trkpt lat="49.60079" lon="3.51729">
        <ele>101.4</ele>
        <time>2023-08-06T19:16:10Z</time>
      </trkpt>
      <trkpt lat="49.60082" lon="3.5178">
        <ele>101.2</ele>
        <time>2023-08-06T19:16:16Z</time>
      </trkpt>
      <trkpt lat="49.60085" lon="3.51816">
        <ele>101</ele>
        <time>2023-08-06T19:16:20Z</time>
      </trkpt>
      <trkpt lat="49.60085" lon="3.51842">
        <ele>100.8</ele>
        <time>2023-08-06T19:16:23Z</time>
      </trkpt>
      <trkpt lat="49.6008" lon="3.51878">
        <ele>100.8</ele>
        <time>2023-08-06T19:16:27Z</time>
      </trkpt>
      <trkpt lat="49.60077" lon="3.51896">
        <ele>100.6</ele>
        <time>2023-08-06T19:16:29Z</time>
      </trkpt>
      <trkpt lat="49.6006" lon="3.51964">
        <ele>100.2</ele>
        <time>2023-08-06T19:16:37Z</time>
      </trkpt>
      <trkpt lat="49.60039" lon="3.52034">
        <ele>100</ele>
        <time>2023-08-06T19:16:45Z</time>
      </trkpt>
      <trkpt lat="49.60034" lon="3.52051">
        <ele>100</ele>
        <time>2023-08-06T19:16:47Z</time>
      </trkpt>
      <trkpt lat="49.60026" lon="3.52074">
        <ele>99.8</ele>
        <time>2023-08-06T19:16:50Z</time>
      </trkpt>
      <trkpt lat="49.60024" lon="3.52081">
        <ele>100</ele>
        <time>2023-08-06T19:16:51Z</time>
      </trkpt>
      <trkpt lat="49.60021" lon="3.52088">
        <ele>99.8</ele>
        <time>2023-08-06T19:16:52Z</time>
      </trkpt>
      <trkpt lat="49.6002" lon="3.52094">
        <ele>99.8</ele>
        <time>2023-08-06T19:16:53Z</time>
      </trkpt>
      <trkpt lat="49.60018" lon="3.521">
        <ele>99.8</ele>
        <time>2023-08-06T19:16:54Z</time>
      </trkpt>
      <trkpt lat="49.60016" lon="3.52106">
        <ele>99.8</ele>
        <time>2023-08-06T19:16:55Z</time>
      </trkpt>
      <trkpt lat="49.60014" lon="3.52113">
        <ele>99.6</ele>
        <time>2023-08-06T19:16:56Z</time>
      </trkpt>
      <trkpt lat="49.60013" lon="3.52119">
        <ele>99.6</ele>
        <time>2023-08-06T19:16:57Z</time>
      </trkpt>
      <trkpt lat="49.60009" lon="3.52132">
        <ele>99.8</ele>
        <time>2023-08-06T19:16:59Z</time>
      </trkpt>
      <trkpt lat="49.60008" lon="3.52139">
        <ele>99.8</ele>
        <time>2023-08-06T19:17:00Z</time>
      </trkpt>
      <trkpt lat="49.60008" lon="3.52152">
        <ele>99.8</ele>
        <time>2023-08-06T19:17:02Z</time>
      </trkpt>
      <trkpt lat="49.60009" lon="3.52159">
        <ele>99.6</ele>
        <time>2023-08-06T19:17:03Z</time>
      </trkpt>
      <trkpt lat="49.6001" lon="3.52165">
        <ele>99.6</ele>
        <time>2023-08-06T19:17:04Z</time>
      </trkpt>
      <trkpt lat="49.60011" lon="3.52172">
        <ele>99.8</ele>
        <time>2023-08-06T19:17:05Z</time>
      </trkpt>
      <trkpt lat="49.60013" lon="3.52178">
        <ele>99.8</ele>
        <time>2023-08-06T19:17:06Z</time>
      </trkpt>
      <trkpt lat="49.60017" lon="3.52191">
        <ele>99.6</ele>
        <time>2023-08-06T19:17:08Z</time>
      </trkpt>
      <trkpt lat="49.60019" lon="3.52197">
        <ele>99.6</ele>
        <time>2023-08-06T19:17:09Z</time>
      </trkpt>
      <trkpt lat="49.6002" lon="3.52203">
        <ele>99.6</ele>
        <time>2023-08-06T19:17:10Z</time>
      </trkpt>
      <trkpt lat="49.60024" lon="3.52221">
        <ele>99.6</ele>
        <time>2023-08-06T19:17:13Z</time>
      </trkpt>
      <trkpt lat="49.60029" lon="3.52239">
        <ele>99.8</ele>
        <time>2023-08-06T19:17:16Z</time>
      </trkpt>
      <trkpt lat="49.60032" lon="3.52251">
        <ele>100</ele>
        <time>2023-08-06T19:17:18Z</time>
      </trkpt>
      <trkpt lat="49.60035" lon="3.52264">
        <ele>100.2</ele>
        <time>2023-08-06T19:17:20Z</time>
      </trkpt>
      <trkpt lat="49.60041" lon="3.52293">
        <ele>100.8</ele>
        <time>2023-08-06T19:17:24Z</time>
      </trkpt>
      <trkpt lat="49.60043" lon="3.52315">
        <ele>101.2</ele>
        <time>2023-08-06T19:17:27Z</time>
      </trkpt>
      <trkpt lat="49.60044" lon="3.52345">
        <ele>101.8</ele>
        <time>2023-08-06T19:17:31Z</time>
      </trkpt>
      <trkpt lat="49.60043" lon="3.52358">
        <ele>101.8</ele>
        <time>2023-08-06T19:17:33Z</time>
      </trkpt>
      <trkpt lat="49.60043" lon="3.52365">
        <ele>101.8</ele>
        <time>2023-08-06T19:17:34Z</time>
      </trkpt>
      <trkpt lat="49.60043" lon="3.52372">
        <ele>101.8</ele>
        <time>2023-08-06T19:17:35Z</time>
      </trkpt>
      <trkpt lat="49.60043" lon="3.52378">
        <ele>101.8</ele>
        <time>2023-08-06T19:17:36Z</time>
      </trkpt>
      <trkpt lat="49.60043" lon="3.52384">
        <ele>101.8</ele>
        <time>2023-08-06T19:17:37Z</time>
      </trkpt>
      <trkpt lat="49.60043" lon="3.52391">
        <ele>101.8</ele>
        <time>2023-08-06T19:17:38Z</time>
      </trkpt>
      <trkpt lat="49.60043" lon="3.52398">
        <ele>101.8</ele>
        <time>2023-08-06T19:17:39Z</time>
      </trkpt>
      <trkpt lat="49.60046" lon="3.52411">
        <ele>102</ele>
        <time>2023-08-06T19:17:41Z</time>
      </trkpt>
      <trkpt lat="49.60048" lon="3.52418">
        <ele>102</ele>
        <time>2023-08-06T19:17:42Z</time>
      </trkpt>
      <trkpt lat="49.6005" lon="3.52424">
        <ele>102</ele>
        <time>2023-08-06T19:17:43Z</time>
      </trkpt>
      <trkpt lat="49.60054" lon="3.52429">
        <ele>102</ele>
        <time>2023-08-06T19:17:44Z</time>
      </trkpt>
      <trkpt lat="49.60072" lon="3.52458">
        <ele>101.6</ele>
        <time>2023-08-06T19:17:49Z</time>
      </trkpt>
      <trkpt lat="49.60075" lon="3.52463">
        <ele>101.6</ele>
        <time>2023-08-06T19:17:50Z</time>
      </trkpt>
      <trkpt lat="49.60087" lon="3.52481">
        <ele>101.2</ele>
        <time>2023-08-06T19:17:53Z</time>
      </trkpt>
      <trkpt lat="49.60096" lon="3.52491">
        <ele>101.2</ele>
        <time>2023-08-06T19:17:55Z</time>
      </trkpt>
      <trkpt lat="49.60136" lon="3.52531">
        <ele>101.4</ele>
        <time>2023-08-06T19:18:04Z</time>
      </trkpt>
      <trkpt lat="49.6014" lon="3.52537">
        <ele>101.2</ele>
        <time>2023-08-06T19:18:05Z</time>
      </trkpt>
      <trkpt lat="49.60143" lon="3.5254">
        <ele>101.2</ele>
        <time>2023-08-06T19:18:06Z</time>
      </trkpt>
      <trkpt lat="49.60147" lon="3.52545">
        <ele>101.2</ele>
        <time>2023-08-06T19:18:07Z</time>
      </trkpt>
      <trkpt lat="49.6015" lon="3.52548">
        <ele>101.2</ele>
        <time>2023-08-06T19:18:08Z</time>
      </trkpt>
      <trkpt lat="49.60154" lon="3.52552">
        <ele>101.2</ele>
        <time>2023-08-06T19:18:09Z</time>
      </trkpt>
      <trkpt lat="49.60158" lon="3.52555">
        <ele>101.2</ele>
        <time>2023-08-06T19:18:10Z</time>
      </trkpt>
      <trkpt lat="49.60161" lon="3.52559">
        <ele>101.2</ele>
        <time>2023-08-06T19:18:11Z</time>
      </trkpt>
      <trkpt lat="49.60164" lon="3.52564">
        <ele>101.2</ele>
        <time>2023-08-06T19:18:12Z</time>
      </trkpt>
      <trkpt lat="49.60165" lon="3.52568">
        <ele>101.4</ele>
        <time>2023-08-06T19:18:13Z</time>
      </trkpt>
      <trkpt lat="49.60168" lon="3.52572">
        <ele>101.4</ele>
        <time>2023-08-06T19:18:14Z</time>
      </trkpt>
      <trkpt lat="49.60182" lon="3.52597">
        <ele>101</ele>
        <time>2023-08-06T19:18:19Z</time>
      </trkpt>
      <trkpt lat="49.60184" lon="3.52602">
        <ele>101.2</ele>
        <time>2023-08-06T19:18:20Z</time>
      </trkpt>
      <trkpt lat="49.60187" lon="3.52608">
        <ele>101.2</ele>
        <time>2023-08-06T19:18:21Z</time>
      </trkpt>
      <trkpt lat="49.60208" lon="3.52649">
        <ele>101</ele>
        <time>2023-08-06T19:18:28Z</time>
      </trkpt>
      <trkpt lat="49.60226" lon="3.52688">
        <ele>101</ele>
        <time>2023-08-06T19:18:34Z</time>
      </trkpt>
      <trkpt lat="49.60229" lon="3.52694">
        <ele>101</ele>
        <time>2023-08-06T19:18:35Z</time>
      </trkpt>
      <trkpt lat="49.60232" lon="3.52701">
        <ele>101</ele>
        <time>2023-08-06T19:18:36Z</time>
      </trkpt>
      <trkpt lat="49.60241" lon="3.5272">
        <ele>101.4</ele>
        <time>2023-08-06T19:18:39Z</time>
      </trkpt>
      <trkpt lat="49.60243" lon="3.52726">
        <ele>101.2</ele>
        <time>2023-08-06T19:18:40Z</time>
      </trkpt>
      <trkpt lat="49.60249" lon="3.52739">
        <ele>101.4</ele>
        <time>2023-08-06T19:18:42Z</time>
      </trkpt>
      <trkpt lat="49.60251" lon="3.52746">
        <ele>101.6</ele>
        <time>2023-08-06T19:18:43Z</time>
      </trkpt>
      <trkpt lat="49.60254" lon="3.52752">
        <ele>101.4</ele>
        <time>2023-08-06T19:18:44Z</time>
      </trkpt>
      <trkpt lat="49.60256" lon="3.52758">
        <ele>101.4</ele>
        <time>2023-08-06T19:18:45Z</time>
      </trkpt>
      <trkpt lat="49.6026" lon="3.52765">
        <ele>101.4</ele>
        <time>2023-08-06T19:18:46Z</time>
      </trkpt>
      <trkpt lat="49.60265" lon="3.52777">
        <ele>101.2</ele>
        <time>2023-08-06T19:18:48Z</time>
      </trkpt>
      <trkpt lat="49.60268" lon="3.52783">
        <ele>101</ele>
        <time>2023-08-06T19:18:49Z</time>
      </trkpt>
      <trkpt lat="49.6027" lon="3.52789">
        <ele>101</ele>
        <time>2023-08-06T19:18:50Z</time>
      </trkpt>
      <trkpt lat="49.60273" lon="3.52795">
        <ele>101</ele>
        <time>2023-08-06T19:18:51Z</time>
      </trkpt>
      <trkpt lat="49.60276" lon="3.52801">
        <ele>101</ele>
        <time>2023-08-06T19:18:52Z</time>
      </trkpt>
      <trkpt lat="49.60295" lon="3.52845">
        <ele>101.2</ele>
        <time>2023-08-06T19:18:59Z</time>
      </trkpt>
      <trkpt lat="49.60302" lon="3.52862">
        <ele>101.2</ele>
        <time>2023-08-06T19:19:02Z</time>
      </trkpt>
      <trkpt lat="49.60304" lon="3.52868">
        <ele>101.2</ele>
        <time>2023-08-06T19:19:03Z</time>
      </trkpt>
      <trkpt lat="49.60307" lon="3.52874">
        <ele>101.2</ele>
        <time>2023-08-06T19:19:04Z</time>
      </trkpt>
      <trkpt lat="49.60314" lon="3.52893">
        <ele>101.4</ele>
        <time>2023-08-06T19:19:07Z</time>
      </trkpt>
      <trkpt lat="49.60319" lon="3.52905">
        <ele>101.4</ele>
        <time>2023-08-06T19:19:09Z</time>
      </trkpt>
      <trkpt lat="49.60322" lon="3.52912">
        <ele>101.6</ele>
        <time>2023-08-06T19:19:10Z</time>
      </trkpt>
      <trkpt lat="49.60324" lon="3.52917">
        <ele>101.6</ele>
        <time>2023-08-06T19:19:11Z</time>
      </trkpt>
      <trkpt lat="49.60326" lon="3.52923">
        <ele>101.8</ele>
        <time>2023-08-06T19:19:12Z</time>
      </trkpt>
      <trkpt lat="49.60329" lon="3.52929">
        <ele>101.8</ele>
        <time>2023-08-06T19:19:13Z</time>
      </trkpt>
      <trkpt lat="49.60331" lon="3.52935">
        <ele>102</ele>
        <time>2023-08-06T19:19:14Z</time>
      </trkpt>
      <trkpt lat="49.60334" lon="3.52942">
        <ele>102</ele>
        <time>2023-08-06T19:19:15Z</time>
      </trkpt>
      <trkpt lat="49.60341" lon="3.5296">
        <ele>102</ele>
        <time>2023-08-06T19:19:18Z</time>
      </trkpt>
      <trkpt lat="49.60345" lon="3.52971">
        <ele>102</ele>
        <time>2023-08-06T19:19:19Z</time>
      </trkpt>
      <trkpt lat="49.60362" lon="3.53011">
        <ele>102</ele>
        <time>2023-08-06T19:19:27Z</time>
      </trkpt>
      <trkpt lat="49.6037" lon="3.53028">
        <ele>102.2</ele>
        <time>2023-08-06T19:19:29Z</time>
      </trkpt>
      <trkpt lat="49.60372" lon="3.53033">
        <ele>102.2</ele>
        <time>2023-08-06T19:19:31Z</time>
      </trkpt>
      <trkpt lat="49.60378" lon="3.53044">
        <ele>102.2</ele>
        <time>2023-08-06T19:19:32Z</time>
      </trkpt>
      <trkpt lat="49.60392" lon="3.5307">
        <ele>102</ele>
        <time>2023-08-06T19:19:37Z</time>
      </trkpt>
      <trkpt lat="49.60398" lon="3.5308">
        <ele>102</ele>
        <time>2023-08-06T19:19:39Z</time>
      </trkpt>
      <trkpt lat="49.604" lon="3.53085">
        <ele>102.2</ele>
        <time>2023-08-06T19:19:40Z</time>
      </trkpt>
      <trkpt lat="49.604" lon="3.53085">
        <ele>102.2</ele>
        <time>2023-08-06T19:19:41Z</time>
      </trkpt>
      <trkpt lat="49.60413" lon="3.53104">
        <ele>102.2</ele>
        <time>2023-08-06T19:19:45Z</time>
      </trkpt>
      <trkpt lat="49.60419" lon="3.53113">
        <ele>102.4</ele>
        <time>2023-08-06T19:19:46Z</time>
      </trkpt>
      <trkpt lat="49.60422" lon="3.53118">
        <ele>102.4</ele>
        <time>2023-08-06T19:19:47Z</time>
      </trkpt>
      <trkpt lat="49.60422" lon="3.53118">
        <ele>102.4</ele>
        <time>2023-08-06T19:19:48Z</time>
      </trkpt>
      <trkpt lat="49.60425" lon="3.53122">
        <ele>102.4</ele>
        <time>2023-08-06T19:19:49Z</time>
      </trkpt>
      <trkpt lat="49.6043" lon="3.53131">
        <ele>102.4</ele>
        <time>2023-08-06T19:19:50Z</time>
      </trkpt>
      <trkpt lat="49.6043" lon="3.53131">
        <ele>102.4</ele>
        <time>2023-08-06T19:19:51Z</time>
      </trkpt>
      <trkpt lat="49.60436" lon="3.53139">
        <ele>102.6</ele>
        <time>2023-08-06T19:19:52Z</time>
      </trkpt>
      <trkpt lat="49.60438" lon="3.53143">
        <ele>102.6</ele>
        <time>2023-08-06T19:19:53Z</time>
      </trkpt>
      <trkpt lat="49.60441" lon="3.53147">
        <ele>102.6</ele>
        <time>2023-08-06T19:19:54Z</time>
      </trkpt>
      <trkpt lat="49.60441" lon="3.53147">
        <ele>102.8</ele>
        <time>2023-08-06T19:19:55Z</time>
      </trkpt>
      <trkpt lat="49.60446" lon="3.53156">
        <ele>102.8</ele>
        <time>2023-08-06T19:19:56Z</time>
      </trkpt>
      <trkpt lat="49.60446" lon="3.53156">
        <ele>102.8</ele>
        <time>2023-08-06T19:19:57Z</time>
      </trkpt>
      <trkpt lat="49.60449" lon="3.53159">
        <ele>102.8</ele>
        <time>2023-08-06T19:19:58Z</time>
      </trkpt>
      <trkpt lat="49.60455" lon="3.53167">
        <ele>103</ele>
        <time>2023-08-06T19:19:59Z</time>
      </trkpt>
      <trkpt lat="49.60455" lon="3.53167">
        <ele>103</ele>
        <time>2023-08-06T19:20:00Z</time>
      </trkpt>
      <trkpt lat="49.60459" lon="3.53175">
        <ele>103</ele>
        <time>2023-08-06T19:20:01Z</time>
      </trkpt>
      <trkpt lat="49.60462" lon="3.5318">
        <ele>103</ele>
        <time>2023-08-06T19:20:02Z</time>
      </trkpt>
      <trkpt lat="49.60474" lon="3.53202">
        <ele>103.2</ele>
        <time>2023-08-06T19:20:07Z</time>
      </trkpt>
      <trkpt lat="49.60496" lon="3.5324">
        <ele>103</ele>
        <time>2023-08-06T19:20:15Z</time>
      </trkpt>
      <trkpt lat="49.60527" lon="3.53294">
        <ele>103</ele>
        <time>2023-08-06T19:20:25Z</time>
      </trkpt>
      <trkpt lat="49.60556" lon="3.53341">
        <ele>103.6</ele>
        <time>2023-08-06T19:20:34Z</time>
      </trkpt>
      <trkpt lat="49.60558" lon="3.53345">
        <ele>103.8</ele>
        <time>2023-08-06T19:20:35Z</time>
      </trkpt>
      <trkpt lat="49.60561" lon="3.53349">
        <ele>103.8</ele>
        <time>2023-08-06T19:20:36Z</time>
      </trkpt>
      <trkpt lat="49.60563" lon="3.53353">
        <ele>104</ele>
        <time>2023-08-06T19:20:37Z</time>
      </trkpt>
      <trkpt lat="49.60566" lon="3.53357">
        <ele>104</ele>
        <time>2023-08-06T19:20:38Z</time>
      </trkpt>
      <trkpt lat="49.60566" lon="3.53357">
        <ele>104</ele>
        <time>2023-08-06T19:20:39Z</time>
      </trkpt>
      <trkpt lat="49.60573" lon="3.53371">
        <ele>104.4</ele>
        <time>2023-08-06T19:20:41Z</time>
      </trkpt>
      <trkpt lat="49.60576" lon="3.53375">
        <ele>104.6</ele>
        <time>2023-08-06T19:20:42Z</time>
      </trkpt>
      <trkpt lat="49.60578" lon="3.53379">
        <ele>105</ele>
        <time>2023-08-06T19:20:43Z</time>
      </trkpt>
      <trkpt lat="49.60581" lon="3.53384">
        <ele>105</ele>
        <time>2023-08-06T19:20:44Z</time>
      </trkpt>
      <trkpt lat="49.60594" lon="3.53408">
        <ele>105.6</ele>
        <time>2023-08-06T19:20:49Z</time>
      </trkpt>
      <trkpt lat="49.60599" lon="3.53418">
        <ele>106.2</ele>
        <time>2023-08-06T19:20:51Z</time>
      </trkpt>
      <trkpt lat="49.60617" lon="3.53451">
        <ele>106.8</ele>
        <time>2023-08-06T19:20:58Z</time>
      </trkpt>
      <trkpt lat="49.6062" lon="3.53456">
        <ele>107</ele>
        <time>2023-08-06T19:20:59Z</time>
      </trkpt>
      <trkpt lat="49.60622" lon="3.53461">
        <ele>107.2</ele>
        <time>2023-08-06T19:21:00Z</time>
      </trkpt>
      <trkpt lat="49.60625" lon="3.53466">
        <ele>107.2</ele>
        <time>2023-08-06T19:21:01Z</time>
      </trkpt>
      <trkpt lat="49.60628" lon="3.53472">
        <ele>107.6</ele>
        <time>2023-08-06T19:21:02Z</time>
      </trkpt>
      <trkpt lat="49.60631" lon="3.53476">
        <ele>107.6</ele>
        <time>2023-08-06T19:21:03Z</time>
      </trkpt>
      <trkpt lat="49.60634" lon="3.53482">
        <ele>107.8</ele>
        <time>2023-08-06T19:21:04Z</time>
      </trkpt>
      <trkpt lat="49.60636" lon="3.53487">
        <ele>108</ele>
        <time>2023-08-06T19:21:05Z</time>
      </trkpt>
      <trkpt lat="49.60639" lon="3.53493">
        <ele>108</ele>
        <time>2023-08-06T19:21:06Z</time>
      </trkpt>
      <trkpt lat="49.60642" lon="3.53498">
        <ele>108</ele>
        <time>2023-08-06T19:21:07Z</time>
      </trkpt>
      <trkpt lat="49.60645" lon="3.53504">
        <ele>108.2</ele>
        <time>2023-08-06T19:21:08Z</time>
      </trkpt>
      <trkpt lat="49.60648" lon="3.53509">
        <ele>108.2</ele>
        <time>2023-08-06T19:21:09Z</time>
      </trkpt>
      <trkpt lat="49.60651" lon="3.53515">
        <ele>108.2</ele>
        <time>2023-08-06T19:21:10Z</time>
      </trkpt>
      <trkpt lat="49.60651" lon="3.53515">
        <ele>108.6</ele>
        <time>2023-08-06T19:21:11Z</time>
      </trkpt>
      <trkpt lat="49.60657" lon="3.53528">
        <ele>108.6</ele>
        <time>2023-08-06T19:21:12Z</time>
      </trkpt>
      <trkpt lat="49.6066" lon="3.53534">
        <ele>108.8</ele>
        <time>2023-08-06T19:21:13Z</time>
      </trkpt>
      <trkpt lat="49.60662" lon="3.53539">
        <ele>108.8</ele>
        <time>2023-08-06T19:21:14Z</time>
      </trkpt>
      <trkpt lat="49.60665" lon="3.53545">
        <ele>109</ele>
        <time>2023-08-06T19:21:15Z</time>
      </trkpt>
      <trkpt lat="49.60665" lon="3.53545">
        <ele>109</ele>
        <time>2023-08-06T19:21:16Z</time>
      </trkpt>
      <trkpt lat="49.60668" lon="3.53551">
        <ele>109.2</ele>
        <time>2023-08-06T19:21:17Z</time>
      </trkpt>
      <trkpt lat="49.60674" lon="3.53564">
        <ele>109.6</ele>
        <time>2023-08-06T19:21:18Z</time>
      </trkpt>
      <trkpt lat="49.60677" lon="3.5357">
        <ele>109.6</ele>
        <time>2023-08-06T19:21:19Z</time>
      </trkpt>
      <trkpt lat="49.60679" lon="3.53577">
        <ele>109.6</ele>
        <time>2023-08-06T19:21:20Z</time>
      </trkpt>
      <trkpt lat="49.60682" lon="3.53583">
        <ele>109.8</ele>
        <time>2023-08-06T19:21:21Z</time>
      </trkpt>
      <trkpt lat="49.60685" lon="3.53589">
        <ele>109.8</ele>
        <time>2023-08-06T19:21:22Z</time>
      </trkpt>
      <trkpt lat="49.60688" lon="3.53596">
        <ele>109.8</ele>
        <time>2023-08-06T19:21:23Z</time>
      </trkpt>
      <trkpt lat="49.60703" lon="3.53632">
        <ele>109.8</ele>
        <time>2023-08-06T19:21:28Z</time>
      </trkpt>
      <trkpt lat="49.60712" lon="3.53656">
        <ele>109.6</ele>
        <time>2023-08-06T19:21:32Z</time>
      </trkpt>
      <trkpt lat="49.60728" lon="3.53692">
        <ele>109.4</ele>
        <time>2023-08-06T19:21:36Z</time>
      </trkpt>
      <trkpt lat="49.60767" lon="3.53762">
        <ele>109.2</ele>
        <time>2023-08-06T19:21:46Z</time>
      </trkpt>
      <trkpt lat="49.60776" lon="3.53778">
        <ele>109.2</ele>
        <time>2023-08-06T19:21:48Z</time>
      </trkpt>
      <trkpt lat="49.60814" lon="3.5385">
        <ele>109</ele>
        <time>2023-08-06T19:21:57Z</time>
      </trkpt>
      <trkpt lat="49.60832" lon="3.53883">
        <ele>108.8</ele>
        <time>2023-08-06T19:22:01Z</time>
      </trkpt>
      <trkpt lat="49.60858" lon="3.53931">
        <ele>108.8</ele>
        <time>2023-08-06T19:22:07Z</time>
      </trkpt>
      <trkpt lat="49.60867" lon="3.53948">
        <ele>108.8</ele>
        <time>2023-08-06T19:22:09Z</time>
      </trkpt>
      <trkpt lat="49.60871" lon="3.53955">
        <ele>108.6</ele>
        <time>2023-08-06T19:22:10Z</time>
      </trkpt>
      <trkpt lat="49.60875" lon="3.53961">
        <ele>108.6</ele>
        <time>2023-08-06T19:22:11Z</time>
      </trkpt>
      <trkpt lat="49.60875" lon="3.53961">
        <ele>108.6</ele>
        <time>2023-08-06T19:22:12Z</time>
      </trkpt>
      <trkpt lat="49.60883" lon="3.53978">
        <ele>108.4</ele>
        <time>2023-08-06T19:22:13Z</time>
      </trkpt>
      <trkpt lat="49.60887" lon="3.53984">
        <ele>108.2</ele>
        <time>2023-08-06T19:22:14Z</time>
      </trkpt>
      <trkpt lat="49.6089" lon="3.5399">
        <ele>108.4</ele>
        <time>2023-08-06T19:22:15Z</time>
      </trkpt>
      <trkpt lat="49.60894" lon="3.53997">
        <ele>108.2</ele>
        <time>2023-08-06T19:22:16Z</time>
      </trkpt>
      <trkpt lat="49.60897" lon="3.54003">
        <ele>108</ele>
        <time>2023-08-06T19:22:17Z</time>
      </trkpt>
      <trkpt lat="49.609" lon="3.5401">
        <ele>107.8</ele>
        <time>2023-08-06T19:22:18Z</time>
      </trkpt>
      <trkpt lat="49.609" lon="3.54015">
        <ele>107.8</ele>
        <time>2023-08-06T19:22:19Z</time>
      </trkpt>
      <trkpt lat="49.60899" lon="3.5402">
        <ele>107.8</ele>
        <time>2023-08-06T19:22:20Z</time>
      </trkpt>
      <trkpt lat="49.60896" lon="3.54024">
        <ele>107.8</ele>
        <time>2023-08-06T19:22:21Z</time>
      </trkpt>
      <trkpt lat="49.60892" lon="3.54029">
        <ele>107.6</ele>
        <time>2023-08-06T19:22:22Z</time>
      </trkpt>
      <trkpt lat="49.6089" lon="3.54032">
        <ele>107.6</ele>
        <time>2023-08-06T19:22:23Z</time>
      </trkpt>
      <trkpt lat="49.60887" lon="3.54037">
        <ele>107.6</ele>
        <time>2023-08-06T19:22:24Z</time>
      </trkpt>
      <trkpt lat="49.60868" lon="3.54076">
        <ele>107.6</ele>
        <time>2023-08-06T19:22:31Z</time>
      </trkpt>
      <trkpt lat="49.60862" lon="3.54089">
        <ele>107.6</ele>
        <time>2023-08-06T19:22:33Z</time>
      </trkpt>
      <trkpt lat="49.6084" lon="3.54134">
        <ele>107.4</ele>
        <time>2023-08-06T19:22:41Z</time>
      </trkpt>
      <trkpt lat="49.60821" lon="3.54175">
        <ele>107.2</ele>
        <time>2023-08-06T19:22:48Z</time>
      </trkpt>
      <trkpt lat="49.60818" lon="3.5418">
        <ele>107.4</ele>
        <time>2023-08-06T19:22:49Z</time>
      </trkpt>
      <trkpt lat="49.60813" lon="3.54191">
        <ele>107.2</ele>
        <time>2023-08-06T19:22:51Z</time>
      </trkpt>
      <trkpt lat="49.60788" lon="3.54244">
        <ele>107.2</ele>
        <time>2023-08-06T19:23:00Z</time>
      </trkpt>
      <trkpt lat="49.60776" lon="3.54268">
        <ele>107.2</ele>
        <time>2023-08-06T19:23:04Z</time>
      </trkpt>
      <trkpt lat="49.60744" lon="3.54335">
        <ele>107.2</ele>
        <time>2023-08-06T19:23:16Z</time>
      </trkpt>
      <trkpt lat="49.60718" lon="3.54389">
        <ele>107</ele>
        <time>2023-08-06T19:23:24Z</time>
      </trkpt>
      <trkpt lat="49.60718" lon="3.54389">
        <ele>107</ele>
        <time>2023-08-06T19:23:25Z</time>
      </trkpt>
      <trkpt lat="49.60712" lon="3.544">
        <ele>107</ele>
        <time>2023-08-06T19:23:26Z</time>
      </trkpt>
      <trkpt lat="49.60709" lon="3.54407">
        <ele>106.8</ele>
        <time>2023-08-06T19:23:27Z</time>
      </trkpt>
      <trkpt lat="49.60707" lon="3.54412">
        <ele>106.8</ele>
        <time>2023-08-06T19:23:28Z</time>
      </trkpt>
      <trkpt lat="49.60704" lon="3.54418">
        <ele>106.8</ele>
        <time>2023-08-06T19:23:29Z</time>
      </trkpt>
      <trkpt lat="49.60704" lon="3.54418">
        <ele>106.6</ele>
        <time>2023-08-06T19:23:30Z</time>
      </trkpt>
      <trkpt lat="49.6069" lon="3.5445">
        <ele>106.8</ele>
        <time>2023-08-06T19:23:34Z</time>
      </trkpt>
      <trkpt lat="49.60684" lon="3.54465">
        <ele>106.8</ele>
        <time>2023-08-06T19:23:36Z</time>
      </trkpt>
      <trkpt lat="49.60679" lon="3.5448">
        <ele>106.6</ele>
        <time>2023-08-06T19:23:38Z</time>
      </trkpt>
      <trkpt lat="49.60676" lon="3.54487">
        <ele>106.8</ele>
        <time>2023-08-06T19:23:39Z</time>
      </trkpt>
      <trkpt lat="49.60649" lon="3.54537">
        <ele>106.4</ele>
        <time>2023-08-06T19:23:47Z</time>
      </trkpt>
      <trkpt lat="49.60643" lon="3.54548">
        <ele>106.4</ele>
        <time>2023-08-06T19:23:49Z</time>
      </trkpt>
      <trkpt lat="49.60639" lon="3.54553">
        <ele>106.4</ele>
        <time>2023-08-06T19:23:50Z</time>
      </trkpt>
      <trkpt lat="49.60636" lon="3.54555">
        <ele>106.4</ele>
        <time>2023-08-06T19:23:51Z</time>
      </trkpt>
      <trkpt lat="49.60633" lon="3.54559">
        <ele>106.4</ele>
        <time>2023-08-06T19:23:52Z</time>
      </trkpt>
      <trkpt lat="49.60631" lon="3.54562">
        <ele>106.2</ele>
        <time>2023-08-06T19:23:53Z</time>
      </trkpt>
      <trkpt lat="49.60628" lon="3.54566">
        <ele>106.2</ele>
        <time>2023-08-06T19:23:54Z</time>
      </trkpt>
      <trkpt lat="49.60625" lon="3.54569">
        <ele>106.2</ele>
        <time>2023-08-06T19:23:55Z</time>
      </trkpt>
      <trkpt lat="49.60612" lon="3.54583">
        <ele>106.2</ele>
        <time>2023-08-06T19:23:59Z</time>
      </trkpt>
      <trkpt lat="49.6059" lon="3.54605">
        <ele>106</ele>
        <time>2023-08-06T19:24:06Z</time>
      </trkpt>
      <trkpt lat="49.60581" lon="3.54614">
        <ele>106.2</ele>
        <time>2023-08-06T19:24:09Z</time>
      </trkpt>
      <trkpt lat="49.60578" lon="3.54617">
        <ele>106</ele>
        <time>2023-08-06T19:24:10Z</time>
      </trkpt>
      <trkpt lat="49.60575" lon="3.5462">
        <ele>106</ele>
        <time>2023-08-06T19:24:11Z</time>
      </trkpt>
      <trkpt lat="49.60568" lon="3.54626">
        <ele>106</ele>
        <time>2023-08-06T19:24:14Z</time>
      </trkpt>
      <trkpt lat="49.60562" lon="3.54633">
        <ele>105.8</ele>
        <time>2023-08-06T19:24:15Z</time>
      </trkpt>
      <trkpt lat="49.60558" lon="3.54636">
        <ele>105.8</ele>
        <time>2023-08-06T19:24:16Z</time>
      </trkpt>
      <trkpt lat="49.60555" lon="3.54638">
        <ele>105.8</ele>
        <time>2023-08-06T19:24:17Z</time>
      </trkpt>
      <trkpt lat="49.60549" lon="3.54644">
        <ele>105.8</ele>
        <time>2023-08-06T19:24:19Z</time>
      </trkpt>
      <trkpt lat="49.60539" lon="3.54653">
        <ele>105.6</ele>
        <time>2023-08-06T19:24:22Z</time>
      </trkpt>
      <trkpt lat="49.60516" lon="3.54678">
        <ele>105.6</ele>
        <time>2023-08-06T19:24:29Z</time>
      </trkpt>
      <trkpt lat="49.60492" lon="3.54702">
        <ele>105.4</ele>
        <time>2023-08-06T19:24:36Z</time>
      </trkpt>
      <trkpt lat="49.60469" lon="3.54724">
        <ele>105.4</ele>
        <time>2023-08-06T19:24:43Z</time>
      </trkpt>
      <trkpt lat="49.60459" lon="3.54734">
        <ele>105.2</ele>
        <time>2023-08-06T19:24:46Z</time>
      </trkpt>
      <trkpt lat="49.60456" lon="3.54737">
        <ele>105.2</ele>
        <time>2023-08-06T19:24:47Z</time>
      </trkpt>
      <trkpt lat="49.60456" lon="3.54737">
        <ele>105.2</ele>
        <time>2023-08-06T19:24:48Z</time>
      </trkpt>
      <trkpt lat="49.60449" lon="3.54743">
        <ele>105.2</ele>
        <time>2023-08-06T19:24:49Z</time>
      </trkpt>
      <trkpt lat="49.60446" lon="3.54746">
        <ele>105.2</ele>
        <time>2023-08-06T19:24:50Z</time>
      </trkpt>
      <trkpt lat="49.60443" lon="3.54748">
        <ele>105</ele>
        <time>2023-08-06T19:24:51Z</time>
      </trkpt>
      <trkpt lat="49.60439" lon="3.54752">
        <ele>105</ele>
        <time>2023-08-06T19:24:52Z</time>
      </trkpt>
      <trkpt lat="49.60439" lon="3.54752">
        <ele>105</ele>
        <time>2023-08-06T19:24:53Z</time>
      </trkpt>
      <trkpt lat="49.60432" lon="3.54758">
        <ele>104.8</ele>
        <time>2023-08-06T19:24:54Z</time>
      </trkpt>
      <trkpt lat="49.60429" lon="3.54761">
        <ele>105</ele>
        <time>2023-08-06T19:24:55Z</time>
      </trkpt>
      <trkpt lat="49.60427" lon="3.54764">
        <ele>105</ele>
        <time>2023-08-06T19:24:56Z</time>
      </trkpt>
      <trkpt lat="49.60424" lon="3.54767">
        <ele>105</ele>
        <time>2023-08-06T19:24:57Z</time>
      </trkpt>
      <trkpt lat="49.60424" lon="3.54767">
        <ele>105</ele>
        <time>2023-08-06T19:24:58Z</time>
      </trkpt>
      <trkpt lat="49.60402" lon="3.54786">
        <ele>105</ele>
        <time>2023-08-06T19:25:04Z</time>
      </trkpt>
      <trkpt lat="49.60396" lon="3.54791">
        <ele>105</ele>
        <time>2023-08-06T19:25:06Z</time>
      </trkpt>
      <trkpt lat="49.60394" lon="3.54794">
        <ele>105</ele>
        <time>2023-08-06T19:25:07Z</time>
      </trkpt>
      <trkpt lat="49.60391" lon="3.54796">
        <ele>105</ele>
        <time>2023-08-06T19:25:08Z</time>
      </trkpt>
      <trkpt lat="49.60388" lon="3.54798">
        <ele>105</ele>
        <time>2023-08-06T19:25:09Z</time>
      </trkpt>
      <trkpt lat="49.60384" lon="3.54801">
        <ele>105</ele>
        <time>2023-08-06T19:25:10Z</time>
      </trkpt>
      <trkpt lat="49.60382" lon="3.54803">
        <ele>104.8</ele>
        <time>2023-08-06T19:25:11Z</time>
      </trkpt>
      <trkpt lat="49.6038" lon="3.54804">
        <ele>104.8</ele>
        <time>2023-08-06T19:25:12Z</time>
      </trkpt>
      <trkpt lat="49.60377" lon="3.54807">
        <ele>104.8</ele>
        <time>2023-08-06T19:25:13Z</time>
      </trkpt>
      <trkpt lat="49.60377" lon="3.54807">
        <ele>105</ele>
        <time>2023-08-06T19:25:14Z</time>
      </trkpt>
      <trkpt lat="49.60372" lon="3.5481">
        <ele>105</ele>
        <time>2023-08-06T19:25:15Z</time>
      </trkpt>
      <trkpt lat="49.6037" lon="3.54813">
        <ele>105</ele>
        <time>2023-08-06T19:25:16Z</time>
      </trkpt>
      <trkpt lat="49.60367" lon="3.54815">
        <ele>105</ele>
        <time>2023-08-06T19:25:17Z</time>
      </trkpt>
      <trkpt lat="49.60364" lon="3.54817">
        <ele>105.2</ele>
        <time>2023-08-06T19:25:18Z</time>
      </trkpt>
      <trkpt lat="49.60362" lon="3.54818">
        <ele>105.2</ele>
        <time>2023-08-06T19:25:19Z</time>
      </trkpt>
      <trkpt lat="49.6036" lon="3.5482">
        <ele>105.2</ele>
        <time>2023-08-06T19:25:20Z</time>
      </trkpt>
      <trkpt lat="49.60358" lon="3.54822">
        <ele>105.2</ele>
        <time>2023-08-06T19:25:21Z</time>
      </trkpt>
      <trkpt lat="49.60358" lon="3.54822">
        <ele>105.2</ele>
        <time>2023-08-06T19:25:22Z</time>
      </trkpt>
      <trkpt lat="49.60353" lon="3.54826">
        <ele>105.2</ele>
        <time>2023-08-06T19:25:23Z</time>
      </trkpt>
      <trkpt lat="49.60351" lon="3.54828">
        <ele>105.2</ele>
        <time>2023-08-06T19:25:24Z</time>
      </trkpt>
      <trkpt lat="49.60348" lon="3.54829">
        <ele>105.2</ele>
        <time>2023-08-06T19:25:25Z</time>
      </trkpt>
      <trkpt lat="49.60333" lon="3.54839">
        <ele>105.4</ele>
        <time>2023-08-06T19:25:32Z</time>
      </trkpt>
      <trkpt lat="49.60317" lon="3.54854">
        <ele>105.8</ele>
        <time>2023-08-06T19:25:38Z</time>
      </trkpt>
      <trkpt lat="49.60315" lon="3.54856">
        <ele>105.8</ele>
        <time>2023-08-06T19:25:39Z</time>
      </trkpt>
      <trkpt lat="49.60311" lon="3.54861">
        <ele>106</ele>
        <time>2023-08-06T19:25:41Z</time>
      </trkpt>
      <trkpt lat="49.60309" lon="3.54864">
        <ele>106</ele>
        <time>2023-08-06T19:25:42Z</time>
      </trkpt>
      <trkpt lat="49.60308" lon="3.54866">
        <ele>106</ele>
        <time>2023-08-06T19:25:43Z</time>
      </trkpt>
      <trkpt lat="49.60305" lon="3.5487">
        <ele>106</ele>
        <time>2023-08-06T19:25:44Z</time>
      </trkpt>
      <trkpt lat="49.60305" lon="3.5487">
        <ele>106</ele>
        <time>2023-08-06T19:25:45Z</time>
      </trkpt>
      <trkpt lat="49.60293" lon="3.54891">
        <ele>106</ele>
        <time>2023-08-06T19:25:50Z</time>
      </trkpt>
      <trkpt lat="49.6028" lon="3.5491">
        <ele>106.4</ele>
        <time>2023-08-06T19:25:57Z</time>
      </trkpt>
      <trkpt lat="49.60276" lon="3.54916">
        <ele>106.4</ele>
        <time>2023-08-06T19:25:58Z</time>
      </trkpt>
      <trkpt lat="49.60274" lon="3.54918">
        <ele>106.4</ele>
        <time>2023-08-06T19:25:59Z</time>
      </trkpt>
      <trkpt lat="49.60273" lon="3.54921">
        <ele>106.4</ele>
        <time>2023-08-06T19:26:00Z</time>
      </trkpt>
      <trkpt lat="49.60271" lon="3.54923">
        <ele>106.4</ele>
        <time>2023-08-06T19:26:01Z</time>
      </trkpt>
      <trkpt lat="49.60271" lon="3.54923">
        <ele>106.6</ele>
        <time>2023-08-06T19:26:02Z</time>
      </trkpt>
      <trkpt lat="49.60268" lon="3.54927">
        <ele>106.8</ele>
        <time>2023-08-06T19:26:03Z</time>
      </trkpt>
      <trkpt lat="49.60266" lon="3.5493">
        <ele>106.8</ele>
        <time>2023-08-06T19:26:04Z</time>
      </trkpt>
      <trkpt lat="49.60259" lon="3.5494">
        <ele>106.8</ele>
        <time>2023-08-06T19:26:08Z</time>
      </trkpt>
      <trkpt lat="49.60255" lon="3.54946">
        <ele>106.8</ele>
        <time>2023-08-06T19:26:10Z</time>
      </trkpt>
      <trkpt lat="49.60253" lon="3.54949">
        <ele>106.8</ele>
        <time>2023-08-06T19:26:12Z</time>
      </trkpt>
      <trkpt lat="49.60233" lon="3.54981">
        <ele>107.2</ele>
        <time>2023-08-06T19:26:20Z</time>
      </trkpt>
      <trkpt lat="49.60218" lon="3.55001">
        <ele>107</ele>
        <time>2023-08-06T19:26:26Z</time>
      </trkpt>
      <trkpt lat="49.60211" lon="3.55013">
        <ele>107</ele>
        <time>2023-08-06T19:26:30Z</time>
      </trkpt>
      <trkpt lat="49.60208" lon="3.55016">
        <ele>107</ele>
        <time>2023-08-06T19:26:31Z</time>
      </trkpt>
      <trkpt lat="49.60206" lon="3.55019">
        <ele>107</ele>
        <time>2023-08-06T19:26:32Z</time>
      </trkpt>
      <trkpt lat="49.60203" lon="3.55023">
        <ele>107</ele>
        <time>2023-08-06T19:26:33Z</time>
      </trkpt>
      <trkpt lat="49.60201" lon="3.55026">
        <ele>107</ele>
        <time>2023-08-06T19:26:34Z</time>
      </trkpt>
      <trkpt lat="49.60198" lon="3.5503">
        <ele>107</ele>
        <time>2023-08-06T19:26:35Z</time>
      </trkpt>
      <trkpt lat="49.60179" lon="3.55063">
        <ele>107.6</ele>
        <time>2023-08-06T19:26:43Z</time>
      </trkpt>
      <trkpt lat="49.60149" lon="3.55112">
        <ele>108.4</ele>
        <time>2023-08-06T19:26:54Z</time>
      </trkpt>
      <trkpt lat="49.60123" lon="3.55149">
        <ele>109.4</ele>
        <time>2023-08-06T19:27:02Z</time>
      </trkpt>
      <trkpt lat="49.60119" lon="3.55155">
        <ele>109.6</ele>
        <time>2023-08-06T19:27:03Z</time>
      </trkpt>
      <trkpt lat="49.60093" lon="3.55188">
        <ele>110.6</ele>
        <time>2023-08-06T19:27:10Z</time>
      </trkpt>
      <trkpt lat="49.60074" lon="3.55212">
        <ele>110.4</ele>
        <time>2023-08-06T19:27:15Z</time>
      </trkpt>
      <trkpt lat="49.60067" lon="3.55223">
        <ele>110.4</ele>
        <time>2023-08-06T19:27:18Z</time>
      </trkpt>
      <trkpt lat="49.60032" lon="3.5528">
        <ele>110.6</ele>
        <time>2023-08-06T19:27:27Z</time>
      </trkpt>
      <trkpt lat="49.60015" lon="3.55312">
        <ele>110.4</ele>
        <time>2023-08-06T19:27:32Z</time>
      </trkpt>
      <trkpt lat="49.60012" lon="3.55323">
        <ele>110.2</ele>
        <time>2023-08-06T19:27:34Z</time>
      </trkpt>
      <trkpt lat="49.60011" lon="3.55328">
        <ele>110.2</ele>
        <time>2023-08-06T19:27:35Z</time>
      </trkpt>
      <trkpt lat="49.60011" lon="3.55331">
        <ele>110.2</ele>
        <time>2023-08-06T19:27:36Z</time>
      </trkpt>
      <trkpt lat="49.60011" lon="3.55334">
        <ele>110</ele>
        <time>2023-08-06T19:27:37Z</time>
      </trkpt>
      <trkpt lat="49.60012" lon="3.55337">
        <ele>110</ele>
        <time>2023-08-06T19:27:38Z</time>
      </trkpt>
      <trkpt lat="49.60013" lon="3.5534">
        <ele>109.8</ele>
        <time>2023-08-06T19:27:39Z</time>
      </trkpt>
      <trkpt lat="49.60014" lon="3.55343">
        <ele>109.6</ele>
        <time>2023-08-06T19:27:40Z</time>
      </trkpt>
      <trkpt lat="49.6002" lon="3.55356">
        <ele>109.4</ele>
        <time>2023-08-06T19:27:43Z</time>
      </trkpt>
      <trkpt lat="49.60022" lon="3.5536">
        <ele>109.4</ele>
        <time>2023-08-06T19:27:44Z</time>
      </trkpt>
      <trkpt lat="49.60033" lon="3.55378">
        <ele>109</ele>
        <time>2023-08-06T19:27:49Z</time>
      </trkpt>
      <trkpt lat="49.60042" lon="3.5539">
        <ele>109</ele>
        <time>2023-08-06T19:27:51Z</time>
      </trkpt>
      <trkpt lat="49.60067" lon="3.55417">
        <ele>109.2</ele>
        <time>2023-08-06T19:27:58Z</time>
      </trkpt>
      <trkpt lat="49.60069" lon="3.5542">
        <ele>109.2</ele>
        <time>2023-08-06T19:27:59Z</time>
      </trkpt>
      <trkpt lat="49.60072" lon="3.55424">
        <ele>109.2</ele>
        <time>2023-08-06T19:28:00Z</time>
      </trkpt>
      <trkpt lat="49.60074" lon="3.55427">
        <ele>109.2</ele>
        <time>2023-08-06T19:28:01Z</time>
      </trkpt>
      <trkpt lat="49.60077" lon="3.55432">
        <ele>109.2</ele>
        <time>2023-08-06T19:28:02Z</time>
      </trkpt>
      <trkpt lat="49.60078" lon="3.55435">
        <ele>109.2</ele>
        <time>2023-08-06T19:28:03Z</time>
      </trkpt>
      <trkpt lat="49.60085" lon="3.55449">
        <ele>109.6</ele>
        <time>2023-08-06T19:28:07Z</time>
      </trkpt>
      <trkpt lat="49.60087" lon="3.55453">
        <ele>109.6</ele>
        <time>2023-08-06T19:28:08Z</time>
      </trkpt>
      <trkpt lat="49.60089" lon="3.55457">
        <ele>109.6</ele>
        <time>2023-08-06T19:28:09Z</time>
      </trkpt>
      <trkpt lat="49.6009" lon="3.55461">
        <ele>109.6</ele>
        <time>2023-08-06T19:28:10Z</time>
      </trkpt>
      <trkpt lat="49.60092" lon="3.55464">
        <ele>109.6</ele>
        <time>2023-08-06T19:28:11Z</time>
      </trkpt>
      <trkpt lat="49.60093" lon="3.55468">
        <ele>109.6</ele>
        <time>2023-08-06T19:28:12Z</time>
      </trkpt>
      <trkpt lat="49.60095" lon="3.55472">
        <ele>109.6</ele>
        <time>2023-08-06T19:28:13Z</time>
      </trkpt>
      <trkpt lat="49.60097" lon="3.55476">
        <ele>109.6</ele>
        <time>2023-08-06T19:28:14Z</time>
      </trkpt>
      <trkpt lat="49.60112" lon="3.55516">
        <ele>109.6</ele>
        <time>2023-08-06T19:28:22Z</time>
      </trkpt>
      <trkpt lat="49.60124" lon="3.55546">
        <ele>109.4</ele>
        <time>2023-08-06T19:28:29Z</time>
      </trkpt>
      <trkpt lat="49.60126" lon="3.5555">
        <ele>109.4</ele>
        <time>2023-08-06T19:28:30Z</time>
      </trkpt>
      <trkpt lat="49.60127" lon="3.55553">
        <ele>109.6</ele>
        <time>2023-08-06T19:28:31Z</time>
      </trkpt>
      <trkpt lat="49.60129" lon="3.55558">
        <ele>109.6</ele>
        <time>2023-08-06T19:28:32Z</time>
      </trkpt>
      <trkpt lat="49.6013" lon="3.55561">
        <ele>109.4</ele>
        <time>2023-08-06T19:28:33Z</time>
      </trkpt>
      <trkpt lat="49.60131" lon="3.55564">
        <ele>109.4</ele>
        <time>2023-08-06T19:28:34Z</time>
      </trkpt>
      <trkpt lat="49.60133" lon="3.55567">
        <ele>109.4</ele>
        <time>2023-08-06T19:28:35Z</time>
      </trkpt>
      <trkpt lat="49.60134" lon="3.55571">
        <ele>109.4</ele>
        <time>2023-08-06T19:28:36Z</time>
      </trkpt>
      <trkpt lat="49.60135" lon="3.55574">
        <ele>109.4</ele>
        <time>2023-08-06T19:28:37Z</time>
      </trkpt>
      <trkpt lat="49.60137" lon="3.55578">
        <ele>109.4</ele>
        <time>2023-08-06T19:28:38Z</time>
      </trkpt>
      <trkpt lat="49.60138" lon="3.5558">
        <ele>109.4</ele>
        <time>2023-08-06T19:28:39Z</time>
      </trkpt>
      <trkpt lat="49.60139" lon="3.55583">
        <ele>109.4</ele>
        <time>2023-08-06T19:28:40Z</time>
      </trkpt>
      <trkpt lat="49.60139" lon="3.55583">
        <ele>109.4</ele>
        <time>2023-08-06T19:28:41Z</time>
      </trkpt>
      <trkpt lat="49.60147" lon="3.55605">
        <ele>109.8</ele>
        <time>2023-08-06T19:28:45Z</time>
      </trkpt>
      <trkpt lat="49.60151" lon="3.55614">
        <ele>109.6</ele>
        <time>2023-08-06T19:28:47Z</time>
      </trkpt>
      <trkpt lat="49.60151" lon="3.55614">
        <ele>109.6</ele>
        <time>2023-08-06T19:28:48Z</time>
      </trkpt>
      <trkpt lat="49.60164" lon="3.55645">
        <ele>109.8</ele>
        <time>2023-08-06T19:28:53Z</time>
      </trkpt>
      <trkpt lat="49.6019" lon="3.55703">
        <ele>109.6</ele>
        <time>2023-08-06T19:29:04Z</time>
      </trkpt>
      <trkpt lat="49.60216" lon="3.5576">
        <ele>109.6</ele>
        <time>2023-08-06T19:29:15Z</time>
      </trkpt>
      <trkpt lat="49.60225" lon="3.55783">
        <ele>109.4</ele>
        <time>2023-08-06T19:29:19Z</time>
      </trkpt>
      <trkpt lat="49.60229" lon="3.55795">
        <ele>109.4</ele>
        <time>2023-08-06T19:29:21Z</time>
      </trkpt>
      <trkpt lat="49.60235" lon="3.55811">
        <ele>109.4</ele>
        <time>2023-08-06T19:29:24Z</time>
      </trkpt>
      <trkpt lat="49.60236" lon="3.55817">
        <ele>109.6</ele>
        <time>2023-08-06T19:29:25Z</time>
      </trkpt>
      <trkpt lat="49.60236" lon="3.55822">
        <ele>109.6</ele>
        <time>2023-08-06T19:29:26Z</time>
      </trkpt>
      <trkpt lat="49.60236" lon="3.55828">
        <ele>109.6</ele>
        <time>2023-08-06T19:29:27Z</time>
      </trkpt>
      <trkpt lat="49.60236" lon="3.55834">
        <ele>109.6</ele>
        <time>2023-08-06T19:29:28Z</time>
      </trkpt>
      <trkpt lat="49.60235" lon="3.55839">
        <ele>109.8</ele>
        <time>2023-08-06T19:29:29Z</time>
      </trkpt>
      <trkpt lat="49.60234" lon="3.55845">
        <ele>109.8</ele>
        <time>2023-08-06T19:29:30Z</time>
      </trkpt>
      <trkpt lat="49.60233" lon="3.55851">
        <ele>109.8</ele>
        <time>2023-08-06T19:29:31Z</time>
      </trkpt>
      <trkpt lat="49.60232" lon="3.55857">
        <ele>109.8</ele>
        <time>2023-08-06T19:29:32Z</time>
      </trkpt>
      <trkpt lat="49.60231" lon="3.55862">
        <ele>109.6</ele>
        <time>2023-08-06T19:29:33Z</time>
      </trkpt>
      <trkpt lat="49.6023" lon="3.55868">
        <ele>109.6</ele>
        <time>2023-08-06T19:29:34Z</time>
      </trkpt>
      <trkpt lat="49.60229" lon="3.55873">
        <ele>109.6</ele>
        <time>2023-08-06T19:29:35Z</time>
      </trkpt>
      <trkpt lat="49.60227" lon="3.55878">
        <ele>109.6</ele>
        <time>2023-08-06T19:29:36Z</time>
      </trkpt>
      <trkpt lat="49.60226" lon="3.55883">
        <ele>109.4</ele>
        <time>2023-08-06T19:29:37Z</time>
      </trkpt>
      <trkpt lat="49.60216" lon="3.55908">
        <ele>109.4</ele>
        <time>2023-08-06T19:29:42Z</time>
      </trkpt>
      <trkpt lat="49.60212" lon="3.55918">
        <ele>109.2</ele>
        <time>2023-08-06T19:29:44Z</time>
      </trkpt>
      <trkpt lat="49.60194" lon="3.55951">
        <ele>109.2</ele>
        <time>2023-08-06T19:29:50Z</time>
      </trkpt>
      <trkpt lat="49.60176" lon="3.55981">
        <ele>109.2</ele>
        <time>2023-08-06T19:29:56Z</time>
      </trkpt>
      <trkpt lat="49.60173" lon="3.55986">
        <ele>109.2</ele>
        <time>2023-08-06T19:29:57Z</time>
      </trkpt>
      <trkpt lat="49.6017" lon="3.5599">
        <ele>109.6</ele>
        <time>2023-08-06T19:29:58Z</time>
      </trkpt>
      <trkpt lat="49.60167" lon="3.55995">
        <ele>109.6</ele>
        <time>2023-08-06T19:29:59Z</time>
      </trkpt>
      <trkpt lat="49.60164" lon="3.56">
        <ele>109.6</ele>
        <time>2023-08-06T19:30:00Z</time>
      </trkpt>
      <trkpt lat="49.60161" lon="3.56005">
        <ele>109.4</ele>
        <time>2023-08-06T19:30:01Z</time>
      </trkpt>
      <trkpt lat="49.60158" lon="3.56009">
        <ele>109.4</ele>
        <time>2023-08-06T19:30:02Z</time>
      </trkpt>
      <trkpt lat="49.60155" lon="3.56014">
        <ele>109.4</ele>
        <time>2023-08-06T19:30:03Z</time>
      </trkpt>
      <trkpt lat="49.6013" lon="3.56052">
        <ele>109.2</ele>
        <time>2023-08-06T19:30:10Z</time>
      </trkpt>
      <trkpt lat="49.60102" lon="3.56096">
        <ele>109</ele>
        <time>2023-08-06T19:30:18Z</time>
      </trkpt>
      <trkpt lat="49.60088" lon="3.56118">
        <ele>109</ele>
        <time>2023-08-06T19:30:22Z</time>
      </trkpt>
      <trkpt lat="49.60085" lon="3.56123">
        <ele>108.8</ele>
        <time>2023-08-06T19:30:23Z</time>
      </trkpt>
      <trkpt lat="49.60082" lon="3.56128">
        <ele>109</ele>
        <time>2023-08-06T19:30:24Z</time>
      </trkpt>
      <trkpt lat="49.60079" lon="3.56134">
        <ele>109</ele>
        <time>2023-08-06T19:30:25Z</time>
      </trkpt>
      <trkpt lat="49.60077" lon="3.56139">
        <ele>108.8</ele>
        <time>2023-08-06T19:30:26Z</time>
      </trkpt>
      <trkpt lat="49.60075" lon="3.56143">
        <ele>109</ele>
        <time>2023-08-06T19:30:27Z</time>
      </trkpt>
      <trkpt lat="49.60073" lon="3.56148">
        <ele>109</ele>
        <time>2023-08-06T19:30:28Z</time>
      </trkpt>
      <trkpt lat="49.60071" lon="3.56153">
        <ele>109.2</ele>
        <time>2023-08-06T19:30:29Z</time>
      </trkpt>
      <trkpt lat="49.60069" lon="3.56159">
        <ele>109.2</ele>
        <time>2023-08-06T19:30:30Z</time>
      </trkpt>
      <trkpt lat="49.60068" lon="3.56165">
        <ele>109.2</ele>
        <time>2023-08-06T19:30:31Z</time>
      </trkpt>
      <trkpt lat="49.60067" lon="3.56169">
        <ele>109.2</ele>
        <time>2023-08-06T19:30:32Z</time>
      </trkpt>
      <trkpt lat="49.60065" lon="3.56175">
        <ele>109.2</ele>
        <time>2023-08-06T19:30:33Z</time>
      </trkpt>
      <trkpt lat="49.60064" lon="3.56181">
        <ele>109.2</ele>
        <time>2023-08-06T19:30:34Z</time>
      </trkpt>
      <trkpt lat="49.60059" lon="3.56192">
        <ele>109.4</ele>
        <time>2023-08-06T19:30:36Z</time>
      </trkpt>
      <trkpt lat="49.60054" lon="3.56203">
        <ele>109.2</ele>
        <time>2023-08-06T19:30:38Z</time>
      </trkpt>
      <trkpt lat="49.60042" lon="3.56225">
        <ele>109.4</ele>
        <time>2023-08-06T19:30:42Z</time>
      </trkpt>
      <trkpt lat="49.60004" lon="3.56288">
        <ele>109.6</ele>
        <time>2023-08-06T19:30:53Z</time>
      </trkpt>
      <trkpt lat="49.5998" lon="3.56327">
        <ele>109.8</ele>
        <time>2023-08-06T19:31:00Z</time>
      </trkpt>
      <trkpt lat="49.59978" lon="3.56331">
        <ele>109.8</ele>
        <time>2023-08-06T19:31:01Z</time>
      </trkpt>
      <trkpt lat="49.59975" lon="3.56335">
        <ele>109.8</ele>
        <time>2023-08-06T19:31:02Z</time>
      </trkpt>
      <trkpt lat="49.59972" lon="3.5634">
        <ele>109.6</ele>
        <time>2023-08-06T19:31:03Z</time>
      </trkpt>
      <trkpt lat="49.59966" lon="3.56348">
        <ele>109.6</ele>
        <time>2023-08-06T19:31:05Z</time>
      </trkpt>
      <trkpt lat="49.59963" lon="3.56353">
        <ele>109.6</ele>
        <time>2023-08-06T19:31:06Z</time>
      </trkpt>
      <trkpt lat="49.5996" lon="3.56357">
        <ele>109.6</ele>
        <time>2023-08-06T19:31:07Z</time>
      </trkpt>
      <trkpt lat="49.59957" lon="3.56362">
        <ele>109.4</ele>
        <time>2023-08-06T19:31:08Z</time>
      </trkpt>
      <trkpt lat="49.59954" lon="3.56366">
        <ele>109.4</ele>
        <time>2023-08-06T19:31:09Z</time>
      </trkpt>
      <trkpt lat="49.59952" lon="3.56371">
        <ele>109.6</ele>
        <time>2023-08-06T19:31:10Z</time>
      </trkpt>
      <trkpt lat="49.59928" lon="3.56416">
        <ele>109.6</ele>
        <time>2023-08-06T19:31:18Z</time>
      </trkpt>
      <trkpt lat="49.59924" lon="3.56421">
        <ele>110</ele>
        <time>2023-08-06T19:31:19Z</time>
      </trkpt>
      <trkpt lat="49.59906" lon="3.56448">
        <ele>110.4</ele>
        <time>2023-08-06T19:31:24Z</time>
      </trkpt>
      <trkpt lat="49.59881" lon="3.56489">
        <ele>111</ele>
        <time>2023-08-06T19:31:31Z</time>
      </trkpt>
      <trkpt lat="49.59881" lon="3.56489">
        <ele>111.2</ele>
        <time>2023-08-06T19:31:32Z</time>
      </trkpt>
      <trkpt lat="49.59858" lon="3.56531">
        <ele>111.8</ele>
        <time>2023-08-06T19:31:38Z</time>
      </trkpt>
      <trkpt lat="49.59854" lon="3.56537">
        <ele>111.8</ele>
        <time>2023-08-06T19:31:39Z</time>
      </trkpt>
      <trkpt lat="49.59851" lon="3.56542">
        <ele>112</ele>
        <time>2023-08-06T19:31:40Z</time>
      </trkpt>
      <trkpt lat="49.59847" lon="3.56548">
        <ele>112</ele>
        <time>2023-08-06T19:31:41Z</time>
      </trkpt>
      <trkpt lat="49.59808" lon="3.56614">
        <ele>112</ele>
        <time>2023-08-06T19:31:52Z</time>
      </trkpt>
      <trkpt lat="49.5979" lon="3.56642">
        <ele>112.2</ele>
        <time>2023-08-06T19:31:57Z</time>
      </trkpt>
      <trkpt lat="49.59787" lon="3.56647">
        <ele>112</ele>
        <time>2023-08-06T19:31:58Z</time>
      </trkpt>
      <trkpt lat="49.59783" lon="3.56652">
        <ele>112</ele>
        <time>2023-08-06T19:31:59Z</time>
      </trkpt>
      <trkpt lat="49.5978" lon="3.56658">
        <ele>112.2</ele>
        <time>2023-08-06T19:32:00Z</time>
      </trkpt>
      <trkpt lat="49.59777" lon="3.56663">
        <ele>112.2</ele>
        <time>2023-08-06T19:32:01Z</time>
      </trkpt>
      <trkpt lat="49.59775" lon="3.56669">
        <ele>112</ele>
        <time>2023-08-06T19:32:02Z</time>
      </trkpt>
      <trkpt lat="49.59772" lon="3.56674">
        <ele>112</ele>
        <time>2023-08-06T19:32:03Z</time>
      </trkpt>
      <trkpt lat="49.59769" lon="3.56679">
        <ele>112</ele>
        <time>2023-08-06T19:32:04Z</time>
      </trkpt>
      <trkpt lat="49.59765" lon="3.56684">
        <ele>112</ele>
        <time>2023-08-06T19:32:05Z</time>
      </trkpt>
      <trkpt lat="49.59755" lon="3.567">
        <ele>112</ele>
        <time>2023-08-06T19:32:08Z</time>
      </trkpt>
      <trkpt lat="49.59751" lon="3.56705">
        <ele>112</ele>
        <time>2023-08-06T19:32:09Z</time>
      </trkpt>
      <trkpt lat="49.59735" lon="3.56721">
        <ele>112</ele>
        <time>2023-08-06T19:32:13Z</time>
      </trkpt>
      <trkpt lat="49.59691" lon="3.5677">
        <ele>112</ele>
        <time>2023-08-06T19:32:23Z</time>
      </trkpt>
      <trkpt lat="49.59688" lon="3.56777">
        <ele>111.8</ele>
        <time>2023-08-06T19:32:24Z</time>
      </trkpt>
      <trkpt lat="49.59677" lon="3.5681">
        <ele>111.4</ele>
        <time>2023-08-06T19:32:28Z</time>
      </trkpt>
      <trkpt lat="49.59663" lon="3.56849">
        <ele>111</ele>
        <time>2023-08-06T19:32:33Z</time>
      </trkpt>
      <trkpt lat="49.5966" lon="3.56856">
        <ele>111</ele>
        <time>2023-08-06T19:32:34Z</time>
      </trkpt>
      <trkpt lat="49.5963" lon="3.56906">
        <ele>111</ele>
        <time>2023-08-06T19:32:42Z</time>
      </trkpt>
      <trkpt lat="49.59626" lon="3.56911">
        <ele>111</ele>
        <time>2023-08-06T19:32:43Z</time>
      </trkpt>
      <trkpt lat="49.59623" lon="3.56917">
        <ele>111</ele>
        <time>2023-08-06T19:32:44Z</time>
      </trkpt>
      <trkpt lat="49.59619" lon="3.56923">
        <ele>111</ele>
        <time>2023-08-06T19:32:45Z</time>
      </trkpt>
      <trkpt lat="49.59616" lon="3.56929">
        <ele>110.8</ele>
        <time>2023-08-06T19:32:46Z</time>
      </trkpt>
      <trkpt lat="49.59612" lon="3.56934">
        <ele>110.8</ele>
        <time>2023-08-06T19:32:47Z</time>
      </trkpt>
      <trkpt lat="49.59608" lon="3.56941">
        <ele>110.8</ele>
        <time>2023-08-06T19:32:48Z</time>
      </trkpt>
      <trkpt lat="49.59605" lon="3.56945">
        <ele>111</ele>
        <time>2023-08-06T19:32:49Z</time>
      </trkpt>
      <trkpt lat="49.59601" lon="3.56952">
        <ele>111</ele>
        <time>2023-08-06T19:32:50Z</time>
      </trkpt>
      <trkpt lat="49.59599" lon="3.56957">
        <ele>111</ele>
        <time>2023-08-06T19:32:51Z</time>
      </trkpt>
      <trkpt lat="49.59595" lon="3.56962">
        <ele>111</ele>
        <time>2023-08-06T19:32:52Z</time>
      </trkpt>
      <trkpt lat="49.59592" lon="3.56967">
        <ele>111</ele>
        <time>2023-08-06T19:32:53Z</time>
      </trkpt>
      <trkpt lat="49.59589" lon="3.56973">
        <ele>111</ele>
        <time>2023-08-06T19:32:54Z</time>
      </trkpt>
      <trkpt lat="49.59586" lon="3.56977">
        <ele>111</ele>
        <time>2023-08-06T19:32:55Z</time>
      </trkpt>
      <trkpt lat="49.59583" lon="3.56982">
        <ele>111</ele>
        <time>2023-08-06T19:32:56Z</time>
      </trkpt>
      <trkpt lat="49.59583" lon="3.56982">
        <ele>110.8</ele>
        <time>2023-08-06T19:32:57Z</time>
      </trkpt>
      <trkpt lat="49.59577" lon="3.56991">
        <ele>111</ele>
        <time>2023-08-06T19:32:58Z</time>
      </trkpt>
      <trkpt lat="49.59574" lon="3.56996">
        <ele>110.8</ele>
        <time>2023-08-06T19:32:59Z</time>
      </trkpt>
      <trkpt lat="49.59572" lon="3.57">
        <ele>110.6</ele>
        <time>2023-08-06T19:33:00Z</time>
      </trkpt>
      <trkpt lat="49.59569" lon="3.57004">
        <ele>110.4</ele>
        <time>2023-08-06T19:33:01Z</time>
      </trkpt>
      <trkpt lat="49.59566" lon="3.57008">
        <ele>110.6</ele>
        <time>2023-08-06T19:33:02Z</time>
      </trkpt>
      <trkpt lat="49.59564" lon="3.57012">
        <ele>110.4</ele>
        <time>2023-08-06T19:33:03Z</time>
      </trkpt>
      <trkpt lat="49.59561" lon="3.57016">
        <ele>110.4</ele>
        <time>2023-08-06T19:33:04Z</time>
      </trkpt>
      <trkpt lat="49.59558" lon="3.57021">
        <ele>110.2</ele>
        <time>2023-08-06T19:33:05Z</time>
      </trkpt>
      <trkpt lat="49.59555" lon="3.57025">
        <ele>110.2</ele>
        <time>2023-08-06T19:33:06Z</time>
      </trkpt>
      <trkpt lat="49.59552" lon="3.5703">
        <ele>110.2</ele>
        <time>2023-08-06T19:33:07Z</time>
      </trkpt>
      <trkpt lat="49.59549" lon="3.57036">
        <ele>110.2</ele>
        <time>2023-08-06T19:33:08Z</time>
      </trkpt>
      <trkpt lat="49.59537" lon="3.57055">
        <ele>110</ele>
        <time>2023-08-06T19:33:12Z</time>
      </trkpt>
      <trkpt lat="49.59531" lon="3.57066">
        <ele>110</ele>
        <time>2023-08-06T19:33:14Z</time>
      </trkpt>
      <trkpt lat="49.5953" lon="3.57069">
        <ele>110</ele>
        <time>2023-08-06T19:33:15Z</time>
      </trkpt>
      <trkpt lat="49.59528" lon="3.57073">
        <ele>110.2</ele>
        <time>2023-08-06T19:33:16Z</time>
      </trkpt>
      <trkpt lat="49.59527" lon="3.57076">
        <ele>110.2</ele>
        <time>2023-08-06T19:33:17Z</time>
      </trkpt>
      <trkpt lat="49.59525" lon="3.57078">
        <ele>110.2</ele>
        <time>2023-08-06T19:33:18Z</time>
      </trkpt>
      <trkpt lat="49.59524" lon="3.5708">
        <ele>110.2</ele>
        <time>2023-08-06T19:33:19Z</time>
      </trkpt>
      <trkpt lat="49.59522" lon="3.57082">
        <ele>110.2</ele>
        <time>2023-08-06T19:33:20Z</time>
      </trkpt>
      <trkpt lat="49.59521" lon="3.57084">
        <ele>110.2</ele>
        <time>2023-08-06T19:33:21Z</time>
      </trkpt>
      <trkpt lat="49.5952" lon="3.57087">
        <ele>110</ele>
        <time>2023-08-06T19:33:22Z</time>
      </trkpt>
      <trkpt lat="49.5951" lon="3.57102">
        <ele>110</ele>
        <time>2023-08-06T19:33:27Z</time>
      </trkpt>
      <trkpt lat="49.59494" lon="3.57129">
        <ele>109.4</ele>
        <time>2023-08-06T19:33:33Z</time>
      </trkpt>
      <trkpt lat="49.59491" lon="3.57134">
        <ele>109.4</ele>
        <time>2023-08-06T19:33:34Z</time>
      </trkpt>
      <trkpt lat="49.59464" lon="3.57178">
        <ele>110</ele>
        <time>2023-08-06T19:33:42Z</time>
      </trkpt>
      <trkpt lat="49.5944" lon="3.57216">
        <ele>110.6</ele>
        <time>2023-08-06T19:33:49Z</time>
      </trkpt>
      <trkpt lat="49.59437" lon="3.57221">
        <ele>110.8</ele>
        <time>2023-08-06T19:33:50Z</time>
      </trkpt>
      <trkpt lat="49.59434" lon="3.57226">
        <ele>110.8</ele>
        <time>2023-08-06T19:33:51Z</time>
      </trkpt>
      <trkpt lat="49.59431" lon="3.57231">
        <ele>110.8</ele>
        <time>2023-08-06T19:33:52Z</time>
      </trkpt>
      <trkpt lat="49.59428" lon="3.57236">
        <ele>110.8</ele>
        <time>2023-08-06T19:33:53Z</time>
      </trkpt>
      <trkpt lat="49.59425" lon="3.5724">
        <ele>110.8</ele>
        <time>2023-08-06T19:33:54Z</time>
      </trkpt>
      <trkpt lat="49.59423" lon="3.57244">
        <ele>110.8</ele>
        <time>2023-08-06T19:33:55Z</time>
      </trkpt>
      <trkpt lat="49.5942" lon="3.57248">
        <ele>110.8</ele>
        <time>2023-08-06T19:33:56Z</time>
      </trkpt>
      <trkpt lat="49.59418" lon="3.57252">
        <ele>110.8</ele>
        <time>2023-08-06T19:33:57Z</time>
      </trkpt>
      <trkpt lat="49.59415" lon="3.57257">
        <ele>110.6</ele>
        <time>2023-08-06T19:33:58Z</time>
      </trkpt>
      <trkpt lat="49.59413" lon="3.5726">
        <ele>110.8</ele>
        <time>2023-08-06T19:33:59Z</time>
      </trkpt>
      <trkpt lat="49.5941" lon="3.57264">
        <ele>110.8</ele>
        <time>2023-08-06T19:34:00Z</time>
      </trkpt>
      <trkpt lat="49.59408" lon="3.57268">
        <ele>110.8</ele>
        <time>2023-08-06T19:34:01Z</time>
      </trkpt>
      <trkpt lat="49.59406" lon="3.57272">
        <ele>110.8</ele>
        <time>2023-08-06T19:34:02Z</time>
      </trkpt>
      <trkpt lat="49.59404" lon="3.57275">
        <ele>110.6</ele>
        <time>2023-08-06T19:34:03Z</time>
      </trkpt>
      <trkpt lat="49.59402" lon="3.57277">
        <ele>110.6</ele>
        <time>2023-08-06T19:34:04Z</time>
      </trkpt>
      <trkpt lat="49.59401" lon="3.57279">
        <ele>110.6</ele>
        <time>2023-08-06T19:34:05Z</time>
      </trkpt>
      <trkpt lat="49.59399" lon="3.57283">
        <ele>110.6</ele>
        <time>2023-08-06T19:34:06Z</time>
      </trkpt>
      <trkpt lat="49.59393" lon="3.57292">
        <ele>110.2</ele>
        <time>2023-08-06T19:34:09Z</time>
      </trkpt>
      <trkpt lat="49.59391" lon="3.57296">
        <ele>110.2</ele>
        <time>2023-08-06T19:34:10Z</time>
      </trkpt>
      <trkpt lat="49.5938" lon="3.57313">
        <ele>109.8</ele>
        <time>2023-08-06T19:34:14Z</time>
      </trkpt>
      <trkpt lat="49.59376" lon="3.57317">
        <ele>110</ele>
        <time>2023-08-06T19:34:15Z</time>
      </trkpt>
      <trkpt lat="49.5937" lon="3.57327">
        <ele>109.8</ele>
        <time>2023-08-06T19:34:17Z</time>
      </trkpt>
      <trkpt lat="49.59356" lon="3.57349">
        <ele>109.2</ele>
        <time>2023-08-06T19:34:21Z</time>
      </trkpt>
      <trkpt lat="49.59353" lon="3.57357">
        <ele>109.4</ele>
        <time>2023-08-06T19:34:22Z</time>
      </trkpt>
      <trkpt lat="49.59332" lon="3.57388">
        <ele>109.2</ele>
        <time>2023-08-06T19:34:28Z</time>
      </trkpt>
      <trkpt lat="49.59326" lon="3.57399">
        <ele>109.2</ele>
        <time>2023-08-06T19:34:30Z</time>
      </trkpt>
      <trkpt lat="49.59323" lon="3.57403">
        <ele>109.2</ele>
        <time>2023-08-06T19:34:31Z</time>
      </trkpt>
      <trkpt lat="49.5932" lon="3.57408">
        <ele>109.2</ele>
        <time>2023-08-06T19:34:32Z</time>
      </trkpt>
      <trkpt lat="49.59317" lon="3.57412">
        <ele>109.4</ele>
        <time>2023-08-06T19:34:33Z</time>
      </trkpt>
      <trkpt lat="49.59315" lon="3.57417">
        <ele>109.4</ele>
        <time>2023-08-06T19:34:34Z</time>
      </trkpt>
      <trkpt lat="49.59312" lon="3.57421">
        <ele>109.6</ele>
        <time>2023-08-06T19:34:35Z</time>
      </trkpt>
      <trkpt lat="49.59307" lon="3.57429">
        <ele>109.8</ele>
        <time>2023-08-06T19:34:37Z</time>
      </trkpt>
      <trkpt lat="49.59307" lon="3.57429">
        <ele>109.8</ele>
        <time>2023-08-06T19:34:38Z</time>
      </trkpt>
      <trkpt lat="49.59302" lon="3.57438">
        <ele>109.4</ele>
        <time>2023-08-06T19:34:39Z</time>
      </trkpt>
      <trkpt lat="49.593" lon="3.57441">
        <ele>109.4</ele>
        <time>2023-08-06T19:34:40Z</time>
      </trkpt>
      <trkpt lat="49.59298" lon="3.57445">
        <ele>109.4</ele>
        <time>2023-08-06T19:34:41Z</time>
      </trkpt>
      <trkpt lat="49.59296" lon="3.57448">
        <ele>109.2</ele>
        <time>2023-08-06T19:34:42Z</time>
      </trkpt>
      <trkpt lat="49.59293" lon="3.57451">
        <ele>109.2</ele>
        <time>2023-08-06T19:34:43Z</time>
      </trkpt>
      <trkpt lat="49.59283" lon="3.57468">
        <ele>109</ele>
        <time>2023-08-06T19:34:47Z</time>
      </trkpt>
      <trkpt lat="49.5928" lon="3.57471">
        <ele>108.8</ele>
        <time>2023-08-06T19:34:48Z</time>
      </trkpt>
      <trkpt lat="49.59266" lon="3.57481">
        <ele>108.8</ele>
        <time>2023-08-06T19:34:52Z</time>
      </trkpt>
      <trkpt lat="49.59241" lon="3.57485">
        <ele>108.6</ele>
        <time>2023-08-06T19:34:58Z</time>
      </trkpt>
      <trkpt lat="49.59237" lon="3.57486">
        <ele>108.6</ele>
        <time>2023-08-06T19:34:59Z</time>
      </trkpt>
      <trkpt lat="49.59234" lon="3.57487">
        <ele>108.4</ele>
        <time>2023-08-06T19:35:00Z</time>
      </trkpt>
      <trkpt lat="49.59231" lon="3.5749">
        <ele>108.6</ele>
        <time>2023-08-06T19:35:01Z</time>
      </trkpt>
      <trkpt lat="49.5923" lon="3.57492">
        <ele>108.4</ele>
        <time>2023-08-06T19:35:02Z</time>
      </trkpt>
      <trkpt lat="49.5923" lon="3.57495">
        <ele>108.4</ele>
        <time>2023-08-06T19:35:03Z</time>
      </trkpt>
      <trkpt lat="49.59231" lon="3.57498">
        <ele>108.4</ele>
        <time>2023-08-06T19:35:04Z</time>
      </trkpt>
      <trkpt lat="49.59232" lon="3.57501">
        <ele>108.2</ele>
        <time>2023-08-06T19:35:05Z</time>
      </trkpt>
      <trkpt lat="49.59235" lon="3.57503">
        <ele>108.2</ele>
        <time>2023-08-06T19:35:06Z</time>
      </trkpt>
      <trkpt lat="49.59236" lon="3.57504">
        <ele>108.2</ele>
        <time>2023-08-06T19:35:07Z</time>
      </trkpt>
      <trkpt lat="49.59238" lon="3.57506">
        <ele>108.4</ele>
        <time>2023-08-06T19:35:08Z</time>
      </trkpt>
      <trkpt lat="49.59241" lon="3.57509">
        <ele>108.4</ele>
        <time>2023-08-06T19:35:09Z</time>
      </trkpt>
      <trkpt lat="49.59248" lon="3.57519">
        <ele>108</ele>
        <time>2023-08-06T19:35:13Z</time>
      </trkpt>
      <trkpt lat="49.59248" lon="3.57522">
        <ele>108</ele>
        <time>2023-08-06T19:35:14Z</time>
      </trkpt>
      <trkpt lat="49.59247" lon="3.57525">
        <ele>108</ele>
        <time>2023-08-06T19:35:15Z</time>
      </trkpt>
      <trkpt lat="49.59246" lon="3.57528">
        <ele>108</ele>
        <time>2023-08-06T19:35:16Z</time>
      </trkpt>
      <trkpt lat="49.59242" lon="3.57536">
        <ele>107.6</ele>
        <time>2023-08-06T19:35:18Z</time>
      </trkpt>
      <trkpt lat="49.59239" lon="3.57541">
        <ele>107.6</ele>
        <time>2023-08-06T19:35:19Z</time>
      </trkpt>
      <trkpt lat="49.59232" lon="3.57553">
        <ele>107.4</ele>
        <time>2023-08-06T19:35:21Z</time>
      </trkpt>
      <trkpt lat="49.59221" lon="3.5757">
        <ele>107</ele>
        <time>2023-08-06T19:35:24Z</time>
      </trkpt>
      <trkpt lat="49.59217" lon="3.57577">
        <ele>106.8</ele>
        <time>2023-08-06T19:35:25Z</time>
      </trkpt>
      <trkpt lat="49.59211" lon="3.57587">
        <ele>106.4</ele>
        <time>2023-08-06T19:35:27Z</time>
      </trkpt>
      <trkpt lat="49.59208" lon="3.57592">
        <ele>106.4</ele>
        <time>2023-08-06T19:35:28Z</time>
      </trkpt>
      <trkpt lat="49.59196" lon="3.57613">
        <ele>106.2</ele>
        <time>2023-08-06T19:35:32Z</time>
      </trkpt>
      <trkpt lat="49.59193" lon="3.57617">
        <ele>106.2</ele>
        <time>2023-08-06T19:35:33Z</time>
      </trkpt>
      <trkpt lat="49.5919" lon="3.57622">
        <ele>106.2</ele>
        <time>2023-08-06T19:35:34Z</time>
      </trkpt>
      <trkpt lat="49.59186" lon="3.57627">
        <ele>106.2</ele>
        <time>2023-08-06T19:35:35Z</time>
      </trkpt>
      <trkpt lat="49.59184" lon="3.57631">
        <ele>106.2</ele>
        <time>2023-08-06T19:35:36Z</time>
      </trkpt>
      <trkpt lat="49.59182" lon="3.57635">
        <ele>106</ele>
        <time>2023-08-06T19:35:37Z</time>
      </trkpt>
      <trkpt lat="49.59179" lon="3.57639">
        <ele>106</ele>
        <time>2023-08-06T19:35:38Z</time>
      </trkpt>
      <trkpt lat="49.59177" lon="3.57643">
        <ele>105.8</ele>
        <time>2023-08-06T19:35:39Z</time>
      </trkpt>
      <trkpt lat="49.59173" lon="3.57648">
        <ele>105.8</ele>
        <time>2023-08-06T19:35:40Z</time>
      </trkpt>
      <trkpt lat="49.59171" lon="3.57652">
        <ele>105.8</ele>
        <time>2023-08-06T19:35:41Z</time>
      </trkpt>
      <trkpt lat="49.59168" lon="3.57657">
        <ele>106</ele>
        <time>2023-08-06T19:35:42Z</time>
      </trkpt>
      <trkpt lat="49.59137" lon="3.57707">
        <ele>106.6</ele>
        <time>2023-08-06T19:35:52Z</time>
      </trkpt>
      <trkpt lat="49.59119" lon="3.57738">
        <ele>106.6</ele>
        <time>2023-08-06T19:35:58Z</time>
      </trkpt>
      <trkpt lat="49.59116" lon="3.57742">
        <ele>107</ele>
        <time>2023-08-06T19:35:59Z</time>
      </trkpt>
      <trkpt lat="49.59113" lon="3.57747">
        <ele>106.8</ele>
        <time>2023-08-06T19:36:00Z</time>
      </trkpt>
      <trkpt lat="49.5911" lon="3.57752">
        <ele>107.2</ele>
        <time>2023-08-06T19:36:01Z</time>
      </trkpt>
      <trkpt lat="49.59108" lon="3.57756">
        <ele>107.2</ele>
        <time>2023-08-06T19:36:02Z</time>
      </trkpt>
      <trkpt lat="49.59105" lon="3.57761">
        <ele>107.4</ele>
        <time>2023-08-06T19:36:03Z</time>
      </trkpt>
      <trkpt lat="49.59102" lon="3.57765">
        <ele>107.6</ele>
        <time>2023-08-06T19:36:04Z</time>
      </trkpt>
      <trkpt lat="49.591" lon="3.5777">
        <ele>107.6</ele>
        <time>2023-08-06T19:36:05Z</time>
      </trkpt>
      <trkpt lat="49.59097" lon="3.57774">
        <ele>107.6</ele>
        <time>2023-08-06T19:36:06Z</time>
      </trkpt>
      <trkpt lat="49.59094" lon="3.57778">
        <ele>107.8</ele>
        <time>2023-08-06T19:36:07Z</time>
      </trkpt>
      <trkpt lat="49.59091" lon="3.57784">
        <ele>107.8</ele>
        <time>2023-08-06T19:36:08Z</time>
      </trkpt>
      <trkpt lat="49.59088" lon="3.57788">
        <ele>108.2</ele>
        <time>2023-08-06T19:36:09Z</time>
      </trkpt>
      <trkpt lat="49.59086" lon="3.57792">
        <ele>108.2</ele>
        <time>2023-08-06T19:36:10Z</time>
      </trkpt>
      <trkpt lat="49.59084" lon="3.57796">
        <ele>108.4</ele>
        <time>2023-08-06T19:36:11Z</time>
      </trkpt>
      <trkpt lat="49.59081" lon="3.57801">
        <ele>108.4</ele>
        <time>2023-08-06T19:36:12Z</time>
      </trkpt>
      <trkpt lat="49.59078" lon="3.57805">
        <ele>108.6</ele>
        <time>2023-08-06T19:36:13Z</time>
      </trkpt>
      <trkpt lat="49.59068" lon="3.57824">
        <ele>108.8</ele>
        <time>2023-08-06T19:36:17Z</time>
      </trkpt>
      <trkpt lat="49.59066" lon="3.57828">
        <ele>109.2</ele>
        <time>2023-08-06T19:36:18Z</time>
      </trkpt>
      <trkpt lat="49.59061" lon="3.57837">
        <ele>109.4</ele>
        <time>2023-08-06T19:36:20Z</time>
      </trkpt>
      <trkpt lat="49.59053" lon="3.5785">
        <ele>109.6</ele>
        <time>2023-08-06T19:36:23Z</time>
      </trkpt>
      <trkpt lat="49.59042" lon="3.57868">
        <ele>110.2</ele>
        <time>2023-08-06T19:36:27Z</time>
      </trkpt>
      <trkpt lat="49.59027" lon="3.57893">
        <ele>110.6</ele>
        <time>2023-08-06T19:36:32Z</time>
      </trkpt>
      <trkpt lat="49.59005" lon="3.5793">
        <ele>111.2</ele>
        <time>2023-08-06T19:36:40Z</time>
      </trkpt>
      <trkpt lat="49.59002" lon="3.57934">
        <ele>111.4</ele>
        <time>2023-08-06T19:36:41Z</time>
      </trkpt>
      <trkpt lat="49.58999" lon="3.57939">
        <ele>111.6</ele>
        <time>2023-08-06T19:36:42Z</time>
      </trkpt>
      <trkpt lat="49.58997" lon="3.57942">
        <ele>111.6</ele>
        <time>2023-08-06T19:36:43Z</time>
      </trkpt>
      <trkpt lat="49.58995" lon="3.57945">
        <ele>111.8</ele>
        <time>2023-08-06T19:36:44Z</time>
      </trkpt>
      <trkpt lat="49.58993" lon="3.57948">
        <ele>112</ele>
        <time>2023-08-06T19:36:45Z</time>
      </trkpt>
      <trkpt lat="49.58991" lon="3.57952">
        <ele>112</ele>
        <time>2023-08-06T19:36:46Z</time>
      </trkpt>
      <trkpt lat="49.58989" lon="3.57955">
        <ele>112</ele>
        <time>2023-08-06T19:36:47Z</time>
      </trkpt>
      <trkpt lat="49.58986" lon="3.57959">
        <ele>112</ele>
        <time>2023-08-06T19:36:48Z</time>
      </trkpt>
      <trkpt lat="49.58984" lon="3.57962">
        <ele>112</ele>
        <time>2023-08-06T19:36:49Z</time>
      </trkpt>
      <trkpt lat="49.58982" lon="3.57966">
        <ele>112.2</ele>
        <time>2023-08-06T19:36:50Z</time>
      </trkpt>
      <trkpt lat="49.5898" lon="3.5797">
        <ele>112.2</ele>
        <time>2023-08-06T19:36:51Z</time>
      </trkpt>
      <trkpt lat="49.58978" lon="3.57974">
        <ele>112</ele>
        <time>2023-08-06T19:36:52Z</time>
      </trkpt>
      <trkpt lat="49.58958" lon="3.58007">
        <ele>112.2</ele>
        <time>2023-08-06T19:37:01Z</time>
      </trkpt>
      <trkpt lat="49.58938" lon="3.58041">
        <ele>111.8</ele>
        <time>2023-08-06T19:37:10Z</time>
      </trkpt>
      <trkpt lat="49.58936" lon="3.58044">
        <ele>111.8</ele>
        <time>2023-08-06T19:37:11Z</time>
      </trkpt>
      <trkpt lat="49.58935" lon="3.58046">
        <ele>111.6</ele>
        <time>2023-08-06T19:37:12Z</time>
      </trkpt>
      <trkpt lat="49.58932" lon="3.58049">
        <ele>111.6</ele>
        <time>2023-08-06T19:37:13Z</time>
      </trkpt>
      <trkpt lat="49.58931" lon="3.58051">
        <ele>111.8</ele>
        <time>2023-08-06T19:37:14Z</time>
      </trkpt>
      <trkpt lat="49.58929" lon="3.58054">
        <ele>111.6</ele>
        <time>2023-08-06T19:37:15Z</time>
      </trkpt>
      <trkpt lat="49.58928" lon="3.58056">
        <ele>111.6</ele>
        <time>2023-08-06T19:37:16Z</time>
      </trkpt>
      <trkpt lat="49.58927" lon="3.58058">
        <ele>111.6</ele>
        <time>2023-08-06T19:37:17Z</time>
      </trkpt>
      <trkpt lat="49.58925" lon="3.58061">
        <ele>111.4</ele>
        <time>2023-08-06T19:37:18Z</time>
      </trkpt>
      <trkpt lat="49.58924" lon="3.58062">
        <ele>111.4</ele>
        <time>2023-08-06T19:37:19Z</time>
      </trkpt>
      <trkpt lat="49.58924" lon="3.58063">
        <ele>111.2</ele>
        <time>2023-08-06T19:37:20Z</time>
      </trkpt>
      <trkpt lat="49.58923" lon="3.58064">
        <ele>111</ele>
        <time>2023-08-06T19:37:21Z</time>
      </trkpt>
      <trkpt lat="49.58923" lon="3.58064">
        <ele>111</ele>
        <time>2023-08-06T19:37:23Z</time>
      </trkpt>
      <trkpt lat="49.58879" lon="3.58136">
        <ele>107.8</ele>
        <time>2023-08-06T19:39:35Z</time>
      </trkpt>
      <trkpt lat="49.58875" lon="3.58143">
        <ele>108</ele>
        <time>2023-08-06T19:39:38Z</time>
      </trkpt>
      <trkpt lat="49.58863" lon="3.58165">
        <ele>108</ele>
        <time>2023-08-06T19:39:45Z</time>
      </trkpt>
      <trkpt lat="49.58855" lon="3.58176">
        <ele>108.2</ele>
        <time>2023-08-06T19:39:48Z</time>
      </trkpt>
      <trkpt lat="49.58847" lon="3.5819">
        <ele>108</ele>
        <time>2023-08-06T19:39:52Z</time>
      </trkpt>
      <trkpt lat="49.58827" lon="3.58224">
        <ele>107.6</ele>
        <time>2023-08-06T19:40:00Z</time>
      </trkpt>
      <trkpt lat="49.5881" lon="3.58252">
        <ele>107.2</ele>
        <time>2023-08-06T19:40:07Z</time>
      </trkpt>
      <trkpt lat="49.58808" lon="3.58256">
        <ele>107.2</ele>
        <time>2023-08-06T19:40:08Z</time>
      </trkpt>
      <trkpt lat="49.58805" lon="3.58259">
        <ele>107.2</ele>
        <time>2023-08-06T19:40:09Z</time>
      </trkpt>
      <trkpt lat="49.58803" lon="3.58263">
        <ele>107.2</ele>
        <time>2023-08-06T19:40:10Z</time>
      </trkpt>
      <trkpt lat="49.588" lon="3.58268">
        <ele>107</ele>
        <time>2023-08-06T19:40:11Z</time>
      </trkpt>
      <trkpt lat="49.58773" lon="3.58311">
        <ele>107.4</ele>
        <time>2023-08-06T19:40:21Z</time>
      </trkpt>
      <trkpt lat="49.58766" lon="3.58323">
        <ele>107.6</ele>
        <time>2023-08-06T19:40:24Z</time>
      </trkpt>
      <trkpt lat="49.58763" lon="3.58327">
        <ele>107.6</ele>
        <time>2023-08-06T19:40:25Z</time>
      </trkpt>
      <trkpt lat="49.58761" lon="3.5833">
        <ele>107.6</ele>
        <time>2023-08-06T19:40:26Z</time>
      </trkpt>
      <trkpt lat="49.58759" lon="3.58334">
        <ele>107.6</ele>
        <time>2023-08-06T19:40:27Z</time>
      </trkpt>
      <trkpt lat="49.58757" lon="3.58338">
        <ele>107.6</ele>
        <time>2023-08-06T19:40:28Z</time>
      </trkpt>
      <trkpt lat="49.58755" lon="3.58342">
        <ele>107.4</ele>
        <time>2023-08-06T19:40:29Z</time>
      </trkpt>
      <trkpt lat="49.58752" lon="3.58346">
        <ele>107.2</ele>
        <time>2023-08-06T19:40:30Z</time>
      </trkpt>
      <trkpt lat="49.58729" lon="3.58382">
        <ele>106.8</ele>
        <time>2023-08-06T19:40:38Z</time>
      </trkpt>
      <trkpt lat="49.5872" lon="3.58396">
        <ele>106.8</ele>
        <time>2023-08-06T19:40:41Z</time>
      </trkpt>
      <trkpt lat="49.58697" lon="3.58432">
        <ele>106.6</ele>
        <time>2023-08-06T19:40:48Z</time>
      </trkpt>
      <trkpt lat="49.5867" lon="3.58475">
        <ele>106.8</ele>
        <time>2023-08-06T19:40:57Z</time>
      </trkpt>
      <trkpt lat="49.58668" lon="3.58479">
        <ele>106.8</ele>
        <time>2023-08-06T19:40:58Z</time>
      </trkpt>
      <trkpt lat="49.58665" lon="3.58484">
        <ele>107</ele>
        <time>2023-08-06T19:40:59Z</time>
      </trkpt>
      <trkpt lat="49.58662" lon="3.58489">
        <ele>107</ele>
        <time>2023-08-06T19:41:00Z</time>
      </trkpt>
      <trkpt lat="49.58659" lon="3.58494">
        <ele>106.8</ele>
        <time>2023-08-06T19:41:01Z</time>
      </trkpt>
      <trkpt lat="49.58656" lon="3.58499">
        <ele>106.8</ele>
        <time>2023-08-06T19:41:02Z</time>
      </trkpt>
      <trkpt lat="49.58653" lon="3.58504">
        <ele>106.8</ele>
        <time>2023-08-06T19:41:03Z</time>
      </trkpt>
      <trkpt lat="49.58645" lon="3.58516">
        <ele>106.8</ele>
        <time>2023-08-06T19:41:06Z</time>
      </trkpt>
      <trkpt lat="49.58637" lon="3.58529">
        <ele>106.6</ele>
        <time>2023-08-06T19:41:09Z</time>
      </trkpt>
      <trkpt lat="49.58634" lon="3.58533">
        <ele>106.6</ele>
        <time>2023-08-06T19:41:10Z</time>
      </trkpt>
      <trkpt lat="49.58631" lon="3.58537">
        <ele>106.6</ele>
        <time>2023-08-06T19:41:11Z</time>
      </trkpt>
      <trkpt lat="49.58627" lon="3.58541">
        <ele>106.6</ele>
        <time>2023-08-06T19:41:12Z</time>
      </trkpt>
      <trkpt lat="49.58613" lon="3.58557">
        <ele>106.6</ele>
        <time>2023-08-06T19:41:16Z</time>
      </trkpt>
      <trkpt lat="49.58604" lon="3.5857">
        <ele>106.6</ele>
        <time>2023-08-06T19:41:19Z</time>
      </trkpt>
      <trkpt lat="49.58602" lon="3.58575">
        <ele>106.6</ele>
        <time>2023-08-06T19:41:20Z</time>
      </trkpt>
      <trkpt lat="49.58601" lon="3.5858">
        <ele>106.6</ele>
        <time>2023-08-06T19:41:21Z</time>
      </trkpt>
      <trkpt lat="49.58602" lon="3.58584">
        <ele>106.6</ele>
        <time>2023-08-06T19:41:22Z</time>
      </trkpt>
      <trkpt lat="49.58604" lon="3.58586">
        <ele>106.6</ele>
        <time>2023-08-06T19:41:23Z</time>
      </trkpt>
      <trkpt lat="49.58605" lon="3.58588">
        <ele>106.6</ele>
        <time>2023-08-06T19:41:24Z</time>
      </trkpt>
      <trkpt lat="49.58607" lon="3.58589">
        <ele>106.4</ele>
        <time>2023-08-06T19:41:25Z</time>
      </trkpt>
      <trkpt lat="49.58608" lon="3.58589">
        <ele>106.4</ele>
        <time>2023-08-06T19:41:26Z</time>
      </trkpt>
      <trkpt lat="49.58608" lon="3.58589">
        <ele>106.4</ele>
        <time>2023-08-06T19:41:27Z</time>
      </trkpt>
      <trkpt lat="49.58608" lon="3.58589">
        <ele>106.4</ele>
        <time>2023-08-06T19:41:28Z</time>
      </trkpt>
      <trkpt lat="49.58609" lon="3.58593">
        <ele>106.2</ele>
        <time>2023-08-06T19:41:29Z</time>
      </trkpt>
      <trkpt lat="49.58615" lon="3.586">
        <ele>106</ele>
        <time>2023-08-06T19:41:32Z</time>
      </trkpt>
      <trkpt lat="49.58616" lon="3.58603">
        <ele>106</ele>
        <time>2023-08-06T19:41:33Z</time>
      </trkpt>
      <trkpt lat="49.58618" lon="3.58607">
        <ele>106</ele>
        <time>2023-08-06T19:41:34Z</time>
      </trkpt>
      <trkpt lat="49.58627" lon="3.58625">
        <ele>105.6</ele>
        <time>2023-08-06T19:41:39Z</time>
      </trkpt>
      <trkpt lat="49.58629" lon="3.5865">
        <ele>105.8</ele>
        <time>2023-08-06T19:41:45Z</time>
      </trkpt>
      <trkpt lat="49.58629" lon="3.58656">
        <ele>106</ele>
        <time>2023-08-06T19:41:47Z</time>
      </trkpt>
      <trkpt lat="49.58628" lon="3.5866">
        <ele>106.2</ele>
        <time>2023-08-06T19:41:48Z</time>
      </trkpt>
      <trkpt lat="49.58628" lon="3.58664">
        <ele>106.2</ele>
        <time>2023-08-06T19:41:49Z</time>
      </trkpt>
      <trkpt lat="49.58628" lon="3.58667">
        <ele>106.4</ele>
        <time>2023-08-06T19:41:50Z</time>
      </trkpt>
      <trkpt lat="49.58625" lon="3.5868">
        <ele>107</ele>
        <time>2023-08-06T19:41:53Z</time>
      </trkpt>
      <trkpt lat="49.58618" lon="3.58714">
        <ele>107.4</ele>
        <time>2023-08-06T19:42:03Z</time>
      </trkpt>
      <trkpt lat="49.58617" lon="3.58718">
        <ele>107.2</ele>
        <time>2023-08-06T19:42:04Z</time>
      </trkpt>
      <trkpt lat="49.58616" lon="3.58723">
        <ele>107.2</ele>
        <time>2023-08-06T19:42:05Z</time>
      </trkpt>
      <trkpt lat="49.58613" lon="3.58748">
        <ele>107</ele>
        <time>2023-08-06T19:42:12Z</time>
      </trkpt>
      <trkpt lat="49.58613" lon="3.58764">
        <ele>107</ele>
        <time>2023-08-06T19:42:16Z</time>
      </trkpt>
      <trkpt lat="49.58613" lon="3.58767">
        <ele>107</ele>
        <time>2023-08-06T19:42:17Z</time>
      </trkpt>
      <trkpt lat="49.58614" lon="3.5877">
        <ele>107</ele>
        <time>2023-08-06T19:42:18Z</time>
      </trkpt>
      <trkpt lat="49.58614" lon="3.58774">
        <ele>107</ele>
        <time>2023-08-06T19:42:19Z</time>
      </trkpt>
      <trkpt lat="49.58617" lon="3.588">
        <ele>107</ele>
        <time>2023-08-06T19:42:26Z</time>
      </trkpt>
      <trkpt lat="49.58621" lon="3.58842">
        <ele>106.8</ele>
        <time>2023-08-06T19:42:37Z</time>
      </trkpt>
      <trkpt lat="49.58621" lon="3.58846">
        <ele>106.8</ele>
        <time>2023-08-06T19:42:38Z</time>
      </trkpt>
      <trkpt lat="49.58625" lon="3.58895">
        <ele>107</ele>
        <time>2023-08-06T19:42:50Z</time>
      </trkpt>
      <trkpt lat="49.58628" lon="3.58939">
        <ele>107</ele>
        <time>2023-08-06T19:43:00Z</time>
      </trkpt>
      <trkpt lat="49.58631" lon="3.58984">
        <ele>107.2</ele>
        <time>2023-08-06T19:43:09Z</time>
      </trkpt>
      <trkpt lat="49.58633" lon="3.59005">
        <ele>107</ele>
        <time>2023-08-06T19:43:13Z</time>
      </trkpt>
      <trkpt lat="49.58636" lon="3.59053">
        <ele>106.8</ele>
        <time>2023-08-06T19:43:22Z</time>
      </trkpt>
      <trkpt lat="49.58636" lon="3.59068">
        <ele>106.6</ele>
        <time>2023-08-06T19:43:25Z</time>
      </trkpt>
      <trkpt lat="49.58636" lon="3.59072">
        <ele>106.6</ele>
        <time>2023-08-06T19:43:26Z</time>
      </trkpt>
      <trkpt lat="49.58636" lon="3.59076">
        <ele>106.8</ele>
        <time>2023-08-06T19:43:27Z</time>
      </trkpt>
      <trkpt lat="49.58636" lon="3.5908">
        <ele>106.8</ele>
        <time>2023-08-06T19:43:28Z</time>
      </trkpt>
      <trkpt lat="49.58636" lon="3.59084">
        <ele>106.8</ele>
        <time>2023-08-06T19:43:29Z</time>
      </trkpt>
      <trkpt lat="49.58636" lon="3.59087">
        <ele>106.8</ele>
        <time>2023-08-06T19:43:30Z</time>
      </trkpt>
      <trkpt lat="49.58637" lon="3.59114">
        <ele>107</ele>
        <time>2023-08-06T19:43:36Z</time>
      </trkpt>
      <trkpt lat="49.5864" lon="3.59156">
        <ele>106.8</ele>
        <time>2023-08-06T19:43:44Z</time>
      </trkpt>
      <trkpt lat="49.58641" lon="3.5917">
        <ele>106.8</ele>
        <time>2023-08-06T19:43:47Z</time>
      </trkpt>
      <trkpt lat="49.58639" lon="3.59173">
        <ele>106.6</ele>
        <time>2023-08-06T19:43:48Z</time>
      </trkpt>
      <trkpt lat="49.58631" lon="3.59177">
        <ele>106.4</ele>
        <time>2023-08-06T19:43:51Z</time>
      </trkpt>
      <trkpt lat="49.58631" lon="3.59177">
        <ele>106.4</ele>
        <time>2023-08-06T19:43:52Z</time>
      </trkpt>
      <trkpt lat="49.58626" lon="3.59179">
        <ele>106.6</ele>
        <time>2023-08-06T19:43:53Z</time>
      </trkpt>
      <trkpt lat="49.58626" lon="3.59179">
        <ele>106.6</ele>
        <time>2023-08-06T19:43:54Z</time>
      </trkpt>
      <trkpt lat="49.58621" lon="3.59182">
        <ele>106.6</ele>
        <time>2023-08-06T19:43:55Z</time>
      </trkpt>
      <trkpt lat="49.58619" lon="3.59183">
        <ele>106.6</ele>
        <time>2023-08-06T19:43:56Z</time>
      </trkpt>
      <trkpt lat="49.58618" lon="3.59183">
        <ele>106.6</ele>
        <time>2023-08-06T19:43:57Z</time>
      </trkpt>
      <trkpt lat="49.58617" lon="3.59183">
        <ele>106.6</ele>
        <time>2023-08-06T19:43:58Z</time>
      </trkpt>
      <trkpt lat="49.58617" lon="3.59183">
        <ele>106.6</ele>
        <time>2023-08-06T19:43:59Z</time>
      </trkpt>
      <trkpt lat="49.58611" lon="3.59186">
        <ele>104.4</ele>
        <time>2023-08-06T19:45:28Z</time>
      </trkpt>
      <trkpt lat="49.58608" lon="3.59188">
        <ele>104.2</ele>
        <time>2023-08-06T19:45:30Z</time>
      </trkpt>
      <trkpt lat="49.58607" lon="3.59189">
        <ele>104.2</ele>
        <time>2023-08-06T19:45:31Z</time>
      </trkpt>
      <trkpt lat="49.58595" lon="3.59195">
        <ele>104</ele>
        <time>2023-08-06T19:45:36Z</time>
      </trkpt>
      <trkpt lat="49.58586" lon="3.59199">
        <ele>104</ele>
        <time>2023-08-06T19:45:39Z</time>
      </trkpt>
      <trkpt lat="49.58578" lon="3.59202">
        <ele>103.8</ele>
        <time>2023-08-06T19:45:42Z</time>
      </trkpt>
      <trkpt lat="49.58551" lon="3.59213">
        <ele>104.2</ele>
        <time>2023-08-06T19:45:51Z</time>
      </trkpt>
      <trkpt lat="49.58523" lon="3.59225">
        <ele>104.4</ele>
        <time>2023-08-06T19:46:00Z</time>
      </trkpt>
      <trkpt lat="49.58491" lon="3.59238">
        <ele>104.6</ele>
        <time>2023-08-06T19:46:10Z</time>
      </trkpt>
      <trkpt lat="49.58462" lon="3.59251">
        <ele>104.8</ele>
        <time>2023-08-06T19:46:19Z</time>
      </trkpt>
      <trkpt lat="49.58449" lon="3.59256">
        <ele>105</ele>
        <time>2023-08-06T19:46:23Z</time>
      </trkpt>
      <trkpt lat="49.58446" lon="3.59257">
        <ele>104.8</ele>
        <time>2023-08-06T19:46:24Z</time>
      </trkpt>
      <trkpt lat="49.58433" lon="3.59262">
        <ele>105</ele>
        <time>2023-08-06T19:46:28Z</time>
      </trkpt>
      <trkpt lat="49.58392" lon="3.59277">
        <ele>105</ele>
        <time>2023-08-06T19:46:40Z</time>
      </trkpt>
      <trkpt lat="49.58386" lon="3.59279">
        <ele>105.2</ele>
        <time>2023-08-06T19:46:43Z</time>
      </trkpt>
      <trkpt lat="49.58379" lon="3.59281">
        <ele>105.2</ele>
        <time>2023-08-06T19:46:44Z</time>
      </trkpt>
      <trkpt lat="49.58376" lon="3.59283">
        <ele>105.2</ele>
        <time>2023-08-06T19:46:45Z</time>
      </trkpt>
      <trkpt lat="49.58363" lon="3.59288">
        <ele>105.6</ele>
        <time>2023-08-06T19:46:49Z</time>
      </trkpt>
      <trkpt lat="49.58332" lon="3.59301">
        <ele>105.8</ele>
        <time>2023-08-06T19:46:59Z</time>
      </trkpt>
      <trkpt lat="49.58328" lon="3.59301">
        <ele>105.8</ele>
        <time>2023-08-06T19:47:00Z</time>
      </trkpt>
      <trkpt lat="49.58328" lon="3.59301">
        <ele>105.8</ele>
        <time>2023-08-06T19:47:01Z</time>
      </trkpt>
      <trkpt lat="49.58325" lon="3.59302">
        <ele>105.8</ele>
        <time>2023-08-06T19:47:02Z</time>
      </trkpt>
      <trkpt lat="49.58322" lon="3.59303">
        <ele>106</ele>
        <time>2023-08-06T19:47:03Z</time>
      </trkpt>
      <trkpt lat="49.58317" lon="3.59304">
        <ele>106</ele>
        <time>2023-08-06T19:47:04Z</time>
      </trkpt>
      <trkpt lat="49.58317" lon="3.59304">
        <ele>106</ele>
        <time>2023-08-06T19:47:05Z</time>
      </trkpt>
      <trkpt lat="49.58312" lon="3.59305">
        <ele>106.2</ele>
        <time>2023-08-06T19:47:06Z</time>
      </trkpt>
      <trkpt lat="49.58312" lon="3.59305">
        <ele>106.2</ele>
        <time>2023-08-06T19:47:07Z</time>
      </trkpt>
      <trkpt lat="49.58307" lon="3.59307">
        <ele>106.2</ele>
        <time>2023-08-06T19:47:08Z</time>
      </trkpt>
      <trkpt lat="49.58305" lon="3.59307">
        <ele>106.2</ele>
        <time>2023-08-06T19:47:09Z</time>
      </trkpt>
      <trkpt lat="49.58305" lon="3.59307">
        <ele>106.2</ele>
        <time>2023-08-06T19:47:10Z</time>
      </trkpt>
      <trkpt lat="49.583" lon="3.59308">
        <ele>106.4</ele>
        <time>2023-08-06T19:47:11Z</time>
      </trkpt>
      <trkpt lat="49.583" lon="3.59308">
        <ele>106.4</ele>
        <time>2023-08-06T19:47:12Z</time>
      </trkpt>
      <trkpt lat="49.58297" lon="3.59309">
        <ele>106.4</ele>
        <time>2023-08-06T19:47:13Z</time>
      </trkpt>
      <trkpt lat="49.58295" lon="3.59309">
        <ele>106.4</ele>
        <time>2023-08-06T19:47:14Z</time>
      </trkpt>
      <trkpt lat="49.58293" lon="3.5931">
        <ele>106.4</ele>
        <time>2023-08-06T19:47:15Z</time>
      </trkpt>
      <trkpt lat="49.58275" lon="3.59312">
        <ele>106.6</ele>
        <time>2023-08-06T19:47:22Z</time>
      </trkpt>
      <trkpt lat="49.58272" lon="3.59312">
        <ele>106.6</ele>
        <time>2023-08-06T19:47:23Z</time>
      </trkpt>
      <trkpt lat="49.58252" lon="3.59313">
        <ele>106.8</ele>
        <time>2023-08-06T19:47:30Z</time>
      </trkpt>
      <trkpt lat="49.58249" lon="3.59314">
        <ele>107</ele>
        <time>2023-08-06T19:47:31Z</time>
      </trkpt>
      <trkpt lat="49.58246" lon="3.59314">
        <ele>107</ele>
        <time>2023-08-06T19:47:33Z</time>
      </trkpt>
      <trkpt lat="49.58231" lon="3.59315">
        <ele>107.2</ele>
        <time>2023-08-06T19:47:39Z</time>
      </trkpt>
      <trkpt lat="49.58229" lon="3.59316">
        <ele>107.4</ele>
        <time>2023-08-06T19:47:40Z</time>
      </trkpt>
      <trkpt lat="49.58224" lon="3.59316">
        <ele>107.8</ele>
        <time>2023-08-06T19:47:42Z</time>
      </trkpt>
      <trkpt lat="49.58222" lon="3.59317">
        <ele>107.8</ele>
        <time>2023-08-06T19:47:43Z</time>
      </trkpt>
      <trkpt lat="49.58221" lon="3.59317">
        <ele>108</ele>
        <time>2023-08-06T19:47:44Z</time>
      </trkpt>
      <trkpt lat="49.58215" lon="3.59317">
        <ele>108.2</ele>
        <time>2023-08-06T19:47:45Z</time>
      </trkpt>
      <trkpt lat="49.58215" lon="3.59317">
        <ele>108.4</ele>
        <time>2023-08-06T19:47:46Z</time>
      </trkpt>
      <trkpt lat="49.5821" lon="3.59317">
        <ele>108.6</ele>
        <time>2023-08-06T19:47:48Z</time>
      </trkpt>
      <trkpt lat="49.58202" lon="3.59317">
        <ele>109</ele>
        <time>2023-08-06T19:47:50Z</time>
      </trkpt>
      <trkpt lat="49.58199" lon="3.59317">
        <ele>109</ele>
        <time>2023-08-06T19:47:51Z</time>
      </trkpt>
      <trkpt lat="49.58177" lon="3.59318">
        <ele>110</ele>
        <time>2023-08-06T19:48:00Z</time>
      </trkpt>
      <trkpt lat="49.58174" lon="3.59318">
        <ele>110.2</ele>
        <time>2023-08-06T19:48:01Z</time>
      </trkpt>
      <trkpt lat="49.58171" lon="3.59318">
        <ele>110.4</ele>
        <time>2023-08-06T19:48:03Z</time>
      </trkpt>
      <trkpt lat="49.58159" lon="3.59319">
        <ele>110.8</ele>
        <time>2023-08-06T19:48:07Z</time>
      </trkpt>
      <trkpt lat="49.58155" lon="3.59319">
        <ele>110.8</ele>
        <time>2023-08-06T19:48:08Z</time>
      </trkpt>
      <trkpt lat="49.58152" lon="3.5932">
        <ele>111</ele>
        <time>2023-08-06T19:48:09Z</time>
      </trkpt>
      <trkpt lat="49.58144" lon="3.5932">
        <ele>111</ele>
        <time>2023-08-06T19:48:10Z</time>
      </trkpt>
      <trkpt lat="49.58144" lon="3.5932">
        <ele>111</ele>
        <time>2023-08-06T19:48:11Z</time>
      </trkpt>
      <trkpt lat="49.58135" lon="3.59321">
        <ele>111.2</ele>
        <time>2023-08-06T19:48:12Z</time>
      </trkpt>
      <trkpt lat="49.58135" lon="3.59321">
        <ele>111.4</ele>
        <time>2023-08-06T19:48:13Z</time>
      </trkpt>
      <trkpt lat="49.58131" lon="3.59321">
        <ele>111.4</ele>
        <time>2023-08-06T19:48:14Z</time>
      </trkpt>
      <trkpt lat="49.58123" lon="3.59322">
        <ele>111.8</ele>
        <time>2023-08-06T19:48:15Z</time>
      </trkpt>
      <trkpt lat="49.58109" lon="3.59324">
        <ele>112</ele>
        <time>2023-08-06T19:48:19Z</time>
      </trkpt>
      <trkpt lat="49.5806" lon="3.59334">
        <ele>112.8</ele>
        <time>2023-08-06T19:48:28Z</time>
      </trkpt>
      <trkpt lat="49.5805" lon="3.59336">
        <ele>112.8</ele>
        <time>2023-08-06T19:48:30Z</time>
      </trkpt>
      <trkpt lat="49.57992" lon="3.59349">
        <ele>113.2</ele>
        <time>2023-08-06T19:48:41Z</time>
      </trkpt>
      <trkpt lat="49.57937" lon="3.59361">
        <ele>113.6</ele>
        <time>2023-08-06T19:48:51Z</time>
      </trkpt>
      <trkpt lat="49.57931" lon="3.59362">
        <ele>113.6</ele>
        <time>2023-08-06T19:48:52Z</time>
      </trkpt>
      <trkpt lat="49.57885" lon="3.59374">
        <ele>114.2</ele>
        <time>2023-08-06T19:49:00Z</time>
      </trkpt>
      <trkpt lat="49.5788" lon="3.59375">
        <ele>114.2</ele>
        <time>2023-08-06T19:49:01Z</time>
      </trkpt>
      <trkpt lat="49.57875" lon="3.59376">
        <ele>114.2</ele>
        <time>2023-08-06T19:49:02Z</time>
      </trkpt>
      <trkpt lat="49.57869" lon="3.59377">
        <ele>114.4</ele>
        <time>2023-08-06T19:49:03Z</time>
      </trkpt>
      <trkpt lat="49.57864" lon="3.59378">
        <ele>114.4</ele>
        <time>2023-08-06T19:49:04Z</time>
      </trkpt>
      <trkpt lat="49.57859" lon="3.5938">
        <ele>114.4</ele>
        <time>2023-08-06T19:49:05Z</time>
      </trkpt>
      <trkpt lat="49.57854" lon="3.59381">
        <ele>114.4</ele>
        <time>2023-08-06T19:49:06Z</time>
      </trkpt>
      <trkpt lat="49.57849" lon="3.59382">
        <ele>114.4</ele>
        <time>2023-08-06T19:49:07Z</time>
      </trkpt>
      <trkpt lat="49.57843" lon="3.59383">
        <ele>114.4</ele>
        <time>2023-08-06T19:49:08Z</time>
      </trkpt>
      <trkpt lat="49.57839" lon="3.59384">
        <ele>114.4</ele>
        <time>2023-08-06T19:49:09Z</time>
      </trkpt>
      <trkpt lat="49.57834" lon="3.59385">
        <ele>114.4</ele>
        <time>2023-08-06T19:49:10Z</time>
      </trkpt>
      <trkpt lat="49.57829" lon="3.59386">
        <ele>114.4</ele>
        <time>2023-08-06T19:49:11Z</time>
      </trkpt>
      <trkpt lat="49.57824" lon="3.59387">
        <ele>114.6</ele>
        <time>2023-08-06T19:49:12Z</time>
      </trkpt>
      <trkpt lat="49.57818" lon="3.59388">
        <ele>114.6</ele>
        <time>2023-08-06T19:49:13Z</time>
      </trkpt>
      <trkpt lat="49.57787" lon="3.59395">
        <ele>114.8</ele>
        <time>2023-08-06T19:49:19Z</time>
      </trkpt>
      <trkpt lat="49.57739" lon="3.59404">
        <ele>115</ele>
        <time>2023-08-06T19:49:28Z</time>
      </trkpt>
      <trkpt lat="49.5769" lon="3.59416">
        <ele>115.6</ele>
        <time>2023-08-06T19:49:37Z</time>
      </trkpt>
      <trkpt lat="49.57674" lon="3.59419">
        <ele>115.8</ele>
        <time>2023-08-06T19:49:40Z</time>
      </trkpt>
      <trkpt lat="49.5767" lon="3.5942">
        <ele>115.8</ele>
        <time>2023-08-06T19:49:41Z</time>
      </trkpt>
      <trkpt lat="49.57664" lon="3.59422">
        <ele>115.8</ele>
        <time>2023-08-06T19:49:42Z</time>
      </trkpt>
      <trkpt lat="49.5766" lon="3.59423">
        <ele>115.8</ele>
        <time>2023-08-06T19:49:43Z</time>
      </trkpt>
      <trkpt lat="49.57655" lon="3.59424">
        <ele>115.8</ele>
        <time>2023-08-06T19:49:44Z</time>
      </trkpt>
      <trkpt lat="49.57649" lon="3.59425">
        <ele>116</ele>
        <time>2023-08-06T19:49:45Z</time>
      </trkpt>
      <trkpt lat="49.57645" lon="3.59427">
        <ele>116</ele>
        <time>2023-08-06T19:49:46Z</time>
      </trkpt>
      <trkpt lat="49.57641" lon="3.59428">
        <ele>116</ele>
        <time>2023-08-06T19:49:47Z</time>
      </trkpt>
      <trkpt lat="49.57636" lon="3.59429">
        <ele>116</ele>
        <time>2023-08-06T19:49:48Z</time>
      </trkpt>
      <trkpt lat="49.57631" lon="3.5943">
        <ele>116</ele>
        <time>2023-08-06T19:49:49Z</time>
      </trkpt>
      <trkpt lat="49.57625" lon="3.59431">
        <ele>116</ele>
        <time>2023-08-06T19:49:50Z</time>
      </trkpt>
      <trkpt lat="49.5762" lon="3.59432">
        <ele>116</ele>
        <time>2023-08-06T19:49:51Z</time>
      </trkpt>
      <trkpt lat="49.57617" lon="3.59433">
        <ele>116</ele>
        <time>2023-08-06T19:49:52Z</time>
      </trkpt>
      <trkpt lat="49.57607" lon="3.59435">
        <ele>116.2</ele>
        <time>2023-08-06T19:49:54Z</time>
      </trkpt>
      <trkpt lat="49.57602" lon="3.59436">
        <ele>116.2</ele>
        <time>2023-08-06T19:49:55Z</time>
      </trkpt>
      <trkpt lat="49.57596" lon="3.59437">
        <ele>116.4</ele>
        <time>2023-08-06T19:49:56Z</time>
      </trkpt>
      <trkpt lat="49.57592" lon="3.59438">
        <ele>116.4</ele>
        <time>2023-08-06T19:49:57Z</time>
      </trkpt>
      <trkpt lat="49.57588" lon="3.5944">
        <ele>116.4</ele>
        <time>2023-08-06T19:49:58Z</time>
      </trkpt>
      <trkpt lat="49.57572" lon="3.59443">
        <ele>116.4</ele>
        <time>2023-08-06T19:50:01Z</time>
      </trkpt>
      <trkpt lat="49.57545" lon="3.59448">
        <ele>116.4</ele>
        <time>2023-08-06T19:50:07Z</time>
      </trkpt>
      <trkpt lat="49.5754" lon="3.59449">
        <ele>116.4</ele>
        <time>2023-08-06T19:50:08Z</time>
      </trkpt>
      <trkpt lat="49.57535" lon="3.5945">
        <ele>116.6</ele>
        <time>2023-08-06T19:50:09Z</time>
      </trkpt>
      <trkpt lat="49.5753" lon="3.59451">
        <ele>116.8</ele>
        <time>2023-08-06T19:50:10Z</time>
      </trkpt>
      <trkpt lat="49.57488" lon="3.59462">
        <ele>116.8</ele>
        <time>2023-08-06T19:50:19Z</time>
      </trkpt>
      <trkpt lat="49.57479" lon="3.59464">
        <ele>116.6</ele>
        <time>2023-08-06T19:50:21Z</time>
      </trkpt>
      <trkpt lat="49.57474" lon="3.59465">
        <ele>116.4</ele>
        <time>2023-08-06T19:50:22Z</time>
      </trkpt>
      <trkpt lat="49.57469" lon="3.59466">
        <ele>116.2</ele>
        <time>2023-08-06T19:50:23Z</time>
      </trkpt>
      <trkpt lat="49.57465" lon="3.59467">
        <ele>116.2</ele>
        <time>2023-08-06T19:50:24Z</time>
      </trkpt>
      <trkpt lat="49.5746" lon="3.59468">
        <ele>116</ele>
        <time>2023-08-06T19:50:25Z</time>
      </trkpt>
      <trkpt lat="49.57456" lon="3.5947">
        <ele>116.2</ele>
        <time>2023-08-06T19:50:26Z</time>
      </trkpt>
      <trkpt lat="49.57448" lon="3.59475">
        <ele>116</ele>
        <time>2023-08-06T19:50:28Z</time>
      </trkpt>
      <trkpt lat="49.57444" lon="3.59476">
        <ele>116</ele>
        <time>2023-08-06T19:50:29Z</time>
      </trkpt>
      <trkpt lat="49.5744" lon="3.59477">
        <ele>116</ele>
        <time>2023-08-06T19:50:30Z</time>
      </trkpt>
      <trkpt lat="49.57437" lon="3.59477">
        <ele>115.8</ele>
        <time>2023-08-06T19:50:31Z</time>
      </trkpt>
      <trkpt lat="49.57434" lon="3.59476">
        <ele>115.8</ele>
        <time>2023-08-06T19:50:32Z</time>
      </trkpt>
      <trkpt lat="49.57431" lon="3.59476">
        <ele>115.8</ele>
        <time>2023-08-06T19:50:33Z</time>
      </trkpt>
      <trkpt lat="49.57428" lon="3.59475">
        <ele>115.6</ele>
        <time>2023-08-06T19:50:34Z</time>
      </trkpt>
      <trkpt lat="49.57425" lon="3.59475">
        <ele>115.4</ele>
        <time>2023-08-06T19:50:35Z</time>
      </trkpt>
      <trkpt lat="49.57423" lon="3.59474">
        <ele>115.6</ele>
        <time>2023-08-06T19:50:36Z</time>
      </trkpt>
      <trkpt lat="49.5742" lon="3.59473">
        <ele>115.4</ele>
        <time>2023-08-06T19:50:37Z</time>
      </trkpt>
      <trkpt lat="49.57413" lon="3.59473">
        <ele>115</ele>
        <time>2023-08-06T19:50:39Z</time>
      </trkpt>
      <trkpt lat="49.57392" lon="3.5948">
        <ele>114.4</ele>
        <time>2023-08-06T19:50:44Z</time>
      </trkpt>
      <trkpt lat="49.57378" lon="3.59485">
        <ele>114.4</ele>
        <time>2023-08-06T19:50:47Z</time>
      </trkpt>
      <trkpt lat="49.57353" lon="3.59492">
        <ele>113.8</ele>
        <time>2023-08-06T19:50:52Z</time>
      </trkpt>
      <trkpt lat="49.57339" lon="3.59496">
        <ele>113.6</ele>
        <time>2023-08-06T19:50:55Z</time>
      </trkpt>
      <trkpt lat="49.57314" lon="3.59501">
        <ele>113.2</ele>
        <time>2023-08-06T19:51:00Z</time>
      </trkpt>
      <trkpt lat="49.5729" lon="3.59505">
        <ele>112.8</ele>
        <time>2023-08-06T19:51:05Z</time>
      </trkpt>
      <trkpt lat="49.57284" lon="3.59507">
        <ele>112.8</ele>
        <time>2023-08-06T19:51:06Z</time>
      </trkpt>
      <trkpt lat="49.57265" lon="3.5951">
        <ele>112.4</ele>
        <time>2023-08-06T19:51:10Z</time>
      </trkpt>
      <trkpt lat="49.57238" lon="3.59515">
        <ele>112.2</ele>
        <time>2023-08-06T19:51:16Z</time>
      </trkpt>
      <trkpt lat="49.57234" lon="3.59516">
        <ele>112.2</ele>
        <time>2023-08-06T19:51:17Z</time>
      </trkpt>
      <trkpt lat="49.57229" lon="3.59516">
        <ele>112.2</ele>
        <time>2023-08-06T19:51:18Z</time>
      </trkpt>
      <trkpt lat="49.57226" lon="3.59516">
        <ele>112.2</ele>
        <time>2023-08-06T19:51:19Z</time>
      </trkpt>
      <trkpt lat="49.57222" lon="3.59517">
        <ele>112</ele>
        <time>2023-08-06T19:51:20Z</time>
      </trkpt>
      <trkpt lat="49.57218" lon="3.59518">
        <ele>112</ele>
        <time>2023-08-06T19:51:21Z</time>
      </trkpt>
      <trkpt lat="49.57214" lon="3.59519">
        <ele>112</ele>
        <time>2023-08-06T19:51:22Z</time>
      </trkpt>
      <trkpt lat="49.57211" lon="3.5952">
        <ele>112</ele>
        <time>2023-08-06T19:51:23Z</time>
      </trkpt>
      <trkpt lat="49.57206" lon="3.59521">
        <ele>111.8</ele>
        <time>2023-08-06T19:51:24Z</time>
      </trkpt>
      <trkpt lat="49.57197" lon="3.59523">
        <ele>111.6</ele>
        <time>2023-08-06T19:51:26Z</time>
      </trkpt>
      <trkpt lat="49.57166" lon="3.59528">
        <ele>111.2</ele>
        <time>2023-08-06T19:51:34Z</time>
      </trkpt>
      <trkpt lat="49.57162" lon="3.59528">
        <ele>111.2</ele>
        <time>2023-08-06T19:51:35Z</time>
      </trkpt>
      <trkpt lat="49.57158" lon="3.59528">
        <ele>111.2</ele>
        <time>2023-08-06T19:51:36Z</time>
      </trkpt>
      <trkpt lat="49.57153" lon="3.59528">
        <ele>111</ele>
        <time>2023-08-06T19:51:37Z</time>
      </trkpt>
      <trkpt lat="49.5715" lon="3.59529">
        <ele>111</ele>
        <time>2023-08-06T19:51:38Z</time>
      </trkpt>
      <trkpt lat="49.57139" lon="3.5953">
        <ele>110.8</ele>
        <time>2023-08-06T19:51:41Z</time>
      </trkpt>
      <trkpt lat="49.57136" lon="3.5953">
        <ele>110.8</ele>
        <time>2023-08-06T19:51:42Z</time>
      </trkpt>
      <trkpt lat="49.57132" lon="3.5953">
        <ele>111</ele>
        <time>2023-08-06T19:51:43Z</time>
      </trkpt>
      <trkpt lat="49.57129" lon="3.59531">
        <ele>110.8</ele>
        <time>2023-08-06T19:51:44Z</time>
      </trkpt>
      <trkpt lat="49.57125" lon="3.59531">
        <ele>111</ele>
        <time>2023-08-06T19:51:45Z</time>
      </trkpt>
      <trkpt lat="49.57121" lon="3.59531">
        <ele>111</ele>
        <time>2023-08-06T19:51:46Z</time>
      </trkpt>
      <trkpt lat="49.57118" lon="3.59531">
        <ele>110.8</ele>
        <time>2023-08-06T19:51:47Z</time>
      </trkpt>
      <trkpt lat="49.57115" lon="3.59532">
        <ele>110.8</ele>
        <time>2023-08-06T19:51:48Z</time>
      </trkpt>
      <trkpt lat="49.57111" lon="3.59532">
        <ele>110.8</ele>
        <time>2023-08-06T19:51:49Z</time>
      </trkpt>
      <trkpt lat="49.57108" lon="3.59532">
        <ele>110.8</ele>
        <time>2023-08-06T19:51:50Z</time>
      </trkpt>
      <trkpt lat="49.57104" lon="3.59532">
        <ele>110.8</ele>
        <time>2023-08-06T19:51:51Z</time>
      </trkpt>
      <trkpt lat="49.57101" lon="3.59532">
        <ele>110.6</ele>
        <time>2023-08-06T19:51:52Z</time>
      </trkpt>
      <trkpt lat="49.57098" lon="3.59532">
        <ele>110.6</ele>
        <time>2023-08-06T19:51:53Z</time>
      </trkpt>
      <trkpt lat="49.57095" lon="3.59532">
        <ele>110.6</ele>
        <time>2023-08-06T19:51:54Z</time>
      </trkpt>
      <trkpt lat="49.57092" lon="3.59532">
        <ele>110.6</ele>
        <time>2023-08-06T19:51:55Z</time>
      </trkpt>
      <trkpt lat="49.57089" lon="3.59532">
        <ele>110.4</ele>
        <time>2023-08-06T19:51:56Z</time>
      </trkpt>
      <trkpt lat="49.57087" lon="3.59531">
        <ele>110.4</ele>
        <time>2023-08-06T19:51:57Z</time>
      </trkpt>
      <trkpt lat="49.57084" lon="3.59531">
        <ele>110.4</ele>
        <time>2023-08-06T19:51:58Z</time>
      </trkpt>
      <trkpt lat="49.57082" lon="3.59531">
        <ele>110.4</ele>
        <time>2023-08-06T19:51:59Z</time>
      </trkpt>
      <trkpt lat="49.57078" lon="3.59531">
        <ele>110.2</ele>
        <time>2023-08-06T19:52:00Z</time>
      </trkpt>
      <trkpt lat="49.57077" lon="3.59531">
        <ele>110.2</ele>
        <time>2023-08-06T19:52:01Z</time>
      </trkpt>
      <trkpt lat="49.57074" lon="3.59531">
        <ele>110</ele>
        <time>2023-08-06T19:52:02Z</time>
      </trkpt>
      <trkpt lat="49.57072" lon="3.59532">
        <ele>110</ele>
        <time>2023-08-06T19:52:03Z</time>
      </trkpt>
      <trkpt lat="49.5707" lon="3.59532">
        <ele>110</ele>
        <time>2023-08-06T19:52:04Z</time>
      </trkpt>
      <trkpt lat="49.57068" lon="3.59533">
        <ele>109.8</ele>
        <time>2023-08-06T19:52:05Z</time>
      </trkpt>
      <trkpt lat="49.57063" lon="3.5954">
        <ele>109.6</ele>
        <time>2023-08-06T19:52:08Z</time>
      </trkpt>
      <trkpt lat="49.57062" lon="3.59543">
        <ele>109.6</ele>
        <time>2023-08-06T19:52:09Z</time>
      </trkpt>
      <trkpt lat="49.57061" lon="3.59547">
        <ele>109.4</ele>
        <time>2023-08-06T19:52:10Z</time>
      </trkpt>
      <trkpt lat="49.5706" lon="3.59551">
        <ele>109.4</ele>
        <time>2023-08-06T19:52:11Z</time>
      </trkpt>
      <trkpt lat="49.5706" lon="3.59555">
        <ele>109.2</ele>
        <time>2023-08-06T19:52:12Z</time>
      </trkpt>
      <trkpt lat="49.5706" lon="3.59559">
        <ele>109.2</ele>
        <time>2023-08-06T19:52:13Z</time>
      </trkpt>
      <trkpt lat="49.5706" lon="3.59564">
        <ele>109.2</ele>
        <time>2023-08-06T19:52:14Z</time>
      </trkpt>
      <trkpt lat="49.5706" lon="3.59578">
        <ele>109.2</ele>
        <time>2023-08-06T19:52:17Z</time>
      </trkpt>
      <trkpt lat="49.57058" lon="3.59624">
        <ele>109.2</ele>
        <time>2023-08-06T19:52:26Z</time>
      </trkpt>
      <trkpt lat="49.57057" lon="3.59634">
        <ele>109.4</ele>
        <time>2023-08-06T19:52:28Z</time>
      </trkpt>
      <trkpt lat="49.57057" lon="3.59638">
        <ele>109.6</ele>
        <time>2023-08-06T19:52:29Z</time>
      </trkpt>
      <trkpt lat="49.57056" lon="3.59642">
        <ele>109.8</ele>
        <time>2023-08-06T19:52:30Z</time>
      </trkpt>
      <trkpt lat="49.57055" lon="3.59646">
        <ele>110</ele>
        <time>2023-08-06T19:52:31Z</time>
      </trkpt>
      <trkpt lat="49.57055" lon="3.59651">
        <ele>110</ele>
        <time>2023-08-06T19:52:32Z</time>
      </trkpt>
      <trkpt lat="49.57052" lon="3.59693">
        <ele>110.6</ele>
        <time>2023-08-06T19:52:40Z</time>
      </trkpt>
      <trkpt lat="49.5705" lon="3.59713">
        <ele>110.8</ele>
        <time>2023-08-06T19:52:44Z</time>
      </trkpt>
      <trkpt lat="49.57049" lon="3.59718">
        <ele>111</ele>
        <time>2023-08-06T19:52:45Z</time>
      </trkpt>
      <trkpt lat="49.57049" lon="3.59722">
        <ele>111</ele>
        <time>2023-08-06T19:52:46Z</time>
      </trkpt>
      <trkpt lat="49.57048" lon="3.59727">
        <ele>111.2</ele>
        <time>2023-08-06T19:52:47Z</time>
      </trkpt>
      <trkpt lat="49.57047" lon="3.59733">
        <ele>111.2</ele>
        <time>2023-08-06T19:52:48Z</time>
      </trkpt>
      <trkpt lat="49.57047" lon="3.59741">
        <ele>111.4</ele>
        <time>2023-08-06T19:52:50Z</time>
      </trkpt>
      <trkpt lat="49.57046" lon="3.59747">
        <ele>111.6</ele>
        <time>2023-08-06T19:52:51Z</time>
      </trkpt>
      <trkpt lat="49.57046" lon="3.5975">
        <ele>111.6</ele>
        <time>2023-08-06T19:52:52Z</time>
      </trkpt>
      <trkpt lat="49.57045" lon="3.59756">
        <ele>111.8</ele>
        <time>2023-08-06T19:52:53Z</time>
      </trkpt>
      <trkpt lat="49.57044" lon="3.59764">
        <ele>112</ele>
        <time>2023-08-06T19:52:55Z</time>
      </trkpt>
      <trkpt lat="49.5704" lon="3.59792">
        <ele>112.8</ele>
        <time>2023-08-06T19:53:01Z</time>
      </trkpt>
      <trkpt lat="49.57038" lon="3.5981">
        <ele>113</ele>
        <time>2023-08-06T19:53:05Z</time>
      </trkpt>
      <trkpt lat="49.57037" lon="3.59815">
        <ele>113</ele>
        <time>2023-08-06T19:53:06Z</time>
      </trkpt>
      <trkpt lat="49.57036" lon="3.59819">
        <ele>113.2</ele>
        <time>2023-08-06T19:53:07Z</time>
      </trkpt>
      <trkpt lat="49.57036" lon="3.59823">
        <ele>113.4</ele>
        <time>2023-08-06T19:53:08Z</time>
      </trkpt>
      <trkpt lat="49.57035" lon="3.59828">
        <ele>113.4</ele>
        <time>2023-08-06T19:53:09Z</time>
      </trkpt>
      <trkpt lat="49.57034" lon="3.59837">
        <ele>113.6</ele>
        <time>2023-08-06T19:53:11Z</time>
      </trkpt>
      <trkpt lat="49.57031" lon="3.59857">
        <ele>114</ele>
        <time>2023-08-06T19:53:16Z</time>
      </trkpt>
      <trkpt lat="49.57028" lon="3.59871">
        <ele>114.2</ele>
        <time>2023-08-06T19:53:19Z</time>
      </trkpt>
      <trkpt lat="49.57027" lon="3.59888">
        <ele>114.8</ele>
        <time>2023-08-06T19:53:23Z</time>
      </trkpt>
      <trkpt lat="49.57026" lon="3.59893">
        <ele>114.8</ele>
        <time>2023-08-06T19:53:24Z</time>
      </trkpt>
      <trkpt lat="49.57026" lon="3.59897">
        <ele>115</ele>
        <time>2023-08-06T19:53:25Z</time>
      </trkpt>
      <trkpt lat="49.57025" lon="3.59903">
        <ele>115.2</ele>
        <time>2023-08-06T19:53:26Z</time>
      </trkpt>
      <trkpt lat="49.5702" lon="3.59925">
        <ele>115.6</ele>
        <time>2023-08-06T19:53:31Z</time>
      </trkpt>
      <trkpt lat="49.57015" lon="3.59947">
        <ele>115.8</ele>
        <time>2023-08-06T19:53:37Z</time>
      </trkpt>
      <trkpt lat="49.57014" lon="3.5995">
        <ele>115.8</ele>
        <time>2023-08-06T19:53:38Z</time>
      </trkpt>
      <trkpt lat="49.57014" lon="3.59954">
        <ele>115.8</ele>
        <time>2023-08-06T19:53:39Z</time>
      </trkpt>
      <trkpt lat="49.57013" lon="3.59957">
        <ele>116</ele>
        <time>2023-08-06T19:53:40Z</time>
      </trkpt>
      <trkpt lat="49.57013" lon="3.59961">
        <ele>116</ele>
        <time>2023-08-06T19:53:41Z</time>
      </trkpt>
      <trkpt lat="49.57012" lon="3.59965">
        <ele>116</ele>
        <time>2023-08-06T19:53:42Z</time>
      </trkpt>
      <trkpt lat="49.57011" lon="3.59969">
        <ele>116</ele>
        <time>2023-08-06T19:53:43Z</time>
      </trkpt>
      <trkpt lat="49.5701" lon="3.59974">
        <ele>116.2</ele>
        <time>2023-08-06T19:53:44Z</time>
      </trkpt>
      <trkpt lat="49.57009" lon="3.59985">
        <ele>116.6</ele>
        <time>2023-08-06T19:53:47Z</time>
      </trkpt>
      <trkpt lat="49.57006" lon="3.6">
        <ele>116.8</ele>
        <time>2023-08-06T19:53:51Z</time>
      </trkpt>
      <trkpt lat="49.57003" lon="3.60015">
        <ele>117</ele>
        <time>2023-08-06T19:53:55Z</time>
      </trkpt>
      <trkpt lat="49.57002" lon="3.60027">
        <ele>117.4</ele>
        <time>2023-08-06T19:53:58Z</time>
      </trkpt>
      <trkpt lat="49.57001" lon="3.6003">
        <ele>117.4</ele>
        <time>2023-08-06T19:53:59Z</time>
      </trkpt>
      <trkpt lat="49.57001" lon="3.60034">
        <ele>117.2</ele>
        <time>2023-08-06T19:54:00Z</time>
      </trkpt>
      <trkpt lat="49.56997" lon="3.6005">
        <ele>117.4</ele>
        <time>2023-08-06T19:54:04Z</time>
      </trkpt>
      <trkpt lat="49.56997" lon="3.60054">
        <ele>117.4</ele>
        <time>2023-08-06T19:54:05Z</time>
      </trkpt>
      <trkpt lat="49.56991" lon="3.60086">
        <ele>117.8</ele>
        <time>2023-08-06T19:54:14Z</time>
      </trkpt>
      <trkpt lat="49.56991" lon="3.6009">
        <ele>118</ele>
        <time>2023-08-06T19:54:15Z</time>
      </trkpt>
      <trkpt lat="49.56988" lon="3.60103">
        <ele>118</ele>
        <time>2023-08-06T19:54:18Z</time>
      </trkpt>
      <trkpt lat="49.56987" lon="3.60107">
        <ele>118</ele>
        <time>2023-08-06T19:54:19Z</time>
      </trkpt>
      <trkpt lat="49.56985" lon="3.6012">
        <ele>118.2</ele>
        <time>2023-08-06T19:54:22Z</time>
      </trkpt>
      <trkpt lat="49.56981" lon="3.60153">
        <ele>118.6</ele>
        <time>2023-08-06T19:54:31Z</time>
      </trkpt>
      <trkpt lat="49.5698" lon="3.60157">
        <ele>118.6</ele>
        <time>2023-08-06T19:54:32Z</time>
      </trkpt>
      <trkpt lat="49.5698" lon="3.6016">
        <ele>118.4</ele>
        <time>2023-08-06T19:54:33Z</time>
      </trkpt>
      <trkpt lat="49.56979" lon="3.60164">
        <ele>118.4</ele>
        <time>2023-08-06T19:54:34Z</time>
      </trkpt>
      <trkpt lat="49.56979" lon="3.60167">
        <ele>118.2</ele>
        <time>2023-08-06T19:54:35Z</time>
      </trkpt>
      <trkpt lat="49.56978" lon="3.60171">
        <ele>118.2</ele>
        <time>2023-08-06T19:54:36Z</time>
      </trkpt>
      <trkpt lat="49.56978" lon="3.60174">
        <ele>118.2</ele>
        <time>2023-08-06T19:54:37Z</time>
      </trkpt>
      <trkpt lat="49.56976" lon="3.60178">
        <ele>118</ele>
        <time>2023-08-06T19:54:38Z</time>
      </trkpt>
      <trkpt lat="49.56975" lon="3.6018">
        <ele>118</ele>
        <time>2023-08-06T19:54:39Z</time>
      </trkpt>
      <trkpt lat="49.56974" lon="3.60182">
        <ele>118</ele>
        <time>2023-08-06T19:54:40Z</time>
      </trkpt>
      <trkpt lat="49.56973" lon="3.60184">
        <ele>118</ele>
        <time>2023-08-06T19:54:41Z</time>
      </trkpt>
      <trkpt lat="49.5697" lon="3.60185">
        <ele>117.8</ele>
        <time>2023-08-06T19:54:42Z</time>
      </trkpt>
      <trkpt lat="49.56966" lon="3.60189">
        <ele>117.8</ele>
        <time>2023-08-06T19:54:44Z</time>
      </trkpt>
      <trkpt lat="49.5696" lon="3.60202">
        <ele>117.4</ele>
        <time>2023-08-06T19:54:48Z</time>
      </trkpt>
      <trkpt lat="49.56959" lon="3.60206">
        <ele>117.4</ele>
        <time>2023-08-06T19:54:49Z</time>
      </trkpt>
      <trkpt lat="49.56959" lon="3.60209">
        <ele>117.2</ele>
        <time>2023-08-06T19:54:50Z</time>
      </trkpt>
      <trkpt lat="49.56961" lon="3.60216">
        <ele>117</ele>
        <time>2023-08-06T19:54:52Z</time>
      </trkpt>
      <trkpt lat="49.56963" lon="3.60221">
        <ele>116.6</ele>
        <time>2023-08-06T19:54:53Z</time>
      </trkpt>
      <trkpt lat="49.56964" lon="3.60224">
        <ele>116.6</ele>
        <time>2023-08-06T19:54:54Z</time>
      </trkpt>
      <trkpt lat="49.56965" lon="3.60232">
        <ele>116.4</ele>
        <time>2023-08-06T19:54:56Z</time>
      </trkpt>
      <trkpt lat="49.56965" lon="3.60236">
        <ele>116.4</ele>
        <time>2023-08-06T19:54:57Z</time>
      </trkpt>
      <trkpt lat="49.56964" lon="3.60242">
        <ele>116.2</ele>
        <time>2023-08-06T19:54:58Z</time>
      </trkpt>
      <trkpt lat="49.56963" lon="3.6026">
        <ele>115.6</ele>
        <time>2023-08-06T19:55:02Z</time>
      </trkpt>
      <trkpt lat="49.56963" lon="3.60268">
        <ele>115.4</ele>
        <time>2023-08-06T19:55:04Z</time>
      </trkpt>
      <trkpt lat="49.56959" lon="3.60295">
        <ele>114.8</ele>
        <time>2023-08-06T19:55:10Z</time>
      </trkpt>
      <trkpt lat="49.56959" lon="3.603">
        <ele>114.6</ele>
        <time>2023-08-06T19:55:11Z</time>
      </trkpt>
      <trkpt lat="49.56958" lon="3.60303">
        <ele>114.6</ele>
        <time>2023-08-06T19:55:12Z</time>
      </trkpt>
      <trkpt lat="49.56958" lon="3.60307">
        <ele>114.6</ele>
        <time>2023-08-06T19:55:13Z</time>
      </trkpt>
      <trkpt lat="49.56958" lon="3.60315">
        <ele>114.2</ele>
        <time>2023-08-06T19:55:15Z</time>
      </trkpt>
      <trkpt lat="49.56957" lon="3.60319">
        <ele>114.2</ele>
        <time>2023-08-06T19:55:16Z</time>
      </trkpt>
      <trkpt lat="49.56953" lon="3.60347">
        <ele>113.6</ele>
        <time>2023-08-06T19:55:22Z</time>
      </trkpt>
      <trkpt lat="49.56952" lon="3.60356">
        <ele>113.4</ele>
        <time>2023-08-06T19:55:24Z</time>
      </trkpt>
      <trkpt lat="49.56946" lon="3.60373">
        <ele>112.8</ele>
        <time>2023-08-06T19:55:28Z</time>
      </trkpt>
      <trkpt lat="49.56944" lon="3.60376">
        <ele>112.8</ele>
        <time>2023-08-06T19:55:29Z</time>
      </trkpt>
      <trkpt lat="49.56942" lon="3.60383">
        <ele>112.6</ele>
        <time>2023-08-06T19:55:31Z</time>
      </trkpt>
      <trkpt lat="49.56941" lon="3.60388">
        <ele>112.6</ele>
        <time>2023-08-06T19:55:32Z</time>
      </trkpt>
      <trkpt lat="49.56941" lon="3.6039">
        <ele>112.4</ele>
        <time>2023-08-06T19:55:33Z</time>
      </trkpt>
      <trkpt lat="49.5694" lon="3.60394">
        <ele>112.4</ele>
        <time>2023-08-06T19:55:34Z</time>
      </trkpt>
      <trkpt lat="49.5694" lon="3.60398">
        <ele>112.4</ele>
        <time>2023-08-06T19:55:35Z</time>
      </trkpt>
      <trkpt lat="49.56939" lon="3.60402">
        <ele>112.4</ele>
        <time>2023-08-06T19:55:36Z</time>
      </trkpt>
      <trkpt lat="49.56938" lon="3.60406">
        <ele>112.2</ele>
        <time>2023-08-06T19:55:37Z</time>
      </trkpt>
      <trkpt lat="49.56937" lon="3.6041">
        <ele>112.2</ele>
        <time>2023-08-06T19:55:38Z</time>
      </trkpt>
      <trkpt lat="49.56936" lon="3.60415">
        <ele>112</ele>
        <time>2023-08-06T19:55:39Z</time>
      </trkpt>
      <trkpt lat="49.56935" lon="3.60419">
        <ele>111.8</ele>
        <time>2023-08-06T19:55:40Z</time>
      </trkpt>
      <trkpt lat="49.56926" lon="3.60451">
        <ele>111.6</ele>
        <time>2023-08-06T19:55:48Z</time>
      </trkpt>
      <trkpt lat="49.56916" lon="3.60484">
        <ele>111.6</ele>
        <time>2023-08-06T19:55:56Z</time>
      </trkpt>
      <trkpt lat="49.56913" lon="3.60501">
        <ele>111.4</ele>
        <time>2023-08-06T19:56:00Z</time>
      </trkpt>
      <trkpt lat="49.56912" lon="3.60505">
        <ele>111.4</ele>
        <time>2023-08-06T19:56:01Z</time>
      </trkpt>
      <trkpt lat="49.5691" lon="3.60508">
        <ele>111.4</ele>
        <time>2023-08-06T19:56:02Z</time>
      </trkpt>
      <trkpt lat="49.56909" lon="3.60511">
        <ele>111.4</ele>
        <time>2023-08-06T19:56:03Z</time>
      </trkpt>
      <trkpt lat="49.56908" lon="3.60514">
        <ele>111.4</ele>
        <time>2023-08-06T19:56:04Z</time>
      </trkpt>
      <trkpt lat="49.56908" lon="3.60517">
        <ele>111.2</ele>
        <time>2023-08-06T19:56:05Z</time>
      </trkpt>
      <trkpt lat="49.56904" lon="3.60528">
        <ele>111</ele>
        <time>2023-08-06T19:56:09Z</time>
      </trkpt>
      <trkpt lat="49.56903" lon="3.60531">
        <ele>111</ele>
        <time>2023-08-06T19:56:10Z</time>
      </trkpt>
      <trkpt lat="49.56902" lon="3.60535">
        <ele>111</ele>
        <time>2023-08-06T19:56:11Z</time>
      </trkpt>
      <trkpt lat="49.56901" lon="3.60537">
        <ele>111</ele>
        <time>2023-08-06T19:56:12Z</time>
      </trkpt>
      <trkpt lat="49.56896" lon="3.60552">
        <ele>111</ele>
        <time>2023-08-06T19:56:17Z</time>
      </trkpt>
      <trkpt lat="49.56895" lon="3.60555">
        <ele>111</ele>
        <time>2023-08-06T19:56:18Z</time>
      </trkpt>
      <trkpt lat="49.56892" lon="3.60564">
        <ele>110.8</ele>
        <time>2023-08-06T19:56:21Z</time>
      </trkpt>
      <trkpt lat="49.56891" lon="3.60567">
        <ele>110.8</ele>
        <time>2023-08-06T19:56:22Z</time>
      </trkpt>
      <trkpt lat="49.5689" lon="3.6057">
        <ele>110.8</ele>
        <time>2023-08-06T19:56:23Z</time>
      </trkpt>
      <trkpt lat="49.56888" lon="3.60576">
        <ele>110.8</ele>
        <time>2023-08-06T19:56:25Z</time>
      </trkpt>
      <trkpt lat="49.56887" lon="3.60578">
        <ele>110.8</ele>
        <time>2023-08-06T19:56:26Z</time>
      </trkpt>
      <trkpt lat="49.56886" lon="3.60582">
        <ele>110.8</ele>
        <time>2023-08-06T19:56:27Z</time>
      </trkpt>
      <trkpt lat="49.56883" lon="3.60592">
        <ele>110.8</ele>
        <time>2023-08-06T19:56:30Z</time>
      </trkpt>
      <trkpt lat="49.56879" lon="3.60604">
        <ele>111</ele>
        <time>2023-08-06T19:56:34Z</time>
      </trkpt>
      <trkpt lat="49.56878" lon="3.60607">
        <ele>111</ele>
        <time>2023-08-06T19:56:35Z</time>
      </trkpt>
      <trkpt lat="49.56875" lon="3.60616">
        <ele>111.2</ele>
        <time>2023-08-06T19:56:38Z</time>
      </trkpt>
      <trkpt lat="49.56874" lon="3.6062">
        <ele>111.4</ele>
        <time>2023-08-06T19:56:39Z</time>
      </trkpt>
      <trkpt lat="49.56867" lon="3.60637">
        <ele>112</ele>
        <time>2023-08-06T19:56:44Z</time>
      </trkpt>
      <trkpt lat="49.56865" lon="3.6064">
        <ele>112</ele>
        <time>2023-08-06T19:56:45Z</time>
      </trkpt>
      <trkpt lat="49.56864" lon="3.60643">
        <ele>112.2</ele>
        <time>2023-08-06T19:56:46Z</time>
      </trkpt>
      <trkpt lat="49.56862" lon="3.6065">
        <ele>112.4</ele>
        <time>2023-08-06T19:56:48Z</time>
      </trkpt>
      <trkpt lat="49.56862" lon="3.60654">
        <ele>112.4</ele>
        <time>2023-08-06T19:56:49Z</time>
      </trkpt>
      <trkpt lat="49.56861" lon="3.60661">
        <ele>112.6</ele>
        <time>2023-08-06T19:56:51Z</time>
      </trkpt>
      <trkpt lat="49.56859" lon="3.60667">
        <ele>112.8</ele>
        <time>2023-08-06T19:56:53Z</time>
      </trkpt>
      <trkpt lat="49.56857" lon="3.6067">
        <ele>113</ele>
        <time>2023-08-06T19:56:54Z</time>
      </trkpt>
      <trkpt lat="49.56856" lon="3.60674">
        <ele>113</ele>
        <time>2023-08-06T19:56:55Z</time>
      </trkpt>
      <trkpt lat="49.56849" lon="3.60693">
        <ele>113.6</ele>
        <time>2023-08-06T19:57:01Z</time>
      </trkpt>
      <trkpt lat="49.56848" lon="3.60696">
        <ele>113.8</ele>
        <time>2023-08-06T19:57:02Z</time>
      </trkpt>
      <trkpt lat="49.56847" lon="3.60699">
        <ele>113.8</ele>
        <time>2023-08-06T19:57:03Z</time>
      </trkpt>
      <trkpt lat="49.56845" lon="3.60703">
        <ele>113.8</ele>
        <time>2023-08-06T19:57:04Z</time>
      </trkpt>
      <trkpt lat="49.56843" lon="3.60708">
        <ele>114.2</ele>
        <time>2023-08-06T19:57:06Z</time>
      </trkpt>
      <trkpt lat="49.56842" lon="3.60711">
        <ele>114.4</ele>
        <time>2023-08-06T19:57:07Z</time>
      </trkpt>
      <trkpt lat="49.56841" lon="3.60714">
        <ele>114.4</ele>
        <time>2023-08-06T19:57:08Z</time>
      </trkpt>
      <trkpt lat="49.5684" lon="3.60717">
        <ele>114.4</ele>
        <time>2023-08-06T19:57:09Z</time>
      </trkpt>
      <trkpt lat="49.56838" lon="3.60723">
        <ele>114.6</ele>
        <time>2023-08-06T19:57:11Z</time>
      </trkpt>
      <trkpt lat="49.56835" lon="3.60733">
        <ele>114.8</ele>
        <time>2023-08-06T19:57:14Z</time>
      </trkpt>
      <trkpt lat="49.56834" lon="3.60735">
        <ele>114.8</ele>
        <time>2023-08-06T19:57:15Z</time>
      </trkpt>
      <trkpt lat="49.56833" lon="3.60738">
        <ele>114.8</ele>
        <time>2023-08-06T19:57:16Z</time>
      </trkpt>
      <trkpt lat="49.56831" lon="3.60741">
        <ele>114.8</ele>
        <time>2023-08-06T19:57:17Z</time>
      </trkpt>
      <trkpt lat="49.5683" lon="3.60745">
        <ele>114.8</ele>
        <time>2023-08-06T19:57:18Z</time>
      </trkpt>
      <trkpt lat="49.5683" lon="3.60749">
        <ele>114.8</ele>
        <time>2023-08-06T19:57:19Z</time>
      </trkpt>
      <trkpt lat="49.56826" lon="3.60758">
        <ele>114.4</ele>
        <time>2023-08-06T19:57:22Z</time>
      </trkpt>
      <trkpt lat="49.56825" lon="3.6076">
        <ele>114.6</ele>
        <time>2023-08-06T19:57:23Z</time>
      </trkpt>
      <trkpt lat="49.56825" lon="3.60762">
        <ele>114.6</ele>
        <time>2023-08-06T19:57:24Z</time>
      </trkpt>
      <trkpt lat="49.56824" lon="3.60764">
        <ele>114.4</ele>
        <time>2023-08-06T19:57:25Z</time>
      </trkpt>
      <trkpt lat="49.56823" lon="3.60768">
        <ele>114.2</ele>
        <time>2023-08-06T19:57:26Z</time>
      </trkpt>
      <trkpt lat="49.5682" lon="3.6078">
        <ele>114.2</ele>
        <time>2023-08-06T19:57:29Z</time>
      </trkpt>
      <trkpt lat="49.56819" lon="3.60782">
        <ele>113.8</ele>
        <time>2023-08-06T19:57:30Z</time>
      </trkpt>
      <trkpt lat="49.56818" lon="3.60784">
        <ele>113.8</ele>
        <time>2023-08-06T19:57:31Z</time>
      </trkpt>
      <trkpt lat="49.56816" lon="3.60788">
        <ele>113.8</ele>
        <time>2023-08-06T19:57:32Z</time>
      </trkpt>
      <trkpt lat="49.56813" lon="3.60793">
        <ele>114</ele>
        <time>2023-08-06T19:57:33Z</time>
      </trkpt>
      <trkpt lat="49.56812" lon="3.60796">
        <ele>113.8</ele>
        <time>2023-08-06T19:57:34Z</time>
      </trkpt>
      <trkpt lat="49.56811" lon="3.60799">
        <ele>113.8</ele>
        <time>2023-08-06T19:57:35Z</time>
      </trkpt>
      <trkpt lat="49.56809" lon="3.60802">
        <ele>113.6</ele>
        <time>2023-08-06T19:57:36Z</time>
      </trkpt>
      <trkpt lat="49.56808" lon="3.60804">
        <ele>113.4</ele>
        <time>2023-08-06T19:57:37Z</time>
      </trkpt>
      <trkpt lat="49.56808" lon="3.60807">
        <ele>113.4</ele>
        <time>2023-08-06T19:57:38Z</time>
      </trkpt>
      <trkpt lat="49.56808" lon="3.6081">
        <ele>113.2</ele>
        <time>2023-08-06T19:57:39Z</time>
      </trkpt>
      <trkpt lat="49.56808" lon="3.60813">
        <ele>113.2</ele>
        <time>2023-08-06T19:57:40Z</time>
      </trkpt>
      <trkpt lat="49.56807" lon="3.60817">
        <ele>113</ele>
        <time>2023-08-06T19:57:41Z</time>
      </trkpt>
      <trkpt lat="49.56806" lon="3.60821">
        <ele>113</ele>
        <time>2023-08-06T19:57:42Z</time>
      </trkpt>
      <trkpt lat="49.56806" lon="3.60827">
        <ele>112.8</ele>
        <time>2023-08-06T19:57:44Z</time>
      </trkpt>
      <trkpt lat="49.56803" lon="3.60836">
        <ele>112.8</ele>
        <time>2023-08-06T19:57:47Z</time>
      </trkpt>
      <trkpt lat="49.568" lon="3.60838">
        <ele>112.6</ele>
        <time>2023-08-06T19:57:48Z</time>
      </trkpt>
      <trkpt lat="49.56799" lon="3.6084">
        <ele>112.6</ele>
        <time>2023-08-06T19:57:49Z</time>
      </trkpt>
      <trkpt lat="49.56798" lon="3.60842">
        <ele>112.6</ele>
        <time>2023-08-06T19:57:50Z</time>
      </trkpt>
      <trkpt lat="49.56796" lon="3.60843">
        <ele>112.4</ele>
        <time>2023-08-06T19:57:51Z</time>
      </trkpt>
      <trkpt lat="49.56795" lon="3.60844">
        <ele>112.4</ele>
        <time>2023-08-06T19:57:52Z</time>
      </trkpt>
      <trkpt lat="49.56794" lon="3.60846">
        <ele>112.2</ele>
        <time>2023-08-06T19:57:53Z</time>
      </trkpt>
      <trkpt lat="49.56794" lon="3.6085">
        <ele>112.2</ele>
        <time>2023-08-06T19:57:54Z</time>
      </trkpt>
      <trkpt lat="49.56792" lon="3.60854">
        <ele>112.2</ele>
        <time>2023-08-06T19:57:55Z</time>
      </trkpt>
      <trkpt lat="49.5679" lon="3.60856">
        <ele>112.2</ele>
        <time>2023-08-06T19:57:56Z</time>
      </trkpt>
      <trkpt lat="49.56787" lon="3.60859">
        <ele>112</ele>
        <time>2023-08-06T19:57:57Z</time>
      </trkpt>
      <trkpt lat="49.56785" lon="3.60862">
        <ele>112</ele>
        <time>2023-08-06T19:57:58Z</time>
      </trkpt>
      <trkpt lat="49.56784" lon="3.60864">
        <ele>112</ele>
        <time>2023-08-06T19:57:59Z</time>
      </trkpt>
      <trkpt lat="49.56783" lon="3.60866">
        <ele>111.8</ele>
        <time>2023-08-06T19:58:00Z</time>
      </trkpt>
      <trkpt lat="49.56782" lon="3.60867">
        <ele>111.8</ele>
        <time>2023-08-06T19:58:01Z</time>
      </trkpt>
      <trkpt lat="49.56781" lon="3.60867">
        <ele>111.8</ele>
        <time>2023-08-06T19:58:02Z</time>
      </trkpt>
      <trkpt lat="49.56778" lon="3.60869">
        <ele>111.6</ele>
        <time>2023-08-06T19:58:03Z</time>
      </trkpt>
      <trkpt lat="49.56775" lon="3.60872">
        <ele>111.6</ele>
        <time>2023-08-06T19:58:04Z</time>
      </trkpt>
      <trkpt lat="49.56769" lon="3.6088">
        <ele>111.4</ele>
        <time>2023-08-06T19:58:07Z</time>
      </trkpt>
      <trkpt lat="49.56768" lon="3.60881">
        <ele>111.4</ele>
        <time>2023-08-06T19:58:08Z</time>
      </trkpt>
      <trkpt lat="49.56768" lon="3.60882">
        <ele>111.2</ele>
        <time>2023-08-06T19:58:09Z</time>
      </trkpt>
      <trkpt lat="49.56767" lon="3.60883">
        <ele>111.2</ele>
        <time>2023-08-06T19:58:10Z</time>
      </trkpt>
      <trkpt lat="49.56766" lon="3.60887">
        <ele>111</ele>
        <time>2023-08-06T19:58:12Z</time>
      </trkpt>
      <trkpt lat="49.56765" lon="3.6089">
        <ele>111</ele>
        <time>2023-08-06T19:58:13Z</time>
      </trkpt>
      <trkpt lat="49.56765" lon="3.60893">
        <ele>111</ele>
        <time>2023-08-06T19:58:14Z</time>
      </trkpt>
      <trkpt lat="49.56764" lon="3.60895">
        <ele>111</ele>
        <time>2023-08-06T19:58:15Z</time>
      </trkpt>
      <trkpt lat="49.56762" lon="3.60895">
        <ele>111</ele>
        <time>2023-08-06T19:58:16Z</time>
      </trkpt>
      <trkpt lat="49.56759" lon="3.60897">
        <ele>111</ele>
        <time>2023-08-06T19:58:17Z</time>
      </trkpt>
      <trkpt lat="49.56757" lon="3.609">
        <ele>110.8</ele>
        <time>2023-08-06T19:58:18Z</time>
      </trkpt>
      <trkpt lat="49.56755" lon="3.60901">
        <ele>110.8</ele>
        <time>2023-08-06T19:58:19Z</time>
      </trkpt>
      <trkpt lat="49.56755" lon="3.60902">
        <ele>110.8</ele>
        <time>2023-08-06T19:58:20Z</time>
      </trkpt>
      <trkpt lat="49.56755" lon="3.60904">
        <ele>110.6</ele>
        <time>2023-08-06T19:58:21Z</time>
      </trkpt>
      <trkpt lat="49.56755" lon="3.60904">
        <ele>110.6</ele>
        <time>2023-08-06T19:58:22Z</time>
      </trkpt>
      <trkpt lat="49.56755" lon="3.60905">
        <ele>110.2</ele>
        <time>2023-08-06T19:58:23Z</time>
      </trkpt>
      <trkpt lat="49.56755" lon="3.60908">
        <ele>110.2</ele>
        <time>2023-08-06T19:58:24Z</time>
      </trkpt>
      <trkpt lat="49.56755" lon="3.6091">
        <ele>110</ele>
        <time>2023-08-06T19:58:25Z</time>
      </trkpt>
      <trkpt lat="49.56755" lon="3.60911">
        <ele>110</ele>
        <time>2023-08-06T19:58:26Z</time>
      </trkpt>
      <trkpt lat="49.56754" lon="3.60913">
        <ele>110</ele>
        <time>2023-08-06T19:58:27Z</time>
      </trkpt>
      <trkpt lat="49.56754" lon="3.60913">
        <ele>109.8</ele>
        <time>2023-08-06T19:58:28Z</time>
      </trkpt>
      <trkpt lat="49.56754" lon="3.60913">
        <ele>109.8</ele>
        <time>2023-08-06T19:58:29Z</time>
      </trkpt>
      <trkpt lat="49.56751" lon="3.60914">
        <ele>109.8</ele>
        <time>2023-08-06T19:58:30Z</time>
      </trkpt>
      <trkpt lat="49.56749" lon="3.60915">
        <ele>109.8</ele>
        <time>2023-08-06T19:58:31Z</time>
      </trkpt>
      <trkpt lat="49.56746" lon="3.60916">
        <ele>109.6</ele>
        <time>2023-08-06T19:58:32Z</time>
      </trkpt>
      <trkpt lat="49.56746" lon="3.60917">
        <ele>109.4</ele>
        <time>2023-08-06T19:58:33Z</time>
      </trkpt>
      <trkpt lat="49.56744" lon="3.60923">
        <ele>109.4</ele>
        <time>2023-08-06T19:58:36Z</time>
      </trkpt>
      <trkpt lat="49.56743" lon="3.60926">
        <ele>109.4</ele>
        <time>2023-08-06T19:58:37Z</time>
      </trkpt>
      <trkpt lat="49.56742" lon="3.60928">
        <ele>109.4</ele>
        <time>2023-08-06T19:58:38Z</time>
      </trkpt>
      <trkpt lat="49.56741" lon="3.60932">
        <ele>109.2</ele>
        <time>2023-08-06T19:58:39Z</time>
      </trkpt>
      <trkpt lat="49.5674" lon="3.60936">
        <ele>109</ele>
        <time>2023-08-06T19:58:42Z</time>
      </trkpt>
      <trkpt lat="49.5674" lon="3.60936">
        <ele>109</ele>
        <time>2023-08-06T19:58:43Z</time>
      </trkpt>
      <trkpt lat="49.56736" lon="3.60939">
        <ele>108.8</ele>
        <time>2023-08-06T19:58:45Z</time>
      </trkpt>
      <trkpt lat="49.56734" lon="3.60944">
        <ele>108.4</ele>
        <time>2023-08-06T19:58:48Z</time>
      </trkpt>
      <trkpt lat="49.56734" lon="3.60945">
        <ele>108.2</ele>
        <time>2023-08-06T19:58:49Z</time>
      </trkpt>
      <trkpt lat="49.56734" lon="3.60946">
        <ele>108.2</ele>
        <time>2023-08-06T19:58:50Z</time>
      </trkpt>
      <trkpt lat="49.56734" lon="3.60947">
        <ele>108</ele>
        <time>2023-08-06T19:58:51Z</time>
      </trkpt>
      <trkpt lat="49.56733" lon="3.60948">
        <ele>108</ele>
        <time>2023-08-06T19:58:52Z</time>
      </trkpt>
      <trkpt lat="49.56733" lon="3.60949">
        <ele>108</ele>
        <time>2023-08-06T19:58:53Z</time>
      </trkpt>
      <trkpt lat="49.56733" lon="3.60949">
        <ele>107.8</ele>
        <time>2023-08-06T19:58:54Z</time>
      </trkpt>
      <trkpt lat="49.56733" lon="3.6095">
        <ele>107.6</ele>
        <time>2023-08-06T19:58:56Z</time>
      </trkpt>
      <trkpt lat="49.56732" lon="3.6095">
        <ele>107.6</ele>
        <time>2023-08-06T19:58:57Z</time>
      </trkpt>
      <trkpt lat="49.56731" lon="3.60952">
        <ele>107.4</ele>
        <time>2023-08-06T19:58:58Z</time>
      </trkpt>
      <trkpt lat="49.56731" lon="3.60953">
        <ele>107.4</ele>
        <time>2023-08-06T19:58:59Z</time>
      </trkpt>
      <trkpt lat="49.5673" lon="3.60954">
        <ele>107.2</ele>
        <time>2023-08-06T19:59:00Z</time>
      </trkpt>
      <trkpt lat="49.56731" lon="3.60954">
        <ele>107.2</ele>
        <time>2023-08-06T19:59:01Z</time>
      </trkpt>
      <trkpt lat="49.56729" lon="3.60958">
        <ele>107</ele>
        <time>2023-08-06T19:59:03Z</time>
      </trkpt>
      <trkpt lat="49.56728" lon="3.6096">
        <ele>107</ele>
        <time>2023-08-06T19:59:04Z</time>
      </trkpt>
      <trkpt lat="49.56728" lon="3.60961">
        <ele>106.8</ele>
        <time>2023-08-06T19:59:05Z</time>
      </trkpt>
      <trkpt lat="49.56728" lon="3.60963">
        <ele>106.8</ele>
        <time>2023-08-06T19:59:06Z</time>
      </trkpt>
      <trkpt lat="49.56728" lon="3.60964">
        <ele>106.8</ele>
        <time>2023-08-06T19:59:07Z</time>
      </trkpt>
      <trkpt lat="49.56728" lon="3.60966">
        <ele>106.6</ele>
        <time>2023-08-06T19:59:08Z</time>
      </trkpt>
      <trkpt lat="49.56728" lon="3.60969">
        <ele>106.6</ele>
        <time>2023-08-06T19:59:09Z</time>
      </trkpt>
      <trkpt lat="49.56727" lon="3.6097">
        <ele>106.6</ele>
        <time>2023-08-06T19:59:10Z</time>
      </trkpt>
      <trkpt lat="49.56727" lon="3.60971">
        <ele>106.6</ele>
        <time>2023-08-06T19:59:11Z</time>
      </trkpt>
      <trkpt lat="49.56725" lon="3.60976">
        <ele>106.6</ele>
        <time>2023-08-06T19:59:13Z</time>
      </trkpt>
      <trkpt lat="49.56724" lon="3.60978">
        <ele>106.4</ele>
        <time>2023-08-06T19:59:14Z</time>
      </trkpt>
      <trkpt lat="49.56723" lon="3.6098">
        <ele>106.4</ele>
        <time>2023-08-06T19:59:15Z</time>
      </trkpt>
      <trkpt lat="49.56722" lon="3.60982">
        <ele>106.4</ele>
        <time>2023-08-06T19:59:16Z</time>
      </trkpt>
      <trkpt lat="49.5672" lon="3.6099">
        <ele>106.4</ele>
        <time>2023-08-06T19:59:18Z</time>
      </trkpt>
      <trkpt lat="49.56719" lon="3.60994">
        <ele>106.2</ele>
        <time>2023-08-06T19:59:20Z</time>
      </trkpt>
      <trkpt lat="49.56718" lon="3.61007">
        <ele>105.8</ele>
        <time>2023-08-06T19:59:24Z</time>
      </trkpt>
      <trkpt lat="49.56716" lon="3.61008">
        <ele>105.6</ele>
        <time>2023-08-06T19:59:25Z</time>
      </trkpt>
      <trkpt lat="49.56713" lon="3.61012">
        <ele>105.6</ele>
        <time>2023-08-06T19:59:26Z</time>
      </trkpt>
      <trkpt lat="49.56711" lon="3.61015">
        <ele>105.4</ele>
        <time>2023-08-06T19:59:27Z</time>
      </trkpt>
      <trkpt lat="49.56709" lon="3.61018">
        <ele>105.2</ele>
        <time>2023-08-06T19:59:29Z</time>
      </trkpt>
      <trkpt lat="49.56709" lon="3.61018">
        <ele>105.2</ele>
        <time>2023-08-06T19:59:30Z</time>
      </trkpt>
      <trkpt lat="49.56709" lon="3.6102">
        <ele>105.2</ele>
        <time>2023-08-06T19:59:31Z</time>
      </trkpt>
      <trkpt lat="49.56709" lon="3.6102">
        <ele>105</ele>
        <time>2023-08-06T19:59:32Z</time>
      </trkpt>
      <trkpt lat="49.56709" lon="3.6102">
        <ele>105</ele>
        <time>2023-08-06T19:59:34Z</time>
      </trkpt>
      <trkpt lat="49.56643" lon="3.61199">
        <ele>99.4</ele>
        <time>2023-08-06T20:01:03Z</time>
      </trkpt>
      <trkpt lat="49.56643" lon="3.61202">
        <ele>99.4</ele>
        <time>2023-08-06T20:01:05Z</time>
      </trkpt>
      <trkpt lat="49.56638" lon="3.61217">
        <ele>99.4</ele>
        <time>2023-08-06T20:01:13Z</time>
      </trkpt>
      <trkpt lat="49.56636" lon="3.6122">
        <ele>99.6</ele>
        <time>2023-08-06T20:01:15Z</time>
      </trkpt>
      <trkpt lat="49.56636" lon="3.61221">
        <ele>99.6</ele>
        <time>2023-08-06T20:01:16Z</time>
      </trkpt>
      <trkpt lat="49.56636" lon="3.61222">
        <ele>99.6</ele>
        <time>2023-08-06T20:01:17Z</time>
      </trkpt>
      <trkpt lat="49.56635" lon="3.61223">
        <ele>99.6</ele>
        <time>2023-08-06T20:01:18Z</time>
      </trkpt>
      <trkpt lat="49.56635" lon="3.61225">
        <ele>99.4</ele>
        <time>2023-08-06T20:01:19Z</time>
      </trkpt>
      <trkpt lat="49.56634" lon="3.61226">
        <ele>99.4</ele>
        <time>2023-08-06T20:01:20Z</time>
      </trkpt>
      <trkpt lat="49.56633" lon="3.61228">
        <ele>99.4</ele>
        <time>2023-08-06T20:01:21Z</time>
      </trkpt>
      <trkpt lat="49.56633" lon="3.6123">
        <ele>99.4</ele>
        <time>2023-08-06T20:01:22Z</time>
      </trkpt>
      <trkpt lat="49.56633" lon="3.61234">
        <ele>99.4</ele>
        <time>2023-08-06T20:01:24Z</time>
      </trkpt>
      <trkpt lat="49.56633" lon="3.61235">
        <ele>99.4</ele>
        <time>2023-08-06T20:01:25Z</time>
      </trkpt>
      <trkpt lat="49.56633" lon="3.61237">
        <ele>99.2</ele>
        <time>2023-08-06T20:01:26Z</time>
      </trkpt>
      <trkpt lat="49.56632" lon="3.61238">
        <ele>99.4</ele>
        <time>2023-08-06T20:01:27Z</time>
      </trkpt>
      <trkpt lat="49.56632" lon="3.61239">
        <ele>99.4</ele>
        <time>2023-08-06T20:01:28Z</time>
      </trkpt>
      <trkpt lat="49.56631" lon="3.6124">
        <ele>99.4</ele>
        <time>2023-08-06T20:01:29Z</time>
      </trkpt>
      <trkpt lat="49.5663" lon="3.61245">
        <ele>99.4</ele>
        <time>2023-08-06T20:01:32Z</time>
      </trkpt>
      <trkpt lat="49.5663" lon="3.61247">
        <ele>99.2</ele>
        <time>2023-08-06T20:01:33Z</time>
      </trkpt>
      <trkpt lat="49.56629" lon="3.61248">
        <ele>99</ele>
        <time>2023-08-06T20:01:34Z</time>
      </trkpt>
      <trkpt lat="49.56628" lon="3.61249">
        <ele>99</ele>
        <time>2023-08-06T20:01:35Z</time>
      </trkpt>
      <trkpt lat="49.56628" lon="3.6125">
        <ele>99</ele>
        <time>2023-08-06T20:01:36Z</time>
      </trkpt>
      <trkpt lat="49.56626" lon="3.61252">
        <ele>98.8</ele>
        <time>2023-08-06T20:01:38Z</time>
      </trkpt>
      <trkpt lat="49.56626" lon="3.61252">
        <ele>98.8</ele>
        <time>2023-08-06T20:01:40Z</time>
      </trkpt>
      <trkpt lat="49.56574" lon="3.61357">
        <ele>94.4</ele>
        <time>2023-08-06T20:03:22Z</time>
      </trkpt>
      <trkpt lat="49.56574" lon="3.61358">
        <ele>94.2</ele>
        <time>2023-08-06T20:03:23Z</time>
      </trkpt>
      <trkpt lat="49.56574" lon="3.61359">
        <ele>94</ele>
        <time>2023-08-06T20:03:24Z</time>
      </trkpt>
      <trkpt lat="49.56573" lon="3.6136">
        <ele>94</ele>
        <time>2023-08-06T20:03:25Z</time>
      </trkpt>
      <trkpt lat="49.56573" lon="3.61361">
        <ele>94</ele>
        <time>2023-08-06T20:03:26Z</time>
      </trkpt>
      <trkpt lat="49.56573" lon="3.61362">
        <ele>94</ele>
        <time>2023-08-06T20:03:27Z</time>
      </trkpt>
      <trkpt lat="49.56572" lon="3.61366">
        <ele>93.8</ele>
        <time>2023-08-06T20:03:30Z</time>
      </trkpt>
      <trkpt lat="49.56572" lon="3.61367">
        <ele>93.8</ele>
        <time>2023-08-06T20:03:31Z</time>
      </trkpt>
      <trkpt lat="49.56571" lon="3.61368">
        <ele>93.6</ele>
        <time>2023-08-06T20:03:32Z</time>
      </trkpt>
      <trkpt lat="49.56571" lon="3.61369">
        <ele>93.6</ele>
        <time>2023-08-06T20:03:33Z</time>
      </trkpt>
      <trkpt lat="49.56569" lon="3.61378">
        <ele>93.6</ele>
        <time>2023-08-06T20:03:40Z</time>
      </trkpt>
      <trkpt lat="49.56568" lon="3.61379">
        <ele>93.6</ele>
        <time>2023-08-06T20:03:41Z</time>
      </trkpt>
      <trkpt lat="49.56568" lon="3.61384">
        <ele>93.6</ele>
        <time>2023-08-06T20:03:44Z</time>
      </trkpt>
      <trkpt lat="49.56567" lon="3.61385">
        <ele>93.6</ele>
        <time>2023-08-06T20:03:45Z</time>
      </trkpt>
      <trkpt lat="49.56567" lon="3.61389">
        <ele>93.4</ele>
        <time>2023-08-06T20:03:49Z</time>
      </trkpt>
      <trkpt lat="49.56567" lon="3.6139">
        <ele>93.4</ele>
        <time>2023-08-06T20:03:50Z</time>
      </trkpt>
      <trkpt lat="49.56567" lon="3.61391">
        <ele>93.4</ele>
        <time>2023-08-06T20:03:51Z</time>
      </trkpt>
      <trkpt lat="49.56566" lon="3.61393">
        <ele>93.4</ele>
        <time>2023-08-06T20:03:52Z</time>
      </trkpt>
      <trkpt lat="49.56566" lon="3.61396">
        <ele>93.4</ele>
        <time>2023-08-06T20:03:54Z</time>
      </trkpt>
      <trkpt lat="49.56566" lon="3.61399">
        <ele>93.4</ele>
        <time>2023-08-06T20:03:56Z</time>
      </trkpt>
      <trkpt lat="49.56566" lon="3.614">
        <ele>93.4</ele>
        <time>2023-08-06T20:03:57Z</time>
      </trkpt>
      <trkpt lat="49.56565" lon="3.61404">
        <ele>93.4</ele>
        <time>2023-08-06T20:03:59Z</time>
      </trkpt>
      <trkpt lat="49.56565" lon="3.61405">
        <ele>93.4</ele>
        <time>2023-08-06T20:04:00Z</time>
      </trkpt>
      <trkpt lat="49.56565" lon="3.61406">
        <ele>93.2</ele>
        <time>2023-08-06T20:04:01Z</time>
      </trkpt>
      <trkpt lat="49.56565" lon="3.61407">
        <ele>93.4</ele>
        <time>2023-08-06T20:04:02Z</time>
      </trkpt>
      <trkpt lat="49.56565" lon="3.61408">
        <ele>93.4</ele>
        <time>2023-08-06T20:04:03Z</time>
      </trkpt>
      <trkpt lat="49.56564" lon="3.6141">
        <ele>93.4</ele>
        <time>2023-08-06T20:04:04Z</time>
      </trkpt>
      <trkpt lat="49.56565" lon="3.61414">
        <ele>93.4</ele>
        <time>2023-08-06T20:04:07Z</time>
      </trkpt>
      <trkpt lat="49.56565" lon="3.61416">
        <ele>93.4</ele>
        <time>2023-08-06T20:04:08Z</time>
      </trkpt>
      <trkpt lat="49.56565" lon="3.61417">
        <ele>93.4</ele>
        <time>2023-08-06T20:04:09Z</time>
      </trkpt>
      <trkpt lat="49.56565" lon="3.61418">
        <ele>93.4</ele>
        <time>2023-08-06T20:04:10Z</time>
      </trkpt>
      <trkpt lat="49.56565" lon="3.61419">
        <ele>93.4</ele>
        <time>2023-08-06T20:04:11Z</time>
      </trkpt>
      <trkpt lat="49.56564" lon="3.6143">
        <ele>93.4</ele>
        <time>2023-08-06T20:04:17Z</time>
      </trkpt>
      <trkpt lat="49.56564" lon="3.61433">
        <ele>93.6</ele>
        <time>2023-08-06T20:04:19Z</time>
      </trkpt>
      <trkpt lat="49.56563" lon="3.61435">
        <ele>93.6</ele>
        <time>2023-08-06T20:04:20Z</time>
      </trkpt>
      <trkpt lat="49.56563" lon="3.61437">
        <ele>93.6</ele>
        <time>2023-08-06T20:04:21Z</time>
      </trkpt>
      <trkpt lat="49.56562" lon="3.61439">
        <ele>93.4</ele>
        <time>2023-08-06T20:04:22Z</time>
      </trkpt>
      <trkpt lat="49.56562" lon="3.61442">
        <ele>93.4</ele>
        <time>2023-08-06T20:04:23Z</time>
      </trkpt>
      <trkpt lat="49.56562" lon="3.61447">
        <ele>93.4</ele>
        <time>2023-08-06T20:04:26Z</time>
      </trkpt>
      <trkpt lat="49.56561" lon="3.61449">
        <ele>93.4</ele>
        <time>2023-08-06T20:04:27Z</time>
      </trkpt>
      <trkpt lat="49.56564" lon="3.61452">
        <ele>93.6</ele>
        <time>2023-08-06T20:04:28Z</time>
      </trkpt>
      <trkpt lat="49.56562" lon="3.61454">
        <ele>93.6</ele>
        <time>2023-08-06T20:04:30Z</time>
      </trkpt>
      <trkpt lat="49.56561" lon="3.61455">
        <ele>93.6</ele>
        <time>2023-08-06T20:04:31Z</time>
      </trkpt>
      <trkpt lat="49.56561" lon="3.61456">
        <ele>93.6</ele>
        <time>2023-08-06T20:04:32Z</time>
      </trkpt>
      <trkpt lat="49.5656" lon="3.61458">
        <ele>93.6</ele>
        <time>2023-08-06T20:04:33Z</time>
      </trkpt>
      <trkpt lat="49.5656" lon="3.61458">
        <ele>93.8</ele>
        <time>2023-08-06T20:04:35Z</time>
      </trkpt>
      <trkpt lat="49.56561" lon="3.61466">
        <ele>93</ele>
        <time>2023-08-06T20:04:41Z</time>
      </trkpt>
      <trkpt lat="49.56562" lon="3.61479">
        <ele>92.8</ele>
        <time>2023-08-06T20:04:45Z</time>
      </trkpt>
      <trkpt lat="49.56563" lon="3.61481">
        <ele>92.8</ele>
        <time>2023-08-06T20:04:46Z</time>
      </trkpt>
      <trkpt lat="49.56563" lon="3.61484">
        <ele>92.6</ele>
        <time>2023-08-06T20:04:47Z</time>
      </trkpt>
      <trkpt lat="49.56563" lon="3.61487">
        <ele>92.4</ele>
        <time>2023-08-06T20:04:48Z</time>
      </trkpt>
      <trkpt lat="49.56564" lon="3.61489">
        <ele>92.4</ele>
        <time>2023-08-06T20:04:49Z</time>
      </trkpt>
      <trkpt lat="49.56565" lon="3.61494">
        <ele>92.2</ele>
        <time>2023-08-06T20:04:51Z</time>
      </trkpt>
      <trkpt lat="49.56565" lon="3.61496">
        <ele>92.2</ele>
        <time>2023-08-06T20:04:52Z</time>
      </trkpt>
      <trkpt lat="49.56565" lon="3.61498">
        <ele>92.2</ele>
        <time>2023-08-06T20:04:53Z</time>
      </trkpt>
      <trkpt lat="49.56564" lon="3.61502">
        <ele>92.2</ele>
        <time>2023-08-06T20:04:54Z</time>
      </trkpt>
      <trkpt lat="49.56564" lon="3.61504">
        <ele>92.4</ele>
        <time>2023-08-06T20:04:55Z</time>
      </trkpt>
      <trkpt lat="49.56564" lon="3.61507">
        <ele>92.4</ele>
        <time>2023-08-06T20:04:56Z</time>
      </trkpt>
      <trkpt lat="49.56564" lon="3.6151">
        <ele>92.4</ele>
        <time>2023-08-06T20:04:57Z</time>
      </trkpt>
      <trkpt lat="49.56565" lon="3.61545">
        <ele>92.2</ele>
        <time>2023-08-06T20:05:07Z</time>
      </trkpt>
      <trkpt lat="49.56562" lon="3.61565">
        <ele>92.2</ele>
        <time>2023-08-06T20:05:13Z</time>
      </trkpt>
      <trkpt lat="49.5656" lon="3.61576">
        <ele>92</ele>
        <time>2023-08-06T20:05:16Z</time>
      </trkpt>
      <trkpt lat="49.56558" lon="3.61594">
        <ele>92.2</ele>
        <time>2023-08-06T20:05:21Z</time>
      </trkpt>
      <trkpt lat="49.56553" lon="3.61624">
        <ele>92.2</ele>
        <time>2023-08-06T20:05:30Z</time>
      </trkpt>
      <trkpt lat="49.56552" lon="3.61627">
        <ele>92.4</ele>
        <time>2023-08-06T20:05:31Z</time>
      </trkpt>
      <trkpt lat="49.56552" lon="3.61631">
        <ele>92.4</ele>
        <time>2023-08-06T20:05:32Z</time>
      </trkpt>
      <trkpt lat="49.5655" lon="3.61641">
        <ele>92.2</ele>
        <time>2023-08-06T20:05:35Z</time>
      </trkpt>
      <trkpt lat="49.56548" lon="3.61644">
        <ele>92.2</ele>
        <time>2023-08-06T20:05:36Z</time>
      </trkpt>
      <trkpt lat="49.56548" lon="3.61644">
        <ele>92</ele>
        <time>2023-08-06T20:05:37Z</time>
      </trkpt>
      <trkpt lat="49.56548" lon="3.61644">
        <ele>92.2</ele>
        <time>2023-08-06T20:05:38Z</time>
      </trkpt>
      <trkpt lat="49.56544" lon="3.61649">
        <ele>92.2</ele>
        <time>2023-08-06T20:05:39Z</time>
      </trkpt>
      <trkpt lat="49.56543" lon="3.6165">
        <ele>92.2</ele>
        <time>2023-08-06T20:05:40Z</time>
      </trkpt>
      <trkpt lat="49.56541" lon="3.61653">
        <ele>92.2</ele>
        <time>2023-08-06T20:05:41Z</time>
      </trkpt>
      <trkpt lat="49.5654" lon="3.61655">
        <ele>92.2</ele>
        <time>2023-08-06T20:05:42Z</time>
      </trkpt>
      <trkpt lat="49.5654" lon="3.61658">
        <ele>92.2</ele>
        <time>2023-08-06T20:05:43Z</time>
      </trkpt>
      <trkpt lat="49.56538" lon="3.61665">
        <ele>92</ele>
        <time>2023-08-06T20:05:45Z</time>
      </trkpt>
      <trkpt lat="49.56537" lon="3.61669">
        <ele>92.2</ele>
        <time>2023-08-06T20:05:46Z</time>
      </trkpt>
      <trkpt lat="49.56536" lon="3.61676">
        <ele>92</ele>
        <time>2023-08-06T20:05:48Z</time>
      </trkpt>
      <trkpt lat="49.56527" lon="3.61691">
        <ele>92</ele>
        <time>2023-08-06T20:05:53Z</time>
      </trkpt>
      <trkpt lat="49.56525" lon="3.61693">
        <ele>91.8</ele>
        <time>2023-08-06T20:05:54Z</time>
      </trkpt>
      <trkpt lat="49.56523" lon="3.61697">
        <ele>91.8</ele>
        <time>2023-08-06T20:05:55Z</time>
      </trkpt>
      <trkpt lat="49.56519" lon="3.61704">
        <ele>91.8</ele>
        <time>2023-08-06T20:05:57Z</time>
      </trkpt>
      <trkpt lat="49.56514" lon="3.61712">
        <ele>91.6</ele>
        <time>2023-08-06T20:06:00Z</time>
      </trkpt>
      <trkpt lat="49.56511" lon="3.61714">
        <ele>91.4</ele>
        <time>2023-08-06T20:06:01Z</time>
      </trkpt>
      <trkpt lat="49.56504" lon="3.6172">
        <ele>91.6</ele>
        <time>2023-08-06T20:06:04Z</time>
      </trkpt>
      <trkpt lat="49.56498" lon="3.61725">
        <ele>91.4</ele>
        <time>2023-08-06T20:06:07Z</time>
      </trkpt>
      <trkpt lat="49.56496" lon="3.61726">
        <ele>91.4</ele>
        <time>2023-08-06T20:06:08Z</time>
      </trkpt>
      <trkpt lat="49.56494" lon="3.61726">
        <ele>91.4</ele>
        <time>2023-08-06T20:06:09Z</time>
      </trkpt>
      <trkpt lat="49.56491" lon="3.61727">
        <ele>91.4</ele>
        <time>2023-08-06T20:06:10Z</time>
      </trkpt>
      <trkpt lat="49.56482" lon="3.61731">
        <ele>91.2</ele>
        <time>2023-08-06T20:06:14Z</time>
      </trkpt>
      <trkpt lat="49.56481" lon="3.61732">
        <ele>91.2</ele>
        <time>2023-08-06T20:06:15Z</time>
      </trkpt>
      <trkpt lat="49.56479" lon="3.61733">
        <ele>91.2</ele>
        <time>2023-08-06T20:06:16Z</time>
      </trkpt>
      <trkpt lat="49.5648" lon="3.61735">
        <ele>91</ele>
        <time>2023-08-06T20:06:17Z</time>
      </trkpt>
      <trkpt lat="49.56482" lon="3.61748">
        <ele>91</ele>
        <time>2023-08-06T20:06:21Z</time>
      </trkpt>
      <trkpt lat="49.56483" lon="3.61751">
        <ele>90.8</ele>
        <time>2023-08-06T20:06:22Z</time>
      </trkpt>
      <trkpt lat="49.5649" lon="3.61767">
        <ele>90.6</ele>
        <time>2023-08-06T20:06:27Z</time>
      </trkpt>
      <trkpt lat="49.56499" lon="3.61792">
        <ele>90.2</ele>
        <time>2023-08-06T20:06:35Z</time>
      </trkpt>
      <trkpt lat="49.56517" lon="3.61826">
        <ele>90</ele>
        <time>2023-08-06T20:06:43Z</time>
      </trkpt>
      <trkpt lat="49.5652" lon="3.61832">
        <ele>90</ele>
        <time>2023-08-06T20:06:44Z</time>
      </trkpt>
      <trkpt lat="49.56524" lon="3.61844">
        <ele>90</ele>
        <time>2023-08-06T20:06:46Z</time>
      </trkpt>
      <trkpt lat="49.56524" lon="3.61851">
        <ele>90</ele>
        <time>2023-08-06T20:06:47Z</time>
      </trkpt>
      <trkpt lat="49.56522" lon="3.61857">
        <ele>90</ele>
        <time>2023-08-06T20:06:48Z</time>
      </trkpt>
      <trkpt lat="49.5652" lon="3.61862">
        <ele>90</ele>
        <time>2023-08-06T20:06:49Z</time>
      </trkpt>
      <trkpt lat="49.56517" lon="3.61866">
        <ele>90</ele>
        <time>2023-08-06T20:06:50Z</time>
      </trkpt>
      <trkpt lat="49.56514" lon="3.6187">
        <ele>90</ele>
        <time>2023-08-06T20:06:51Z</time>
      </trkpt>
      <trkpt lat="49.56512" lon="3.61875">
        <ele>90</ele>
        <time>2023-08-06T20:06:52Z</time>
      </trkpt>
      <trkpt lat="49.56509" lon="3.61879">
        <ele>90</ele>
        <time>2023-08-06T20:06:53Z</time>
      </trkpt>
      <trkpt lat="49.56507" lon="3.61882">
        <ele>90.2</ele>
        <time>2023-08-06T20:06:54Z</time>
      </trkpt>
      <trkpt lat="49.56504" lon="3.61886">
        <ele>90.2</ele>
        <time>2023-08-06T20:06:55Z</time>
      </trkpt>
      <trkpt lat="49.56501" lon="3.61889">
        <ele>90</ele>
        <time>2023-08-06T20:06:56Z</time>
      </trkpt>
      <trkpt lat="49.56498" lon="3.61893">
        <ele>90.2</ele>
        <time>2023-08-06T20:06:57Z</time>
      </trkpt>
      <trkpt lat="49.56478" lon="3.61915">
        <ele>90.2</ele>
        <time>2023-08-06T20:07:03Z</time>
      </trkpt>
      <trkpt lat="49.56468" lon="3.61928">
        <ele>90</ele>
        <time>2023-08-06T20:07:07Z</time>
      </trkpt>
      <trkpt lat="49.56465" lon="3.6193">
        <ele>90</ele>
        <time>2023-08-06T20:07:08Z</time>
      </trkpt>
      <trkpt lat="49.56463" lon="3.61932">
        <ele>90</ele>
        <time>2023-08-06T20:07:09Z</time>
      </trkpt>
      <trkpt lat="49.5646" lon="3.61935">
        <ele>90</ele>
        <time>2023-08-06T20:07:10Z</time>
      </trkpt>
      <trkpt lat="49.56457" lon="3.61943">
        <ele>90</ele>
        <time>2023-08-06T20:07:12Z</time>
      </trkpt>
      <trkpt lat="49.56456" lon="3.61947">
        <ele>90</ele>
        <time>2023-08-06T20:07:13Z</time>
      </trkpt>
      <trkpt lat="49.56456" lon="3.61951">
        <ele>90</ele>
        <time>2023-08-06T20:07:14Z</time>
      </trkpt>
      <trkpt lat="49.56455" lon="3.61955">
        <ele>89.8</ele>
        <time>2023-08-06T20:07:15Z</time>
      </trkpt>
      <trkpt lat="49.56455" lon="3.61959">
        <ele>89.6</ele>
        <time>2023-08-06T20:07:16Z</time>
      </trkpt>
      <trkpt lat="49.56454" lon="3.61963">
        <ele>89.6</ele>
        <time>2023-08-06T20:07:17Z</time>
      </trkpt>
      <trkpt lat="49.56454" lon="3.61966">
        <ele>89.4</ele>
        <time>2023-08-06T20:07:18Z</time>
      </trkpt>
      <trkpt lat="49.56453" lon="3.61971">
        <ele>89.4</ele>
        <time>2023-08-06T20:07:19Z</time>
      </trkpt>
      <trkpt lat="49.56453" lon="3.61974">
        <ele>89.4</ele>
        <time>2023-08-06T20:07:20Z</time>
      </trkpt>
      <trkpt lat="49.56453" lon="3.61979">
        <ele>89.4</ele>
        <time>2023-08-06T20:07:21Z</time>
      </trkpt>
      <trkpt lat="49.56453" lon="3.61984">
        <ele>89.4</ele>
        <time>2023-08-06T20:07:22Z</time>
      </trkpt>
      <trkpt lat="49.56452" lon="3.61988">
        <ele>89.4</ele>
        <time>2023-08-06T20:07:23Z</time>
      </trkpt>
      <trkpt lat="49.5645" lon="3.6201">
        <ele>89</ele>
        <time>2023-08-06T20:07:27Z</time>
      </trkpt>
      <trkpt lat="49.5645" lon="3.62046">
        <ele>89</ele>
        <time>2023-08-06T20:07:34Z</time>
      </trkpt>
      <trkpt lat="49.56451" lon="3.62051">
        <ele>89</ele>
        <time>2023-08-06T20:07:35Z</time>
      </trkpt>
      <trkpt lat="49.56452" lon="3.62055">
        <ele>89.2</ele>
        <time>2023-08-06T20:07:36Z</time>
      </trkpt>
      <trkpt lat="49.56453" lon="3.62058">
        <ele>89.2</ele>
        <time>2023-08-06T20:07:37Z</time>
      </trkpt>
      <trkpt lat="49.56455" lon="3.62061">
        <ele>89</ele>
        <time>2023-08-06T20:07:38Z</time>
      </trkpt>
      <trkpt lat="49.56455" lon="3.62065">
        <ele>89.2</ele>
        <time>2023-08-06T20:07:39Z</time>
      </trkpt>
      <trkpt lat="49.56459" lon="3.62067">
        <ele>89.4</ele>
        <time>2023-08-06T20:07:40Z</time>
      </trkpt>
      <trkpt lat="49.5646" lon="3.62068">
        <ele>89.4</ele>
        <time>2023-08-06T20:07:41Z</time>
      </trkpt>
      <trkpt lat="49.56458" lon="3.62074">
        <ele>89.2</ele>
        <time>2023-08-06T20:07:42Z</time>
      </trkpt>
      <trkpt lat="49.56449" lon="3.62078">
        <ele>89.2</ele>
        <time>2023-08-06T20:07:43Z</time>
      </trkpt>
      <trkpt lat="49.56443" lon="3.62096">
        <ele>88.8</ele>
        <time>2023-08-06T20:07:48Z</time>
      </trkpt>
      <trkpt lat="49.56442" lon="3.62099">
        <ele>88.8</ele>
        <time>2023-08-06T20:07:49Z</time>
      </trkpt>
      <trkpt lat="49.56437" lon="3.62107">
        <ele>88.8</ele>
        <time>2023-08-06T20:07:51Z</time>
      </trkpt>
      <trkpt lat="49.56419" lon="3.62124">
        <ele>88.4</ele>
        <time>2023-08-06T20:07:57Z</time>
      </trkpt>
      <trkpt lat="49.56406" lon="3.62135">
        <ele>88.2</ele>
        <time>2023-08-06T20:08:00Z</time>
      </trkpt>
      <trkpt lat="49.56403" lon="3.6214">
        <ele>88</ele>
        <time>2023-08-06T20:08:01Z</time>
      </trkpt>
      <trkpt lat="49.56398" lon="3.6215">
        <ele>87.8</ele>
        <time>2023-08-06T20:08:03Z</time>
      </trkpt>
      <trkpt lat="49.56391" lon="3.62158">
        <ele>87.6</ele>
        <time>2023-08-06T20:08:05Z</time>
      </trkpt>
      <trkpt lat="49.56385" lon="3.62172">
        <ele>87.6</ele>
        <time>2023-08-06T20:08:08Z</time>
      </trkpt>
      <trkpt lat="49.56383" lon="3.62176">
        <ele>87.6</ele>
        <time>2023-08-06T20:08:09Z</time>
      </trkpt>
      <trkpt lat="49.56381" lon="3.6218">
        <ele>87.4</ele>
        <time>2023-08-06T20:08:10Z</time>
      </trkpt>
      <trkpt lat="49.5638" lon="3.62184">
        <ele>87.2</ele>
        <time>2023-08-06T20:08:11Z</time>
      </trkpt>
      <trkpt lat="49.56379" lon="3.62193">
        <ele>87.4</ele>
        <time>2023-08-06T20:08:13Z</time>
      </trkpt>
      <trkpt lat="49.56378" lon="3.62197">
        <ele>87.4</ele>
        <time>2023-08-06T20:08:14Z</time>
      </trkpt>
      <trkpt lat="49.56377" lon="3.62202">
        <ele>87.4</ele>
        <time>2023-08-06T20:08:15Z</time>
      </trkpt>
      <trkpt lat="49.56377" lon="3.62205">
        <ele>87.4</ele>
        <time>2023-08-06T20:08:16Z</time>
      </trkpt>
      <trkpt lat="49.56376" lon="3.6221">
        <ele>87.2</ele>
        <time>2023-08-06T20:08:17Z</time>
      </trkpt>
      <trkpt lat="49.56375" lon="3.62215">
        <ele>87.2</ele>
        <time>2023-08-06T20:08:18Z</time>
      </trkpt>
      <trkpt lat="49.56371" lon="3.62229">
        <ele>87.2</ele>
        <time>2023-08-06T20:08:21Z</time>
      </trkpt>
      <trkpt lat="49.5637" lon="3.62234">
        <ele>87</ele>
        <time>2023-08-06T20:08:22Z</time>
      </trkpt>
      <trkpt lat="49.56369" lon="3.62244">
        <ele>87</ele>
        <time>2023-08-06T20:08:24Z</time>
      </trkpt>
      <trkpt lat="49.56369" lon="3.62248">
        <ele>87</ele>
        <time>2023-08-06T20:08:25Z</time>
      </trkpt>
      <trkpt lat="49.56368" lon="3.6225">
        <ele>87</ele>
        <time>2023-08-06T20:08:26Z</time>
      </trkpt>
      <trkpt lat="49.56368" lon="3.62253">
        <ele>86.8</ele>
        <time>2023-08-06T20:08:27Z</time>
      </trkpt>
      <trkpt lat="49.56367" lon="3.62255">
        <ele>86.8</ele>
        <time>2023-08-06T20:08:28Z</time>
      </trkpt>
      <trkpt lat="49.56366" lon="3.62257">
        <ele>86.8</ele>
        <time>2023-08-06T20:08:29Z</time>
      </trkpt>
      <trkpt lat="49.56365" lon="3.6226">
        <ele>86.8</ele>
        <time>2023-08-06T20:08:30Z</time>
      </trkpt>
      <trkpt lat="49.56364" lon="3.62261">
        <ele>86.6</ele>
        <time>2023-08-06T20:08:31Z</time>
      </trkpt>
      <trkpt lat="49.56363" lon="3.62264">
        <ele>86.6</ele>
        <time>2023-08-06T20:08:32Z</time>
      </trkpt>
      <trkpt lat="49.5636" lon="3.62277">
        <ele>86.6</ele>
        <time>2023-08-06T20:08:35Z</time>
      </trkpt>
      <trkpt lat="49.5636" lon="3.62277">
        <ele>86.4</ele>
        <time>2023-08-06T20:08:36Z</time>
      </trkpt>
      <trkpt lat="49.5636" lon="3.62277">
        <ele>86.4</ele>
        <time>2023-08-06T20:08:38Z</time>
      </trkpt>
      <trkpt lat="49.56359" lon="3.62287">
        <ele>84.2</ele>
        <time>2023-08-06T20:10:09Z</time>
      </trkpt>
      <trkpt lat="49.56358" lon="3.6229">
        <ele>84.2</ele>
        <time>2023-08-06T20:10:10Z</time>
      </trkpt>
      <trkpt lat="49.56358" lon="3.62293">
        <ele>84.2</ele>
        <time>2023-08-06T20:10:11Z</time>
      </trkpt>
      <trkpt lat="49.56356" lon="3.62308">
        <ele>83.8</ele>
        <time>2023-08-06T20:10:16Z</time>
      </trkpt>
      <trkpt lat="49.56355" lon="3.62312">
        <ele>83.8</ele>
        <time>2023-08-06T20:10:17Z</time>
      </trkpt>
      <trkpt lat="49.56355" lon="3.62316">
        <ele>83.8</ele>
        <time>2023-08-06T20:10:18Z</time>
      </trkpt>
      <trkpt lat="49.56352" lon="3.62327">
        <ele>83.8</ele>
        <time>2023-08-06T20:10:21Z</time>
      </trkpt>
      <trkpt lat="49.56351" lon="3.62339">
        <ele>83.4</ele>
        <time>2023-08-06T20:10:24Z</time>
      </trkpt>
      <trkpt lat="49.5635" lon="3.6234">
        <ele>83.4</ele>
        <time>2023-08-06T20:10:25Z</time>
      </trkpt>
      <trkpt lat="49.5635" lon="3.6234">
        <ele>83.4</ele>
        <time>2023-08-06T20:10:26Z</time>
      </trkpt>
      <trkpt lat="49.56351" lon="3.62342">
        <ele>83.2</ele>
        <time>2023-08-06T20:10:27Z</time>
      </trkpt>
      <trkpt lat="49.56345" lon="3.62362">
        <ele>83</ele>
        <time>2023-08-06T20:10:31Z</time>
      </trkpt>
      <trkpt lat="49.5634" lon="3.62387">
        <ele>82.8</ele>
        <time>2023-08-06T20:10:35Z</time>
      </trkpt>
      <trkpt lat="49.56339" lon="3.62393">
        <ele>82.8</ele>
        <time>2023-08-06T20:10:36Z</time>
      </trkpt>
      <trkpt lat="49.56337" lon="3.624">
        <ele>82.8</ele>
        <time>2023-08-06T20:10:37Z</time>
      </trkpt>
      <trkpt lat="49.56337" lon="3.62411">
        <ele>82.4</ele>
        <time>2023-08-06T20:10:39Z</time>
      </trkpt>
      <trkpt lat="49.56336" lon="3.62416">
        <ele>82.4</ele>
        <time>2023-08-06T20:10:40Z</time>
      </trkpt>
      <trkpt lat="49.56337" lon="3.62421">
        <ele>82.4</ele>
        <time>2023-08-06T20:10:41Z</time>
      </trkpt>
      <trkpt lat="49.56336" lon="3.62425">
        <ele>82.4</ele>
        <time>2023-08-06T20:10:42Z</time>
      </trkpt>
      <trkpt lat="49.56336" lon="3.62428">
        <ele>82.4</ele>
        <time>2023-08-06T20:10:43Z</time>
      </trkpt>
      <trkpt lat="49.56335" lon="3.62432">
        <ele>82.2</ele>
        <time>2023-08-06T20:10:44Z</time>
      </trkpt>
      <trkpt lat="49.56335" lon="3.62435">
        <ele>81.8</ele>
        <time>2023-08-06T20:10:45Z</time>
      </trkpt>
      <trkpt lat="49.56334" lon="3.62439">
        <ele>81.8</ele>
        <time>2023-08-06T20:10:46Z</time>
      </trkpt>
      <trkpt lat="49.56335" lon="3.62442">
        <ele>81.8</ele>
        <time>2023-08-06T20:10:47Z</time>
      </trkpt>
      <trkpt lat="49.56336" lon="3.62441">
        <ele>81.8</ele>
        <time>2023-08-06T20:10:48Z</time>
      </trkpt>
      <trkpt lat="49.56335" lon="3.62443">
        <ele>81.6</ele>
        <time>2023-08-06T20:10:49Z</time>
      </trkpt>
      <trkpt lat="49.56336" lon="3.62449">
        <ele>81</ele>
        <time>2023-08-06T20:10:52Z</time>
      </trkpt>
      <trkpt lat="49.56337" lon="3.6245">
        <ele>81</ele>
        <time>2023-08-06T20:10:53Z</time>
      </trkpt>
      <trkpt lat="49.56338" lon="3.62451">
        <ele>81</ele>
        <time>2023-08-06T20:10:54Z</time>
      </trkpt>
      <trkpt lat="49.56338" lon="3.62452">
        <ele>81</ele>
        <time>2023-08-06T20:10:55Z</time>
      </trkpt>
      <trkpt lat="49.56339" lon="3.62452">
        <ele>80.6</ele>
        <time>2023-08-06T20:10:56Z</time>
      </trkpt>
      <trkpt lat="49.56339" lon="3.62452">
        <ele>80.6</ele>
        <time>2023-08-06T20:10:57Z</time>
      </trkpt>
      <trkpt lat="49.56339" lon="3.62453">
        <ele>80.6</ele>
        <time>2023-08-06T20:10:58Z</time>
      </trkpt>
      <trkpt lat="49.5634" lon="3.62453">
        <ele>80.4</ele>
        <time>2023-08-06T20:10:59Z</time>
      </trkpt>
      <trkpt lat="49.5634" lon="3.62453">
        <ele>80.4</ele>
        <time>2023-08-06T20:11:00Z</time>
      </trkpt>
      <trkpt lat="49.5634" lon="3.62453">
        <ele>80.2</ele>
        <time>2023-08-06T20:11:02Z</time>
      </trkpt>
    </trkseg>
  </trk>
</gpx>